<?xml version="1.0" encoding="UTF-8" standalone="no" ?>
<gpx xmlns="http://www.topografix.com/GPX/1/1" xmlns:xsi="http://www.w3.org/2001/XMLSchema-instance" xsi:schemaLocation="http://www.topografix.com/GPX/1/1 http://www.topografix.com/GPX/1/1/gpx.xsd" version="1.1" creator="VisuGPX - https://www.visugpx.com">
  <metadata>
    <name>SO-NO-St Pazanne Chéméré Chauvé St Pere en Retz St Viaud Canal Martinière</name>
    <desc><![CDATA[SO-NO-St Pazanne Chéméré Chauvé St Pere en Retz St Viaud Canal Martinière]]></desc>
  </metadata>
  <trk>
    <name><![CDATA[2020-05-23 11:26]]></name>
    <desc><![CDATA[<p>Heure de départ: 05/23/2020 11:26<br/>Heure d'arrivée: 05/23/2020 14:55<br/>Distance: 87,4 km (03:28)<br/>Temps déplacement: 03:25<br/>Vitesse moyenne: 25,11 km/h<br/>Vitesse moyenne mouv.: 25,49 km/h<br/>Vitesse Max.: 42,39 km/h<br/>Altitude minimale: -17 m<br/>Altitude maximale: 57 m<br/>Vitesse de montée: 378,7 m/h<br/>Vitesse de descente: -385 m/h<br/>Gain d'altitude: 377 m<br/>Perte d'altitude: -355 m<br/>Temps de montée: 00:59<br/>Temps de descente: 00:55<br/></p><hr align="center" width="480" style="height: 2px; width: 517px"/>]]></desc>
    <trkseg>
      <trkpt lat="47.1677" lon="-1.62647">
        <ele>9.18</ele>
        <time>2020-05-23T09:26:14Z</time>
      </trkpt>
      <trkpt lat="47.16779" lon="-1.62651">
        <ele>1.54</ele>
        <time>2020-05-23T09:27:32Z</time>
      </trkpt>
      <trkpt lat="47.16781" lon="-1.62664">
        <ele>9.79</ele>
        <time>2020-05-23T09:28:31Z</time>
      </trkpt>
      <trkpt lat="47.16775" lon="-1.62675">
        <ele>12.85</ele>
        <time>2020-05-23T09:28:34Z</time>
      </trkpt>
      <trkpt lat="47.16764" lon="-1.62675">
        <ele>15.38</ele>
        <time>2020-05-23T09:28:37Z</time>
      </trkpt>
      <trkpt lat="47.16755" lon="-1.62672">
        <ele>16.47</ele>
        <time>2020-05-23T09:28:39Z</time>
      </trkpt>
      <trkpt lat="47.16745" lon="-1.62675">
        <ele>17.4</ele>
        <time>2020-05-23T09:28:41Z</time>
      </trkpt>
      <trkpt lat="47.16735" lon="-1.6268">
        <ele>17.86</ele>
        <time>2020-05-23T09:28:43Z</time>
      </trkpt>
      <trkpt lat="47.16725" lon="-1.62687">
        <ele>17.87</ele>
        <time>2020-05-23T09:28:45Z</time>
      </trkpt>
      <trkpt lat="47.16717" lon="-1.62699">
        <ele>17.48</ele>
        <time>2020-05-23T09:28:47Z</time>
      </trkpt>
      <trkpt lat="47.16721" lon="-1.62714">
        <ele>17.49</ele>
        <time>2020-05-23T09:28:49Z</time>
      </trkpt>
      <trkpt lat="47.16729" lon="-1.62731">
        <ele>17.14</ele>
        <time>2020-05-23T09:28:51Z</time>
      </trkpt>
      <trkpt lat="47.16738" lon="-1.62745">
        <ele>16.55</ele>
        <time>2020-05-23T09:28:53Z</time>
      </trkpt>
      <trkpt lat="47.16748" lon="-1.62759">
        <ele>15.73</ele>
        <time>2020-05-23T09:28:55Z</time>
      </trkpt>
      <trkpt lat="47.16759" lon="-1.62771">
        <ele>15.94</ele>
        <time>2020-05-23T09:28:57Z</time>
      </trkpt>
      <trkpt lat="47.16771" lon="-1.62783">
        <ele>16.22</ele>
        <time>2020-05-23T09:28:59Z</time>
      </trkpt>
      <trkpt lat="47.16783" lon="-1.62794">
        <ele>16.06</ele>
        <time>2020-05-23T09:29:01Z</time>
      </trkpt>
      <trkpt lat="47.16796" lon="-1.62806">
        <ele>15.99</ele>
        <time>2020-05-23T09:29:03Z</time>
      </trkpt>
      <trkpt lat="47.16807" lon="-1.62815">
        <ele>15.65</ele>
        <time>2020-05-23T09:29:05Z</time>
      </trkpt>
      <trkpt lat="47.16819" lon="-1.62825">
        <ele>15.43</ele>
        <time>2020-05-23T09:29:07Z</time>
      </trkpt>
      <trkpt lat="47.1683" lon="-1.62836">
        <ele>15.32</ele>
        <time>2020-05-23T09:29:09Z</time>
      </trkpt>
      <trkpt lat="47.16838" lon="-1.62844">
        <ele>15.56</ele>
        <time>2020-05-23T09:29:11Z</time>
      </trkpt>
      <trkpt lat="47.16847" lon="-1.62853">
        <ele>15.71</ele>
        <time>2020-05-23T09:29:13Z</time>
      </trkpt>
      <trkpt lat="47.16855" lon="-1.62861">
        <ele>15.14</ele>
        <time>2020-05-23T09:29:15Z</time>
      </trkpt>
      <trkpt lat="47.16866" lon="-1.62871">
        <ele>14.32</ele>
        <time>2020-05-23T09:29:17Z</time>
      </trkpt>
      <trkpt lat="47.16876" lon="-1.62883">
        <ele>13.87</ele>
        <time>2020-05-23T09:29:19Z</time>
      </trkpt>
      <trkpt lat="47.16885" lon="-1.62899">
        <ele>15.08</ele>
        <time>2020-05-23T09:29:21Z</time>
      </trkpt>
      <trkpt lat="47.16891" lon="-1.62917">
        <ele>15.52</ele>
        <time>2020-05-23T09:29:23Z</time>
      </trkpt>
      <trkpt lat="47.16893" lon="-1.62933">
        <ele>15.19</ele>
        <time>2020-05-23T09:29:25Z</time>
      </trkpt>
      <trkpt lat="47.16895" lon="-1.62955">
        <ele>15.48</ele>
        <time>2020-05-23T09:29:27Z</time>
      </trkpt>
      <trkpt lat="47.16894" lon="-1.62972">
        <ele>16.13</ele>
        <time>2020-05-23T09:29:29Z</time>
      </trkpt>
      <trkpt lat="47.16893" lon="-1.62991">
        <ele>17.04</ele>
        <time>2020-05-23T09:29:31Z</time>
      </trkpt>
      <trkpt lat="47.1689" lon="-1.63011">
        <ele>17.46</ele>
        <time>2020-05-23T09:29:33Z</time>
      </trkpt>
      <trkpt lat="47.16888" lon="-1.63028">
        <ele>17.92</ele>
        <time>2020-05-23T09:29:35Z</time>
      </trkpt>
      <trkpt lat="47.16887" lon="-1.63047">
        <ele>18.43</ele>
        <time>2020-05-23T09:29:37Z</time>
      </trkpt>
      <trkpt lat="47.16887" lon="-1.63065">
        <ele>18.7</ele>
        <time>2020-05-23T09:29:39Z</time>
      </trkpt>
      <trkpt lat="47.16889" lon="-1.63083">
        <ele>18.93</ele>
        <time>2020-05-23T09:29:41Z</time>
      </trkpt>
      <trkpt lat="47.16892" lon="-1.63103">
        <ele>18.63</ele>
        <time>2020-05-23T09:29:43Z</time>
      </trkpt>
      <trkpt lat="47.16895" lon="-1.6312">
        <ele>18.85</ele>
        <time>2020-05-23T09:29:45Z</time>
      </trkpt>
      <trkpt lat="47.169" lon="-1.63136">
        <ele>19.58</ele>
        <time>2020-05-23T09:29:47Z</time>
      </trkpt>
      <trkpt lat="47.16905" lon="-1.63151">
        <ele>20.15</ele>
        <time>2020-05-23T09:29:49Z</time>
      </trkpt>
      <trkpt lat="47.16911" lon="-1.63166">
        <ele>20.55</ele>
        <time>2020-05-23T09:29:51Z</time>
      </trkpt>
      <trkpt lat="47.16917" lon="-1.63181">
        <ele>21.39</ele>
        <time>2020-05-23T09:29:53Z</time>
      </trkpt>
      <trkpt lat="47.16925" lon="-1.63197">
        <ele>22.51</ele>
        <time>2020-05-23T09:29:55Z</time>
      </trkpt>
      <trkpt lat="47.16933" lon="-1.6321">
        <ele>23.09</ele>
        <time>2020-05-23T09:29:57Z</time>
      </trkpt>
      <trkpt lat="47.1694" lon="-1.63219">
        <ele>24.45</ele>
        <time>2020-05-23T09:29:59Z</time>
      </trkpt>
      <trkpt lat="47.16948" lon="-1.6323">
        <ele>25.38</ele>
        <time>2020-05-23T09:30:01Z</time>
      </trkpt>
      <trkpt lat="47.16957" lon="-1.63242">
        <ele>25.33</ele>
        <time>2020-05-23T09:30:03Z</time>
      </trkpt>
      <trkpt lat="47.16967" lon="-1.63252">
        <ele>23.79</ele>
        <time>2020-05-23T09:30:06Z</time>
      </trkpt>
      <trkpt lat="47.16964" lon="-1.63265">
        <ele>22.69</ele>
        <time>2020-05-23T09:30:09Z</time>
      </trkpt>
      <trkpt lat="47.16956" lon="-1.6328">
        <ele>21.52</ele>
        <time>2020-05-23T09:30:11Z</time>
      </trkpt>
      <trkpt lat="47.16948" lon="-1.63294">
        <ele>21.38</ele>
        <time>2020-05-23T09:30:13Z</time>
      </trkpt>
      <trkpt lat="47.16939" lon="-1.63307">
        <ele>22.29</ele>
        <time>2020-05-23T09:30:15Z</time>
      </trkpt>
      <trkpt lat="47.16929" lon="-1.63322">
        <ele>23.37</ele>
        <time>2020-05-23T09:30:17Z</time>
      </trkpt>
      <trkpt lat="47.16919" lon="-1.63335">
        <ele>24.17</ele>
        <time>2020-05-23T09:30:19Z</time>
      </trkpt>
      <trkpt lat="47.1691" lon="-1.63348">
        <ele>24.74</ele>
        <time>2020-05-23T09:30:21Z</time>
      </trkpt>
      <trkpt lat="47.169" lon="-1.63361">
        <ele>25.44</ele>
        <time>2020-05-23T09:30:23Z</time>
      </trkpt>
      <trkpt lat="47.1689" lon="-1.63375">
        <ele>24.84</ele>
        <time>2020-05-23T09:30:25Z</time>
      </trkpt>
      <trkpt lat="47.16881" lon="-1.6339">
        <ele>24.34</ele>
        <time>2020-05-23T09:30:27Z</time>
      </trkpt>
      <trkpt lat="47.16873" lon="-1.63403">
        <ele>24.12</ele>
        <time>2020-05-23T09:30:29Z</time>
      </trkpt>
      <trkpt lat="47.16864" lon="-1.63419">
        <ele>24.01</ele>
        <time>2020-05-23T09:30:31Z</time>
      </trkpt>
      <trkpt lat="47.16856" lon="-1.63433">
        <ele>23.79</ele>
        <time>2020-05-23T09:30:33Z</time>
      </trkpt>
      <trkpt lat="47.16848" lon="-1.63446">
        <ele>23.89</ele>
        <time>2020-05-23T09:30:35Z</time>
      </trkpt>
      <trkpt lat="47.16838" lon="-1.63462">
        <ele>23.48</ele>
        <time>2020-05-23T09:30:37Z</time>
      </trkpt>
      <trkpt lat="47.16831" lon="-1.63474">
        <ele>23.29</ele>
        <time>2020-05-23T09:30:39Z</time>
      </trkpt>
      <trkpt lat="47.16822" lon="-1.6349">
        <ele>23.35</ele>
        <time>2020-05-23T09:30:41Z</time>
      </trkpt>
      <trkpt lat="47.16814" lon="-1.63504">
        <ele>24.15</ele>
        <time>2020-05-23T09:30:43Z</time>
      </trkpt>
      <trkpt lat="47.16805" lon="-1.63519">
        <ele>24.71</ele>
        <time>2020-05-23T09:30:45Z</time>
      </trkpt>
      <trkpt lat="47.16796" lon="-1.63534">
        <ele>25.51</ele>
        <time>2020-05-23T09:30:47Z</time>
      </trkpt>
      <trkpt lat="47.16789" lon="-1.63549">
        <ele>25.47</ele>
        <time>2020-05-23T09:30:49Z</time>
      </trkpt>
      <trkpt lat="47.1678" lon="-1.63563">
        <ele>24.7</ele>
        <time>2020-05-23T09:30:51Z</time>
      </trkpt>
      <trkpt lat="47.16771" lon="-1.63579">
        <ele>24.43</ele>
        <time>2020-05-23T09:30:53Z</time>
      </trkpt>
      <trkpt lat="47.16762" lon="-1.63593">
        <ele>24.33</ele>
        <time>2020-05-23T09:30:55Z</time>
      </trkpt>
      <trkpt lat="47.16754" lon="-1.63608">
        <ele>23.93</ele>
        <time>2020-05-23T09:30:57Z</time>
      </trkpt>
      <trkpt lat="47.16745" lon="-1.63622">
        <ele>24.76</ele>
        <time>2020-05-23T09:30:59Z</time>
      </trkpt>
      <trkpt lat="47.16742" lon="-1.63639">
        <ele>24.73</ele>
        <time>2020-05-23T09:31:01Z</time>
      </trkpt>
      <trkpt lat="47.16751" lon="-1.63649">
        <ele>25.23</ele>
        <time>2020-05-23T09:31:03Z</time>
      </trkpt>
      <trkpt lat="47.16765" lon="-1.63653">
        <ele>25.7</ele>
        <time>2020-05-23T09:31:05Z</time>
      </trkpt>
      <trkpt lat="47.16778" lon="-1.63656">
        <ele>26.23</ele>
        <time>2020-05-23T09:31:07Z</time>
      </trkpt>
      <trkpt lat="47.1679" lon="-1.6366">
        <ele>25.94</ele>
        <time>2020-05-23T09:31:09Z</time>
      </trkpt>
      <trkpt lat="47.16801" lon="-1.63664">
        <ele>25.41</ele>
        <time>2020-05-23T09:31:11Z</time>
      </trkpt>
      <trkpt lat="47.16813" lon="-1.63668">
        <ele>25.43</ele>
        <time>2020-05-23T09:31:13Z</time>
      </trkpt>
      <trkpt lat="47.16829" lon="-1.63672">
        <ele>24.13</ele>
        <time>2020-05-23T09:31:15Z</time>
      </trkpt>
      <trkpt lat="47.16843" lon="-1.63677">
        <ele>23.44</ele>
        <time>2020-05-23T09:31:17Z</time>
      </trkpt>
      <trkpt lat="47.16858" lon="-1.63682">
        <ele>23.15</ele>
        <time>2020-05-23T09:31:19Z</time>
      </trkpt>
      <trkpt lat="47.16871" lon="-1.63686">
        <ele>22.91</ele>
        <time>2020-05-23T09:31:21Z</time>
      </trkpt>
      <trkpt lat="47.16883" lon="-1.63691">
        <ele>23.41</ele>
        <time>2020-05-23T09:31:23Z</time>
      </trkpt>
      <trkpt lat="47.16895" lon="-1.63697">
        <ele>24.06</ele>
        <time>2020-05-23T09:31:25Z</time>
      </trkpt>
      <trkpt lat="47.16908" lon="-1.63702">
        <ele>24.09</ele>
        <time>2020-05-23T09:31:28Z</time>
      </trkpt>
      <trkpt lat="47.16922" lon="-1.63707">
        <ele>23.21</ele>
        <time>2020-05-23T09:31:30Z</time>
      </trkpt>
      <trkpt lat="47.16936" lon="-1.63713">
        <ele>21.71</ele>
        <time>2020-05-23T09:31:32Z</time>
      </trkpt>
      <trkpt lat="47.16949" lon="-1.63718">
        <ele>20.92</ele>
        <time>2020-05-23T09:31:34Z</time>
      </trkpt>
      <trkpt lat="47.16962" lon="-1.63723">
        <ele>20.58</ele>
        <time>2020-05-23T09:31:36Z</time>
      </trkpt>
      <trkpt lat="47.16975" lon="-1.63727">
        <ele>20.88</ele>
        <time>2020-05-23T09:31:38Z</time>
      </trkpt>
      <trkpt lat="47.16986" lon="-1.63732">
        <ele>21.69</ele>
        <time>2020-05-23T09:31:40Z</time>
      </trkpt>
      <trkpt lat="47.16997" lon="-1.63737">
        <ele>22</ele>
        <time>2020-05-23T09:31:42Z</time>
      </trkpt>
      <trkpt lat="47.17013" lon="-1.63743">
        <ele>21.6</ele>
        <time>2020-05-23T09:31:44Z</time>
      </trkpt>
      <trkpt lat="47.17027" lon="-1.63747">
        <ele>22.6</ele>
        <time>2020-05-23T09:31:46Z</time>
      </trkpt>
      <trkpt lat="47.17041" lon="-1.63753">
        <ele>23.75</ele>
        <time>2020-05-23T09:31:48Z</time>
      </trkpt>
      <trkpt lat="47.17054" lon="-1.63762">
        <ele>23.54</ele>
        <time>2020-05-23T09:31:50Z</time>
      </trkpt>
      <trkpt lat="47.17064" lon="-1.63775">
        <ele>23.09</ele>
        <time>2020-05-23T09:31:52Z</time>
      </trkpt>
      <trkpt lat="47.17072" lon="-1.63794">
        <ele>23.76</ele>
        <time>2020-05-23T09:31:54Z</time>
      </trkpt>
      <trkpt lat="47.17078" lon="-1.63813">
        <ele>24.58</ele>
        <time>2020-05-23T09:31:56Z</time>
      </trkpt>
      <trkpt lat="47.17083" lon="-1.6383">
        <ele>24.42</ele>
        <time>2020-05-23T09:31:58Z</time>
      </trkpt>
      <trkpt lat="47.17088" lon="-1.63847">
        <ele>24.06</ele>
        <time>2020-05-23T09:32:00Z</time>
      </trkpt>
      <trkpt lat="47.17094" lon="-1.63865">
        <ele>23.72</ele>
        <time>2020-05-23T09:32:02Z</time>
      </trkpt>
      <trkpt lat="47.17099" lon="-1.63882">
        <ele>23.47</ele>
        <time>2020-05-23T09:32:04Z</time>
      </trkpt>
      <trkpt lat="47.17105" lon="-1.63897">
        <ele>23.59</ele>
        <time>2020-05-23T09:32:06Z</time>
      </trkpt>
      <trkpt lat="47.17111" lon="-1.63913">
        <ele>23.04</ele>
        <time>2020-05-23T09:32:08Z</time>
      </trkpt>
      <trkpt lat="47.17117" lon="-1.63929">
        <ele>23.83</ele>
        <time>2020-05-23T09:32:10Z</time>
      </trkpt>
      <trkpt lat="47.17124" lon="-1.6394">
        <ele>24.93</ele>
        <time>2020-05-23T09:32:12Z</time>
      </trkpt>
      <trkpt lat="47.17134" lon="-1.63948">
        <ele>25.09</ele>
        <time>2020-05-23T09:32:19Z</time>
      </trkpt>
      <trkpt lat="47.17137" lon="-1.63963">
        <ele>24.39</ele>
        <time>2020-05-23T09:32:22Z</time>
      </trkpt>
      <trkpt lat="47.17138" lon="-1.63979">
        <ele>22.79</ele>
        <time>2020-05-23T09:32:24Z</time>
      </trkpt>
      <trkpt lat="47.1714" lon="-1.63994">
        <ele>22.4</ele>
        <time>2020-05-23T09:32:26Z</time>
      </trkpt>
      <trkpt lat="47.17137" lon="-1.64012">
        <ele>22.24</ele>
        <time>2020-05-23T09:32:28Z</time>
      </trkpt>
      <trkpt lat="47.17135" lon="-1.64031">
        <ele>22.65</ele>
        <time>2020-05-23T09:32:30Z</time>
      </trkpt>
      <trkpt lat="47.17132" lon="-1.6405">
        <ele>22.57</ele>
        <time>2020-05-23T09:32:32Z</time>
      </trkpt>
      <trkpt lat="47.1713" lon="-1.64068">
        <ele>23.32</ele>
        <time>2020-05-23T09:32:34Z</time>
      </trkpt>
      <trkpt lat="47.17127" lon="-1.6409">
        <ele>23.65</ele>
        <time>2020-05-23T09:32:36Z</time>
      </trkpt>
      <trkpt lat="47.17125" lon="-1.64109">
        <ele>22.85</ele>
        <time>2020-05-23T09:32:38Z</time>
      </trkpt>
      <trkpt lat="47.17123" lon="-1.64127">
        <ele>22.49</ele>
        <time>2020-05-23T09:32:40Z</time>
      </trkpt>
      <trkpt lat="47.1712" lon="-1.64148">
        <ele>23.07</ele>
        <time>2020-05-23T09:32:42Z</time>
      </trkpt>
      <trkpt lat="47.17118" lon="-1.64171">
        <ele>23.02</ele>
        <time>2020-05-23T09:32:44Z</time>
      </trkpt>
      <trkpt lat="47.17117" lon="-1.64188">
        <ele>22.95</ele>
        <time>2020-05-23T09:32:46Z</time>
      </trkpt>
      <trkpt lat="47.17114" lon="-1.64208">
        <ele>22.46</ele>
        <time>2020-05-23T09:32:48Z</time>
      </trkpt>
      <trkpt lat="47.17112" lon="-1.64228">
        <ele>21.89</ele>
        <time>2020-05-23T09:32:50Z</time>
      </trkpt>
      <trkpt lat="47.1711" lon="-1.64246">
        <ele>21.86</ele>
        <time>2020-05-23T09:32:52Z</time>
      </trkpt>
      <trkpt lat="47.17107" lon="-1.64267">
        <ele>21.89</ele>
        <time>2020-05-23T09:32:54Z</time>
      </trkpt>
      <trkpt lat="47.17105" lon="-1.64286">
        <ele>22.43</ele>
        <time>2020-05-23T09:32:56Z</time>
      </trkpt>
      <trkpt lat="47.17104" lon="-1.64305">
        <ele>22.86</ele>
        <time>2020-05-23T09:32:58Z</time>
      </trkpt>
      <trkpt lat="47.17102" lon="-1.64319">
        <ele>22.65</ele>
        <time>2020-05-23T09:32:59Z</time>
      </trkpt>
      <trkpt lat="47.17101" lon="-1.64337">
        <ele>22.78</ele>
        <time>2020-05-23T09:33:01Z</time>
      </trkpt>
      <trkpt lat="47.17099" lon="-1.64358">
        <ele>22.4</ele>
        <time>2020-05-23T09:33:03Z</time>
      </trkpt>
      <trkpt lat="47.17097" lon="-1.64378">
        <ele>22.09</ele>
        <time>2020-05-23T09:33:05Z</time>
      </trkpt>
      <trkpt lat="47.17095" lon="-1.64399">
        <ele>22.18</ele>
        <time>2020-05-23T09:33:07Z</time>
      </trkpt>
      <trkpt lat="47.17094" lon="-1.6442">
        <ele>22.64</ele>
        <time>2020-05-23T09:33:09Z</time>
      </trkpt>
      <trkpt lat="47.17092" lon="-1.64439">
        <ele>23.05</ele>
        <time>2020-05-23T09:33:11Z</time>
      </trkpt>
      <trkpt lat="47.1709" lon="-1.64461">
        <ele>23</ele>
        <time>2020-05-23T09:33:13Z</time>
      </trkpt>
      <trkpt lat="47.17089" lon="-1.64481">
        <ele>22.53</ele>
        <time>2020-05-23T09:33:15Z</time>
      </trkpt>
      <trkpt lat="47.17088" lon="-1.64499">
        <ele>21.92</ele>
        <time>2020-05-23T09:33:17Z</time>
      </trkpt>
      <trkpt lat="47.17088" lon="-1.64519">
        <ele>22.08</ele>
        <time>2020-05-23T09:33:19Z</time>
      </trkpt>
      <trkpt lat="47.17087" lon="-1.64542">
        <ele>22.32</ele>
        <time>2020-05-23T09:33:21Z</time>
      </trkpt>
      <trkpt lat="47.17087" lon="-1.64564">
        <ele>22.33</ele>
        <time>2020-05-23T09:33:23Z</time>
      </trkpt>
      <trkpt lat="47.17086" lon="-1.64585">
        <ele>22.33</ele>
        <time>2020-05-23T09:33:25Z</time>
      </trkpt>
      <trkpt lat="47.17086" lon="-1.64605">
        <ele>21.63</ele>
        <time>2020-05-23T09:33:27Z</time>
      </trkpt>
      <trkpt lat="47.17087" lon="-1.64625">
        <ele>21.07</ele>
        <time>2020-05-23T09:33:29Z</time>
      </trkpt>
      <trkpt lat="47.17087" lon="-1.64646">
        <ele>20.02</ele>
        <time>2020-05-23T09:33:31Z</time>
      </trkpt>
      <trkpt lat="47.17087" lon="-1.64667">
        <ele>19.34</ele>
        <time>2020-05-23T09:33:33Z</time>
      </trkpt>
      <trkpt lat="47.17088" lon="-1.64688">
        <ele>19.52</ele>
        <time>2020-05-23T09:33:35Z</time>
      </trkpt>
      <trkpt lat="47.17089" lon="-1.64711">
        <ele>19.21</ele>
        <time>2020-05-23T09:33:37Z</time>
      </trkpt>
      <trkpt lat="47.17089" lon="-1.6473">
        <ele>18.62</ele>
        <time>2020-05-23T09:33:39Z</time>
      </trkpt>
      <trkpt lat="47.17091" lon="-1.64751">
        <ele>18.01</ele>
        <time>2020-05-23T09:33:41Z</time>
      </trkpt>
      <trkpt lat="47.17092" lon="-1.6477">
        <ele>17.1</ele>
        <time>2020-05-23T09:33:43Z</time>
      </trkpt>
      <trkpt lat="47.17094" lon="-1.64793">
        <ele>17.17</ele>
        <time>2020-05-23T09:33:45Z</time>
      </trkpt>
      <trkpt lat="47.17096" lon="-1.64816">
        <ele>17.14</ele>
        <time>2020-05-23T09:33:47Z</time>
      </trkpt>
      <trkpt lat="47.17097" lon="-1.64842">
        <ele>18.05</ele>
        <time>2020-05-23T09:33:49Z</time>
      </trkpt>
      <trkpt lat="47.17098" lon="-1.64863">
        <ele>18.6</ele>
        <time>2020-05-23T09:33:51Z</time>
      </trkpt>
      <trkpt lat="47.171" lon="-1.64882">
        <ele>18.96</ele>
        <time>2020-05-23T09:33:53Z</time>
      </trkpt>
      <trkpt lat="47.17101" lon="-1.64903">
        <ele>19.47</ele>
        <time>2020-05-23T09:33:55Z</time>
      </trkpt>
      <trkpt lat="47.17103" lon="-1.64925">
        <ele>21.54</ele>
        <time>2020-05-23T09:33:57Z</time>
      </trkpt>
      <trkpt lat="47.17104" lon="-1.64946">
        <ele>22.88</ele>
        <time>2020-05-23T09:33:59Z</time>
      </trkpt>
      <trkpt lat="47.17104" lon="-1.64965">
        <ele>22.85</ele>
        <time>2020-05-23T09:34:01Z</time>
      </trkpt>
      <trkpt lat="47.17106" lon="-1.64984">
        <ele>22.39</ele>
        <time>2020-05-23T09:34:03Z</time>
      </trkpt>
      <trkpt lat="47.17107" lon="-1.65004">
        <ele>22.46</ele>
        <time>2020-05-23T09:34:05Z</time>
      </trkpt>
      <trkpt lat="47.17108" lon="-1.65025">
        <ele>22.54</ele>
        <time>2020-05-23T09:34:07Z</time>
      </trkpt>
      <trkpt lat="47.1711" lon="-1.65045">
        <ele>23.63</ele>
        <time>2020-05-23T09:34:09Z</time>
      </trkpt>
      <trkpt lat="47.17111" lon="-1.65063">
        <ele>23.51</ele>
        <time>2020-05-23T09:34:11Z</time>
      </trkpt>
      <trkpt lat="47.17113" lon="-1.65084">
        <ele>23.27</ele>
        <time>2020-05-23T09:34:13Z</time>
      </trkpt>
      <trkpt lat="47.17114" lon="-1.65105">
        <ele>21.88</ele>
        <time>2020-05-23T09:34:15Z</time>
      </trkpt>
      <trkpt lat="47.17116" lon="-1.65124">
        <ele>21.85</ele>
        <time>2020-05-23T09:34:17Z</time>
      </trkpt>
      <trkpt lat="47.17118" lon="-1.65145">
        <ele>22.54</ele>
        <time>2020-05-23T09:34:19Z</time>
      </trkpt>
      <trkpt lat="47.1712" lon="-1.65163">
        <ele>22.48</ele>
        <time>2020-05-23T09:34:21Z</time>
      </trkpt>
      <trkpt lat="47.17121" lon="-1.65184">
        <ele>21.81</ele>
        <time>2020-05-23T09:34:23Z</time>
      </trkpt>
      <trkpt lat="47.17122" lon="-1.65201">
        <ele>21.74</ele>
        <time>2020-05-23T09:34:25Z</time>
      </trkpt>
      <trkpt lat="47.17124" lon="-1.6522">
        <ele>21.84</ele>
        <time>2020-05-23T09:34:27Z</time>
      </trkpt>
      <trkpt lat="47.17124" lon="-1.65235">
        <ele>22.58</ele>
        <time>2020-05-23T09:34:29Z</time>
      </trkpt>
      <trkpt lat="47.17125" lon="-1.65254">
        <ele>22.98</ele>
        <time>2020-05-23T09:34:31Z</time>
      </trkpt>
      <trkpt lat="47.17128" lon="-1.6527">
        <ele>23.94</ele>
        <time>2020-05-23T09:34:33Z</time>
      </trkpt>
      <trkpt lat="47.17133" lon="-1.65284">
        <ele>24.54</ele>
        <time>2020-05-23T09:34:35Z</time>
      </trkpt>
      <trkpt lat="47.17139" lon="-1.65299">
        <ele>25.23</ele>
        <time>2020-05-23T09:34:37Z</time>
      </trkpt>
      <trkpt lat="47.17139" lon="-1.65318">
        <ele>24.03</ele>
        <time>2020-05-23T09:34:39Z</time>
      </trkpt>
      <trkpt lat="47.17132" lon="-1.65332">
        <ele>23.26</ele>
        <time>2020-05-23T09:34:41Z</time>
      </trkpt>
      <trkpt lat="47.17124" lon="-1.65344">
        <ele>24.04</ele>
        <time>2020-05-23T09:34:43Z</time>
      </trkpt>
      <trkpt lat="47.1712" lon="-1.6536">
        <ele>24.19</ele>
        <time>2020-05-23T09:34:45Z</time>
      </trkpt>
      <trkpt lat="47.17119" lon="-1.65378">
        <ele>23.93</ele>
        <time>2020-05-23T09:34:47Z</time>
      </trkpt>
      <trkpt lat="47.17118" lon="-1.65396">
        <ele>23.19</ele>
        <time>2020-05-23T09:34:49Z</time>
      </trkpt>
      <trkpt lat="47.17118" lon="-1.65412">
        <ele>21.62</ele>
        <time>2020-05-23T09:34:51Z</time>
      </trkpt>
      <trkpt lat="47.17119" lon="-1.6543">
        <ele>21.54</ele>
        <time>2020-05-23T09:34:53Z</time>
      </trkpt>
      <trkpt lat="47.1712" lon="-1.65445">
        <ele>22.78</ele>
        <time>2020-05-23T09:34:55Z</time>
      </trkpt>
      <trkpt lat="47.17119" lon="-1.65466">
        <ele>22.97</ele>
        <time>2020-05-23T09:34:58Z</time>
      </trkpt>
      <trkpt lat="47.17118" lon="-1.65481">
        <ele>23.44</ele>
        <time>2020-05-23T09:35:00Z</time>
      </trkpt>
      <trkpt lat="47.17116" lon="-1.65496">
        <ele>24.17</ele>
        <time>2020-05-23T09:35:02Z</time>
      </trkpt>
      <trkpt lat="47.17113" lon="-1.65509">
        <ele>25.07</ele>
        <time>2020-05-23T09:35:04Z</time>
      </trkpt>
      <trkpt lat="47.17108" lon="-1.65525">
        <ele>26.14</ele>
        <time>2020-05-23T09:35:06Z</time>
      </trkpt>
      <trkpt lat="47.17102" lon="-1.65541">
        <ele>27.02</ele>
        <time>2020-05-23T09:35:08Z</time>
      </trkpt>
      <trkpt lat="47.17096" lon="-1.65554">
        <ele>27.61</ele>
        <time>2020-05-23T09:35:10Z</time>
      </trkpt>
      <trkpt lat="47.17089" lon="-1.65566">
        <ele>28.43</ele>
        <time>2020-05-23T09:35:12Z</time>
      </trkpt>
      <trkpt lat="47.17081" lon="-1.65579">
        <ele>30.26</ele>
        <time>2020-05-23T09:35:14Z</time>
      </trkpt>
      <trkpt lat="47.17074" lon="-1.65592">
        <ele>30.99</ele>
        <time>2020-05-23T09:35:16Z</time>
      </trkpt>
      <trkpt lat="47.17066" lon="-1.65604">
        <ele>31.51</ele>
        <time>2020-05-23T09:35:18Z</time>
      </trkpt>
      <trkpt lat="47.17057" lon="-1.65618">
        <ele>31.55</ele>
        <time>2020-05-23T09:35:20Z</time>
      </trkpt>
      <trkpt lat="47.17049" lon="-1.6563">
        <ele>31.49</ele>
        <time>2020-05-23T09:35:22Z</time>
      </trkpt>
      <trkpt lat="47.17041" lon="-1.65644">
        <ele>30.32</ele>
        <time>2020-05-23T09:35:24Z</time>
      </trkpt>
      <trkpt lat="47.17033" lon="-1.65659">
        <ele>29.56</ele>
        <time>2020-05-23T09:35:26Z</time>
      </trkpt>
      <trkpt lat="47.17024" lon="-1.65674">
        <ele>28.21</ele>
        <time>2020-05-23T09:35:28Z</time>
      </trkpt>
      <trkpt lat="47.17015" lon="-1.6569">
        <ele>26.34</ele>
        <time>2020-05-23T09:35:30Z</time>
      </trkpt>
      <trkpt lat="47.17008" lon="-1.65707">
        <ele>24.99</ele>
        <time>2020-05-23T09:35:32Z</time>
      </trkpt>
      <trkpt lat="47.17003" lon="-1.65728">
        <ele>24.55</ele>
        <time>2020-05-23T09:35:34Z</time>
      </trkpt>
      <trkpt lat="47.16999" lon="-1.6575">
        <ele>25</ele>
        <time>2020-05-23T09:35:36Z</time>
      </trkpt>
      <trkpt lat="47.16992" lon="-1.65768">
        <ele>25.9</ele>
        <time>2020-05-23T09:35:38Z</time>
      </trkpt>
      <trkpt lat="47.16981" lon="-1.65775">
        <ele>26.58</ele>
        <time>2020-05-23T09:35:40Z</time>
      </trkpt>
      <trkpt lat="47.16969" lon="-1.65782">
        <ele>25.99</ele>
        <time>2020-05-23T09:35:42Z</time>
      </trkpt>
      <trkpt lat="47.16956" lon="-1.65796">
        <ele>25.16</ele>
        <time>2020-05-23T09:35:44Z</time>
      </trkpt>
      <trkpt lat="47.16946" lon="-1.65814">
        <ele>24.33</ele>
        <time>2020-05-23T09:35:46Z</time>
      </trkpt>
      <trkpt lat="47.16937" lon="-1.6583">
        <ele>23.78</ele>
        <time>2020-05-23T09:35:48Z</time>
      </trkpt>
      <trkpt lat="47.16927" lon="-1.65847">
        <ele>23.49</ele>
        <time>2020-05-23T09:35:50Z</time>
      </trkpt>
      <trkpt lat="47.16919" lon="-1.65863">
        <ele>23.43</ele>
        <time>2020-05-23T09:35:52Z</time>
      </trkpt>
      <trkpt lat="47.16909" lon="-1.65881">
        <ele>22.32</ele>
        <time>2020-05-23T09:35:54Z</time>
      </trkpt>
      <trkpt lat="47.169" lon="-1.65899">
        <ele>21.48</ele>
        <time>2020-05-23T09:35:56Z</time>
      </trkpt>
      <trkpt lat="47.16891" lon="-1.65917">
        <ele>21.92</ele>
        <time>2020-05-23T09:35:58Z</time>
      </trkpt>
      <trkpt lat="47.16884" lon="-1.65936">
        <ele>22.42</ele>
        <time>2020-05-23T09:36:00Z</time>
      </trkpt>
      <trkpt lat="47.16877" lon="-1.65956">
        <ele>23.21</ele>
        <time>2020-05-23T09:36:02Z</time>
      </trkpt>
      <trkpt lat="47.16869" lon="-1.65977">
        <ele>23.86</ele>
        <time>2020-05-23T09:36:04Z</time>
      </trkpt>
      <trkpt lat="47.16861" lon="-1.66">
        <ele>23.86</ele>
        <time>2020-05-23T09:36:06Z</time>
      </trkpt>
      <trkpt lat="47.16855" lon="-1.66021">
        <ele>23.66</ele>
        <time>2020-05-23T09:36:08Z</time>
      </trkpt>
      <trkpt lat="47.16851" lon="-1.66044">
        <ele>24.22</ele>
        <time>2020-05-23T09:36:10Z</time>
      </trkpt>
      <trkpt lat="47.16849" lon="-1.66062">
        <ele>24.77</ele>
        <time>2020-05-23T09:36:12Z</time>
      </trkpt>
      <trkpt lat="47.16846" lon="-1.66085">
        <ele>24.88</ele>
        <time>2020-05-23T09:36:14Z</time>
      </trkpt>
      <trkpt lat="47.16844" lon="-1.66105">
        <ele>25.39</ele>
        <time>2020-05-23T09:36:16Z</time>
      </trkpt>
      <trkpt lat="47.16842" lon="-1.66128">
        <ele>25.31</ele>
        <time>2020-05-23T09:36:18Z</time>
      </trkpt>
      <trkpt lat="47.16842" lon="-1.66152">
        <ele>25.46</ele>
        <time>2020-05-23T09:36:20Z</time>
      </trkpt>
      <trkpt lat="47.16843" lon="-1.66174">
        <ele>25.06</ele>
        <time>2020-05-23T09:36:22Z</time>
      </trkpt>
      <trkpt lat="47.16845" lon="-1.66194">
        <ele>24.82</ele>
        <time>2020-05-23T09:36:24Z</time>
      </trkpt>
      <trkpt lat="47.16846" lon="-1.66217">
        <ele>25.77</ele>
        <time>2020-05-23T09:36:26Z</time>
      </trkpt>
      <trkpt lat="47.16848" lon="-1.66237">
        <ele>26.89</ele>
        <time>2020-05-23T09:36:28Z</time>
      </trkpt>
      <trkpt lat="47.1685" lon="-1.66257">
        <ele>27.24</ele>
        <time>2020-05-23T09:36:30Z</time>
      </trkpt>
      <trkpt lat="47.16852" lon="-1.66277">
        <ele>27.02</ele>
        <time>2020-05-23T09:36:32Z</time>
      </trkpt>
      <trkpt lat="47.16854" lon="-1.66301">
        <ele>26.98</ele>
        <time>2020-05-23T09:36:34Z</time>
      </trkpt>
      <trkpt lat="47.16855" lon="-1.66318">
        <ele>26.63</ele>
        <time>2020-05-23T09:36:36Z</time>
      </trkpt>
      <trkpt lat="47.16857" lon="-1.66338">
        <ele>26.58</ele>
        <time>2020-05-23T09:36:38Z</time>
      </trkpt>
      <trkpt lat="47.16859" lon="-1.66357">
        <ele>25.65</ele>
        <time>2020-05-23T09:36:40Z</time>
      </trkpt>
      <trkpt lat="47.16862" lon="-1.6638">
        <ele>25.06</ele>
        <time>2020-05-23T09:36:42Z</time>
      </trkpt>
      <trkpt lat="47.16865" lon="-1.66402">
        <ele>24.75</ele>
        <time>2020-05-23T09:36:44Z</time>
      </trkpt>
      <trkpt lat="47.16867" lon="-1.66421">
        <ele>24.17</ele>
        <time>2020-05-23T09:36:46Z</time>
      </trkpt>
      <trkpt lat="47.16869" lon="-1.66441">
        <ele>23.85</ele>
        <time>2020-05-23T09:36:48Z</time>
      </trkpt>
      <trkpt lat="47.16872" lon="-1.66463">
        <ele>23.27</ele>
        <time>2020-05-23T09:36:50Z</time>
      </trkpt>
      <trkpt lat="47.16874" lon="-1.66482">
        <ele>24.14</ele>
        <time>2020-05-23T09:36:52Z</time>
      </trkpt>
      <trkpt lat="47.16875" lon="-1.66502">
        <ele>23.69</ele>
        <time>2020-05-23T09:36:54Z</time>
      </trkpt>
      <trkpt lat="47.16877" lon="-1.66523">
        <ele>23.55</ele>
        <time>2020-05-23T09:36:56Z</time>
      </trkpt>
      <trkpt lat="47.16879" lon="-1.66541">
        <ele>23.7</ele>
        <time>2020-05-23T09:36:58Z</time>
      </trkpt>
      <trkpt lat="47.16882" lon="-1.66561">
        <ele>23.41</ele>
        <time>2020-05-23T09:37:00Z</time>
      </trkpt>
      <trkpt lat="47.16884" lon="-1.6658">
        <ele>23.17</ele>
        <time>2020-05-23T09:37:02Z</time>
      </trkpt>
      <trkpt lat="47.16886" lon="-1.66597">
        <ele>22.97</ele>
        <time>2020-05-23T09:37:04Z</time>
      </trkpt>
      <trkpt lat="47.16889" lon="-1.66618">
        <ele>22.34</ele>
        <time>2020-05-23T09:37:06Z</time>
      </trkpt>
      <trkpt lat="47.16891" lon="-1.66636">
        <ele>21.78</ele>
        <time>2020-05-23T09:37:08Z</time>
      </trkpt>
      <trkpt lat="47.16892" lon="-1.66655">
        <ele>21.47</ele>
        <time>2020-05-23T09:37:10Z</time>
      </trkpt>
      <trkpt lat="47.1689" lon="-1.66675">
        <ele>21.43</ele>
        <time>2020-05-23T09:37:12Z</time>
      </trkpt>
      <trkpt lat="47.16887" lon="-1.66697">
        <ele>22.13</ele>
        <time>2020-05-23T09:37:14Z</time>
      </trkpt>
      <trkpt lat="47.16883" lon="-1.66716">
        <ele>22.48</ele>
        <time>2020-05-23T09:37:16Z</time>
      </trkpt>
      <trkpt lat="47.16876" lon="-1.66734">
        <ele>21.66</ele>
        <time>2020-05-23T09:37:18Z</time>
      </trkpt>
      <trkpt lat="47.16869" lon="-1.6675">
        <ele>21.3</ele>
        <time>2020-05-23T09:37:20Z</time>
      </trkpt>
      <trkpt lat="47.16861" lon="-1.66766">
        <ele>21.92</ele>
        <time>2020-05-23T09:37:22Z</time>
      </trkpt>
      <trkpt lat="47.16851" lon="-1.66783">
        <ele>22.36</ele>
        <time>2020-05-23T09:37:24Z</time>
      </trkpt>
      <trkpt lat="47.16842" lon="-1.66799">
        <ele>22.48</ele>
        <time>2020-05-23T09:37:26Z</time>
      </trkpt>
      <trkpt lat="47.16834" lon="-1.66815">
        <ele>23.63</ele>
        <time>2020-05-23T09:37:28Z</time>
      </trkpt>
      <trkpt lat="47.16828" lon="-1.66827">
        <ele>23.94</ele>
        <time>2020-05-23T09:37:29Z</time>
      </trkpt>
      <trkpt lat="47.16819" lon="-1.66843">
        <ele>24.31</ele>
        <time>2020-05-23T09:37:31Z</time>
      </trkpt>
      <trkpt lat="47.16812" lon="-1.66858">
        <ele>24.93</ele>
        <time>2020-05-23T09:37:33Z</time>
      </trkpt>
      <trkpt lat="47.16802" lon="-1.66876">
        <ele>25.22</ele>
        <time>2020-05-23T09:37:35Z</time>
      </trkpt>
      <trkpt lat="47.16792" lon="-1.66888">
        <ele>25.48</ele>
        <time>2020-05-23T09:37:37Z</time>
      </trkpt>
      <trkpt lat="47.16782" lon="-1.669">
        <ele>24.74</ele>
        <time>2020-05-23T09:37:39Z</time>
      </trkpt>
      <trkpt lat="47.16771" lon="-1.66909">
        <ele>24.02</ele>
        <time>2020-05-23T09:37:41Z</time>
      </trkpt>
      <trkpt lat="47.16756" lon="-1.66915">
        <ele>23.46</ele>
        <time>2020-05-23T09:37:43Z</time>
      </trkpt>
      <trkpt lat="47.16742" lon="-1.66921">
        <ele>22.97</ele>
        <time>2020-05-23T09:37:45Z</time>
      </trkpt>
      <trkpt lat="47.16727" lon="-1.66926">
        <ele>22.42</ele>
        <time>2020-05-23T09:37:47Z</time>
      </trkpt>
      <trkpt lat="47.16712" lon="-1.66931">
        <ele>23.23</ele>
        <time>2020-05-23T09:37:49Z</time>
      </trkpt>
      <trkpt lat="47.16698" lon="-1.66936">
        <ele>23.63</ele>
        <time>2020-05-23T09:37:51Z</time>
      </trkpt>
      <trkpt lat="47.16687" lon="-1.66943">
        <ele>22.87</ele>
        <time>2020-05-23T09:37:53Z</time>
      </trkpt>
      <trkpt lat="47.16676" lon="-1.66953">
        <ele>23.41</ele>
        <time>2020-05-23T09:37:55Z</time>
      </trkpt>
      <trkpt lat="47.16667" lon="-1.66969">
        <ele>23.99</ele>
        <time>2020-05-23T09:37:57Z</time>
      </trkpt>
      <trkpt lat="47.1666" lon="-1.66988">
        <ele>24.4</ele>
        <time>2020-05-23T09:37:59Z</time>
      </trkpt>
      <trkpt lat="47.16655" lon="-1.67008">
        <ele>24.43</ele>
        <time>2020-05-23T09:38:01Z</time>
      </trkpt>
      <trkpt lat="47.16652" lon="-1.67025">
        <ele>24.33</ele>
        <time>2020-05-23T09:38:03Z</time>
      </trkpt>
      <trkpt lat="47.16649" lon="-1.67044">
        <ele>24.67</ele>
        <time>2020-05-23T09:38:05Z</time>
      </trkpt>
      <trkpt lat="47.16645" lon="-1.67065">
        <ele>23.41</ele>
        <time>2020-05-23T09:38:07Z</time>
      </trkpt>
      <trkpt lat="47.16641" lon="-1.67084">
        <ele>22.13</ele>
        <time>2020-05-23T09:38:09Z</time>
      </trkpt>
      <trkpt lat="47.16637" lon="-1.67105">
        <ele>22.12</ele>
        <time>2020-05-23T09:38:11Z</time>
      </trkpt>
      <trkpt lat="47.16634" lon="-1.67124">
        <ele>22.55</ele>
        <time>2020-05-23T09:38:13Z</time>
      </trkpt>
      <trkpt lat="47.16631" lon="-1.67143">
        <ele>23.55</ele>
        <time>2020-05-23T09:38:15Z</time>
      </trkpt>
      <trkpt lat="47.16628" lon="-1.6716">
        <ele>24.24</ele>
        <time>2020-05-23T09:38:17Z</time>
      </trkpt>
      <trkpt lat="47.16624" lon="-1.67179">
        <ele>23.77</ele>
        <time>2020-05-23T09:38:19Z</time>
      </trkpt>
      <trkpt lat="47.1662" lon="-1.672">
        <ele>22.85</ele>
        <time>2020-05-23T09:38:21Z</time>
      </trkpt>
      <trkpt lat="47.16618" lon="-1.67214">
        <ele>22.13</ele>
        <time>2020-05-23T09:38:23Z</time>
      </trkpt>
      <trkpt lat="47.16615" lon="-1.67229">
        <ele>21.06</ele>
        <time>2020-05-23T09:38:25Z</time>
      </trkpt>
      <trkpt lat="47.16612" lon="-1.67243">
        <ele>21.23</ele>
        <time>2020-05-23T09:38:27Z</time>
      </trkpt>
      <trkpt lat="47.16608" lon="-1.67259">
        <ele>20.85</ele>
        <time>2020-05-23T09:38:29Z</time>
      </trkpt>
      <trkpt lat="47.16602" lon="-1.67276">
        <ele>20.88</ele>
        <time>2020-05-23T09:38:37Z</time>
      </trkpt>
      <trkpt lat="47.16595" lon="-1.67291">
        <ele>21.04</ele>
        <time>2020-05-23T09:38:39Z</time>
      </trkpt>
      <trkpt lat="47.16588" lon="-1.67308">
        <ele>21.21</ele>
        <time>2020-05-23T09:38:41Z</time>
      </trkpt>
      <trkpt lat="47.16581" lon="-1.67322">
        <ele>20.91</ele>
        <time>2020-05-23T09:38:43Z</time>
      </trkpt>
      <trkpt lat="47.16573" lon="-1.67339">
        <ele>21.54</ele>
        <time>2020-05-23T09:38:45Z</time>
      </trkpt>
      <trkpt lat="47.16567" lon="-1.67355">
        <ele>22.08</ele>
        <time>2020-05-23T09:38:47Z</time>
      </trkpt>
      <trkpt lat="47.16559" lon="-1.67371">
        <ele>22.89</ele>
        <time>2020-05-23T09:38:49Z</time>
      </trkpt>
      <trkpt lat="47.1655" lon="-1.67384">
        <ele>22.58</ele>
        <time>2020-05-23T09:38:51Z</time>
      </trkpt>
      <trkpt lat="47.16541" lon="-1.67397">
        <ele>22.7</ele>
        <time>2020-05-23T09:38:53Z</time>
      </trkpt>
      <trkpt lat="47.16531" lon="-1.67411">
        <ele>23.25</ele>
        <time>2020-05-23T09:38:55Z</time>
      </trkpt>
      <trkpt lat="47.16522" lon="-1.67424">
        <ele>23.73</ele>
        <time>2020-05-23T09:38:57Z</time>
      </trkpt>
      <trkpt lat="47.16513" lon="-1.67437">
        <ele>24.27</ele>
        <time>2020-05-23T09:38:59Z</time>
      </trkpt>
      <trkpt lat="47.16504" lon="-1.67453">
        <ele>24.14</ele>
        <time>2020-05-23T09:39:01Z</time>
      </trkpt>
      <trkpt lat="47.16495" lon="-1.67469">
        <ele>23.73</ele>
        <time>2020-05-23T09:39:03Z</time>
      </trkpt>
      <trkpt lat="47.16486" lon="-1.67484">
        <ele>24.47</ele>
        <time>2020-05-23T09:39:05Z</time>
      </trkpt>
      <trkpt lat="47.16478" lon="-1.675">
        <ele>23.78</ele>
        <time>2020-05-23T09:39:07Z</time>
      </trkpt>
      <trkpt lat="47.1647" lon="-1.67515">
        <ele>23.03</ele>
        <time>2020-05-23T09:39:09Z</time>
      </trkpt>
      <trkpt lat="47.16461" lon="-1.67529">
        <ele>22.62</ele>
        <time>2020-05-23T09:39:11Z</time>
      </trkpt>
      <trkpt lat="47.16451" lon="-1.67545">
        <ele>22.56</ele>
        <time>2020-05-23T09:39:13Z</time>
      </trkpt>
      <trkpt lat="47.16442" lon="-1.6756">
        <ele>22.92</ele>
        <time>2020-05-23T09:39:15Z</time>
      </trkpt>
      <trkpt lat="47.16434" lon="-1.67575">
        <ele>24.03</ele>
        <time>2020-05-23T09:39:17Z</time>
      </trkpt>
      <trkpt lat="47.16426" lon="-1.67592">
        <ele>23.96</ele>
        <time>2020-05-23T09:39:19Z</time>
      </trkpt>
      <trkpt lat="47.16418" lon="-1.67608">
        <ele>23.8</ele>
        <time>2020-05-23T09:39:21Z</time>
      </trkpt>
      <trkpt lat="47.16412" lon="-1.67624">
        <ele>23.87</ele>
        <time>2020-05-23T09:39:23Z</time>
      </trkpt>
      <trkpt lat="47.16404" lon="-1.67641">
        <ele>23.71</ele>
        <time>2020-05-23T09:39:25Z</time>
      </trkpt>
      <trkpt lat="47.16398" lon="-1.67655">
        <ele>23.77</ele>
        <time>2020-05-23T09:39:27Z</time>
      </trkpt>
      <trkpt lat="47.16389" lon="-1.67673">
        <ele>23.91</ele>
        <time>2020-05-23T09:39:29Z</time>
      </trkpt>
      <trkpt lat="47.16382" lon="-1.67688">
        <ele>23.56</ele>
        <time>2020-05-23T09:39:31Z</time>
      </trkpt>
      <trkpt lat="47.16374" lon="-1.67702">
        <ele>23.81</ele>
        <time>2020-05-23T09:39:33Z</time>
      </trkpt>
      <trkpt lat="47.16365" lon="-1.67719">
        <ele>23.08</ele>
        <time>2020-05-23T09:39:35Z</time>
      </trkpt>
      <trkpt lat="47.16357" lon="-1.67733">
        <ele>22.76</ele>
        <time>2020-05-23T09:39:37Z</time>
      </trkpt>
      <trkpt lat="47.16348" lon="-1.67749">
        <ele>22.41</ele>
        <time>2020-05-23T09:39:39Z</time>
      </trkpt>
      <trkpt lat="47.1634" lon="-1.67763">
        <ele>22.31</ele>
        <time>2020-05-23T09:39:41Z</time>
      </trkpt>
      <trkpt lat="47.16332" lon="-1.67778">
        <ele>22.19</ele>
        <time>2020-05-23T09:39:43Z</time>
      </trkpt>
      <trkpt lat="47.16323" lon="-1.67794">
        <ele>21.83</ele>
        <time>2020-05-23T09:39:45Z</time>
      </trkpt>
      <trkpt lat="47.16315" lon="-1.67808">
        <ele>22.3</ele>
        <time>2020-05-23T09:39:47Z</time>
      </trkpt>
      <trkpt lat="47.16307" lon="-1.67822">
        <ele>22.63</ele>
        <time>2020-05-23T09:39:49Z</time>
      </trkpt>
      <trkpt lat="47.16298" lon="-1.67837">
        <ele>22.43</ele>
        <time>2020-05-23T09:39:51Z</time>
      </trkpt>
      <trkpt lat="47.16291" lon="-1.67849">
        <ele>22.83</ele>
        <time>2020-05-23T09:39:53Z</time>
      </trkpt>
      <trkpt lat="47.16282" lon="-1.67864">
        <ele>23.84</ele>
        <time>2020-05-23T09:39:55Z</time>
      </trkpt>
      <trkpt lat="47.16275" lon="-1.67878">
        <ele>25.15</ele>
        <time>2020-05-23T09:39:57Z</time>
      </trkpt>
      <trkpt lat="47.16267" lon="-1.67893">
        <ele>25.73</ele>
        <time>2020-05-23T09:39:59Z</time>
      </trkpt>
      <trkpt lat="47.1626" lon="-1.67907">
        <ele>25.73</ele>
        <time>2020-05-23T09:40:01Z</time>
      </trkpt>
      <trkpt lat="47.16251" lon="-1.67922">
        <ele>25.66</ele>
        <time>2020-05-23T09:40:03Z</time>
      </trkpt>
      <trkpt lat="47.16242" lon="-1.67934">
        <ele>24.9</ele>
        <time>2020-05-23T09:40:05Z</time>
      </trkpt>
      <trkpt lat="47.16232" lon="-1.67949">
        <ele>23.61</ele>
        <time>2020-05-23T09:40:07Z</time>
      </trkpt>
      <trkpt lat="47.16225" lon="-1.67963">
        <ele>22.61</ele>
        <time>2020-05-23T09:40:09Z</time>
      </trkpt>
      <trkpt lat="47.1622" lon="-1.67981">
        <ele>21.98</ele>
        <time>2020-05-23T09:40:11Z</time>
      </trkpt>
      <trkpt lat="47.16212" lon="-1.67992">
        <ele>21.57</ele>
        <time>2020-05-23T09:40:13Z</time>
      </trkpt>
      <trkpt lat="47.162" lon="-1.67999">
        <ele>21.87</ele>
        <time>2020-05-23T09:40:15Z</time>
      </trkpt>
      <trkpt lat="47.16191" lon="-1.68011">
        <ele>21.74</ele>
        <time>2020-05-23T09:40:17Z</time>
      </trkpt>
      <trkpt lat="47.16182" lon="-1.68023">
        <ele>22.28</ele>
        <time>2020-05-23T09:40:19Z</time>
      </trkpt>
      <trkpt lat="47.16174" lon="-1.68034">
        <ele>23.45</ele>
        <time>2020-05-23T09:40:21Z</time>
      </trkpt>
      <trkpt lat="47.16163" lon="-1.68049">
        <ele>24.46</ele>
        <time>2020-05-23T09:40:23Z</time>
      </trkpt>
      <trkpt lat="47.16156" lon="-1.68062">
        <ele>24.66</ele>
        <time>2020-05-23T09:40:25Z</time>
      </trkpt>
      <trkpt lat="47.16148" lon="-1.68077">
        <ele>24.59</ele>
        <time>2020-05-23T09:40:27Z</time>
      </trkpt>
      <trkpt lat="47.1614" lon="-1.68094">
        <ele>24.83</ele>
        <time>2020-05-23T09:40:29Z</time>
      </trkpt>
      <trkpt lat="47.16135" lon="-1.68113">
        <ele>24.25</ele>
        <time>2020-05-23T09:40:31Z</time>
      </trkpt>
      <trkpt lat="47.1613" lon="-1.68131">
        <ele>23.45</ele>
        <time>2020-05-23T09:40:33Z</time>
      </trkpt>
      <trkpt lat="47.16127" lon="-1.68147">
        <ele>23.1</ele>
        <time>2020-05-23T09:40:34Z</time>
      </trkpt>
      <trkpt lat="47.16124" lon="-1.68165">
        <ele>22.72</ele>
        <time>2020-05-23T09:40:36Z</time>
      </trkpt>
      <trkpt lat="47.1612" lon="-1.68184">
        <ele>22.55</ele>
        <time>2020-05-23T09:40:38Z</time>
      </trkpt>
      <trkpt lat="47.16117" lon="-1.68201">
        <ele>21.65</ele>
        <time>2020-05-23T09:40:40Z</time>
      </trkpt>
      <trkpt lat="47.16113" lon="-1.68221">
        <ele>20.07</ele>
        <time>2020-05-23T09:40:42Z</time>
      </trkpt>
      <trkpt lat="47.1611" lon="-1.68243">
        <ele>18.33</ele>
        <time>2020-05-23T09:40:44Z</time>
      </trkpt>
      <trkpt lat="47.16107" lon="-1.6826">
        <ele>17.34</ele>
        <time>2020-05-23T09:40:46Z</time>
      </trkpt>
      <trkpt lat="47.16103" lon="-1.68283">
        <ele>17.21</ele>
        <time>2020-05-23T09:40:48Z</time>
      </trkpt>
      <trkpt lat="47.16099" lon="-1.68304">
        <ele>17.66</ele>
        <time>2020-05-23T09:40:50Z</time>
      </trkpt>
      <trkpt lat="47.16095" lon="-1.68323">
        <ele>18.4</ele>
        <time>2020-05-23T09:40:52Z</time>
      </trkpt>
      <trkpt lat="47.16091" lon="-1.68343">
        <ele>18.99</ele>
        <time>2020-05-23T09:40:54Z</time>
      </trkpt>
      <trkpt lat="47.16086" lon="-1.68363">
        <ele>19.46</ele>
        <time>2020-05-23T09:40:56Z</time>
      </trkpt>
      <trkpt lat="47.16081" lon="-1.68381">
        <ele>19.35</ele>
        <time>2020-05-23T09:40:58Z</time>
      </trkpt>
      <trkpt lat="47.16078" lon="-1.68397">
        <ele>19.84</ele>
        <time>2020-05-23T09:41:00Z</time>
      </trkpt>
      <trkpt lat="47.16074" lon="-1.68416">
        <ele>20.18</ele>
        <time>2020-05-23T09:41:02Z</time>
      </trkpt>
      <trkpt lat="47.1607" lon="-1.68435">
        <ele>19.9</ele>
        <time>2020-05-23T09:41:04Z</time>
      </trkpt>
      <trkpt lat="47.16066" lon="-1.68453">
        <ele>19.33</ele>
        <time>2020-05-23T09:41:06Z</time>
      </trkpt>
      <trkpt lat="47.16062" lon="-1.68471">
        <ele>19.29</ele>
        <time>2020-05-23T09:41:08Z</time>
      </trkpt>
      <trkpt lat="47.1606" lon="-1.68488">
        <ele>19.58</ele>
        <time>2020-05-23T09:41:10Z</time>
      </trkpt>
      <trkpt lat="47.16057" lon="-1.68504">
        <ele>19.94</ele>
        <time>2020-05-23T09:41:12Z</time>
      </trkpt>
      <trkpt lat="47.16055" lon="-1.68523">
        <ele>20.67</ele>
        <time>2020-05-23T09:41:14Z</time>
      </trkpt>
      <trkpt lat="47.16052" lon="-1.68542">
        <ele>20.8</ele>
        <time>2020-05-23T09:41:16Z</time>
      </trkpt>
      <trkpt lat="47.1605" lon="-1.6856">
        <ele>21</ele>
        <time>2020-05-23T09:41:18Z</time>
      </trkpt>
      <trkpt lat="47.16047" lon="-1.68578">
        <ele>19.89</ele>
        <time>2020-05-23T09:41:20Z</time>
      </trkpt>
      <trkpt lat="47.16045" lon="-1.68592">
        <ele>18.19</ele>
        <time>2020-05-23T09:41:22Z</time>
      </trkpt>
      <trkpt lat="47.16044" lon="-1.68608">
        <ele>17.19</ele>
        <time>2020-05-23T09:41:24Z</time>
      </trkpt>
      <trkpt lat="47.16042" lon="-1.68626">
        <ele>16.04</ele>
        <time>2020-05-23T09:41:26Z</time>
      </trkpt>
      <trkpt lat="47.16041" lon="-1.68645">
        <ele>16.06</ele>
        <time>2020-05-23T09:41:28Z</time>
      </trkpt>
      <trkpt lat="47.16041" lon="-1.6866">
        <ele>16.14</ele>
        <time>2020-05-23T09:41:30Z</time>
      </trkpt>
      <trkpt lat="47.16041" lon="-1.68679">
        <ele>16.76</ele>
        <time>2020-05-23T09:41:32Z</time>
      </trkpt>
      <trkpt lat="47.16042" lon="-1.68694">
        <ele>16.14</ele>
        <time>2020-05-23T09:41:34Z</time>
      </trkpt>
      <trkpt lat="47.16043" lon="-1.68712">
        <ele>15.16</ele>
        <time>2020-05-23T09:41:36Z</time>
      </trkpt>
      <trkpt lat="47.16045" lon="-1.68727">
        <ele>15.19</ele>
        <time>2020-05-23T09:41:38Z</time>
      </trkpt>
      <trkpt lat="47.16048" lon="-1.68745">
        <ele>16.49</ele>
        <time>2020-05-23T09:41:40Z</time>
      </trkpt>
      <trkpt lat="47.16051" lon="-1.68762">
        <ele>17.4</ele>
        <time>2020-05-23T09:41:42Z</time>
      </trkpt>
      <trkpt lat="47.16055" lon="-1.68778">
        <ele>17.89</ele>
        <time>2020-05-23T09:41:44Z</time>
      </trkpt>
      <trkpt lat="47.16061" lon="-1.68796">
        <ele>18.62</ele>
        <time>2020-05-23T09:41:47Z</time>
      </trkpt>
      <trkpt lat="47.16066" lon="-1.68812">
        <ele>19.08</ele>
        <time>2020-05-23T09:41:49Z</time>
      </trkpt>
      <trkpt lat="47.1607" lon="-1.68826">
        <ele>19.59</ele>
        <time>2020-05-23T09:41:51Z</time>
      </trkpt>
      <trkpt lat="47.16074" lon="-1.68839">
        <ele>19.86</ele>
        <time>2020-05-23T09:41:53Z</time>
      </trkpt>
      <trkpt lat="47.1608" lon="-1.68853">
        <ele>19.2</ele>
        <time>2020-05-23T09:41:55Z</time>
      </trkpt>
      <trkpt lat="47.16084" lon="-1.68869">
        <ele>18.42</ele>
        <time>2020-05-23T09:41:57Z</time>
      </trkpt>
      <trkpt lat="47.16088" lon="-1.68883">
        <ele>18.53</ele>
        <time>2020-05-23T09:41:59Z</time>
      </trkpt>
      <trkpt lat="47.16093" lon="-1.68899">
        <ele>18.75</ele>
        <time>2020-05-23T09:42:01Z</time>
      </trkpt>
      <trkpt lat="47.16098" lon="-1.68915">
        <ele>19.2</ele>
        <time>2020-05-23T09:42:03Z</time>
      </trkpt>
      <trkpt lat="47.16103" lon="-1.68931">
        <ele>19.3</ele>
        <time>2020-05-23T09:42:05Z</time>
      </trkpt>
      <trkpt lat="47.16108" lon="-1.68947">
        <ele>18.86</ele>
        <time>2020-05-23T09:42:07Z</time>
      </trkpt>
      <trkpt lat="47.16114" lon="-1.68964">
        <ele>19.14</ele>
        <time>2020-05-23T09:42:09Z</time>
      </trkpt>
      <trkpt lat="47.16119" lon="-1.68982">
        <ele>18.83</ele>
        <time>2020-05-23T09:42:11Z</time>
      </trkpt>
      <trkpt lat="47.16124" lon="-1.69">
        <ele>17.83</ele>
        <time>2020-05-23T09:42:13Z</time>
      </trkpt>
      <trkpt lat="47.16129" lon="-1.6902">
        <ele>17.95</ele>
        <time>2020-05-23T09:42:15Z</time>
      </trkpt>
      <trkpt lat="47.16134" lon="-1.6904">
        <ele>17.61</ele>
        <time>2020-05-23T09:42:17Z</time>
      </trkpt>
      <trkpt lat="47.16138" lon="-1.6906">
        <ele>18.14</ele>
        <time>2020-05-23T09:42:19Z</time>
      </trkpt>
      <trkpt lat="47.16141" lon="-1.6908">
        <ele>19.3</ele>
        <time>2020-05-23T09:42:21Z</time>
      </trkpt>
      <trkpt lat="47.16144" lon="-1.69098">
        <ele>20.04</ele>
        <time>2020-05-23T09:42:23Z</time>
      </trkpt>
      <trkpt lat="47.16146" lon="-1.6912">
        <ele>20.13</ele>
        <time>2020-05-23T09:42:25Z</time>
      </trkpt>
      <trkpt lat="47.16148" lon="-1.69144">
        <ele>19.27</ele>
        <time>2020-05-23T09:42:27Z</time>
      </trkpt>
      <trkpt lat="47.16148" lon="-1.69163">
        <ele>18.24</ele>
        <time>2020-05-23T09:42:29Z</time>
      </trkpt>
      <trkpt lat="47.16147" lon="-1.69183">
        <ele>17.15</ele>
        <time>2020-05-23T09:42:31Z</time>
      </trkpt>
      <trkpt lat="47.16145" lon="-1.69203">
        <ele>15.64</ele>
        <time>2020-05-23T09:42:33Z</time>
      </trkpt>
      <trkpt lat="47.16144" lon="-1.69225">
        <ele>15.13</ele>
        <time>2020-05-23T09:42:35Z</time>
      </trkpt>
      <trkpt lat="47.16142" lon="-1.69246">
        <ele>14.58</ele>
        <time>2020-05-23T09:42:37Z</time>
      </trkpt>
      <trkpt lat="47.16139" lon="-1.69266">
        <ele>14.01</ele>
        <time>2020-05-23T09:42:39Z</time>
      </trkpt>
      <trkpt lat="47.16136" lon="-1.69288">
        <ele>13.73</ele>
        <time>2020-05-23T09:42:41Z</time>
      </trkpt>
      <trkpt lat="47.16133" lon="-1.69306">
        <ele>13.95</ele>
        <time>2020-05-23T09:42:43Z</time>
      </trkpt>
      <trkpt lat="47.1613" lon="-1.69326">
        <ele>14.41</ele>
        <time>2020-05-23T09:42:45Z</time>
      </trkpt>
      <trkpt lat="47.16127" lon="-1.69345">
        <ele>14.54</ele>
        <time>2020-05-23T09:42:47Z</time>
      </trkpt>
      <trkpt lat="47.16124" lon="-1.69362">
        <ele>15.99</ele>
        <time>2020-05-23T09:42:49Z</time>
      </trkpt>
      <trkpt lat="47.16121" lon="-1.69381">
        <ele>16.25</ele>
        <time>2020-05-23T09:42:51Z</time>
      </trkpt>
      <trkpt lat="47.16118" lon="-1.69396">
        <ele>15.82</ele>
        <time>2020-05-23T09:42:53Z</time>
      </trkpt>
      <trkpt lat="47.16115" lon="-1.69417">
        <ele>15.19</ele>
        <time>2020-05-23T09:42:55Z</time>
      </trkpt>
      <trkpt lat="47.16114" lon="-1.69434">
        <ele>15.02</ele>
        <time>2020-05-23T09:42:57Z</time>
      </trkpt>
      <trkpt lat="47.16112" lon="-1.69451">
        <ele>15.16</ele>
        <time>2020-05-23T09:42:59Z</time>
      </trkpt>
      <trkpt lat="47.16111" lon="-1.69473">
        <ele>15.24</ele>
        <time>2020-05-23T09:43:01Z</time>
      </trkpt>
      <trkpt lat="47.1611" lon="-1.69489">
        <ele>15.75</ele>
        <time>2020-05-23T09:43:03Z</time>
      </trkpt>
      <trkpt lat="47.1611" lon="-1.69506">
        <ele>16.4</ele>
        <time>2020-05-23T09:43:05Z</time>
      </trkpt>
      <trkpt lat="47.16109" lon="-1.69524">
        <ele>16.05</ele>
        <time>2020-05-23T09:43:07Z</time>
      </trkpt>
      <trkpt lat="47.16108" lon="-1.69543">
        <ele>15.88</ele>
        <time>2020-05-23T09:43:09Z</time>
      </trkpt>
      <trkpt lat="47.16106" lon="-1.69563">
        <ele>15.57</ele>
        <time>2020-05-23T09:43:11Z</time>
      </trkpt>
      <trkpt lat="47.16104" lon="-1.69582">
        <ele>14.93</ele>
        <time>2020-05-23T09:43:13Z</time>
      </trkpt>
      <trkpt lat="47.16103" lon="-1.69599">
        <ele>14.72</ele>
        <time>2020-05-23T09:43:15Z</time>
      </trkpt>
      <trkpt lat="47.16101" lon="-1.69616">
        <ele>14.52</ele>
        <time>2020-05-23T09:43:17Z</time>
      </trkpt>
      <trkpt lat="47.16099" lon="-1.69636">
        <ele>14.59</ele>
        <time>2020-05-23T09:43:19Z</time>
      </trkpt>
      <trkpt lat="47.16097" lon="-1.69655">
        <ele>15.6</ele>
        <time>2020-05-23T09:43:21Z</time>
      </trkpt>
      <trkpt lat="47.16096" lon="-1.69674">
        <ele>16.3</ele>
        <time>2020-05-23T09:43:23Z</time>
      </trkpt>
      <trkpt lat="47.16094" lon="-1.69692">
        <ele>17.27</ele>
        <time>2020-05-23T09:43:25Z</time>
      </trkpt>
      <trkpt lat="47.16093" lon="-1.69713">
        <ele>16.97</ele>
        <time>2020-05-23T09:43:27Z</time>
      </trkpt>
      <trkpt lat="47.16091" lon="-1.69733">
        <ele>16.86</ele>
        <time>2020-05-23T09:43:29Z</time>
      </trkpt>
      <trkpt lat="47.1609" lon="-1.69752">
        <ele>16.75</ele>
        <time>2020-05-23T09:43:31Z</time>
      </trkpt>
      <trkpt lat="47.16089" lon="-1.6977">
        <ele>16.83</ele>
        <time>2020-05-23T09:43:33Z</time>
      </trkpt>
      <trkpt lat="47.16088" lon="-1.69788">
        <ele>17.11</ele>
        <time>2020-05-23T09:43:35Z</time>
      </trkpt>
      <trkpt lat="47.16087" lon="-1.69809">
        <ele>17.32</ele>
        <time>2020-05-23T09:43:37Z</time>
      </trkpt>
      <trkpt lat="47.16086" lon="-1.69831">
        <ele>17.66</ele>
        <time>2020-05-23T09:43:39Z</time>
      </trkpt>
      <trkpt lat="47.16085" lon="-1.69849">
        <ele>18.5</ele>
        <time>2020-05-23T09:43:41Z</time>
      </trkpt>
      <trkpt lat="47.16083" lon="-1.6987">
        <ele>19.91</ele>
        <time>2020-05-23T09:43:43Z</time>
      </trkpt>
      <trkpt lat="47.16081" lon="-1.69889">
        <ele>20.8</ele>
        <time>2020-05-23T09:43:45Z</time>
      </trkpt>
      <trkpt lat="47.16079" lon="-1.6991">
        <ele>20.65</ele>
        <time>2020-05-23T09:43:47Z</time>
      </trkpt>
      <trkpt lat="47.16078" lon="-1.69927">
        <ele>21.41</ele>
        <time>2020-05-23T09:43:49Z</time>
      </trkpt>
      <trkpt lat="47.16077" lon="-1.69947">
        <ele>22.31</ele>
        <time>2020-05-23T09:43:51Z</time>
      </trkpt>
      <trkpt lat="47.16076" lon="-1.69967">
        <ele>22.26</ele>
        <time>2020-05-23T09:43:53Z</time>
      </trkpt>
      <trkpt lat="47.16075" lon="-1.69988">
        <ele>22.61</ele>
        <time>2020-05-23T09:43:55Z</time>
      </trkpt>
      <trkpt lat="47.16074" lon="-1.70009">
        <ele>21.69</ele>
        <time>2020-05-23T09:43:57Z</time>
      </trkpt>
      <trkpt lat="47.16073" lon="-1.70028">
        <ele>20.09</ele>
        <time>2020-05-23T09:43:59Z</time>
      </trkpt>
      <trkpt lat="47.16072" lon="-1.70047">
        <ele>20.12</ele>
        <time>2020-05-23T09:44:01Z</time>
      </trkpt>
      <trkpt lat="47.16072" lon="-1.70067">
        <ele>19.79</ele>
        <time>2020-05-23T09:44:03Z</time>
      </trkpt>
      <trkpt lat="47.1607" lon="-1.70089">
        <ele>19.91</ele>
        <time>2020-05-23T09:44:05Z</time>
      </trkpt>
      <trkpt lat="47.16068" lon="-1.70109">
        <ele>20.92</ele>
        <time>2020-05-23T09:44:07Z</time>
      </trkpt>
      <trkpt lat="47.16065" lon="-1.70127">
        <ele>21.38</ele>
        <time>2020-05-23T09:44:09Z</time>
      </trkpt>
      <trkpt lat="47.16061" lon="-1.70147">
        <ele>21.01</ele>
        <time>2020-05-23T09:44:11Z</time>
      </trkpt>
      <trkpt lat="47.16053" lon="-1.70164">
        <ele>20.76</ele>
        <time>2020-05-23T09:44:13Z</time>
      </trkpt>
      <trkpt lat="47.16046" lon="-1.70181">
        <ele>20.31</ele>
        <time>2020-05-23T09:44:15Z</time>
      </trkpt>
      <trkpt lat="47.16039" lon="-1.70194">
        <ele>20</ele>
        <time>2020-05-23T09:44:17Z</time>
      </trkpt>
      <trkpt lat="47.16031" lon="-1.70211">
        <ele>19.38</ele>
        <time>2020-05-23T09:44:19Z</time>
      </trkpt>
      <trkpt lat="47.16024" lon="-1.70225">
        <ele>19.68</ele>
        <time>2020-05-23T09:44:21Z</time>
      </trkpt>
      <trkpt lat="47.16015" lon="-1.70244">
        <ele>19.83</ele>
        <time>2020-05-23T09:44:23Z</time>
      </trkpt>
      <trkpt lat="47.16008" lon="-1.70259">
        <ele>20.01</ele>
        <time>2020-05-23T09:44:25Z</time>
      </trkpt>
      <trkpt lat="47.16001" lon="-1.70276">
        <ele>19.92</ele>
        <time>2020-05-23T09:44:27Z</time>
      </trkpt>
      <trkpt lat="47.15994" lon="-1.70294">
        <ele>19.84</ele>
        <time>2020-05-23T09:44:29Z</time>
      </trkpt>
      <trkpt lat="47.15986" lon="-1.70311">
        <ele>19.73</ele>
        <time>2020-05-23T09:44:31Z</time>
      </trkpt>
      <trkpt lat="47.15979" lon="-1.70328">
        <ele>19.27</ele>
        <time>2020-05-23T09:44:33Z</time>
      </trkpt>
      <trkpt lat="47.15971" lon="-1.70346">
        <ele>18.32</ele>
        <time>2020-05-23T09:44:35Z</time>
      </trkpt>
      <trkpt lat="47.15963" lon="-1.70364">
        <ele>17.59</ele>
        <time>2020-05-23T09:44:37Z</time>
      </trkpt>
      <trkpt lat="47.15955" lon="-1.70382">
        <ele>17.6</ele>
        <time>2020-05-23T09:44:39Z</time>
      </trkpt>
      <trkpt lat="47.15947" lon="-1.70399">
        <ele>18.2</ele>
        <time>2020-05-23T09:44:41Z</time>
      </trkpt>
      <trkpt lat="47.15939" lon="-1.70417">
        <ele>18.84</ele>
        <time>2020-05-23T09:44:43Z</time>
      </trkpt>
      <trkpt lat="47.15932" lon="-1.70433">
        <ele>19.43</ele>
        <time>2020-05-23T09:44:45Z</time>
      </trkpt>
      <trkpt lat="47.15923" lon="-1.70449">
        <ele>19.4</ele>
        <time>2020-05-23T09:44:47Z</time>
      </trkpt>
      <trkpt lat="47.15915" lon="-1.70467">
        <ele>19.38</ele>
        <time>2020-05-23T09:44:49Z</time>
      </trkpt>
      <trkpt lat="47.15907" lon="-1.70484">
        <ele>19.2</ele>
        <time>2020-05-23T09:44:51Z</time>
      </trkpt>
      <trkpt lat="47.15899" lon="-1.70501">
        <ele>19.01</ele>
        <time>2020-05-23T09:44:53Z</time>
      </trkpt>
      <trkpt lat="47.15892" lon="-1.7052">
        <ele>19.17</ele>
        <time>2020-05-23T09:44:55Z</time>
      </trkpt>
      <trkpt lat="47.15886" lon="-1.70538">
        <ele>19.78</ele>
        <time>2020-05-23T09:44:57Z</time>
      </trkpt>
      <trkpt lat="47.15881" lon="-1.70556">
        <ele>19.87</ele>
        <time>2020-05-23T09:44:59Z</time>
      </trkpt>
      <trkpt lat="47.15875" lon="-1.70574">
        <ele>19.1</ele>
        <time>2020-05-23T09:45:01Z</time>
      </trkpt>
      <trkpt lat="47.1587" lon="-1.70593">
        <ele>18.82</ele>
        <time>2020-05-23T09:45:03Z</time>
      </trkpt>
      <trkpt lat="47.15865" lon="-1.70613">
        <ele>18.47</ele>
        <time>2020-05-23T09:45:05Z</time>
      </trkpt>
      <trkpt lat="47.1586" lon="-1.70631">
        <ele>18.48</ele>
        <time>2020-05-23T09:45:07Z</time>
      </trkpt>
      <trkpt lat="47.15856" lon="-1.70646">
        <ele>18.65</ele>
        <time>2020-05-23T09:45:09Z</time>
      </trkpt>
      <trkpt lat="47.15851" lon="-1.70662">
        <ele>18.13</ele>
        <time>2020-05-23T09:45:11Z</time>
      </trkpt>
      <trkpt lat="47.15845" lon="-1.70678">
        <ele>17.73</ele>
        <time>2020-05-23T09:45:13Z</time>
      </trkpt>
      <trkpt lat="47.15838" lon="-1.70693">
        <ele>18.03</ele>
        <time>2020-05-23T09:45:15Z</time>
      </trkpt>
      <trkpt lat="47.15832" lon="-1.70709">
        <ele>17.73</ele>
        <time>2020-05-23T09:45:17Z</time>
      </trkpt>
      <trkpt lat="47.15825" lon="-1.70724">
        <ele>17.52</ele>
        <time>2020-05-23T09:45:19Z</time>
      </trkpt>
      <trkpt lat="47.15817" lon="-1.70739">
        <ele>17.02</ele>
        <time>2020-05-23T09:45:21Z</time>
      </trkpt>
      <trkpt lat="47.1581" lon="-1.70754">
        <ele>17.4</ele>
        <time>2020-05-23T09:45:23Z</time>
      </trkpt>
      <trkpt lat="47.15802" lon="-1.7077">
        <ele>17.97</ele>
        <time>2020-05-23T09:45:25Z</time>
      </trkpt>
      <trkpt lat="47.15795" lon="-1.70785">
        <ele>17.61</ele>
        <time>2020-05-23T09:45:27Z</time>
      </trkpt>
      <trkpt lat="47.15788" lon="-1.708">
        <ele>16.83</ele>
        <time>2020-05-23T09:45:29Z</time>
      </trkpt>
      <trkpt lat="47.15782" lon="-1.70815">
        <ele>17.36</ele>
        <time>2020-05-23T09:45:31Z</time>
      </trkpt>
      <trkpt lat="47.15774" lon="-1.7083">
        <ele>17.6</ele>
        <time>2020-05-23T09:45:33Z</time>
      </trkpt>
      <trkpt lat="47.15765" lon="-1.70845">
        <ele>18.33</ele>
        <time>2020-05-23T09:45:35Z</time>
      </trkpt>
      <trkpt lat="47.15758" lon="-1.70858">
        <ele>19.32</ele>
        <time>2020-05-23T09:45:37Z</time>
      </trkpt>
      <trkpt lat="47.15749" lon="-1.70875">
        <ele>19.73</ele>
        <time>2020-05-23T09:45:39Z</time>
      </trkpt>
      <trkpt lat="47.15741" lon="-1.7089">
        <ele>18.71</ele>
        <time>2020-05-23T09:45:41Z</time>
      </trkpt>
      <trkpt lat="47.15732" lon="-1.70904">
        <ele>18.13</ele>
        <time>2020-05-23T09:45:43Z</time>
      </trkpt>
      <trkpt lat="47.15725" lon="-1.70917">
        <ele>17.78</ele>
        <time>2020-05-23T09:45:45Z</time>
      </trkpt>
      <trkpt lat="47.15717" lon="-1.70933">
        <ele>18.21</ele>
        <time>2020-05-23T09:45:47Z</time>
      </trkpt>
      <trkpt lat="47.1571" lon="-1.70947">
        <ele>18.95</ele>
        <time>2020-05-23T09:45:49Z</time>
      </trkpt>
      <trkpt lat="47.15702" lon="-1.70963">
        <ele>18.37</ele>
        <time>2020-05-23T09:45:51Z</time>
      </trkpt>
      <trkpt lat="47.15694" lon="-1.70978">
        <ele>18.65</ele>
        <time>2020-05-23T09:45:53Z</time>
      </trkpt>
      <trkpt lat="47.15687" lon="-1.70993">
        <ele>18.61</ele>
        <time>2020-05-23T09:45:55Z</time>
      </trkpt>
      <trkpt lat="47.1568" lon="-1.71008">
        <ele>18.29</ele>
        <time>2020-05-23T09:45:57Z</time>
      </trkpt>
      <trkpt lat="47.15673" lon="-1.71023">
        <ele>18.54</ele>
        <time>2020-05-23T09:45:59Z</time>
      </trkpt>
      <trkpt lat="47.15666" lon="-1.71037">
        <ele>17.94</ele>
        <time>2020-05-23T09:46:01Z</time>
      </trkpt>
      <trkpt lat="47.15661" lon="-1.71049">
        <ele>18.4</ele>
        <time>2020-05-23T09:46:03Z</time>
      </trkpt>
      <trkpt lat="47.15654" lon="-1.71064">
        <ele>19.63</ele>
        <time>2020-05-23T09:46:06Z</time>
      </trkpt>
      <trkpt lat="47.15645" lon="-1.71069">
        <ele>19.65</ele>
        <time>2020-05-23T09:46:08Z</time>
      </trkpt>
      <trkpt lat="47.15633" lon="-1.71081">
        <ele>19.3</ele>
        <time>2020-05-23T09:46:10Z</time>
      </trkpt>
      <trkpt lat="47.15623" lon="-1.71096">
        <ele>19.22</ele>
        <time>2020-05-23T09:46:12Z</time>
      </trkpt>
      <trkpt lat="47.15614" lon="-1.71111">
        <ele>19.2</ele>
        <time>2020-05-23T09:46:14Z</time>
      </trkpt>
      <trkpt lat="47.15606" lon="-1.71126">
        <ele>20.19</ele>
        <time>2020-05-23T09:46:16Z</time>
      </trkpt>
      <trkpt lat="47.15597" lon="-1.71142">
        <ele>20.81</ele>
        <time>2020-05-23T09:46:18Z</time>
      </trkpt>
      <trkpt lat="47.15588" lon="-1.71156">
        <ele>20.93</ele>
        <time>2020-05-23T09:46:20Z</time>
      </trkpt>
      <trkpt lat="47.1558" lon="-1.7117">
        <ele>20.27</ele>
        <time>2020-05-23T09:46:22Z</time>
      </trkpt>
      <trkpt lat="47.15572" lon="-1.71183">
        <ele>19.97</ele>
        <time>2020-05-23T09:46:24Z</time>
      </trkpt>
      <trkpt lat="47.15563" lon="-1.71197">
        <ele>20.48</ele>
        <time>2020-05-23T09:46:26Z</time>
      </trkpt>
      <trkpt lat="47.15555" lon="-1.71212">
        <ele>20.6</ele>
        <time>2020-05-23T09:46:28Z</time>
      </trkpt>
      <trkpt lat="47.15548" lon="-1.71228">
        <ele>20.56</ele>
        <time>2020-05-23T09:46:30Z</time>
      </trkpt>
      <trkpt lat="47.15541" lon="-1.71244">
        <ele>19.59</ele>
        <time>2020-05-23T09:46:32Z</time>
      </trkpt>
      <trkpt lat="47.15534" lon="-1.71262">
        <ele>19.2</ele>
        <time>2020-05-23T09:46:34Z</time>
      </trkpt>
      <trkpt lat="47.15527" lon="-1.71278">
        <ele>19.07</ele>
        <time>2020-05-23T09:46:36Z</time>
      </trkpt>
      <trkpt lat="47.15521" lon="-1.71293">
        <ele>19.5</ele>
        <time>2020-05-23T09:46:38Z</time>
      </trkpt>
      <trkpt lat="47.15515" lon="-1.71309">
        <ele>20.98</ele>
        <time>2020-05-23T09:46:40Z</time>
      </trkpt>
      <trkpt lat="47.15508" lon="-1.71323">
        <ele>21.92</ele>
        <time>2020-05-23T09:46:42Z</time>
      </trkpt>
      <trkpt lat="47.155" lon="-1.71339">
        <ele>22.2</ele>
        <time>2020-05-23T09:46:44Z</time>
      </trkpt>
      <trkpt lat="47.15491" lon="-1.71354">
        <ele>21.47</ele>
        <time>2020-05-23T09:46:46Z</time>
      </trkpt>
      <trkpt lat="47.15481" lon="-1.71368">
        <ele>20.83</ele>
        <time>2020-05-23T09:46:48Z</time>
      </trkpt>
      <trkpt lat="47.15472" lon="-1.71381">
        <ele>20.53</ele>
        <time>2020-05-23T09:46:50Z</time>
      </trkpt>
      <trkpt lat="47.15462" lon="-1.71393">
        <ele>20.03</ele>
        <time>2020-05-23T09:46:52Z</time>
      </trkpt>
      <trkpt lat="47.1545" lon="-1.71405">
        <ele>19.36</ele>
        <time>2020-05-23T09:46:54Z</time>
      </trkpt>
      <trkpt lat="47.1544" lon="-1.71415">
        <ele>19.03</ele>
        <time>2020-05-23T09:46:56Z</time>
      </trkpt>
      <trkpt lat="47.15429" lon="-1.71425">
        <ele>18.61</ele>
        <time>2020-05-23T09:46:58Z</time>
      </trkpt>
      <trkpt lat="47.15418" lon="-1.71436">
        <ele>18.34</ele>
        <time>2020-05-23T09:47:00Z</time>
      </trkpt>
      <trkpt lat="47.15407" lon="-1.71446">
        <ele>17.53</ele>
        <time>2020-05-23T09:47:02Z</time>
      </trkpt>
      <trkpt lat="47.15396" lon="-1.71457">
        <ele>17.3</ele>
        <time>2020-05-23T09:47:04Z</time>
      </trkpt>
      <trkpt lat="47.15384" lon="-1.71466">
        <ele>17.2</ele>
        <time>2020-05-23T09:47:06Z</time>
      </trkpt>
      <trkpt lat="47.15373" lon="-1.71475">
        <ele>17.64</ele>
        <time>2020-05-23T09:47:08Z</time>
      </trkpt>
      <trkpt lat="47.1536" lon="-1.71485">
        <ele>17.34</ele>
        <time>2020-05-23T09:47:10Z</time>
      </trkpt>
      <trkpt lat="47.15348" lon="-1.71497">
        <ele>17.6</ele>
        <time>2020-05-23T09:47:12Z</time>
      </trkpt>
      <trkpt lat="47.15338" lon="-1.71507">
        <ele>17.43</ele>
        <time>2020-05-23T09:47:14Z</time>
      </trkpt>
      <trkpt lat="47.15327" lon="-1.71519">
        <ele>16.87</ele>
        <time>2020-05-23T09:47:16Z</time>
      </trkpt>
      <trkpt lat="47.15315" lon="-1.71531">
        <ele>16.7</ele>
        <time>2020-05-23T09:47:18Z</time>
      </trkpt>
      <trkpt lat="47.15304" lon="-1.71543">
        <ele>16.66</ele>
        <time>2020-05-23T09:47:20Z</time>
      </trkpt>
      <trkpt lat="47.15294" lon="-1.71554">
        <ele>17.04</ele>
        <time>2020-05-23T09:47:22Z</time>
      </trkpt>
      <trkpt lat="47.15283" lon="-1.71567">
        <ele>17.12</ele>
        <time>2020-05-23T09:47:24Z</time>
      </trkpt>
      <trkpt lat="47.15274" lon="-1.71578">
        <ele>15.8</ele>
        <time>2020-05-23T09:47:26Z</time>
      </trkpt>
      <trkpt lat="47.15263" lon="-1.71589">
        <ele>14.75</ele>
        <time>2020-05-23T09:47:28Z</time>
      </trkpt>
      <trkpt lat="47.15251" lon="-1.71602">
        <ele>14.48</ele>
        <time>2020-05-23T09:47:30Z</time>
      </trkpt>
      <trkpt lat="47.15243" lon="-1.71614">
        <ele>15.4</ele>
        <time>2020-05-23T09:47:32Z</time>
      </trkpt>
      <trkpt lat="47.1523" lon="-1.71622">
        <ele>15.03</ele>
        <time>2020-05-23T09:47:34Z</time>
      </trkpt>
      <trkpt lat="47.15219" lon="-1.71618">
        <ele>14.91</ele>
        <time>2020-05-23T09:47:36Z</time>
      </trkpt>
      <trkpt lat="47.15207" lon="-1.71609">
        <ele>15.64</ele>
        <time>2020-05-23T09:47:38Z</time>
      </trkpt>
      <trkpt lat="47.15194" lon="-1.71599">
        <ele>16.43</ele>
        <time>2020-05-23T09:47:40Z</time>
      </trkpt>
      <trkpt lat="47.1518" lon="-1.71588">
        <ele>16.2</ele>
        <time>2020-05-23T09:47:42Z</time>
      </trkpt>
      <trkpt lat="47.15169" lon="-1.71579">
        <ele>16.72</ele>
        <time>2020-05-23T09:47:44Z</time>
      </trkpt>
      <trkpt lat="47.15158" lon="-1.71571">
        <ele>16.71</ele>
        <time>2020-05-23T09:47:46Z</time>
      </trkpt>
      <trkpt lat="47.15146" lon="-1.71562">
        <ele>16.18</ele>
        <time>2020-05-23T09:47:48Z</time>
      </trkpt>
      <trkpt lat="47.15133" lon="-1.71552">
        <ele>16.01</ele>
        <time>2020-05-23T09:47:50Z</time>
      </trkpt>
      <trkpt lat="47.15123" lon="-1.71544">
        <ele>16.27</ele>
        <time>2020-05-23T09:47:52Z</time>
      </trkpt>
      <trkpt lat="47.15112" lon="-1.71535">
        <ele>16.75</ele>
        <time>2020-05-23T09:47:54Z</time>
      </trkpt>
      <trkpt lat="47.151" lon="-1.71524">
        <ele>17.25</ele>
        <time>2020-05-23T09:47:56Z</time>
      </trkpt>
      <trkpt lat="47.15089" lon="-1.71513">
        <ele>17.8</ele>
        <time>2020-05-23T09:47:58Z</time>
      </trkpt>
      <trkpt lat="47.15078" lon="-1.71501">
        <ele>17.52</ele>
        <time>2020-05-23T09:48:00Z</time>
      </trkpt>
      <trkpt lat="47.15069" lon="-1.71492">
        <ele>17.5</ele>
        <time>2020-05-23T09:48:02Z</time>
      </trkpt>
      <trkpt lat="47.15058" lon="-1.71481">
        <ele>18.08</ele>
        <time>2020-05-23T09:48:04Z</time>
      </trkpt>
      <trkpt lat="47.15047" lon="-1.7147">
        <ele>18.16</ele>
        <time>2020-05-23T09:48:06Z</time>
      </trkpt>
      <trkpt lat="47.15036" lon="-1.71458">
        <ele>17.65</ele>
        <time>2020-05-23T09:48:08Z</time>
      </trkpt>
      <trkpt lat="47.15026" lon="-1.71448">
        <ele>17.88</ele>
        <time>2020-05-23T09:48:10Z</time>
      </trkpt>
      <trkpt lat="47.15016" lon="-1.71438">
        <ele>18.47</ele>
        <time>2020-05-23T09:48:12Z</time>
      </trkpt>
      <trkpt lat="47.15005" lon="-1.71427">
        <ele>18.96</ele>
        <time>2020-05-23T09:48:14Z</time>
      </trkpt>
      <trkpt lat="47.14994" lon="-1.71417">
        <ele>19.12</ele>
        <time>2020-05-23T09:48:16Z</time>
      </trkpt>
      <trkpt lat="47.14982" lon="-1.71406">
        <ele>19.46</ele>
        <time>2020-05-23T09:48:18Z</time>
      </trkpt>
      <trkpt lat="47.1497" lon="-1.71395">
        <ele>18.73</ele>
        <time>2020-05-23T09:48:20Z</time>
      </trkpt>
      <trkpt lat="47.1496" lon="-1.71385">
        <ele>18.45</ele>
        <time>2020-05-23T09:48:22Z</time>
      </trkpt>
      <trkpt lat="47.1495" lon="-1.71374">
        <ele>18.63</ele>
        <time>2020-05-23T09:48:24Z</time>
      </trkpt>
      <trkpt lat="47.1494" lon="-1.71363">
        <ele>18.94</ele>
        <time>2020-05-23T09:48:26Z</time>
      </trkpt>
      <trkpt lat="47.14929" lon="-1.7135">
        <ele>19.8</ele>
        <time>2020-05-23T09:48:28Z</time>
      </trkpt>
      <trkpt lat="47.1492" lon="-1.71337">
        <ele>20.4</ele>
        <time>2020-05-23T09:48:30Z</time>
      </trkpt>
      <trkpt lat="47.14909" lon="-1.71323">
        <ele>20.5</ele>
        <time>2020-05-23T09:48:32Z</time>
      </trkpt>
      <trkpt lat="47.149" lon="-1.71312">
        <ele>20.65</ele>
        <time>2020-05-23T09:48:34Z</time>
      </trkpt>
      <trkpt lat="47.1489" lon="-1.713">
        <ele>20.33</ele>
        <time>2020-05-23T09:48:36Z</time>
      </trkpt>
      <trkpt lat="47.1488" lon="-1.71288">
        <ele>20.64</ele>
        <time>2020-05-23T09:48:38Z</time>
      </trkpt>
      <trkpt lat="47.14869" lon="-1.71277">
        <ele>20.95</ele>
        <time>2020-05-23T09:48:40Z</time>
      </trkpt>
      <trkpt lat="47.14857" lon="-1.71267">
        <ele>21.86</ele>
        <time>2020-05-23T09:48:42Z</time>
      </trkpt>
      <trkpt lat="47.14849" lon="-1.71252">
        <ele>21.69</ele>
        <time>2020-05-23T09:48:44Z</time>
      </trkpt>
      <trkpt lat="47.14841" lon="-1.71235">
        <ele>21.45</ele>
        <time>2020-05-23T09:48:46Z</time>
      </trkpt>
      <trkpt lat="47.14834" lon="-1.71218">
        <ele>21.22</ele>
        <time>2020-05-23T09:48:48Z</time>
      </trkpt>
      <trkpt lat="47.14826" lon="-1.71198">
        <ele>21.33</ele>
        <time>2020-05-23T09:48:50Z</time>
      </trkpt>
      <trkpt lat="47.1482" lon="-1.7118">
        <ele>20.88</ele>
        <time>2020-05-23T09:48:52Z</time>
      </trkpt>
      <trkpt lat="47.14814" lon="-1.71162">
        <ele>20.4</ele>
        <time>2020-05-23T09:48:54Z</time>
      </trkpt>
      <trkpt lat="47.14808" lon="-1.71146">
        <ele>20.65</ele>
        <time>2020-05-23T09:48:56Z</time>
      </trkpt>
      <trkpt lat="47.14802" lon="-1.71129">
        <ele>21.33</ele>
        <time>2020-05-23T09:48:58Z</time>
      </trkpt>
      <trkpt lat="47.14794" lon="-1.71113">
        <ele>22.07</ele>
        <time>2020-05-23T09:49:00Z</time>
      </trkpt>
      <trkpt lat="47.14786" lon="-1.71096">
        <ele>22.1</ele>
        <time>2020-05-23T09:49:02Z</time>
      </trkpt>
      <trkpt lat="47.14778" lon="-1.71081">
        <ele>22.15</ele>
        <time>2020-05-23T09:49:04Z</time>
      </trkpt>
      <trkpt lat="47.14773" lon="-1.71061">
        <ele>22.17</ele>
        <time>2020-05-23T09:49:06Z</time>
      </trkpt>
      <trkpt lat="47.14768" lon="-1.71044">
        <ele>22.32</ele>
        <time>2020-05-23T09:49:08Z</time>
      </trkpt>
      <trkpt lat="47.14761" lon="-1.71024">
        <ele>22.71</ele>
        <time>2020-05-23T09:49:10Z</time>
      </trkpt>
      <trkpt lat="47.14755" lon="-1.71004">
        <ele>22.46</ele>
        <time>2020-05-23T09:49:12Z</time>
      </trkpt>
      <trkpt lat="47.14748" lon="-1.70985">
        <ele>21.33</ele>
        <time>2020-05-23T09:49:14Z</time>
      </trkpt>
      <trkpt lat="47.14737" lon="-1.70982">
        <ele>20.4</ele>
        <time>2020-05-23T09:49:16Z</time>
      </trkpt>
      <trkpt lat="47.14726" lon="-1.70995">
        <ele>19.94</ele>
        <time>2020-05-23T09:49:18Z</time>
      </trkpt>
      <trkpt lat="47.14715" lon="-1.71012">
        <ele>19.69</ele>
        <time>2020-05-23T09:49:20Z</time>
      </trkpt>
      <trkpt lat="47.14711" lon="-1.7103">
        <ele>19.59</ele>
        <time>2020-05-23T09:49:22Z</time>
      </trkpt>
      <trkpt lat="47.1471" lon="-1.7105">
        <ele>19.27</ele>
        <time>2020-05-23T09:49:24Z</time>
      </trkpt>
      <trkpt lat="47.14713" lon="-1.71068">
        <ele>18.73</ele>
        <time>2020-05-23T09:49:26Z</time>
      </trkpt>
      <trkpt lat="47.14716" lon="-1.71089">
        <ele>18.46</ele>
        <time>2020-05-23T09:49:28Z</time>
      </trkpt>
      <trkpt lat="47.1472" lon="-1.71108">
        <ele>18.4</ele>
        <time>2020-05-23T09:49:30Z</time>
      </trkpt>
      <trkpt lat="47.14723" lon="-1.71128">
        <ele>18.73</ele>
        <time>2020-05-23T09:49:32Z</time>
      </trkpt>
      <trkpt lat="47.14726" lon="-1.71147">
        <ele>19.8</ele>
        <time>2020-05-23T09:49:34Z</time>
      </trkpt>
      <trkpt lat="47.14728" lon="-1.71167">
        <ele>20.38</ele>
        <time>2020-05-23T09:49:36Z</time>
      </trkpt>
      <trkpt lat="47.14732" lon="-1.71184">
        <ele>20.33</ele>
        <time>2020-05-23T09:49:38Z</time>
      </trkpt>
      <trkpt lat="47.14736" lon="-1.71202">
        <ele>20.4</ele>
        <time>2020-05-23T09:49:40Z</time>
      </trkpt>
      <trkpt lat="47.14742" lon="-1.7122">
        <ele>21.01</ele>
        <time>2020-05-23T09:49:42Z</time>
      </trkpt>
      <trkpt lat="47.14748" lon="-1.7124">
        <ele>21.08</ele>
        <time>2020-05-23T09:49:44Z</time>
      </trkpt>
      <trkpt lat="47.14753" lon="-1.71259">
        <ele>21.41</ele>
        <time>2020-05-23T09:49:46Z</time>
      </trkpt>
      <trkpt lat="47.14758" lon="-1.71278">
        <ele>22.75</ele>
        <time>2020-05-23T09:49:49Z</time>
      </trkpt>
      <trkpt lat="47.14762" lon="-1.71293">
        <ele>22.29</ele>
        <time>2020-05-23T09:49:51Z</time>
      </trkpt>
      <trkpt lat="47.14766" lon="-1.71312">
        <ele>20.63</ele>
        <time>2020-05-23T09:49:53Z</time>
      </trkpt>
      <trkpt lat="47.14769" lon="-1.71333">
        <ele>19.58</ele>
        <time>2020-05-23T09:49:55Z</time>
      </trkpt>
      <trkpt lat="47.14772" lon="-1.71351">
        <ele>18.99</ele>
        <time>2020-05-23T09:49:57Z</time>
      </trkpt>
      <trkpt lat="47.14774" lon="-1.71371">
        <ele>18.76</ele>
        <time>2020-05-23T09:49:59Z</time>
      </trkpt>
      <trkpt lat="47.14776" lon="-1.7139">
        <ele>19.03</ele>
        <time>2020-05-23T09:50:01Z</time>
      </trkpt>
      <trkpt lat="47.14778" lon="-1.71409">
        <ele>19.4</ele>
        <time>2020-05-23T09:50:03Z</time>
      </trkpt>
      <trkpt lat="47.14781" lon="-1.71429">
        <ele>20.14</ele>
        <time>2020-05-23T09:50:05Z</time>
      </trkpt>
      <trkpt lat="47.14784" lon="-1.71448">
        <ele>21.05</ele>
        <time>2020-05-23T09:50:07Z</time>
      </trkpt>
      <trkpt lat="47.14786" lon="-1.71468">
        <ele>21.58</ele>
        <time>2020-05-23T09:50:09Z</time>
      </trkpt>
      <trkpt lat="47.14789" lon="-1.71487">
        <ele>22.51</ele>
        <time>2020-05-23T09:50:11Z</time>
      </trkpt>
      <trkpt lat="47.14792" lon="-1.71506">
        <ele>23.54</ele>
        <time>2020-05-23T09:50:13Z</time>
      </trkpt>
      <trkpt lat="47.14794" lon="-1.71525">
        <ele>24.24</ele>
        <time>2020-05-23T09:50:15Z</time>
      </trkpt>
      <trkpt lat="47.14795" lon="-1.71543">
        <ele>24.47</ele>
        <time>2020-05-23T09:50:17Z</time>
      </trkpt>
      <trkpt lat="47.14795" lon="-1.71564">
        <ele>25.44</ele>
        <time>2020-05-23T09:50:19Z</time>
      </trkpt>
      <trkpt lat="47.14794" lon="-1.7158">
        <ele>25.36</ele>
        <time>2020-05-23T09:50:21Z</time>
      </trkpt>
      <trkpt lat="47.14791" lon="-1.71602">
        <ele>25.24</ele>
        <time>2020-05-23T09:50:23Z</time>
      </trkpt>
      <trkpt lat="47.14788" lon="-1.71618">
        <ele>24.61</ele>
        <time>2020-05-23T09:50:25Z</time>
      </trkpt>
      <trkpt lat="47.14785" lon="-1.71635">
        <ele>23.74</ele>
        <time>2020-05-23T09:50:27Z</time>
      </trkpt>
      <trkpt lat="47.14781" lon="-1.71653">
        <ele>22.86</ele>
        <time>2020-05-23T09:50:29Z</time>
      </trkpt>
      <trkpt lat="47.14777" lon="-1.71671">
        <ele>22.23</ele>
        <time>2020-05-23T09:50:31Z</time>
      </trkpt>
      <trkpt lat="47.14774" lon="-1.71689">
        <ele>21.88</ele>
        <time>2020-05-23T09:50:33Z</time>
      </trkpt>
      <trkpt lat="47.14771" lon="-1.71707">
        <ele>21.5</ele>
        <time>2020-05-23T09:50:35Z</time>
      </trkpt>
      <trkpt lat="47.14768" lon="-1.71725">
        <ele>22.17</ele>
        <time>2020-05-23T09:50:37Z</time>
      </trkpt>
      <trkpt lat="47.14765" lon="-1.71741">
        <ele>22.52</ele>
        <time>2020-05-23T09:50:39Z</time>
      </trkpt>
      <trkpt lat="47.14762" lon="-1.71759">
        <ele>22.91</ele>
        <time>2020-05-23T09:50:41Z</time>
      </trkpt>
      <trkpt lat="47.14758" lon="-1.71778">
        <ele>23.45</ele>
        <time>2020-05-23T09:50:43Z</time>
      </trkpt>
      <trkpt lat="47.14752" lon="-1.71793">
        <ele>24.19</ele>
        <time>2020-05-23T09:50:45Z</time>
      </trkpt>
      <trkpt lat="47.14743" lon="-1.71806">
        <ele>24.18</ele>
        <time>2020-05-23T09:50:47Z</time>
      </trkpt>
      <trkpt lat="47.14732" lon="-1.71817">
        <ele>24.41</ele>
        <time>2020-05-23T09:50:49Z</time>
      </trkpt>
      <trkpt lat="47.14719" lon="-1.71825">
        <ele>24.28</ele>
        <time>2020-05-23T09:50:51Z</time>
      </trkpt>
      <trkpt lat="47.14706" lon="-1.71832">
        <ele>23.75</ele>
        <time>2020-05-23T09:50:53Z</time>
      </trkpt>
      <trkpt lat="47.14693" lon="-1.71838">
        <ele>23.22</ele>
        <time>2020-05-23T09:50:55Z</time>
      </trkpt>
      <trkpt lat="47.1468" lon="-1.71843">
        <ele>23.1</ele>
        <time>2020-05-23T09:50:57Z</time>
      </trkpt>
      <trkpt lat="47.14666" lon="-1.71849">
        <ele>22.94</ele>
        <time>2020-05-23T09:50:59Z</time>
      </trkpt>
      <trkpt lat="47.14652" lon="-1.71855">
        <ele>22.77</ele>
        <time>2020-05-23T09:51:01Z</time>
      </trkpt>
      <trkpt lat="47.14639" lon="-1.71858">
        <ele>22.02</ele>
        <time>2020-05-23T09:51:03Z</time>
      </trkpt>
      <trkpt lat="47.14625" lon="-1.71859">
        <ele>21.13</ele>
        <time>2020-05-23T09:51:05Z</time>
      </trkpt>
      <trkpt lat="47.1461" lon="-1.71857">
        <ele>21.16</ele>
        <time>2020-05-23T09:51:07Z</time>
      </trkpt>
      <trkpt lat="47.14595" lon="-1.71852">
        <ele>20.9</ele>
        <time>2020-05-23T09:51:09Z</time>
      </trkpt>
      <trkpt lat="47.1458" lon="-1.71846">
        <ele>20.62</ele>
        <time>2020-05-23T09:51:11Z</time>
      </trkpt>
      <trkpt lat="47.14565" lon="-1.71838">
        <ele>20.38</ele>
        <time>2020-05-23T09:51:13Z</time>
      </trkpt>
      <trkpt lat="47.14552" lon="-1.71831">
        <ele>20.36</ele>
        <time>2020-05-23T09:51:15Z</time>
      </trkpt>
      <trkpt lat="47.14538" lon="-1.71824">
        <ele>20.16</ele>
        <time>2020-05-23T09:51:17Z</time>
      </trkpt>
      <trkpt lat="47.14523" lon="-1.71816">
        <ele>20.48</ele>
        <time>2020-05-23T09:51:19Z</time>
      </trkpt>
      <trkpt lat="47.14508" lon="-1.71809">
        <ele>21.07</ele>
        <time>2020-05-23T09:51:21Z</time>
      </trkpt>
      <trkpt lat="47.14495" lon="-1.71802">
        <ele>20.61</ele>
        <time>2020-05-23T09:51:23Z</time>
      </trkpt>
      <trkpt lat="47.14482" lon="-1.71795">
        <ele>20.4</ele>
        <time>2020-05-23T09:51:25Z</time>
      </trkpt>
      <trkpt lat="47.14467" lon="-1.71788">
        <ele>19.76</ele>
        <time>2020-05-23T09:51:27Z</time>
      </trkpt>
      <trkpt lat="47.14451" lon="-1.71782">
        <ele>19.19</ele>
        <time>2020-05-23T09:51:29Z</time>
      </trkpt>
      <trkpt lat="47.14437" lon="-1.71778">
        <ele>18.84</ele>
        <time>2020-05-23T09:51:31Z</time>
      </trkpt>
      <trkpt lat="47.14422" lon="-1.71776">
        <ele>18.79</ele>
        <time>2020-05-23T09:51:33Z</time>
      </trkpt>
      <trkpt lat="47.14409" lon="-1.71777">
        <ele>18.72</ele>
        <time>2020-05-23T09:51:35Z</time>
      </trkpt>
      <trkpt lat="47.14394" lon="-1.7178">
        <ele>18.39</ele>
        <time>2020-05-23T09:51:37Z</time>
      </trkpt>
      <trkpt lat="47.14379" lon="-1.71783">
        <ele>18.29</ele>
        <time>2020-05-23T09:51:39Z</time>
      </trkpt>
      <trkpt lat="47.14365" lon="-1.71788">
        <ele>18.44</ele>
        <time>2020-05-23T09:51:41Z</time>
      </trkpt>
      <trkpt lat="47.14351" lon="-1.71794">
        <ele>19.14</ele>
        <time>2020-05-23T09:51:43Z</time>
      </trkpt>
      <trkpt lat="47.14337" lon="-1.718">
        <ele>19.76</ele>
        <time>2020-05-23T09:51:45Z</time>
      </trkpt>
      <trkpt lat="47.14324" lon="-1.71805">
        <ele>19.67</ele>
        <time>2020-05-23T09:51:47Z</time>
      </trkpt>
      <trkpt lat="47.1431" lon="-1.7181">
        <ele>19.1</ele>
        <time>2020-05-23T09:51:49Z</time>
      </trkpt>
      <trkpt lat="47.14296" lon="-1.71816">
        <ele>18.03</ele>
        <time>2020-05-23T09:51:51Z</time>
      </trkpt>
      <trkpt lat="47.14283" lon="-1.71819">
        <ele>17.1</ele>
        <time>2020-05-23T09:51:53Z</time>
      </trkpt>
      <trkpt lat="47.14268" lon="-1.71823">
        <ele>16.07</ele>
        <time>2020-05-23T09:51:55Z</time>
      </trkpt>
      <trkpt lat="47.14254" lon="-1.71828">
        <ele>15.61</ele>
        <time>2020-05-23T09:51:57Z</time>
      </trkpt>
      <trkpt lat="47.14241" lon="-1.71833">
        <ele>15.45</ele>
        <time>2020-05-23T09:51:59Z</time>
      </trkpt>
      <trkpt lat="47.14227" lon="-1.71837">
        <ele>15.92</ele>
        <time>2020-05-23T09:52:01Z</time>
      </trkpt>
      <trkpt lat="47.14213" lon="-1.71843">
        <ele>16.14</ele>
        <time>2020-05-23T09:52:03Z</time>
      </trkpt>
      <trkpt lat="47.14201" lon="-1.71847">
        <ele>16.73</ele>
        <time>2020-05-23T09:52:05Z</time>
      </trkpt>
      <trkpt lat="47.14187" lon="-1.71852">
        <ele>15.97</ele>
        <time>2020-05-23T09:52:07Z</time>
      </trkpt>
      <trkpt lat="47.14173" lon="-1.71857">
        <ele>15.78</ele>
        <time>2020-05-23T09:52:09Z</time>
      </trkpt>
      <trkpt lat="47.14159" lon="-1.71861">
        <ele>15.46</ele>
        <time>2020-05-23T09:52:11Z</time>
      </trkpt>
      <trkpt lat="47.14146" lon="-1.71866">
        <ele>15.17</ele>
        <time>2020-05-23T09:52:13Z</time>
      </trkpt>
      <trkpt lat="47.14131" lon="-1.71871">
        <ele>14.75</ele>
        <time>2020-05-23T09:52:15Z</time>
      </trkpt>
      <trkpt lat="47.14116" lon="-1.71876">
        <ele>14.65</ele>
        <time>2020-05-23T09:52:17Z</time>
      </trkpt>
      <trkpt lat="47.14102" lon="-1.7188">
        <ele>13.85</ele>
        <time>2020-05-23T09:52:19Z</time>
      </trkpt>
      <trkpt lat="47.14085" lon="-1.71886">
        <ele>12.7</ele>
        <time>2020-05-23T09:52:21Z</time>
      </trkpt>
      <trkpt lat="47.1407" lon="-1.7189">
        <ele>10.97</ele>
        <time>2020-05-23T09:52:23Z</time>
      </trkpt>
      <trkpt lat="47.14054" lon="-1.71894">
        <ele>9.02</ele>
        <time>2020-05-23T09:52:25Z</time>
      </trkpt>
      <trkpt lat="47.14039" lon="-1.719">
        <ele>7.83</ele>
        <time>2020-05-23T09:52:27Z</time>
      </trkpt>
      <trkpt lat="47.14026" lon="-1.71904">
        <ele>7.66</ele>
        <time>2020-05-23T09:52:29Z</time>
      </trkpt>
      <trkpt lat="47.14009" lon="-1.71906">
        <ele>7.47</ele>
        <time>2020-05-23T09:52:31Z</time>
      </trkpt>
      <trkpt lat="47.13991" lon="-1.71902">
        <ele>6.36</ele>
        <time>2020-05-23T09:52:33Z</time>
      </trkpt>
      <trkpt lat="47.13982" lon="-1.71899">
        <ele>5.84</ele>
        <time>2020-05-23T09:52:34Z</time>
      </trkpt>
      <trkpt lat="47.13968" lon="-1.71906">
        <ele>5.46</ele>
        <time>2020-05-23T09:52:36Z</time>
      </trkpt>
      <trkpt lat="47.13968" lon="-1.71927">
        <ele>4.95</ele>
        <time>2020-05-23T09:52:38Z</time>
      </trkpt>
      <trkpt lat="47.13966" lon="-1.71949">
        <ele>5.38</ele>
        <time>2020-05-23T09:52:40Z</time>
      </trkpt>
      <trkpt lat="47.13958" lon="-1.71965">
        <ele>4.84</ele>
        <time>2020-05-23T09:52:42Z</time>
      </trkpt>
      <trkpt lat="47.13946" lon="-1.71975">
        <ele>5.24</ele>
        <time>2020-05-23T09:52:44Z</time>
      </trkpt>
      <trkpt lat="47.13933" lon="-1.71984">
        <ele>5</ele>
        <time>2020-05-23T09:52:46Z</time>
      </trkpt>
      <trkpt lat="47.13919" lon="-1.71992">
        <ele>4.36</ele>
        <time>2020-05-23T09:52:48Z</time>
      </trkpt>
      <trkpt lat="47.13908" lon="-1.71996">
        <ele>5.16</ele>
        <time>2020-05-23T09:52:50Z</time>
      </trkpt>
      <trkpt lat="47.13897" lon="-1.72001">
        <ele>6.14</ele>
        <time>2020-05-23T09:52:52Z</time>
      </trkpt>
      <trkpt lat="47.13886" lon="-1.72006">
        <ele>6.7</ele>
        <time>2020-05-23T09:52:54Z</time>
      </trkpt>
      <trkpt lat="47.13875" lon="-1.72014">
        <ele>6.23</ele>
        <time>2020-05-23T09:52:56Z</time>
      </trkpt>
      <trkpt lat="47.13866" lon="-1.72025">
        <ele>5.5</ele>
        <time>2020-05-23T09:52:58Z</time>
      </trkpt>
      <trkpt lat="47.13857" lon="-1.72037">
        <ele>5.21</ele>
        <time>2020-05-23T09:53:00Z</time>
      </trkpt>
      <trkpt lat="47.1385" lon="-1.72049">
        <ele>5.07</ele>
        <time>2020-05-23T09:53:02Z</time>
      </trkpt>
      <trkpt lat="47.13843" lon="-1.72061">
        <ele>5.66</ele>
        <time>2020-05-23T09:53:04Z</time>
      </trkpt>
      <trkpt lat="47.13834" lon="-1.72075">
        <ele>7.49</ele>
        <time>2020-05-23T09:53:07Z</time>
      </trkpt>
      <trkpt lat="47.13824" lon="-1.7209">
        <ele>8.3</ele>
        <time>2020-05-23T09:53:10Z</time>
      </trkpt>
      <trkpt lat="47.13816" lon="-1.72104">
        <ele>8.23</ele>
        <time>2020-05-23T09:53:12Z</time>
      </trkpt>
      <trkpt lat="47.13808" lon="-1.72118">
        <ele>8.28</ele>
        <time>2020-05-23T09:53:14Z</time>
      </trkpt>
      <trkpt lat="47.13802" lon="-1.72129">
        <ele>7.59</ele>
        <time>2020-05-23T09:53:16Z</time>
      </trkpt>
      <trkpt lat="47.13795" lon="-1.7214">
        <ele>6.72</ele>
        <time>2020-05-23T09:53:18Z</time>
      </trkpt>
      <trkpt lat="47.13789" lon="-1.72151">
        <ele>7.87</ele>
        <time>2020-05-23T09:53:20Z</time>
      </trkpt>
      <trkpt lat="47.13782" lon="-1.72163">
        <ele>9.91</ele>
        <time>2020-05-23T09:53:22Z</time>
      </trkpt>
      <trkpt lat="47.13775" lon="-1.72176">
        <ele>11.37</ele>
        <time>2020-05-23T09:53:24Z</time>
      </trkpt>
      <trkpt lat="47.13768" lon="-1.72189">
        <ele>12.28</ele>
        <time>2020-05-23T09:53:26Z</time>
      </trkpt>
      <trkpt lat="47.1376" lon="-1.72201">
        <ele>12.5</ele>
        <time>2020-05-23T09:53:28Z</time>
      </trkpt>
      <trkpt lat="47.13754" lon="-1.72213">
        <ele>13.38</ele>
        <time>2020-05-23T09:53:30Z</time>
      </trkpt>
      <trkpt lat="47.13747" lon="-1.72227">
        <ele>13.77</ele>
        <time>2020-05-23T09:53:32Z</time>
      </trkpt>
      <trkpt lat="47.13741" lon="-1.7224">
        <ele>13.47</ele>
        <time>2020-05-23T09:53:34Z</time>
      </trkpt>
      <trkpt lat="47.13736" lon="-1.72255">
        <ele>14.71</ele>
        <time>2020-05-23T09:53:36Z</time>
      </trkpt>
      <trkpt lat="47.13732" lon="-1.72272">
        <ele>14.66</ele>
        <time>2020-05-23T09:53:38Z</time>
      </trkpt>
      <trkpt lat="47.13731" lon="-1.72285">
        <ele>14.37</ele>
        <time>2020-05-23T09:53:40Z</time>
      </trkpt>
      <trkpt lat="47.1373" lon="-1.723">
        <ele>14.93</ele>
        <time>2020-05-23T09:53:42Z</time>
      </trkpt>
      <trkpt lat="47.13728" lon="-1.72315">
        <ele>15.23</ele>
        <time>2020-05-23T09:53:44Z</time>
      </trkpt>
      <trkpt lat="47.13727" lon="-1.72329">
        <ele>13.77</ele>
        <time>2020-05-23T09:53:46Z</time>
      </trkpt>
      <trkpt lat="47.13725" lon="-1.72343">
        <ele>12.56</ele>
        <time>2020-05-23T09:53:48Z</time>
      </trkpt>
      <trkpt lat="47.13722" lon="-1.72364">
        <ele>12.68</ele>
        <time>2020-05-23T09:53:51Z</time>
      </trkpt>
      <trkpt lat="47.13718" lon="-1.7238">
        <ele>13.21</ele>
        <time>2020-05-23T09:53:53Z</time>
      </trkpt>
      <trkpt lat="47.13714" lon="-1.72393">
        <ele>13.98</ele>
        <time>2020-05-23T09:53:55Z</time>
      </trkpt>
      <trkpt lat="47.1371" lon="-1.72406">
        <ele>15.24</ele>
        <time>2020-05-23T09:53:57Z</time>
      </trkpt>
      <trkpt lat="47.13707" lon="-1.72419">
        <ele>14.57</ele>
        <time>2020-05-23T09:53:59Z</time>
      </trkpt>
      <trkpt lat="47.13703" lon="-1.72434">
        <ele>14.32</ele>
        <time>2020-05-23T09:54:01Z</time>
      </trkpt>
      <trkpt lat="47.13699" lon="-1.72448">
        <ele>15.61</ele>
        <time>2020-05-23T09:54:03Z</time>
      </trkpt>
      <trkpt lat="47.13696" lon="-1.72461">
        <ele>16.76</ele>
        <time>2020-05-23T09:54:05Z</time>
      </trkpt>
      <trkpt lat="47.13692" lon="-1.72478">
        <ele>17.56</ele>
        <time>2020-05-23T09:54:07Z</time>
      </trkpt>
      <trkpt lat="47.13688" lon="-1.72492">
        <ele>17.51</ele>
        <time>2020-05-23T09:54:09Z</time>
      </trkpt>
      <trkpt lat="47.13683" lon="-1.72509">
        <ele>18.35</ele>
        <time>2020-05-23T09:54:11Z</time>
      </trkpt>
      <trkpt lat="47.13681" lon="-1.72525">
        <ele>19.13</ele>
        <time>2020-05-23T09:54:13Z</time>
      </trkpt>
      <trkpt lat="47.13679" lon="-1.72543">
        <ele>19.93</ele>
        <time>2020-05-23T09:54:15Z</time>
      </trkpt>
      <trkpt lat="47.13678" lon="-1.72559">
        <ele>20.87</ele>
        <time>2020-05-23T09:54:17Z</time>
      </trkpt>
      <trkpt lat="47.13677" lon="-1.72576">
        <ele>21.2</ele>
        <time>2020-05-23T09:54:19Z</time>
      </trkpt>
      <trkpt lat="47.13677" lon="-1.72594">
        <ele>20.76</ele>
        <time>2020-05-23T09:54:21Z</time>
      </trkpt>
      <trkpt lat="47.13677" lon="-1.72609">
        <ele>20.31</ele>
        <time>2020-05-23T09:54:23Z</time>
      </trkpt>
      <trkpt lat="47.13677" lon="-1.72624">
        <ele>20.64</ele>
        <time>2020-05-23T09:54:25Z</time>
      </trkpt>
      <trkpt lat="47.13674" lon="-1.72641">
        <ele>20.91</ele>
        <time>2020-05-23T09:54:27Z</time>
      </trkpt>
      <trkpt lat="47.13673" lon="-1.72656">
        <ele>20.72</ele>
        <time>2020-05-23T09:54:29Z</time>
      </trkpt>
      <trkpt lat="47.1367" lon="-1.7267">
        <ele>21.07</ele>
        <time>2020-05-23T09:54:31Z</time>
      </trkpt>
      <trkpt lat="47.13668" lon="-1.72684">
        <ele>20.5</ele>
        <time>2020-05-23T09:54:33Z</time>
      </trkpt>
      <trkpt lat="47.13666" lon="-1.727">
        <ele>20.23</ele>
        <time>2020-05-23T09:54:35Z</time>
      </trkpt>
      <trkpt lat="47.13664" lon="-1.72717">
        <ele>21.24</ele>
        <time>2020-05-23T09:54:37Z</time>
      </trkpt>
      <trkpt lat="47.13662" lon="-1.72736">
        <ele>22.88</ele>
        <time>2020-05-23T09:54:40Z</time>
      </trkpt>
      <trkpt lat="47.1366" lon="-1.72752">
        <ele>22.96</ele>
        <time>2020-05-23T09:54:42Z</time>
      </trkpt>
      <trkpt lat="47.13659" lon="-1.72767">
        <ele>21.74</ele>
        <time>2020-05-23T09:54:44Z</time>
      </trkpt>
      <trkpt lat="47.13659" lon="-1.72782">
        <ele>19.76</ele>
        <time>2020-05-23T09:54:46Z</time>
      </trkpt>
      <trkpt lat="47.13657" lon="-1.72798">
        <ele>18.33</ele>
        <time>2020-05-23T09:54:48Z</time>
      </trkpt>
      <trkpt lat="47.13655" lon="-1.72816">
        <ele>17.2</ele>
        <time>2020-05-23T09:54:50Z</time>
      </trkpt>
      <trkpt lat="47.13653" lon="-1.72833">
        <ele>16.72</ele>
        <time>2020-05-23T09:54:52Z</time>
      </trkpt>
      <trkpt lat="47.13651" lon="-1.72853">
        <ele>16.56</ele>
        <time>2020-05-23T09:54:54Z</time>
      </trkpt>
      <trkpt lat="47.13649" lon="-1.72871">
        <ele>15.33</ele>
        <time>2020-05-23T09:54:56Z</time>
      </trkpt>
      <trkpt lat="47.13646" lon="-1.72889">
        <ele>14.99</ele>
        <time>2020-05-23T09:54:58Z</time>
      </trkpt>
      <trkpt lat="47.13645" lon="-1.7291">
        <ele>15.12</ele>
        <time>2020-05-23T09:55:00Z</time>
      </trkpt>
      <trkpt lat="47.13643" lon="-1.7293">
        <ele>15.23</ele>
        <time>2020-05-23T09:55:02Z</time>
      </trkpt>
      <trkpt lat="47.13641" lon="-1.72952">
        <ele>15.21</ele>
        <time>2020-05-23T09:55:04Z</time>
      </trkpt>
      <trkpt lat="47.13639" lon="-1.72975">
        <ele>14.97</ele>
        <time>2020-05-23T09:55:06Z</time>
      </trkpt>
      <trkpt lat="47.13639" lon="-1.72996">
        <ele>14.14</ele>
        <time>2020-05-23T09:55:08Z</time>
      </trkpt>
      <trkpt lat="47.13637" lon="-1.7302">
        <ele>12.81</ele>
        <time>2020-05-23T09:55:10Z</time>
      </trkpt>
      <trkpt lat="47.13631" lon="-1.73038">
        <ele>11.75</ele>
        <time>2020-05-23T09:55:12Z</time>
      </trkpt>
      <trkpt lat="47.1362" lon="-1.73053">
        <ele>11.04</ele>
        <time>2020-05-23T09:55:14Z</time>
      </trkpt>
      <trkpt lat="47.13605" lon="-1.73065">
        <ele>10.62</ele>
        <time>2020-05-23T09:55:16Z</time>
      </trkpt>
      <trkpt lat="47.13593" lon="-1.73075">
        <ele>9.41</ele>
        <time>2020-05-23T09:55:18Z</time>
      </trkpt>
      <trkpt lat="47.13579" lon="-1.73085">
        <ele>8.2</ele>
        <time>2020-05-23T09:55:20Z</time>
      </trkpt>
      <trkpt lat="47.13566" lon="-1.73097">
        <ele>7.75</ele>
        <time>2020-05-23T09:55:22Z</time>
      </trkpt>
      <trkpt lat="47.13554" lon="-1.73109">
        <ele>7.25</ele>
        <time>2020-05-23T09:55:24Z</time>
      </trkpt>
      <trkpt lat="47.13542" lon="-1.73122">
        <ele>5.46</ele>
        <time>2020-05-23T09:55:26Z</time>
      </trkpt>
      <trkpt lat="47.13531" lon="-1.73133">
        <ele>4.24</ele>
        <time>2020-05-23T09:55:28Z</time>
      </trkpt>
      <trkpt lat="47.13519" lon="-1.73149">
        <ele>3.25</ele>
        <time>2020-05-23T09:55:30Z</time>
      </trkpt>
      <trkpt lat="47.13513" lon="-1.73167">
        <ele>2.92</ele>
        <time>2020-05-23T09:55:32Z</time>
      </trkpt>
      <trkpt lat="47.13509" lon="-1.73187">
        <ele>2.8</ele>
        <time>2020-05-23T09:55:34Z</time>
      </trkpt>
      <trkpt lat="47.13506" lon="-1.73208">
        <ele>2.71</ele>
        <time>2020-05-23T09:55:36Z</time>
      </trkpt>
      <trkpt lat="47.13505" lon="-1.73229">
        <ele>3.55</ele>
        <time>2020-05-23T09:55:38Z</time>
      </trkpt>
      <trkpt lat="47.13503" lon="-1.7325">
        <ele>3.53</ele>
        <time>2020-05-23T09:55:40Z</time>
      </trkpt>
      <trkpt lat="47.13501" lon="-1.73271">
        <ele>3.56</ele>
        <time>2020-05-23T09:55:42Z</time>
      </trkpt>
      <trkpt lat="47.13501" lon="-1.73294">
        <ele>4.25</ele>
        <time>2020-05-23T09:55:44Z</time>
      </trkpt>
      <trkpt lat="47.13504" lon="-1.73315">
        <ele>4.94</ele>
        <time>2020-05-23T09:55:46Z</time>
      </trkpt>
      <trkpt lat="47.13509" lon="-1.73334">
        <ele>6.02</ele>
        <time>2020-05-23T09:55:48Z</time>
      </trkpt>
      <trkpt lat="47.13514" lon="-1.73347">
        <ele>6.74</ele>
        <time>2020-05-23T09:55:50Z</time>
      </trkpt>
      <trkpt lat="47.13519" lon="-1.73363">
        <ele>7.07</ele>
        <time>2020-05-23T09:55:52Z</time>
      </trkpt>
      <trkpt lat="47.13523" lon="-1.73379">
        <ele>7.18</ele>
        <time>2020-05-23T09:55:54Z</time>
      </trkpt>
      <trkpt lat="47.13528" lon="-1.73394">
        <ele>7.38</ele>
        <time>2020-05-23T09:55:56Z</time>
      </trkpt>
      <trkpt lat="47.13532" lon="-1.7341">
        <ele>7.51</ele>
        <time>2020-05-23T09:55:58Z</time>
      </trkpt>
      <trkpt lat="47.13538" lon="-1.73428">
        <ele>9.09</ele>
        <time>2020-05-23T09:56:00Z</time>
      </trkpt>
      <trkpt lat="47.13543" lon="-1.73443">
        <ele>9.3</ele>
        <time>2020-05-23T09:56:02Z</time>
      </trkpt>
      <trkpt lat="47.13549" lon="-1.7346">
        <ele>8.41</ele>
        <time>2020-05-23T09:56:04Z</time>
      </trkpt>
      <trkpt lat="47.13556" lon="-1.73478">
        <ele>8.19</ele>
        <time>2020-05-23T09:56:06Z</time>
      </trkpt>
      <trkpt lat="47.13562" lon="-1.73495">
        <ele>8.48</ele>
        <time>2020-05-23T09:56:08Z</time>
      </trkpt>
      <trkpt lat="47.13568" lon="-1.73512">
        <ele>7.85</ele>
        <time>2020-05-23T09:56:10Z</time>
      </trkpt>
      <trkpt lat="47.13573" lon="-1.73529">
        <ele>7.74</ele>
        <time>2020-05-23T09:56:12Z</time>
      </trkpt>
      <trkpt lat="47.13578" lon="-1.73548">
        <ele>8.93</ele>
        <time>2020-05-23T09:56:14Z</time>
      </trkpt>
      <trkpt lat="47.13582" lon="-1.73566">
        <ele>10.33</ele>
        <time>2020-05-23T09:56:16Z</time>
      </trkpt>
      <trkpt lat="47.13588" lon="-1.73583">
        <ele>10.73</ele>
        <time>2020-05-23T09:56:18Z</time>
      </trkpt>
      <trkpt lat="47.13593" lon="-1.73598">
        <ele>9.66</ele>
        <time>2020-05-23T09:56:20Z</time>
      </trkpt>
      <trkpt lat="47.136" lon="-1.73616">
        <ele>8.56</ele>
        <time>2020-05-23T09:56:22Z</time>
      </trkpt>
      <trkpt lat="47.13606" lon="-1.73632">
        <ele>7.6</ele>
        <time>2020-05-23T09:56:24Z</time>
      </trkpt>
      <trkpt lat="47.13612" lon="-1.7365">
        <ele>7.21</ele>
        <time>2020-05-23T09:56:26Z</time>
      </trkpt>
      <trkpt lat="47.13618" lon="-1.73667">
        <ele>6.85</ele>
        <time>2020-05-23T09:56:28Z</time>
      </trkpt>
      <trkpt lat="47.13624" lon="-1.73684">
        <ele>6.93</ele>
        <time>2020-05-23T09:56:30Z</time>
      </trkpt>
      <trkpt lat="47.13628" lon="-1.737">
        <ele>7.07</ele>
        <time>2020-05-23T09:56:32Z</time>
      </trkpt>
      <trkpt lat="47.13633" lon="-1.73721">
        <ele>6.61</ele>
        <time>2020-05-23T09:56:34Z</time>
      </trkpt>
      <trkpt lat="47.13636" lon="-1.73738">
        <ele>6.63</ele>
        <time>2020-05-23T09:56:36Z</time>
      </trkpt>
      <trkpt lat="47.13639" lon="-1.73757">
        <ele>6.04</ele>
        <time>2020-05-23T09:56:38Z</time>
      </trkpt>
      <trkpt lat="47.13641" lon="-1.73778">
        <ele>5.4</ele>
        <time>2020-05-23T09:56:40Z</time>
      </trkpt>
      <trkpt lat="47.13642" lon="-1.73801">
        <ele>5.55</ele>
        <time>2020-05-23T09:56:42Z</time>
      </trkpt>
      <trkpt lat="47.13644" lon="-1.73825">
        <ele>5.09</ele>
        <time>2020-05-23T09:56:44Z</time>
      </trkpt>
      <trkpt lat="47.13645" lon="-1.73847">
        <ele>4.87</ele>
        <time>2020-05-23T09:56:46Z</time>
      </trkpt>
      <trkpt lat="47.13646" lon="-1.73868">
        <ele>4.89</ele>
        <time>2020-05-23T09:56:48Z</time>
      </trkpt>
      <trkpt lat="47.13647" lon="-1.73887">
        <ele>4.22</ele>
        <time>2020-05-23T09:56:50Z</time>
      </trkpt>
      <trkpt lat="47.13648" lon="-1.73907">
        <ele>3.6</ele>
        <time>2020-05-23T09:56:52Z</time>
      </trkpt>
      <trkpt lat="47.13649" lon="-1.73928">
        <ele>5.1</ele>
        <time>2020-05-23T09:56:55Z</time>
      </trkpt>
      <trkpt lat="47.1365" lon="-1.73943">
        <ele>5.27</ele>
        <time>2020-05-23T09:56:57Z</time>
      </trkpt>
      <trkpt lat="47.1365" lon="-1.73957">
        <ele>5.22</ele>
        <time>2020-05-23T09:56:59Z</time>
      </trkpt>
      <trkpt lat="47.1365" lon="-1.73973">
        <ele>5.75</ele>
        <time>2020-05-23T09:57:01Z</time>
      </trkpt>
      <trkpt lat="47.1365" lon="-1.73986">
        <ele>6.49</ele>
        <time>2020-05-23T09:57:03Z</time>
      </trkpt>
      <trkpt lat="47.13648" lon="-1.74001">
        <ele>7.94</ele>
        <time>2020-05-23T09:57:05Z</time>
      </trkpt>
      <trkpt lat="47.13646" lon="-1.74017">
        <ele>9.45</ele>
        <time>2020-05-23T09:57:07Z</time>
      </trkpt>
      <trkpt lat="47.13645" lon="-1.74032">
        <ele>10.19</ele>
        <time>2020-05-23T09:57:09Z</time>
      </trkpt>
      <trkpt lat="47.13643" lon="-1.74046">
        <ele>10.56</ele>
        <time>2020-05-23T09:57:11Z</time>
      </trkpt>
      <trkpt lat="47.1364" lon="-1.74066">
        <ele>12.97</ele>
        <time>2020-05-23T09:57:14Z</time>
      </trkpt>
      <trkpt lat="47.13639" lon="-1.74083">
        <ele>13.41</ele>
        <time>2020-05-23T09:57:16Z</time>
      </trkpt>
      <trkpt lat="47.13639" lon="-1.74099">
        <ele>13.58</ele>
        <time>2020-05-23T09:57:18Z</time>
      </trkpt>
      <trkpt lat="47.13639" lon="-1.74112">
        <ele>13.5</ele>
        <time>2020-05-23T09:57:20Z</time>
      </trkpt>
      <trkpt lat="47.1364" lon="-1.74128">
        <ele>13.4</ele>
        <time>2020-05-23T09:57:22Z</time>
      </trkpt>
      <trkpt lat="47.13641" lon="-1.74142">
        <ele>13.4</ele>
        <time>2020-05-23T09:57:24Z</time>
      </trkpt>
      <trkpt lat="47.13644" lon="-1.74156">
        <ele>13.37</ele>
        <time>2020-05-23T09:57:26Z</time>
      </trkpt>
      <trkpt lat="47.13648" lon="-1.74171">
        <ele>13.25</ele>
        <time>2020-05-23T09:57:28Z</time>
      </trkpt>
      <trkpt lat="47.13653" lon="-1.74186">
        <ele>12.74</ele>
        <time>2020-05-23T09:57:30Z</time>
      </trkpt>
      <trkpt lat="47.13656" lon="-1.742">
        <ele>12.51</ele>
        <time>2020-05-23T09:57:32Z</time>
      </trkpt>
      <trkpt lat="47.1366" lon="-1.74215">
        <ele>11.16</ele>
        <time>2020-05-23T09:57:34Z</time>
      </trkpt>
      <trkpt lat="47.13664" lon="-1.74229">
        <ele>10.68</ele>
        <time>2020-05-23T09:57:36Z</time>
      </trkpt>
      <trkpt lat="47.13668" lon="-1.74244">
        <ele>9.01</ele>
        <time>2020-05-23T09:57:38Z</time>
      </trkpt>
      <trkpt lat="47.13672" lon="-1.74258">
        <ele>8.84</ele>
        <time>2020-05-23T09:57:40Z</time>
      </trkpt>
      <trkpt lat="47.13676" lon="-1.74272">
        <ele>8.63</ele>
        <time>2020-05-23T09:57:42Z</time>
      </trkpt>
      <trkpt lat="47.13682" lon="-1.74288">
        <ele>10.37</ele>
        <time>2020-05-23T09:57:44Z</time>
      </trkpt>
      <trkpt lat="47.13688" lon="-1.74304">
        <ele>10.8</ele>
        <time>2020-05-23T09:57:46Z</time>
      </trkpt>
      <trkpt lat="47.13693" lon="-1.74321">
        <ele>9.66</ele>
        <time>2020-05-23T09:57:48Z</time>
      </trkpt>
      <trkpt lat="47.13696" lon="-1.74343">
        <ele>8.86</ele>
        <time>2020-05-23T09:57:50Z</time>
      </trkpt>
      <trkpt lat="47.13697" lon="-1.74364">
        <ele>8.47</ele>
        <time>2020-05-23T09:57:52Z</time>
      </trkpt>
      <trkpt lat="47.13698" lon="-1.74382">
        <ele>8.46</ele>
        <time>2020-05-23T09:57:54Z</time>
      </trkpt>
      <trkpt lat="47.13698" lon="-1.74407">
        <ele>7.74</ele>
        <time>2020-05-23T09:57:56Z</time>
      </trkpt>
      <trkpt lat="47.13698" lon="-1.74429">
        <ele>7.28</ele>
        <time>2020-05-23T09:57:58Z</time>
      </trkpt>
      <trkpt lat="47.13695" lon="-1.74453">
        <ele>6.78</ele>
        <time>2020-05-23T09:58:00Z</time>
      </trkpt>
      <trkpt lat="47.13685" lon="-1.74472">
        <ele>5.15</ele>
        <time>2020-05-23T09:58:02Z</time>
      </trkpt>
      <trkpt lat="47.13673" lon="-1.74487">
        <ele>4.57</ele>
        <time>2020-05-23T09:58:04Z</time>
      </trkpt>
      <trkpt lat="47.1366" lon="-1.74501">
        <ele>4.03</ele>
        <time>2020-05-23T09:58:06Z</time>
      </trkpt>
      <trkpt lat="47.13648" lon="-1.74512">
        <ele>3.03</ele>
        <time>2020-05-23T09:58:08Z</time>
      </trkpt>
      <trkpt lat="47.13637" lon="-1.74521">
        <ele>2.54</ele>
        <time>2020-05-23T09:58:10Z</time>
      </trkpt>
      <trkpt lat="47.13625" lon="-1.74532">
        <ele>1.81</ele>
        <time>2020-05-23T09:58:12Z</time>
      </trkpt>
      <trkpt lat="47.13614" lon="-1.74541">
        <ele>1.4</ele>
        <time>2020-05-23T09:58:14Z</time>
      </trkpt>
      <trkpt lat="47.13604" lon="-1.74551">
        <ele>0.85</ele>
        <time>2020-05-23T09:58:16Z</time>
      </trkpt>
      <trkpt lat="47.13592" lon="-1.74562">
        <ele>1.21</ele>
        <time>2020-05-23T09:58:18Z</time>
      </trkpt>
      <trkpt lat="47.13577" lon="-1.74575">
        <ele>1.46</ele>
        <time>2020-05-23T09:58:20Z</time>
      </trkpt>
      <trkpt lat="47.13562" lon="-1.74589">
        <ele>2.45</ele>
        <time>2020-05-23T09:58:22Z</time>
      </trkpt>
      <trkpt lat="47.13551" lon="-1.74601">
        <ele>2.76</ele>
        <time>2020-05-23T09:58:24Z</time>
      </trkpt>
      <trkpt lat="47.13539" lon="-1.74613">
        <ele>1.76</ele>
        <time>2020-05-23T09:58:26Z</time>
      </trkpt>
      <trkpt lat="47.13531" lon="-1.74623">
        <ele>1.35</ele>
        <time>2020-05-23T09:58:28Z</time>
      </trkpt>
      <trkpt lat="47.1352" lon="-1.74633">
        <ele>0.27</ele>
        <time>2020-05-23T09:58:30Z</time>
      </trkpt>
      <trkpt lat="47.13508" lon="-1.74645">
        <ele>-0.37</ele>
        <time>2020-05-23T09:58:32Z</time>
      </trkpt>
      <trkpt lat="47.13499" lon="-1.74654">
        <ele>-0.86</ele>
        <time>2020-05-23T09:58:34Z</time>
      </trkpt>
      <trkpt lat="47.13493" lon="-1.74667">
        <ele>-0.41</ele>
        <time>2020-05-23T09:58:36Z</time>
      </trkpt>
      <trkpt lat="47.13487" lon="-1.7468">
        <ele>0.27</ele>
        <time>2020-05-23T09:58:38Z</time>
      </trkpt>
      <trkpt lat="47.13483" lon="-1.74694">
        <ele>0.84</ele>
        <time>2020-05-23T09:58:40Z</time>
      </trkpt>
      <trkpt lat="47.13478" lon="-1.74713">
        <ele>2.42</ele>
        <time>2020-05-23T09:58:43Z</time>
      </trkpt>
      <trkpt lat="47.13472" lon="-1.74724">
        <ele>3.75</ele>
        <time>2020-05-23T09:58:45Z</time>
      </trkpt>
      <trkpt lat="47.13464" lon="-1.74735">
        <ele>4.14</ele>
        <time>2020-05-23T09:58:47Z</time>
      </trkpt>
      <trkpt lat="47.13453" lon="-1.74748">
        <ele>3.41</ele>
        <time>2020-05-23T09:58:50Z</time>
      </trkpt>
      <trkpt lat="47.13445" lon="-1.74754">
        <ele>3.35</ele>
        <time>2020-05-23T09:58:52Z</time>
      </trkpt>
      <trkpt lat="47.13436" lon="-1.7476">
        <ele>4.42</ele>
        <time>2020-05-23T09:58:54Z</time>
      </trkpt>
      <trkpt lat="47.13426" lon="-1.74767">
        <ele>5.18</ele>
        <time>2020-05-23T09:58:55Z</time>
      </trkpt>
      <trkpt lat="47.13417" lon="-1.74774">
        <ele>5.87</ele>
        <time>2020-05-23T09:58:57Z</time>
      </trkpt>
      <trkpt lat="47.13407" lon="-1.74783">
        <ele>6.72</ele>
        <time>2020-05-23T09:58:59Z</time>
      </trkpt>
      <trkpt lat="47.13398" lon="-1.74794">
        <ele>7.06</ele>
        <time>2020-05-23T09:59:01Z</time>
      </trkpt>
      <trkpt lat="47.1339" lon="-1.74802">
        <ele>7.16</ele>
        <time>2020-05-23T09:59:03Z</time>
      </trkpt>
      <trkpt lat="47.13381" lon="-1.74813">
        <ele>7.59</ele>
        <time>2020-05-23T09:59:05Z</time>
      </trkpt>
      <trkpt lat="47.13375" lon="-1.74827">
        <ele>8.75</ele>
        <time>2020-05-23T09:59:07Z</time>
      </trkpt>
      <trkpt lat="47.13372" lon="-1.74841">
        <ele>9.32</ele>
        <time>2020-05-23T09:59:09Z</time>
      </trkpt>
      <trkpt lat="47.1337" lon="-1.74857">
        <ele>9.6</ele>
        <time>2020-05-23T09:59:11Z</time>
      </trkpt>
      <trkpt lat="47.13366" lon="-1.74872">
        <ele>9.36</ele>
        <time>2020-05-23T09:59:13Z</time>
      </trkpt>
      <trkpt lat="47.13363" lon="-1.74886">
        <ele>9.58</ele>
        <time>2020-05-23T09:59:15Z</time>
      </trkpt>
      <trkpt lat="47.13359" lon="-1.74899">
        <ele>9.34</ele>
        <time>2020-05-23T09:59:17Z</time>
      </trkpt>
      <trkpt lat="47.13354" lon="-1.74914">
        <ele>8.94</ele>
        <time>2020-05-23T09:59:19Z</time>
      </trkpt>
      <trkpt lat="47.1335" lon="-1.74927">
        <ele>9.37</ele>
        <time>2020-05-23T09:59:21Z</time>
      </trkpt>
      <trkpt lat="47.13346" lon="-1.74939">
        <ele>9.56</ele>
        <time>2020-05-23T09:59:23Z</time>
      </trkpt>
      <trkpt lat="47.1334" lon="-1.74953">
        <ele>10.41</ele>
        <time>2020-05-23T09:59:25Z</time>
      </trkpt>
      <trkpt lat="47.13335" lon="-1.74965">
        <ele>10.07</ele>
        <time>2020-05-23T09:59:27Z</time>
      </trkpt>
      <trkpt lat="47.13329" lon="-1.7498">
        <ele>10.01</ele>
        <time>2020-05-23T09:59:30Z</time>
      </trkpt>
      <trkpt lat="47.13322" lon="-1.74992">
        <ele>10.56</ele>
        <time>2020-05-23T09:59:32Z</time>
      </trkpt>
      <trkpt lat="47.13311" lon="-1.75003">
        <ele>10.72</ele>
        <time>2020-05-23T09:59:35Z</time>
      </trkpt>
      <trkpt lat="47.13303" lon="-1.7501">
        <ele>10.48</ele>
        <time>2020-05-23T09:59:37Z</time>
      </trkpt>
      <trkpt lat="47.13294" lon="-1.75018">
        <ele>9.41</ele>
        <time>2020-05-23T09:59:39Z</time>
      </trkpt>
      <trkpt lat="47.13286" lon="-1.75024">
        <ele>9.33</ele>
        <time>2020-05-23T09:59:41Z</time>
      </trkpt>
      <trkpt lat="47.13276" lon="-1.75032">
        <ele>10</ele>
        <time>2020-05-23T09:59:43Z</time>
      </trkpt>
      <trkpt lat="47.13266" lon="-1.7504">
        <ele>9.94</ele>
        <time>2020-05-23T09:59:45Z</time>
      </trkpt>
      <trkpt lat="47.13255" lon="-1.75048">
        <ele>11.15</ele>
        <time>2020-05-23T09:59:48Z</time>
      </trkpt>
      <trkpt lat="47.13244" lon="-1.75058">
        <ele>11.25</ele>
        <time>2020-05-23T09:59:50Z</time>
      </trkpt>
      <trkpt lat="47.13233" lon="-1.75067">
        <ele>11.18</ele>
        <time>2020-05-23T09:59:53Z</time>
      </trkpt>
      <trkpt lat="47.13225" lon="-1.75074">
        <ele>12.28</ele>
        <time>2020-05-23T09:59:55Z</time>
      </trkpt>
      <trkpt lat="47.13218" lon="-1.75082">
        <ele>12.36</ele>
        <time>2020-05-23T09:59:57Z</time>
      </trkpt>
      <trkpt lat="47.1321" lon="-1.75094">
        <ele>12.55</ele>
        <time>2020-05-23T09:59:59Z</time>
      </trkpt>
      <trkpt lat="47.13203" lon="-1.75106">
        <ele>13.05</ele>
        <time>2020-05-23T10:00:01Z</time>
      </trkpt>
      <trkpt lat="47.13196" lon="-1.75116">
        <ele>13.82</ele>
        <time>2020-05-23T10:00:03Z</time>
      </trkpt>
      <trkpt lat="47.13189" lon="-1.75127">
        <ele>14.34</ele>
        <time>2020-05-23T10:00:05Z</time>
      </trkpt>
      <trkpt lat="47.13183" lon="-1.7514">
        <ele>14.31</ele>
        <time>2020-05-23T10:00:07Z</time>
      </trkpt>
      <trkpt lat="47.13178" lon="-1.75153">
        <ele>14.29</ele>
        <time>2020-05-23T10:00:09Z</time>
      </trkpt>
      <trkpt lat="47.13172" lon="-1.75166">
        <ele>14.5</ele>
        <time>2020-05-23T10:00:11Z</time>
      </trkpt>
      <trkpt lat="47.13168" lon="-1.7518">
        <ele>14.9</ele>
        <time>2020-05-23T10:00:13Z</time>
      </trkpt>
      <trkpt lat="47.13162" lon="-1.75196">
        <ele>15</ele>
        <time>2020-05-23T10:00:15Z</time>
      </trkpt>
      <trkpt lat="47.13158" lon="-1.75211">
        <ele>15.74</ele>
        <time>2020-05-23T10:00:17Z</time>
      </trkpt>
      <trkpt lat="47.13155" lon="-1.75225">
        <ele>16.83</ele>
        <time>2020-05-23T10:00:19Z</time>
      </trkpt>
      <trkpt lat="47.13152" lon="-1.75238">
        <ele>17.23</ele>
        <time>2020-05-23T10:00:21Z</time>
      </trkpt>
      <trkpt lat="47.13149" lon="-1.75252">
        <ele>16.66</ele>
        <time>2020-05-23T10:00:23Z</time>
      </trkpt>
      <trkpt lat="47.13146" lon="-1.75271">
        <ele>16.24</ele>
        <time>2020-05-23T10:00:26Z</time>
      </trkpt>
      <trkpt lat="47.13145" lon="-1.75288">
        <ele>15.13</ele>
        <time>2020-05-23T10:00:29Z</time>
      </trkpt>
      <trkpt lat="47.13143" lon="-1.75303">
        <ele>14.92</ele>
        <time>2020-05-23T10:00:31Z</time>
      </trkpt>
      <trkpt lat="47.1314" lon="-1.75319">
        <ele>15.57</ele>
        <time>2020-05-23T10:00:33Z</time>
      </trkpt>
      <trkpt lat="47.13135" lon="-1.75332">
        <ele>16.68</ele>
        <time>2020-05-23T10:00:35Z</time>
      </trkpt>
      <trkpt lat="47.13132" lon="-1.75345">
        <ele>18.52</ele>
        <time>2020-05-23T10:00:37Z</time>
      </trkpt>
      <trkpt lat="47.13129" lon="-1.75359">
        <ele>19.01</ele>
        <time>2020-05-23T10:00:39Z</time>
      </trkpt>
      <trkpt lat="47.13126" lon="-1.75372">
        <ele>19.22</ele>
        <time>2020-05-23T10:00:41Z</time>
      </trkpt>
      <trkpt lat="47.13124" lon="-1.75387">
        <ele>19.56</ele>
        <time>2020-05-23T10:00:43Z</time>
      </trkpt>
      <trkpt lat="47.13121" lon="-1.754">
        <ele>20.62</ele>
        <time>2020-05-23T10:00:45Z</time>
      </trkpt>
      <trkpt lat="47.13117" lon="-1.75412">
        <ele>21</ele>
        <time>2020-05-23T10:00:47Z</time>
      </trkpt>
      <trkpt lat="47.13113" lon="-1.75427">
        <ele>20.82</ele>
        <time>2020-05-23T10:00:50Z</time>
      </trkpt>
      <trkpt lat="47.13113" lon="-1.75443">
        <ele>20.42</ele>
        <time>2020-05-23T10:00:52Z</time>
      </trkpt>
      <trkpt lat="47.13109" lon="-1.75458">
        <ele>20.95</ele>
        <time>2020-05-23T10:00:54Z</time>
      </trkpt>
      <trkpt lat="47.13108" lon="-1.75473">
        <ele>21.86</ele>
        <time>2020-05-23T10:00:56Z</time>
      </trkpt>
      <trkpt lat="47.13106" lon="-1.75488">
        <ele>22.85</ele>
        <time>2020-05-23T10:00:58Z</time>
      </trkpt>
      <trkpt lat="47.13106" lon="-1.75501">
        <ele>24.18</ele>
        <time>2020-05-23T10:01:00Z</time>
      </trkpt>
      <trkpt lat="47.13103" lon="-1.75523">
        <ele>24.52</ele>
        <time>2020-05-23T10:01:03Z</time>
      </trkpt>
      <trkpt lat="47.131" lon="-1.75537">
        <ele>24.91</ele>
        <time>2020-05-23T10:01:05Z</time>
      </trkpt>
      <trkpt lat="47.13098" lon="-1.75555">
        <ele>26.36</ele>
        <time>2020-05-23T10:01:08Z</time>
      </trkpt>
      <trkpt lat="47.13095" lon="-1.75568">
        <ele>26.43</ele>
        <time>2020-05-23T10:01:10Z</time>
      </trkpt>
      <trkpt lat="47.13092" lon="-1.75587">
        <ele>27.15</ele>
        <time>2020-05-23T10:01:13Z</time>
      </trkpt>
      <trkpt lat="47.13089" lon="-1.75603">
        <ele>26.28</ele>
        <time>2020-05-23T10:01:15Z</time>
      </trkpt>
      <trkpt lat="47.13086" lon="-1.75619">
        <ele>26.29</ele>
        <time>2020-05-23T10:01:17Z</time>
      </trkpt>
      <trkpt lat="47.13082" lon="-1.75636">
        <ele>26.02</ele>
        <time>2020-05-23T10:01:19Z</time>
      </trkpt>
      <trkpt lat="47.1308" lon="-1.75652">
        <ele>25.88</ele>
        <time>2020-05-23T10:01:21Z</time>
      </trkpt>
      <trkpt lat="47.13077" lon="-1.75667">
        <ele>26.21</ele>
        <time>2020-05-23T10:01:23Z</time>
      </trkpt>
      <trkpt lat="47.13074" lon="-1.75684">
        <ele>26.36</ele>
        <time>2020-05-23T10:01:25Z</time>
      </trkpt>
      <trkpt lat="47.13072" lon="-1.75697">
        <ele>26.2</ele>
        <time>2020-05-23T10:01:27Z</time>
      </trkpt>
      <trkpt lat="47.13068" lon="-1.75712">
        <ele>25.7</ele>
        <time>2020-05-23T10:01:29Z</time>
      </trkpt>
      <trkpt lat="47.13063" lon="-1.75726">
        <ele>25.75</ele>
        <time>2020-05-23T10:01:31Z</time>
      </trkpt>
      <trkpt lat="47.13056" lon="-1.75742">
        <ele>25.6</ele>
        <time>2020-05-23T10:01:33Z</time>
      </trkpt>
      <trkpt lat="47.1305" lon="-1.75754">
        <ele>25.19</ele>
        <time>2020-05-23T10:01:35Z</time>
      </trkpt>
      <trkpt lat="47.13044" lon="-1.75765">
        <ele>25.37</ele>
        <time>2020-05-23T10:01:37Z</time>
      </trkpt>
      <trkpt lat="47.13035" lon="-1.75779">
        <ele>25.27</ele>
        <time>2020-05-23T10:01:39Z</time>
      </trkpt>
      <trkpt lat="47.13027" lon="-1.75789">
        <ele>25.9</ele>
        <time>2020-05-23T10:01:41Z</time>
      </trkpt>
      <trkpt lat="47.13017" lon="-1.75804">
        <ele>26.09</ele>
        <time>2020-05-23T10:01:43Z</time>
      </trkpt>
      <trkpt lat="47.13011" lon="-1.75816">
        <ele>25.43</ele>
        <time>2020-05-23T10:01:45Z</time>
      </trkpt>
      <trkpt lat="47.13006" lon="-1.75829">
        <ele>25.64</ele>
        <time>2020-05-23T10:01:47Z</time>
      </trkpt>
      <trkpt lat="47.13006" lon="-1.75845">
        <ele>25.24</ele>
        <time>2020-05-23T10:01:49Z</time>
      </trkpt>
      <trkpt lat="47.13008" lon="-1.75862">
        <ele>24.93</ele>
        <time>2020-05-23T10:01:51Z</time>
      </trkpt>
      <trkpt lat="47.13009" lon="-1.75878">
        <ele>25.26</ele>
        <time>2020-05-23T10:01:53Z</time>
      </trkpt>
      <trkpt lat="47.13006" lon="-1.75896">
        <ele>26.1</ele>
        <time>2020-05-23T10:01:55Z</time>
      </trkpt>
      <trkpt lat="47.13003" lon="-1.75911">
        <ele>27.29</ele>
        <time>2020-05-23T10:01:57Z</time>
      </trkpt>
      <trkpt lat="47.12999" lon="-1.75928">
        <ele>27.9</ele>
        <time>2020-05-23T10:01:59Z</time>
      </trkpt>
      <trkpt lat="47.12995" lon="-1.75945">
        <ele>28.13</ele>
        <time>2020-05-23T10:02:01Z</time>
      </trkpt>
      <trkpt lat="47.12993" lon="-1.75961">
        <ele>28.58</ele>
        <time>2020-05-23T10:02:03Z</time>
      </trkpt>
      <trkpt lat="47.1299" lon="-1.75975">
        <ele>27.81</ele>
        <time>2020-05-23T10:02:05Z</time>
      </trkpt>
      <trkpt lat="47.12988" lon="-1.75991">
        <ele>27.85</ele>
        <time>2020-05-23T10:02:07Z</time>
      </trkpt>
      <trkpt lat="47.12986" lon="-1.76007">
        <ele>28.45</ele>
        <time>2020-05-23T10:02:09Z</time>
      </trkpt>
      <trkpt lat="47.12985" lon="-1.76022">
        <ele>28.72</ele>
        <time>2020-05-23T10:02:11Z</time>
      </trkpt>
      <trkpt lat="47.12983" lon="-1.76039">
        <ele>28.1</ele>
        <time>2020-05-23T10:02:13Z</time>
      </trkpt>
      <trkpt lat="47.12982" lon="-1.7606">
        <ele>26.41</ele>
        <time>2020-05-23T10:02:16Z</time>
      </trkpt>
      <trkpt lat="47.12983" lon="-1.76073">
        <ele>26.18</ele>
        <time>2020-05-23T10:02:18Z</time>
      </trkpt>
      <trkpt lat="47.12984" lon="-1.76088">
        <ele>26.27</ele>
        <time>2020-05-23T10:02:20Z</time>
      </trkpt>
      <trkpt lat="47.12986" lon="-1.76106">
        <ele>26.7</ele>
        <time>2020-05-23T10:02:22Z</time>
      </trkpt>
      <trkpt lat="47.12988" lon="-1.7612">
        <ele>27.81</ele>
        <time>2020-05-23T10:02:24Z</time>
      </trkpt>
      <trkpt lat="47.12991" lon="-1.76132">
        <ele>27.72</ele>
        <time>2020-05-23T10:02:26Z</time>
      </trkpt>
      <trkpt lat="47.12995" lon="-1.76148">
        <ele>27.72</ele>
        <time>2020-05-23T10:02:28Z</time>
      </trkpt>
      <trkpt lat="47.13001" lon="-1.76168">
        <ele>28.44</ele>
        <time>2020-05-23T10:02:31Z</time>
      </trkpt>
      <trkpt lat="47.13005" lon="-1.76183">
        <ele>28.39</ele>
        <time>2020-05-23T10:02:33Z</time>
      </trkpt>
      <trkpt lat="47.13009" lon="-1.76196">
        <ele>27.87</ele>
        <time>2020-05-23T10:02:35Z</time>
      </trkpt>
      <trkpt lat="47.13012" lon="-1.76209">
        <ele>28.36</ele>
        <time>2020-05-23T10:02:37Z</time>
      </trkpt>
      <trkpt lat="47.13016" lon="-1.76225">
        <ele>27.92</ele>
        <time>2020-05-23T10:02:39Z</time>
      </trkpt>
      <trkpt lat="47.13019" lon="-1.76239">
        <ele>27.14</ele>
        <time>2020-05-23T10:02:41Z</time>
      </trkpt>
      <trkpt lat="47.13022" lon="-1.76254">
        <ele>27.03</ele>
        <time>2020-05-23T10:02:43Z</time>
      </trkpt>
      <trkpt lat="47.13025" lon="-1.76268">
        <ele>27.44</ele>
        <time>2020-05-23T10:02:45Z</time>
      </trkpt>
      <trkpt lat="47.13028" lon="-1.76282">
        <ele>28.02</ele>
        <time>2020-05-23T10:02:47Z</time>
      </trkpt>
      <trkpt lat="47.1303" lon="-1.76297">
        <ele>28.4</ele>
        <time>2020-05-23T10:02:49Z</time>
      </trkpt>
      <trkpt lat="47.13032" lon="-1.76311">
        <ele>29.28</ele>
        <time>2020-05-23T10:02:51Z</time>
      </trkpt>
      <trkpt lat="47.13036" lon="-1.76327">
        <ele>29.27</ele>
        <time>2020-05-23T10:02:53Z</time>
      </trkpt>
      <trkpt lat="47.13039" lon="-1.76343">
        <ele>28.9</ele>
        <time>2020-05-23T10:02:55Z</time>
      </trkpt>
      <trkpt lat="47.13042" lon="-1.76358">
        <ele>29.42</ele>
        <time>2020-05-23T10:02:57Z</time>
      </trkpt>
      <trkpt lat="47.13046" lon="-1.76376">
        <ele>29.87</ele>
        <time>2020-05-23T10:03:00Z</time>
      </trkpt>
      <trkpt lat="47.13049" lon="-1.76394">
        <ele>29.38</ele>
        <time>2020-05-23T10:03:02Z</time>
      </trkpt>
      <trkpt lat="47.13051" lon="-1.76409">
        <ele>28.93</ele>
        <time>2020-05-23T10:03:04Z</time>
      </trkpt>
      <trkpt lat="47.13052" lon="-1.76425">
        <ele>28.22</ele>
        <time>2020-05-23T10:03:06Z</time>
      </trkpt>
      <trkpt lat="47.13054" lon="-1.76446">
        <ele>29</ele>
        <time>2020-05-23T10:03:09Z</time>
      </trkpt>
      <trkpt lat="47.13054" lon="-1.76461">
        <ele>29.46</ele>
        <time>2020-05-23T10:03:11Z</time>
      </trkpt>
      <trkpt lat="47.13055" lon="-1.76479">
        <ele>28.21</ele>
        <time>2020-05-23T10:03:13Z</time>
      </trkpt>
      <trkpt lat="47.13056" lon="-1.76495">
        <ele>26.53</ele>
        <time>2020-05-23T10:03:15Z</time>
      </trkpt>
      <trkpt lat="47.13057" lon="-1.76511">
        <ele>26.37</ele>
        <time>2020-05-23T10:03:17Z</time>
      </trkpt>
      <trkpt lat="47.13057" lon="-1.76527">
        <ele>26.04</ele>
        <time>2020-05-23T10:03:19Z</time>
      </trkpt>
      <trkpt lat="47.13058" lon="-1.76542">
        <ele>27.49</ele>
        <time>2020-05-23T10:03:21Z</time>
      </trkpt>
      <trkpt lat="47.13059" lon="-1.76559">
        <ele>28.33</ele>
        <time>2020-05-23T10:03:23Z</time>
      </trkpt>
      <trkpt lat="47.1306" lon="-1.76572">
        <ele>29.04</ele>
        <time>2020-05-23T10:03:25Z</time>
      </trkpt>
      <trkpt lat="47.13061" lon="-1.76587">
        <ele>28.86</ele>
        <time>2020-05-23T10:03:27Z</time>
      </trkpt>
      <trkpt lat="47.13062" lon="-1.76603">
        <ele>28.9</ele>
        <time>2020-05-23T10:03:29Z</time>
      </trkpt>
      <trkpt lat="47.13065" lon="-1.76624">
        <ele>29.68</ele>
        <time>2020-05-23T10:03:32Z</time>
      </trkpt>
      <trkpt lat="47.13066" lon="-1.76637">
        <ele>28.38</ele>
        <time>2020-05-23T10:03:34Z</time>
      </trkpt>
      <trkpt lat="47.13068" lon="-1.76652">
        <ele>28</ele>
        <time>2020-05-23T10:03:36Z</time>
      </trkpt>
      <trkpt lat="47.1307" lon="-1.76666">
        <ele>28.24</ele>
        <time>2020-05-23T10:03:38Z</time>
      </trkpt>
      <trkpt lat="47.1307" lon="-1.76682">
        <ele>28.34</ele>
        <time>2020-05-23T10:03:40Z</time>
      </trkpt>
      <trkpt lat="47.13068" lon="-1.76698">
        <ele>27.93</ele>
        <time>2020-05-23T10:03:42Z</time>
      </trkpt>
      <trkpt lat="47.13066" lon="-1.76716">
        <ele>27.41</ele>
        <time>2020-05-23T10:03:44Z</time>
      </trkpt>
      <trkpt lat="47.13064" lon="-1.76731">
        <ele>27.07</ele>
        <time>2020-05-23T10:03:46Z</time>
      </trkpt>
      <trkpt lat="47.13062" lon="-1.76749">
        <ele>25.37</ele>
        <time>2020-05-23T10:03:48Z</time>
      </trkpt>
      <trkpt lat="47.13059" lon="-1.76764">
        <ele>25.09</ele>
        <time>2020-05-23T10:03:50Z</time>
      </trkpt>
      <trkpt lat="47.13057" lon="-1.76782">
        <ele>24.65</ele>
        <time>2020-05-23T10:03:52Z</time>
      </trkpt>
      <trkpt lat="47.13055" lon="-1.76799">
        <ele>25.7</ele>
        <time>2020-05-23T10:03:54Z</time>
      </trkpt>
      <trkpt lat="47.13054" lon="-1.76816">
        <ele>27.47</ele>
        <time>2020-05-23T10:03:56Z</time>
      </trkpt>
      <trkpt lat="47.13053" lon="-1.76833">
        <ele>26.92</ele>
        <time>2020-05-23T10:03:58Z</time>
      </trkpt>
      <trkpt lat="47.1305" lon="-1.76851">
        <ele>25.79</ele>
        <time>2020-05-23T10:04:00Z</time>
      </trkpt>
      <trkpt lat="47.13049" lon="-1.7687">
        <ele>24.99</ele>
        <time>2020-05-23T10:04:02Z</time>
      </trkpt>
      <trkpt lat="47.13047" lon="-1.76884">
        <ele>24.38</ele>
        <time>2020-05-23T10:04:04Z</time>
      </trkpt>
      <trkpt lat="47.13046" lon="-1.76901">
        <ele>23.87</ele>
        <time>2020-05-23T10:04:06Z</time>
      </trkpt>
      <trkpt lat="47.13044" lon="-1.76921">
        <ele>24.53</ele>
        <time>2020-05-23T10:04:08Z</time>
      </trkpt>
      <trkpt lat="47.13042" lon="-1.7694">
        <ele>25.33</ele>
        <time>2020-05-23T10:04:10Z</time>
      </trkpt>
      <trkpt lat="47.13041" lon="-1.76955">
        <ele>27.04</ele>
        <time>2020-05-23T10:04:12Z</time>
      </trkpt>
      <trkpt lat="47.1304" lon="-1.76971">
        <ele>28.63</ele>
        <time>2020-05-23T10:04:14Z</time>
      </trkpt>
      <trkpt lat="47.13039" lon="-1.76985">
        <ele>29.16</ele>
        <time>2020-05-23T10:04:16Z</time>
      </trkpt>
      <trkpt lat="47.13038" lon="-1.77006">
        <ele>28.72</ele>
        <time>2020-05-23T10:04:19Z</time>
      </trkpt>
      <trkpt lat="47.13037" lon="-1.77022">
        <ele>28.1</ele>
        <time>2020-05-23T10:04:21Z</time>
      </trkpt>
      <trkpt lat="47.13035" lon="-1.77037">
        <ele>26.98</ele>
        <time>2020-05-23T10:04:23Z</time>
      </trkpt>
      <trkpt lat="47.13033" lon="-1.77052">
        <ele>27.32</ele>
        <time>2020-05-23T10:04:25Z</time>
      </trkpt>
      <trkpt lat="47.13032" lon="-1.77069">
        <ele>28.92</ele>
        <time>2020-05-23T10:04:27Z</time>
      </trkpt>
      <trkpt lat="47.13031" lon="-1.77089">
        <ele>29.02</ele>
        <time>2020-05-23T10:04:30Z</time>
      </trkpt>
      <trkpt lat="47.13028" lon="-1.77108">
        <ele>29.15</ele>
        <time>2020-05-23T10:04:32Z</time>
      </trkpt>
      <trkpt lat="47.13027" lon="-1.77123">
        <ele>29.26</ele>
        <time>2020-05-23T10:04:34Z</time>
      </trkpt>
      <trkpt lat="47.13025" lon="-1.7714">
        <ele>28.78</ele>
        <time>2020-05-23T10:04:36Z</time>
      </trkpt>
      <trkpt lat="47.13022" lon="-1.77155">
        <ele>28.67</ele>
        <time>2020-05-23T10:04:38Z</time>
      </trkpt>
      <trkpt lat="47.13018" lon="-1.77175">
        <ele>28.14</ele>
        <time>2020-05-23T10:04:41Z</time>
      </trkpt>
      <trkpt lat="47.13015" lon="-1.77188">
        <ele>27.76</ele>
        <time>2020-05-23T10:04:43Z</time>
      </trkpt>
      <trkpt lat="47.1301" lon="-1.77205">
        <ele>27.91</ele>
        <time>2020-05-23T10:04:45Z</time>
      </trkpt>
      <trkpt lat="47.13007" lon="-1.77222">
        <ele>28.36</ele>
        <time>2020-05-23T10:04:47Z</time>
      </trkpt>
      <trkpt lat="47.13003" lon="-1.77239">
        <ele>28.5</ele>
        <time>2020-05-23T10:04:49Z</time>
      </trkpt>
      <trkpt lat="47.12998" lon="-1.77254">
        <ele>29.78</ele>
        <time>2020-05-23T10:04:51Z</time>
      </trkpt>
      <trkpt lat="47.12993" lon="-1.7727">
        <ele>31.47</ele>
        <time>2020-05-23T10:04:53Z</time>
      </trkpt>
      <trkpt lat="47.12988" lon="-1.77284">
        <ele>31.94</ele>
        <time>2020-05-23T10:04:55Z</time>
      </trkpt>
      <trkpt lat="47.12984" lon="-1.77301">
        <ele>31.25</ele>
        <time>2020-05-23T10:04:57Z</time>
      </trkpt>
      <trkpt lat="47.12979" lon="-1.77314">
        <ele>30.59</ele>
        <time>2020-05-23T10:04:59Z</time>
      </trkpt>
      <trkpt lat="47.12974" lon="-1.77329">
        <ele>30.78</ele>
        <time>2020-05-23T10:05:01Z</time>
      </trkpt>
      <trkpt lat="47.12967" lon="-1.77344">
        <ele>30.67</ele>
        <time>2020-05-23T10:05:03Z</time>
      </trkpt>
      <trkpt lat="47.12958" lon="-1.77363">
        <ele>30.05</ele>
        <time>2020-05-23T10:05:05Z</time>
      </trkpt>
      <trkpt lat="47.12952" lon="-1.77378">
        <ele>30.97</ele>
        <time>2020-05-23T10:05:07Z</time>
      </trkpt>
      <trkpt lat="47.12947" lon="-1.77392">
        <ele>30.86</ele>
        <time>2020-05-23T10:05:09Z</time>
      </trkpt>
      <trkpt lat="47.12941" lon="-1.77406">
        <ele>30.46</ele>
        <time>2020-05-23T10:05:11Z</time>
      </trkpt>
      <trkpt lat="47.12935" lon="-1.77421">
        <ele>30.51</ele>
        <time>2020-05-23T10:05:13Z</time>
      </trkpt>
      <trkpt lat="47.1293" lon="-1.77437">
        <ele>30.51</ele>
        <time>2020-05-23T10:05:15Z</time>
      </trkpt>
      <trkpt lat="47.12925" lon="-1.77453">
        <ele>30.8</ele>
        <time>2020-05-23T10:05:17Z</time>
      </trkpt>
      <trkpt lat="47.1292" lon="-1.77467">
        <ele>30.71</ele>
        <time>2020-05-23T10:05:19Z</time>
      </trkpt>
      <trkpt lat="47.12916" lon="-1.7748">
        <ele>30.23</ele>
        <time>2020-05-23T10:05:21Z</time>
      </trkpt>
      <trkpt lat="47.12912" lon="-1.77496">
        <ele>30.91</ele>
        <time>2020-05-23T10:05:23Z</time>
      </trkpt>
      <trkpt lat="47.12907" lon="-1.77514">
        <ele>32.13</ele>
        <time>2020-05-23T10:05:25Z</time>
      </trkpt>
      <trkpt lat="47.12903" lon="-1.77533">
        <ele>31.77</ele>
        <time>2020-05-23T10:05:28Z</time>
      </trkpt>
      <trkpt lat="47.12899" lon="-1.77549">
        <ele>31.92</ele>
        <time>2020-05-23T10:05:30Z</time>
      </trkpt>
      <trkpt lat="47.12895" lon="-1.77564">
        <ele>32.71</ele>
        <time>2020-05-23T10:05:32Z</time>
      </trkpt>
      <trkpt lat="47.1289" lon="-1.7758">
        <ele>33.49</ele>
        <time>2020-05-23T10:05:34Z</time>
      </trkpt>
      <trkpt lat="47.12886" lon="-1.77595">
        <ele>34.21</ele>
        <time>2020-05-23T10:05:36Z</time>
      </trkpt>
      <trkpt lat="47.12882" lon="-1.77609">
        <ele>34.15</ele>
        <time>2020-05-23T10:05:38Z</time>
      </trkpt>
      <trkpt lat="47.1288" lon="-1.77624">
        <ele>34.37</ele>
        <time>2020-05-23T10:05:40Z</time>
      </trkpt>
      <trkpt lat="47.12878" lon="-1.77641">
        <ele>34.13</ele>
        <time>2020-05-23T10:05:42Z</time>
      </trkpt>
      <trkpt lat="47.12873" lon="-1.77658">
        <ele>34.45</ele>
        <time>2020-05-23T10:05:44Z</time>
      </trkpt>
      <trkpt lat="47.12869" lon="-1.77675">
        <ele>34.57</ele>
        <time>2020-05-23T10:05:46Z</time>
      </trkpt>
      <trkpt lat="47.12864" lon="-1.77693">
        <ele>33.86</ele>
        <time>2020-05-23T10:05:48Z</time>
      </trkpt>
      <trkpt lat="47.12859" lon="-1.77709">
        <ele>33.52</ele>
        <time>2020-05-23T10:05:50Z</time>
      </trkpt>
      <trkpt lat="47.12854" lon="-1.77724">
        <ele>32.65</ele>
        <time>2020-05-23T10:05:52Z</time>
      </trkpt>
      <trkpt lat="47.12849" lon="-1.77739">
        <ele>32.79</ele>
        <time>2020-05-23T10:05:54Z</time>
      </trkpt>
      <trkpt lat="47.12844" lon="-1.77757">
        <ele>32.82</ele>
        <time>2020-05-23T10:05:56Z</time>
      </trkpt>
      <trkpt lat="47.12839" lon="-1.77773">
        <ele>32.66</ele>
        <time>2020-05-23T10:05:58Z</time>
      </trkpt>
      <trkpt lat="47.12834" lon="-1.77787">
        <ele>32.14</ele>
        <time>2020-05-23T10:06:00Z</time>
      </trkpt>
      <trkpt lat="47.1283" lon="-1.77802">
        <ele>32.27</ele>
        <time>2020-05-23T10:06:02Z</time>
      </trkpt>
      <trkpt lat="47.12823" lon="-1.77817">
        <ele>31.82</ele>
        <time>2020-05-23T10:06:04Z</time>
      </trkpt>
      <trkpt lat="47.12817" lon="-1.77833">
        <ele>31.22</ele>
        <time>2020-05-23T10:06:06Z</time>
      </trkpt>
      <trkpt lat="47.12811" lon="-1.77848">
        <ele>30.07</ele>
        <time>2020-05-23T10:06:08Z</time>
      </trkpt>
      <trkpt lat="47.12805" lon="-1.77863">
        <ele>28.9</ele>
        <time>2020-05-23T10:06:10Z</time>
      </trkpt>
      <trkpt lat="47.12798" lon="-1.77881">
        <ele>29.39</ele>
        <time>2020-05-23T10:06:12Z</time>
      </trkpt>
      <trkpt lat="47.12793" lon="-1.77898">
        <ele>29.52</ele>
        <time>2020-05-23T10:06:14Z</time>
      </trkpt>
      <trkpt lat="47.12788" lon="-1.77912">
        <ele>30.5</ele>
        <time>2020-05-23T10:06:16Z</time>
      </trkpt>
      <trkpt lat="47.12784" lon="-1.77928">
        <ele>30.76</ele>
        <time>2020-05-23T10:06:18Z</time>
      </trkpt>
      <trkpt lat="47.1278" lon="-1.77943">
        <ele>30.88</ele>
        <time>2020-05-23T10:06:20Z</time>
      </trkpt>
      <trkpt lat="47.12776" lon="-1.77958">
        <ele>30.44</ele>
        <time>2020-05-23T10:06:22Z</time>
      </trkpt>
      <trkpt lat="47.12772" lon="-1.77974">
        <ele>30.4</ele>
        <time>2020-05-23T10:06:24Z</time>
      </trkpt>
      <trkpt lat="47.12767" lon="-1.77993">
        <ele>31.13</ele>
        <time>2020-05-23T10:06:26Z</time>
      </trkpt>
      <trkpt lat="47.12763" lon="-1.78008">
        <ele>31.93</ele>
        <time>2020-05-23T10:06:28Z</time>
      </trkpt>
      <trkpt lat="47.12758" lon="-1.78023">
        <ele>31.58</ele>
        <time>2020-05-23T10:06:30Z</time>
      </trkpt>
      <trkpt lat="47.12753" lon="-1.78038">
        <ele>30.21</ele>
        <time>2020-05-23T10:06:32Z</time>
      </trkpt>
      <trkpt lat="47.12747" lon="-1.78055">
        <ele>30.42</ele>
        <time>2020-05-23T10:06:34Z</time>
      </trkpt>
      <trkpt lat="47.12741" lon="-1.78068">
        <ele>30.74</ele>
        <time>2020-05-23T10:06:36Z</time>
      </trkpt>
      <trkpt lat="47.12733" lon="-1.7808">
        <ele>30.28</ele>
        <time>2020-05-23T10:06:38Z</time>
      </trkpt>
      <trkpt lat="47.12724" lon="-1.78091">
        <ele>29.75</ele>
        <time>2020-05-23T10:06:40Z</time>
      </trkpt>
      <trkpt lat="47.12714" lon="-1.78105">
        <ele>29.52</ele>
        <time>2020-05-23T10:06:42Z</time>
      </trkpt>
      <trkpt lat="47.12707" lon="-1.78115">
        <ele>28.79</ele>
        <time>2020-05-23T10:06:44Z</time>
      </trkpt>
      <trkpt lat="47.12699" lon="-1.78125">
        <ele>29.1</ele>
        <time>2020-05-23T10:06:46Z</time>
      </trkpt>
      <trkpt lat="47.12689" lon="-1.78139">
        <ele>30.04</ele>
        <time>2020-05-23T10:06:48Z</time>
      </trkpt>
      <trkpt lat="47.12681" lon="-1.7815">
        <ele>30.98</ele>
        <time>2020-05-23T10:06:50Z</time>
      </trkpt>
      <trkpt lat="47.12671" lon="-1.78164">
        <ele>31.5</ele>
        <time>2020-05-23T10:06:52Z</time>
      </trkpt>
      <trkpt lat="47.12661" lon="-1.78176">
        <ele>32.31</ele>
        <time>2020-05-23T10:06:54Z</time>
      </trkpt>
      <trkpt lat="47.12653" lon="-1.78188">
        <ele>32.71</ele>
        <time>2020-05-23T10:06:56Z</time>
      </trkpt>
      <trkpt lat="47.12645" lon="-1.78199">
        <ele>32.3</ele>
        <time>2020-05-23T10:06:58Z</time>
      </trkpt>
      <trkpt lat="47.12636" lon="-1.78211">
        <ele>31.52</ele>
        <time>2020-05-23T10:07:00Z</time>
      </trkpt>
      <trkpt lat="47.12628" lon="-1.78226">
        <ele>30.86</ele>
        <time>2020-05-23T10:07:02Z</time>
      </trkpt>
      <trkpt lat="47.12622" lon="-1.78243">
        <ele>30.4</ele>
        <time>2020-05-23T10:07:04Z</time>
      </trkpt>
      <trkpt lat="47.12618" lon="-1.78258">
        <ele>31.1</ele>
        <time>2020-05-23T10:07:06Z</time>
      </trkpt>
      <trkpt lat="47.12614" lon="-1.78272">
        <ele>30.78</ele>
        <time>2020-05-23T10:07:08Z</time>
      </trkpt>
      <trkpt lat="47.12611" lon="-1.7829">
        <ele>30.86</ele>
        <time>2020-05-23T10:07:10Z</time>
      </trkpt>
      <trkpt lat="47.12607" lon="-1.78303">
        <ele>31.3</ele>
        <time>2020-05-23T10:07:12Z</time>
      </trkpt>
      <trkpt lat="47.12604" lon="-1.7832">
        <ele>31.67</ele>
        <time>2020-05-23T10:07:14Z</time>
      </trkpt>
      <trkpt lat="47.126" lon="-1.78338">
        <ele>30.85</ele>
        <time>2020-05-23T10:07:16Z</time>
      </trkpt>
      <trkpt lat="47.12596" lon="-1.78354">
        <ele>29.28</ele>
        <time>2020-05-23T10:07:18Z</time>
      </trkpt>
      <trkpt lat="47.12593" lon="-1.78367">
        <ele>28.11</ele>
        <time>2020-05-23T10:07:20Z</time>
      </trkpt>
      <trkpt lat="47.12589" lon="-1.78384">
        <ele>27.57</ele>
        <time>2020-05-23T10:07:22Z</time>
      </trkpt>
      <trkpt lat="47.12586" lon="-1.784">
        <ele>27.97</ele>
        <time>2020-05-23T10:07:24Z</time>
      </trkpt>
      <trkpt lat="47.12583" lon="-1.78417">
        <ele>27.27</ele>
        <time>2020-05-23T10:07:26Z</time>
      </trkpt>
      <trkpt lat="47.12579" lon="-1.78432">
        <ele>27.03</ele>
        <time>2020-05-23T10:07:28Z</time>
      </trkpt>
      <trkpt lat="47.12576" lon="-1.78446">
        <ele>27.42</ele>
        <time>2020-05-23T10:07:30Z</time>
      </trkpt>
      <trkpt lat="47.12571" lon="-1.78464">
        <ele>27.59</ele>
        <time>2020-05-23T10:07:32Z</time>
      </trkpt>
      <trkpt lat="47.12567" lon="-1.78479">
        <ele>27.47</ele>
        <time>2020-05-23T10:07:34Z</time>
      </trkpt>
      <trkpt lat="47.12563" lon="-1.78495">
        <ele>26.81</ele>
        <time>2020-05-23T10:07:36Z</time>
      </trkpt>
      <trkpt lat="47.12559" lon="-1.78511">
        <ele>27.29</ele>
        <time>2020-05-23T10:07:38Z</time>
      </trkpt>
      <trkpt lat="47.12555" lon="-1.78528">
        <ele>28.36</ele>
        <time>2020-05-23T10:07:40Z</time>
      </trkpt>
      <trkpt lat="47.12551" lon="-1.78545">
        <ele>28.03</ele>
        <time>2020-05-23T10:07:42Z</time>
      </trkpt>
      <trkpt lat="47.12547" lon="-1.78565">
        <ele>27.61</ele>
        <time>2020-05-23T10:07:45Z</time>
      </trkpt>
      <trkpt lat="47.12543" lon="-1.78583">
        <ele>26.85</ele>
        <time>2020-05-23T10:07:47Z</time>
      </trkpt>
      <trkpt lat="47.12539" lon="-1.786">
        <ele>27.84</ele>
        <time>2020-05-23T10:07:49Z</time>
      </trkpt>
      <trkpt lat="47.12535" lon="-1.78614">
        <ele>26.98</ele>
        <time>2020-05-23T10:07:51Z</time>
      </trkpt>
      <trkpt lat="47.1253" lon="-1.78629">
        <ele>26.47</ele>
        <time>2020-05-23T10:07:53Z</time>
      </trkpt>
      <trkpt lat="47.12526" lon="-1.78644">
        <ele>25.86</ele>
        <time>2020-05-23T10:07:55Z</time>
      </trkpt>
      <trkpt lat="47.1252" lon="-1.7866">
        <ele>25.84</ele>
        <time>2020-05-23T10:07:57Z</time>
      </trkpt>
      <trkpt lat="47.12514" lon="-1.78676">
        <ele>25.75</ele>
        <time>2020-05-23T10:07:59Z</time>
      </trkpt>
      <trkpt lat="47.12508" lon="-1.7869">
        <ele>25.84</ele>
        <time>2020-05-23T10:08:01Z</time>
      </trkpt>
      <trkpt lat="47.12502" lon="-1.78708">
        <ele>25.58</ele>
        <time>2020-05-23T10:08:03Z</time>
      </trkpt>
      <trkpt lat="47.12497" lon="-1.78724">
        <ele>25.89</ele>
        <time>2020-05-23T10:08:05Z</time>
      </trkpt>
      <trkpt lat="47.12493" lon="-1.7874">
        <ele>25.91</ele>
        <time>2020-05-23T10:08:08Z</time>
      </trkpt>
      <trkpt lat="47.12487" lon="-1.7876">
        <ele>25.56</ele>
        <time>2020-05-23T10:08:10Z</time>
      </trkpt>
      <trkpt lat="47.12484" lon="-1.78775">
        <ele>24.82</ele>
        <time>2020-05-23T10:08:12Z</time>
      </trkpt>
      <trkpt lat="47.1248" lon="-1.78795">
        <ele>24.84</ele>
        <time>2020-05-23T10:08:14Z</time>
      </trkpt>
      <trkpt lat="47.12478" lon="-1.78809">
        <ele>25.79</ele>
        <time>2020-05-23T10:08:16Z</time>
      </trkpt>
      <trkpt lat="47.12474" lon="-1.78825">
        <ele>26.18</ele>
        <time>2020-05-23T10:08:18Z</time>
      </trkpt>
      <trkpt lat="47.1247" lon="-1.78845">
        <ele>25.39</ele>
        <time>2020-05-23T10:08:20Z</time>
      </trkpt>
      <trkpt lat="47.12468" lon="-1.7886">
        <ele>25.36</ele>
        <time>2020-05-23T10:08:22Z</time>
      </trkpt>
      <trkpt lat="47.12467" lon="-1.78875">
        <ele>25.64</ele>
        <time>2020-05-23T10:08:24Z</time>
      </trkpt>
      <trkpt lat="47.12466" lon="-1.78892">
        <ele>25.1</ele>
        <time>2020-05-23T10:08:26Z</time>
      </trkpt>
      <trkpt lat="47.12464" lon="-1.78911">
        <ele>24.75</ele>
        <time>2020-05-23T10:08:28Z</time>
      </trkpt>
      <trkpt lat="47.12461" lon="-1.78928">
        <ele>23.92</ele>
        <time>2020-05-23T10:08:30Z</time>
      </trkpt>
      <trkpt lat="47.12458" lon="-1.78943">
        <ele>23.82</ele>
        <time>2020-05-23T10:08:32Z</time>
      </trkpt>
      <trkpt lat="47.12454" lon="-1.78963">
        <ele>23.75</ele>
        <time>2020-05-23T10:08:34Z</time>
      </trkpt>
      <trkpt lat="47.1245" lon="-1.7898">
        <ele>24.82</ele>
        <time>2020-05-23T10:08:36Z</time>
      </trkpt>
      <trkpt lat="47.12445" lon="-1.78997">
        <ele>25.54</ele>
        <time>2020-05-23T10:08:38Z</time>
      </trkpt>
      <trkpt lat="47.12441" lon="-1.79012">
        <ele>26.39</ele>
        <time>2020-05-23T10:08:40Z</time>
      </trkpt>
      <trkpt lat="47.12437" lon="-1.79026">
        <ele>25.26</ele>
        <time>2020-05-23T10:08:42Z</time>
      </trkpt>
      <trkpt lat="47.12433" lon="-1.79045">
        <ele>25.64</ele>
        <time>2020-05-23T10:08:44Z</time>
      </trkpt>
      <trkpt lat="47.1243" lon="-1.79061">
        <ele>26.37</ele>
        <time>2020-05-23T10:08:46Z</time>
      </trkpt>
      <trkpt lat="47.12426" lon="-1.79077">
        <ele>26.17</ele>
        <time>2020-05-23T10:08:48Z</time>
      </trkpt>
      <trkpt lat="47.12423" lon="-1.79095">
        <ele>25.6</ele>
        <time>2020-05-23T10:08:50Z</time>
      </trkpt>
      <trkpt lat="47.1242" lon="-1.79113">
        <ele>24.62</ele>
        <time>2020-05-23T10:08:52Z</time>
      </trkpt>
      <trkpt lat="47.12417" lon="-1.79129">
        <ele>23.55</ele>
        <time>2020-05-23T10:08:54Z</time>
      </trkpt>
      <trkpt lat="47.12415" lon="-1.79146">
        <ele>23.69</ele>
        <time>2020-05-23T10:08:56Z</time>
      </trkpt>
      <trkpt lat="47.12415" lon="-1.79162">
        <ele>23.75</ele>
        <time>2020-05-23T10:08:58Z</time>
      </trkpt>
      <trkpt lat="47.12417" lon="-1.79178">
        <ele>24.03</ele>
        <time>2020-05-23T10:09:00Z</time>
      </trkpt>
      <trkpt lat="47.12418" lon="-1.79196">
        <ele>24.54</ele>
        <time>2020-05-23T10:09:02Z</time>
      </trkpt>
      <trkpt lat="47.1242" lon="-1.79213">
        <ele>24.87</ele>
        <time>2020-05-23T10:09:04Z</time>
      </trkpt>
      <trkpt lat="47.12422" lon="-1.79229">
        <ele>24.63</ele>
        <time>2020-05-23T10:09:06Z</time>
      </trkpt>
      <trkpt lat="47.12424" lon="-1.79248">
        <ele>24.11</ele>
        <time>2020-05-23T10:09:08Z</time>
      </trkpt>
      <trkpt lat="47.12423" lon="-1.79265">
        <ele>23.85</ele>
        <time>2020-05-23T10:09:10Z</time>
      </trkpt>
      <trkpt lat="47.12421" lon="-1.7928">
        <ele>24.42</ele>
        <time>2020-05-23T10:09:12Z</time>
      </trkpt>
      <trkpt lat="47.12416" lon="-1.79295">
        <ele>24.12</ele>
        <time>2020-05-23T10:09:14Z</time>
      </trkpt>
      <trkpt lat="47.1241" lon="-1.79309">
        <ele>23.98</ele>
        <time>2020-05-23T10:09:16Z</time>
      </trkpt>
      <trkpt lat="47.12404" lon="-1.79321">
        <ele>23.95</ele>
        <time>2020-05-23T10:09:18Z</time>
      </trkpt>
      <trkpt lat="47.12396" lon="-1.79335">
        <ele>23.59</ele>
        <time>2020-05-23T10:09:20Z</time>
      </trkpt>
      <trkpt lat="47.12389" lon="-1.7935">
        <ele>23.69</ele>
        <time>2020-05-23T10:09:22Z</time>
      </trkpt>
      <trkpt lat="47.12383" lon="-1.79361">
        <ele>24.72</ele>
        <time>2020-05-23T10:09:24Z</time>
      </trkpt>
      <trkpt lat="47.12377" lon="-1.79373">
        <ele>24.94</ele>
        <time>2020-05-23T10:09:26Z</time>
      </trkpt>
      <trkpt lat="47.12371" lon="-1.79385">
        <ele>25.33</ele>
        <time>2020-05-23T10:09:28Z</time>
      </trkpt>
      <trkpt lat="47.12365" lon="-1.79399">
        <ele>26.55</ele>
        <time>2020-05-23T10:09:30Z</time>
      </trkpt>
      <trkpt lat="47.12359" lon="-1.79414">
        <ele>26.35</ele>
        <time>2020-05-23T10:09:32Z</time>
      </trkpt>
      <trkpt lat="47.12354" lon="-1.79428">
        <ele>27.17</ele>
        <time>2020-05-23T10:09:34Z</time>
      </trkpt>
      <trkpt lat="47.1235" lon="-1.79443">
        <ele>26.49</ele>
        <time>2020-05-23T10:09:36Z</time>
      </trkpt>
      <trkpt lat="47.12346" lon="-1.79459">
        <ele>25.75</ele>
        <time>2020-05-23T10:09:38Z</time>
      </trkpt>
      <trkpt lat="47.12344" lon="-1.79474">
        <ele>26.96</ele>
        <time>2020-05-23T10:09:40Z</time>
      </trkpt>
      <trkpt lat="47.12343" lon="-1.79489">
        <ele>27.56</ele>
        <time>2020-05-23T10:09:42Z</time>
      </trkpt>
      <trkpt lat="47.12342" lon="-1.79504">
        <ele>27.48</ele>
        <time>2020-05-23T10:09:44Z</time>
      </trkpt>
      <trkpt lat="47.1234" lon="-1.79519">
        <ele>26.91</ele>
        <time>2020-05-23T10:09:46Z</time>
      </trkpt>
      <trkpt lat="47.12338" lon="-1.79537">
        <ele>26.75</ele>
        <time>2020-05-23T10:09:48Z</time>
      </trkpt>
      <trkpt lat="47.12336" lon="-1.7955">
        <ele>26.36</ele>
        <time>2020-05-23T10:09:50Z</time>
      </trkpt>
      <trkpt lat="47.12334" lon="-1.79564">
        <ele>25.56</ele>
        <time>2020-05-23T10:09:52Z</time>
      </trkpt>
      <trkpt lat="47.12329" lon="-1.79579">
        <ele>25.34</ele>
        <time>2020-05-23T10:09:54Z</time>
      </trkpt>
      <trkpt lat="47.12322" lon="-1.79593">
        <ele>26.15</ele>
        <time>2020-05-23T10:09:56Z</time>
      </trkpt>
      <trkpt lat="47.12311" lon="-1.79597">
        <ele>26.5</ele>
        <time>2020-05-23T10:09:58Z</time>
      </trkpt>
      <trkpt lat="47.12301" lon="-1.79597">
        <ele>26.55</ele>
        <time>2020-05-23T10:10:00Z</time>
      </trkpt>
      <trkpt lat="47.12291" lon="-1.79597">
        <ele>26.78</ele>
        <time>2020-05-23T10:10:02Z</time>
      </trkpt>
      <trkpt lat="47.12281" lon="-1.79597">
        <ele>26.38</ele>
        <time>2020-05-23T10:10:04Z</time>
      </trkpt>
      <trkpt lat="47.1227" lon="-1.79598">
        <ele>26.09</ele>
        <time>2020-05-23T10:10:06Z</time>
      </trkpt>
      <trkpt lat="47.1226" lon="-1.79598">
        <ele>25.65</ele>
        <time>2020-05-23T10:10:08Z</time>
      </trkpt>
      <trkpt lat="47.12248" lon="-1.79596">
        <ele>25.55</ele>
        <time>2020-05-23T10:10:10Z</time>
      </trkpt>
      <trkpt lat="47.12234" lon="-1.79595">
        <ele>25.13</ele>
        <time>2020-05-23T10:10:12Z</time>
      </trkpt>
      <trkpt lat="47.12223" lon="-1.79595">
        <ele>25.48</ele>
        <time>2020-05-23T10:10:14Z</time>
      </trkpt>
      <trkpt lat="47.12214" lon="-1.79595">
        <ele>25.41</ele>
        <time>2020-05-23T10:10:16Z</time>
      </trkpt>
      <trkpt lat="47.12204" lon="-1.79596">
        <ele>25.78</ele>
        <time>2020-05-23T10:10:18Z</time>
      </trkpt>
      <trkpt lat="47.12192" lon="-1.79595">
        <ele>26.79</ele>
        <time>2020-05-23T10:10:20Z</time>
      </trkpt>
      <trkpt lat="47.1218" lon="-1.79596">
        <ele>26.91</ele>
        <time>2020-05-23T10:10:22Z</time>
      </trkpt>
      <trkpt lat="47.1217" lon="-1.79595">
        <ele>26.42</ele>
        <time>2020-05-23T10:10:24Z</time>
      </trkpt>
      <trkpt lat="47.12159" lon="-1.79594">
        <ele>26.44</ele>
        <time>2020-05-23T10:10:26Z</time>
      </trkpt>
      <trkpt lat="47.12146" lon="-1.79595">
        <ele>26.55</ele>
        <time>2020-05-23T10:10:28Z</time>
      </trkpt>
      <trkpt lat="47.12135" lon="-1.79595">
        <ele>26.38</ele>
        <time>2020-05-23T10:10:30Z</time>
      </trkpt>
      <trkpt lat="47.12123" lon="-1.79597">
        <ele>26.12</ele>
        <time>2020-05-23T10:10:32Z</time>
      </trkpt>
      <trkpt lat="47.12112" lon="-1.79599">
        <ele>25.54</ele>
        <time>2020-05-23T10:10:34Z</time>
      </trkpt>
      <trkpt lat="47.121" lon="-1.79602">
        <ele>25.86</ele>
        <time>2020-05-23T10:10:36Z</time>
      </trkpt>
      <trkpt lat="47.1209" lon="-1.79608">
        <ele>25.64</ele>
        <time>2020-05-23T10:10:38Z</time>
      </trkpt>
      <trkpt lat="47.1208" lon="-1.79619">
        <ele>25.27</ele>
        <time>2020-05-23T10:10:40Z</time>
      </trkpt>
      <trkpt lat="47.12069" lon="-1.79629">
        <ele>24.72</ele>
        <time>2020-05-23T10:10:42Z</time>
      </trkpt>
      <trkpt lat="47.12059" lon="-1.79638">
        <ele>24.23</ele>
        <time>2020-05-23T10:10:44Z</time>
      </trkpt>
      <trkpt lat="47.1205" lon="-1.79648">
        <ele>23.77</ele>
        <time>2020-05-23T10:10:46Z</time>
      </trkpt>
      <trkpt lat="47.1204" lon="-1.79657">
        <ele>23.18</ele>
        <time>2020-05-23T10:10:48Z</time>
      </trkpt>
      <trkpt lat="47.12031" lon="-1.79665">
        <ele>24</ele>
        <time>2020-05-23T10:10:50Z</time>
      </trkpt>
      <trkpt lat="47.12021" lon="-1.79676">
        <ele>24.41</ele>
        <time>2020-05-23T10:10:52Z</time>
      </trkpt>
      <trkpt lat="47.12012" lon="-1.79685">
        <ele>24.51</ele>
        <time>2020-05-23T10:10:54Z</time>
      </trkpt>
      <trkpt lat="47.12002" lon="-1.79695">
        <ele>24.27</ele>
        <time>2020-05-23T10:10:56Z</time>
      </trkpt>
      <trkpt lat="47.11992" lon="-1.79705">
        <ele>22.42</ele>
        <time>2020-05-23T10:10:58Z</time>
      </trkpt>
      <trkpt lat="47.11983" lon="-1.79714">
        <ele>22.38</ele>
        <time>2020-05-23T10:11:00Z</time>
      </trkpt>
      <trkpt lat="47.11973" lon="-1.79724">
        <ele>22.81</ele>
        <time>2020-05-23T10:11:02Z</time>
      </trkpt>
      <trkpt lat="47.11964" lon="-1.79735">
        <ele>23.56</ele>
        <time>2020-05-23T10:11:04Z</time>
      </trkpt>
      <trkpt lat="47.11954" lon="-1.79746">
        <ele>23.26</ele>
        <time>2020-05-23T10:11:06Z</time>
      </trkpt>
      <trkpt lat="47.11946" lon="-1.79758">
        <ele>23.25</ele>
        <time>2020-05-23T10:11:08Z</time>
      </trkpt>
      <trkpt lat="47.11936" lon="-1.7977">
        <ele>22.48</ele>
        <time>2020-05-23T10:11:10Z</time>
      </trkpt>
      <trkpt lat="47.11926" lon="-1.79784">
        <ele>21</ele>
        <time>2020-05-23T10:11:12Z</time>
      </trkpt>
      <trkpt lat="47.11918" lon="-1.79793">
        <ele>20.31</ele>
        <time>2020-05-23T10:11:14Z</time>
      </trkpt>
      <trkpt lat="47.11909" lon="-1.79805">
        <ele>20.08</ele>
        <time>2020-05-23T10:11:16Z</time>
      </trkpt>
      <trkpt lat="47.119" lon="-1.79816">
        <ele>20.03</ele>
        <time>2020-05-23T10:11:18Z</time>
      </trkpt>
      <trkpt lat="47.11891" lon="-1.79827">
        <ele>20.39</ele>
        <time>2020-05-23T10:11:20Z</time>
      </trkpt>
      <trkpt lat="47.11881" lon="-1.79839">
        <ele>21.2</ele>
        <time>2020-05-23T10:11:22Z</time>
      </trkpt>
      <trkpt lat="47.11872" lon="-1.79849">
        <ele>20.62</ele>
        <time>2020-05-23T10:11:24Z</time>
      </trkpt>
      <trkpt lat="47.11861" lon="-1.7986">
        <ele>20.07</ele>
        <time>2020-05-23T10:11:26Z</time>
      </trkpt>
      <trkpt lat="47.11853" lon="-1.7987">
        <ele>20.46</ele>
        <time>2020-05-23T10:11:28Z</time>
      </trkpt>
      <trkpt lat="47.11843" lon="-1.7988">
        <ele>20.93</ele>
        <time>2020-05-23T10:11:30Z</time>
      </trkpt>
      <trkpt lat="47.11833" lon="-1.7989">
        <ele>20.77</ele>
        <time>2020-05-23T10:11:32Z</time>
      </trkpt>
      <trkpt lat="47.11823" lon="-1.79901">
        <ele>21.59</ele>
        <time>2020-05-23T10:11:34Z</time>
      </trkpt>
      <trkpt lat="47.11814" lon="-1.79911">
        <ele>22.54</ele>
        <time>2020-05-23T10:11:36Z</time>
      </trkpt>
      <trkpt lat="47.11805" lon="-1.79921">
        <ele>22.57</ele>
        <time>2020-05-23T10:11:38Z</time>
      </trkpt>
      <trkpt lat="47.11797" lon="-1.7993">
        <ele>22.25</ele>
        <time>2020-05-23T10:11:40Z</time>
      </trkpt>
      <trkpt lat="47.11787" lon="-1.79942">
        <ele>21.67</ele>
        <time>2020-05-23T10:11:42Z</time>
      </trkpt>
      <trkpt lat="47.11777" lon="-1.79952">
        <ele>21.13</ele>
        <time>2020-05-23T10:11:44Z</time>
      </trkpt>
      <trkpt lat="47.11766" lon="-1.79966">
        <ele>20.2</ele>
        <time>2020-05-23T10:11:47Z</time>
      </trkpt>
      <trkpt lat="47.11756" lon="-1.79977">
        <ele>20.13</ele>
        <time>2020-05-23T10:11:50Z</time>
      </trkpt>
      <trkpt lat="47.11746" lon="-1.79979">
        <ele>19.86</ele>
        <time>2020-05-23T10:11:52Z</time>
      </trkpt>
      <trkpt lat="47.11734" lon="-1.79977">
        <ele>20.27</ele>
        <time>2020-05-23T10:11:54Z</time>
      </trkpt>
      <trkpt lat="47.11722" lon="-1.79974">
        <ele>20.69</ele>
        <time>2020-05-23T10:11:56Z</time>
      </trkpt>
      <trkpt lat="47.11709" lon="-1.79972">
        <ele>21.23</ele>
        <time>2020-05-23T10:11:58Z</time>
      </trkpt>
      <trkpt lat="47.11698" lon="-1.79971">
        <ele>21.07</ele>
        <time>2020-05-23T10:12:00Z</time>
      </trkpt>
      <trkpt lat="47.11688" lon="-1.79968">
        <ele>22.05</ele>
        <time>2020-05-23T10:12:02Z</time>
      </trkpt>
      <trkpt lat="47.11676" lon="-1.79967">
        <ele>22.8</ele>
        <time>2020-05-23T10:12:04Z</time>
      </trkpt>
      <trkpt lat="47.11664" lon="-1.79964">
        <ele>22.24</ele>
        <time>2020-05-23T10:12:06Z</time>
      </trkpt>
      <trkpt lat="47.1165" lon="-1.79961">
        <ele>20.54</ele>
        <time>2020-05-23T10:12:08Z</time>
      </trkpt>
      <trkpt lat="47.11638" lon="-1.79961">
        <ele>19.28</ele>
        <time>2020-05-23T10:12:10Z</time>
      </trkpt>
      <trkpt lat="47.11626" lon="-1.7996">
        <ele>19.11</ele>
        <time>2020-05-23T10:12:12Z</time>
      </trkpt>
      <trkpt lat="47.11615" lon="-1.79958">
        <ele>19.76</ele>
        <time>2020-05-23T10:12:14Z</time>
      </trkpt>
      <trkpt lat="47.11603" lon="-1.79956">
        <ele>19.58</ele>
        <time>2020-05-23T10:12:16Z</time>
      </trkpt>
      <trkpt lat="47.11589" lon="-1.79954">
        <ele>18.54</ele>
        <time>2020-05-23T10:12:18Z</time>
      </trkpt>
      <trkpt lat="47.11576" lon="-1.79953">
        <ele>18.54</ele>
        <time>2020-05-23T10:12:20Z</time>
      </trkpt>
      <trkpt lat="47.11564" lon="-1.79954">
        <ele>18.63</ele>
        <time>2020-05-23T10:12:22Z</time>
      </trkpt>
      <trkpt lat="47.11552" lon="-1.79958">
        <ele>18.73</ele>
        <time>2020-05-23T10:12:24Z</time>
      </trkpt>
      <trkpt lat="47.1154" lon="-1.79965">
        <ele>18.98</ele>
        <time>2020-05-23T10:12:26Z</time>
      </trkpt>
      <trkpt lat="47.11529" lon="-1.79973">
        <ele>19.4</ele>
        <time>2020-05-23T10:12:28Z</time>
      </trkpt>
      <trkpt lat="47.11518" lon="-1.79984">
        <ele>18.95</ele>
        <time>2020-05-23T10:12:30Z</time>
      </trkpt>
      <trkpt lat="47.11509" lon="-1.79995">
        <ele>18.46</ele>
        <time>2020-05-23T10:12:32Z</time>
      </trkpt>
      <trkpt lat="47.11498" lon="-1.80009">
        <ele>18.58</ele>
        <time>2020-05-23T10:12:34Z</time>
      </trkpt>
      <trkpt lat="47.1149" lon="-1.80021">
        <ele>18.42</ele>
        <time>2020-05-23T10:12:36Z</time>
      </trkpt>
      <trkpt lat="47.11482" lon="-1.80032">
        <ele>17.96</ele>
        <time>2020-05-23T10:12:38Z</time>
      </trkpt>
      <trkpt lat="47.11474" lon="-1.80044">
        <ele>17.02</ele>
        <time>2020-05-23T10:12:40Z</time>
      </trkpt>
      <trkpt lat="47.11464" lon="-1.80057">
        <ele>16.53</ele>
        <time>2020-05-23T10:12:42Z</time>
      </trkpt>
      <trkpt lat="47.11456" lon="-1.80068">
        <ele>16.73</ele>
        <time>2020-05-23T10:12:44Z</time>
      </trkpt>
      <trkpt lat="47.11448" lon="-1.80082">
        <ele>16.3</ele>
        <time>2020-05-23T10:12:46Z</time>
      </trkpt>
      <trkpt lat="47.11439" lon="-1.80094">
        <ele>15.39</ele>
        <time>2020-05-23T10:12:48Z</time>
      </trkpt>
      <trkpt lat="47.11431" lon="-1.80104">
        <ele>15.16</ele>
        <time>2020-05-23T10:12:50Z</time>
      </trkpt>
      <trkpt lat="47.11421" lon="-1.80117">
        <ele>15.06</ele>
        <time>2020-05-23T10:12:52Z</time>
      </trkpt>
      <trkpt lat="47.11412" lon="-1.80129">
        <ele>15.18</ele>
        <time>2020-05-23T10:12:54Z</time>
      </trkpt>
      <trkpt lat="47.11403" lon="-1.80142">
        <ele>15.55</ele>
        <time>2020-05-23T10:12:56Z</time>
      </trkpt>
      <trkpt lat="47.11395" lon="-1.80154">
        <ele>15.44</ele>
        <time>2020-05-23T10:12:58Z</time>
      </trkpt>
      <trkpt lat="47.11386" lon="-1.80166">
        <ele>15.53</ele>
        <time>2020-05-23T10:13:00Z</time>
      </trkpt>
      <trkpt lat="47.11377" lon="-1.80177">
        <ele>15.15</ele>
        <time>2020-05-23T10:13:02Z</time>
      </trkpt>
      <trkpt lat="47.11368" lon="-1.80189">
        <ele>14.85</ele>
        <time>2020-05-23T10:13:04Z</time>
      </trkpt>
      <trkpt lat="47.11358" lon="-1.80201">
        <ele>15.16</ele>
        <time>2020-05-23T10:13:06Z</time>
      </trkpt>
      <trkpt lat="47.11349" lon="-1.80214">
        <ele>14.89</ele>
        <time>2020-05-23T10:13:08Z</time>
      </trkpt>
      <trkpt lat="47.1134" lon="-1.80228">
        <ele>14.59</ele>
        <time>2020-05-23T10:13:10Z</time>
      </trkpt>
      <trkpt lat="47.1133" lon="-1.80242">
        <ele>14.31</ele>
        <time>2020-05-23T10:13:12Z</time>
      </trkpt>
      <trkpt lat="47.11322" lon="-1.80256">
        <ele>14.95</ele>
        <time>2020-05-23T10:13:14Z</time>
      </trkpt>
      <trkpt lat="47.11312" lon="-1.80269">
        <ele>15.03</ele>
        <time>2020-05-23T10:13:16Z</time>
      </trkpt>
      <trkpt lat="47.11303" lon="-1.80284">
        <ele>15.35</ele>
        <time>2020-05-23T10:13:18Z</time>
      </trkpt>
      <trkpt lat="47.11292" lon="-1.80298">
        <ele>15.63</ele>
        <time>2020-05-23T10:13:20Z</time>
      </trkpt>
      <trkpt lat="47.11281" lon="-1.80312">
        <ele>15.69</ele>
        <time>2020-05-23T10:13:22Z</time>
      </trkpt>
      <trkpt lat="47.11271" lon="-1.80325">
        <ele>15.3</ele>
        <time>2020-05-23T10:13:24Z</time>
      </trkpt>
      <trkpt lat="47.11261" lon="-1.80338">
        <ele>15.08</ele>
        <time>2020-05-23T10:13:26Z</time>
      </trkpt>
      <trkpt lat="47.11252" lon="-1.80351">
        <ele>15.09</ele>
        <time>2020-05-23T10:13:28Z</time>
      </trkpt>
      <trkpt lat="47.1124" lon="-1.80366">
        <ele>15.21</ele>
        <time>2020-05-23T10:13:30Z</time>
      </trkpt>
      <trkpt lat="47.11232" lon="-1.80377">
        <ele>14.94</ele>
        <time>2020-05-23T10:13:32Z</time>
      </trkpt>
      <trkpt lat="47.11223" lon="-1.80388">
        <ele>14.5</ele>
        <time>2020-05-23T10:13:34Z</time>
      </trkpt>
      <trkpt lat="47.11213" lon="-1.804">
        <ele>13.72</ele>
        <time>2020-05-23T10:13:36Z</time>
      </trkpt>
      <trkpt lat="47.11201" lon="-1.80413">
        <ele>13.57</ele>
        <time>2020-05-23T10:13:38Z</time>
      </trkpt>
      <trkpt lat="47.1119" lon="-1.80424">
        <ele>13.4</ele>
        <time>2020-05-23T10:13:40Z</time>
      </trkpt>
      <trkpt lat="47.11179" lon="-1.80432">
        <ele>12.92</ele>
        <time>2020-05-23T10:13:42Z</time>
      </trkpt>
      <trkpt lat="47.11168" lon="-1.80441">
        <ele>12.49</ele>
        <time>2020-05-23T10:13:44Z</time>
      </trkpt>
      <trkpt lat="47.11156" lon="-1.80448">
        <ele>12.67</ele>
        <time>2020-05-23T10:13:46Z</time>
      </trkpt>
      <trkpt lat="47.11145" lon="-1.80455">
        <ele>14.02</ele>
        <time>2020-05-23T10:13:48Z</time>
      </trkpt>
      <trkpt lat="47.11132" lon="-1.80463">
        <ele>14.21</ele>
        <time>2020-05-23T10:13:50Z</time>
      </trkpt>
      <trkpt lat="47.1112" lon="-1.8047">
        <ele>15.09</ele>
        <time>2020-05-23T10:13:52Z</time>
      </trkpt>
      <trkpt lat="47.11109" lon="-1.80477">
        <ele>15.35</ele>
        <time>2020-05-23T10:13:54Z</time>
      </trkpt>
      <trkpt lat="47.11099" lon="-1.80484">
        <ele>14.92</ele>
        <time>2020-05-23T10:13:56Z</time>
      </trkpt>
      <trkpt lat="47.11086" lon="-1.80493">
        <ele>13.94</ele>
        <time>2020-05-23T10:13:58Z</time>
      </trkpt>
      <trkpt lat="47.11073" lon="-1.80502">
        <ele>13.12</ele>
        <time>2020-05-23T10:14:00Z</time>
      </trkpt>
      <trkpt lat="47.11061" lon="-1.8051">
        <ele>12.42</ele>
        <time>2020-05-23T10:14:02Z</time>
      </trkpt>
      <trkpt lat="47.11052" lon="-1.80517">
        <ele>12.99</ele>
        <time>2020-05-23T10:14:04Z</time>
      </trkpt>
      <trkpt lat="47.1104" lon="-1.80524">
        <ele>13.77</ele>
        <time>2020-05-23T10:14:06Z</time>
      </trkpt>
      <trkpt lat="47.11029" lon="-1.80531">
        <ele>14.64</ele>
        <time>2020-05-23T10:14:08Z</time>
      </trkpt>
      <trkpt lat="47.11016" lon="-1.80539">
        <ele>15.41</ele>
        <time>2020-05-23T10:14:10Z</time>
      </trkpt>
      <trkpt lat="47.11005" lon="-1.80546">
        <ele>15.27</ele>
        <time>2020-05-23T10:14:12Z</time>
      </trkpt>
      <trkpt lat="47.10994" lon="-1.80555">
        <ele>14.54</ele>
        <time>2020-05-23T10:14:14Z</time>
      </trkpt>
      <trkpt lat="47.10982" lon="-1.80564">
        <ele>13.97</ele>
        <time>2020-05-23T10:14:16Z</time>
      </trkpt>
      <trkpt lat="47.1097" lon="-1.80571">
        <ele>13.87</ele>
        <time>2020-05-23T10:14:18Z</time>
      </trkpt>
      <trkpt lat="47.10957" lon="-1.80579">
        <ele>13.35</ele>
        <time>2020-05-23T10:14:20Z</time>
      </trkpt>
      <trkpt lat="47.10945" lon="-1.80586">
        <ele>13.71</ele>
        <time>2020-05-23T10:14:22Z</time>
      </trkpt>
      <trkpt lat="47.10931" lon="-1.80595">
        <ele>13.48</ele>
        <time>2020-05-23T10:14:24Z</time>
      </trkpt>
      <trkpt lat="47.1092" lon="-1.80604">
        <ele>12.8</ele>
        <time>2020-05-23T10:14:26Z</time>
      </trkpt>
      <trkpt lat="47.10907" lon="-1.80611">
        <ele>12.09</ele>
        <time>2020-05-23T10:14:28Z</time>
      </trkpt>
      <trkpt lat="47.10895" lon="-1.80618">
        <ele>12.18</ele>
        <time>2020-05-23T10:14:30Z</time>
      </trkpt>
      <trkpt lat="47.10882" lon="-1.80627">
        <ele>12.41</ele>
        <time>2020-05-23T10:14:32Z</time>
      </trkpt>
      <trkpt lat="47.10869" lon="-1.80635">
        <ele>12.61</ele>
        <time>2020-05-23T10:14:34Z</time>
      </trkpt>
      <trkpt lat="47.10856" lon="-1.80641">
        <ele>13.47</ele>
        <time>2020-05-23T10:14:36Z</time>
      </trkpt>
      <trkpt lat="47.10843" lon="-1.80647">
        <ele>13.45</ele>
        <time>2020-05-23T10:14:38Z</time>
      </trkpt>
      <trkpt lat="47.10829" lon="-1.80652">
        <ele>12.72</ele>
        <time>2020-05-23T10:14:40Z</time>
      </trkpt>
      <trkpt lat="47.10815" lon="-1.80657">
        <ele>12.62</ele>
        <time>2020-05-23T10:14:42Z</time>
      </trkpt>
      <trkpt lat="47.108" lon="-1.80662">
        <ele>13.38</ele>
        <time>2020-05-23T10:14:44Z</time>
      </trkpt>
      <trkpt lat="47.10785" lon="-1.80668">
        <ele>13.14</ele>
        <time>2020-05-23T10:14:46Z</time>
      </trkpt>
      <trkpt lat="47.10771" lon="-1.80673">
        <ele>12.86</ele>
        <time>2020-05-23T10:14:48Z</time>
      </trkpt>
      <trkpt lat="47.10755" lon="-1.80678">
        <ele>13.62</ele>
        <time>2020-05-23T10:14:50Z</time>
      </trkpt>
      <trkpt lat="47.10742" lon="-1.80681">
        <ele>13.9</ele>
        <time>2020-05-23T10:14:52Z</time>
      </trkpt>
      <trkpt lat="47.10726" lon="-1.80686">
        <ele>14.03</ele>
        <time>2020-05-23T10:14:54Z</time>
      </trkpt>
      <trkpt lat="47.10711" lon="-1.80687">
        <ele>13.37</ele>
        <time>2020-05-23T10:14:56Z</time>
      </trkpt>
      <trkpt lat="47.10697" lon="-1.80688">
        <ele>12.03</ele>
        <time>2020-05-23T10:14:58Z</time>
      </trkpt>
      <trkpt lat="47.10682" lon="-1.8069">
        <ele>11.58</ele>
        <time>2020-05-23T10:15:00Z</time>
      </trkpt>
      <trkpt lat="47.10669" lon="-1.80691">
        <ele>10.83</ele>
        <time>2020-05-23T10:15:02Z</time>
      </trkpt>
      <trkpt lat="47.10656" lon="-1.80692">
        <ele>10.79</ele>
        <time>2020-05-23T10:15:04Z</time>
      </trkpt>
      <trkpt lat="47.10642" lon="-1.80694">
        <ele>10.97</ele>
        <time>2020-05-23T10:15:06Z</time>
      </trkpt>
      <trkpt lat="47.1063" lon="-1.80695">
        <ele>11.1</ele>
        <time>2020-05-23T10:15:08Z</time>
      </trkpt>
      <trkpt lat="47.10618" lon="-1.80699">
        <ele>11.54</ele>
        <time>2020-05-23T10:15:10Z</time>
      </trkpt>
      <trkpt lat="47.10605" lon="-1.80704">
        <ele>11.99</ele>
        <time>2020-05-23T10:15:12Z</time>
      </trkpt>
      <trkpt lat="47.10592" lon="-1.80711">
        <ele>12.14</ele>
        <time>2020-05-23T10:15:14Z</time>
      </trkpt>
      <trkpt lat="47.10581" lon="-1.80717">
        <ele>12.05</ele>
        <time>2020-05-23T10:15:16Z</time>
      </trkpt>
      <trkpt lat="47.1057" lon="-1.80726">
        <ele>12.13</ele>
        <time>2020-05-23T10:15:18Z</time>
      </trkpt>
      <trkpt lat="47.10561" lon="-1.80737">
        <ele>12.21</ele>
        <time>2020-05-23T10:15:20Z</time>
      </trkpt>
      <trkpt lat="47.10552" lon="-1.80747">
        <ele>11.83</ele>
        <time>2020-05-23T10:15:22Z</time>
      </trkpt>
      <trkpt lat="47.10543" lon="-1.80759">
        <ele>11.67</ele>
        <time>2020-05-23T10:15:24Z</time>
      </trkpt>
      <trkpt lat="47.10533" lon="-1.80772">
        <ele>11.14</ele>
        <time>2020-05-23T10:15:26Z</time>
      </trkpt>
      <trkpt lat="47.10523" lon="-1.80785">
        <ele>9.81</ele>
        <time>2020-05-23T10:15:28Z</time>
      </trkpt>
      <trkpt lat="47.10515" lon="-1.80801">
        <ele>9.44</ele>
        <time>2020-05-23T10:15:30Z</time>
      </trkpt>
      <trkpt lat="47.10509" lon="-1.8082">
        <ele>10.13</ele>
        <time>2020-05-23T10:15:32Z</time>
      </trkpt>
      <trkpt lat="47.10512" lon="-1.80837">
        <ele>11.38</ele>
        <time>2020-05-23T10:15:34Z</time>
      </trkpt>
      <trkpt lat="47.10517" lon="-1.80858">
        <ele>11.29</ele>
        <time>2020-05-23T10:15:36Z</time>
      </trkpt>
      <trkpt lat="47.10526" lon="-1.80873">
        <ele>11.34</ele>
        <time>2020-05-23T10:15:38Z</time>
      </trkpt>
      <trkpt lat="47.10536" lon="-1.80888">
        <ele>11.13</ele>
        <time>2020-05-23T10:15:40Z</time>
      </trkpt>
      <trkpt lat="47.10548" lon="-1.80898">
        <ele>10.58</ele>
        <time>2020-05-23T10:15:42Z</time>
      </trkpt>
      <trkpt lat="47.10559" lon="-1.80908">
        <ele>10.97</ele>
        <time>2020-05-23T10:15:44Z</time>
      </trkpt>
      <trkpt lat="47.10571" lon="-1.80918">
        <ele>11.4</ele>
        <time>2020-05-23T10:15:46Z</time>
      </trkpt>
      <trkpt lat="47.10584" lon="-1.80929">
        <ele>11.98</ele>
        <time>2020-05-23T10:15:48Z</time>
      </trkpt>
      <trkpt lat="47.10595" lon="-1.8094">
        <ele>12.54</ele>
        <time>2020-05-23T10:15:50Z</time>
      </trkpt>
      <trkpt lat="47.10606" lon="-1.80953">
        <ele>12.73</ele>
        <time>2020-05-23T10:15:52Z</time>
      </trkpt>
      <trkpt lat="47.10616" lon="-1.80966">
        <ele>12.82</ele>
        <time>2020-05-23T10:15:54Z</time>
      </trkpt>
      <trkpt lat="47.10621" lon="-1.80982">
        <ele>13.42</ele>
        <time>2020-05-23T10:15:56Z</time>
      </trkpt>
      <trkpt lat="47.10623" lon="-1.81001">
        <ele>13.33</ele>
        <time>2020-05-23T10:15:58Z</time>
      </trkpt>
      <trkpt lat="47.10619" lon="-1.81018">
        <ele>12.94</ele>
        <time>2020-05-23T10:16:00Z</time>
      </trkpt>
      <trkpt lat="47.10614" lon="-1.81031">
        <ele>13.06</ele>
        <time>2020-05-23T10:16:02Z</time>
      </trkpt>
      <trkpt lat="47.10607" lon="-1.81046">
        <ele>12.98</ele>
        <time>2020-05-23T10:16:04Z</time>
      </trkpt>
      <trkpt lat="47.10601" lon="-1.81063">
        <ele>13.42</ele>
        <time>2020-05-23T10:16:06Z</time>
      </trkpt>
      <trkpt lat="47.10596" lon="-1.81079">
        <ele>14.12</ele>
        <time>2020-05-23T10:16:08Z</time>
      </trkpt>
      <trkpt lat="47.10592" lon="-1.81096">
        <ele>14.88</ele>
        <time>2020-05-23T10:16:10Z</time>
      </trkpt>
      <trkpt lat="47.1059" lon="-1.81109">
        <ele>15.57</ele>
        <time>2020-05-23T10:16:12Z</time>
      </trkpt>
      <trkpt lat="47.10588" lon="-1.81123">
        <ele>16.56</ele>
        <time>2020-05-23T10:16:14Z</time>
      </trkpt>
      <trkpt lat="47.10585" lon="-1.81139">
        <ele>17.91</ele>
        <time>2020-05-23T10:16:16Z</time>
      </trkpt>
      <trkpt lat="47.10581" lon="-1.81155">
        <ele>18.48</ele>
        <time>2020-05-23T10:16:18Z</time>
      </trkpt>
      <trkpt lat="47.10574" lon="-1.81169">
        <ele>18.55</ele>
        <time>2020-05-23T10:16:20Z</time>
      </trkpt>
      <trkpt lat="47.10564" lon="-1.81186">
        <ele>17.91</ele>
        <time>2020-05-23T10:16:23Z</time>
      </trkpt>
      <trkpt lat="47.10558" lon="-1.81199">
        <ele>17.42</ele>
        <time>2020-05-23T10:16:25Z</time>
      </trkpt>
      <trkpt lat="47.10551" lon="-1.81211">
        <ele>16.39</ele>
        <time>2020-05-23T10:16:27Z</time>
      </trkpt>
      <trkpt lat="47.10544" lon="-1.81223">
        <ele>15.67</ele>
        <time>2020-05-23T10:16:29Z</time>
      </trkpt>
      <trkpt lat="47.10539" lon="-1.81236">
        <ele>14</ele>
        <time>2020-05-23T10:16:32Z</time>
      </trkpt>
      <trkpt lat="47.10536" lon="-1.8125">
        <ele>13.84</ele>
        <time>2020-05-23T10:16:34Z</time>
      </trkpt>
      <trkpt lat="47.10549" lon="-1.81261">
        <ele>13.99</ele>
        <time>2020-05-23T10:16:37Z</time>
      </trkpt>
      <trkpt lat="47.1056" lon="-1.81267">
        <ele>14.65</ele>
        <time>2020-05-23T10:16:39Z</time>
      </trkpt>
      <trkpt lat="47.10569" lon="-1.81274">
        <ele>14.87</ele>
        <time>2020-05-23T10:16:41Z</time>
      </trkpt>
      <trkpt lat="47.10579" lon="-1.81282">
        <ele>15.15</ele>
        <time>2020-05-23T10:16:43Z</time>
      </trkpt>
      <trkpt lat="47.10591" lon="-1.81292">
        <ele>15.37</ele>
        <time>2020-05-23T10:16:45Z</time>
      </trkpt>
      <trkpt lat="47.10601" lon="-1.813">
        <ele>15.76</ele>
        <time>2020-05-23T10:16:47Z</time>
      </trkpt>
      <trkpt lat="47.10611" lon="-1.81307">
        <ele>15.59</ele>
        <time>2020-05-23T10:16:49Z</time>
      </trkpt>
      <trkpt lat="47.10623" lon="-1.81317">
        <ele>14.65</ele>
        <time>2020-05-23T10:16:51Z</time>
      </trkpt>
      <trkpt lat="47.10632" lon="-1.81329">
        <ele>13.55</ele>
        <time>2020-05-23T10:16:53Z</time>
      </trkpt>
      <trkpt lat="47.1064" lon="-1.81341">
        <ele>13.39</ele>
        <time>2020-05-23T10:16:55Z</time>
      </trkpt>
      <trkpt lat="47.10648" lon="-1.81352">
        <ele>14.52</ele>
        <time>2020-05-23T10:16:57Z</time>
      </trkpt>
      <trkpt lat="47.10656" lon="-1.81363">
        <ele>15.94</ele>
        <time>2020-05-23T10:16:59Z</time>
      </trkpt>
      <trkpt lat="47.10664" lon="-1.81375">
        <ele>16.3</ele>
        <time>2020-05-23T10:17:01Z</time>
      </trkpt>
      <trkpt lat="47.10672" lon="-1.81387">
        <ele>17.08</ele>
        <time>2020-05-23T10:17:03Z</time>
      </trkpt>
      <trkpt lat="47.1068" lon="-1.81398">
        <ele>16.73</ele>
        <time>2020-05-23T10:17:05Z</time>
      </trkpt>
      <trkpt lat="47.10691" lon="-1.81412">
        <ele>17.04</ele>
        <time>2020-05-23T10:17:07Z</time>
      </trkpt>
      <trkpt lat="47.10699" lon="-1.81423">
        <ele>19.53</ele>
        <time>2020-05-23T10:17:09Z</time>
      </trkpt>
      <trkpt lat="47.10707" lon="-1.81432">
        <ele>20.81</ele>
        <time>2020-05-23T10:17:11Z</time>
      </trkpt>
      <trkpt lat="47.10716" lon="-1.81442">
        <ele>19.25</ele>
        <time>2020-05-23T10:17:13Z</time>
      </trkpt>
      <trkpt lat="47.10724" lon="-1.81454">
        <ele>17.52</ele>
        <time>2020-05-23T10:17:15Z</time>
      </trkpt>
      <trkpt lat="47.10731" lon="-1.81466">
        <ele>17.77</ele>
        <time>2020-05-23T10:17:17Z</time>
      </trkpt>
      <trkpt lat="47.10735" lon="-1.8148">
        <ele>18.1</ele>
        <time>2020-05-23T10:17:18Z</time>
      </trkpt>
      <trkpt lat="47.10738" lon="-1.81496">
        <ele>17.54</ele>
        <time>2020-05-23T10:17:20Z</time>
      </trkpt>
      <trkpt lat="47.10739" lon="-1.81512">
        <ele>16.38</ele>
        <time>2020-05-23T10:17:22Z</time>
      </trkpt>
      <trkpt lat="47.10741" lon="-1.8153">
        <ele>15.5</ele>
        <time>2020-05-23T10:17:24Z</time>
      </trkpt>
      <trkpt lat="47.10743" lon="-1.81546">
        <ele>15.99</ele>
        <time>2020-05-23T10:17:26Z</time>
      </trkpt>
      <trkpt lat="47.10743" lon="-1.81559">
        <ele>15.51</ele>
        <time>2020-05-23T10:17:28Z</time>
      </trkpt>
      <trkpt lat="47.10745" lon="-1.81577">
        <ele>15.85</ele>
        <time>2020-05-23T10:17:30Z</time>
      </trkpt>
      <trkpt lat="47.10746" lon="-1.81595">
        <ele>16.79</ele>
        <time>2020-05-23T10:17:32Z</time>
      </trkpt>
      <trkpt lat="47.10748" lon="-1.81612">
        <ele>16.88</ele>
        <time>2020-05-23T10:17:34Z</time>
      </trkpt>
      <trkpt lat="47.1075" lon="-1.81628">
        <ele>17.04</ele>
        <time>2020-05-23T10:17:36Z</time>
      </trkpt>
      <trkpt lat="47.10753" lon="-1.81644">
        <ele>17.04</ele>
        <time>2020-05-23T10:17:38Z</time>
      </trkpt>
      <trkpt lat="47.10757" lon="-1.81666">
        <ele>16.9</ele>
        <time>2020-05-23T10:17:41Z</time>
      </trkpt>
      <trkpt lat="47.10761" lon="-1.81685">
        <ele>17.26</ele>
        <time>2020-05-23T10:17:44Z</time>
      </trkpt>
      <trkpt lat="47.10764" lon="-1.817">
        <ele>18.24</ele>
        <time>2020-05-23T10:17:46Z</time>
      </trkpt>
      <trkpt lat="47.10766" lon="-1.81716">
        <ele>18.37</ele>
        <time>2020-05-23T10:17:48Z</time>
      </trkpt>
      <trkpt lat="47.10768" lon="-1.81733">
        <ele>17.87</ele>
        <time>2020-05-23T10:17:50Z</time>
      </trkpt>
      <trkpt lat="47.10767" lon="-1.81749">
        <ele>17.4</ele>
        <time>2020-05-23T10:17:52Z</time>
      </trkpt>
      <trkpt lat="47.10766" lon="-1.81764">
        <ele>16.93</ele>
        <time>2020-05-23T10:17:54Z</time>
      </trkpt>
      <trkpt lat="47.10766" lon="-1.81781">
        <ele>16.83</ele>
        <time>2020-05-23T10:17:56Z</time>
      </trkpt>
      <trkpt lat="47.10764" lon="-1.81799">
        <ele>17.04</ele>
        <time>2020-05-23T10:17:58Z</time>
      </trkpt>
      <trkpt lat="47.10762" lon="-1.81815">
        <ele>17.43</ele>
        <time>2020-05-23T10:18:00Z</time>
      </trkpt>
      <trkpt lat="47.1076" lon="-1.81828">
        <ele>17.34</ele>
        <time>2020-05-23T10:18:02Z</time>
      </trkpt>
      <trkpt lat="47.10759" lon="-1.81846">
        <ele>17.06</ele>
        <time>2020-05-23T10:18:04Z</time>
      </trkpt>
      <trkpt lat="47.10756" lon="-1.81865">
        <ele>17.1</ele>
        <time>2020-05-23T10:18:06Z</time>
      </trkpt>
      <trkpt lat="47.10754" lon="-1.81882">
        <ele>16.77</ele>
        <time>2020-05-23T10:18:08Z</time>
      </trkpt>
      <trkpt lat="47.10751" lon="-1.81899">
        <ele>16.94</ele>
        <time>2020-05-23T10:18:10Z</time>
      </trkpt>
      <trkpt lat="47.1075" lon="-1.8192">
        <ele>16.72</ele>
        <time>2020-05-23T10:18:12Z</time>
      </trkpt>
      <trkpt lat="47.1075" lon="-1.81939">
        <ele>17.94</ele>
        <time>2020-05-23T10:18:14Z</time>
      </trkpt>
      <trkpt lat="47.1075" lon="-1.81955">
        <ele>19.2</ele>
        <time>2020-05-23T10:18:16Z</time>
      </trkpt>
      <trkpt lat="47.10751" lon="-1.81974">
        <ele>20.04</ele>
        <time>2020-05-23T10:18:18Z</time>
      </trkpt>
      <trkpt lat="47.10753" lon="-1.81991">
        <ele>20.12</ele>
        <time>2020-05-23T10:18:20Z</time>
      </trkpt>
      <trkpt lat="47.10755" lon="-1.82008">
        <ele>19.67</ele>
        <time>2020-05-23T10:18:22Z</time>
      </trkpt>
      <trkpt lat="47.10753" lon="-1.82024">
        <ele>19.36</ele>
        <time>2020-05-23T10:18:24Z</time>
      </trkpt>
      <trkpt lat="47.10748" lon="-1.82037">
        <ele>18.55</ele>
        <time>2020-05-23T10:18:26Z</time>
      </trkpt>
      <trkpt lat="47.1074" lon="-1.82052">
        <ele>17.26</ele>
        <time>2020-05-23T10:18:28Z</time>
      </trkpt>
      <trkpt lat="47.10733" lon="-1.82062">
        <ele>16.68</ele>
        <time>2020-05-23T10:18:30Z</time>
      </trkpt>
      <trkpt lat="47.10723" lon="-1.82076">
        <ele>16.22</ele>
        <time>2020-05-23T10:18:32Z</time>
      </trkpt>
      <trkpt lat="47.10713" lon="-1.82092">
        <ele>16.05</ele>
        <time>2020-05-23T10:18:34Z</time>
      </trkpt>
      <trkpt lat="47.10704" lon="-1.82104">
        <ele>15.57</ele>
        <time>2020-05-23T10:18:36Z</time>
      </trkpt>
      <trkpt lat="47.10695" lon="-1.82117">
        <ele>15.13</ele>
        <time>2020-05-23T10:18:38Z</time>
      </trkpt>
      <trkpt lat="47.10685" lon="-1.82132">
        <ele>14.68</ele>
        <time>2020-05-23T10:18:40Z</time>
      </trkpt>
      <trkpt lat="47.10675" lon="-1.82146">
        <ele>14.56</ele>
        <time>2020-05-23T10:18:42Z</time>
      </trkpt>
      <trkpt lat="47.10665" lon="-1.82161">
        <ele>14.99</ele>
        <time>2020-05-23T10:18:44Z</time>
      </trkpt>
      <trkpt lat="47.10656" lon="-1.82175">
        <ele>15.14</ele>
        <time>2020-05-23T10:18:46Z</time>
      </trkpt>
      <trkpt lat="47.1065" lon="-1.82188">
        <ele>14.87</ele>
        <time>2020-05-23T10:18:48Z</time>
      </trkpt>
      <trkpt lat="47.10646" lon="-1.82204">
        <ele>14.57</ele>
        <time>2020-05-23T10:18:50Z</time>
      </trkpt>
      <trkpt lat="47.10643" lon="-1.82224">
        <ele>14.53</ele>
        <time>2020-05-23T10:18:52Z</time>
      </trkpt>
      <trkpt lat="47.10642" lon="-1.82248">
        <ele>15.2</ele>
        <time>2020-05-23T10:18:54Z</time>
      </trkpt>
      <trkpt lat="47.10642" lon="-1.82267">
        <ele>15.41</ele>
        <time>2020-05-23T10:18:56Z</time>
      </trkpt>
      <trkpt lat="47.10641" lon="-1.82282">
        <ele>15.12</ele>
        <time>2020-05-23T10:18:58Z</time>
      </trkpt>
      <trkpt lat="47.1064" lon="-1.82303">
        <ele>15.1</ele>
        <time>2020-05-23T10:19:00Z</time>
      </trkpt>
      <trkpt lat="47.10639" lon="-1.82322">
        <ele>15.98</ele>
        <time>2020-05-23T10:19:02Z</time>
      </trkpt>
      <trkpt lat="47.10638" lon="-1.82342">
        <ele>16.22</ele>
        <time>2020-05-23T10:19:04Z</time>
      </trkpt>
      <trkpt lat="47.10636" lon="-1.8236">
        <ele>16.53</ele>
        <time>2020-05-23T10:19:06Z</time>
      </trkpt>
      <trkpt lat="47.10634" lon="-1.82379">
        <ele>16.53</ele>
        <time>2020-05-23T10:19:08Z</time>
      </trkpt>
      <trkpt lat="47.10632" lon="-1.82397">
        <ele>17</ele>
        <time>2020-05-23T10:19:10Z</time>
      </trkpt>
      <trkpt lat="47.1063" lon="-1.82416">
        <ele>17.48</ele>
        <time>2020-05-23T10:19:12Z</time>
      </trkpt>
      <trkpt lat="47.10627" lon="-1.82437">
        <ele>17.35</ele>
        <time>2020-05-23T10:19:14Z</time>
      </trkpt>
      <trkpt lat="47.10625" lon="-1.82452">
        <ele>16.86</ele>
        <time>2020-05-23T10:19:16Z</time>
      </trkpt>
      <trkpt lat="47.10623" lon="-1.82468">
        <ele>15.82</ele>
        <time>2020-05-23T10:19:18Z</time>
      </trkpt>
      <trkpt lat="47.10622" lon="-1.82484">
        <ele>14.94</ele>
        <time>2020-05-23T10:19:20Z</time>
      </trkpt>
      <trkpt lat="47.1062" lon="-1.825">
        <ele>14.62</ele>
        <time>2020-05-23T10:19:22Z</time>
      </trkpt>
      <trkpt lat="47.10617" lon="-1.82522">
        <ele>14.8</ele>
        <time>2020-05-23T10:19:24Z</time>
      </trkpt>
      <trkpt lat="47.10615" lon="-1.8254">
        <ele>14.83</ele>
        <time>2020-05-23T10:19:26Z</time>
      </trkpt>
      <trkpt lat="47.10613" lon="-1.8256">
        <ele>15.18</ele>
        <time>2020-05-23T10:19:28Z</time>
      </trkpt>
      <trkpt lat="47.10611" lon="-1.8258">
        <ele>15.49</ele>
        <time>2020-05-23T10:19:30Z</time>
      </trkpt>
      <trkpt lat="47.10611" lon="-1.82598">
        <ele>16.16</ele>
        <time>2020-05-23T10:19:32Z</time>
      </trkpt>
      <trkpt lat="47.10612" lon="-1.82615">
        <ele>16.01</ele>
        <time>2020-05-23T10:19:34Z</time>
      </trkpt>
      <trkpt lat="47.10614" lon="-1.82634">
        <ele>15.78</ele>
        <time>2020-05-23T10:19:36Z</time>
      </trkpt>
      <trkpt lat="47.10616" lon="-1.82651">
        <ele>15.9</ele>
        <time>2020-05-23T10:19:38Z</time>
      </trkpt>
      <trkpt lat="47.10619" lon="-1.82667">
        <ele>16.12</ele>
        <time>2020-05-23T10:19:40Z</time>
      </trkpt>
      <trkpt lat="47.10622" lon="-1.82685">
        <ele>15.57</ele>
        <time>2020-05-23T10:19:42Z</time>
      </trkpt>
      <trkpt lat="47.10624" lon="-1.82698">
        <ele>15.46</ele>
        <time>2020-05-23T10:19:44Z</time>
      </trkpt>
      <trkpt lat="47.10627" lon="-1.82719">
        <ele>14.43</ele>
        <time>2020-05-23T10:19:46Z</time>
      </trkpt>
      <trkpt lat="47.1063" lon="-1.82737">
        <ele>13.93</ele>
        <time>2020-05-23T10:19:48Z</time>
      </trkpt>
      <trkpt lat="47.10632" lon="-1.82754">
        <ele>14.13</ele>
        <time>2020-05-23T10:19:50Z</time>
      </trkpt>
      <trkpt lat="47.10635" lon="-1.82773">
        <ele>14</ele>
        <time>2020-05-23T10:19:52Z</time>
      </trkpt>
      <trkpt lat="47.10638" lon="-1.82792">
        <ele>13.98</ele>
        <time>2020-05-23T10:19:54Z</time>
      </trkpt>
      <trkpt lat="47.1064" lon="-1.8281">
        <ele>13.3</ele>
        <time>2020-05-23T10:19:56Z</time>
      </trkpt>
      <trkpt lat="47.10643" lon="-1.82828">
        <ele>13.31</ele>
        <time>2020-05-23T10:19:58Z</time>
      </trkpt>
      <trkpt lat="47.10645" lon="-1.82845">
        <ele>13.85</ele>
        <time>2020-05-23T10:20:00Z</time>
      </trkpt>
      <trkpt lat="47.10647" lon="-1.8286">
        <ele>14.19</ele>
        <time>2020-05-23T10:20:02Z</time>
      </trkpt>
      <trkpt lat="47.10649" lon="-1.82874">
        <ele>14.96</ele>
        <time>2020-05-23T10:20:04Z</time>
      </trkpt>
      <trkpt lat="47.10652" lon="-1.82892">
        <ele>15.15</ele>
        <time>2020-05-23T10:20:06Z</time>
      </trkpt>
      <trkpt lat="47.10655" lon="-1.8291">
        <ele>14.4</ele>
        <time>2020-05-23T10:20:08Z</time>
      </trkpt>
      <trkpt lat="47.10657" lon="-1.8293">
        <ele>13.98</ele>
        <time>2020-05-23T10:20:10Z</time>
      </trkpt>
      <trkpt lat="47.1066" lon="-1.82947">
        <ele>14.11</ele>
        <time>2020-05-23T10:20:12Z</time>
      </trkpt>
      <trkpt lat="47.10662" lon="-1.82964">
        <ele>13.71</ele>
        <time>2020-05-23T10:20:14Z</time>
      </trkpt>
      <trkpt lat="47.10666" lon="-1.82982">
        <ele>13.42</ele>
        <time>2020-05-23T10:20:16Z</time>
      </trkpt>
      <trkpt lat="47.10668" lon="-1.83">
        <ele>13.3</ele>
        <time>2020-05-23T10:20:18Z</time>
      </trkpt>
      <trkpt lat="47.1067" lon="-1.83017">
        <ele>13.36</ele>
        <time>2020-05-23T10:20:20Z</time>
      </trkpt>
      <trkpt lat="47.10673" lon="-1.83034">
        <ele>13.32</ele>
        <time>2020-05-23T10:20:22Z</time>
      </trkpt>
      <trkpt lat="47.10678" lon="-1.83052">
        <ele>12.8</ele>
        <time>2020-05-23T10:20:24Z</time>
      </trkpt>
      <trkpt lat="47.10683" lon="-1.83068">
        <ele>12.28</ele>
        <time>2020-05-23T10:20:26Z</time>
      </trkpt>
      <trkpt lat="47.10689" lon="-1.83081">
        <ele>11.94</ele>
        <time>2020-05-23T10:20:28Z</time>
      </trkpt>
      <trkpt lat="47.10697" lon="-1.83095">
        <ele>12.2</ele>
        <time>2020-05-23T10:20:30Z</time>
      </trkpt>
      <trkpt lat="47.10705" lon="-1.83108">
        <ele>12.66</ele>
        <time>2020-05-23T10:20:32Z</time>
      </trkpt>
      <trkpt lat="47.10713" lon="-1.83122">
        <ele>13.41</ele>
        <time>2020-05-23T10:20:34Z</time>
      </trkpt>
      <trkpt lat="47.10721" lon="-1.83134">
        <ele>14.06</ele>
        <time>2020-05-23T10:20:36Z</time>
      </trkpt>
      <trkpt lat="47.10729" lon="-1.83147">
        <ele>13.64</ele>
        <time>2020-05-23T10:20:38Z</time>
      </trkpt>
      <trkpt lat="47.10737" lon="-1.8316">
        <ele>14.27</ele>
        <time>2020-05-23T10:20:40Z</time>
      </trkpt>
      <trkpt lat="47.10742" lon="-1.83174">
        <ele>13.73</ele>
        <time>2020-05-23T10:20:42Z</time>
      </trkpt>
      <trkpt lat="47.10744" lon="-1.83191">
        <ele>12.93</ele>
        <time>2020-05-23T10:20:44Z</time>
      </trkpt>
      <trkpt lat="47.10744" lon="-1.83209">
        <ele>13.14</ele>
        <time>2020-05-23T10:20:46Z</time>
      </trkpt>
      <trkpt lat="47.10744" lon="-1.83225">
        <ele>13.27</ele>
        <time>2020-05-23T10:20:48Z</time>
      </trkpt>
      <trkpt lat="47.10744" lon="-1.83242">
        <ele>15.12</ele>
        <time>2020-05-23T10:20:50Z</time>
      </trkpt>
      <trkpt lat="47.10745" lon="-1.83259">
        <ele>15.41</ele>
        <time>2020-05-23T10:20:52Z</time>
      </trkpt>
      <trkpt lat="47.10745" lon="-1.83274">
        <ele>15.38</ele>
        <time>2020-05-23T10:20:54Z</time>
      </trkpt>
      <trkpt lat="47.10746" lon="-1.83289">
        <ele>15.3</ele>
        <time>2020-05-23T10:20:56Z</time>
      </trkpt>
      <trkpt lat="47.10748" lon="-1.83304">
        <ele>14.77</ele>
        <time>2020-05-23T10:20:58Z</time>
      </trkpt>
      <trkpt lat="47.1075" lon="-1.83323">
        <ele>14.96</ele>
        <time>2020-05-23T10:21:00Z</time>
      </trkpt>
      <trkpt lat="47.10753" lon="-1.8334">
        <ele>14.66</ele>
        <time>2020-05-23T10:21:02Z</time>
      </trkpt>
      <trkpt lat="47.10755" lon="-1.83357">
        <ele>14.22</ele>
        <time>2020-05-23T10:21:04Z</time>
      </trkpt>
      <trkpt lat="47.10758" lon="-1.83376">
        <ele>14.67</ele>
        <time>2020-05-23T10:21:06Z</time>
      </trkpt>
      <trkpt lat="47.10762" lon="-1.83396">
        <ele>13.79</ele>
        <time>2020-05-23T10:21:08Z</time>
      </trkpt>
      <trkpt lat="47.10765" lon="-1.83418">
        <ele>12.38</ele>
        <time>2020-05-23T10:21:10Z</time>
      </trkpt>
      <trkpt lat="47.10768" lon="-1.83437">
        <ele>10.68</ele>
        <time>2020-05-23T10:21:12Z</time>
      </trkpt>
      <trkpt lat="47.10772" lon="-1.83457">
        <ele>9.87</ele>
        <time>2020-05-23T10:21:14Z</time>
      </trkpt>
      <trkpt lat="47.10775" lon="-1.83477">
        <ele>9.41</ele>
        <time>2020-05-23T10:21:16Z</time>
      </trkpt>
      <trkpt lat="47.10779" lon="-1.83498">
        <ele>9.31</ele>
        <time>2020-05-23T10:21:18Z</time>
      </trkpt>
      <trkpt lat="47.10782" lon="-1.83512">
        <ele>9.53</ele>
        <time>2020-05-23T10:21:20Z</time>
      </trkpt>
      <trkpt lat="47.10786" lon="-1.83527">
        <ele>9.34</ele>
        <time>2020-05-23T10:21:22Z</time>
      </trkpt>
      <trkpt lat="47.10791" lon="-1.83545">
        <ele>9.73</ele>
        <time>2020-05-23T10:21:24Z</time>
      </trkpt>
      <trkpt lat="47.10794" lon="-1.8356">
        <ele>10.01</ele>
        <time>2020-05-23T10:21:26Z</time>
      </trkpt>
      <trkpt lat="47.10799" lon="-1.83575">
        <ele>10.48</ele>
        <time>2020-05-23T10:21:28Z</time>
      </trkpt>
      <trkpt lat="47.10802" lon="-1.8359">
        <ele>11.73</ele>
        <time>2020-05-23T10:21:30Z</time>
      </trkpt>
      <trkpt lat="47.10806" lon="-1.83603">
        <ele>12.22</ele>
        <time>2020-05-23T10:21:32Z</time>
      </trkpt>
      <trkpt lat="47.10811" lon="-1.83622">
        <ele>11.79</ele>
        <time>2020-05-23T10:21:34Z</time>
      </trkpt>
      <trkpt lat="47.10815" lon="-1.83636">
        <ele>11.89</ele>
        <time>2020-05-23T10:21:36Z</time>
      </trkpt>
      <trkpt lat="47.10818" lon="-1.83651">
        <ele>12.59</ele>
        <time>2020-05-23T10:21:38Z</time>
      </trkpt>
      <trkpt lat="47.10821" lon="-1.83665">
        <ele>13.26</ele>
        <time>2020-05-23T10:21:40Z</time>
      </trkpt>
      <trkpt lat="47.10825" lon="-1.83682">
        <ele>13.08</ele>
        <time>2020-05-23T10:21:42Z</time>
      </trkpt>
      <trkpt lat="47.10829" lon="-1.83698">
        <ele>13.71</ele>
        <time>2020-05-23T10:21:44Z</time>
      </trkpt>
      <trkpt lat="47.10833" lon="-1.83714">
        <ele>13.32</ele>
        <time>2020-05-23T10:21:46Z</time>
      </trkpt>
      <trkpt lat="47.10836" lon="-1.83728">
        <ele>13.41</ele>
        <time>2020-05-23T10:21:48Z</time>
      </trkpt>
      <trkpt lat="47.1084" lon="-1.83743">
        <ele>14.32</ele>
        <time>2020-05-23T10:21:50Z</time>
      </trkpt>
      <trkpt lat="47.10844" lon="-1.83757">
        <ele>15.03</ele>
        <time>2020-05-23T10:21:52Z</time>
      </trkpt>
      <trkpt lat="47.10849" lon="-1.83774">
        <ele>15.04</ele>
        <time>2020-05-23T10:21:54Z</time>
      </trkpt>
      <trkpt lat="47.10855" lon="-1.83788">
        <ele>14.17</ele>
        <time>2020-05-23T10:21:56Z</time>
      </trkpt>
      <trkpt lat="47.10861" lon="-1.83801">
        <ele>13.21</ele>
        <time>2020-05-23T10:21:58Z</time>
      </trkpt>
      <trkpt lat="47.10868" lon="-1.83816">
        <ele>13.16</ele>
        <time>2020-05-23T10:22:00Z</time>
      </trkpt>
      <trkpt lat="47.10874" lon="-1.83827">
        <ele>12.75</ele>
        <time>2020-05-23T10:22:02Z</time>
      </trkpt>
      <trkpt lat="47.10881" lon="-1.8384">
        <ele>12.76</ele>
        <time>2020-05-23T10:22:04Z</time>
      </trkpt>
      <trkpt lat="47.10889" lon="-1.83852">
        <ele>13.69</ele>
        <time>2020-05-23T10:22:06Z</time>
      </trkpt>
      <trkpt lat="47.10895" lon="-1.83863">
        <ele>13.46</ele>
        <time>2020-05-23T10:22:08Z</time>
      </trkpt>
      <trkpt lat="47.10903" lon="-1.83876">
        <ele>12.72</ele>
        <time>2020-05-23T10:22:10Z</time>
      </trkpt>
      <trkpt lat="47.10909" lon="-1.83888">
        <ele>12.72</ele>
        <time>2020-05-23T10:22:12Z</time>
      </trkpt>
      <trkpt lat="47.10916" lon="-1.83901">
        <ele>12.73</ele>
        <time>2020-05-23T10:22:14Z</time>
      </trkpt>
      <trkpt lat="47.10922" lon="-1.83914">
        <ele>12.46</ele>
        <time>2020-05-23T10:22:16Z</time>
      </trkpt>
      <trkpt lat="47.10929" lon="-1.83928">
        <ele>12.23</ele>
        <time>2020-05-23T10:22:18Z</time>
      </trkpt>
      <trkpt lat="47.10935" lon="-1.8394">
        <ele>12.66</ele>
        <time>2020-05-23T10:22:20Z</time>
      </trkpt>
      <trkpt lat="47.10941" lon="-1.83952">
        <ele>14.08</ele>
        <time>2020-05-23T10:22:22Z</time>
      </trkpt>
      <trkpt lat="47.10948" lon="-1.83967">
        <ele>15.42</ele>
        <time>2020-05-23T10:22:24Z</time>
      </trkpt>
      <trkpt lat="47.10955" lon="-1.8398">
        <ele>15.46</ele>
        <time>2020-05-23T10:22:26Z</time>
      </trkpt>
      <trkpt lat="47.10962" lon="-1.83994">
        <ele>14.54</ele>
        <time>2020-05-23T10:22:28Z</time>
      </trkpt>
      <trkpt lat="47.10969" lon="-1.84006">
        <ele>14.64</ele>
        <time>2020-05-23T10:22:30Z</time>
      </trkpt>
      <trkpt lat="47.10977" lon="-1.84018">
        <ele>14.58</ele>
        <time>2020-05-23T10:22:32Z</time>
      </trkpt>
      <trkpt lat="47.10984" lon="-1.84031">
        <ele>13.43</ele>
        <time>2020-05-23T10:22:34Z</time>
      </trkpt>
      <trkpt lat="47.10991" lon="-1.84045">
        <ele>11.88</ele>
        <time>2020-05-23T10:22:36Z</time>
      </trkpt>
      <trkpt lat="47.10997" lon="-1.84057">
        <ele>11.37</ele>
        <time>2020-05-23T10:22:38Z</time>
      </trkpt>
      <trkpt lat="47.11005" lon="-1.84074">
        <ele>11.29</ele>
        <time>2020-05-23T10:22:40Z</time>
      </trkpt>
      <trkpt lat="47.11011" lon="-1.84085">
        <ele>12</ele>
        <time>2020-05-23T10:22:42Z</time>
      </trkpt>
      <trkpt lat="47.11017" lon="-1.84099">
        <ele>13.06</ele>
        <time>2020-05-23T10:22:44Z</time>
      </trkpt>
      <trkpt lat="47.11022" lon="-1.84112">
        <ele>14.06</ele>
        <time>2020-05-23T10:22:46Z</time>
      </trkpt>
      <trkpt lat="47.11029" lon="-1.84131">
        <ele>13.66</ele>
        <time>2020-05-23T10:22:48Z</time>
      </trkpt>
      <trkpt lat="47.11034" lon="-1.84144">
        <ele>14.16</ele>
        <time>2020-05-23T10:22:50Z</time>
      </trkpt>
      <trkpt lat="47.11042" lon="-1.84161">
        <ele>13.88</ele>
        <time>2020-05-23T10:22:53Z</time>
      </trkpt>
      <trkpt lat="47.11046" lon="-1.84177">
        <ele>13.81</ele>
        <time>2020-05-23T10:22:55Z</time>
      </trkpt>
      <trkpt lat="47.11047" lon="-1.84192">
        <ele>13.49</ele>
        <time>2020-05-23T10:22:57Z</time>
      </trkpt>
      <trkpt lat="47.11048" lon="-1.8421">
        <ele>13.53</ele>
        <time>2020-05-23T10:22:59Z</time>
      </trkpt>
      <trkpt lat="47.11047" lon="-1.84226">
        <ele>13.36</ele>
        <time>2020-05-23T10:23:01Z</time>
      </trkpt>
      <trkpt lat="47.11047" lon="-1.84246">
        <ele>13.08</ele>
        <time>2020-05-23T10:23:03Z</time>
      </trkpt>
      <trkpt lat="47.11046" lon="-1.84262">
        <ele>12.96</ele>
        <time>2020-05-23T10:23:05Z</time>
      </trkpt>
      <trkpt lat="47.11046" lon="-1.84278">
        <ele>13.41</ele>
        <time>2020-05-23T10:23:07Z</time>
      </trkpt>
      <trkpt lat="47.11045" lon="-1.84299">
        <ele>14.38</ele>
        <time>2020-05-23T10:23:09Z</time>
      </trkpt>
      <trkpt lat="47.11045" lon="-1.84315">
        <ele>14.52</ele>
        <time>2020-05-23T10:23:11Z</time>
      </trkpt>
      <trkpt lat="47.11044" lon="-1.84331">
        <ele>14.79</ele>
        <time>2020-05-23T10:23:13Z</time>
      </trkpt>
      <trkpt lat="47.11044" lon="-1.84348">
        <ele>14.14</ele>
        <time>2020-05-23T10:23:15Z</time>
      </trkpt>
      <trkpt lat="47.11044" lon="-1.84366">
        <ele>14.22</ele>
        <time>2020-05-23T10:23:17Z</time>
      </trkpt>
      <trkpt lat="47.11044" lon="-1.84384">
        <ele>13.53</ele>
        <time>2020-05-23T10:23:19Z</time>
      </trkpt>
      <trkpt lat="47.11045" lon="-1.84404">
        <ele>11.93</ele>
        <time>2020-05-23T10:23:21Z</time>
      </trkpt>
      <trkpt lat="47.11045" lon="-1.84421">
        <ele>11.26</ele>
        <time>2020-05-23T10:23:23Z</time>
      </trkpt>
      <trkpt lat="47.11044" lon="-1.84437">
        <ele>9.91</ele>
        <time>2020-05-23T10:23:25Z</time>
      </trkpt>
      <trkpt lat="47.11044" lon="-1.84456">
        <ele>9.41</ele>
        <time>2020-05-23T10:23:27Z</time>
      </trkpt>
      <trkpt lat="47.11044" lon="-1.84472">
        <ele>9.83</ele>
        <time>2020-05-23T10:23:29Z</time>
      </trkpt>
      <trkpt lat="47.11044" lon="-1.8449">
        <ele>9.71</ele>
        <time>2020-05-23T10:23:31Z</time>
      </trkpt>
      <trkpt lat="47.11044" lon="-1.84506">
        <ele>9.69</ele>
        <time>2020-05-23T10:23:33Z</time>
      </trkpt>
      <trkpt lat="47.11043" lon="-1.84524">
        <ele>8.84</ele>
        <time>2020-05-23T10:23:35Z</time>
      </trkpt>
      <trkpt lat="47.11042" lon="-1.84539">
        <ele>9.43</ele>
        <time>2020-05-23T10:23:37Z</time>
      </trkpt>
      <trkpt lat="47.11041" lon="-1.84553">
        <ele>9</ele>
        <time>2020-05-23T10:23:39Z</time>
      </trkpt>
      <trkpt lat="47.1104" lon="-1.84572">
        <ele>9.59</ele>
        <time>2020-05-23T10:23:41Z</time>
      </trkpt>
      <trkpt lat="47.11039" lon="-1.84587">
        <ele>9.21</ele>
        <time>2020-05-23T10:23:43Z</time>
      </trkpt>
      <trkpt lat="47.11037" lon="-1.84603">
        <ele>9.78</ele>
        <time>2020-05-23T10:23:45Z</time>
      </trkpt>
      <trkpt lat="47.11035" lon="-1.8462">
        <ele>9.82</ele>
        <time>2020-05-23T10:23:47Z</time>
      </trkpt>
      <trkpt lat="47.11033" lon="-1.84638">
        <ele>8.97</ele>
        <time>2020-05-23T10:23:49Z</time>
      </trkpt>
      <trkpt lat="47.1103" lon="-1.84659">
        <ele>7.62</ele>
        <time>2020-05-23T10:23:51Z</time>
      </trkpt>
      <trkpt lat="47.11027" lon="-1.84675">
        <ele>7.05</ele>
        <time>2020-05-23T10:23:53Z</time>
      </trkpt>
      <trkpt lat="47.11024" lon="-1.84693">
        <ele>7.02</ele>
        <time>2020-05-23T10:23:55Z</time>
      </trkpt>
      <trkpt lat="47.11021" lon="-1.84711">
        <ele>6.55</ele>
        <time>2020-05-23T10:23:57Z</time>
      </trkpt>
      <trkpt lat="47.11018" lon="-1.8473">
        <ele>5.81</ele>
        <time>2020-05-23T10:23:59Z</time>
      </trkpt>
      <trkpt lat="47.11016" lon="-1.84747">
        <ele>5.6</ele>
        <time>2020-05-23T10:24:01Z</time>
      </trkpt>
      <trkpt lat="47.11013" lon="-1.84767">
        <ele>5.33</ele>
        <time>2020-05-23T10:24:03Z</time>
      </trkpt>
      <trkpt lat="47.1101" lon="-1.84786">
        <ele>5.07</ele>
        <time>2020-05-23T10:24:05Z</time>
      </trkpt>
      <trkpt lat="47.11007" lon="-1.84804">
        <ele>4.45</ele>
        <time>2020-05-23T10:24:07Z</time>
      </trkpt>
      <trkpt lat="47.11005" lon="-1.84824">
        <ele>4.2</ele>
        <time>2020-05-23T10:24:09Z</time>
      </trkpt>
      <trkpt lat="47.11005" lon="-1.84843">
        <ele>3.86</ele>
        <time>2020-05-23T10:24:11Z</time>
      </trkpt>
      <trkpt lat="47.11009" lon="-1.84857">
        <ele>3.56</ele>
        <time>2020-05-23T10:24:13Z</time>
      </trkpt>
      <trkpt lat="47.11008" lon="-1.84875">
        <ele>3.81</ele>
        <time>2020-05-23T10:24:15Z</time>
      </trkpt>
      <trkpt lat="47.11003" lon="-1.84892">
        <ele>4.28</ele>
        <time>2020-05-23T10:24:17Z</time>
      </trkpt>
      <trkpt lat="47.10997" lon="-1.84909">
        <ele>4.76</ele>
        <time>2020-05-23T10:24:19Z</time>
      </trkpt>
      <trkpt lat="47.10993" lon="-1.84924">
        <ele>4.79</ele>
        <time>2020-05-23T10:24:21Z</time>
      </trkpt>
      <trkpt lat="47.10989" lon="-1.84941">
        <ele>4.69</ele>
        <time>2020-05-23T10:24:23Z</time>
      </trkpt>
      <trkpt lat="47.10986" lon="-1.8496">
        <ele>4.48</ele>
        <time>2020-05-23T10:24:25Z</time>
      </trkpt>
      <trkpt lat="47.10986" lon="-1.84977">
        <ele>3.56</ele>
        <time>2020-05-23T10:24:27Z</time>
      </trkpt>
      <trkpt lat="47.10985" lon="-1.84998">
        <ele>3.04</ele>
        <time>2020-05-23T10:24:29Z</time>
      </trkpt>
      <trkpt lat="47.10985" lon="-1.85016">
        <ele>3.17</ele>
        <time>2020-05-23T10:24:31Z</time>
      </trkpt>
      <trkpt lat="47.10984" lon="-1.85031">
        <ele>4.45</ele>
        <time>2020-05-23T10:24:33Z</time>
      </trkpt>
      <trkpt lat="47.10983" lon="-1.85051">
        <ele>5</ele>
        <time>2020-05-23T10:24:35Z</time>
      </trkpt>
      <trkpt lat="47.10982" lon="-1.85068">
        <ele>4.91</ele>
        <time>2020-05-23T10:24:37Z</time>
      </trkpt>
      <trkpt lat="47.10982" lon="-1.85084">
        <ele>4.84</ele>
        <time>2020-05-23T10:24:39Z</time>
      </trkpt>
      <trkpt lat="47.10981" lon="-1.85101">
        <ele>5</ele>
        <time>2020-05-23T10:24:41Z</time>
      </trkpt>
      <trkpt lat="47.1098" lon="-1.8512">
        <ele>5.35</ele>
        <time>2020-05-23T10:24:43Z</time>
      </trkpt>
      <trkpt lat="47.10979" lon="-1.85137">
        <ele>6.74</ele>
        <time>2020-05-23T10:24:45Z</time>
      </trkpt>
      <trkpt lat="47.10977" lon="-1.85151">
        <ele>7.15</ele>
        <time>2020-05-23T10:24:47Z</time>
      </trkpt>
      <trkpt lat="47.10975" lon="-1.85166">
        <ele>7.02</ele>
        <time>2020-05-23T10:24:49Z</time>
      </trkpt>
      <trkpt lat="47.10971" lon="-1.85184">
        <ele>6.62</ele>
        <time>2020-05-23T10:24:51Z</time>
      </trkpt>
      <trkpt lat="47.10966" lon="-1.852">
        <ele>5.66</ele>
        <time>2020-05-23T10:24:53Z</time>
      </trkpt>
      <trkpt lat="47.10961" lon="-1.8522">
        <ele>5.04</ele>
        <time>2020-05-23T10:24:55Z</time>
      </trkpt>
      <trkpt lat="47.10957" lon="-1.85234">
        <ele>4.67</ele>
        <time>2020-05-23T10:24:57Z</time>
      </trkpt>
      <trkpt lat="47.10951" lon="-1.8525">
        <ele>4.3</ele>
        <time>2020-05-23T10:24:59Z</time>
      </trkpt>
      <trkpt lat="47.10946" lon="-1.85267">
        <ele>3.98</ele>
        <time>2020-05-23T10:25:01Z</time>
      </trkpt>
      <trkpt lat="47.10942" lon="-1.85283">
        <ele>4.41</ele>
        <time>2020-05-23T10:25:03Z</time>
      </trkpt>
      <trkpt lat="47.10937" lon="-1.85301">
        <ele>4.46</ele>
        <time>2020-05-23T10:25:05Z</time>
      </trkpt>
      <trkpt lat="47.10932" lon="-1.85315">
        <ele>3.7</ele>
        <time>2020-05-23T10:25:07Z</time>
      </trkpt>
      <trkpt lat="47.10927" lon="-1.85331">
        <ele>3.76</ele>
        <time>2020-05-23T10:25:09Z</time>
      </trkpt>
      <trkpt lat="47.10922" lon="-1.85347">
        <ele>3.2</ele>
        <time>2020-05-23T10:25:11Z</time>
      </trkpt>
      <trkpt lat="47.10918" lon="-1.85361">
        <ele>3.49</ele>
        <time>2020-05-23T10:25:13Z</time>
      </trkpt>
      <trkpt lat="47.10913" lon="-1.85376">
        <ele>4.18</ele>
        <time>2020-05-23T10:25:15Z</time>
      </trkpt>
      <trkpt lat="47.10909" lon="-1.85392">
        <ele>4.63</ele>
        <time>2020-05-23T10:25:17Z</time>
      </trkpt>
      <trkpt lat="47.10904" lon="-1.85407">
        <ele>5.21</ele>
        <time>2020-05-23T10:25:19Z</time>
      </trkpt>
      <trkpt lat="47.109" lon="-1.85421">
        <ele>5.21</ele>
        <time>2020-05-23T10:25:21Z</time>
      </trkpt>
      <trkpt lat="47.10895" lon="-1.8544">
        <ele>4.56</ele>
        <time>2020-05-23T10:25:23Z</time>
      </trkpt>
      <trkpt lat="47.1089" lon="-1.85456">
        <ele>4.42</ele>
        <time>2020-05-23T10:25:25Z</time>
      </trkpt>
      <trkpt lat="47.10885" lon="-1.85474">
        <ele>4.94</ele>
        <time>2020-05-23T10:25:27Z</time>
      </trkpt>
      <trkpt lat="47.1088" lon="-1.85492">
        <ele>5.28</ele>
        <time>2020-05-23T10:25:29Z</time>
      </trkpt>
      <trkpt lat="47.10875" lon="-1.85509">
        <ele>5.29</ele>
        <time>2020-05-23T10:25:31Z</time>
      </trkpt>
      <trkpt lat="47.10871" lon="-1.85525">
        <ele>5.51</ele>
        <time>2020-05-23T10:25:33Z</time>
      </trkpt>
      <trkpt lat="47.10867" lon="-1.85541">
        <ele>4.96</ele>
        <time>2020-05-23T10:25:35Z</time>
      </trkpt>
      <trkpt lat="47.10862" lon="-1.85557">
        <ele>5.27</ele>
        <time>2020-05-23T10:25:37Z</time>
      </trkpt>
      <trkpt lat="47.10857" lon="-1.85576">
        <ele>5.38</ele>
        <time>2020-05-23T10:25:39Z</time>
      </trkpt>
      <trkpt lat="47.10853" lon="-1.85594">
        <ele>6.18</ele>
        <time>2020-05-23T10:25:41Z</time>
      </trkpt>
      <trkpt lat="47.10848" lon="-1.85611">
        <ele>6.73</ele>
        <time>2020-05-23T10:25:43Z</time>
      </trkpt>
      <trkpt lat="47.10845" lon="-1.85627">
        <ele>6.63</ele>
        <time>2020-05-23T10:25:45Z</time>
      </trkpt>
      <trkpt lat="47.10841" lon="-1.85646">
        <ele>7.14</ele>
        <time>2020-05-23T10:25:47Z</time>
      </trkpt>
      <trkpt lat="47.10838" lon="-1.85662">
        <ele>7.31</ele>
        <time>2020-05-23T10:25:49Z</time>
      </trkpt>
      <trkpt lat="47.10836" lon="-1.85678">
        <ele>7.41</ele>
        <time>2020-05-23T10:25:51Z</time>
      </trkpt>
      <trkpt lat="47.10832" lon="-1.85698">
        <ele>7.27</ele>
        <time>2020-05-23T10:25:53Z</time>
      </trkpt>
      <trkpt lat="47.10829" lon="-1.85715">
        <ele>6.49</ele>
        <time>2020-05-23T10:25:55Z</time>
      </trkpt>
      <trkpt lat="47.10826" lon="-1.85733">
        <ele>5.25</ele>
        <time>2020-05-23T10:25:57Z</time>
      </trkpt>
      <trkpt lat="47.10823" lon="-1.8575">
        <ele>4.19</ele>
        <time>2020-05-23T10:25:59Z</time>
      </trkpt>
      <trkpt lat="47.1082" lon="-1.85768">
        <ele>3.13</ele>
        <time>2020-05-23T10:26:01Z</time>
      </trkpt>
      <trkpt lat="47.10817" lon="-1.85784">
        <ele>2.88</ele>
        <time>2020-05-23T10:26:03Z</time>
      </trkpt>
      <trkpt lat="47.10814" lon="-1.85797">
        <ele>3.72</ele>
        <time>2020-05-23T10:26:05Z</time>
      </trkpt>
      <trkpt lat="47.10811" lon="-1.85814">
        <ele>3.3</ele>
        <time>2020-05-23T10:26:07Z</time>
      </trkpt>
      <trkpt lat="47.10808" lon="-1.85829">
        <ele>2.72</ele>
        <time>2020-05-23T10:26:09Z</time>
      </trkpt>
      <trkpt lat="47.10804" lon="-1.85847">
        <ele>2.51</ele>
        <time>2020-05-23T10:26:11Z</time>
      </trkpt>
      <trkpt lat="47.10799" lon="-1.85865">
        <ele>2.63</ele>
        <time>2020-05-23T10:26:13Z</time>
      </trkpt>
      <trkpt lat="47.10795" lon="-1.85881">
        <ele>3.13</ele>
        <time>2020-05-23T10:26:15Z</time>
      </trkpt>
      <trkpt lat="47.1079" lon="-1.85897">
        <ele>3.65</ele>
        <time>2020-05-23T10:26:18Z</time>
      </trkpt>
      <trkpt lat="47.10785" lon="-1.85911">
        <ele>4.57</ele>
        <time>2020-05-23T10:26:19Z</time>
      </trkpt>
      <trkpt lat="47.10779" lon="-1.85929">
        <ele>5.75</ele>
        <time>2020-05-23T10:26:21Z</time>
      </trkpt>
      <trkpt lat="47.10774" lon="-1.85943">
        <ele>6.21</ele>
        <time>2020-05-23T10:26:24Z</time>
      </trkpt>
      <trkpt lat="47.10768" lon="-1.8596">
        <ele>6.62</ele>
        <time>2020-05-23T10:26:26Z</time>
      </trkpt>
      <trkpt lat="47.10762" lon="-1.85977">
        <ele>6.48</ele>
        <time>2020-05-23T10:26:28Z</time>
      </trkpt>
      <trkpt lat="47.10757" lon="-1.85993">
        <ele>5.59</ele>
        <time>2020-05-23T10:26:30Z</time>
      </trkpt>
      <trkpt lat="47.10752" lon="-1.86009">
        <ele>5.35</ele>
        <time>2020-05-23T10:26:32Z</time>
      </trkpt>
      <trkpt lat="47.10747" lon="-1.86023">
        <ele>5.18</ele>
        <time>2020-05-23T10:26:34Z</time>
      </trkpt>
      <trkpt lat="47.10741" lon="-1.86039">
        <ele>5.51</ele>
        <time>2020-05-23T10:26:36Z</time>
      </trkpt>
      <trkpt lat="47.10733" lon="-1.86053">
        <ele>4.57</ele>
        <time>2020-05-23T10:26:38Z</time>
      </trkpt>
      <trkpt lat="47.10727" lon="-1.86063">
        <ele>4.77</ele>
        <time>2020-05-23T10:26:40Z</time>
      </trkpt>
      <trkpt lat="47.1072" lon="-1.86075">
        <ele>5.02</ele>
        <time>2020-05-23T10:26:42Z</time>
      </trkpt>
      <trkpt lat="47.10712" lon="-1.86086">
        <ele>5.49</ele>
        <time>2020-05-23T10:26:44Z</time>
      </trkpt>
      <trkpt lat="47.10702" lon="-1.861">
        <ele>5.2</ele>
        <time>2020-05-23T10:26:46Z</time>
      </trkpt>
      <trkpt lat="47.10693" lon="-1.8611">
        <ele>5.29</ele>
        <time>2020-05-23T10:26:48Z</time>
      </trkpt>
      <trkpt lat="47.10684" lon="-1.86121">
        <ele>5.37</ele>
        <time>2020-05-23T10:26:50Z</time>
      </trkpt>
      <trkpt lat="47.10676" lon="-1.86131">
        <ele>5.39</ele>
        <time>2020-05-23T10:26:52Z</time>
      </trkpt>
      <trkpt lat="47.10666" lon="-1.86143">
        <ele>5.17</ele>
        <time>2020-05-23T10:26:54Z</time>
      </trkpt>
      <trkpt lat="47.10659" lon="-1.86153">
        <ele>4.48</ele>
        <time>2020-05-23T10:26:56Z</time>
      </trkpt>
      <trkpt lat="47.10649" lon="-1.86164">
        <ele>5.26</ele>
        <time>2020-05-23T10:26:58Z</time>
      </trkpt>
      <trkpt lat="47.10641" lon="-1.86175">
        <ele>6.07</ele>
        <time>2020-05-23T10:27:00Z</time>
      </trkpt>
      <trkpt lat="47.10634" lon="-1.86184">
        <ele>6.22</ele>
        <time>2020-05-23T10:27:02Z</time>
      </trkpt>
      <trkpt lat="47.10625" lon="-1.86196">
        <ele>6.67</ele>
        <time>2020-05-23T10:27:04Z</time>
      </trkpt>
      <trkpt lat="47.10616" lon="-1.86207">
        <ele>6.9</ele>
        <time>2020-05-23T10:27:06Z</time>
      </trkpt>
      <trkpt lat="47.10608" lon="-1.86219">
        <ele>6.9</ele>
        <time>2020-05-23T10:27:08Z</time>
      </trkpt>
      <trkpt lat="47.10601" lon="-1.86228">
        <ele>7.8</ele>
        <time>2020-05-23T10:27:10Z</time>
      </trkpt>
      <trkpt lat="47.10592" lon="-1.8624">
        <ele>8.11</ele>
        <time>2020-05-23T10:27:12Z</time>
      </trkpt>
      <trkpt lat="47.10583" lon="-1.86252">
        <ele>8.56</ele>
        <time>2020-05-23T10:27:14Z</time>
      </trkpt>
      <trkpt lat="47.10576" lon="-1.86262">
        <ele>8.35</ele>
        <time>2020-05-23T10:27:16Z</time>
      </trkpt>
      <trkpt lat="47.10568" lon="-1.86273">
        <ele>8.34</ele>
        <time>2020-05-23T10:27:18Z</time>
      </trkpt>
      <trkpt lat="47.1056" lon="-1.86284">
        <ele>8.77</ele>
        <time>2020-05-23T10:27:20Z</time>
      </trkpt>
      <trkpt lat="47.10553" lon="-1.86293">
        <ele>9.44</ele>
        <time>2020-05-23T10:27:22Z</time>
      </trkpt>
      <trkpt lat="47.10543" lon="-1.86308">
        <ele>9.89</ele>
        <time>2020-05-23T10:27:25Z</time>
      </trkpt>
      <trkpt lat="47.10534" lon="-1.8632">
        <ele>9.82</ele>
        <time>2020-05-23T10:27:27Z</time>
      </trkpt>
      <trkpt lat="47.10523" lon="-1.86334">
        <ele>10.37</ele>
        <time>2020-05-23T10:27:30Z</time>
      </trkpt>
      <trkpt lat="47.10515" lon="-1.86344">
        <ele>11.25</ele>
        <time>2020-05-23T10:27:32Z</time>
      </trkpt>
      <trkpt lat="47.10506" lon="-1.86354">
        <ele>11.9</ele>
        <time>2020-05-23T10:27:34Z</time>
      </trkpt>
      <trkpt lat="47.10496" lon="-1.86363">
        <ele>12.74</ele>
        <time>2020-05-23T10:27:36Z</time>
      </trkpt>
      <trkpt lat="47.10487" lon="-1.8637">
        <ele>12.6</ele>
        <time>2020-05-23T10:27:38Z</time>
      </trkpt>
      <trkpt lat="47.10477" lon="-1.86377">
        <ele>11.53</ele>
        <time>2020-05-23T10:27:40Z</time>
      </trkpt>
      <trkpt lat="47.10466" lon="-1.86386">
        <ele>11.09</ele>
        <time>2020-05-23T10:27:42Z</time>
      </trkpt>
      <trkpt lat="47.10455" lon="-1.86394">
        <ele>11.65</ele>
        <time>2020-05-23T10:27:44Z</time>
      </trkpt>
      <trkpt lat="47.10445" lon="-1.86402">
        <ele>12.33</ele>
        <time>2020-05-23T10:27:46Z</time>
      </trkpt>
      <trkpt lat="47.10436" lon="-1.86409">
        <ele>13.13</ele>
        <time>2020-05-23T10:27:48Z</time>
      </trkpt>
      <trkpt lat="47.10425" lon="-1.86417">
        <ele>12.69</ele>
        <time>2020-05-23T10:27:50Z</time>
      </trkpt>
      <trkpt lat="47.10416" lon="-1.86424">
        <ele>12.77</ele>
        <time>2020-05-23T10:27:52Z</time>
      </trkpt>
      <trkpt lat="47.10407" lon="-1.86431">
        <ele>12.72</ele>
        <time>2020-05-23T10:27:54Z</time>
      </trkpt>
      <trkpt lat="47.10396" lon="-1.86438">
        <ele>12.4</ele>
        <time>2020-05-23T10:27:56Z</time>
      </trkpt>
      <trkpt lat="47.10386" lon="-1.86445">
        <ele>12.47</ele>
        <time>2020-05-23T10:27:58Z</time>
      </trkpt>
      <trkpt lat="47.10374" lon="-1.8645">
        <ele>12.8</ele>
        <time>2020-05-23T10:28:00Z</time>
      </trkpt>
      <trkpt lat="47.10363" lon="-1.86456">
        <ele>12.39</ele>
        <time>2020-05-23T10:28:02Z</time>
      </trkpt>
      <trkpt lat="47.10352" lon="-1.86461">
        <ele>12.04</ele>
        <time>2020-05-23T10:28:04Z</time>
      </trkpt>
      <trkpt lat="47.10342" lon="-1.86466">
        <ele>10.63</ele>
        <time>2020-05-23T10:28:06Z</time>
      </trkpt>
      <trkpt lat="47.10332" lon="-1.86473">
        <ele>8.74</ele>
        <time>2020-05-23T10:28:08Z</time>
      </trkpt>
      <trkpt lat="47.10335" lon="-1.8649">
        <ele>6</ele>
        <time>2020-05-23T10:28:11Z</time>
      </trkpt>
      <trkpt lat="47.10341" lon="-1.86504">
        <ele>6.22</ele>
        <time>2020-05-23T10:28:13Z</time>
      </trkpt>
      <trkpt lat="47.10349" lon="-1.86518">
        <ele>7.24</ele>
        <time>2020-05-23T10:28:15Z</time>
      </trkpt>
      <trkpt lat="47.10355" lon="-1.86531">
        <ele>9.2</ele>
        <time>2020-05-23T10:28:17Z</time>
      </trkpt>
      <trkpt lat="47.10361" lon="-1.86545">
        <ele>10.67</ele>
        <time>2020-05-23T10:28:19Z</time>
      </trkpt>
      <trkpt lat="47.10367" lon="-1.86559">
        <ele>11.75</ele>
        <time>2020-05-23T10:28:21Z</time>
      </trkpt>
      <trkpt lat="47.10371" lon="-1.86572">
        <ele>12.98</ele>
        <time>2020-05-23T10:28:23Z</time>
      </trkpt>
      <trkpt lat="47.10374" lon="-1.86593">
        <ele>12.59</ele>
        <time>2020-05-23T10:28:26Z</time>
      </trkpt>
      <trkpt lat="47.10377" lon="-1.86607">
        <ele>13.2</ele>
        <time>2020-05-23T10:28:28Z</time>
      </trkpt>
      <trkpt lat="47.10383" lon="-1.86622">
        <ele>13.39</ele>
        <time>2020-05-23T10:28:30Z</time>
      </trkpt>
      <trkpt lat="47.10388" lon="-1.86636">
        <ele>13.5</ele>
        <time>2020-05-23T10:28:32Z</time>
      </trkpt>
      <trkpt lat="47.10388" lon="-1.86652">
        <ele>13.73</ele>
        <time>2020-05-23T10:28:34Z</time>
      </trkpt>
      <trkpt lat="47.10385" lon="-1.86665">
        <ele>13.18</ele>
        <time>2020-05-23T10:28:36Z</time>
      </trkpt>
      <trkpt lat="47.10382" lon="-1.86679">
        <ele>12.48</ele>
        <time>2020-05-23T10:28:38Z</time>
      </trkpt>
      <trkpt lat="47.10381" lon="-1.86697">
        <ele>12.26</ele>
        <time>2020-05-23T10:28:40Z</time>
      </trkpt>
      <trkpt lat="47.10384" lon="-1.86713">
        <ele>12.92</ele>
        <time>2020-05-23T10:28:42Z</time>
      </trkpt>
      <trkpt lat="47.10387" lon="-1.86727">
        <ele>12.75</ele>
        <time>2020-05-23T10:28:44Z</time>
      </trkpt>
      <trkpt lat="47.1039" lon="-1.86742">
        <ele>12.79</ele>
        <time>2020-05-23T10:28:46Z</time>
      </trkpt>
      <trkpt lat="47.10393" lon="-1.86758">
        <ele>13.21</ele>
        <time>2020-05-23T10:28:48Z</time>
      </trkpt>
      <trkpt lat="47.10397" lon="-1.86775">
        <ele>14.78</ele>
        <time>2020-05-23T10:28:50Z</time>
      </trkpt>
      <trkpt lat="47.10399" lon="-1.86789">
        <ele>15.59</ele>
        <time>2020-05-23T10:28:52Z</time>
      </trkpt>
      <trkpt lat="47.10404" lon="-1.86807">
        <ele>14.18</ele>
        <time>2020-05-23T10:28:55Z</time>
      </trkpt>
      <trkpt lat="47.10407" lon="-1.86824">
        <ele>13.26</ele>
        <time>2020-05-23T10:28:57Z</time>
      </trkpt>
      <trkpt lat="47.1041" lon="-1.86839">
        <ele>13.67</ele>
        <time>2020-05-23T10:28:59Z</time>
      </trkpt>
      <trkpt lat="47.10413" lon="-1.86854">
        <ele>15.55</ele>
        <time>2020-05-23T10:29:01Z</time>
      </trkpt>
      <trkpt lat="47.10416" lon="-1.86868">
        <ele>16.04</ele>
        <time>2020-05-23T10:29:03Z</time>
      </trkpt>
      <trkpt lat="47.10418" lon="-1.86882">
        <ele>15.77</ele>
        <time>2020-05-23T10:29:05Z</time>
      </trkpt>
      <trkpt lat="47.10422" lon="-1.86898">
        <ele>15.14</ele>
        <time>2020-05-23T10:29:07Z</time>
      </trkpt>
      <trkpt lat="47.10426" lon="-1.86917">
        <ele>14.03</ele>
        <time>2020-05-23T10:29:10Z</time>
      </trkpt>
      <trkpt lat="47.1043" lon="-1.86934">
        <ele>13.55</ele>
        <time>2020-05-23T10:29:12Z</time>
      </trkpt>
      <trkpt lat="47.10433" lon="-1.86951">
        <ele>13.48</ele>
        <time>2020-05-23T10:29:14Z</time>
      </trkpt>
      <trkpt lat="47.10436" lon="-1.86965">
        <ele>12.69</ele>
        <time>2020-05-23T10:29:16Z</time>
      </trkpt>
      <trkpt lat="47.10439" lon="-1.86981">
        <ele>12.74</ele>
        <time>2020-05-23T10:29:18Z</time>
      </trkpt>
      <trkpt lat="47.10441" lon="-1.86995">
        <ele>13.49</ele>
        <time>2020-05-23T10:29:20Z</time>
      </trkpt>
      <trkpt lat="47.10444" lon="-1.8701">
        <ele>14.52</ele>
        <time>2020-05-23T10:29:22Z</time>
      </trkpt>
      <trkpt lat="47.10447" lon="-1.87026">
        <ele>15.13</ele>
        <time>2020-05-23T10:29:24Z</time>
      </trkpt>
      <trkpt lat="47.1045" lon="-1.8704">
        <ele>14.76</ele>
        <time>2020-05-23T10:29:26Z</time>
      </trkpt>
      <trkpt lat="47.10453" lon="-1.87056">
        <ele>13.79</ele>
        <time>2020-05-23T10:29:28Z</time>
      </trkpt>
      <trkpt lat="47.10456" lon="-1.87073">
        <ele>13.47</ele>
        <time>2020-05-23T10:29:30Z</time>
      </trkpt>
      <trkpt lat="47.1046" lon="-1.8709">
        <ele>14.23</ele>
        <time>2020-05-23T10:29:32Z</time>
      </trkpt>
      <trkpt lat="47.10463" lon="-1.87106">
        <ele>13.98</ele>
        <time>2020-05-23T10:29:34Z</time>
      </trkpt>
      <trkpt lat="47.10467" lon="-1.87121">
        <ele>14.69</ele>
        <time>2020-05-23T10:29:36Z</time>
      </trkpt>
      <trkpt lat="47.1047" lon="-1.87137">
        <ele>14.99</ele>
        <time>2020-05-23T10:29:38Z</time>
      </trkpt>
      <trkpt lat="47.10474" lon="-1.87151">
        <ele>15.77</ele>
        <time>2020-05-23T10:29:40Z</time>
      </trkpt>
      <trkpt lat="47.10478" lon="-1.87169">
        <ele>15.75</ele>
        <time>2020-05-23T10:29:42Z</time>
      </trkpt>
      <trkpt lat="47.10482" lon="-1.87183">
        <ele>15.53</ele>
        <time>2020-05-23T10:29:44Z</time>
      </trkpt>
      <trkpt lat="47.10487" lon="-1.87197">
        <ele>14.66</ele>
        <time>2020-05-23T10:29:46Z</time>
      </trkpt>
      <trkpt lat="47.10494" lon="-1.8721">
        <ele>14.03</ele>
        <time>2020-05-23T10:29:48Z</time>
      </trkpt>
      <trkpt lat="47.10499" lon="-1.87227">
        <ele>12.72</ele>
        <time>2020-05-23T10:29:50Z</time>
      </trkpt>
      <trkpt lat="47.10503" lon="-1.87245">
        <ele>11.98</ele>
        <time>2020-05-23T10:29:52Z</time>
      </trkpt>
      <trkpt lat="47.10508" lon="-1.87265">
        <ele>11.08</ele>
        <time>2020-05-23T10:29:54Z</time>
      </trkpt>
      <trkpt lat="47.10513" lon="-1.87282">
        <ele>9.96</ele>
        <time>2020-05-23T10:29:56Z</time>
      </trkpt>
      <trkpt lat="47.10518" lon="-1.87298">
        <ele>10.64</ele>
        <time>2020-05-23T10:29:58Z</time>
      </trkpt>
      <trkpt lat="47.10522" lon="-1.87315">
        <ele>11.04</ele>
        <time>2020-05-23T10:30:00Z</time>
      </trkpt>
      <trkpt lat="47.10527" lon="-1.87333">
        <ele>11.24</ele>
        <time>2020-05-23T10:30:02Z</time>
      </trkpt>
      <trkpt lat="47.1053" lon="-1.8735">
        <ele>11.21</ele>
        <time>2020-05-23T10:30:04Z</time>
      </trkpt>
      <trkpt lat="47.10534" lon="-1.87367">
        <ele>10.8</ele>
        <time>2020-05-23T10:30:06Z</time>
      </trkpt>
      <trkpt lat="47.10537" lon="-1.87382">
        <ele>10.12</ele>
        <time>2020-05-23T10:30:08Z</time>
      </trkpt>
      <trkpt lat="47.10541" lon="-1.87402">
        <ele>9.32</ele>
        <time>2020-05-23T10:30:10Z</time>
      </trkpt>
      <trkpt lat="47.10543" lon="-1.87419">
        <ele>9.07</ele>
        <time>2020-05-23T10:30:12Z</time>
      </trkpt>
      <trkpt lat="47.10547" lon="-1.87438">
        <ele>8.15</ele>
        <time>2020-05-23T10:30:14Z</time>
      </trkpt>
      <trkpt lat="47.1055" lon="-1.87456">
        <ele>7.64</ele>
        <time>2020-05-23T10:30:16Z</time>
      </trkpt>
      <trkpt lat="47.10553" lon="-1.87473">
        <ele>7.91</ele>
        <time>2020-05-23T10:30:18Z</time>
      </trkpt>
      <trkpt lat="47.10557" lon="-1.87494">
        <ele>7.48</ele>
        <time>2020-05-23T10:30:20Z</time>
      </trkpt>
      <trkpt lat="47.1056" lon="-1.87513">
        <ele>7.31</ele>
        <time>2020-05-23T10:30:22Z</time>
      </trkpt>
      <trkpt lat="47.10563" lon="-1.87528">
        <ele>7.46</ele>
        <time>2020-05-23T10:30:24Z</time>
      </trkpt>
      <trkpt lat="47.10567" lon="-1.87546">
        <ele>7.27</ele>
        <time>2020-05-23T10:30:26Z</time>
      </trkpt>
      <trkpt lat="47.1057" lon="-1.87568">
        <ele>7.43</ele>
        <time>2020-05-23T10:30:28Z</time>
      </trkpt>
      <trkpt lat="47.10573" lon="-1.87585">
        <ele>8.39</ele>
        <time>2020-05-23T10:30:30Z</time>
      </trkpt>
      <trkpt lat="47.10577" lon="-1.87601">
        <ele>8.39</ele>
        <time>2020-05-23T10:30:32Z</time>
      </trkpt>
      <trkpt lat="47.10581" lon="-1.87621">
        <ele>8.8</ele>
        <time>2020-05-23T10:30:34Z</time>
      </trkpt>
      <trkpt lat="47.10585" lon="-1.87642">
        <ele>9.88</ele>
        <time>2020-05-23T10:30:36Z</time>
      </trkpt>
      <trkpt lat="47.1059" lon="-1.87659">
        <ele>9.83</ele>
        <time>2020-05-23T10:30:38Z</time>
      </trkpt>
      <trkpt lat="47.10595" lon="-1.87675">
        <ele>10.11</ele>
        <time>2020-05-23T10:30:40Z</time>
      </trkpt>
      <trkpt lat="47.106" lon="-1.8769">
        <ele>10.35</ele>
        <time>2020-05-23T10:30:42Z</time>
      </trkpt>
      <trkpt lat="47.10607" lon="-1.87708">
        <ele>10.25</ele>
        <time>2020-05-23T10:30:44Z</time>
      </trkpt>
      <trkpt lat="47.10613" lon="-1.87724">
        <ele>10.73</ele>
        <time>2020-05-23T10:30:46Z</time>
      </trkpt>
      <trkpt lat="47.10619" lon="-1.8774">
        <ele>10.66</ele>
        <time>2020-05-23T10:30:48Z</time>
      </trkpt>
      <trkpt lat="47.10626" lon="-1.87758">
        <ele>10.91</ele>
        <time>2020-05-23T10:30:50Z</time>
      </trkpt>
      <trkpt lat="47.10632" lon="-1.87774">
        <ele>10.34</ele>
        <time>2020-05-23T10:30:52Z</time>
      </trkpt>
      <trkpt lat="47.10637" lon="-1.8779">
        <ele>9.41</ele>
        <time>2020-05-23T10:30:54Z</time>
      </trkpt>
      <trkpt lat="47.10644" lon="-1.87807">
        <ele>8.9</ele>
        <time>2020-05-23T10:30:56Z</time>
      </trkpt>
      <trkpt lat="47.1065" lon="-1.87824">
        <ele>8.87</ele>
        <time>2020-05-23T10:30:58Z</time>
      </trkpt>
      <trkpt lat="47.10656" lon="-1.87842">
        <ele>8.45</ele>
        <time>2020-05-23T10:31:00Z</time>
      </trkpt>
      <trkpt lat="47.10661" lon="-1.87859">
        <ele>7.86</ele>
        <time>2020-05-23T10:31:02Z</time>
      </trkpt>
      <trkpt lat="47.10667" lon="-1.87876">
        <ele>8.88</ele>
        <time>2020-05-23T10:31:04Z</time>
      </trkpt>
      <trkpt lat="47.10672" lon="-1.8789">
        <ele>10.04</ele>
        <time>2020-05-23T10:31:06Z</time>
      </trkpt>
      <trkpt lat="47.10677" lon="-1.87905">
        <ele>10.07</ele>
        <time>2020-05-23T10:31:08Z</time>
      </trkpt>
      <trkpt lat="47.10683" lon="-1.87919">
        <ele>9.43</ele>
        <time>2020-05-23T10:31:10Z</time>
      </trkpt>
      <trkpt lat="47.10689" lon="-1.87939">
        <ele>9.1</ele>
        <time>2020-05-23T10:31:12Z</time>
      </trkpt>
      <trkpt lat="47.10695" lon="-1.87957">
        <ele>8.08</ele>
        <time>2020-05-23T10:31:14Z</time>
      </trkpt>
      <trkpt lat="47.10699" lon="-1.87975">
        <ele>7.4</ele>
        <time>2020-05-23T10:31:16Z</time>
      </trkpt>
      <trkpt lat="47.10702" lon="-1.87992">
        <ele>7.15</ele>
        <time>2020-05-23T10:31:18Z</time>
      </trkpt>
      <trkpt lat="47.10704" lon="-1.88012">
        <ele>7.28</ele>
        <time>2020-05-23T10:31:20Z</time>
      </trkpt>
      <trkpt lat="47.10705" lon="-1.8803">
        <ele>7.25</ele>
        <time>2020-05-23T10:31:22Z</time>
      </trkpt>
      <trkpt lat="47.10706" lon="-1.88045">
        <ele>7.04</ele>
        <time>2020-05-23T10:31:24Z</time>
      </trkpt>
      <trkpt lat="47.10708" lon="-1.88061">
        <ele>6.02</ele>
        <time>2020-05-23T10:31:26Z</time>
      </trkpt>
      <trkpt lat="47.1071" lon="-1.88078">
        <ele>4.63</ele>
        <time>2020-05-23T10:31:28Z</time>
      </trkpt>
      <trkpt lat="47.10712" lon="-1.88095">
        <ele>2.87</ele>
        <time>2020-05-23T10:31:30Z</time>
      </trkpt>
      <trkpt lat="47.10714" lon="-1.88111">
        <ele>3.18</ele>
        <time>2020-05-23T10:31:32Z</time>
      </trkpt>
      <trkpt lat="47.10715" lon="-1.88131">
        <ele>3.83</ele>
        <time>2020-05-23T10:31:34Z</time>
      </trkpt>
      <trkpt lat="47.10717" lon="-1.88146">
        <ele>3.86</ele>
        <time>2020-05-23T10:31:36Z</time>
      </trkpt>
      <trkpt lat="47.10718" lon="-1.88161">
        <ele>3.53</ele>
        <time>2020-05-23T10:31:38Z</time>
      </trkpt>
      <trkpt lat="47.10719" lon="-1.88176">
        <ele>4.3</ele>
        <time>2020-05-23T10:31:40Z</time>
      </trkpt>
      <trkpt lat="47.1072" lon="-1.88192">
        <ele>4.89</ele>
        <time>2020-05-23T10:31:42Z</time>
      </trkpt>
      <trkpt lat="47.10722" lon="-1.8821">
        <ele>4.9</ele>
        <time>2020-05-23T10:31:44Z</time>
      </trkpt>
      <trkpt lat="47.10723" lon="-1.88223">
        <ele>5.52</ele>
        <time>2020-05-23T10:31:46Z</time>
      </trkpt>
      <trkpt lat="47.10724" lon="-1.88237">
        <ele>6.18</ele>
        <time>2020-05-23T10:31:48Z</time>
      </trkpt>
      <trkpt lat="47.10726" lon="-1.88259">
        <ele>6.32</ele>
        <time>2020-05-23T10:31:51Z</time>
      </trkpt>
      <trkpt lat="47.10728" lon="-1.88277">
        <ele>6.57</ele>
        <time>2020-05-23T10:31:53Z</time>
      </trkpt>
      <trkpt lat="47.10729" lon="-1.88291">
        <ele>6.34</ele>
        <time>2020-05-23T10:31:55Z</time>
      </trkpt>
      <trkpt lat="47.1073" lon="-1.88306">
        <ele>6.35</ele>
        <time>2020-05-23T10:31:57Z</time>
      </trkpt>
      <trkpt lat="47.10732" lon="-1.88324">
        <ele>6.48</ele>
        <time>2020-05-23T10:31:59Z</time>
      </trkpt>
      <trkpt lat="47.10734" lon="-1.8834">
        <ele>5.48</ele>
        <time>2020-05-23T10:32:01Z</time>
      </trkpt>
      <trkpt lat="47.10736" lon="-1.88354">
        <ele>4.81</ele>
        <time>2020-05-23T10:32:03Z</time>
      </trkpt>
      <trkpt lat="47.10738" lon="-1.88369">
        <ele>5.55</ele>
        <time>2020-05-23T10:32:05Z</time>
      </trkpt>
      <trkpt lat="47.10742" lon="-1.88385">
        <ele>5.23</ele>
        <time>2020-05-23T10:32:07Z</time>
      </trkpt>
      <trkpt lat="47.10745" lon="-1.884">
        <ele>5.09</ele>
        <time>2020-05-23T10:32:09Z</time>
      </trkpt>
      <trkpt lat="47.10749" lon="-1.88413">
        <ele>4.82</ele>
        <time>2020-05-23T10:32:11Z</time>
      </trkpt>
      <trkpt lat="47.10753" lon="-1.88428">
        <ele>4.6</ele>
        <time>2020-05-23T10:32:13Z</time>
      </trkpt>
      <trkpt lat="47.10756" lon="-1.8844">
        <ele>4.68</ele>
        <time>2020-05-23T10:32:15Z</time>
      </trkpt>
      <trkpt lat="47.10761" lon="-1.88456">
        <ele>5.39</ele>
        <time>2020-05-23T10:32:17Z</time>
      </trkpt>
      <trkpt lat="47.10765" lon="-1.88471">
        <ele>6.41</ele>
        <time>2020-05-23T10:32:19Z</time>
      </trkpt>
      <trkpt lat="47.10771" lon="-1.88486">
        <ele>6.74</ele>
        <time>2020-05-23T10:32:21Z</time>
      </trkpt>
      <trkpt lat="47.10776" lon="-1.88501">
        <ele>6.13</ele>
        <time>2020-05-23T10:32:23Z</time>
      </trkpt>
      <trkpt lat="47.10781" lon="-1.88514">
        <ele>5.8</ele>
        <time>2020-05-23T10:32:25Z</time>
      </trkpt>
      <trkpt lat="47.10786" lon="-1.88528">
        <ele>5.7</ele>
        <time>2020-05-23T10:32:27Z</time>
      </trkpt>
      <trkpt lat="47.10792" lon="-1.88543">
        <ele>6.31</ele>
        <time>2020-05-23T10:32:29Z</time>
      </trkpt>
      <trkpt lat="47.10798" lon="-1.88557">
        <ele>6.9</ele>
        <time>2020-05-23T10:32:31Z</time>
      </trkpt>
      <trkpt lat="47.10804" lon="-1.88571">
        <ele>6.82</ele>
        <time>2020-05-23T10:32:33Z</time>
      </trkpt>
      <trkpt lat="47.1081" lon="-1.88584">
        <ele>7.19</ele>
        <time>2020-05-23T10:32:35Z</time>
      </trkpt>
      <trkpt lat="47.10816" lon="-1.88597">
        <ele>7.01</ele>
        <time>2020-05-23T10:32:37Z</time>
      </trkpt>
      <trkpt lat="47.10825" lon="-1.88615">
        <ele>7.35</ele>
        <time>2020-05-23T10:32:40Z</time>
      </trkpt>
      <trkpt lat="47.10831" lon="-1.88628">
        <ele>7.72</ele>
        <time>2020-05-23T10:32:42Z</time>
      </trkpt>
      <trkpt lat="47.10838" lon="-1.88644">
        <ele>8.42</ele>
        <time>2020-05-23T10:32:44Z</time>
      </trkpt>
      <trkpt lat="47.10844" lon="-1.8866">
        <ele>8.85</ele>
        <time>2020-05-23T10:32:46Z</time>
      </trkpt>
      <trkpt lat="47.10849" lon="-1.88672">
        <ele>9.14</ele>
        <time>2020-05-23T10:32:48Z</time>
      </trkpt>
      <trkpt lat="47.10855" lon="-1.88686">
        <ele>9.08</ele>
        <time>2020-05-23T10:32:50Z</time>
      </trkpt>
      <trkpt lat="47.1086" lon="-1.88699">
        <ele>8.82</ele>
        <time>2020-05-23T10:32:52Z</time>
      </trkpt>
      <trkpt lat="47.10866" lon="-1.88711">
        <ele>8.71</ele>
        <time>2020-05-23T10:32:54Z</time>
      </trkpt>
      <trkpt lat="47.10871" lon="-1.88723">
        <ele>9.74</ele>
        <time>2020-05-23T10:32:56Z</time>
      </trkpt>
      <trkpt lat="47.10876" lon="-1.88736">
        <ele>9.64</ele>
        <time>2020-05-23T10:32:58Z</time>
      </trkpt>
      <trkpt lat="47.10881" lon="-1.88749">
        <ele>9.39</ele>
        <time>2020-05-23T10:33:00Z</time>
      </trkpt>
      <trkpt lat="47.10886" lon="-1.88762">
        <ele>8.69</ele>
        <time>2020-05-23T10:33:02Z</time>
      </trkpt>
      <trkpt lat="47.10892" lon="-1.88776">
        <ele>8.18</ele>
        <time>2020-05-23T10:33:04Z</time>
      </trkpt>
      <trkpt lat="47.10899" lon="-1.88791">
        <ele>7.46</ele>
        <time>2020-05-23T10:33:07Z</time>
      </trkpt>
      <trkpt lat="47.10905" lon="-1.88805">
        <ele>8.15</ele>
        <time>2020-05-23T10:33:09Z</time>
      </trkpt>
      <trkpt lat="47.10911" lon="-1.88821">
        <ele>8.31</ele>
        <time>2020-05-23T10:33:12Z</time>
      </trkpt>
      <trkpt lat="47.10916" lon="-1.88834">
        <ele>8.98</ele>
        <time>2020-05-23T10:33:14Z</time>
      </trkpt>
      <trkpt lat="47.10921" lon="-1.88848">
        <ele>8.88</ele>
        <time>2020-05-23T10:33:16Z</time>
      </trkpt>
      <trkpt lat="47.10926" lon="-1.88862">
        <ele>8.27</ele>
        <time>2020-05-23T10:33:18Z</time>
      </trkpt>
      <trkpt lat="47.1093" lon="-1.88876">
        <ele>8.82</ele>
        <time>2020-05-23T10:33:20Z</time>
      </trkpt>
      <trkpt lat="47.10934" lon="-1.88888">
        <ele>8.27</ele>
        <time>2020-05-23T10:33:22Z</time>
      </trkpt>
      <trkpt lat="47.10938" lon="-1.889">
        <ele>8.32</ele>
        <time>2020-05-23T10:33:24Z</time>
      </trkpt>
      <trkpt lat="47.10943" lon="-1.88914">
        <ele>8.88</ele>
        <time>2020-05-23T10:33:26Z</time>
      </trkpt>
      <trkpt lat="47.10947" lon="-1.88928">
        <ele>10.43</ele>
        <time>2020-05-23T10:33:28Z</time>
      </trkpt>
      <trkpt lat="47.1095" lon="-1.88941">
        <ele>10.83</ele>
        <time>2020-05-23T10:33:30Z</time>
      </trkpt>
      <trkpt lat="47.10954" lon="-1.88955">
        <ele>11</ele>
        <time>2020-05-23T10:33:32Z</time>
      </trkpt>
      <trkpt lat="47.10958" lon="-1.88969">
        <ele>10.95</ele>
        <time>2020-05-23T10:33:34Z</time>
      </trkpt>
      <trkpt lat="47.10963" lon="-1.88982">
        <ele>10.85</ele>
        <time>2020-05-23T10:33:36Z</time>
      </trkpt>
      <trkpt lat="47.10966" lon="-1.88996">
        <ele>10.76</ele>
        <time>2020-05-23T10:33:38Z</time>
      </trkpt>
      <trkpt lat="47.10971" lon="-1.89011">
        <ele>10.45</ele>
        <time>2020-05-23T10:33:40Z</time>
      </trkpt>
      <trkpt lat="47.10976" lon="-1.89029">
        <ele>10.39</ele>
        <time>2020-05-23T10:33:43Z</time>
      </trkpt>
      <trkpt lat="47.1098" lon="-1.89043">
        <ele>11.1</ele>
        <time>2020-05-23T10:33:45Z</time>
      </trkpt>
      <trkpt lat="47.10984" lon="-1.89057">
        <ele>12.77</ele>
        <time>2020-05-23T10:33:47Z</time>
      </trkpt>
      <trkpt lat="47.10988" lon="-1.89072">
        <ele>13.67</ele>
        <time>2020-05-23T10:33:49Z</time>
      </trkpt>
      <trkpt lat="47.10992" lon="-1.89089">
        <ele>13.81</ele>
        <time>2020-05-23T10:33:51Z</time>
      </trkpt>
      <trkpt lat="47.10997" lon="-1.89105">
        <ele>13.99</ele>
        <time>2020-05-23T10:33:54Z</time>
      </trkpt>
      <trkpt lat="47.11003" lon="-1.89123">
        <ele>13.15</ele>
        <time>2020-05-23T10:33:56Z</time>
      </trkpt>
      <trkpt lat="47.11007" lon="-1.89137">
        <ele>12.9</ele>
        <time>2020-05-23T10:33:58Z</time>
      </trkpt>
      <trkpt lat="47.11011" lon="-1.89151">
        <ele>13.65</ele>
        <time>2020-05-23T10:34:00Z</time>
      </trkpt>
      <trkpt lat="47.11016" lon="-1.89166">
        <ele>14.68</ele>
        <time>2020-05-23T10:34:02Z</time>
      </trkpt>
      <trkpt lat="47.1102" lon="-1.89181">
        <ele>14.2</ele>
        <time>2020-05-23T10:34:04Z</time>
      </trkpt>
      <trkpt lat="47.11023" lon="-1.89195">
        <ele>14.07</ele>
        <time>2020-05-23T10:34:06Z</time>
      </trkpt>
      <trkpt lat="47.11027" lon="-1.89208">
        <ele>13.95</ele>
        <time>2020-05-23T10:34:08Z</time>
      </trkpt>
      <trkpt lat="47.11032" lon="-1.89224">
        <ele>13.1</ele>
        <time>2020-05-23T10:34:10Z</time>
      </trkpt>
      <trkpt lat="47.11037" lon="-1.89238">
        <ele>13.64</ele>
        <time>2020-05-23T10:34:12Z</time>
      </trkpt>
      <trkpt lat="47.11042" lon="-1.89254">
        <ele>13.84</ele>
        <time>2020-05-23T10:34:14Z</time>
      </trkpt>
      <trkpt lat="47.11046" lon="-1.89267">
        <ele>13.68</ele>
        <time>2020-05-23T10:34:16Z</time>
      </trkpt>
      <trkpt lat="47.11051" lon="-1.89284">
        <ele>12.96</ele>
        <time>2020-05-23T10:34:18Z</time>
      </trkpt>
      <trkpt lat="47.11056" lon="-1.89299">
        <ele>13.76</ele>
        <time>2020-05-23T10:34:20Z</time>
      </trkpt>
      <trkpt lat="47.11061" lon="-1.89316">
        <ele>13.66</ele>
        <time>2020-05-23T10:34:22Z</time>
      </trkpt>
      <trkpt lat="47.11066" lon="-1.89333">
        <ele>12.77</ele>
        <time>2020-05-23T10:34:24Z</time>
      </trkpt>
      <trkpt lat="47.11071" lon="-1.89348">
        <ele>11.91</ele>
        <time>2020-05-23T10:34:26Z</time>
      </trkpt>
      <trkpt lat="47.11077" lon="-1.89363">
        <ele>11.55</ele>
        <time>2020-05-23T10:34:28Z</time>
      </trkpt>
      <trkpt lat="47.11084" lon="-1.89375">
        <ele>11.23</ele>
        <time>2020-05-23T10:34:30Z</time>
      </trkpt>
      <trkpt lat="47.11091" lon="-1.89389">
        <ele>11.54</ele>
        <time>2020-05-23T10:34:32Z</time>
      </trkpt>
      <trkpt lat="47.11099" lon="-1.89403">
        <ele>11.93</ele>
        <time>2020-05-23T10:34:34Z</time>
      </trkpt>
      <trkpt lat="47.11106" lon="-1.89415">
        <ele>11.75</ele>
        <time>2020-05-23T10:34:36Z</time>
      </trkpt>
      <trkpt lat="47.11115" lon="-1.89428">
        <ele>11.72</ele>
        <time>2020-05-23T10:34:38Z</time>
      </trkpt>
      <trkpt lat="47.11124" lon="-1.89441">
        <ele>11.26</ele>
        <time>2020-05-23T10:34:40Z</time>
      </trkpt>
      <trkpt lat="47.11134" lon="-1.89454">
        <ele>10.42</ele>
        <time>2020-05-23T10:34:42Z</time>
      </trkpt>
      <trkpt lat="47.11143" lon="-1.89466">
        <ele>10.51</ele>
        <time>2020-05-23T10:34:44Z</time>
      </trkpt>
      <trkpt lat="47.11154" lon="-1.89479">
        <ele>10.6</ele>
        <time>2020-05-23T10:34:46Z</time>
      </trkpt>
      <trkpt lat="47.11164" lon="-1.89491">
        <ele>10.14</ele>
        <time>2020-05-23T10:34:48Z</time>
      </trkpt>
      <trkpt lat="47.11173" lon="-1.89501">
        <ele>9.64</ele>
        <time>2020-05-23T10:34:50Z</time>
      </trkpt>
      <trkpt lat="47.11182" lon="-1.89514">
        <ele>8.87</ele>
        <time>2020-05-23T10:34:52Z</time>
      </trkpt>
      <trkpt lat="47.11191" lon="-1.89525">
        <ele>8.97</ele>
        <time>2020-05-23T10:34:54Z</time>
      </trkpt>
      <trkpt lat="47.112" lon="-1.89537">
        <ele>9.18</ele>
        <time>2020-05-23T10:34:56Z</time>
      </trkpt>
      <trkpt lat="47.11209" lon="-1.89549">
        <ele>9.67</ele>
        <time>2020-05-23T10:34:58Z</time>
      </trkpt>
      <trkpt lat="47.11219" lon="-1.89562">
        <ele>9.73</ele>
        <time>2020-05-23T10:35:00Z</time>
      </trkpt>
      <trkpt lat="47.11228" lon="-1.89575">
        <ele>9.03</ele>
        <time>2020-05-23T10:35:02Z</time>
      </trkpt>
      <trkpt lat="47.11239" lon="-1.89588">
        <ele>9.8</ele>
        <time>2020-05-23T10:35:04Z</time>
      </trkpt>
      <trkpt lat="47.11247" lon="-1.89599">
        <ele>10.47</ele>
        <time>2020-05-23T10:35:06Z</time>
      </trkpt>
      <trkpt lat="47.11255" lon="-1.89609">
        <ele>10.12</ele>
        <time>2020-05-23T10:35:08Z</time>
      </trkpt>
      <trkpt lat="47.11265" lon="-1.89622">
        <ele>10.31</ele>
        <time>2020-05-23T10:35:10Z</time>
      </trkpt>
      <trkpt lat="47.11276" lon="-1.89635">
        <ele>9.55</ele>
        <time>2020-05-23T10:35:12Z</time>
      </trkpt>
      <trkpt lat="47.11286" lon="-1.89648">
        <ele>8.62</ele>
        <time>2020-05-23T10:35:14Z</time>
      </trkpt>
      <trkpt lat="47.11296" lon="-1.89661">
        <ele>8.64</ele>
        <time>2020-05-23T10:35:16Z</time>
      </trkpt>
      <trkpt lat="47.11307" lon="-1.89674">
        <ele>8.31</ele>
        <time>2020-05-23T10:35:18Z</time>
      </trkpt>
      <trkpt lat="47.11318" lon="-1.89689">
        <ele>7.99</ele>
        <time>2020-05-23T10:35:20Z</time>
      </trkpt>
      <trkpt lat="47.11327" lon="-1.897">
        <ele>6.88</ele>
        <time>2020-05-23T10:35:22Z</time>
      </trkpt>
      <trkpt lat="47.11336" lon="-1.89711">
        <ele>6.74</ele>
        <time>2020-05-23T10:35:24Z</time>
      </trkpt>
      <trkpt lat="47.11346" lon="-1.89723">
        <ele>6.8</ele>
        <time>2020-05-23T10:35:26Z</time>
      </trkpt>
      <trkpt lat="47.11353" lon="-1.89735">
        <ele>7.41</ele>
        <time>2020-05-23T10:35:27Z</time>
      </trkpt>
      <trkpt lat="47.11363" lon="-1.89748">
        <ele>8.97</ele>
        <time>2020-05-23T10:35:29Z</time>
      </trkpt>
      <trkpt lat="47.11372" lon="-1.89761">
        <ele>9.43</ele>
        <time>2020-05-23T10:35:31Z</time>
      </trkpt>
      <trkpt lat="47.11382" lon="-1.89774">
        <ele>9.17</ele>
        <time>2020-05-23T10:35:33Z</time>
      </trkpt>
      <trkpt lat="47.11391" lon="-1.89785">
        <ele>8.57</ele>
        <time>2020-05-23T10:35:35Z</time>
      </trkpt>
      <trkpt lat="47.114" lon="-1.89799">
        <ele>7.71</ele>
        <time>2020-05-23T10:35:37Z</time>
      </trkpt>
      <trkpt lat="47.1141" lon="-1.89811">
        <ele>6.72</ele>
        <time>2020-05-23T10:35:39Z</time>
      </trkpt>
      <trkpt lat="47.11419" lon="-1.89823">
        <ele>6.54</ele>
        <time>2020-05-23T10:35:41Z</time>
      </trkpt>
      <trkpt lat="47.11429" lon="-1.89835">
        <ele>6.69</ele>
        <time>2020-05-23T10:35:43Z</time>
      </trkpt>
      <trkpt lat="47.11438" lon="-1.89847">
        <ele>7.03</ele>
        <time>2020-05-23T10:35:45Z</time>
      </trkpt>
      <trkpt lat="47.11447" lon="-1.8986">
        <ele>7.07</ele>
        <time>2020-05-23T10:35:47Z</time>
      </trkpt>
      <trkpt lat="47.11457" lon="-1.89874">
        <ele>6.6</ele>
        <time>2020-05-23T10:35:49Z</time>
      </trkpt>
      <trkpt lat="47.11467" lon="-1.89887">
        <ele>6.46</ele>
        <time>2020-05-23T10:35:51Z</time>
      </trkpt>
      <trkpt lat="47.11477" lon="-1.89899">
        <ele>7.2</ele>
        <time>2020-05-23T10:35:53Z</time>
      </trkpt>
      <trkpt lat="47.11486" lon="-1.89913">
        <ele>6.53</ele>
        <time>2020-05-23T10:35:55Z</time>
      </trkpt>
      <trkpt lat="47.11494" lon="-1.89925">
        <ele>7.27</ele>
        <time>2020-05-23T10:35:57Z</time>
      </trkpt>
      <trkpt lat="47.11502" lon="-1.89939">
        <ele>6.61</ele>
        <time>2020-05-23T10:35:59Z</time>
      </trkpt>
      <trkpt lat="47.1151" lon="-1.89952">
        <ele>5.73</ele>
        <time>2020-05-23T10:36:01Z</time>
      </trkpt>
      <trkpt lat="47.11517" lon="-1.89968">
        <ele>5.83</ele>
        <time>2020-05-23T10:36:03Z</time>
      </trkpt>
      <trkpt lat="47.11522" lon="-1.89983">
        <ele>5.81</ele>
        <time>2020-05-23T10:36:05Z</time>
      </trkpt>
      <trkpt lat="47.11529" lon="-1.90002">
        <ele>6.21</ele>
        <time>2020-05-23T10:36:07Z</time>
      </trkpt>
      <trkpt lat="47.11535" lon="-1.90018">
        <ele>5.78</ele>
        <time>2020-05-23T10:36:09Z</time>
      </trkpt>
      <trkpt lat="47.11541" lon="-1.90035">
        <ele>6.44</ele>
        <time>2020-05-23T10:36:11Z</time>
      </trkpt>
      <trkpt lat="47.11547" lon="-1.90055">
        <ele>7.12</ele>
        <time>2020-05-23T10:36:13Z</time>
      </trkpt>
      <trkpt lat="47.11553" lon="-1.90071">
        <ele>5.4</ele>
        <time>2020-05-23T10:36:15Z</time>
      </trkpt>
      <trkpt lat="47.11559" lon="-1.9009">
        <ele>4.5</ele>
        <time>2020-05-23T10:36:17Z</time>
      </trkpt>
      <trkpt lat="47.11564" lon="-1.90107">
        <ele>4.42</ele>
        <time>2020-05-23T10:36:19Z</time>
      </trkpt>
      <trkpt lat="47.11569" lon="-1.90123">
        <ele>5.01</ele>
        <time>2020-05-23T10:36:21Z</time>
      </trkpt>
      <trkpt lat="47.11575" lon="-1.90141">
        <ele>4.81</ele>
        <time>2020-05-23T10:36:23Z</time>
      </trkpt>
      <trkpt lat="47.11581" lon="-1.9016">
        <ele>4.62</ele>
        <time>2020-05-23T10:36:25Z</time>
      </trkpt>
      <trkpt lat="47.11586" lon="-1.90179">
        <ele>5.52</ele>
        <time>2020-05-23T10:36:27Z</time>
      </trkpt>
      <trkpt lat="47.1159" lon="-1.90191">
        <ele>5.86</ele>
        <time>2020-05-23T10:36:29Z</time>
      </trkpt>
      <trkpt lat="47.11596" lon="-1.90209">
        <ele>5.66</ele>
        <time>2020-05-23T10:36:31Z</time>
      </trkpt>
      <trkpt lat="47.11601" lon="-1.90227">
        <ele>5.35</ele>
        <time>2020-05-23T10:36:33Z</time>
      </trkpt>
      <trkpt lat="47.11606" lon="-1.90245">
        <ele>5.73</ele>
        <time>2020-05-23T10:36:35Z</time>
      </trkpt>
      <trkpt lat="47.1161" lon="-1.90261">
        <ele>5.26</ele>
        <time>2020-05-23T10:36:37Z</time>
      </trkpt>
      <trkpt lat="47.11615" lon="-1.90276">
        <ele>5.12</ele>
        <time>2020-05-23T10:36:39Z</time>
      </trkpt>
      <trkpt lat="47.11621" lon="-1.90296">
        <ele>4.7</ele>
        <time>2020-05-23T10:36:41Z</time>
      </trkpt>
      <trkpt lat="47.11625" lon="-1.90312">
        <ele>4.38</ele>
        <time>2020-05-23T10:36:43Z</time>
      </trkpt>
      <trkpt lat="47.1163" lon="-1.90326">
        <ele>4.46</ele>
        <time>2020-05-23T10:36:45Z</time>
      </trkpt>
      <trkpt lat="47.11634" lon="-1.9034">
        <ele>4.36</ele>
        <time>2020-05-23T10:36:47Z</time>
      </trkpt>
      <trkpt lat="47.11639" lon="-1.90354">
        <ele>4.52</ele>
        <time>2020-05-23T10:36:49Z</time>
      </trkpt>
      <trkpt lat="47.11644" lon="-1.9037">
        <ele>5.57</ele>
        <time>2020-05-23T10:36:51Z</time>
      </trkpt>
      <trkpt lat="47.11649" lon="-1.90389">
        <ele>6.34</ele>
        <time>2020-05-23T10:36:53Z</time>
      </trkpt>
      <trkpt lat="47.11654" lon="-1.90407">
        <ele>5.87</ele>
        <time>2020-05-23T10:36:55Z</time>
      </trkpt>
      <trkpt lat="47.11659" lon="-1.90423">
        <ele>5.39</ele>
        <time>2020-05-23T10:36:57Z</time>
      </trkpt>
      <trkpt lat="47.11665" lon="-1.9044">
        <ele>4.62</ele>
        <time>2020-05-23T10:36:59Z</time>
      </trkpt>
      <trkpt lat="47.1167" lon="-1.90456">
        <ele>4.43</ele>
        <time>2020-05-23T10:37:01Z</time>
      </trkpt>
      <trkpt lat="47.11675" lon="-1.90473">
        <ele>4.45</ele>
        <time>2020-05-23T10:37:03Z</time>
      </trkpt>
      <trkpt lat="47.1168" lon="-1.90488">
        <ele>4.92</ele>
        <time>2020-05-23T10:37:05Z</time>
      </trkpt>
      <trkpt lat="47.11686" lon="-1.90505">
        <ele>5.65</ele>
        <time>2020-05-23T10:37:07Z</time>
      </trkpt>
      <trkpt lat="47.11692" lon="-1.90522">
        <ele>5.35</ele>
        <time>2020-05-23T10:37:09Z</time>
      </trkpt>
      <trkpt lat="47.11697" lon="-1.90539">
        <ele>4.73</ele>
        <time>2020-05-23T10:37:11Z</time>
      </trkpt>
      <trkpt lat="47.11702" lon="-1.90554">
        <ele>4.6</ele>
        <time>2020-05-23T10:37:13Z</time>
      </trkpt>
      <trkpt lat="47.11708" lon="-1.90569">
        <ele>4.1</ele>
        <time>2020-05-23T10:37:15Z</time>
      </trkpt>
      <trkpt lat="47.11713" lon="-1.90584">
        <ele>4.26</ele>
        <time>2020-05-23T10:37:17Z</time>
      </trkpt>
      <trkpt lat="47.11719" lon="-1.90597">
        <ele>4.38</ele>
        <time>2020-05-23T10:37:19Z</time>
      </trkpt>
      <trkpt lat="47.11726" lon="-1.90614">
        <ele>5.26</ele>
        <time>2020-05-23T10:37:21Z</time>
      </trkpt>
      <trkpt lat="47.11733" lon="-1.90629">
        <ele>4.81</ele>
        <time>2020-05-23T10:37:23Z</time>
      </trkpt>
      <trkpt lat="47.1174" lon="-1.90644">
        <ele>4.57</ele>
        <time>2020-05-23T10:37:25Z</time>
      </trkpt>
      <trkpt lat="47.11746" lon="-1.90656">
        <ele>5.27</ele>
        <time>2020-05-23T10:37:27Z</time>
      </trkpt>
      <trkpt lat="47.11753" lon="-1.90668">
        <ele>5.36</ele>
        <time>2020-05-23T10:37:29Z</time>
      </trkpt>
      <trkpt lat="47.1176" lon="-1.90683">
        <ele>5.76</ele>
        <time>2020-05-23T10:37:31Z</time>
      </trkpt>
      <trkpt lat="47.11768" lon="-1.90697">
        <ele>5.27</ele>
        <time>2020-05-23T10:37:33Z</time>
      </trkpt>
      <trkpt lat="47.11775" lon="-1.9071">
        <ele>4.65</ele>
        <time>2020-05-23T10:37:35Z</time>
      </trkpt>
      <trkpt lat="47.11783" lon="-1.90724">
        <ele>3.84</ele>
        <time>2020-05-23T10:37:37Z</time>
      </trkpt>
      <trkpt lat="47.1179" lon="-1.90737">
        <ele>4.16</ele>
        <time>2020-05-23T10:37:39Z</time>
      </trkpt>
      <trkpt lat="47.11797" lon="-1.9075">
        <ele>4.15</ele>
        <time>2020-05-23T10:37:41Z</time>
      </trkpt>
      <trkpt lat="47.11805" lon="-1.90762">
        <ele>4.7</ele>
        <time>2020-05-23T10:37:43Z</time>
      </trkpt>
      <trkpt lat="47.11813" lon="-1.90776">
        <ele>4.18</ele>
        <time>2020-05-23T10:37:45Z</time>
      </trkpt>
      <trkpt lat="47.11821" lon="-1.9079">
        <ele>3.59</ele>
        <time>2020-05-23T10:37:47Z</time>
      </trkpt>
      <trkpt lat="47.11828" lon="-1.90805">
        <ele>4.21</ele>
        <time>2020-05-23T10:37:49Z</time>
      </trkpt>
      <trkpt lat="47.11834" lon="-1.90817">
        <ele>3.59</ele>
        <time>2020-05-23T10:37:51Z</time>
      </trkpt>
      <trkpt lat="47.11841" lon="-1.9083">
        <ele>3.4</ele>
        <time>2020-05-23T10:37:53Z</time>
      </trkpt>
      <trkpt lat="47.11848" lon="-1.90844">
        <ele>4.42</ele>
        <time>2020-05-23T10:37:55Z</time>
      </trkpt>
      <trkpt lat="47.11855" lon="-1.90857">
        <ele>5.3</ele>
        <time>2020-05-23T10:37:57Z</time>
      </trkpt>
      <trkpt lat="47.11861" lon="-1.90869">
        <ele>6.03</ele>
        <time>2020-05-23T10:37:59Z</time>
      </trkpt>
      <trkpt lat="47.11868" lon="-1.90881">
        <ele>6.03</ele>
        <time>2020-05-23T10:38:01Z</time>
      </trkpt>
      <trkpt lat="47.11875" lon="-1.90894">
        <ele>5.25</ele>
        <time>2020-05-23T10:38:03Z</time>
      </trkpt>
      <trkpt lat="47.11882" lon="-1.90906">
        <ele>5</ele>
        <time>2020-05-23T10:38:05Z</time>
      </trkpt>
      <trkpt lat="47.11888" lon="-1.90919">
        <ele>4.13</ele>
        <time>2020-05-23T10:38:07Z</time>
      </trkpt>
      <trkpt lat="47.11895" lon="-1.90934">
        <ele>3.21</ele>
        <time>2020-05-23T10:38:09Z</time>
      </trkpt>
      <trkpt lat="47.11902" lon="-1.90945">
        <ele>3.08</ele>
        <time>2020-05-23T10:38:11Z</time>
      </trkpt>
      <trkpt lat="47.11909" lon="-1.90959">
        <ele>2.83</ele>
        <time>2020-05-23T10:38:13Z</time>
      </trkpt>
      <trkpt lat="47.11916" lon="-1.90971">
        <ele>3.88</ele>
        <time>2020-05-23T10:38:15Z</time>
      </trkpt>
      <trkpt lat="47.11922" lon="-1.90983">
        <ele>4.9</ele>
        <time>2020-05-23T10:38:17Z</time>
      </trkpt>
      <trkpt lat="47.11929" lon="-1.90996">
        <ele>5.3</ele>
        <time>2020-05-23T10:38:19Z</time>
      </trkpt>
      <trkpt lat="47.11936" lon="-1.9101">
        <ele>5.61</ele>
        <time>2020-05-23T10:38:21Z</time>
      </trkpt>
      <trkpt lat="47.11941" lon="-1.91021">
        <ele>6.11</ele>
        <time>2020-05-23T10:38:23Z</time>
      </trkpt>
      <trkpt lat="47.11948" lon="-1.91034">
        <ele>5.96</ele>
        <time>2020-05-23T10:38:25Z</time>
      </trkpt>
      <trkpt lat="47.11953" lon="-1.91045">
        <ele>6.22</ele>
        <time>2020-05-23T10:38:27Z</time>
      </trkpt>
      <trkpt lat="47.1196" lon="-1.91058">
        <ele>6.88</ele>
        <time>2020-05-23T10:38:29Z</time>
      </trkpt>
      <trkpt lat="47.11966" lon="-1.91069">
        <ele>8.83</ele>
        <time>2020-05-23T10:38:31Z</time>
      </trkpt>
      <trkpt lat="47.11972" lon="-1.91082">
        <ele>8.32</ele>
        <time>2020-05-23T10:38:33Z</time>
      </trkpt>
      <trkpt lat="47.11979" lon="-1.91096">
        <ele>8.09</ele>
        <time>2020-05-23T10:38:35Z</time>
      </trkpt>
      <trkpt lat="47.11986" lon="-1.9111">
        <ele>7.27</ele>
        <time>2020-05-23T10:38:37Z</time>
      </trkpt>
      <trkpt lat="47.11993" lon="-1.91122">
        <ele>7.46</ele>
        <time>2020-05-23T10:38:39Z</time>
      </trkpt>
      <trkpt lat="47.12" lon="-1.91136">
        <ele>7.84</ele>
        <time>2020-05-23T10:38:41Z</time>
      </trkpt>
      <trkpt lat="47.12008" lon="-1.9115">
        <ele>8.16</ele>
        <time>2020-05-23T10:38:43Z</time>
      </trkpt>
      <trkpt lat="47.12016" lon="-1.91163">
        <ele>8.31</ele>
        <time>2020-05-23T10:38:45Z</time>
      </trkpt>
      <trkpt lat="47.12023" lon="-1.91175">
        <ele>7.97</ele>
        <time>2020-05-23T10:38:47Z</time>
      </trkpt>
      <trkpt lat="47.1203" lon="-1.91186">
        <ele>7.45</ele>
        <time>2020-05-23T10:38:49Z</time>
      </trkpt>
      <trkpt lat="47.12038" lon="-1.91196">
        <ele>7.55</ele>
        <time>2020-05-23T10:38:51Z</time>
      </trkpt>
      <trkpt lat="47.12046" lon="-1.91204">
        <ele>7.35</ele>
        <time>2020-05-23T10:38:53Z</time>
      </trkpt>
      <trkpt lat="47.12057" lon="-1.91212">
        <ele>6.91</ele>
        <time>2020-05-23T10:38:55Z</time>
      </trkpt>
      <trkpt lat="47.12067" lon="-1.91221">
        <ele>6.42</ele>
        <time>2020-05-23T10:38:57Z</time>
      </trkpt>
      <trkpt lat="47.12077" lon="-1.9123">
        <ele>6.19</ele>
        <time>2020-05-23T10:38:59Z</time>
      </trkpt>
      <trkpt lat="47.12086" lon="-1.91239">
        <ele>6.06</ele>
        <time>2020-05-23T10:39:01Z</time>
      </trkpt>
      <trkpt lat="47.12095" lon="-1.91248">
        <ele>6.08</ele>
        <time>2020-05-23T10:39:03Z</time>
      </trkpt>
      <trkpt lat="47.12105" lon="-1.91257">
        <ele>6.38</ele>
        <time>2020-05-23T10:39:05Z</time>
      </trkpt>
      <trkpt lat="47.12114" lon="-1.91266">
        <ele>5.9</ele>
        <time>2020-05-23T10:39:07Z</time>
      </trkpt>
      <trkpt lat="47.12121" lon="-1.91275">
        <ele>5.07</ele>
        <time>2020-05-23T10:39:09Z</time>
      </trkpt>
      <trkpt lat="47.12129" lon="-1.91285">
        <ele>5.11</ele>
        <time>2020-05-23T10:39:11Z</time>
      </trkpt>
      <trkpt lat="47.12136" lon="-1.91295">
        <ele>6.14</ele>
        <time>2020-05-23T10:39:13Z</time>
      </trkpt>
      <trkpt lat="47.12143" lon="-1.91304">
        <ele>6.4</ele>
        <time>2020-05-23T10:39:15Z</time>
      </trkpt>
      <trkpt lat="47.12152" lon="-1.91319">
        <ele>6.67</ele>
        <time>2020-05-23T10:39:18Z</time>
      </trkpt>
      <trkpt lat="47.12161" lon="-1.9133">
        <ele>7.13</ele>
        <time>2020-05-23T10:39:20Z</time>
      </trkpt>
      <trkpt lat="47.12171" lon="-1.91341">
        <ele>8.63</ele>
        <time>2020-05-23T10:39:22Z</time>
      </trkpt>
      <trkpt lat="47.12179" lon="-1.91351">
        <ele>9.47</ele>
        <time>2020-05-23T10:39:24Z</time>
      </trkpt>
      <trkpt lat="47.12189" lon="-1.91363">
        <ele>9.51</ele>
        <time>2020-05-23T10:39:26Z</time>
      </trkpt>
      <trkpt lat="47.12198" lon="-1.91376">
        <ele>7.49</ele>
        <time>2020-05-23T10:39:29Z</time>
      </trkpt>
      <trkpt lat="47.12206" lon="-1.91385">
        <ele>6.78</ele>
        <time>2020-05-23T10:39:31Z</time>
      </trkpt>
      <trkpt lat="47.12214" lon="-1.91394">
        <ele>7.29</ele>
        <time>2020-05-23T10:39:33Z</time>
      </trkpt>
      <trkpt lat="47.12222" lon="-1.91403">
        <ele>6.79</ele>
        <time>2020-05-23T10:39:37Z</time>
      </trkpt>
      <trkpt lat="47.12233" lon="-1.9141">
        <ele>7.46</ele>
        <time>2020-05-23T10:39:42Z</time>
      </trkpt>
      <trkpt lat="47.12232" lon="-1.91425">
        <ele>8.96</ele>
        <time>2020-05-23T10:39:45Z</time>
      </trkpt>
      <trkpt lat="47.12226" lon="-1.91439">
        <ele>9.01</ele>
        <time>2020-05-23T10:39:47Z</time>
      </trkpt>
      <trkpt lat="47.12223" lon="-1.91457">
        <ele>9.35</ele>
        <time>2020-05-23T10:39:49Z</time>
      </trkpt>
      <trkpt lat="47.12224" lon="-1.91474">
        <ele>9.26</ele>
        <time>2020-05-23T10:39:51Z</time>
      </trkpt>
      <trkpt lat="47.12225" lon="-1.91488">
        <ele>8.97</ele>
        <time>2020-05-23T10:39:53Z</time>
      </trkpt>
      <trkpt lat="47.12228" lon="-1.91504">
        <ele>9.07</ele>
        <time>2020-05-23T10:39:55Z</time>
      </trkpt>
      <trkpt lat="47.12237" lon="-1.91515">
        <ele>9.53</ele>
        <time>2020-05-23T10:39:57Z</time>
      </trkpt>
      <trkpt lat="47.12245" lon="-1.91522">
        <ele>9.91</ele>
        <time>2020-05-23T10:39:59Z</time>
      </trkpt>
      <trkpt lat="47.12255" lon="-1.91531">
        <ele>10.55</ele>
        <time>2020-05-23T10:40:01Z</time>
      </trkpt>
      <trkpt lat="47.12264" lon="-1.91538">
        <ele>11.01</ele>
        <time>2020-05-23T10:40:03Z</time>
      </trkpt>
      <trkpt lat="47.12274" lon="-1.91545">
        <ele>10.88</ele>
        <time>2020-05-23T10:40:05Z</time>
      </trkpt>
      <trkpt lat="47.12285" lon="-1.9155">
        <ele>10.09</ele>
        <time>2020-05-23T10:40:07Z</time>
      </trkpt>
      <trkpt lat="47.12297" lon="-1.91558">
        <ele>8.96</ele>
        <time>2020-05-23T10:40:09Z</time>
      </trkpt>
      <trkpt lat="47.12309" lon="-1.91564">
        <ele>7.91</ele>
        <time>2020-05-23T10:40:11Z</time>
      </trkpt>
      <trkpt lat="47.1232" lon="-1.91571">
        <ele>7.03</ele>
        <time>2020-05-23T10:40:13Z</time>
      </trkpt>
      <trkpt lat="47.12332" lon="-1.91579">
        <ele>5.99</ele>
        <time>2020-05-23T10:40:15Z</time>
      </trkpt>
      <trkpt lat="47.12342" lon="-1.91586">
        <ele>5.33</ele>
        <time>2020-05-23T10:40:17Z</time>
      </trkpt>
      <trkpt lat="47.12353" lon="-1.91596">
        <ele>4.97</ele>
        <time>2020-05-23T10:40:19Z</time>
      </trkpt>
      <trkpt lat="47.12362" lon="-1.91608">
        <ele>5.62</ele>
        <time>2020-05-23T10:40:21Z</time>
      </trkpt>
      <trkpt lat="47.12371" lon="-1.91619">
        <ele>5.65</ele>
        <time>2020-05-23T10:40:23Z</time>
      </trkpt>
      <trkpt lat="47.1238" lon="-1.91631">
        <ele>6.36</ele>
        <time>2020-05-23T10:40:25Z</time>
      </trkpt>
      <trkpt lat="47.12388" lon="-1.91642">
        <ele>7</ele>
        <time>2020-05-23T10:40:27Z</time>
      </trkpt>
      <trkpt lat="47.12397" lon="-1.91654">
        <ele>7.02</ele>
        <time>2020-05-23T10:40:29Z</time>
      </trkpt>
      <trkpt lat="47.12408" lon="-1.91671">
        <ele>6.71</ele>
        <time>2020-05-23T10:40:32Z</time>
      </trkpt>
      <trkpt lat="47.12416" lon="-1.91682">
        <ele>7.12</ele>
        <time>2020-05-23T10:40:34Z</time>
      </trkpt>
      <trkpt lat="47.12425" lon="-1.91693">
        <ele>7</ele>
        <time>2020-05-23T10:40:36Z</time>
      </trkpt>
      <trkpt lat="47.12433" lon="-1.91704">
        <ele>6.98</ele>
        <time>2020-05-23T10:40:38Z</time>
      </trkpt>
      <trkpt lat="47.12441" lon="-1.91714">
        <ele>5.83</ele>
        <time>2020-05-23T10:40:40Z</time>
      </trkpt>
      <trkpt lat="47.12447" lon="-1.91724">
        <ele>4.84</ele>
        <time>2020-05-23T10:40:42Z</time>
      </trkpt>
      <trkpt lat="47.12454" lon="-1.91736">
        <ele>3.76</ele>
        <time>2020-05-23T10:40:44Z</time>
      </trkpt>
      <trkpt lat="47.12463" lon="-1.91751">
        <ele>4.13</ele>
        <time>2020-05-23T10:40:46Z</time>
      </trkpt>
      <trkpt lat="47.1247" lon="-1.91765">
        <ele>4.38</ele>
        <time>2020-05-23T10:40:48Z</time>
      </trkpt>
      <trkpt lat="47.12476" lon="-1.91778">
        <ele>4.89</ele>
        <time>2020-05-23T10:40:50Z</time>
      </trkpt>
      <trkpt lat="47.12482" lon="-1.91794">
        <ele>5.66</ele>
        <time>2020-05-23T10:40:52Z</time>
      </trkpt>
      <trkpt lat="47.12487" lon="-1.91808">
        <ele>5.76</ele>
        <time>2020-05-23T10:40:54Z</time>
      </trkpt>
      <trkpt lat="47.12491" lon="-1.91824">
        <ele>7.08</ele>
        <time>2020-05-23T10:40:56Z</time>
      </trkpt>
      <trkpt lat="47.12497" lon="-1.9184">
        <ele>7.91</ele>
        <time>2020-05-23T10:40:58Z</time>
      </trkpt>
      <trkpt lat="47.12504" lon="-1.91859">
        <ele>8.93</ele>
        <time>2020-05-23T10:41:00Z</time>
      </trkpt>
      <trkpt lat="47.12514" lon="-1.91873">
        <ele>9.45</ele>
        <time>2020-05-23T10:41:02Z</time>
      </trkpt>
      <trkpt lat="47.12521" lon="-1.91882">
        <ele>9.21</ele>
        <time>2020-05-23T10:41:04Z</time>
      </trkpt>
      <trkpt lat="47.1253" lon="-1.91892">
        <ele>9.82</ele>
        <time>2020-05-23T10:41:06Z</time>
      </trkpt>
      <trkpt lat="47.1254" lon="-1.919">
        <ele>9.27</ele>
        <time>2020-05-23T10:41:08Z</time>
      </trkpt>
      <trkpt lat="47.1255" lon="-1.91907">
        <ele>8.27</ele>
        <time>2020-05-23T10:41:10Z</time>
      </trkpt>
      <trkpt lat="47.12562" lon="-1.91912">
        <ele>7.55</ele>
        <time>2020-05-23T10:41:12Z</time>
      </trkpt>
      <trkpt lat="47.12572" lon="-1.91916">
        <ele>8.24</ele>
        <time>2020-05-23T10:41:14Z</time>
      </trkpt>
      <trkpt lat="47.12582" lon="-1.9192">
        <ele>9.52</ele>
        <time>2020-05-23T10:41:16Z</time>
      </trkpt>
      <trkpt lat="47.12594" lon="-1.91925">
        <ele>9.85</ele>
        <time>2020-05-23T10:41:19Z</time>
      </trkpt>
      <trkpt lat="47.12607" lon="-1.9193">
        <ele>11.38</ele>
        <time>2020-05-23T10:41:22Z</time>
      </trkpt>
      <trkpt lat="47.1262" lon="-1.91937">
        <ele>12.08</ele>
        <time>2020-05-23T10:41:25Z</time>
      </trkpt>
      <trkpt lat="47.12632" lon="-1.91944">
        <ele>13.39</ele>
        <time>2020-05-23T10:41:28Z</time>
      </trkpt>
      <trkpt lat="47.12644" lon="-1.91951">
        <ele>14.89</ele>
        <time>2020-05-23T10:41:31Z</time>
      </trkpt>
      <trkpt lat="47.12654" lon="-1.91956">
        <ele>14.44</ele>
        <time>2020-05-23T10:41:33Z</time>
      </trkpt>
      <trkpt lat="47.12664" lon="-1.91962">
        <ele>13.52</ele>
        <time>2020-05-23T10:41:35Z</time>
      </trkpt>
      <trkpt lat="47.12673" lon="-1.91971">
        <ele>13.02</ele>
        <time>2020-05-23T10:41:37Z</time>
      </trkpt>
      <trkpt lat="47.12683" lon="-1.91982">
        <ele>12.61</ele>
        <time>2020-05-23T10:41:39Z</time>
      </trkpt>
      <trkpt lat="47.12692" lon="-1.91995">
        <ele>11.73</ele>
        <time>2020-05-23T10:41:41Z</time>
      </trkpt>
      <trkpt lat="47.12698" lon="-1.92012">
        <ele>11.6</ele>
        <time>2020-05-23T10:41:43Z</time>
      </trkpt>
      <trkpt lat="47.12701" lon="-1.92032">
        <ele>11.18</ele>
        <time>2020-05-23T10:41:45Z</time>
      </trkpt>
      <trkpt lat="47.12703" lon="-1.92054">
        <ele>10.17</ele>
        <time>2020-05-23T10:41:47Z</time>
      </trkpt>
      <trkpt lat="47.12705" lon="-1.92075">
        <ele>9.65</ele>
        <time>2020-05-23T10:41:49Z</time>
      </trkpt>
      <trkpt lat="47.12709" lon="-1.92095">
        <ele>9.26</ele>
        <time>2020-05-23T10:41:51Z</time>
      </trkpt>
      <trkpt lat="47.12713" lon="-1.92112">
        <ele>9.27</ele>
        <time>2020-05-23T10:41:53Z</time>
      </trkpt>
      <trkpt lat="47.12716" lon="-1.92129">
        <ele>8.65</ele>
        <time>2020-05-23T10:41:55Z</time>
      </trkpt>
      <trkpt lat="47.12719" lon="-1.92146">
        <ele>8.33</ele>
        <time>2020-05-23T10:41:57Z</time>
      </trkpt>
      <trkpt lat="47.12725" lon="-1.9216">
        <ele>8.33</ele>
        <time>2020-05-23T10:41:59Z</time>
      </trkpt>
      <trkpt lat="47.1273" lon="-1.92174">
        <ele>9.29</ele>
        <time>2020-05-23T10:42:01Z</time>
      </trkpt>
      <trkpt lat="47.12737" lon="-1.92189">
        <ele>10.26</ele>
        <time>2020-05-23T10:42:03Z</time>
      </trkpt>
      <trkpt lat="47.12743" lon="-1.92202">
        <ele>12.3</ele>
        <time>2020-05-23T10:42:05Z</time>
      </trkpt>
      <trkpt lat="47.12748" lon="-1.92214">
        <ele>12.9</ele>
        <time>2020-05-23T10:42:07Z</time>
      </trkpt>
      <trkpt lat="47.12757" lon="-1.9222">
        <ele>12.04</ele>
        <time>2020-05-23T10:42:09Z</time>
      </trkpt>
      <trkpt lat="47.12761" lon="-1.92236">
        <ele>11.11</ele>
        <time>2020-05-23T10:42:12Z</time>
      </trkpt>
      <trkpt lat="47.12766" lon="-1.92251">
        <ele>10.85</ele>
        <time>2020-05-23T10:42:14Z</time>
      </trkpt>
      <trkpt lat="47.12772" lon="-1.92265">
        <ele>10.69</ele>
        <time>2020-05-23T10:42:16Z</time>
      </trkpt>
      <trkpt lat="47.12778" lon="-1.9228">
        <ele>10.97</ele>
        <time>2020-05-23T10:42:18Z</time>
      </trkpt>
      <trkpt lat="47.12784" lon="-1.92294">
        <ele>10.6</ele>
        <time>2020-05-23T10:42:20Z</time>
      </trkpt>
      <trkpt lat="47.1279" lon="-1.92307">
        <ele>10.7</ele>
        <time>2020-05-23T10:42:22Z</time>
      </trkpt>
      <trkpt lat="47.12797" lon="-1.9232">
        <ele>10.37</ele>
        <time>2020-05-23T10:42:24Z</time>
      </trkpt>
      <trkpt lat="47.12804" lon="-1.92336">
        <ele>9.21</ele>
        <time>2020-05-23T10:42:26Z</time>
      </trkpt>
      <trkpt lat="47.12811" lon="-1.92351">
        <ele>9.1</ele>
        <time>2020-05-23T10:42:28Z</time>
      </trkpt>
      <trkpt lat="47.12818" lon="-1.92365">
        <ele>9.09</ele>
        <time>2020-05-23T10:42:30Z</time>
      </trkpt>
      <trkpt lat="47.12825" lon="-1.92379">
        <ele>8.71</ele>
        <time>2020-05-23T10:42:32Z</time>
      </trkpt>
      <trkpt lat="47.12833" lon="-1.92391">
        <ele>9.16</ele>
        <time>2020-05-23T10:42:34Z</time>
      </trkpt>
      <trkpt lat="47.12841" lon="-1.92404">
        <ele>9.53</ele>
        <time>2020-05-23T10:42:36Z</time>
      </trkpt>
      <trkpt lat="47.1285" lon="-1.92416">
        <ele>9.87</ele>
        <time>2020-05-23T10:42:38Z</time>
      </trkpt>
      <trkpt lat="47.1286" lon="-1.92427">
        <ele>9.96</ele>
        <time>2020-05-23T10:42:40Z</time>
      </trkpt>
      <trkpt lat="47.1287" lon="-1.92439">
        <ele>9.36</ele>
        <time>2020-05-23T10:42:42Z</time>
      </trkpt>
      <trkpt lat="47.1288" lon="-1.92449">
        <ele>9.01</ele>
        <time>2020-05-23T10:42:44Z</time>
      </trkpt>
      <trkpt lat="47.1289" lon="-1.92458">
        <ele>9.29</ele>
        <time>2020-05-23T10:42:46Z</time>
      </trkpt>
      <trkpt lat="47.129" lon="-1.92469">
        <ele>9.4</ele>
        <time>2020-05-23T10:42:48Z</time>
      </trkpt>
      <trkpt lat="47.1291" lon="-1.92481">
        <ele>10.63</ele>
        <time>2020-05-23T10:42:50Z</time>
      </trkpt>
      <trkpt lat="47.1292" lon="-1.92491">
        <ele>10.69</ele>
        <time>2020-05-23T10:42:52Z</time>
      </trkpt>
      <trkpt lat="47.1293" lon="-1.92501">
        <ele>10.21</ele>
        <time>2020-05-23T10:42:54Z</time>
      </trkpt>
      <trkpt lat="47.1294" lon="-1.92512">
        <ele>10.13</ele>
        <time>2020-05-23T10:42:56Z</time>
      </trkpt>
      <trkpt lat="47.1295" lon="-1.92523">
        <ele>9.86</ele>
        <time>2020-05-23T10:42:58Z</time>
      </trkpt>
      <trkpt lat="47.12958" lon="-1.92535">
        <ele>9.65</ele>
        <time>2020-05-23T10:43:00Z</time>
      </trkpt>
      <trkpt lat="47.12966" lon="-1.92549">
        <ele>8.34</ele>
        <time>2020-05-23T10:43:02Z</time>
      </trkpt>
      <trkpt lat="47.12972" lon="-1.92564">
        <ele>8.4</ele>
        <time>2020-05-23T10:43:04Z</time>
      </trkpt>
      <trkpt lat="47.12977" lon="-1.92581">
        <ele>9.23</ele>
        <time>2020-05-23T10:43:06Z</time>
      </trkpt>
      <trkpt lat="47.12983" lon="-1.92599">
        <ele>9.5</ele>
        <time>2020-05-23T10:43:08Z</time>
      </trkpt>
      <trkpt lat="47.12987" lon="-1.92615">
        <ele>9.77</ele>
        <time>2020-05-23T10:43:10Z</time>
      </trkpt>
      <trkpt lat="47.12992" lon="-1.92629">
        <ele>8.49</ele>
        <time>2020-05-23T10:43:12Z</time>
      </trkpt>
      <trkpt lat="47.12998" lon="-1.92644">
        <ele>8.08</ele>
        <time>2020-05-23T10:43:14Z</time>
      </trkpt>
      <trkpt lat="47.13005" lon="-1.9266">
        <ele>8.34</ele>
        <time>2020-05-23T10:43:16Z</time>
      </trkpt>
      <trkpt lat="47.13011" lon="-1.9267">
        <ele>9.05</ele>
        <time>2020-05-23T10:43:18Z</time>
      </trkpt>
      <trkpt lat="47.13018" lon="-1.92683">
        <ele>9.21</ele>
        <time>2020-05-23T10:43:20Z</time>
      </trkpt>
      <trkpt lat="47.13026" lon="-1.92694">
        <ele>9.73</ele>
        <time>2020-05-23T10:43:22Z</time>
      </trkpt>
      <trkpt lat="47.13033" lon="-1.92705">
        <ele>9.87</ele>
        <time>2020-05-23T10:43:24Z</time>
      </trkpt>
      <trkpt lat="47.13041" lon="-1.92718">
        <ele>10.07</ele>
        <time>2020-05-23T10:43:26Z</time>
      </trkpt>
      <trkpt lat="47.13048" lon="-1.92729">
        <ele>10.03</ele>
        <time>2020-05-23T10:43:28Z</time>
      </trkpt>
      <trkpt lat="47.13054" lon="-1.92742">
        <ele>10.33</ele>
        <time>2020-05-23T10:43:30Z</time>
      </trkpt>
      <trkpt lat="47.13061" lon="-1.92756">
        <ele>11.21</ele>
        <time>2020-05-23T10:43:32Z</time>
      </trkpt>
      <trkpt lat="47.13067" lon="-1.92772">
        <ele>11.17</ele>
        <time>2020-05-23T10:43:34Z</time>
      </trkpt>
      <trkpt lat="47.13072" lon="-1.92788">
        <ele>10.09</ele>
        <time>2020-05-23T10:43:36Z</time>
      </trkpt>
      <trkpt lat="47.13077" lon="-1.92801">
        <ele>8.95</ele>
        <time>2020-05-23T10:43:38Z</time>
      </trkpt>
      <trkpt lat="47.13081" lon="-1.92817">
        <ele>9.53</ele>
        <time>2020-05-23T10:43:40Z</time>
      </trkpt>
      <trkpt lat="47.13086" lon="-1.92833">
        <ele>10.13</ele>
        <time>2020-05-23T10:43:42Z</time>
      </trkpt>
      <trkpt lat="47.13089" lon="-1.92848">
        <ele>9.76</ele>
        <time>2020-05-23T10:43:44Z</time>
      </trkpt>
      <trkpt lat="47.13094" lon="-1.92865">
        <ele>10.45</ele>
        <time>2020-05-23T10:43:47Z</time>
      </trkpt>
      <trkpt lat="47.13099" lon="-1.92881">
        <ele>11.31</ele>
        <time>2020-05-23T10:43:49Z</time>
      </trkpt>
      <trkpt lat="47.13102" lon="-1.92894">
        <ele>10.64</ele>
        <time>2020-05-23T10:43:51Z</time>
      </trkpt>
      <trkpt lat="47.13106" lon="-1.92908">
        <ele>9.8</ele>
        <time>2020-05-23T10:43:53Z</time>
      </trkpt>
      <trkpt lat="47.1311" lon="-1.92923">
        <ele>10.06</ele>
        <time>2020-05-23T10:43:55Z</time>
      </trkpt>
      <trkpt lat="47.13114" lon="-1.92938">
        <ele>9.89</ele>
        <time>2020-05-23T10:43:57Z</time>
      </trkpt>
      <trkpt lat="47.13119" lon="-1.92955">
        <ele>10.07</ele>
        <time>2020-05-23T10:43:59Z</time>
      </trkpt>
      <trkpt lat="47.13124" lon="-1.92972">
        <ele>9.34</ele>
        <time>2020-05-23T10:44:02Z</time>
      </trkpt>
      <trkpt lat="47.13129" lon="-1.92991">
        <ele>11.1</ele>
        <time>2020-05-23T10:44:05Z</time>
      </trkpt>
      <trkpt lat="47.13133" lon="-1.93005">
        <ele>11.82</ele>
        <time>2020-05-23T10:44:07Z</time>
      </trkpt>
      <trkpt lat="47.13137" lon="-1.9302">
        <ele>11.7</ele>
        <time>2020-05-23T10:44:09Z</time>
      </trkpt>
      <trkpt lat="47.13142" lon="-1.93034">
        <ele>11.1</ele>
        <time>2020-05-23T10:44:11Z</time>
      </trkpt>
      <trkpt lat="47.13146" lon="-1.93053">
        <ele>11.15</ele>
        <time>2020-05-23T10:44:13Z</time>
      </trkpt>
      <trkpt lat="47.13149" lon="-1.93068">
        <ele>10.12</ele>
        <time>2020-05-23T10:44:16Z</time>
      </trkpt>
      <trkpt lat="47.13152" lon="-1.93087">
        <ele>9.43</ele>
        <time>2020-05-23T10:44:19Z</time>
      </trkpt>
      <trkpt lat="47.13156" lon="-1.93105">
        <ele>9.3</ele>
        <time>2020-05-23T10:44:21Z</time>
      </trkpt>
      <trkpt lat="47.13158" lon="-1.93121">
        <ele>9.32</ele>
        <time>2020-05-23T10:44:23Z</time>
      </trkpt>
      <trkpt lat="47.13161" lon="-1.93137">
        <ele>9.25</ele>
        <time>2020-05-23T10:44:25Z</time>
      </trkpt>
      <trkpt lat="47.13164" lon="-1.93152">
        <ele>9.44</ele>
        <time>2020-05-23T10:44:27Z</time>
      </trkpt>
      <trkpt lat="47.13167" lon="-1.93168">
        <ele>9.5</ele>
        <time>2020-05-23T10:44:29Z</time>
      </trkpt>
      <trkpt lat="47.1317" lon="-1.93184">
        <ele>9.58</ele>
        <time>2020-05-23T10:44:31Z</time>
      </trkpt>
      <trkpt lat="47.13174" lon="-1.93202">
        <ele>9.76</ele>
        <time>2020-05-23T10:44:33Z</time>
      </trkpt>
      <trkpt lat="47.13178" lon="-1.93218">
        <ele>10.33</ele>
        <time>2020-05-23T10:44:35Z</time>
      </trkpt>
      <trkpt lat="47.13181" lon="-1.93232">
        <ele>10.26</ele>
        <time>2020-05-23T10:44:37Z</time>
      </trkpt>
      <trkpt lat="47.13186" lon="-1.93247">
        <ele>10.27</ele>
        <time>2020-05-23T10:44:39Z</time>
      </trkpt>
      <trkpt lat="47.1319" lon="-1.93263">
        <ele>9.63</ele>
        <time>2020-05-23T10:44:41Z</time>
      </trkpt>
      <trkpt lat="47.13195" lon="-1.93279">
        <ele>8.99</ele>
        <time>2020-05-23T10:44:43Z</time>
      </trkpt>
      <trkpt lat="47.13201" lon="-1.93295">
        <ele>8.29</ele>
        <time>2020-05-23T10:44:45Z</time>
      </trkpt>
      <trkpt lat="47.13209" lon="-1.9331">
        <ele>7.88</ele>
        <time>2020-05-23T10:44:47Z</time>
      </trkpt>
      <trkpt lat="47.13215" lon="-1.93323">
        <ele>7.83</ele>
        <time>2020-05-23T10:44:49Z</time>
      </trkpt>
      <trkpt lat="47.13221" lon="-1.93339">
        <ele>8.53</ele>
        <time>2020-05-23T10:44:51Z</time>
      </trkpt>
      <trkpt lat="47.13227" lon="-1.93355">
        <ele>9.36</ele>
        <time>2020-05-23T10:44:53Z</time>
      </trkpt>
      <trkpt lat="47.13234" lon="-1.93371">
        <ele>10.33</ele>
        <time>2020-05-23T10:44:55Z</time>
      </trkpt>
      <trkpt lat="47.1324" lon="-1.93389">
        <ele>10.82</ele>
        <time>2020-05-23T10:44:57Z</time>
      </trkpt>
      <trkpt lat="47.13245" lon="-1.93409">
        <ele>10.89</ele>
        <time>2020-05-23T10:44:59Z</time>
      </trkpt>
      <trkpt lat="47.13249" lon="-1.93426">
        <ele>10.37</ele>
        <time>2020-05-23T10:45:01Z</time>
      </trkpt>
      <trkpt lat="47.13252" lon="-1.93445">
        <ele>9.37</ele>
        <time>2020-05-23T10:45:03Z</time>
      </trkpt>
      <trkpt lat="47.13255" lon="-1.93463">
        <ele>8.27</ele>
        <time>2020-05-23T10:45:05Z</time>
      </trkpt>
      <trkpt lat="47.13258" lon="-1.93479">
        <ele>8.01</ele>
        <time>2020-05-23T10:45:07Z</time>
      </trkpt>
      <trkpt lat="47.13261" lon="-1.93496">
        <ele>8.73</ele>
        <time>2020-05-23T10:45:09Z</time>
      </trkpt>
      <trkpt lat="47.13263" lon="-1.93512">
        <ele>9.34</ele>
        <time>2020-05-23T10:45:11Z</time>
      </trkpt>
      <trkpt lat="47.13266" lon="-1.93527">
        <ele>9.07</ele>
        <time>2020-05-23T10:45:13Z</time>
      </trkpt>
      <trkpt lat="47.13269" lon="-1.93543">
        <ele>8.38</ele>
        <time>2020-05-23T10:45:15Z</time>
      </trkpt>
      <trkpt lat="47.13272" lon="-1.9356">
        <ele>8.25</ele>
        <time>2020-05-23T10:45:17Z</time>
      </trkpt>
      <trkpt lat="47.13274" lon="-1.93577">
        <ele>8.39</ele>
        <time>2020-05-23T10:45:19Z</time>
      </trkpt>
      <trkpt lat="47.13277" lon="-1.93592">
        <ele>8.4</ele>
        <time>2020-05-23T10:45:21Z</time>
      </trkpt>
      <trkpt lat="47.1328" lon="-1.93609">
        <ele>8.01</ele>
        <time>2020-05-23T10:45:23Z</time>
      </trkpt>
      <trkpt lat="47.13283" lon="-1.93623">
        <ele>7.42</ele>
        <time>2020-05-23T10:45:25Z</time>
      </trkpt>
      <trkpt lat="47.13286" lon="-1.93639">
        <ele>6.97</ele>
        <time>2020-05-23T10:45:27Z</time>
      </trkpt>
      <trkpt lat="47.1329" lon="-1.93656">
        <ele>6.28</ele>
        <time>2020-05-23T10:45:29Z</time>
      </trkpt>
      <trkpt lat="47.13293" lon="-1.93672">
        <ele>5.87</ele>
        <time>2020-05-23T10:45:31Z</time>
      </trkpt>
      <trkpt lat="47.13296" lon="-1.93687">
        <ele>5.44</ele>
        <time>2020-05-23T10:45:33Z</time>
      </trkpt>
      <trkpt lat="47.133" lon="-1.93701">
        <ele>5.69</ele>
        <time>2020-05-23T10:45:35Z</time>
      </trkpt>
      <trkpt lat="47.13304" lon="-1.93716">
        <ele>6.28</ele>
        <time>2020-05-23T10:45:37Z</time>
      </trkpt>
      <trkpt lat="47.13307" lon="-1.93732">
        <ele>6.77</ele>
        <time>2020-05-23T10:45:39Z</time>
      </trkpt>
      <trkpt lat="47.1331" lon="-1.9375">
        <ele>6.81</ele>
        <time>2020-05-23T10:45:41Z</time>
      </trkpt>
      <trkpt lat="47.13311" lon="-1.93764">
        <ele>6.63</ele>
        <time>2020-05-23T10:45:43Z</time>
      </trkpt>
      <trkpt lat="47.13311" lon="-1.93779">
        <ele>5.7</ele>
        <time>2020-05-23T10:45:45Z</time>
      </trkpt>
      <trkpt lat="47.13311" lon="-1.93796">
        <ele>5.05</ele>
        <time>2020-05-23T10:45:47Z</time>
      </trkpt>
      <trkpt lat="47.1331" lon="-1.93815">
        <ele>4.14</ele>
        <time>2020-05-23T10:45:49Z</time>
      </trkpt>
      <trkpt lat="47.13309" lon="-1.93831">
        <ele>3.73</ele>
        <time>2020-05-23T10:45:51Z</time>
      </trkpt>
      <trkpt lat="47.13308" lon="-1.93848">
        <ele>3.58</ele>
        <time>2020-05-23T10:45:53Z</time>
      </trkpt>
      <trkpt lat="47.13307" lon="-1.93865">
        <ele>3.81</ele>
        <time>2020-05-23T10:45:55Z</time>
      </trkpt>
      <trkpt lat="47.13305" lon="-1.93879">
        <ele>4.57</ele>
        <time>2020-05-23T10:45:57Z</time>
      </trkpt>
      <trkpt lat="47.13303" lon="-1.93894">
        <ele>5.72</ele>
        <time>2020-05-23T10:45:59Z</time>
      </trkpt>
      <trkpt lat="47.13301" lon="-1.93908">
        <ele>6.79</ele>
        <time>2020-05-23T10:46:01Z</time>
      </trkpt>
      <trkpt lat="47.13297" lon="-1.93923">
        <ele>7.62</ele>
        <time>2020-05-23T10:46:03Z</time>
      </trkpt>
      <trkpt lat="47.13292" lon="-1.93938">
        <ele>8.38</ele>
        <time>2020-05-23T10:46:05Z</time>
      </trkpt>
      <trkpt lat="47.13287" lon="-1.93953">
        <ele>7.91</ele>
        <time>2020-05-23T10:46:07Z</time>
      </trkpt>
      <trkpt lat="47.13282" lon="-1.93967">
        <ele>7.96</ele>
        <time>2020-05-23T10:46:09Z</time>
      </trkpt>
      <trkpt lat="47.13289" lon="-1.93979">
        <ele>8.12</ele>
        <time>2020-05-23T10:46:12Z</time>
      </trkpt>
      <trkpt lat="47.133" lon="-1.93983">
        <ele>8.39</ele>
        <time>2020-05-23T10:46:14Z</time>
      </trkpt>
      <trkpt lat="47.13313" lon="-1.93986">
        <ele>8.79</ele>
        <time>2020-05-23T10:46:16Z</time>
      </trkpt>
      <trkpt lat="47.13323" lon="-1.93988">
        <ele>9.25</ele>
        <time>2020-05-23T10:46:18Z</time>
      </trkpt>
      <trkpt lat="47.13334" lon="-1.93992">
        <ele>7.6</ele>
        <time>2020-05-23T10:46:20Z</time>
      </trkpt>
      <trkpt lat="47.13345" lon="-1.93999">
        <ele>6.08</ele>
        <time>2020-05-23T10:46:22Z</time>
      </trkpt>
      <trkpt lat="47.13356" lon="-1.94009">
        <ele>5.66</ele>
        <time>2020-05-23T10:46:24Z</time>
      </trkpt>
      <trkpt lat="47.13366" lon="-1.94022">
        <ele>4.82</ele>
        <time>2020-05-23T10:46:26Z</time>
      </trkpt>
      <trkpt lat="47.13373" lon="-1.94031">
        <ele>4.77</ele>
        <time>2020-05-23T10:46:28Z</time>
      </trkpt>
      <trkpt lat="47.13382" lon="-1.94042">
        <ele>4.35</ele>
        <time>2020-05-23T10:46:30Z</time>
      </trkpt>
      <trkpt lat="47.13393" lon="-1.94056">
        <ele>4.45</ele>
        <time>2020-05-23T10:46:32Z</time>
      </trkpt>
      <trkpt lat="47.13403" lon="-1.94069">
        <ele>5.31</ele>
        <time>2020-05-23T10:46:34Z</time>
      </trkpt>
      <trkpt lat="47.13411" lon="-1.94079">
        <ele>5.26</ele>
        <time>2020-05-23T10:46:36Z</time>
      </trkpt>
      <trkpt lat="47.13421" lon="-1.94092">
        <ele>4.79</ele>
        <time>2020-05-23T10:46:38Z</time>
      </trkpt>
      <trkpt lat="47.13429" lon="-1.94102">
        <ele>5.53</ele>
        <time>2020-05-23T10:46:40Z</time>
      </trkpt>
      <trkpt lat="47.13436" lon="-1.94111">
        <ele>5.67</ele>
        <time>2020-05-23T10:46:42Z</time>
      </trkpt>
      <trkpt lat="47.13445" lon="-1.94123">
        <ele>5.82</ele>
        <time>2020-05-23T10:46:44Z</time>
      </trkpt>
      <trkpt lat="47.13453" lon="-1.94133">
        <ele>6.57</ele>
        <time>2020-05-23T10:46:46Z</time>
      </trkpt>
      <trkpt lat="47.13462" lon="-1.94145">
        <ele>7.39</ele>
        <time>2020-05-23T10:46:48Z</time>
      </trkpt>
      <trkpt lat="47.13471" lon="-1.94155">
        <ele>8.09</ele>
        <time>2020-05-23T10:46:50Z</time>
      </trkpt>
      <trkpt lat="47.13479" lon="-1.94164">
        <ele>7.95</ele>
        <time>2020-05-23T10:46:52Z</time>
      </trkpt>
      <trkpt lat="47.13488" lon="-1.94176">
        <ele>6.89</ele>
        <time>2020-05-23T10:46:54Z</time>
      </trkpt>
      <trkpt lat="47.13495" lon="-1.94187">
        <ele>6.41</ele>
        <time>2020-05-23T10:46:56Z</time>
      </trkpt>
      <trkpt lat="47.13504" lon="-1.94199">
        <ele>5.75</ele>
        <time>2020-05-23T10:46:58Z</time>
      </trkpt>
      <trkpt lat="47.13513" lon="-1.94211">
        <ele>5.56</ele>
        <time>2020-05-23T10:47:00Z</time>
      </trkpt>
      <trkpt lat="47.13522" lon="-1.94222">
        <ele>5.75</ele>
        <time>2020-05-23T10:47:02Z</time>
      </trkpt>
      <trkpt lat="47.13531" lon="-1.94232">
        <ele>6.41</ele>
        <time>2020-05-23T10:47:04Z</time>
      </trkpt>
      <trkpt lat="47.1354" lon="-1.94243">
        <ele>6.58</ele>
        <time>2020-05-23T10:47:06Z</time>
      </trkpt>
      <trkpt lat="47.13549" lon="-1.94253">
        <ele>6.72</ele>
        <time>2020-05-23T10:47:08Z</time>
      </trkpt>
      <trkpt lat="47.13559" lon="-1.94265">
        <ele>6.51</ele>
        <time>2020-05-23T10:47:10Z</time>
      </trkpt>
      <trkpt lat="47.13567" lon="-1.94276">
        <ele>6.97</ele>
        <time>2020-05-23T10:47:12Z</time>
      </trkpt>
      <trkpt lat="47.13577" lon="-1.94288">
        <ele>6.13</ele>
        <time>2020-05-23T10:47:14Z</time>
      </trkpt>
      <trkpt lat="47.13586" lon="-1.943">
        <ele>5.05</ele>
        <time>2020-05-23T10:47:16Z</time>
      </trkpt>
      <trkpt lat="47.13595" lon="-1.94311">
        <ele>5.34</ele>
        <time>2020-05-23T10:47:18Z</time>
      </trkpt>
      <trkpt lat="47.13605" lon="-1.94322">
        <ele>5.06</ele>
        <time>2020-05-23T10:47:20Z</time>
      </trkpt>
      <trkpt lat="47.13614" lon="-1.94333">
        <ele>4.36</ele>
        <time>2020-05-23T10:47:22Z</time>
      </trkpt>
      <trkpt lat="47.13623" lon="-1.94345">
        <ele>4.02</ele>
        <time>2020-05-23T10:47:24Z</time>
      </trkpt>
      <trkpt lat="47.13633" lon="-1.94357">
        <ele>4.13</ele>
        <time>2020-05-23T10:47:26Z</time>
      </trkpt>
      <trkpt lat="47.13644" lon="-1.94369">
        <ele>4.11</ele>
        <time>2020-05-23T10:47:28Z</time>
      </trkpt>
      <trkpt lat="47.13653" lon="-1.9438">
        <ele>3.76</ele>
        <time>2020-05-23T10:47:30Z</time>
      </trkpt>
      <trkpt lat="47.13664" lon="-1.94393">
        <ele>3.28</ele>
        <time>2020-05-23T10:47:32Z</time>
      </trkpt>
      <trkpt lat="47.13673" lon="-1.94405">
        <ele>3.9</ele>
        <time>2020-05-23T10:47:34Z</time>
      </trkpt>
      <trkpt lat="47.13681" lon="-1.94415">
        <ele>4.64</ele>
        <time>2020-05-23T10:47:36Z</time>
      </trkpt>
      <trkpt lat="47.13689" lon="-1.94425">
        <ele>4.27</ele>
        <time>2020-05-23T10:47:38Z</time>
      </trkpt>
      <trkpt lat="47.13698" lon="-1.94437">
        <ele>2.97</ele>
        <time>2020-05-23T10:47:40Z</time>
      </trkpt>
      <trkpt lat="47.13708" lon="-1.94449">
        <ele>2.44</ele>
        <time>2020-05-23T10:47:42Z</time>
      </trkpt>
      <trkpt lat="47.13718" lon="-1.94458">
        <ele>2.26</ele>
        <time>2020-05-23T10:47:44Z</time>
      </trkpt>
      <trkpt lat="47.13729" lon="-1.94466">
        <ele>1.82</ele>
        <time>2020-05-23T10:47:46Z</time>
      </trkpt>
      <trkpt lat="47.13739" lon="-1.94474">
        <ele>1.35</ele>
        <time>2020-05-23T10:47:48Z</time>
      </trkpt>
      <trkpt lat="47.13747" lon="-1.94481">
        <ele>1.77</ele>
        <time>2020-05-23T10:47:50Z</time>
      </trkpt>
      <trkpt lat="47.13756" lon="-1.94489">
        <ele>2.69</ele>
        <time>2020-05-23T10:47:52Z</time>
      </trkpt>
      <trkpt lat="47.13766" lon="-1.94498">
        <ele>3.78</ele>
        <time>2020-05-23T10:47:54Z</time>
      </trkpt>
      <trkpt lat="47.13775" lon="-1.94507">
        <ele>3.8</ele>
        <time>2020-05-23T10:47:56Z</time>
      </trkpt>
      <trkpt lat="47.13785" lon="-1.94516">
        <ele>3.41</ele>
        <time>2020-05-23T10:47:58Z</time>
      </trkpt>
      <trkpt lat="47.13794" lon="-1.94525">
        <ele>3.46</ele>
        <time>2020-05-23T10:48:00Z</time>
      </trkpt>
      <trkpt lat="47.13803" lon="-1.94534">
        <ele>3.37</ele>
        <time>2020-05-23T10:48:02Z</time>
      </trkpt>
      <trkpt lat="47.1381" lon="-1.94544">
        <ele>3.91</ele>
        <time>2020-05-23T10:48:04Z</time>
      </trkpt>
      <trkpt lat="47.1382" lon="-1.94558">
        <ele>5.16</ele>
        <time>2020-05-23T10:48:07Z</time>
      </trkpt>
      <trkpt lat="47.13829" lon="-1.9457">
        <ele>5.37</ele>
        <time>2020-05-23T10:48:09Z</time>
      </trkpt>
      <trkpt lat="47.13835" lon="-1.94582">
        <ele>6.33</ele>
        <time>2020-05-23T10:48:11Z</time>
      </trkpt>
      <trkpt lat="47.13841" lon="-1.94593">
        <ele>6.55</ele>
        <time>2020-05-23T10:48:13Z</time>
      </trkpt>
      <trkpt lat="47.13849" lon="-1.94607">
        <ele>6.51</ele>
        <time>2020-05-23T10:48:15Z</time>
      </trkpt>
      <trkpt lat="47.13855" lon="-1.94619">
        <ele>7.41</ele>
        <time>2020-05-23T10:48:17Z</time>
      </trkpt>
      <trkpt lat="47.13861" lon="-1.94631">
        <ele>8.46</ele>
        <time>2020-05-23T10:48:19Z</time>
      </trkpt>
      <trkpt lat="47.13868" lon="-1.94647">
        <ele>8.6</ele>
        <time>2020-05-23T10:48:22Z</time>
      </trkpt>
      <trkpt lat="47.13872" lon="-1.9466">
        <ele>8.62</ele>
        <time>2020-05-23T10:48:24Z</time>
      </trkpt>
      <trkpt lat="47.13877" lon="-1.94678">
        <ele>8.75</ele>
        <time>2020-05-23T10:48:26Z</time>
      </trkpt>
      <trkpt lat="47.1388" lon="-1.94692">
        <ele>9.74</ele>
        <time>2020-05-23T10:48:28Z</time>
      </trkpt>
      <trkpt lat="47.13884" lon="-1.94707">
        <ele>10.58</ele>
        <time>2020-05-23T10:48:30Z</time>
      </trkpt>
      <trkpt lat="47.13888" lon="-1.94722">
        <ele>10.45</ele>
        <time>2020-05-23T10:48:32Z</time>
      </trkpt>
      <trkpt lat="47.13892" lon="-1.94739">
        <ele>10.77</ele>
        <time>2020-05-23T10:48:34Z</time>
      </trkpt>
      <trkpt lat="47.13897" lon="-1.94759">
        <ele>10.41</ele>
        <time>2020-05-23T10:48:37Z</time>
      </trkpt>
      <trkpt lat="47.139" lon="-1.94771">
        <ele>10.23</ele>
        <time>2020-05-23T10:48:39Z</time>
      </trkpt>
      <trkpt lat="47.13904" lon="-1.94786">
        <ele>9.8</ele>
        <time>2020-05-23T10:48:41Z</time>
      </trkpt>
      <trkpt lat="47.13908" lon="-1.94799">
        <ele>9.37</ele>
        <time>2020-05-23T10:48:43Z</time>
      </trkpt>
      <trkpt lat="47.13912" lon="-1.94812">
        <ele>8.83</ele>
        <time>2020-05-23T10:48:45Z</time>
      </trkpt>
      <trkpt lat="47.13916" lon="-1.94828">
        <ele>8.58</ele>
        <time>2020-05-23T10:48:47Z</time>
      </trkpt>
      <trkpt lat="47.13922" lon="-1.94848">
        <ele>9.17</ele>
        <time>2020-05-23T10:48:50Z</time>
      </trkpt>
      <trkpt lat="47.13926" lon="-1.94863">
        <ele>10.3</ele>
        <time>2020-05-23T10:48:52Z</time>
      </trkpt>
      <trkpt lat="47.13931" lon="-1.94878">
        <ele>10.62</ele>
        <time>2020-05-23T10:48:54Z</time>
      </trkpt>
      <trkpt lat="47.13936" lon="-1.94893">
        <ele>10.95</ele>
        <time>2020-05-23T10:48:56Z</time>
      </trkpt>
      <trkpt lat="47.1394" lon="-1.94909">
        <ele>10.27</ele>
        <time>2020-05-23T10:48:58Z</time>
      </trkpt>
      <trkpt lat="47.13943" lon="-1.94923">
        <ele>10.51</ele>
        <time>2020-05-23T10:49:00Z</time>
      </trkpt>
      <trkpt lat="47.13947" lon="-1.94936">
        <ele>9.91</ele>
        <time>2020-05-23T10:49:02Z</time>
      </trkpt>
      <trkpt lat="47.13952" lon="-1.9495">
        <ele>9.76</ele>
        <time>2020-05-23T10:49:04Z</time>
      </trkpt>
      <trkpt lat="47.13956" lon="-1.94967">
        <ele>9.07</ele>
        <time>2020-05-23T10:49:06Z</time>
      </trkpt>
      <trkpt lat="47.13959" lon="-1.94982">
        <ele>8.01</ele>
        <time>2020-05-23T10:49:08Z</time>
      </trkpt>
      <trkpt lat="47.13963" lon="-1.94996">
        <ele>8.92</ele>
        <time>2020-05-23T10:49:10Z</time>
      </trkpt>
      <trkpt lat="47.13965" lon="-1.95011">
        <ele>10.76</ele>
        <time>2020-05-23T10:49:12Z</time>
      </trkpt>
      <trkpt lat="47.13967" lon="-1.95027">
        <ele>12.48</ele>
        <time>2020-05-23T10:49:14Z</time>
      </trkpt>
      <trkpt lat="47.1397" lon="-1.95046">
        <ele>12.69</ele>
        <time>2020-05-23T10:49:16Z</time>
      </trkpt>
      <trkpt lat="47.13974" lon="-1.95065">
        <ele>12.4</ele>
        <time>2020-05-23T10:49:18Z</time>
      </trkpt>
      <trkpt lat="47.13976" lon="-1.95082">
        <ele>11.58</ele>
        <time>2020-05-23T10:49:20Z</time>
      </trkpt>
      <trkpt lat="47.13979" lon="-1.951">
        <ele>10.33</ele>
        <time>2020-05-23T10:49:22Z</time>
      </trkpt>
      <trkpt lat="47.13981" lon="-1.95118">
        <ele>10.05</ele>
        <time>2020-05-23T10:49:24Z</time>
      </trkpt>
      <trkpt lat="47.13983" lon="-1.9514">
        <ele>9.28</ele>
        <time>2020-05-23T10:49:26Z</time>
      </trkpt>
      <trkpt lat="47.13985" lon="-1.95158">
        <ele>8.94</ele>
        <time>2020-05-23T10:49:28Z</time>
      </trkpt>
      <trkpt lat="47.13986" lon="-1.95173">
        <ele>8.71</ele>
        <time>2020-05-23T10:49:30Z</time>
      </trkpt>
      <trkpt lat="47.13987" lon="-1.95189">
        <ele>8.94</ele>
        <time>2020-05-23T10:49:32Z</time>
      </trkpt>
      <trkpt lat="47.13988" lon="-1.95206">
        <ele>8.96</ele>
        <time>2020-05-23T10:49:34Z</time>
      </trkpt>
      <trkpt lat="47.13988" lon="-1.95225">
        <ele>8.29</ele>
        <time>2020-05-23T10:49:36Z</time>
      </trkpt>
      <trkpt lat="47.13988" lon="-1.95244">
        <ele>7.52</ele>
        <time>2020-05-23T10:49:38Z</time>
      </trkpt>
      <trkpt lat="47.13988" lon="-1.95263">
        <ele>7.06</ele>
        <time>2020-05-23T10:49:40Z</time>
      </trkpt>
      <trkpt lat="47.13989" lon="-1.9528">
        <ele>6.47</ele>
        <time>2020-05-23T10:49:42Z</time>
      </trkpt>
      <trkpt lat="47.13989" lon="-1.95301">
        <ele>6.9</ele>
        <time>2020-05-23T10:49:44Z</time>
      </trkpt>
      <trkpt lat="47.13992" lon="-1.95322">
        <ele>7.77</ele>
        <time>2020-05-23T10:49:46Z</time>
      </trkpt>
      <trkpt lat="47.13996" lon="-1.9534">
        <ele>8.15</ele>
        <time>2020-05-23T10:49:48Z</time>
      </trkpt>
      <trkpt lat="47.14001" lon="-1.95358">
        <ele>7.74</ele>
        <time>2020-05-23T10:49:50Z</time>
      </trkpt>
      <trkpt lat="47.14006" lon="-1.95372">
        <ele>7.61</ele>
        <time>2020-05-23T10:49:52Z</time>
      </trkpt>
      <trkpt lat="47.14013" lon="-1.95389">
        <ele>8.96</ele>
        <time>2020-05-23T10:49:54Z</time>
      </trkpt>
      <trkpt lat="47.14021" lon="-1.95405">
        <ele>9.91</ele>
        <time>2020-05-23T10:49:56Z</time>
      </trkpt>
      <trkpt lat="47.1403" lon="-1.95425">
        <ele>9.46</ele>
        <time>2020-05-23T10:49:58Z</time>
      </trkpt>
      <trkpt lat="47.14039" lon="-1.95443">
        <ele>9.82</ele>
        <time>2020-05-23T10:50:00Z</time>
      </trkpt>
      <trkpt lat="47.14046" lon="-1.95457">
        <ele>9.31</ele>
        <time>2020-05-23T10:50:02Z</time>
      </trkpt>
      <trkpt lat="47.14053" lon="-1.95472">
        <ele>8.81</ele>
        <time>2020-05-23T10:50:04Z</time>
      </trkpt>
      <trkpt lat="47.14061" lon="-1.95487">
        <ele>8.43</ele>
        <time>2020-05-23T10:50:06Z</time>
      </trkpt>
      <trkpt lat="47.14069" lon="-1.95504">
        <ele>7.99</ele>
        <time>2020-05-23T10:50:08Z</time>
      </trkpt>
      <trkpt lat="47.14074" lon="-1.95521">
        <ele>7.84</ele>
        <time>2020-05-23T10:50:10Z</time>
      </trkpt>
      <trkpt lat="47.14078" lon="-1.95538">
        <ele>7.22</ele>
        <time>2020-05-23T10:50:12Z</time>
      </trkpt>
      <trkpt lat="47.14081" lon="-1.95555">
        <ele>6.63</ele>
        <time>2020-05-23T10:50:14Z</time>
      </trkpt>
      <trkpt lat="47.14086" lon="-1.95577">
        <ele>6.84</ele>
        <time>2020-05-23T10:50:16Z</time>
      </trkpt>
      <trkpt lat="47.14091" lon="-1.95591">
        <ele>6.92</ele>
        <time>2020-05-23T10:50:18Z</time>
      </trkpt>
      <trkpt lat="47.14098" lon="-1.95608">
        <ele>7.69</ele>
        <time>2020-05-23T10:50:20Z</time>
      </trkpt>
      <trkpt lat="47.14106" lon="-1.95624">
        <ele>8.94</ele>
        <time>2020-05-23T10:50:22Z</time>
      </trkpt>
      <trkpt lat="47.14115" lon="-1.95638">
        <ele>9.4</ele>
        <time>2020-05-23T10:50:24Z</time>
      </trkpt>
      <trkpt lat="47.14123" lon="-1.9565">
        <ele>9.23</ele>
        <time>2020-05-23T10:50:26Z</time>
      </trkpt>
      <trkpt lat="47.14132" lon="-1.95664">
        <ele>7.87</ele>
        <time>2020-05-23T10:50:28Z</time>
      </trkpt>
      <trkpt lat="47.1414" lon="-1.95675">
        <ele>8.35</ele>
        <time>2020-05-23T10:50:30Z</time>
      </trkpt>
      <trkpt lat="47.14147" lon="-1.95685">
        <ele>9.7</ele>
        <time>2020-05-23T10:50:32Z</time>
      </trkpt>
      <trkpt lat="47.14155" lon="-1.95696">
        <ele>9.76</ele>
        <time>2020-05-23T10:50:34Z</time>
      </trkpt>
      <trkpt lat="47.14161" lon="-1.95706">
        <ele>11.19</ele>
        <time>2020-05-23T10:50:36Z</time>
      </trkpt>
      <trkpt lat="47.14168" lon="-1.95717">
        <ele>13.16</ele>
        <time>2020-05-23T10:50:38Z</time>
      </trkpt>
      <trkpt lat="47.14175" lon="-1.9573">
        <ele>13.99</ele>
        <time>2020-05-23T10:50:40Z</time>
      </trkpt>
      <trkpt lat="47.14183" lon="-1.95743">
        <ele>14.68</ele>
        <time>2020-05-23T10:50:42Z</time>
      </trkpt>
      <trkpt lat="47.14191" lon="-1.95757">
        <ele>15.77</ele>
        <time>2020-05-23T10:50:44Z</time>
      </trkpt>
      <trkpt lat="47.14198" lon="-1.9577">
        <ele>16.33</ele>
        <time>2020-05-23T10:50:46Z</time>
      </trkpt>
      <trkpt lat="47.14205" lon="-1.95783">
        <ele>16.67</ele>
        <time>2020-05-23T10:50:48Z</time>
      </trkpt>
      <trkpt lat="47.14212" lon="-1.95794">
        <ele>16.71</ele>
        <time>2020-05-23T10:50:50Z</time>
      </trkpt>
      <trkpt lat="47.14219" lon="-1.95806">
        <ele>16.45</ele>
        <time>2020-05-23T10:50:52Z</time>
      </trkpt>
      <trkpt lat="47.14226" lon="-1.95817">
        <ele>16.73</ele>
        <time>2020-05-23T10:50:54Z</time>
      </trkpt>
      <trkpt lat="47.14236" lon="-1.95831">
        <ele>16.1</ele>
        <time>2020-05-23T10:50:56Z</time>
      </trkpt>
      <trkpt lat="47.14244" lon="-1.95842">
        <ele>16.28</ele>
        <time>2020-05-23T10:50:58Z</time>
      </trkpt>
      <trkpt lat="47.14254" lon="-1.95855">
        <ele>14.99</ele>
        <time>2020-05-23T10:51:01Z</time>
      </trkpt>
      <trkpt lat="47.14261" lon="-1.95865">
        <ele>15.03</ele>
        <time>2020-05-23T10:51:03Z</time>
      </trkpt>
      <trkpt lat="47.14269" lon="-1.95876">
        <ele>14.85</ele>
        <time>2020-05-23T10:51:05Z</time>
      </trkpt>
      <trkpt lat="47.14276" lon="-1.95886">
        <ele>15.5</ele>
        <time>2020-05-23T10:51:07Z</time>
      </trkpt>
      <trkpt lat="47.14284" lon="-1.95897">
        <ele>14.32</ele>
        <time>2020-05-23T10:51:09Z</time>
      </trkpt>
      <trkpt lat="47.14291" lon="-1.95907">
        <ele>13.44</ele>
        <time>2020-05-23T10:51:11Z</time>
      </trkpt>
      <trkpt lat="47.14299" lon="-1.95918">
        <ele>13.36</ele>
        <time>2020-05-23T10:51:13Z</time>
      </trkpt>
      <trkpt lat="47.14307" lon="-1.9593">
        <ele>13.05</ele>
        <time>2020-05-23T10:51:15Z</time>
      </trkpt>
      <trkpt lat="47.14314" lon="-1.95941">
        <ele>13.31</ele>
        <time>2020-05-23T10:51:17Z</time>
      </trkpt>
      <trkpt lat="47.14321" lon="-1.95953">
        <ele>15.34</ele>
        <time>2020-05-23T10:51:19Z</time>
      </trkpt>
      <trkpt lat="47.14328" lon="-1.95965">
        <ele>16.08</ele>
        <time>2020-05-23T10:51:21Z</time>
      </trkpt>
      <trkpt lat="47.14335" lon="-1.95978">
        <ele>15.35</ele>
        <time>2020-05-23T10:51:23Z</time>
      </trkpt>
      <trkpt lat="47.14343" lon="-1.9599">
        <ele>14.88</ele>
        <time>2020-05-23T10:51:25Z</time>
      </trkpt>
      <trkpt lat="47.14351" lon="-1.96001">
        <ele>14.26</ele>
        <time>2020-05-23T10:51:27Z</time>
      </trkpt>
      <trkpt lat="47.14359" lon="-1.96013">
        <ele>13.98</ele>
        <time>2020-05-23T10:51:29Z</time>
      </trkpt>
      <trkpt lat="47.14369" lon="-1.96023">
        <ele>13.64</ele>
        <time>2020-05-23T10:51:31Z</time>
      </trkpt>
      <trkpt lat="47.14377" lon="-1.96032">
        <ele>13.5</ele>
        <time>2020-05-23T10:51:33Z</time>
      </trkpt>
      <trkpt lat="47.14388" lon="-1.9604">
        <ele>12.66</ele>
        <time>2020-05-23T10:51:35Z</time>
      </trkpt>
      <trkpt lat="47.14399" lon="-1.96047">
        <ele>13.02</ele>
        <time>2020-05-23T10:51:37Z</time>
      </trkpt>
      <trkpt lat="47.14408" lon="-1.96052">
        <ele>14.05</ele>
        <time>2020-05-23T10:51:39Z</time>
      </trkpt>
      <trkpt lat="47.14417" lon="-1.96057">
        <ele>14.91</ele>
        <time>2020-05-23T10:51:41Z</time>
      </trkpt>
      <trkpt lat="47.14428" lon="-1.96063">
        <ele>15.39</ele>
        <time>2020-05-23T10:51:43Z</time>
      </trkpt>
      <trkpt lat="47.14437" lon="-1.96067">
        <ele>15.98</ele>
        <time>2020-05-23T10:51:45Z</time>
      </trkpt>
      <trkpt lat="47.14446" lon="-1.96072">
        <ele>16.49</ele>
        <time>2020-05-23T10:51:47Z</time>
      </trkpt>
      <trkpt lat="47.14459" lon="-1.96076">
        <ele>16.69</ele>
        <time>2020-05-23T10:51:50Z</time>
      </trkpt>
      <trkpt lat="47.14468" lon="-1.96083">
        <ele>17.12</ele>
        <time>2020-05-23T10:51:52Z</time>
      </trkpt>
      <trkpt lat="47.14478" lon="-1.9609">
        <ele>17.75</ele>
        <time>2020-05-23T10:51:54Z</time>
      </trkpt>
      <trkpt lat="47.14487" lon="-1.96098">
        <ele>18.81</ele>
        <time>2020-05-23T10:51:56Z</time>
      </trkpt>
      <trkpt lat="47.14496" lon="-1.96108">
        <ele>19.78</ele>
        <time>2020-05-23T10:51:58Z</time>
      </trkpt>
      <trkpt lat="47.14504" lon="-1.96117">
        <ele>19.78</ele>
        <time>2020-05-23T10:52:00Z</time>
      </trkpt>
      <trkpt lat="47.14511" lon="-1.96126">
        <ele>19.32</ele>
        <time>2020-05-23T10:52:02Z</time>
      </trkpt>
      <trkpt lat="47.1452" lon="-1.96138">
        <ele>17.4</ele>
        <time>2020-05-23T10:52:04Z</time>
      </trkpt>
      <trkpt lat="47.14526" lon="-1.96149">
        <ele>15.14</ele>
        <time>2020-05-23T10:52:06Z</time>
      </trkpt>
      <trkpt lat="47.14533" lon="-1.96163">
        <ele>13.55</ele>
        <time>2020-05-23T10:52:08Z</time>
      </trkpt>
      <trkpt lat="47.14538" lon="-1.96176">
        <ele>13.5</ele>
        <time>2020-05-23T10:52:10Z</time>
      </trkpt>
      <trkpt lat="47.14543" lon="-1.96193">
        <ele>15.3</ele>
        <time>2020-05-23T10:52:12Z</time>
      </trkpt>
      <trkpt lat="47.14547" lon="-1.96208">
        <ele>16.43</ele>
        <time>2020-05-23T10:52:14Z</time>
      </trkpt>
      <trkpt lat="47.1455" lon="-1.96223">
        <ele>16.63</ele>
        <time>2020-05-23T10:52:16Z</time>
      </trkpt>
      <trkpt lat="47.14553" lon="-1.96237">
        <ele>17.52</ele>
        <time>2020-05-23T10:52:18Z</time>
      </trkpt>
      <trkpt lat="47.14557" lon="-1.96252">
        <ele>18.03</ele>
        <time>2020-05-23T10:52:20Z</time>
      </trkpt>
      <trkpt lat="47.14559" lon="-1.96267">
        <ele>18.1</ele>
        <time>2020-05-23T10:52:22Z</time>
      </trkpt>
      <trkpt lat="47.14562" lon="-1.96285">
        <ele>18.85</ele>
        <time>2020-05-23T10:52:24Z</time>
      </trkpt>
      <trkpt lat="47.14565" lon="-1.96301">
        <ele>19.37</ele>
        <time>2020-05-23T10:52:26Z</time>
      </trkpt>
      <trkpt lat="47.14568" lon="-1.96314">
        <ele>20.65</ele>
        <time>2020-05-23T10:52:28Z</time>
      </trkpt>
      <trkpt lat="47.14572" lon="-1.96331">
        <ele>21.54</ele>
        <time>2020-05-23T10:52:30Z</time>
      </trkpt>
      <trkpt lat="47.14575" lon="-1.96348">
        <ele>22.56</ele>
        <time>2020-05-23T10:52:32Z</time>
      </trkpt>
      <trkpt lat="47.14578" lon="-1.96364">
        <ele>22.78</ele>
        <time>2020-05-23T10:52:34Z</time>
      </trkpt>
      <trkpt lat="47.14581" lon="-1.96381">
        <ele>23.04</ele>
        <time>2020-05-23T10:52:36Z</time>
      </trkpt>
      <trkpt lat="47.14581" lon="-1.96397">
        <ele>22.68</ele>
        <time>2020-05-23T10:52:38Z</time>
      </trkpt>
      <trkpt lat="47.14581" lon="-1.96415">
        <ele>22.25</ele>
        <time>2020-05-23T10:52:40Z</time>
      </trkpt>
      <trkpt lat="47.1458" lon="-1.96433">
        <ele>21.42</ele>
        <time>2020-05-23T10:52:42Z</time>
      </trkpt>
      <trkpt lat="47.14579" lon="-1.96451">
        <ele>20.97</ele>
        <time>2020-05-23T10:52:44Z</time>
      </trkpt>
      <trkpt lat="47.14578" lon="-1.9647">
        <ele>20.34</ele>
        <time>2020-05-23T10:52:46Z</time>
      </trkpt>
      <trkpt lat="47.14582" lon="-1.96488">
        <ele>19.37</ele>
        <time>2020-05-23T10:52:48Z</time>
      </trkpt>
      <trkpt lat="47.14589" lon="-1.96503">
        <ele>19.47</ele>
        <time>2020-05-23T10:52:50Z</time>
      </trkpt>
      <trkpt lat="47.14596" lon="-1.96521">
        <ele>20.45</ele>
        <time>2020-05-23T10:52:52Z</time>
      </trkpt>
      <trkpt lat="47.14603" lon="-1.96537">
        <ele>21.01</ele>
        <time>2020-05-23T10:52:54Z</time>
      </trkpt>
      <trkpt lat="47.1461" lon="-1.96555">
        <ele>20.05</ele>
        <time>2020-05-23T10:52:56Z</time>
      </trkpt>
      <trkpt lat="47.14616" lon="-1.96574">
        <ele>19.93</ele>
        <time>2020-05-23T10:52:58Z</time>
      </trkpt>
      <trkpt lat="47.14621" lon="-1.96594">
        <ele>19.8</ele>
        <time>2020-05-23T10:53:00Z</time>
      </trkpt>
      <trkpt lat="47.14624" lon="-1.96615">
        <ele>19.68</ele>
        <time>2020-05-23T10:53:02Z</time>
      </trkpt>
      <trkpt lat="47.14626" lon="-1.96634">
        <ele>19.04</ele>
        <time>2020-05-23T10:53:04Z</time>
      </trkpt>
      <trkpt lat="47.14629" lon="-1.96658">
        <ele>18.31</ele>
        <time>2020-05-23T10:53:06Z</time>
      </trkpt>
      <trkpt lat="47.14631" lon="-1.96672">
        <ele>17.79</ele>
        <time>2020-05-23T10:53:07Z</time>
      </trkpt>
      <trkpt lat="47.14634" lon="-1.96691">
        <ele>16.61</ele>
        <time>2020-05-23T10:53:09Z</time>
      </trkpt>
      <trkpt lat="47.14641" lon="-1.96709">
        <ele>15.45</ele>
        <time>2020-05-23T10:53:11Z</time>
      </trkpt>
      <trkpt lat="47.14652" lon="-1.96727">
        <ele>13.81</ele>
        <time>2020-05-23T10:53:13Z</time>
      </trkpt>
      <trkpt lat="47.14662" lon="-1.96742">
        <ele>12.55</ele>
        <time>2020-05-23T10:53:15Z</time>
      </trkpt>
      <trkpt lat="47.14671" lon="-1.96754">
        <ele>11.21</ele>
        <time>2020-05-23T10:53:16Z</time>
      </trkpt>
      <trkpt lat="47.14682" lon="-1.96768">
        <ele>11.01</ele>
        <time>2020-05-23T10:53:18Z</time>
      </trkpt>
      <trkpt lat="47.14689" lon="-1.96785">
        <ele>11.67</ele>
        <time>2020-05-23T10:53:20Z</time>
      </trkpt>
      <trkpt lat="47.14696" lon="-1.96801">
        <ele>11.3</ele>
        <time>2020-05-23T10:53:22Z</time>
      </trkpt>
      <trkpt lat="47.14701" lon="-1.96815">
        <ele>11.56</ele>
        <time>2020-05-23T10:53:24Z</time>
      </trkpt>
      <trkpt lat="47.14707" lon="-1.96832">
        <ele>12.53</ele>
        <time>2020-05-23T10:53:26Z</time>
      </trkpt>
      <trkpt lat="47.14714" lon="-1.9685">
        <ele>12.89</ele>
        <time>2020-05-23T10:53:28Z</time>
      </trkpt>
      <trkpt lat="47.14721" lon="-1.96863">
        <ele>13.44</ele>
        <time>2020-05-23T10:53:30Z</time>
      </trkpt>
      <trkpt lat="47.14728" lon="-1.96878">
        <ele>13.57</ele>
        <time>2020-05-23T10:53:32Z</time>
      </trkpt>
      <trkpt lat="47.14734" lon="-1.9689">
        <ele>13.9</ele>
        <time>2020-05-23T10:53:34Z</time>
      </trkpt>
      <trkpt lat="47.14741" lon="-1.96902">
        <ele>14.52</ele>
        <time>2020-05-23T10:53:36Z</time>
      </trkpt>
      <trkpt lat="47.14747" lon="-1.96915">
        <ele>13.99</ele>
        <time>2020-05-23T10:53:38Z</time>
      </trkpt>
      <trkpt lat="47.14754" lon="-1.96932">
        <ele>13.96</ele>
        <time>2020-05-23T10:53:40Z</time>
      </trkpt>
      <trkpt lat="47.1476" lon="-1.96945">
        <ele>14.21</ele>
        <time>2020-05-23T10:53:42Z</time>
      </trkpt>
      <trkpt lat="47.14766" lon="-1.96963">
        <ele>13.68</ele>
        <time>2020-05-23T10:53:45Z</time>
      </trkpt>
      <trkpt lat="47.14771" lon="-1.96978">
        <ele>14.73</ele>
        <time>2020-05-23T10:53:47Z</time>
      </trkpt>
      <trkpt lat="47.14776" lon="-1.96995">
        <ele>16.11</ele>
        <time>2020-05-23T10:53:49Z</time>
      </trkpt>
      <trkpt lat="47.1478" lon="-1.97013">
        <ele>16.94</ele>
        <time>2020-05-23T10:53:52Z</time>
      </trkpt>
      <trkpt lat="47.14783" lon="-1.97034">
        <ele>18.78</ele>
        <time>2020-05-23T10:53:55Z</time>
      </trkpt>
      <trkpt lat="47.14786" lon="-1.97051">
        <ele>18.72</ele>
        <time>2020-05-23T10:53:57Z</time>
      </trkpt>
      <trkpt lat="47.14789" lon="-1.97068">
        <ele>18.03</ele>
        <time>2020-05-23T10:53:59Z</time>
      </trkpt>
      <trkpt lat="47.14791" lon="-1.97081">
        <ele>17.98</ele>
        <time>2020-05-23T10:54:01Z</time>
      </trkpt>
      <trkpt lat="47.14794" lon="-1.971">
        <ele>17.52</ele>
        <time>2020-05-23T10:54:04Z</time>
      </trkpt>
      <trkpt lat="47.14796" lon="-1.97115">
        <ele>15.77</ele>
        <time>2020-05-23T10:54:06Z</time>
      </trkpt>
      <trkpt lat="47.14797" lon="-1.9713">
        <ele>16.8</ele>
        <time>2020-05-23T10:54:08Z</time>
      </trkpt>
      <trkpt lat="47.14798" lon="-1.97145">
        <ele>17.75</ele>
        <time>2020-05-23T10:54:10Z</time>
      </trkpt>
      <trkpt lat="47.14798" lon="-1.97161">
        <ele>17.99</ele>
        <time>2020-05-23T10:54:12Z</time>
      </trkpt>
      <trkpt lat="47.14796" lon="-1.97175">
        <ele>19</ele>
        <time>2020-05-23T10:54:14Z</time>
      </trkpt>
      <trkpt lat="47.14793" lon="-1.97189">
        <ele>19.25</ele>
        <time>2020-05-23T10:54:16Z</time>
      </trkpt>
      <trkpt lat="47.1479" lon="-1.97202">
        <ele>19.69</ele>
        <time>2020-05-23T10:54:18Z</time>
      </trkpt>
      <trkpt lat="47.14787" lon="-1.97216">
        <ele>20.88</ele>
        <time>2020-05-23T10:54:20Z</time>
      </trkpt>
      <trkpt lat="47.14784" lon="-1.97231">
        <ele>20.88</ele>
        <time>2020-05-23T10:54:22Z</time>
      </trkpt>
      <trkpt lat="47.14783" lon="-1.97248">
        <ele>20.25</ele>
        <time>2020-05-23T10:54:24Z</time>
      </trkpt>
      <trkpt lat="47.14782" lon="-1.97265">
        <ele>20.19</ele>
        <time>2020-05-23T10:54:26Z</time>
      </trkpt>
      <trkpt lat="47.14782" lon="-1.97281">
        <ele>21.23</ele>
        <time>2020-05-23T10:54:28Z</time>
      </trkpt>
      <trkpt lat="47.14783" lon="-1.973">
        <ele>21.4</ele>
        <time>2020-05-23T10:54:30Z</time>
      </trkpt>
      <trkpt lat="47.14784" lon="-1.97317">
        <ele>20.86</ele>
        <time>2020-05-23T10:54:32Z</time>
      </trkpt>
      <trkpt lat="47.14784" lon="-1.97331">
        <ele>20.24</ele>
        <time>2020-05-23T10:54:34Z</time>
      </trkpt>
      <trkpt lat="47.14786" lon="-1.97348">
        <ele>19.37</ele>
        <time>2020-05-23T10:54:36Z</time>
      </trkpt>
      <trkpt lat="47.14787" lon="-1.97361">
        <ele>20.15</ele>
        <time>2020-05-23T10:54:38Z</time>
      </trkpt>
      <trkpt lat="47.14789" lon="-1.9738">
        <ele>20.37</ele>
        <time>2020-05-23T10:54:41Z</time>
      </trkpt>
      <trkpt lat="47.14789" lon="-1.97397">
        <ele>21.26</ele>
        <time>2020-05-23T10:54:43Z</time>
      </trkpt>
      <trkpt lat="47.14789" lon="-1.97413">
        <ele>20.61</ele>
        <time>2020-05-23T10:54:45Z</time>
      </trkpt>
      <trkpt lat="47.14789" lon="-1.9743">
        <ele>18.43</ele>
        <time>2020-05-23T10:54:47Z</time>
      </trkpt>
      <trkpt lat="47.14791" lon="-1.9745">
        <ele>16.6</ele>
        <time>2020-05-23T10:54:49Z</time>
      </trkpt>
      <trkpt lat="47.14793" lon="-1.97466">
        <ele>16.27</ele>
        <time>2020-05-23T10:54:51Z</time>
      </trkpt>
      <trkpt lat="47.14795" lon="-1.97484">
        <ele>16.5</ele>
        <time>2020-05-23T10:54:53Z</time>
      </trkpt>
      <trkpt lat="47.14797" lon="-1.97502">
        <ele>17.13</ele>
        <time>2020-05-23T10:54:55Z</time>
      </trkpt>
      <trkpt lat="47.14799" lon="-1.97519">
        <ele>17.63</ele>
        <time>2020-05-23T10:54:57Z</time>
      </trkpt>
      <trkpt lat="47.14801" lon="-1.97537">
        <ele>18.99</ele>
        <time>2020-05-23T10:54:59Z</time>
      </trkpt>
      <trkpt lat="47.14802" lon="-1.97554">
        <ele>20.52</ele>
        <time>2020-05-23T10:55:01Z</time>
      </trkpt>
      <trkpt lat="47.14804" lon="-1.97572">
        <ele>21.16</ele>
        <time>2020-05-23T10:55:03Z</time>
      </trkpt>
      <trkpt lat="47.14805" lon="-1.97587">
        <ele>21.14</ele>
        <time>2020-05-23T10:55:05Z</time>
      </trkpt>
      <trkpt lat="47.14808" lon="-1.97605">
        <ele>20.72</ele>
        <time>2020-05-23T10:55:07Z</time>
      </trkpt>
      <trkpt lat="47.1481" lon="-1.97624">
        <ele>19.95</ele>
        <time>2020-05-23T10:55:09Z</time>
      </trkpt>
      <trkpt lat="47.14812" lon="-1.9764">
        <ele>20.05</ele>
        <time>2020-05-23T10:55:11Z</time>
      </trkpt>
      <trkpt lat="47.14814" lon="-1.97659">
        <ele>19.82</ele>
        <time>2020-05-23T10:55:13Z</time>
      </trkpt>
      <trkpt lat="47.14816" lon="-1.97677">
        <ele>19.77</ele>
        <time>2020-05-23T10:55:15Z</time>
      </trkpt>
      <trkpt lat="47.14817" lon="-1.97697">
        <ele>20.12</ele>
        <time>2020-05-23T10:55:17Z</time>
      </trkpt>
      <trkpt lat="47.14817" lon="-1.97716">
        <ele>20.08</ele>
        <time>2020-05-23T10:55:19Z</time>
      </trkpt>
      <trkpt lat="47.14817" lon="-1.97737">
        <ele>20.48</ele>
        <time>2020-05-23T10:55:21Z</time>
      </trkpt>
      <trkpt lat="47.14816" lon="-1.97755">
        <ele>20.02</ele>
        <time>2020-05-23T10:55:23Z</time>
      </trkpt>
      <trkpt lat="47.14815" lon="-1.97774">
        <ele>19</ele>
        <time>2020-05-23T10:55:25Z</time>
      </trkpt>
      <trkpt lat="47.14812" lon="-1.97792">
        <ele>18.1</ele>
        <time>2020-05-23T10:55:27Z</time>
      </trkpt>
      <trkpt lat="47.1481" lon="-1.9781">
        <ele>17.39</ele>
        <time>2020-05-23T10:55:29Z</time>
      </trkpt>
      <trkpt lat="47.14807" lon="-1.97826">
        <ele>17.27</ele>
        <time>2020-05-23T10:55:31Z</time>
      </trkpt>
      <trkpt lat="47.14805" lon="-1.97842">
        <ele>17.62</ele>
        <time>2020-05-23T10:55:33Z</time>
      </trkpt>
      <trkpt lat="47.14802" lon="-1.97862">
        <ele>18</ele>
        <time>2020-05-23T10:55:35Z</time>
      </trkpt>
      <trkpt lat="47.148" lon="-1.97875">
        <ele>17.87</ele>
        <time>2020-05-23T10:55:37Z</time>
      </trkpt>
      <trkpt lat="47.14798" lon="-1.97892">
        <ele>17.69</ele>
        <time>2020-05-23T10:55:39Z</time>
      </trkpt>
      <trkpt lat="47.14796" lon="-1.97906">
        <ele>16.99</ele>
        <time>2020-05-23T10:55:41Z</time>
      </trkpt>
      <trkpt lat="47.14794" lon="-1.97924">
        <ele>16.38</ele>
        <time>2020-05-23T10:55:43Z</time>
      </trkpt>
      <trkpt lat="47.14794" lon="-1.97939">
        <ele>16.84</ele>
        <time>2020-05-23T10:55:45Z</time>
      </trkpt>
      <trkpt lat="47.14793" lon="-1.97954">
        <ele>18.56</ele>
        <time>2020-05-23T10:55:47Z</time>
      </trkpt>
      <trkpt lat="47.14795" lon="-1.9797">
        <ele>20.24</ele>
        <time>2020-05-23T10:55:49Z</time>
      </trkpt>
      <trkpt lat="47.14799" lon="-1.97987">
        <ele>21.65</ele>
        <time>2020-05-23T10:55:52Z</time>
      </trkpt>
      <trkpt lat="47.14804" lon="-1.98001">
        <ele>21.45</ele>
        <time>2020-05-23T10:55:54Z</time>
      </trkpt>
      <trkpt lat="47.14807" lon="-1.98014">
        <ele>21.46</ele>
        <time>2020-05-23T10:55:56Z</time>
      </trkpt>
      <trkpt lat="47.14812" lon="-1.98027">
        <ele>21.64</ele>
        <time>2020-05-23T10:55:58Z</time>
      </trkpt>
      <trkpt lat="47.14815" lon="-1.9804">
        <ele>20.79</ele>
        <time>2020-05-23T10:56:00Z</time>
      </trkpt>
      <trkpt lat="47.1482" lon="-1.98058">
        <ele>21.32</ele>
        <time>2020-05-23T10:56:03Z</time>
      </trkpt>
      <trkpt lat="47.14825" lon="-1.98077">
        <ele>20.56</ele>
        <time>2020-05-23T10:56:06Z</time>
      </trkpt>
      <trkpt lat="47.14829" lon="-1.98092">
        <ele>21.47</ele>
        <time>2020-05-23T10:56:09Z</time>
      </trkpt>
      <trkpt lat="47.14833" lon="-1.98109">
        <ele>22.04</ele>
        <time>2020-05-23T10:56:12Z</time>
      </trkpt>
      <trkpt lat="47.14837" lon="-1.98127">
        <ele>22.76</ele>
        <time>2020-05-23T10:56:15Z</time>
      </trkpt>
      <trkpt lat="47.1484" lon="-1.98141">
        <ele>23.02</ele>
        <time>2020-05-23T10:56:17Z</time>
      </trkpt>
      <trkpt lat="47.14842" lon="-1.98154">
        <ele>23.9</ele>
        <time>2020-05-23T10:56:19Z</time>
      </trkpt>
      <trkpt lat="47.14845" lon="-1.98172">
        <ele>24.85</ele>
        <time>2020-05-23T10:56:22Z</time>
      </trkpt>
      <trkpt lat="47.14849" lon="-1.98184">
        <ele>25.43</ele>
        <time>2020-05-23T10:56:25Z</time>
      </trkpt>
      <trkpt lat="47.14855" lon="-1.98197">
        <ele>25.26</ele>
        <time>2020-05-23T10:56:28Z</time>
      </trkpt>
      <trkpt lat="47.14862" lon="-1.98205">
        <ele>25.22</ele>
        <time>2020-05-23T10:56:32Z</time>
      </trkpt>
      <trkpt lat="47.14873" lon="-1.98215">
        <ele>25.78</ele>
        <time>2020-05-23T10:56:35Z</time>
      </trkpt>
      <trkpt lat="47.14883" lon="-1.98221">
        <ele>27.02</ele>
        <time>2020-05-23T10:56:37Z</time>
      </trkpt>
      <trkpt lat="47.14893" lon="-1.98227">
        <ele>27.81</ele>
        <time>2020-05-23T10:56:39Z</time>
      </trkpt>
      <trkpt lat="47.14902" lon="-1.98232">
        <ele>27.81</ele>
        <time>2020-05-23T10:56:41Z</time>
      </trkpt>
      <trkpt lat="47.14911" lon="-1.98239">
        <ele>27.28</ele>
        <time>2020-05-23T10:56:43Z</time>
      </trkpt>
      <trkpt lat="47.1492" lon="-1.98247">
        <ele>27.03</ele>
        <time>2020-05-23T10:56:45Z</time>
      </trkpt>
      <trkpt lat="47.14928" lon="-1.98256">
        <ele>25.71</ele>
        <time>2020-05-23T10:56:47Z</time>
      </trkpt>
      <trkpt lat="47.14936" lon="-1.98266">
        <ele>24.77</ele>
        <time>2020-05-23T10:56:49Z</time>
      </trkpt>
      <trkpt lat="47.14943" lon="-1.98282">
        <ele>24.68</ele>
        <time>2020-05-23T10:56:52Z</time>
      </trkpt>
      <trkpt lat="47.14948" lon="-1.98295">
        <ele>25.2</ele>
        <time>2020-05-23T10:56:54Z</time>
      </trkpt>
      <trkpt lat="47.14952" lon="-1.98308">
        <ele>25.6</ele>
        <time>2020-05-23T10:56:56Z</time>
      </trkpt>
      <trkpt lat="47.14956" lon="-1.98322">
        <ele>25.87</ele>
        <time>2020-05-23T10:56:58Z</time>
      </trkpt>
      <trkpt lat="47.14959" lon="-1.98342">
        <ele>27.52</ele>
        <time>2020-05-23T10:57:01Z</time>
      </trkpt>
      <trkpt lat="47.1496" lon="-1.98355">
        <ele>28.34</ele>
        <time>2020-05-23T10:57:03Z</time>
      </trkpt>
      <trkpt lat="47.14963" lon="-1.9837">
        <ele>28.48</ele>
        <time>2020-05-23T10:57:05Z</time>
      </trkpt>
      <trkpt lat="47.14965" lon="-1.98386">
        <ele>27.78</ele>
        <time>2020-05-23T10:57:07Z</time>
      </trkpt>
      <trkpt lat="47.14967" lon="-1.98403">
        <ele>27.43</ele>
        <time>2020-05-23T10:57:10Z</time>
      </trkpt>
      <trkpt lat="47.14972" lon="-1.98418">
        <ele>27.96</ele>
        <time>2020-05-23T10:57:13Z</time>
      </trkpt>
      <trkpt lat="47.14982" lon="-1.98425">
        <ele>28.14</ele>
        <time>2020-05-23T10:57:15Z</time>
      </trkpt>
      <trkpt lat="47.14993" lon="-1.98434">
        <ele>26.98</ele>
        <time>2020-05-23T10:57:17Z</time>
      </trkpt>
      <trkpt lat="47.15002" lon="-1.98442">
        <ele>25.45</ele>
        <time>2020-05-23T10:57:19Z</time>
      </trkpt>
      <trkpt lat="47.15014" lon="-1.98453">
        <ele>25.14</ele>
        <time>2020-05-23T10:57:22Z</time>
      </trkpt>
      <trkpt lat="47.15022" lon="-1.98462">
        <ele>25.63</ele>
        <time>2020-05-23T10:57:24Z</time>
      </trkpt>
      <trkpt lat="47.15031" lon="-1.9847">
        <ele>25.95</ele>
        <time>2020-05-23T10:57:26Z</time>
      </trkpt>
      <trkpt lat="47.1504" lon="-1.98478">
        <ele>25.84</ele>
        <time>2020-05-23T10:57:28Z</time>
      </trkpt>
      <trkpt lat="47.15049" lon="-1.98486">
        <ele>24.78</ele>
        <time>2020-05-23T10:57:30Z</time>
      </trkpt>
      <trkpt lat="47.15059" lon="-1.98493">
        <ele>24.41</ele>
        <time>2020-05-23T10:57:32Z</time>
      </trkpt>
      <trkpt lat="47.15069" lon="-1.98501">
        <ele>23.81</ele>
        <time>2020-05-23T10:57:34Z</time>
      </trkpt>
      <trkpt lat="47.15076" lon="-1.98507">
        <ele>24.17</ele>
        <time>2020-05-23T10:57:36Z</time>
      </trkpt>
      <trkpt lat="47.15089" lon="-1.98519">
        <ele>25.26</ele>
        <time>2020-05-23T10:57:39Z</time>
      </trkpt>
      <trkpt lat="47.15097" lon="-1.98525">
        <ele>25.06</ele>
        <time>2020-05-23T10:57:41Z</time>
      </trkpt>
      <trkpt lat="47.15107" lon="-1.98529">
        <ele>26.13</ele>
        <time>2020-05-23T10:57:44Z</time>
      </trkpt>
      <trkpt lat="47.15118" lon="-1.9853">
        <ele>27.31</ele>
        <time>2020-05-23T10:57:46Z</time>
      </trkpt>
      <trkpt lat="47.15127" lon="-1.98542">
        <ele>28.35</ele>
        <time>2020-05-23T10:57:49Z</time>
      </trkpt>
      <trkpt lat="47.15129" lon="-1.98556">
        <ele>29.08</ele>
        <time>2020-05-23T10:57:51Z</time>
      </trkpt>
      <trkpt lat="47.15131" lon="-1.9857">
        <ele>29.13</ele>
        <time>2020-05-23T10:57:53Z</time>
      </trkpt>
      <trkpt lat="47.15131" lon="-1.98585">
        <ele>28.78</ele>
        <time>2020-05-23T10:57:55Z</time>
      </trkpt>
      <trkpt lat="47.15132" lon="-1.98599">
        <ele>28.22</ele>
        <time>2020-05-23T10:57:57Z</time>
      </trkpt>
      <trkpt lat="47.15131" lon="-1.9862">
        <ele>27.52</ele>
        <time>2020-05-23T10:58:00Z</time>
      </trkpt>
      <trkpt lat="47.1513" lon="-1.98634">
        <ele>26.78</ele>
        <time>2020-05-23T10:58:02Z</time>
      </trkpt>
      <trkpt lat="47.1513" lon="-1.98651">
        <ele>26.81</ele>
        <time>2020-05-23T10:58:04Z</time>
      </trkpt>
      <trkpt lat="47.15134" lon="-1.98666">
        <ele>27.52</ele>
        <time>2020-05-23T10:58:06Z</time>
      </trkpt>
      <trkpt lat="47.15139" lon="-1.98681">
        <ele>27.28</ele>
        <time>2020-05-23T10:58:08Z</time>
      </trkpt>
      <trkpt lat="47.15144" lon="-1.98698">
        <ele>27.09</ele>
        <time>2020-05-23T10:58:10Z</time>
      </trkpt>
      <trkpt lat="47.1515" lon="-1.98714">
        <ele>26.97</ele>
        <time>2020-05-23T10:58:12Z</time>
      </trkpt>
      <trkpt lat="47.15155" lon="-1.98729">
        <ele>26.25</ele>
        <time>2020-05-23T10:58:14Z</time>
      </trkpt>
      <trkpt lat="47.1516" lon="-1.98745">
        <ele>26.54</ele>
        <time>2020-05-23T10:58:16Z</time>
      </trkpt>
      <trkpt lat="47.15164" lon="-1.9876">
        <ele>25.79</ele>
        <time>2020-05-23T10:58:18Z</time>
      </trkpt>
      <trkpt lat="47.15169" lon="-1.98777">
        <ele>25.27</ele>
        <time>2020-05-23T10:58:20Z</time>
      </trkpt>
      <trkpt lat="47.15174" lon="-1.9879">
        <ele>25.99</ele>
        <time>2020-05-23T10:58:22Z</time>
      </trkpt>
      <trkpt lat="47.15179" lon="-1.98805">
        <ele>25.73</ele>
        <time>2020-05-23T10:58:24Z</time>
      </trkpt>
      <trkpt lat="47.15186" lon="-1.98821">
        <ele>25.12</ele>
        <time>2020-05-23T10:58:26Z</time>
      </trkpt>
      <trkpt lat="47.15193" lon="-1.98835">
        <ele>24.29</ele>
        <time>2020-05-23T10:58:28Z</time>
      </trkpt>
      <trkpt lat="47.15199" lon="-1.98848">
        <ele>24.07</ele>
        <time>2020-05-23T10:58:30Z</time>
      </trkpt>
      <trkpt lat="47.15205" lon="-1.98861">
        <ele>24.34</ele>
        <time>2020-05-23T10:58:32Z</time>
      </trkpt>
      <trkpt lat="47.15213" lon="-1.98876">
        <ele>24.15</ele>
        <time>2020-05-23T10:58:34Z</time>
      </trkpt>
      <trkpt lat="47.1522" lon="-1.98891">
        <ele>24</ele>
        <time>2020-05-23T10:58:36Z</time>
      </trkpt>
      <trkpt lat="47.15226" lon="-1.98904">
        <ele>23.41</ele>
        <time>2020-05-23T10:58:38Z</time>
      </trkpt>
      <trkpt lat="47.15233" lon="-1.98917">
        <ele>23.13</ele>
        <time>2020-05-23T10:58:40Z</time>
      </trkpt>
      <trkpt lat="47.15241" lon="-1.98927">
        <ele>21.94</ele>
        <time>2020-05-23T10:58:42Z</time>
      </trkpt>
      <trkpt lat="47.1525" lon="-1.98939">
        <ele>22</ele>
        <time>2020-05-23T10:58:44Z</time>
      </trkpt>
      <trkpt lat="47.15258" lon="-1.98949">
        <ele>21.88</ele>
        <time>2020-05-23T10:58:46Z</time>
      </trkpt>
      <trkpt lat="47.15269" lon="-1.98958">
        <ele>22.05</ele>
        <time>2020-05-23T10:58:48Z</time>
      </trkpt>
      <trkpt lat="47.15278" lon="-1.98966">
        <ele>22.24</ele>
        <time>2020-05-23T10:58:50Z</time>
      </trkpt>
      <trkpt lat="47.15287" lon="-1.98975">
        <ele>21.77</ele>
        <time>2020-05-23T10:58:52Z</time>
      </trkpt>
      <trkpt lat="47.15297" lon="-1.98985">
        <ele>20.98</ele>
        <time>2020-05-23T10:58:54Z</time>
      </trkpt>
      <trkpt lat="47.15306" lon="-1.98992">
        <ele>21.13</ele>
        <time>2020-05-23T10:58:56Z</time>
      </trkpt>
      <trkpt lat="47.15315" lon="-1.99">
        <ele>20.74</ele>
        <time>2020-05-23T10:58:58Z</time>
      </trkpt>
      <trkpt lat="47.15323" lon="-1.99008">
        <ele>20.46</ele>
        <time>2020-05-23T10:59:00Z</time>
      </trkpt>
      <trkpt lat="47.15332" lon="-1.99018">
        <ele>21.24</ele>
        <time>2020-05-23T10:59:02Z</time>
      </trkpt>
      <trkpt lat="47.1534" lon="-1.99027">
        <ele>21.98</ele>
        <time>2020-05-23T10:59:04Z</time>
      </trkpt>
      <trkpt lat="47.15349" lon="-1.99038">
        <ele>21.49</ele>
        <time>2020-05-23T10:59:06Z</time>
      </trkpt>
      <trkpt lat="47.15356" lon="-1.99048">
        <ele>21.43</ele>
        <time>2020-05-23T10:59:08Z</time>
      </trkpt>
      <trkpt lat="47.15365" lon="-1.99061">
        <ele>21.85</ele>
        <time>2020-05-23T10:59:10Z</time>
      </trkpt>
      <trkpt lat="47.15372" lon="-1.99074">
        <ele>22.01</ele>
        <time>2020-05-23T10:59:12Z</time>
      </trkpt>
      <trkpt lat="47.1538" lon="-1.99086">
        <ele>21.45</ele>
        <time>2020-05-23T10:59:14Z</time>
      </trkpt>
      <trkpt lat="47.15387" lon="-1.99097">
        <ele>21.73</ele>
        <time>2020-05-23T10:59:16Z</time>
      </trkpt>
      <trkpt lat="47.15394" lon="-1.99108">
        <ele>22.3</ele>
        <time>2020-05-23T10:59:18Z</time>
      </trkpt>
      <trkpt lat="47.15402" lon="-1.99122">
        <ele>22.02</ele>
        <time>2020-05-23T10:59:20Z</time>
      </trkpt>
      <trkpt lat="47.15409" lon="-1.99134">
        <ele>21.8</ele>
        <time>2020-05-23T10:59:22Z</time>
      </trkpt>
      <trkpt lat="47.15416" lon="-1.99148">
        <ele>22.33</ele>
        <time>2020-05-23T10:59:24Z</time>
      </trkpt>
      <trkpt lat="47.15423" lon="-1.99163">
        <ele>22.05</ele>
        <time>2020-05-23T10:59:26Z</time>
      </trkpt>
      <trkpt lat="47.1543" lon="-1.99177">
        <ele>22.76</ele>
        <time>2020-05-23T10:59:28Z</time>
      </trkpt>
      <trkpt lat="47.15438" lon="-1.99192">
        <ele>22.44</ele>
        <time>2020-05-23T10:59:30Z</time>
      </trkpt>
      <trkpt lat="47.15447" lon="-1.99205">
        <ele>22.68</ele>
        <time>2020-05-23T10:59:32Z</time>
      </trkpt>
      <trkpt lat="47.15458" lon="-1.99219">
        <ele>21.87</ele>
        <time>2020-05-23T10:59:34Z</time>
      </trkpt>
      <trkpt lat="47.15467" lon="-1.99234">
        <ele>20.75</ele>
        <time>2020-05-23T10:59:36Z</time>
      </trkpt>
      <trkpt lat="47.15475" lon="-1.99249">
        <ele>20.45</ele>
        <time>2020-05-23T10:59:38Z</time>
      </trkpt>
      <trkpt lat="47.15483" lon="-1.99265">
        <ele>20.77</ele>
        <time>2020-05-23T10:59:40Z</time>
      </trkpt>
      <trkpt lat="47.15491" lon="-1.99281">
        <ele>21.2</ele>
        <time>2020-05-23T10:59:42Z</time>
      </trkpt>
      <trkpt lat="47.15497" lon="-1.99296">
        <ele>21.93</ele>
        <time>2020-05-23T10:59:44Z</time>
      </trkpt>
      <trkpt lat="47.15504" lon="-1.99313">
        <ele>23.38</ele>
        <time>2020-05-23T10:59:46Z</time>
      </trkpt>
      <trkpt lat="47.15512" lon="-1.9933">
        <ele>24.72</ele>
        <time>2020-05-23T10:59:48Z</time>
      </trkpt>
      <trkpt lat="47.15519" lon="-1.99345">
        <ele>25.42</ele>
        <time>2020-05-23T10:59:50Z</time>
      </trkpt>
      <trkpt lat="47.15528" lon="-1.99361">
        <ele>26.1</ele>
        <time>2020-05-23T10:59:52Z</time>
      </trkpt>
      <trkpt lat="47.15537" lon="-1.99375">
        <ele>25.53</ele>
        <time>2020-05-23T10:59:54Z</time>
      </trkpt>
      <trkpt lat="47.15545" lon="-1.99391">
        <ele>24.55</ele>
        <time>2020-05-23T10:59:56Z</time>
      </trkpt>
      <trkpt lat="47.15553" lon="-1.99404">
        <ele>23.22</ele>
        <time>2020-05-23T10:59:58Z</time>
      </trkpt>
      <trkpt lat="47.15561" lon="-1.99419">
        <ele>22.47</ele>
        <time>2020-05-23T11:00:00Z</time>
      </trkpt>
      <trkpt lat="47.15569" lon="-1.99432">
        <ele>21.59</ele>
        <time>2020-05-23T11:00:02Z</time>
      </trkpt>
      <trkpt lat="47.15577" lon="-1.99446">
        <ele>22.2</ele>
        <time>2020-05-23T11:00:04Z</time>
      </trkpt>
      <trkpt lat="47.15584" lon="-1.99462">
        <ele>23.01</ele>
        <time>2020-05-23T11:00:06Z</time>
      </trkpt>
      <trkpt lat="47.15592" lon="-1.99477">
        <ele>22.69</ele>
        <time>2020-05-23T11:00:08Z</time>
      </trkpt>
      <trkpt lat="47.15599" lon="-1.99491">
        <ele>22.01</ele>
        <time>2020-05-23T11:00:10Z</time>
      </trkpt>
      <trkpt lat="47.15607" lon="-1.99504">
        <ele>21.82</ele>
        <time>2020-05-23T11:00:12Z</time>
      </trkpt>
      <trkpt lat="47.15615" lon="-1.9952">
        <ele>21.89</ele>
        <time>2020-05-23T11:00:14Z</time>
      </trkpt>
      <trkpt lat="47.15623" lon="-1.99531">
        <ele>22.21</ele>
        <time>2020-05-23T11:00:16Z</time>
      </trkpt>
      <trkpt lat="47.15631" lon="-1.99546">
        <ele>21.66</ele>
        <time>2020-05-23T11:00:18Z</time>
      </trkpt>
      <trkpt lat="47.15639" lon="-1.99558">
        <ele>21.83</ele>
        <time>2020-05-23T11:00:20Z</time>
      </trkpt>
      <trkpt lat="47.15647" lon="-1.99572">
        <ele>21.38</ele>
        <time>2020-05-23T11:00:22Z</time>
      </trkpt>
      <trkpt lat="47.15655" lon="-1.99587">
        <ele>21.35</ele>
        <time>2020-05-23T11:00:24Z</time>
      </trkpt>
      <trkpt lat="47.15662" lon="-1.99602">
        <ele>20.91</ele>
        <time>2020-05-23T11:00:26Z</time>
      </trkpt>
      <trkpt lat="47.15669" lon="-1.99616">
        <ele>20.46</ele>
        <time>2020-05-23T11:00:28Z</time>
      </trkpt>
      <trkpt lat="47.15676" lon="-1.9963">
        <ele>19.84</ele>
        <time>2020-05-23T11:00:30Z</time>
      </trkpt>
      <trkpt lat="47.15684" lon="-1.99644">
        <ele>19.55</ele>
        <time>2020-05-23T11:00:32Z</time>
      </trkpt>
      <trkpt lat="47.15692" lon="-1.99661">
        <ele>19.72</ele>
        <time>2020-05-23T11:00:34Z</time>
      </trkpt>
      <trkpt lat="47.15699" lon="-1.99674">
        <ele>21.11</ele>
        <time>2020-05-23T11:00:36Z</time>
      </trkpt>
      <trkpt lat="47.15709" lon="-1.99691">
        <ele>21.42</ele>
        <time>2020-05-23T11:00:38Z</time>
      </trkpt>
      <trkpt lat="47.15718" lon="-1.99705">
        <ele>22.19</ele>
        <time>2020-05-23T11:00:40Z</time>
      </trkpt>
      <trkpt lat="47.15727" lon="-1.9972">
        <ele>21.72</ele>
        <time>2020-05-23T11:00:42Z</time>
      </trkpt>
      <trkpt lat="47.15735" lon="-1.99734">
        <ele>20.38</ele>
        <time>2020-05-23T11:00:44Z</time>
      </trkpt>
      <trkpt lat="47.15745" lon="-1.9975">
        <ele>19.4</ele>
        <time>2020-05-23T11:00:46Z</time>
      </trkpt>
      <trkpt lat="47.15754" lon="-1.99764">
        <ele>18.71</ele>
        <time>2020-05-23T11:00:48Z</time>
      </trkpt>
      <trkpt lat="47.15763" lon="-1.9978">
        <ele>17.81</ele>
        <time>2020-05-23T11:00:50Z</time>
      </trkpt>
      <trkpt lat="47.15772" lon="-1.99794">
        <ele>16.38</ele>
        <time>2020-05-23T11:00:52Z</time>
      </trkpt>
      <trkpt lat="47.15782" lon="-1.99808">
        <ele>16.11</ele>
        <time>2020-05-23T11:00:54Z</time>
      </trkpt>
      <trkpt lat="47.15793" lon="-1.99824">
        <ele>15.8</ele>
        <time>2020-05-23T11:00:56Z</time>
      </trkpt>
      <trkpt lat="47.15805" lon="-1.99839">
        <ele>15.73</ele>
        <time>2020-05-23T11:00:58Z</time>
      </trkpt>
      <trkpt lat="47.15815" lon="-1.99853">
        <ele>15.17</ele>
        <time>2020-05-23T11:01:00Z</time>
      </trkpt>
      <trkpt lat="47.15828" lon="-1.99866">
        <ele>14.11</ele>
        <time>2020-05-23T11:01:02Z</time>
      </trkpt>
      <trkpt lat="47.15839" lon="-1.99879">
        <ele>13.09</ele>
        <time>2020-05-23T11:01:04Z</time>
      </trkpt>
      <trkpt lat="47.15851" lon="-1.99892">
        <ele>13.26</ele>
        <time>2020-05-23T11:01:06Z</time>
      </trkpt>
      <trkpt lat="47.15864" lon="-1.99905">
        <ele>12.71</ele>
        <time>2020-05-23T11:01:08Z</time>
      </trkpt>
      <trkpt lat="47.15877" lon="-1.9992">
        <ele>12.78</ele>
        <time>2020-05-23T11:01:10Z</time>
      </trkpt>
      <trkpt lat="47.15891" lon="-1.99934">
        <ele>12.73</ele>
        <time>2020-05-23T11:01:12Z</time>
      </trkpt>
      <trkpt lat="47.15903" lon="-1.99947">
        <ele>12.28</ele>
        <time>2020-05-23T11:01:14Z</time>
      </trkpt>
      <trkpt lat="47.15917" lon="-1.9996">
        <ele>11.35</ele>
        <time>2020-05-23T11:01:16Z</time>
      </trkpt>
      <trkpt lat="47.15931" lon="-1.99973">
        <ele>10.56</ele>
        <time>2020-05-23T11:01:18Z</time>
      </trkpt>
      <trkpt lat="47.15944" lon="-1.99987">
        <ele>9.86</ele>
        <time>2020-05-23T11:01:20Z</time>
      </trkpt>
      <trkpt lat="47.15956" lon="-2">
        <ele>9.98</ele>
        <time>2020-05-23T11:01:22Z</time>
      </trkpt>
      <trkpt lat="47.15971" lon="-2.00016">
        <ele>10.27</ele>
        <time>2020-05-23T11:01:24Z</time>
      </trkpt>
      <trkpt lat="47.15984" lon="-2.00031">
        <ele>9.53</ele>
        <time>2020-05-23T11:01:26Z</time>
      </trkpt>
      <trkpt lat="47.15996" lon="-2.00046">
        <ele>9.38</ele>
        <time>2020-05-23T11:01:28Z</time>
      </trkpt>
      <trkpt lat="47.16005" lon="-2.00056">
        <ele>9.91</ele>
        <time>2020-05-23T11:01:30Z</time>
      </trkpt>
      <trkpt lat="47.16014" lon="-2.00066">
        <ele>10.37</ele>
        <time>2020-05-23T11:01:32Z</time>
      </trkpt>
      <trkpt lat="47.16022" lon="-2.00075">
        <ele>10.63</ele>
        <time>2020-05-23T11:01:34Z</time>
      </trkpt>
      <trkpt lat="47.16032" lon="-2.00086">
        <ele>10.47</ele>
        <time>2020-05-23T11:01:36Z</time>
      </trkpt>
      <trkpt lat="47.16041" lon="-2.00096">
        <ele>11.44</ele>
        <time>2020-05-23T11:01:38Z</time>
      </trkpt>
      <trkpt lat="47.1605" lon="-2.00105">
        <ele>13.13</ele>
        <time>2020-05-23T11:01:40Z</time>
      </trkpt>
      <trkpt lat="47.16059" lon="-2.00115">
        <ele>14.01</ele>
        <time>2020-05-23T11:01:42Z</time>
      </trkpt>
      <trkpt lat="47.16067" lon="-2.00123">
        <ele>15.91</ele>
        <time>2020-05-23T11:01:44Z</time>
      </trkpt>
      <trkpt lat="47.16075" lon="-2.00132">
        <ele>18.29</ele>
        <time>2020-05-23T11:01:46Z</time>
      </trkpt>
      <trkpt lat="47.16084" lon="-2.00141">
        <ele>19.61</ele>
        <time>2020-05-23T11:01:48Z</time>
      </trkpt>
      <trkpt lat="47.16092" lon="-2.0015">
        <ele>18.76</ele>
        <time>2020-05-23T11:01:50Z</time>
      </trkpt>
      <trkpt lat="47.161" lon="-2.00158">
        <ele>17.18</ele>
        <time>2020-05-23T11:01:52Z</time>
      </trkpt>
      <trkpt lat="47.1611" lon="-2.0017">
        <ele>17.3</ele>
        <time>2020-05-23T11:01:55Z</time>
      </trkpt>
      <trkpt lat="47.1612" lon="-2.00182">
        <ele>17.84</ele>
        <time>2020-05-23T11:01:57Z</time>
      </trkpt>
      <trkpt lat="47.16131" lon="-2.00193">
        <ele>17.38</ele>
        <time>2020-05-23T11:02:00Z</time>
      </trkpt>
      <trkpt lat="47.16142" lon="-2.00202">
        <ele>17.67</ele>
        <time>2020-05-23T11:02:02Z</time>
      </trkpt>
      <trkpt lat="47.1615" lon="-2.0021">
        <ele>18.62</ele>
        <time>2020-05-23T11:02:04Z</time>
      </trkpt>
      <trkpt lat="47.16161" lon="-2.00216">
        <ele>17.76</ele>
        <time>2020-05-23T11:02:06Z</time>
      </trkpt>
      <trkpt lat="47.16171" lon="-2.00221">
        <ele>16.52</ele>
        <time>2020-05-23T11:02:08Z</time>
      </trkpt>
      <trkpt lat="47.1618" lon="-2.00226">
        <ele>16.07</ele>
        <time>2020-05-23T11:02:10Z</time>
      </trkpt>
      <trkpt lat="47.16193" lon="-2.0023">
        <ele>15.61</ele>
        <time>2020-05-23T11:02:13Z</time>
      </trkpt>
      <trkpt lat="47.16208" lon="-2.00233">
        <ele>14.37</ele>
        <time>2020-05-23T11:02:16Z</time>
      </trkpt>
      <trkpt lat="47.16219" lon="-2.00235">
        <ele>14.65</ele>
        <time>2020-05-23T11:02:18Z</time>
      </trkpt>
      <trkpt lat="47.16229" lon="-2.00235">
        <ele>14.87</ele>
        <time>2020-05-23T11:02:20Z</time>
      </trkpt>
      <trkpt lat="47.16242" lon="-2.00236">
        <ele>15.07</ele>
        <time>2020-05-23T11:02:22Z</time>
      </trkpt>
      <trkpt lat="47.16254" lon="-2.00238">
        <ele>15.5</ele>
        <time>2020-05-23T11:02:24Z</time>
      </trkpt>
      <trkpt lat="47.16264" lon="-2.0024">
        <ele>16.34</ele>
        <time>2020-05-23T11:02:26Z</time>
      </trkpt>
      <trkpt lat="47.16275" lon="-2.00242">
        <ele>16.63</ele>
        <time>2020-05-23T11:02:28Z</time>
      </trkpt>
      <trkpt lat="47.16287" lon="-2.00245">
        <ele>16.07</ele>
        <time>2020-05-23T11:02:30Z</time>
      </trkpt>
      <trkpt lat="47.16299" lon="-2.00248">
        <ele>14.58</ele>
        <time>2020-05-23T11:02:32Z</time>
      </trkpt>
      <trkpt lat="47.1631" lon="-2.00251">
        <ele>13.53</ele>
        <time>2020-05-23T11:02:34Z</time>
      </trkpt>
      <trkpt lat="47.16323" lon="-2.00256">
        <ele>12.29</ele>
        <time>2020-05-23T11:02:36Z</time>
      </trkpt>
      <trkpt lat="47.16335" lon="-2.0026">
        <ele>10.29</ele>
        <time>2020-05-23T11:02:38Z</time>
      </trkpt>
      <trkpt lat="47.16347" lon="-2.00263">
        <ele>9.78</ele>
        <time>2020-05-23T11:02:40Z</time>
      </trkpt>
      <trkpt lat="47.1636" lon="-2.00266">
        <ele>10.05</ele>
        <time>2020-05-23T11:02:42Z</time>
      </trkpt>
      <trkpt lat="47.16373" lon="-2.00269">
        <ele>11.03</ele>
        <time>2020-05-23T11:02:44Z</time>
      </trkpt>
      <trkpt lat="47.16382" lon="-2.00271">
        <ele>11.78</ele>
        <time>2020-05-23T11:02:46Z</time>
      </trkpt>
      <trkpt lat="47.16394" lon="-2.00273">
        <ele>11.94</ele>
        <time>2020-05-23T11:02:48Z</time>
      </trkpt>
      <trkpt lat="47.16406" lon="-2.00275">
        <ele>12.79</ele>
        <time>2020-05-23T11:02:50Z</time>
      </trkpt>
      <trkpt lat="47.16418" lon="-2.00277">
        <ele>13.78</ele>
        <time>2020-05-23T11:02:52Z</time>
      </trkpt>
      <trkpt lat="47.16432" lon="-2.0028">
        <ele>14.42</ele>
        <time>2020-05-23T11:02:54Z</time>
      </trkpt>
      <trkpt lat="47.16442" lon="-2.00283">
        <ele>14.2</ele>
        <time>2020-05-23T11:02:56Z</time>
      </trkpt>
      <trkpt lat="47.16454" lon="-2.00287">
        <ele>13.27</ele>
        <time>2020-05-23T11:02:58Z</time>
      </trkpt>
      <trkpt lat="47.16466" lon="-2.0029">
        <ele>13.11</ele>
        <time>2020-05-23T11:03:00Z</time>
      </trkpt>
      <trkpt lat="47.16478" lon="-2.00292">
        <ele>13.47</ele>
        <time>2020-05-23T11:03:02Z</time>
      </trkpt>
      <trkpt lat="47.16489" lon="-2.00296">
        <ele>13.33</ele>
        <time>2020-05-23T11:03:04Z</time>
      </trkpt>
      <trkpt lat="47.16503" lon="-2.00301">
        <ele>12.78</ele>
        <time>2020-05-23T11:03:06Z</time>
      </trkpt>
      <trkpt lat="47.16514" lon="-2.00305">
        <ele>11.95</ele>
        <time>2020-05-23T11:03:08Z</time>
      </trkpt>
      <trkpt lat="47.16526" lon="-2.0031">
        <ele>11.52</ele>
        <time>2020-05-23T11:03:10Z</time>
      </trkpt>
      <trkpt lat="47.16538" lon="-2.00315">
        <ele>10.77</ele>
        <time>2020-05-23T11:03:12Z</time>
      </trkpt>
      <trkpt lat="47.1655" lon="-2.00319">
        <ele>11.63</ele>
        <time>2020-05-23T11:03:14Z</time>
      </trkpt>
      <trkpt lat="47.16562" lon="-2.00325">
        <ele>13.25</ele>
        <time>2020-05-23T11:03:16Z</time>
      </trkpt>
      <trkpt lat="47.16573" lon="-2.0033">
        <ele>14.74</ele>
        <time>2020-05-23T11:03:18Z</time>
      </trkpt>
      <trkpt lat="47.16585" lon="-2.00335">
        <ele>14.42</ele>
        <time>2020-05-23T11:03:20Z</time>
      </trkpt>
      <trkpt lat="47.16597" lon="-2.00341">
        <ele>14.38</ele>
        <time>2020-05-23T11:03:22Z</time>
      </trkpt>
      <trkpt lat="47.16607" lon="-2.00345">
        <ele>13.61</ele>
        <time>2020-05-23T11:03:24Z</time>
      </trkpt>
      <trkpt lat="47.16619" lon="-2.0035">
        <ele>13.66</ele>
        <time>2020-05-23T11:03:26Z</time>
      </trkpt>
      <trkpt lat="47.1663" lon="-2.00355">
        <ele>13.9</ele>
        <time>2020-05-23T11:03:28Z</time>
      </trkpt>
      <trkpt lat="47.16642" lon="-2.00359">
        <ele>14.26</ele>
        <time>2020-05-23T11:03:30Z</time>
      </trkpt>
      <trkpt lat="47.16652" lon="-2.00364">
        <ele>13.96</ele>
        <time>2020-05-23T11:03:32Z</time>
      </trkpt>
      <trkpt lat="47.16664" lon="-2.0037">
        <ele>13.94</ele>
        <time>2020-05-23T11:03:34Z</time>
      </trkpt>
      <trkpt lat="47.16677" lon="-2.00376">
        <ele>14.04</ele>
        <time>2020-05-23T11:03:36Z</time>
      </trkpt>
      <trkpt lat="47.16687" lon="-2.00379">
        <ele>14.04</ele>
        <time>2020-05-23T11:03:38Z</time>
      </trkpt>
      <trkpt lat="47.16697" lon="-2.00383">
        <ele>14.11</ele>
        <time>2020-05-23T11:03:40Z</time>
      </trkpt>
      <trkpt lat="47.16708" lon="-2.00389">
        <ele>14.74</ele>
        <time>2020-05-23T11:03:42Z</time>
      </trkpt>
      <trkpt lat="47.16719" lon="-2.00394">
        <ele>15.37</ele>
        <time>2020-05-23T11:03:44Z</time>
      </trkpt>
      <trkpt lat="47.16728" lon="-2.00398">
        <ele>15.46</ele>
        <time>2020-05-23T11:03:46Z</time>
      </trkpt>
      <trkpt lat="47.16739" lon="-2.00403">
        <ele>15.99</ele>
        <time>2020-05-23T11:03:48Z</time>
      </trkpt>
      <trkpt lat="47.16749" lon="-2.00408">
        <ele>16.47</ele>
        <time>2020-05-23T11:03:50Z</time>
      </trkpt>
      <trkpt lat="47.1676" lon="-2.00413">
        <ele>17.8</ele>
        <time>2020-05-23T11:03:52Z</time>
      </trkpt>
      <trkpt lat="47.16771" lon="-2.00418">
        <ele>18.91</ele>
        <time>2020-05-23T11:03:54Z</time>
      </trkpt>
      <trkpt lat="47.16783" lon="-2.00423">
        <ele>19.49</ele>
        <time>2020-05-23T11:03:56Z</time>
      </trkpt>
      <trkpt lat="47.16792" lon="-2.00426">
        <ele>19</ele>
        <time>2020-05-23T11:03:58Z</time>
      </trkpt>
      <trkpt lat="47.16801" lon="-2.00429">
        <ele>17.6</ele>
        <time>2020-05-23T11:04:00Z</time>
      </trkpt>
      <trkpt lat="47.16812" lon="-2.00435">
        <ele>17.39</ele>
        <time>2020-05-23T11:04:02Z</time>
      </trkpt>
      <trkpt lat="47.16824" lon="-2.0044">
        <ele>16.85</ele>
        <time>2020-05-23T11:04:04Z</time>
      </trkpt>
      <trkpt lat="47.16834" lon="-2.00445">
        <ele>17.46</ele>
        <time>2020-05-23T11:04:06Z</time>
      </trkpt>
      <trkpt lat="47.16847" lon="-2.00451">
        <ele>17.53</ele>
        <time>2020-05-23T11:04:09Z</time>
      </trkpt>
      <trkpt lat="47.16857" lon="-2.00456">
        <ele>18.75</ele>
        <time>2020-05-23T11:04:11Z</time>
      </trkpt>
      <trkpt lat="47.1687" lon="-2.0046">
        <ele>20.31</ele>
        <time>2020-05-23T11:04:14Z</time>
      </trkpt>
      <trkpt lat="47.16879" lon="-2.00464">
        <ele>20.93</ele>
        <time>2020-05-23T11:04:16Z</time>
      </trkpt>
      <trkpt lat="47.16889" lon="-2.00469">
        <ele>21.01</ele>
        <time>2020-05-23T11:04:18Z</time>
      </trkpt>
      <trkpt lat="47.16901" lon="-2.00474">
        <ele>22.01</ele>
        <time>2020-05-23T11:04:21Z</time>
      </trkpt>
      <trkpt lat="47.1691" lon="-2.00479">
        <ele>22.55</ele>
        <time>2020-05-23T11:04:23Z</time>
      </trkpt>
      <trkpt lat="47.16921" lon="-2.00483">
        <ele>23.26</ele>
        <time>2020-05-23T11:04:25Z</time>
      </trkpt>
      <trkpt lat="47.16933" lon="-2.00488">
        <ele>23.92</ele>
        <time>2020-05-23T11:04:28Z</time>
      </trkpt>
      <trkpt lat="47.16942" lon="-2.00491">
        <ele>24.71</ele>
        <time>2020-05-23T11:04:30Z</time>
      </trkpt>
      <trkpt lat="47.16954" lon="-2.00495">
        <ele>25.14</ele>
        <time>2020-05-23T11:04:33Z</time>
      </trkpt>
      <trkpt lat="47.16964" lon="-2.00497">
        <ele>25.37</ele>
        <time>2020-05-23T11:04:35Z</time>
      </trkpt>
      <trkpt lat="47.16974" lon="-2.00499">
        <ele>25.25</ele>
        <time>2020-05-23T11:04:37Z</time>
      </trkpt>
      <trkpt lat="47.16987" lon="-2.00501">
        <ele>25.9</ele>
        <time>2020-05-23T11:04:40Z</time>
      </trkpt>
      <trkpt lat="47.16998" lon="-2.00504">
        <ele>26.84</ele>
        <time>2020-05-23T11:04:42Z</time>
      </trkpt>
      <trkpt lat="47.17011" lon="-2.00504">
        <ele>26.84</ele>
        <time>2020-05-23T11:04:45Z</time>
      </trkpt>
      <trkpt lat="47.17024" lon="-2.00504">
        <ele>26.38</ele>
        <time>2020-05-23T11:04:48Z</time>
      </trkpt>
      <trkpt lat="47.17038" lon="-2.00504">
        <ele>26.18</ele>
        <time>2020-05-23T11:04:51Z</time>
      </trkpt>
      <trkpt lat="47.17047" lon="-2.00505">
        <ele>26.01</ele>
        <time>2020-05-23T11:04:53Z</time>
      </trkpt>
      <trkpt lat="47.17057" lon="-2.00505">
        <ele>26.31</ele>
        <time>2020-05-23T11:04:55Z</time>
      </trkpt>
      <trkpt lat="47.17066" lon="-2.00504">
        <ele>27.02</ele>
        <time>2020-05-23T11:04:57Z</time>
      </trkpt>
      <trkpt lat="47.17077" lon="-2.00505">
        <ele>28.28</ele>
        <time>2020-05-23T11:04:59Z</time>
      </trkpt>
      <trkpt lat="47.17087" lon="-2.00506">
        <ele>30.76</ele>
        <time>2020-05-23T11:05:01Z</time>
      </trkpt>
      <trkpt lat="47.17101" lon="-2.00505">
        <ele>32.19</ele>
        <time>2020-05-23T11:05:04Z</time>
      </trkpt>
      <trkpt lat="47.1711" lon="-2.00506">
        <ele>32.84</ele>
        <time>2020-05-23T11:05:06Z</time>
      </trkpt>
      <trkpt lat="47.17123" lon="-2.00507">
        <ele>33.62</ele>
        <time>2020-05-23T11:05:09Z</time>
      </trkpt>
      <trkpt lat="47.17136" lon="-2.0051">
        <ele>32.91</ele>
        <time>2020-05-23T11:05:12Z</time>
      </trkpt>
      <trkpt lat="47.17146" lon="-2.00512">
        <ele>31.91</ele>
        <time>2020-05-23T11:05:14Z</time>
      </trkpt>
      <trkpt lat="47.17156" lon="-2.00515">
        <ele>31.19</ele>
        <time>2020-05-23T11:05:16Z</time>
      </trkpt>
      <trkpt lat="47.17167" lon="-2.00519">
        <ele>30.75</ele>
        <time>2020-05-23T11:05:18Z</time>
      </trkpt>
      <trkpt lat="47.17179" lon="-2.00525">
        <ele>29.85</ele>
        <time>2020-05-23T11:05:21Z</time>
      </trkpt>
      <trkpt lat="47.17188" lon="-2.00527">
        <ele>29.68</ele>
        <time>2020-05-23T11:05:23Z</time>
      </trkpt>
      <trkpt lat="47.17199" lon="-2.00531">
        <ele>30.99</ele>
        <time>2020-05-23T11:05:25Z</time>
      </trkpt>
      <trkpt lat="47.17208" lon="-2.00535">
        <ele>32.45</ele>
        <time>2020-05-23T11:05:27Z</time>
      </trkpt>
      <trkpt lat="47.17218" lon="-2.00539">
        <ele>33.14</ele>
        <time>2020-05-23T11:05:29Z</time>
      </trkpt>
      <trkpt lat="47.17228" lon="-2.00543">
        <ele>32.76</ele>
        <time>2020-05-23T11:05:31Z</time>
      </trkpt>
      <trkpt lat="47.17239" lon="-2.00548">
        <ele>32.17</ele>
        <time>2020-05-23T11:05:33Z</time>
      </trkpt>
      <trkpt lat="47.17253" lon="-2.00553">
        <ele>31.19</ele>
        <time>2020-05-23T11:05:35Z</time>
      </trkpt>
      <trkpt lat="47.17266" lon="-2.00557">
        <ele>30.5</ele>
        <time>2020-05-23T11:05:37Z</time>
      </trkpt>
      <trkpt lat="47.17282" lon="-2.00562">
        <ele>29.05</ele>
        <time>2020-05-23T11:05:39Z</time>
      </trkpt>
      <trkpt lat="47.17296" lon="-2.00567">
        <ele>28.21</ele>
        <time>2020-05-23T11:05:41Z</time>
      </trkpt>
      <trkpt lat="47.1731" lon="-2.0057">
        <ele>28.07</ele>
        <time>2020-05-23T11:05:43Z</time>
      </trkpt>
      <trkpt lat="47.17326" lon="-2.00573">
        <ele>27.48</ele>
        <time>2020-05-23T11:05:45Z</time>
      </trkpt>
      <trkpt lat="47.17341" lon="-2.00576">
        <ele>27.31</ele>
        <time>2020-05-23T11:05:47Z</time>
      </trkpt>
      <trkpt lat="47.17356" lon="-2.00579">
        <ele>26.55</ele>
        <time>2020-05-23T11:05:49Z</time>
      </trkpt>
      <trkpt lat="47.17372" lon="-2.00582">
        <ele>25.98</ele>
        <time>2020-05-23T11:05:51Z</time>
      </trkpt>
      <trkpt lat="47.17385" lon="-2.00584">
        <ele>25.53</ele>
        <time>2020-05-23T11:05:53Z</time>
      </trkpt>
      <trkpt lat="47.174" lon="-2.00585">
        <ele>25.46</ele>
        <time>2020-05-23T11:05:55Z</time>
      </trkpt>
      <trkpt lat="47.17412" lon="-2.00586">
        <ele>25.23</ele>
        <time>2020-05-23T11:05:57Z</time>
      </trkpt>
      <trkpt lat="47.17427" lon="-2.00587">
        <ele>24.8</ele>
        <time>2020-05-23T11:05:59Z</time>
      </trkpt>
      <trkpt lat="47.17439" lon="-2.00588">
        <ele>24.35</ele>
        <time>2020-05-23T11:06:01Z</time>
      </trkpt>
      <trkpt lat="47.1745" lon="-2.00589">
        <ele>24.36</ele>
        <time>2020-05-23T11:06:03Z</time>
      </trkpt>
      <trkpt lat="47.17461" lon="-2.00589">
        <ele>24.64</ele>
        <time>2020-05-23T11:06:05Z</time>
      </trkpt>
      <trkpt lat="47.17474" lon="-2.0059">
        <ele>24.95</ele>
        <time>2020-05-23T11:06:07Z</time>
      </trkpt>
      <trkpt lat="47.17487" lon="-2.00591">
        <ele>24.79</ele>
        <time>2020-05-23T11:06:09Z</time>
      </trkpt>
      <trkpt lat="47.17497" lon="-2.00591">
        <ele>25.17</ele>
        <time>2020-05-23T11:06:11Z</time>
      </trkpt>
      <trkpt lat="47.1751" lon="-2.00592">
        <ele>26.05</ele>
        <time>2020-05-23T11:06:13Z</time>
      </trkpt>
      <trkpt lat="47.17522" lon="-2.00593">
        <ele>26.86</ele>
        <time>2020-05-23T11:06:15Z</time>
      </trkpt>
      <trkpt lat="47.17534" lon="-2.00593">
        <ele>27.34</ele>
        <time>2020-05-23T11:06:17Z</time>
      </trkpt>
      <trkpt lat="47.17545" lon="-2.00594">
        <ele>28.81</ele>
        <time>2020-05-23T11:06:19Z</time>
      </trkpt>
      <trkpt lat="47.17558" lon="-2.00594">
        <ele>29.18</ele>
        <time>2020-05-23T11:06:21Z</time>
      </trkpt>
      <trkpt lat="47.1757" lon="-2.00595">
        <ele>28.25</ele>
        <time>2020-05-23T11:06:24Z</time>
      </trkpt>
      <trkpt lat="47.1758" lon="-2.00596">
        <ele>28.85</ele>
        <time>2020-05-23T11:06:26Z</time>
      </trkpt>
      <trkpt lat="47.17589" lon="-2.00597">
        <ele>30.59</ele>
        <time>2020-05-23T11:06:29Z</time>
      </trkpt>
      <trkpt lat="47.17598" lon="-2.00598">
        <ele>30.76</ele>
        <time>2020-05-23T11:06:31Z</time>
      </trkpt>
      <trkpt lat="47.17608" lon="-2.00601">
        <ele>30.18</ele>
        <time>2020-05-23T11:06:33Z</time>
      </trkpt>
      <trkpt lat="47.17618" lon="-2.00603">
        <ele>30.45</ele>
        <time>2020-05-23T11:06:35Z</time>
      </trkpt>
      <trkpt lat="47.17628" lon="-2.00607">
        <ele>31.17</ele>
        <time>2020-05-23T11:06:37Z</time>
      </trkpt>
      <trkpt lat="47.1764" lon="-2.0061">
        <ele>32.13</ele>
        <time>2020-05-23T11:06:40Z</time>
      </trkpt>
      <trkpt lat="47.17651" lon="-2.00616">
        <ele>32.65</ele>
        <time>2020-05-23T11:06:43Z</time>
      </trkpt>
      <trkpt lat="47.17664" lon="-2.00621">
        <ele>34.76</ele>
        <time>2020-05-23T11:06:46Z</time>
      </trkpt>
      <trkpt lat="47.17676" lon="-2.00627">
        <ele>35.39</ele>
        <time>2020-05-23T11:06:49Z</time>
      </trkpt>
      <trkpt lat="47.17685" lon="-2.00631">
        <ele>35.62</ele>
        <time>2020-05-23T11:06:51Z</time>
      </trkpt>
      <trkpt lat="47.17694" lon="-2.00636">
        <ele>35.05</ele>
        <time>2020-05-23T11:06:53Z</time>
      </trkpt>
      <trkpt lat="47.17707" lon="-2.00643">
        <ele>34.58</ele>
        <time>2020-05-23T11:06:56Z</time>
      </trkpt>
      <trkpt lat="47.17717" lon="-2.0065">
        <ele>34.36</ele>
        <time>2020-05-23T11:06:59Z</time>
      </trkpt>
      <trkpt lat="47.17727" lon="-2.00656">
        <ele>34.59</ele>
        <time>2020-05-23T11:07:01Z</time>
      </trkpt>
      <trkpt lat="47.17739" lon="-2.00664">
        <ele>35.33</ele>
        <time>2020-05-23T11:07:04Z</time>
      </trkpt>
      <trkpt lat="47.17749" lon="-2.00669">
        <ele>36.89</ele>
        <time>2020-05-23T11:07:06Z</time>
      </trkpt>
      <trkpt lat="47.17762" lon="-2.00676">
        <ele>39.13</ele>
        <time>2020-05-23T11:07:09Z</time>
      </trkpt>
      <trkpt lat="47.17775" lon="-2.00683">
        <ele>39.17</ele>
        <time>2020-05-23T11:07:12Z</time>
      </trkpt>
      <trkpt lat="47.17788" lon="-2.00689">
        <ele>38.65</ele>
        <time>2020-05-23T11:07:15Z</time>
      </trkpt>
      <trkpt lat="47.17797" lon="-2.00692">
        <ele>39.06</ele>
        <time>2020-05-23T11:07:17Z</time>
      </trkpt>
      <trkpt lat="47.17808" lon="-2.00695">
        <ele>39.5</ele>
        <time>2020-05-23T11:07:20Z</time>
      </trkpt>
      <trkpt lat="47.17819" lon="-2.00697">
        <ele>39.01</ele>
        <time>2020-05-23T11:07:22Z</time>
      </trkpt>
      <trkpt lat="47.17828" lon="-2.00698">
        <ele>38.69</ele>
        <time>2020-05-23T11:07:24Z</time>
      </trkpt>
      <trkpt lat="47.17838" lon="-2.00699">
        <ele>38.39</ele>
        <time>2020-05-23T11:07:26Z</time>
      </trkpt>
      <trkpt lat="47.17851" lon="-2.00702">
        <ele>38.21</ele>
        <time>2020-05-23T11:07:29Z</time>
      </trkpt>
      <trkpt lat="47.1786" lon="-2.00703">
        <ele>37.92</ele>
        <time>2020-05-23T11:07:31Z</time>
      </trkpt>
      <trkpt lat="47.17872" lon="-2.00706">
        <ele>37.87</ele>
        <time>2020-05-23T11:07:33Z</time>
      </trkpt>
      <trkpt lat="47.17883" lon="-2.00708">
        <ele>37.24</ele>
        <time>2020-05-23T11:07:35Z</time>
      </trkpt>
      <trkpt lat="47.17898" lon="-2.0071">
        <ele>38.65</ele>
        <time>2020-05-23T11:07:38Z</time>
      </trkpt>
      <trkpt lat="47.17909" lon="-2.00712">
        <ele>38.68</ele>
        <time>2020-05-23T11:07:40Z</time>
      </trkpt>
      <trkpt lat="47.17923" lon="-2.00715">
        <ele>38.49</ele>
        <time>2020-05-23T11:07:43Z</time>
      </trkpt>
      <trkpt lat="47.17934" lon="-2.00718">
        <ele>38.63</ele>
        <time>2020-05-23T11:07:45Z</time>
      </trkpt>
      <trkpt lat="47.17946" lon="-2.00721">
        <ele>38.58</ele>
        <time>2020-05-23T11:07:47Z</time>
      </trkpt>
      <trkpt lat="47.17958" lon="-2.00723">
        <ele>39.06</ele>
        <time>2020-05-23T11:07:49Z</time>
      </trkpt>
      <trkpt lat="47.17971" lon="-2.00725">
        <ele>38.2</ele>
        <time>2020-05-23T11:07:51Z</time>
      </trkpt>
      <trkpt lat="47.17983" lon="-2.00727">
        <ele>37.4</ele>
        <time>2020-05-23T11:07:53Z</time>
      </trkpt>
      <trkpt lat="47.18" lon="-2.00731">
        <ele>37.69</ele>
        <time>2020-05-23T11:07:55Z</time>
      </trkpt>
      <trkpt lat="47.18015" lon="-2.00734">
        <ele>38.81</ele>
        <time>2020-05-23T11:07:57Z</time>
      </trkpt>
      <trkpt lat="47.18029" lon="-2.00739">
        <ele>39.6</ele>
        <time>2020-05-23T11:07:59Z</time>
      </trkpt>
      <trkpt lat="47.18045" lon="-2.00748">
        <ele>38.07</ele>
        <time>2020-05-23T11:08:01Z</time>
      </trkpt>
      <trkpt lat="47.1806" lon="-2.0076">
        <ele>35.95</ele>
        <time>2020-05-23T11:08:03Z</time>
      </trkpt>
      <trkpt lat="47.18074" lon="-2.00774">
        <ele>33.96</ele>
        <time>2020-05-23T11:08:05Z</time>
      </trkpt>
      <trkpt lat="47.18085" lon="-2.00786">
        <ele>32.86</ele>
        <time>2020-05-23T11:08:07Z</time>
      </trkpt>
      <trkpt lat="47.18095" lon="-2.008">
        <ele>31.89</ele>
        <time>2020-05-23T11:08:09Z</time>
      </trkpt>
      <trkpt lat="47.18107" lon="-2.00816">
        <ele>31.04</ele>
        <time>2020-05-23T11:08:11Z</time>
      </trkpt>
      <trkpt lat="47.18117" lon="-2.0083">
        <ele>30.66</ele>
        <time>2020-05-23T11:08:13Z</time>
      </trkpt>
      <trkpt lat="47.18127" lon="-2.00845">
        <ele>30.05</ele>
        <time>2020-05-23T11:08:15Z</time>
      </trkpt>
      <trkpt lat="47.18138" lon="-2.00858">
        <ele>29.72</ele>
        <time>2020-05-23T11:08:17Z</time>
      </trkpt>
      <trkpt lat="47.18148" lon="-2.0087">
        <ele>29.92</ele>
        <time>2020-05-23T11:08:19Z</time>
      </trkpt>
      <trkpt lat="47.18157" lon="-2.0088">
        <ele>30.37</ele>
        <time>2020-05-23T11:08:21Z</time>
      </trkpt>
      <trkpt lat="47.18164" lon="-2.00889">
        <ele>30.95</ele>
        <time>2020-05-23T11:08:23Z</time>
      </trkpt>
      <trkpt lat="47.18173" lon="-2.009">
        <ele>31.57</ele>
        <time>2020-05-23T11:08:25Z</time>
      </trkpt>
      <trkpt lat="47.18182" lon="-2.00911">
        <ele>32.62</ele>
        <time>2020-05-23T11:08:27Z</time>
      </trkpt>
      <trkpt lat="47.18189" lon="-2.00919">
        <ele>34.21</ele>
        <time>2020-05-23T11:08:29Z</time>
      </trkpt>
      <trkpt lat="47.18195" lon="-2.00929">
        <ele>36.08</ele>
        <time>2020-05-23T11:08:31Z</time>
      </trkpt>
      <trkpt lat="47.18204" lon="-2.00939">
        <ele>36.66</ele>
        <time>2020-05-23T11:08:33Z</time>
      </trkpt>
      <trkpt lat="47.18214" lon="-2.0095">
        <ele>36.7</ele>
        <time>2020-05-23T11:08:35Z</time>
      </trkpt>
      <trkpt lat="47.18222" lon="-2.00959">
        <ele>36.87</ele>
        <time>2020-05-23T11:08:37Z</time>
      </trkpt>
      <trkpt lat="47.1823" lon="-2.0097">
        <ele>36.09</ele>
        <time>2020-05-23T11:08:39Z</time>
      </trkpt>
      <trkpt lat="47.18238" lon="-2.0098">
        <ele>34.62</ele>
        <time>2020-05-23T11:08:41Z</time>
      </trkpt>
      <trkpt lat="47.18248" lon="-2.0099">
        <ele>34.99</ele>
        <time>2020-05-23T11:08:44Z</time>
      </trkpt>
      <trkpt lat="47.18256" lon="-2.00999">
        <ele>36.12</ele>
        <time>2020-05-23T11:08:46Z</time>
      </trkpt>
      <trkpt lat="47.18265" lon="-2.01011">
        <ele>35.81</ele>
        <time>2020-05-23T11:08:49Z</time>
      </trkpt>
      <trkpt lat="47.18273" lon="-2.01019">
        <ele>35.82</ele>
        <time>2020-05-23T11:08:51Z</time>
      </trkpt>
      <trkpt lat="47.1828" lon="-2.01027">
        <ele>37.4</ele>
        <time>2020-05-23T11:08:53Z</time>
      </trkpt>
      <trkpt lat="47.18289" lon="-2.01039">
        <ele>38.03</ele>
        <time>2020-05-23T11:08:55Z</time>
      </trkpt>
      <trkpt lat="47.18299" lon="-2.01051">
        <ele>38.23</ele>
        <time>2020-05-23T11:08:58Z</time>
      </trkpt>
      <trkpt lat="47.18309" lon="-2.01064">
        <ele>38.37</ele>
        <time>2020-05-23T11:09:01Z</time>
      </trkpt>
      <trkpt lat="47.18316" lon="-2.01073">
        <ele>38.74</ele>
        <time>2020-05-23T11:09:03Z</time>
      </trkpt>
      <trkpt lat="47.18324" lon="-2.01082">
        <ele>39.46</ele>
        <time>2020-05-23T11:09:05Z</time>
      </trkpt>
      <trkpt lat="47.18332" lon="-2.0109">
        <ele>39.7</ele>
        <time>2020-05-23T11:09:07Z</time>
      </trkpt>
      <trkpt lat="47.18341" lon="-2.01101">
        <ele>41.65</ele>
        <time>2020-05-23T11:09:10Z</time>
      </trkpt>
      <trkpt lat="47.18351" lon="-2.01113">
        <ele>42.41</ele>
        <time>2020-05-23T11:09:13Z</time>
      </trkpt>
      <trkpt lat="47.18362" lon="-2.01123">
        <ele>42.38</ele>
        <time>2020-05-23T11:09:16Z</time>
      </trkpt>
      <trkpt lat="47.18372" lon="-2.01132">
        <ele>41.54</ele>
        <time>2020-05-23T11:09:19Z</time>
      </trkpt>
      <trkpt lat="47.18383" lon="-2.01141">
        <ele>42.55</ele>
        <time>2020-05-23T11:09:22Z</time>
      </trkpt>
      <trkpt lat="47.18392" lon="-2.01148">
        <ele>43.22</ele>
        <time>2020-05-23T11:09:24Z</time>
      </trkpt>
      <trkpt lat="47.184" lon="-2.01154">
        <ele>43.69</ele>
        <time>2020-05-23T11:09:26Z</time>
      </trkpt>
      <trkpt lat="47.18409" lon="-2.0116">
        <ele>43.81</ele>
        <time>2020-05-23T11:09:29Z</time>
      </trkpt>
      <trkpt lat="47.18418" lon="-2.01164">
        <ele>44.41</ele>
        <time>2020-05-23T11:09:31Z</time>
      </trkpt>
      <trkpt lat="47.18427" lon="-2.01168">
        <ele>44.08</ele>
        <time>2020-05-23T11:09:33Z</time>
      </trkpt>
      <trkpt lat="47.18437" lon="-2.01173">
        <ele>44.64</ele>
        <time>2020-05-23T11:09:35Z</time>
      </trkpt>
      <trkpt lat="47.1845" lon="-2.01179">
        <ele>44.9</ele>
        <time>2020-05-23T11:09:38Z</time>
      </trkpt>
      <trkpt lat="47.18459" lon="-2.01184">
        <ele>45.94</ele>
        <time>2020-05-23T11:09:40Z</time>
      </trkpt>
      <trkpt lat="47.18469" lon="-2.0119">
        <ele>46.26</ele>
        <time>2020-05-23T11:09:43Z</time>
      </trkpt>
      <trkpt lat="47.18479" lon="-2.01195">
        <ele>47.2</ele>
        <time>2020-05-23T11:09:45Z</time>
      </trkpt>
      <trkpt lat="47.18488" lon="-2.01199">
        <ele>47.55</ele>
        <time>2020-05-23T11:09:47Z</time>
      </trkpt>
      <trkpt lat="47.18498" lon="-2.01203">
        <ele>47.7</ele>
        <time>2020-05-23T11:09:49Z</time>
      </trkpt>
      <trkpt lat="47.18506" lon="-2.01208">
        <ele>47.2</ele>
        <time>2020-05-23T11:09:51Z</time>
      </trkpt>
      <trkpt lat="47.18516" lon="-2.01213">
        <ele>46.43</ele>
        <time>2020-05-23T11:09:53Z</time>
      </trkpt>
      <trkpt lat="47.18528" lon="-2.01219">
        <ele>46.16</ele>
        <time>2020-05-23T11:09:56Z</time>
      </trkpt>
      <trkpt lat="47.18541" lon="-2.01226">
        <ele>47.42</ele>
        <time>2020-05-23T11:09:59Z</time>
      </trkpt>
      <trkpt lat="47.18554" lon="-2.01233">
        <ele>48.68</ele>
        <time>2020-05-23T11:10:02Z</time>
      </trkpt>
      <trkpt lat="47.18568" lon="-2.0124">
        <ele>50.2</ele>
        <time>2020-05-23T11:10:05Z</time>
      </trkpt>
      <trkpt lat="47.18577" lon="-2.01245">
        <ele>50.63</ele>
        <time>2020-05-23T11:10:07Z</time>
      </trkpt>
      <trkpt lat="47.18586" lon="-2.0125">
        <ele>50.73</ele>
        <time>2020-05-23T11:10:09Z</time>
      </trkpt>
      <trkpt lat="47.18595" lon="-2.01256">
        <ele>51.1</ele>
        <time>2020-05-23T11:10:11Z</time>
      </trkpt>
      <trkpt lat="47.18606" lon="-2.01262">
        <ele>50.76</ele>
        <time>2020-05-23T11:10:13Z</time>
      </trkpt>
      <trkpt lat="47.18616" lon="-2.01267">
        <ele>50.87</ele>
        <time>2020-05-23T11:10:15Z</time>
      </trkpt>
      <trkpt lat="47.18629" lon="-2.01272">
        <ele>50.99</ele>
        <time>2020-05-23T11:10:18Z</time>
      </trkpt>
      <trkpt lat="47.1864" lon="-2.01277">
        <ele>50.64</ele>
        <time>2020-05-23T11:10:20Z</time>
      </trkpt>
      <trkpt lat="47.18649" lon="-2.01281">
        <ele>50.28</ele>
        <time>2020-05-23T11:10:22Z</time>
      </trkpt>
      <trkpt lat="47.18659" lon="-2.01285">
        <ele>50.16</ele>
        <time>2020-05-23T11:10:24Z</time>
      </trkpt>
      <trkpt lat="47.1867" lon="-2.0129">
        <ele>50.22</ele>
        <time>2020-05-23T11:10:26Z</time>
      </trkpt>
      <trkpt lat="47.18682" lon="-2.01296">
        <ele>50.51</ele>
        <time>2020-05-23T11:10:28Z</time>
      </trkpt>
      <trkpt lat="47.18693" lon="-2.01302">
        <ele>50.06</ele>
        <time>2020-05-23T11:10:30Z</time>
      </trkpt>
      <trkpt lat="47.18702" lon="-2.01307">
        <ele>50.74</ele>
        <time>2020-05-23T11:10:32Z</time>
      </trkpt>
      <trkpt lat="47.18712" lon="-2.01313">
        <ele>51.45</ele>
        <time>2020-05-23T11:10:34Z</time>
      </trkpt>
      <trkpt lat="47.18722" lon="-2.01318">
        <ele>49.85</ele>
        <time>2020-05-23T11:10:36Z</time>
      </trkpt>
      <trkpt lat="47.18733" lon="-2.01324">
        <ele>48.13</ele>
        <time>2020-05-23T11:10:38Z</time>
      </trkpt>
      <trkpt lat="47.18743" lon="-2.01329">
        <ele>48.36</ele>
        <time>2020-05-23T11:10:40Z</time>
      </trkpt>
      <trkpt lat="47.18754" lon="-2.01335">
        <ele>49.6</ele>
        <time>2020-05-23T11:10:42Z</time>
      </trkpt>
      <trkpt lat="47.18764" lon="-2.0134">
        <ele>51.04</ele>
        <time>2020-05-23T11:10:44Z</time>
      </trkpt>
      <trkpt lat="47.18775" lon="-2.01347">
        <ele>51.72</ele>
        <time>2020-05-23T11:10:46Z</time>
      </trkpt>
      <trkpt lat="47.18785" lon="-2.01354">
        <ele>52.02</ele>
        <time>2020-05-23T11:10:48Z</time>
      </trkpt>
      <trkpt lat="47.18793" lon="-2.01362">
        <ele>52.06</ele>
        <time>2020-05-23T11:10:50Z</time>
      </trkpt>
      <trkpt lat="47.18802" lon="-2.01369">
        <ele>51.77</ele>
        <time>2020-05-23T11:10:52Z</time>
      </trkpt>
      <trkpt lat="47.18811" lon="-2.01376">
        <ele>51.96</ele>
        <time>2020-05-23T11:10:54Z</time>
      </trkpt>
      <trkpt lat="47.18822" lon="-2.01384">
        <ele>52.13</ele>
        <time>2020-05-23T11:10:56Z</time>
      </trkpt>
      <trkpt lat="47.18832" lon="-2.01392">
        <ele>52.92</ele>
        <time>2020-05-23T11:10:58Z</time>
      </trkpt>
      <trkpt lat="47.1884" lon="-2.01401">
        <ele>52.99</ele>
        <time>2020-05-23T11:11:00Z</time>
      </trkpt>
      <trkpt lat="47.18849" lon="-2.0141">
        <ele>53.21</ele>
        <time>2020-05-23T11:11:02Z</time>
      </trkpt>
      <trkpt lat="47.18858" lon="-2.01419">
        <ele>52.49</ele>
        <time>2020-05-23T11:11:04Z</time>
      </trkpt>
      <trkpt lat="47.18867" lon="-2.01429">
        <ele>51.04</ele>
        <time>2020-05-23T11:11:06Z</time>
      </trkpt>
      <trkpt lat="47.18876" lon="-2.01438">
        <ele>50.18</ele>
        <time>2020-05-23T11:11:08Z</time>
      </trkpt>
      <trkpt lat="47.18885" lon="-2.01448">
        <ele>48.49</ele>
        <time>2020-05-23T11:11:10Z</time>
      </trkpt>
      <trkpt lat="47.18893" lon="-2.01456">
        <ele>48.56</ele>
        <time>2020-05-23T11:11:11Z</time>
      </trkpt>
      <trkpt lat="47.18901" lon="-2.01467">
        <ele>49.27</ele>
        <time>2020-05-23T11:11:13Z</time>
      </trkpt>
      <trkpt lat="47.18908" lon="-2.01476">
        <ele>49.42</ele>
        <time>2020-05-23T11:11:15Z</time>
      </trkpt>
      <trkpt lat="47.18916" lon="-2.01486">
        <ele>49.23</ele>
        <time>2020-05-23T11:11:17Z</time>
      </trkpt>
      <trkpt lat="47.18925" lon="-2.01498">
        <ele>49.23</ele>
        <time>2020-05-23T11:11:19Z</time>
      </trkpt>
      <trkpt lat="47.18932" lon="-2.01508">
        <ele>49.56</ele>
        <time>2020-05-23T11:11:21Z</time>
      </trkpt>
      <trkpt lat="47.1894" lon="-2.01521">
        <ele>49.77</ele>
        <time>2020-05-23T11:11:23Z</time>
      </trkpt>
      <trkpt lat="47.18947" lon="-2.01531">
        <ele>49.4</ele>
        <time>2020-05-23T11:11:25Z</time>
      </trkpt>
      <trkpt lat="47.18954" lon="-2.01541">
        <ele>49.92</ele>
        <time>2020-05-23T11:11:27Z</time>
      </trkpt>
      <trkpt lat="47.18961" lon="-2.01552">
        <ele>50.58</ele>
        <time>2020-05-23T11:11:29Z</time>
      </trkpt>
      <trkpt lat="47.18969" lon="-2.01566">
        <ele>50.68</ele>
        <time>2020-05-23T11:11:32Z</time>
      </trkpt>
      <trkpt lat="47.18976" lon="-2.01577">
        <ele>50.99</ele>
        <time>2020-05-23T11:11:34Z</time>
      </trkpt>
      <trkpt lat="47.18984" lon="-2.01589">
        <ele>50.85</ele>
        <time>2020-05-23T11:11:36Z</time>
      </trkpt>
      <trkpt lat="47.18991" lon="-2.01598">
        <ele>51.16</ele>
        <time>2020-05-23T11:11:38Z</time>
      </trkpt>
      <trkpt lat="47.18999" lon="-2.01608">
        <ele>51.02</ele>
        <time>2020-05-23T11:11:40Z</time>
      </trkpt>
      <trkpt lat="47.19008" lon="-2.01617">
        <ele>51.38</ele>
        <time>2020-05-23T11:11:43Z</time>
      </trkpt>
      <trkpt lat="47.19016" lon="-2.01621">
        <ele>51.46</ele>
        <time>2020-05-23T11:11:46Z</time>
      </trkpt>
      <trkpt lat="47.19023" lon="-2.01632">
        <ele>52.53</ele>
        <time>2020-05-23T11:11:49Z</time>
      </trkpt>
      <trkpt lat="47.19027" lon="-2.01647">
        <ele>53.86</ele>
        <time>2020-05-23T11:11:51Z</time>
      </trkpt>
      <trkpt lat="47.19027" lon="-2.01662">
        <ele>54.21</ele>
        <time>2020-05-23T11:11:53Z</time>
      </trkpt>
      <trkpt lat="47.19029" lon="-2.01677">
        <ele>55.16</ele>
        <time>2020-05-23T11:11:55Z</time>
      </trkpt>
      <trkpt lat="47.19032" lon="-2.01697">
        <ele>56.38</ele>
        <time>2020-05-23T11:11:57Z</time>
      </trkpt>
      <trkpt lat="47.19034" lon="-2.01714">
        <ele>56.52</ele>
        <time>2020-05-23T11:11:59Z</time>
      </trkpt>
      <trkpt lat="47.19037" lon="-2.0173">
        <ele>56.15</ele>
        <time>2020-05-23T11:12:01Z</time>
      </trkpt>
      <trkpt lat="47.19041" lon="-2.01748">
        <ele>56.05</ele>
        <time>2020-05-23T11:12:03Z</time>
      </trkpt>
      <trkpt lat="47.19046" lon="-2.01764">
        <ele>56.04</ele>
        <time>2020-05-23T11:12:05Z</time>
      </trkpt>
      <trkpt lat="47.1905" lon="-2.0178">
        <ele>56.27</ele>
        <time>2020-05-23T11:12:07Z</time>
      </trkpt>
      <trkpt lat="47.19055" lon="-2.01796">
        <ele>57.04</ele>
        <time>2020-05-23T11:12:09Z</time>
      </trkpt>
      <trkpt lat="47.19059" lon="-2.01811">
        <ele>57.37</ele>
        <time>2020-05-23T11:12:11Z</time>
      </trkpt>
      <trkpt lat="47.19064" lon="-2.01826">
        <ele>56.64</ele>
        <time>2020-05-23T11:12:13Z</time>
      </trkpt>
      <trkpt lat="47.19069" lon="-2.01839">
        <ele>56.67</ele>
        <time>2020-05-23T11:12:15Z</time>
      </trkpt>
      <trkpt lat="47.19075" lon="-2.01854">
        <ele>56.61</ele>
        <time>2020-05-23T11:12:17Z</time>
      </trkpt>
      <trkpt lat="47.1908" lon="-2.01869">
        <ele>57.08</ele>
        <time>2020-05-23T11:12:19Z</time>
      </trkpt>
      <trkpt lat="47.19086" lon="-2.01887">
        <ele>57.29</ele>
        <time>2020-05-23T11:12:21Z</time>
      </trkpt>
      <trkpt lat="47.19092" lon="-2.01903">
        <ele>55.39</ele>
        <time>2020-05-23T11:12:23Z</time>
      </trkpt>
      <trkpt lat="47.19097" lon="-2.01918">
        <ele>53.18</ele>
        <time>2020-05-23T11:12:25Z</time>
      </trkpt>
      <trkpt lat="47.19103" lon="-2.01937">
        <ele>51.88</ele>
        <time>2020-05-23T11:12:27Z</time>
      </trkpt>
      <trkpt lat="47.19108" lon="-2.01952">
        <ele>52.16</ele>
        <time>2020-05-23T11:12:29Z</time>
      </trkpt>
      <trkpt lat="47.19112" lon="-2.01965">
        <ele>53.58</ele>
        <time>2020-05-23T11:12:31Z</time>
      </trkpt>
      <trkpt lat="47.19118" lon="-2.01983">
        <ele>53.86</ele>
        <time>2020-05-23T11:12:33Z</time>
      </trkpt>
      <trkpt lat="47.19123" lon="-2.02">
        <ele>53.61</ele>
        <time>2020-05-23T11:12:35Z</time>
      </trkpt>
      <trkpt lat="47.19129" lon="-2.02012">
        <ele>52.91</ele>
        <time>2020-05-23T11:12:37Z</time>
      </trkpt>
      <trkpt lat="47.19134" lon="-2.02026">
        <ele>53.53</ele>
        <time>2020-05-23T11:12:39Z</time>
      </trkpt>
      <trkpt lat="47.19141" lon="-2.02043">
        <ele>52.96</ele>
        <time>2020-05-23T11:12:41Z</time>
      </trkpt>
      <trkpt lat="47.19146" lon="-2.02059">
        <ele>51.91</ele>
        <time>2020-05-23T11:12:43Z</time>
      </trkpt>
      <trkpt lat="47.19151" lon="-2.02072">
        <ele>51.84</ele>
        <time>2020-05-23T11:12:45Z</time>
      </trkpt>
      <trkpt lat="47.19156" lon="-2.02085">
        <ele>52.69</ele>
        <time>2020-05-23T11:12:47Z</time>
      </trkpt>
      <trkpt lat="47.19162" lon="-2.02103">
        <ele>52.87</ele>
        <time>2020-05-23T11:12:49Z</time>
      </trkpt>
      <trkpt lat="47.19169" lon="-2.02119">
        <ele>52.97</ele>
        <time>2020-05-23T11:12:51Z</time>
      </trkpt>
      <trkpt lat="47.19175" lon="-2.02135">
        <ele>53.58</ele>
        <time>2020-05-23T11:12:53Z</time>
      </trkpt>
      <trkpt lat="47.19181" lon="-2.02148">
        <ele>53.45</ele>
        <time>2020-05-23T11:12:55Z</time>
      </trkpt>
      <trkpt lat="47.19188" lon="-2.02165">
        <ele>52.25</ele>
        <time>2020-05-23T11:12:57Z</time>
      </trkpt>
      <trkpt lat="47.19194" lon="-2.02179">
        <ele>51.13</ele>
        <time>2020-05-23T11:12:59Z</time>
      </trkpt>
      <trkpt lat="47.192" lon="-2.02192">
        <ele>49.86</ele>
        <time>2020-05-23T11:13:01Z</time>
      </trkpt>
      <trkpt lat="47.19207" lon="-2.02206">
        <ele>47.93</ele>
        <time>2020-05-23T11:13:03Z</time>
      </trkpt>
      <trkpt lat="47.19213" lon="-2.02219">
        <ele>47.05</ele>
        <time>2020-05-23T11:13:05Z</time>
      </trkpt>
      <trkpt lat="47.1922" lon="-2.02234">
        <ele>46.82</ele>
        <time>2020-05-23T11:13:07Z</time>
      </trkpt>
      <trkpt lat="47.19226" lon="-2.02248">
        <ele>46.6</ele>
        <time>2020-05-23T11:13:09Z</time>
      </trkpt>
      <trkpt lat="47.19232" lon="-2.02261">
        <ele>47.6</ele>
        <time>2020-05-23T11:13:11Z</time>
      </trkpt>
      <trkpt lat="47.1924" lon="-2.02278">
        <ele>48.7</ele>
        <time>2020-05-23T11:13:13Z</time>
      </trkpt>
      <trkpt lat="47.19247" lon="-2.02291">
        <ele>49.04</ele>
        <time>2020-05-23T11:13:15Z</time>
      </trkpt>
      <trkpt lat="47.19255" lon="-2.02307">
        <ele>49.81</ele>
        <time>2020-05-23T11:13:17Z</time>
      </trkpt>
      <trkpt lat="47.19263" lon="-2.02322">
        <ele>50.6</ele>
        <time>2020-05-23T11:13:19Z</time>
      </trkpt>
      <trkpt lat="47.1927" lon="-2.02339">
        <ele>50.75</ele>
        <time>2020-05-23T11:13:21Z</time>
      </trkpt>
      <trkpt lat="47.19277" lon="-2.02354">
        <ele>50.57</ele>
        <time>2020-05-23T11:13:23Z</time>
      </trkpt>
      <trkpt lat="47.19285" lon="-2.02371">
        <ele>50.87</ele>
        <time>2020-05-23T11:13:25Z</time>
      </trkpt>
      <trkpt lat="47.19292" lon="-2.02388">
        <ele>52.02</ele>
        <time>2020-05-23T11:13:27Z</time>
      </trkpt>
      <trkpt lat="47.19299" lon="-2.02404">
        <ele>52.15</ele>
        <time>2020-05-23T11:13:29Z</time>
      </trkpt>
      <trkpt lat="47.19306" lon="-2.0242">
        <ele>51.79</ele>
        <time>2020-05-23T11:13:31Z</time>
      </trkpt>
      <trkpt lat="47.19314" lon="-2.02437">
        <ele>51.4</ele>
        <time>2020-05-23T11:13:33Z</time>
      </trkpt>
      <trkpt lat="47.1932" lon="-2.02452">
        <ele>50.77</ele>
        <time>2020-05-23T11:13:35Z</time>
      </trkpt>
      <trkpt lat="47.19327" lon="-2.02467">
        <ele>50.98</ele>
        <time>2020-05-23T11:13:37Z</time>
      </trkpt>
      <trkpt lat="47.19335" lon="-2.02483">
        <ele>51.02</ele>
        <time>2020-05-23T11:13:39Z</time>
      </trkpt>
      <trkpt lat="47.19343" lon="-2.025">
        <ele>51.86</ele>
        <time>2020-05-23T11:13:41Z</time>
      </trkpt>
      <trkpt lat="47.19351" lon="-2.02517">
        <ele>52.16</ele>
        <time>2020-05-23T11:13:43Z</time>
      </trkpt>
      <trkpt lat="47.19359" lon="-2.02532">
        <ele>52.51</ele>
        <time>2020-05-23T11:13:45Z</time>
      </trkpt>
      <trkpt lat="47.19367" lon="-2.02549">
        <ele>52.32</ele>
        <time>2020-05-23T11:13:47Z</time>
      </trkpt>
      <trkpt lat="47.19374" lon="-2.02565">
        <ele>52.36</ele>
        <time>2020-05-23T11:13:49Z</time>
      </trkpt>
      <trkpt lat="47.19382" lon="-2.02582">
        <ele>53.88</ele>
        <time>2020-05-23T11:13:51Z</time>
      </trkpt>
      <trkpt lat="47.1939" lon="-2.026">
        <ele>55.23</ele>
        <time>2020-05-23T11:13:53Z</time>
      </trkpt>
      <trkpt lat="47.19397" lon="-2.02616">
        <ele>56.08</ele>
        <time>2020-05-23T11:13:55Z</time>
      </trkpt>
      <trkpt lat="47.19405" lon="-2.02632">
        <ele>55.75</ele>
        <time>2020-05-23T11:13:57Z</time>
      </trkpt>
      <trkpt lat="47.19412" lon="-2.02647">
        <ele>55.61</ele>
        <time>2020-05-23T11:13:59Z</time>
      </trkpt>
      <trkpt lat="47.1942" lon="-2.02663">
        <ele>54.67</ele>
        <time>2020-05-23T11:14:01Z</time>
      </trkpt>
      <trkpt lat="47.19428" lon="-2.02681">
        <ele>53.35</ele>
        <time>2020-05-23T11:14:03Z</time>
      </trkpt>
      <trkpt lat="47.19435" lon="-2.02696">
        <ele>52.75</ele>
        <time>2020-05-23T11:14:05Z</time>
      </trkpt>
      <trkpt lat="47.19442" lon="-2.02711">
        <ele>51.75</ele>
        <time>2020-05-23T11:14:07Z</time>
      </trkpt>
      <trkpt lat="47.19448" lon="-2.02724">
        <ele>51.39</ele>
        <time>2020-05-23T11:14:09Z</time>
      </trkpt>
      <trkpt lat="47.19455" lon="-2.02738">
        <ele>51.26</ele>
        <time>2020-05-23T11:14:11Z</time>
      </trkpt>
      <trkpt lat="47.19462" lon="-2.02754">
        <ele>51.48</ele>
        <time>2020-05-23T11:14:13Z</time>
      </trkpt>
      <trkpt lat="47.1947" lon="-2.02771">
        <ele>51.57</ele>
        <time>2020-05-23T11:14:15Z</time>
      </trkpt>
      <trkpt lat="47.19478" lon="-2.02788">
        <ele>50.62</ele>
        <time>2020-05-23T11:14:17Z</time>
      </trkpt>
      <trkpt lat="47.19484" lon="-2.028">
        <ele>49.86</ele>
        <time>2020-05-23T11:14:19Z</time>
      </trkpt>
      <trkpt lat="47.19491" lon="-2.02812">
        <ele>49.75</ele>
        <time>2020-05-23T11:14:21Z</time>
      </trkpt>
      <trkpt lat="47.19499" lon="-2.02828">
        <ele>49.64</ele>
        <time>2020-05-23T11:14:23Z</time>
      </trkpt>
      <trkpt lat="47.19506" lon="-2.02842">
        <ele>49.94</ele>
        <time>2020-05-23T11:14:25Z</time>
      </trkpt>
      <trkpt lat="47.19512" lon="-2.02853">
        <ele>51.13</ele>
        <time>2020-05-23T11:14:27Z</time>
      </trkpt>
      <trkpt lat="47.19522" lon="-2.02869">
        <ele>51.21</ele>
        <time>2020-05-23T11:14:29Z</time>
      </trkpt>
      <trkpt lat="47.19531" lon="-2.02882">
        <ele>50.27</ele>
        <time>2020-05-23T11:14:31Z</time>
      </trkpt>
      <trkpt lat="47.19542" lon="-2.02897">
        <ele>49</ele>
        <time>2020-05-23T11:14:33Z</time>
      </trkpt>
      <trkpt lat="47.19552" lon="-2.02911">
        <ele>47.84</ele>
        <time>2020-05-23T11:14:35Z</time>
      </trkpt>
      <trkpt lat="47.19563" lon="-2.02923">
        <ele>46.91</ele>
        <time>2020-05-23T11:14:37Z</time>
      </trkpt>
      <trkpt lat="47.19573" lon="-2.02933">
        <ele>46.03</ele>
        <time>2020-05-23T11:14:39Z</time>
      </trkpt>
      <trkpt lat="47.19583" lon="-2.02944">
        <ele>45.07</ele>
        <time>2020-05-23T11:14:41Z</time>
      </trkpt>
      <trkpt lat="47.19592" lon="-2.02955">
        <ele>44.61</ele>
        <time>2020-05-23T11:14:43Z</time>
      </trkpt>
      <trkpt lat="47.19603" lon="-2.02966">
        <ele>44.55</ele>
        <time>2020-05-23T11:14:45Z</time>
      </trkpt>
      <trkpt lat="47.19614" lon="-2.02977">
        <ele>44.33</ele>
        <time>2020-05-23T11:14:47Z</time>
      </trkpt>
      <trkpt lat="47.19625" lon="-2.02987">
        <ele>44.23</ele>
        <time>2020-05-23T11:14:49Z</time>
      </trkpt>
      <trkpt lat="47.19636" lon="-2.02997">
        <ele>43.16</ele>
        <time>2020-05-23T11:14:51Z</time>
      </trkpt>
      <trkpt lat="47.19646" lon="-2.03006">
        <ele>42.69</ele>
        <time>2020-05-23T11:14:53Z</time>
      </trkpt>
      <trkpt lat="47.19659" lon="-2.03019">
        <ele>42.3</ele>
        <time>2020-05-23T11:14:55Z</time>
      </trkpt>
      <trkpt lat="47.19669" lon="-2.03028">
        <ele>42.3</ele>
        <time>2020-05-23T11:14:57Z</time>
      </trkpt>
      <trkpt lat="47.1968" lon="-2.0304">
        <ele>42.52</ele>
        <time>2020-05-23T11:14:59Z</time>
      </trkpt>
      <trkpt lat="47.19691" lon="-2.03051">
        <ele>43.39</ele>
        <time>2020-05-23T11:15:01Z</time>
      </trkpt>
      <trkpt lat="47.19701" lon="-2.03061">
        <ele>43.49</ele>
        <time>2020-05-23T11:15:03Z</time>
      </trkpt>
      <trkpt lat="47.19711" lon="-2.03072">
        <ele>43.56</ele>
        <time>2020-05-23T11:15:05Z</time>
      </trkpt>
      <trkpt lat="47.19723" lon="-2.03084">
        <ele>42.57</ele>
        <time>2020-05-23T11:15:07Z</time>
      </trkpt>
      <trkpt lat="47.19733" lon="-2.03095">
        <ele>41.82</ele>
        <time>2020-05-23T11:15:09Z</time>
      </trkpt>
      <trkpt lat="47.19744" lon="-2.03107">
        <ele>40.84</ele>
        <time>2020-05-23T11:15:11Z</time>
      </trkpt>
      <trkpt lat="47.19755" lon="-2.0312">
        <ele>39.76</ele>
        <time>2020-05-23T11:15:13Z</time>
      </trkpt>
      <trkpt lat="47.19763" lon="-2.0313">
        <ele>38.85</ele>
        <time>2020-05-23T11:15:15Z</time>
      </trkpt>
      <trkpt lat="47.19772" lon="-2.03141">
        <ele>38.52</ele>
        <time>2020-05-23T11:15:17Z</time>
      </trkpt>
      <trkpt lat="47.19779" lon="-2.03152">
        <ele>39.39</ele>
        <time>2020-05-23T11:15:19Z</time>
      </trkpt>
      <trkpt lat="47.19787" lon="-2.03163">
        <ele>40.06</ele>
        <time>2020-05-23T11:15:21Z</time>
      </trkpt>
      <trkpt lat="47.19797" lon="-2.03175">
        <ele>41.19</ele>
        <time>2020-05-23T11:15:23Z</time>
      </trkpt>
      <trkpt lat="47.19806" lon="-2.03187">
        <ele>41.17</ele>
        <time>2020-05-23T11:15:25Z</time>
      </trkpt>
      <trkpt lat="47.19816" lon="-2.032">
        <ele>41.18</ele>
        <time>2020-05-23T11:15:27Z</time>
      </trkpt>
      <trkpt lat="47.19824" lon="-2.03212">
        <ele>40.94</ele>
        <time>2020-05-23T11:15:29Z</time>
      </trkpt>
      <trkpt lat="47.19833" lon="-2.03225">
        <ele>40.13</ele>
        <time>2020-05-23T11:15:31Z</time>
      </trkpt>
      <trkpt lat="47.19842" lon="-2.03238">
        <ele>39.55</ele>
        <time>2020-05-23T11:15:33Z</time>
      </trkpt>
      <trkpt lat="47.19851" lon="-2.03254">
        <ele>39.43</ele>
        <time>2020-05-23T11:15:35Z</time>
      </trkpt>
      <trkpt lat="47.1986" lon="-2.03268">
        <ele>39.91</ele>
        <time>2020-05-23T11:15:37Z</time>
      </trkpt>
      <trkpt lat="47.19867" lon="-2.03281">
        <ele>40.45</ele>
        <time>2020-05-23T11:15:39Z</time>
      </trkpt>
      <trkpt lat="47.19877" lon="-2.03298">
        <ele>39.77</ele>
        <time>2020-05-23T11:15:41Z</time>
      </trkpt>
      <trkpt lat="47.19887" lon="-2.03315">
        <ele>39.03</ele>
        <time>2020-05-23T11:15:43Z</time>
      </trkpt>
      <trkpt lat="47.19896" lon="-2.0333">
        <ele>38.95</ele>
        <time>2020-05-23T11:15:45Z</time>
      </trkpt>
      <trkpt lat="47.19904" lon="-2.03344">
        <ele>38.56</ele>
        <time>2020-05-23T11:15:47Z</time>
      </trkpt>
      <trkpt lat="47.19911" lon="-2.03356">
        <ele>38.9</ele>
        <time>2020-05-23T11:15:49Z</time>
      </trkpt>
      <trkpt lat="47.1992" lon="-2.03375">
        <ele>38.19</ele>
        <time>2020-05-23T11:15:51Z</time>
      </trkpt>
      <trkpt lat="47.19929" lon="-2.03391">
        <ele>36.5</ele>
        <time>2020-05-23T11:15:53Z</time>
      </trkpt>
      <trkpt lat="47.19938" lon="-2.03407">
        <ele>35.19</ele>
        <time>2020-05-23T11:15:55Z</time>
      </trkpt>
      <trkpt lat="47.19947" lon="-2.03423">
        <ele>34.5</ele>
        <time>2020-05-23T11:15:57Z</time>
      </trkpt>
      <trkpt lat="47.19954" lon="-2.03437">
        <ele>33.68</ele>
        <time>2020-05-23T11:15:59Z</time>
      </trkpt>
      <trkpt lat="47.19964" lon="-2.03453">
        <ele>33.09</ele>
        <time>2020-05-23T11:16:01Z</time>
      </trkpt>
      <trkpt lat="47.19973" lon="-2.0347">
        <ele>32.79</ele>
        <time>2020-05-23T11:16:03Z</time>
      </trkpt>
      <trkpt lat="47.19982" lon="-2.03485">
        <ele>31.93</ele>
        <time>2020-05-23T11:16:05Z</time>
      </trkpt>
      <trkpt lat="47.19992" lon="-2.03501">
        <ele>31.59</ele>
        <time>2020-05-23T11:16:07Z</time>
      </trkpt>
      <trkpt lat="47.20001" lon="-2.03515">
        <ele>31.03</ele>
        <time>2020-05-23T11:16:09Z</time>
      </trkpt>
      <trkpt lat="47.2001" lon="-2.0353">
        <ele>30.34</ele>
        <time>2020-05-23T11:16:11Z</time>
      </trkpt>
      <trkpt lat="47.20019" lon="-2.03546">
        <ele>30.03</ele>
        <time>2020-05-23T11:16:13Z</time>
      </trkpt>
      <trkpt lat="47.20026" lon="-2.03562">
        <ele>30.16</ele>
        <time>2020-05-23T11:16:15Z</time>
      </trkpt>
      <trkpt lat="47.20033" lon="-2.03578">
        <ele>28.96</ele>
        <time>2020-05-23T11:16:17Z</time>
      </trkpt>
      <trkpt lat="47.2004" lon="-2.03594">
        <ele>30.03</ele>
        <time>2020-05-23T11:16:19Z</time>
      </trkpt>
      <trkpt lat="47.20047" lon="-2.03611">
        <ele>31.14</ele>
        <time>2020-05-23T11:16:21Z</time>
      </trkpt>
      <trkpt lat="47.20053" lon="-2.03629">
        <ele>32.2</ele>
        <time>2020-05-23T11:16:23Z</time>
      </trkpt>
      <trkpt lat="47.20058" lon="-2.03646">
        <ele>32.99</ele>
        <time>2020-05-23T11:16:25Z</time>
      </trkpt>
      <trkpt lat="47.20064" lon="-2.03664">
        <ele>34.03</ele>
        <time>2020-05-23T11:16:27Z</time>
      </trkpt>
      <trkpt lat="47.20069" lon="-2.03682">
        <ele>34.93</ele>
        <time>2020-05-23T11:16:29Z</time>
      </trkpt>
      <trkpt lat="47.20074" lon="-2.037">
        <ele>34.63</ele>
        <time>2020-05-23T11:16:31Z</time>
      </trkpt>
      <trkpt lat="47.20078" lon="-2.0372">
        <ele>33.98</ele>
        <time>2020-05-23T11:16:33Z</time>
      </trkpt>
      <trkpt lat="47.20082" lon="-2.03737">
        <ele>33.68</ele>
        <time>2020-05-23T11:16:35Z</time>
      </trkpt>
      <trkpt lat="47.20088" lon="-2.0375">
        <ele>33.27</ele>
        <time>2020-05-23T11:16:37Z</time>
      </trkpt>
      <trkpt lat="47.20099" lon="-2.03757">
        <ele>32.28</ele>
        <time>2020-05-23T11:16:39Z</time>
      </trkpt>
      <trkpt lat="47.20111" lon="-2.03752">
        <ele>31.56</ele>
        <time>2020-05-23T11:16:41Z</time>
      </trkpt>
      <trkpt lat="47.20124" lon="-2.03746">
        <ele>32.6</ele>
        <time>2020-05-23T11:16:43Z</time>
      </trkpt>
      <trkpt lat="47.20135" lon="-2.0375">
        <ele>34.79</ele>
        <time>2020-05-23T11:16:45Z</time>
      </trkpt>
      <trkpt lat="47.20145" lon="-2.03765">
        <ele>34.74</ele>
        <time>2020-05-23T11:16:47Z</time>
      </trkpt>
      <trkpt lat="47.2015" lon="-2.03779">
        <ele>33.75</ele>
        <time>2020-05-23T11:16:49Z</time>
      </trkpt>
      <trkpt lat="47.20156" lon="-2.03796">
        <ele>33.28</ele>
        <time>2020-05-23T11:16:51Z</time>
      </trkpt>
      <trkpt lat="47.20162" lon="-2.03812">
        <ele>34.08</ele>
        <time>2020-05-23T11:16:53Z</time>
      </trkpt>
      <trkpt lat="47.20169" lon="-2.03828">
        <ele>34.67</ele>
        <time>2020-05-23T11:16:55Z</time>
      </trkpt>
      <trkpt lat="47.20175" lon="-2.03845">
        <ele>34.78</ele>
        <time>2020-05-23T11:16:57Z</time>
      </trkpt>
      <trkpt lat="47.20183" lon="-2.03862">
        <ele>34.27</ele>
        <time>2020-05-23T11:16:59Z</time>
      </trkpt>
      <trkpt lat="47.2019" lon="-2.03875">
        <ele>33.73</ele>
        <time>2020-05-23T11:17:01Z</time>
      </trkpt>
      <trkpt lat="47.20199" lon="-2.03891">
        <ele>32.43</ele>
        <time>2020-05-23T11:17:03Z</time>
      </trkpt>
      <trkpt lat="47.20207" lon="-2.03908">
        <ele>30.38</ele>
        <time>2020-05-23T11:17:05Z</time>
      </trkpt>
      <trkpt lat="47.20216" lon="-2.03924">
        <ele>28.66</ele>
        <time>2020-05-23T11:17:07Z</time>
      </trkpt>
      <trkpt lat="47.20224" lon="-2.03939">
        <ele>27.94</ele>
        <time>2020-05-23T11:17:09Z</time>
      </trkpt>
      <trkpt lat="47.20231" lon="-2.03954">
        <ele>26.69</ele>
        <time>2020-05-23T11:17:11Z</time>
      </trkpt>
      <trkpt lat="47.20239" lon="-2.03969">
        <ele>25.49</ele>
        <time>2020-05-23T11:17:13Z</time>
      </trkpt>
      <trkpt lat="47.20246" lon="-2.03984">
        <ele>25.01</ele>
        <time>2020-05-23T11:17:15Z</time>
      </trkpt>
      <trkpt lat="47.20253" lon="-2.03998">
        <ele>24.21</ele>
        <time>2020-05-23T11:17:17Z</time>
      </trkpt>
      <trkpt lat="47.20262" lon="-2.04013">
        <ele>23.39</ele>
        <time>2020-05-23T11:17:19Z</time>
      </trkpt>
      <trkpt lat="47.2027" lon="-2.04029">
        <ele>22.77</ele>
        <time>2020-05-23T11:17:21Z</time>
      </trkpt>
      <trkpt lat="47.20279" lon="-2.04044">
        <ele>21.97</ele>
        <time>2020-05-23T11:17:23Z</time>
      </trkpt>
      <trkpt lat="47.20288" lon="-2.04059">
        <ele>21.57</ele>
        <time>2020-05-23T11:17:25Z</time>
      </trkpt>
      <trkpt lat="47.20296" lon="-2.04073">
        <ele>21.9</ele>
        <time>2020-05-23T11:17:27Z</time>
      </trkpt>
      <trkpt lat="47.20304" lon="-2.04088">
        <ele>22.07</ele>
        <time>2020-05-23T11:17:29Z</time>
      </trkpt>
      <trkpt lat="47.20314" lon="-2.04106">
        <ele>22.13</ele>
        <time>2020-05-23T11:17:31Z</time>
      </trkpt>
      <trkpt lat="47.20323" lon="-2.04123">
        <ele>22.04</ele>
        <time>2020-05-23T11:17:33Z</time>
      </trkpt>
      <trkpt lat="47.20332" lon="-2.04137">
        <ele>21.84</ele>
        <time>2020-05-23T11:17:35Z</time>
      </trkpt>
      <trkpt lat="47.2034" lon="-2.04151">
        <ele>21.65</ele>
        <time>2020-05-23T11:17:37Z</time>
      </trkpt>
      <trkpt lat="47.20349" lon="-2.04167">
        <ele>20.93</ele>
        <time>2020-05-23T11:17:39Z</time>
      </trkpt>
      <trkpt lat="47.20358" lon="-2.04183">
        <ele>20.2</ele>
        <time>2020-05-23T11:17:41Z</time>
      </trkpt>
      <trkpt lat="47.20366" lon="-2.04198">
        <ele>19.85</ele>
        <time>2020-05-23T11:17:43Z</time>
      </trkpt>
      <trkpt lat="47.20374" lon="-2.04214">
        <ele>19.4</ele>
        <time>2020-05-23T11:17:45Z</time>
      </trkpt>
      <trkpt lat="47.20384" lon="-2.04228">
        <ele>19.15</ele>
        <time>2020-05-23T11:17:47Z</time>
      </trkpt>
      <trkpt lat="47.2039" lon="-2.04243">
        <ele>18.84</ele>
        <time>2020-05-23T11:17:49Z</time>
      </trkpt>
      <trkpt lat="47.20398" lon="-2.04257">
        <ele>18.94</ele>
        <time>2020-05-23T11:17:51Z</time>
      </trkpt>
      <trkpt lat="47.20406" lon="-2.04269">
        <ele>18.89</ele>
        <time>2020-05-23T11:17:53Z</time>
      </trkpt>
      <trkpt lat="47.20415" lon="-2.04285">
        <ele>18.66</ele>
        <time>2020-05-23T11:17:55Z</time>
      </trkpt>
      <trkpt lat="47.20423" lon="-2.04299">
        <ele>18.31</ele>
        <time>2020-05-23T11:17:57Z</time>
      </trkpt>
      <trkpt lat="47.20433" lon="-2.04313">
        <ele>18.2</ele>
        <time>2020-05-23T11:17:59Z</time>
      </trkpt>
      <trkpt lat="47.20442" lon="-2.04327">
        <ele>17.91</ele>
        <time>2020-05-23T11:18:01Z</time>
      </trkpt>
      <trkpt lat="47.2045" lon="-2.04338">
        <ele>18.05</ele>
        <time>2020-05-23T11:18:03Z</time>
      </trkpt>
      <trkpt lat="47.20458" lon="-2.04351">
        <ele>18.13</ele>
        <time>2020-05-23T11:18:05Z</time>
      </trkpt>
      <trkpt lat="47.20466" lon="-2.04364">
        <ele>19.46</ele>
        <time>2020-05-23T11:18:07Z</time>
      </trkpt>
      <trkpt lat="47.20476" lon="-2.04373">
        <ele>20.34</ele>
        <time>2020-05-23T11:18:09Z</time>
      </trkpt>
      <trkpt lat="47.20489" lon="-2.04379">
        <ele>20.76</ele>
        <time>2020-05-23T11:18:11Z</time>
      </trkpt>
      <trkpt lat="47.20501" lon="-2.04384">
        <ele>20.44</ele>
        <time>2020-05-23T11:18:13Z</time>
      </trkpt>
      <trkpt lat="47.20512" lon="-2.04389">
        <ele>20.62</ele>
        <time>2020-05-23T11:18:15Z</time>
      </trkpt>
      <trkpt lat="47.20523" lon="-2.04395">
        <ele>20.28</ele>
        <time>2020-05-23T11:18:17Z</time>
      </trkpt>
      <trkpt lat="47.20534" lon="-2.04399">
        <ele>19.74</ele>
        <time>2020-05-23T11:18:19Z</time>
      </trkpt>
      <trkpt lat="47.20544" lon="-2.04406">
        <ele>20.04</ele>
        <time>2020-05-23T11:18:21Z</time>
      </trkpt>
      <trkpt lat="47.20554" lon="-2.04412">
        <ele>19.86</ele>
        <time>2020-05-23T11:18:23Z</time>
      </trkpt>
      <trkpt lat="47.20565" lon="-2.04409">
        <ele>18.81</ele>
        <time>2020-05-23T11:18:25Z</time>
      </trkpt>
      <trkpt lat="47.20576" lon="-2.04406">
        <ele>17.73</ele>
        <time>2020-05-23T11:18:27Z</time>
      </trkpt>
      <trkpt lat="47.20588" lon="-2.04407">
        <ele>16.84</ele>
        <time>2020-05-23T11:18:29Z</time>
      </trkpt>
      <trkpt lat="47.20599" lon="-2.04416">
        <ele>16.48</ele>
        <time>2020-05-23T11:18:31Z</time>
      </trkpt>
      <trkpt lat="47.2061" lon="-2.04422">
        <ele>15.34</ele>
        <time>2020-05-23T11:18:33Z</time>
      </trkpt>
      <trkpt lat="47.20623" lon="-2.04424">
        <ele>14.53</ele>
        <time>2020-05-23T11:18:35Z</time>
      </trkpt>
      <trkpt lat="47.20636" lon="-2.04423">
        <ele>12.77</ele>
        <time>2020-05-23T11:18:37Z</time>
      </trkpt>
      <trkpt lat="47.2065" lon="-2.04422">
        <ele>10.9</ele>
        <time>2020-05-23T11:18:39Z</time>
      </trkpt>
      <trkpt lat="47.20662" lon="-2.04419">
        <ele>9.29</ele>
        <time>2020-05-23T11:18:41Z</time>
      </trkpt>
      <trkpt lat="47.20673" lon="-2.04416">
        <ele>8.3</ele>
        <time>2020-05-23T11:18:43Z</time>
      </trkpt>
      <trkpt lat="47.20685" lon="-2.04412">
        <ele>8.47</ele>
        <time>2020-05-23T11:18:45Z</time>
      </trkpt>
      <trkpt lat="47.20697" lon="-2.04408">
        <ele>8.81</ele>
        <time>2020-05-23T11:18:47Z</time>
      </trkpt>
      <trkpt lat="47.20709" lon="-2.04406">
        <ele>8.09</ele>
        <time>2020-05-23T11:18:49Z</time>
      </trkpt>
      <trkpt lat="47.20722" lon="-2.04404">
        <ele>8.27</ele>
        <time>2020-05-23T11:18:51Z</time>
      </trkpt>
      <trkpt lat="47.20734" lon="-2.04402">
        <ele>8.91</ele>
        <time>2020-05-23T11:18:53Z</time>
      </trkpt>
      <trkpt lat="47.20746" lon="-2.04401">
        <ele>9.23</ele>
        <time>2020-05-23T11:18:56Z</time>
      </trkpt>
      <trkpt lat="47.20753" lon="-2.04416">
        <ele>8.98</ele>
        <time>2020-05-23T11:19:00Z</time>
      </trkpt>
      <trkpt lat="47.20762" lon="-2.04422">
        <ele>9.36</ele>
        <time>2020-05-23T11:19:03Z</time>
      </trkpt>
      <trkpt lat="47.20773" lon="-2.04421">
        <ele>10.79</ele>
        <time>2020-05-23T11:19:05Z</time>
      </trkpt>
      <trkpt lat="47.20783" lon="-2.04411">
        <ele>11.22</ele>
        <time>2020-05-23T11:19:07Z</time>
      </trkpt>
      <trkpt lat="47.20795" lon="-2.04399">
        <ele>10.88</ele>
        <time>2020-05-23T11:19:09Z</time>
      </trkpt>
      <trkpt lat="47.20806" lon="-2.04388">
        <ele>10.41</ele>
        <time>2020-05-23T11:19:11Z</time>
      </trkpt>
      <trkpt lat="47.20817" lon="-2.04377">
        <ele>8.88</ele>
        <time>2020-05-23T11:19:13Z</time>
      </trkpt>
      <trkpt lat="47.20828" lon="-2.04368">
        <ele>7.79</ele>
        <time>2020-05-23T11:19:15Z</time>
      </trkpt>
      <trkpt lat="47.20839" lon="-2.04359">
        <ele>6.46</ele>
        <time>2020-05-23T11:19:17Z</time>
      </trkpt>
      <trkpt lat="47.20851" lon="-2.04348">
        <ele>6</ele>
        <time>2020-05-23T11:19:19Z</time>
      </trkpt>
      <trkpt lat="47.20863" lon="-2.04338">
        <ele>6.41</ele>
        <time>2020-05-23T11:19:21Z</time>
      </trkpt>
      <trkpt lat="47.20874" lon="-2.04329">
        <ele>7.25</ele>
        <time>2020-05-23T11:19:23Z</time>
      </trkpt>
      <trkpt lat="47.20886" lon="-2.04318">
        <ele>7.97</ele>
        <time>2020-05-23T11:19:25Z</time>
      </trkpt>
      <trkpt lat="47.20897" lon="-2.04308">
        <ele>10.16</ele>
        <time>2020-05-23T11:19:27Z</time>
      </trkpt>
      <trkpt lat="47.20906" lon="-2.04298">
        <ele>11.79</ele>
        <time>2020-05-23T11:19:29Z</time>
      </trkpt>
      <trkpt lat="47.20918" lon="-2.04286">
        <ele>13.21</ele>
        <time>2020-05-23T11:19:31Z</time>
      </trkpt>
      <trkpt lat="47.2093" lon="-2.04275">
        <ele>13.39</ele>
        <time>2020-05-23T11:19:33Z</time>
      </trkpt>
      <trkpt lat="47.20942" lon="-2.04266">
        <ele>12.75</ele>
        <time>2020-05-23T11:19:35Z</time>
      </trkpt>
      <trkpt lat="47.20956" lon="-2.04258">
        <ele>11.45</ele>
        <time>2020-05-23T11:19:37Z</time>
      </trkpt>
      <trkpt lat="47.20971" lon="-2.04249">
        <ele>9.58</ele>
        <time>2020-05-23T11:19:39Z</time>
      </trkpt>
      <trkpt lat="47.20986" lon="-2.04241">
        <ele>8.16</ele>
        <time>2020-05-23T11:19:41Z</time>
      </trkpt>
      <trkpt lat="47.20998" lon="-2.04233">
        <ele>7.04</ele>
        <time>2020-05-23T11:19:43Z</time>
      </trkpt>
      <trkpt lat="47.21012" lon="-2.04225">
        <ele>6.55</ele>
        <time>2020-05-23T11:19:45Z</time>
      </trkpt>
      <trkpt lat="47.21027" lon="-2.04217">
        <ele>5.47</ele>
        <time>2020-05-23T11:19:47Z</time>
      </trkpt>
      <trkpt lat="47.21036" lon="-2.04213">
        <ele>5.26</ele>
        <time>2020-05-23T11:19:48Z</time>
      </trkpt>
      <trkpt lat="47.21052" lon="-2.04206">
        <ele>4.14</ele>
        <time>2020-05-23T11:19:50Z</time>
      </trkpt>
      <trkpt lat="47.21067" lon="-2.04198">
        <ele>2.82</ele>
        <time>2020-05-23T11:19:52Z</time>
      </trkpt>
      <trkpt lat="47.2108" lon="-2.04194">
        <ele>1.37</ele>
        <time>2020-05-23T11:19:54Z</time>
      </trkpt>
      <trkpt lat="47.21095" lon="-2.04186">
        <ele>1.97</ele>
        <time>2020-05-23T11:19:56Z</time>
      </trkpt>
      <trkpt lat="47.2111" lon="-2.04179">
        <ele>3.22</ele>
        <time>2020-05-23T11:19:58Z</time>
      </trkpt>
      <trkpt lat="47.21124" lon="-2.04173">
        <ele>3.7</ele>
        <time>2020-05-23T11:20:00Z</time>
      </trkpt>
      <trkpt lat="47.21137" lon="-2.04167">
        <ele>3.9</ele>
        <time>2020-05-23T11:20:02Z</time>
      </trkpt>
      <trkpt lat="47.21149" lon="-2.0416">
        <ele>4.65</ele>
        <time>2020-05-23T11:20:04Z</time>
      </trkpt>
      <trkpt lat="47.21162" lon="-2.04154">
        <ele>5.59</ele>
        <time>2020-05-23T11:20:06Z</time>
      </trkpt>
      <trkpt lat="47.21173" lon="-2.04149">
        <ele>5.59</ele>
        <time>2020-05-23T11:20:08Z</time>
      </trkpt>
      <trkpt lat="47.21187" lon="-2.04143">
        <ele>5.47</ele>
        <time>2020-05-23T11:20:10Z</time>
      </trkpt>
      <trkpt lat="47.21198" lon="-2.04138">
        <ele>5.29</ele>
        <time>2020-05-23T11:20:13Z</time>
      </trkpt>
      <trkpt lat="47.2121" lon="-2.04133">
        <ele>5.96</ele>
        <time>2020-05-23T11:20:15Z</time>
      </trkpt>
      <trkpt lat="47.21223" lon="-2.04127">
        <ele>6.12</ele>
        <time>2020-05-23T11:20:17Z</time>
      </trkpt>
      <trkpt lat="47.21235" lon="-2.04121">
        <ele>6.34</ele>
        <time>2020-05-23T11:20:19Z</time>
      </trkpt>
      <trkpt lat="47.21245" lon="-2.04116">
        <ele>7.02</ele>
        <time>2020-05-23T11:20:21Z</time>
      </trkpt>
      <trkpt lat="47.21254" lon="-2.04111">
        <ele>7.25</ele>
        <time>2020-05-23T11:20:23Z</time>
      </trkpt>
      <trkpt lat="47.21265" lon="-2.04107">
        <ele>6.73</ele>
        <time>2020-05-23T11:20:25Z</time>
      </trkpt>
      <trkpt lat="47.21275" lon="-2.04102">
        <ele>7.3</ele>
        <time>2020-05-23T11:20:27Z</time>
      </trkpt>
      <trkpt lat="47.21288" lon="-2.04096">
        <ele>9.99</ele>
        <time>2020-05-23T11:20:30Z</time>
      </trkpt>
      <trkpt lat="47.21298" lon="-2.04093">
        <ele>11.23</ele>
        <time>2020-05-23T11:20:32Z</time>
      </trkpt>
      <trkpt lat="47.21307" lon="-2.04088">
        <ele>12.63</ele>
        <time>2020-05-23T11:20:34Z</time>
      </trkpt>
      <trkpt lat="47.21317" lon="-2.04083">
        <ele>12.59</ele>
        <time>2020-05-23T11:20:36Z</time>
      </trkpt>
      <trkpt lat="47.2133" lon="-2.04077">
        <ele>13.23</ele>
        <time>2020-05-23T11:20:39Z</time>
      </trkpt>
      <trkpt lat="47.21341" lon="-2.04075">
        <ele>13.26</ele>
        <time>2020-05-23T11:20:41Z</time>
      </trkpt>
      <trkpt lat="47.21352" lon="-2.0407">
        <ele>13.97</ele>
        <time>2020-05-23T11:20:43Z</time>
      </trkpt>
      <trkpt lat="47.21365" lon="-2.04064">
        <ele>15.47</ele>
        <time>2020-05-23T11:20:46Z</time>
      </trkpt>
      <trkpt lat="47.21374" lon="-2.0406">
        <ele>16.23</ele>
        <time>2020-05-23T11:20:48Z</time>
      </trkpt>
      <trkpt lat="47.21383" lon="-2.04054">
        <ele>16.61</ele>
        <time>2020-05-23T11:20:50Z</time>
      </trkpt>
      <trkpt lat="47.21396" lon="-2.04048">
        <ele>16.02</ele>
        <time>2020-05-23T11:20:53Z</time>
      </trkpt>
      <trkpt lat="47.21408" lon="-2.04043">
        <ele>15.03</ele>
        <time>2020-05-23T11:20:55Z</time>
      </trkpt>
      <trkpt lat="47.21417" lon="-2.0404">
        <ele>13.5</ele>
        <time>2020-05-23T11:20:57Z</time>
      </trkpt>
      <trkpt lat="47.21431" lon="-2.04036">
        <ele>11.76</ele>
        <time>2020-05-23T11:21:00Z</time>
      </trkpt>
      <trkpt lat="47.21441" lon="-2.04032">
        <ele>11.42</ele>
        <time>2020-05-23T11:21:02Z</time>
      </trkpt>
      <trkpt lat="47.21451" lon="-2.04028">
        <ele>12.4</ele>
        <time>2020-05-23T11:21:04Z</time>
      </trkpt>
      <trkpt lat="47.21461" lon="-2.04026">
        <ele>14.07</ele>
        <time>2020-05-23T11:21:06Z</time>
      </trkpt>
      <trkpt lat="47.21474" lon="-2.04023">
        <ele>15.96</ele>
        <time>2020-05-23T11:21:08Z</time>
      </trkpt>
      <trkpt lat="47.21485" lon="-2.04022">
        <ele>16.82</ele>
        <time>2020-05-23T11:21:10Z</time>
      </trkpt>
      <trkpt lat="47.21496" lon="-2.04022">
        <ele>16.47</ele>
        <time>2020-05-23T11:21:12Z</time>
      </trkpt>
      <trkpt lat="47.21508" lon="-2.04021">
        <ele>15.63</ele>
        <time>2020-05-23T11:21:14Z</time>
      </trkpt>
      <trkpt lat="47.21519" lon="-2.04019">
        <ele>15.69</ele>
        <time>2020-05-23T11:21:16Z</time>
      </trkpt>
      <trkpt lat="47.2153" lon="-2.04017">
        <ele>14.48</ele>
        <time>2020-05-23T11:21:18Z</time>
      </trkpt>
      <trkpt lat="47.2154" lon="-2.04015">
        <ele>13.08</ele>
        <time>2020-05-23T11:21:20Z</time>
      </trkpt>
      <trkpt lat="47.21553" lon="-2.04014">
        <ele>11.77</ele>
        <time>2020-05-23T11:21:22Z</time>
      </trkpt>
      <trkpt lat="47.21565" lon="-2.04013">
        <ele>10.14</ele>
        <time>2020-05-23T11:21:24Z</time>
      </trkpt>
      <trkpt lat="47.21576" lon="-2.0401">
        <ele>8.52</ele>
        <time>2020-05-23T11:21:26Z</time>
      </trkpt>
      <trkpt lat="47.21586" lon="-2.04007">
        <ele>6.93</ele>
        <time>2020-05-23T11:21:28Z</time>
      </trkpt>
      <trkpt lat="47.21598" lon="-2.04002">
        <ele>5.76</ele>
        <time>2020-05-23T11:21:30Z</time>
      </trkpt>
      <trkpt lat="47.21608" lon="-2.03996">
        <ele>5.1</ele>
        <time>2020-05-23T11:21:32Z</time>
      </trkpt>
      <trkpt lat="47.21619" lon="-2.03991">
        <ele>5.31</ele>
        <time>2020-05-23T11:21:34Z</time>
      </trkpt>
      <trkpt lat="47.2163" lon="-2.03986">
        <ele>5.7</ele>
        <time>2020-05-23T11:21:36Z</time>
      </trkpt>
      <trkpt lat="47.2164" lon="-2.03979">
        <ele>6.96</ele>
        <time>2020-05-23T11:21:38Z</time>
      </trkpt>
      <trkpt lat="47.2165" lon="-2.03974">
        <ele>8.74</ele>
        <time>2020-05-23T11:21:40Z</time>
      </trkpt>
      <trkpt lat="47.2166" lon="-2.03968">
        <ele>10.11</ele>
        <time>2020-05-23T11:21:42Z</time>
      </trkpt>
      <trkpt lat="47.21671" lon="-2.03963">
        <ele>10.92</ele>
        <time>2020-05-23T11:21:44Z</time>
      </trkpt>
      <trkpt lat="47.21682" lon="-2.03958">
        <ele>10.55</ele>
        <time>2020-05-23T11:21:46Z</time>
      </trkpt>
      <trkpt lat="47.21694" lon="-2.03951">
        <ele>9.93</ele>
        <time>2020-05-23T11:21:48Z</time>
      </trkpt>
      <trkpt lat="47.21705" lon="-2.03945">
        <ele>10.2</ele>
        <time>2020-05-23T11:21:50Z</time>
      </trkpt>
      <trkpt lat="47.21717" lon="-2.03939">
        <ele>10.66</ele>
        <time>2020-05-23T11:21:52Z</time>
      </trkpt>
      <trkpt lat="47.21727" lon="-2.03933">
        <ele>10.51</ele>
        <time>2020-05-23T11:21:54Z</time>
      </trkpt>
      <trkpt lat="47.2174" lon="-2.03927">
        <ele>9.86</ele>
        <time>2020-05-23T11:21:56Z</time>
      </trkpt>
      <trkpt lat="47.21752" lon="-2.03922">
        <ele>9.1</ele>
        <time>2020-05-23T11:21:58Z</time>
      </trkpt>
      <trkpt lat="47.21763" lon="-2.03916">
        <ele>8</ele>
        <time>2020-05-23T11:22:00Z</time>
      </trkpt>
      <trkpt lat="47.21776" lon="-2.03912">
        <ele>7.31</ele>
        <time>2020-05-23T11:22:02Z</time>
      </trkpt>
      <trkpt lat="47.21787" lon="-2.03906">
        <ele>6.54</ele>
        <time>2020-05-23T11:22:04Z</time>
      </trkpt>
      <trkpt lat="47.21799" lon="-2.03899">
        <ele>5.86</ele>
        <time>2020-05-23T11:22:06Z</time>
      </trkpt>
      <trkpt lat="47.21811" lon="-2.03891">
        <ele>8.12</ele>
        <time>2020-05-23T11:22:08Z</time>
      </trkpt>
      <trkpt lat="47.21824" lon="-2.03881">
        <ele>10.41</ele>
        <time>2020-05-23T11:22:10Z</time>
      </trkpt>
      <trkpt lat="47.21835" lon="-2.03868">
        <ele>12.13</ele>
        <time>2020-05-23T11:22:12Z</time>
      </trkpt>
      <trkpt lat="47.21845" lon="-2.03856">
        <ele>13.46</ele>
        <time>2020-05-23T11:22:14Z</time>
      </trkpt>
      <trkpt lat="47.2186" lon="-2.03859">
        <ele>15.32</ele>
        <time>2020-05-23T11:22:17Z</time>
      </trkpt>
      <trkpt lat="47.21872" lon="-2.03858">
        <ele>16.42</ele>
        <time>2020-05-23T11:22:19Z</time>
      </trkpt>
      <trkpt lat="47.21884" lon="-2.03855">
        <ele>16.52</ele>
        <time>2020-05-23T11:22:21Z</time>
      </trkpt>
      <trkpt lat="47.21899" lon="-2.0385">
        <ele>15.94</ele>
        <time>2020-05-23T11:22:23Z</time>
      </trkpt>
      <trkpt lat="47.21913" lon="-2.03843">
        <ele>14.05</ele>
        <time>2020-05-23T11:22:25Z</time>
      </trkpt>
      <trkpt lat="47.21928" lon="-2.03835">
        <ele>13.18</ele>
        <time>2020-05-23T11:22:27Z</time>
      </trkpt>
      <trkpt lat="47.21941" lon="-2.03827">
        <ele>13.08</ele>
        <time>2020-05-23T11:22:29Z</time>
      </trkpt>
      <trkpt lat="47.21955" lon="-2.03819">
        <ele>13.1</ele>
        <time>2020-05-23T11:22:31Z</time>
      </trkpt>
      <trkpt lat="47.21968" lon="-2.03811">
        <ele>12.74</ele>
        <time>2020-05-23T11:22:33Z</time>
      </trkpt>
      <trkpt lat="47.21981" lon="-2.03801">
        <ele>12.71</ele>
        <time>2020-05-23T11:22:35Z</time>
      </trkpt>
      <trkpt lat="47.21992" lon="-2.0379">
        <ele>13.43</ele>
        <time>2020-05-23T11:22:37Z</time>
      </trkpt>
      <trkpt lat="47.22004" lon="-2.03777">
        <ele>13.93</ele>
        <time>2020-05-23T11:22:39Z</time>
      </trkpt>
      <trkpt lat="47.22016" lon="-2.03763">
        <ele>13.75</ele>
        <time>2020-05-23T11:22:41Z</time>
      </trkpt>
      <trkpt lat="47.22027" lon="-2.03747">
        <ele>12.74</ele>
        <time>2020-05-23T11:22:43Z</time>
      </trkpt>
      <trkpt lat="47.22036" lon="-2.03731">
        <ele>11.91</ele>
        <time>2020-05-23T11:22:45Z</time>
      </trkpt>
      <trkpt lat="47.22045" lon="-2.03715">
        <ele>11.32</ele>
        <time>2020-05-23T11:22:47Z</time>
      </trkpt>
      <trkpt lat="47.22052" lon="-2.03699">
        <ele>10.88</ele>
        <time>2020-05-23T11:22:49Z</time>
      </trkpt>
      <trkpt lat="47.2206" lon="-2.03683">
        <ele>10.44</ele>
        <time>2020-05-23T11:22:51Z</time>
      </trkpt>
      <trkpt lat="47.22067" lon="-2.03665">
        <ele>9.7</ele>
        <time>2020-05-23T11:22:53Z</time>
      </trkpt>
      <trkpt lat="47.22074" lon="-2.03651">
        <ele>9.75</ele>
        <time>2020-05-23T11:22:55Z</time>
      </trkpt>
      <trkpt lat="47.22082" lon="-2.03633">
        <ele>9.75</ele>
        <time>2020-05-23T11:22:57Z</time>
      </trkpt>
      <trkpt lat="47.22091" lon="-2.03616">
        <ele>9.56</ele>
        <time>2020-05-23T11:22:59Z</time>
      </trkpt>
      <trkpt lat="47.22099" lon="-2.03602">
        <ele>9.19</ele>
        <time>2020-05-23T11:23:01Z</time>
      </trkpt>
      <trkpt lat="47.22107" lon="-2.03588">
        <ele>8.31</ele>
        <time>2020-05-23T11:23:03Z</time>
      </trkpt>
      <trkpt lat="47.22117" lon="-2.03573">
        <ele>7.23</ele>
        <time>2020-05-23T11:23:05Z</time>
      </trkpt>
      <trkpt lat="47.22123" lon="-2.03563">
        <ele>7.35</ele>
        <time>2020-05-23T11:23:07Z</time>
      </trkpt>
      <trkpt lat="47.22132" lon="-2.03549">
        <ele>7.5</ele>
        <time>2020-05-23T11:23:09Z</time>
      </trkpt>
      <trkpt lat="47.22142" lon="-2.03533">
        <ele>8.29</ele>
        <time>2020-05-23T11:23:11Z</time>
      </trkpt>
      <trkpt lat="47.22152" lon="-2.03517">
        <ele>9.46</ele>
        <time>2020-05-23T11:23:13Z</time>
      </trkpt>
      <trkpt lat="47.22161" lon="-2.03504">
        <ele>10.55</ele>
        <time>2020-05-23T11:23:15Z</time>
      </trkpt>
      <trkpt lat="47.22169" lon="-2.03492">
        <ele>11.23</ele>
        <time>2020-05-23T11:23:17Z</time>
      </trkpt>
      <trkpt lat="47.22179" lon="-2.03478">
        <ele>11.65</ele>
        <time>2020-05-23T11:23:19Z</time>
      </trkpt>
      <trkpt lat="47.22188" lon="-2.03465">
        <ele>11.89</ele>
        <time>2020-05-23T11:23:21Z</time>
      </trkpt>
      <trkpt lat="47.22198" lon="-2.03451">
        <ele>11.52</ele>
        <time>2020-05-23T11:23:23Z</time>
      </trkpt>
      <trkpt lat="47.22209" lon="-2.03437">
        <ele>11.54</ele>
        <time>2020-05-23T11:23:25Z</time>
      </trkpt>
      <trkpt lat="47.22219" lon="-2.03427">
        <ele>11.93</ele>
        <time>2020-05-23T11:23:27Z</time>
      </trkpt>
      <trkpt lat="47.22231" lon="-2.03417">
        <ele>12.24</ele>
        <time>2020-05-23T11:23:29Z</time>
      </trkpt>
      <trkpt lat="47.22243" lon="-2.03409">
        <ele>12.28</ele>
        <time>2020-05-23T11:23:31Z</time>
      </trkpt>
      <trkpt lat="47.22254" lon="-2.034">
        <ele>12.2</ele>
        <time>2020-05-23T11:23:33Z</time>
      </trkpt>
      <trkpt lat="47.22267" lon="-2.03387">
        <ele>11.4</ele>
        <time>2020-05-23T11:23:35Z</time>
      </trkpt>
      <trkpt lat="47.22279" lon="-2.03372">
        <ele>10.45</ele>
        <time>2020-05-23T11:23:37Z</time>
      </trkpt>
      <trkpt lat="47.22289" lon="-2.03358">
        <ele>10.58</ele>
        <time>2020-05-23T11:23:39Z</time>
      </trkpt>
      <trkpt lat="47.22295" lon="-2.03347">
        <ele>10.55</ele>
        <time>2020-05-23T11:23:40Z</time>
      </trkpt>
      <trkpt lat="47.22301" lon="-2.03337">
        <ele>10.26</ele>
        <time>2020-05-23T11:23:41Z</time>
      </trkpt>
      <trkpt lat="47.2231" lon="-2.03319">
        <ele>9.02</ele>
        <time>2020-05-23T11:23:43Z</time>
      </trkpt>
      <trkpt lat="47.22317" lon="-2.03302">
        <ele>7.88</ele>
        <time>2020-05-23T11:23:45Z</time>
      </trkpt>
      <trkpt lat="47.22325" lon="-2.03285">
        <ele>6.39</ele>
        <time>2020-05-23T11:23:47Z</time>
      </trkpt>
      <trkpt lat="47.22332" lon="-2.03269">
        <ele>4.54</ele>
        <time>2020-05-23T11:23:49Z</time>
      </trkpt>
      <trkpt lat="47.22341" lon="-2.03251">
        <ele>3.56</ele>
        <time>2020-05-23T11:23:51Z</time>
      </trkpt>
      <trkpt lat="47.22352" lon="-2.03234">
        <ele>3.47</ele>
        <time>2020-05-23T11:23:53Z</time>
      </trkpt>
      <trkpt lat="47.22364" lon="-2.03224">
        <ele>3.65</ele>
        <time>2020-05-23T11:23:55Z</time>
      </trkpt>
      <trkpt lat="47.22377" lon="-2.03218">
        <ele>3.93</ele>
        <time>2020-05-23T11:23:57Z</time>
      </trkpt>
      <trkpt lat="47.22391" lon="-2.03216">
        <ele>4.21</ele>
        <time>2020-05-23T11:23:59Z</time>
      </trkpt>
      <trkpt lat="47.22405" lon="-2.03216">
        <ele>4.08</ele>
        <time>2020-05-23T11:24:01Z</time>
      </trkpt>
      <trkpt lat="47.22418" lon="-2.03216">
        <ele>4.4</ele>
        <time>2020-05-23T11:24:03Z</time>
      </trkpt>
      <trkpt lat="47.22431" lon="-2.03216">
        <ele>5.17</ele>
        <time>2020-05-23T11:24:05Z</time>
      </trkpt>
      <trkpt lat="47.2244" lon="-2.03216">
        <ele>6.11</ele>
        <time>2020-05-23T11:24:07Z</time>
      </trkpt>
      <trkpt lat="47.22451" lon="-2.03216">
        <ele>5.55</ele>
        <time>2020-05-23T11:24:09Z</time>
      </trkpt>
      <trkpt lat="47.22461" lon="-2.03216">
        <ele>4.98</ele>
        <time>2020-05-23T11:24:11Z</time>
      </trkpt>
      <trkpt lat="47.22471" lon="-2.03217">
        <ele>4.51</ele>
        <time>2020-05-23T11:24:13Z</time>
      </trkpt>
      <trkpt lat="47.22484" lon="-2.03216">
        <ele>4.05</ele>
        <time>2020-05-23T11:24:16Z</time>
      </trkpt>
      <trkpt lat="47.22494" lon="-2.03215">
        <ele>3.93</ele>
        <time>2020-05-23T11:24:18Z</time>
      </trkpt>
      <trkpt lat="47.22503" lon="-2.03214">
        <ele>4.03</ele>
        <time>2020-05-23T11:24:20Z</time>
      </trkpt>
      <trkpt lat="47.22513" lon="-2.03213">
        <ele>3.79</ele>
        <time>2020-05-23T11:24:22Z</time>
      </trkpt>
      <trkpt lat="47.22523" lon="-2.03212">
        <ele>3.59</ele>
        <time>2020-05-23T11:24:24Z</time>
      </trkpt>
      <trkpt lat="47.22534" lon="-2.03212">
        <ele>4.5</ele>
        <time>2020-05-23T11:24:27Z</time>
      </trkpt>
      <trkpt lat="47.22543" lon="-2.03212">
        <ele>5.79</ele>
        <time>2020-05-23T11:24:29Z</time>
      </trkpt>
      <trkpt lat="47.22558" lon="-2.03211">
        <ele>7.39</ele>
        <time>2020-05-23T11:24:32Z</time>
      </trkpt>
      <trkpt lat="47.22571" lon="-2.03211">
        <ele>9.43</ele>
        <time>2020-05-23T11:24:35Z</time>
      </trkpt>
      <trkpt lat="47.22585" lon="-2.03211">
        <ele>10.6</ele>
        <time>2020-05-23T11:24:38Z</time>
      </trkpt>
      <trkpt lat="47.22597" lon="-2.03211">
        <ele>10.68</ele>
        <time>2020-05-23T11:24:41Z</time>
      </trkpt>
      <trkpt lat="47.22608" lon="-2.0321">
        <ele>10.48</ele>
        <time>2020-05-23T11:24:44Z</time>
      </trkpt>
      <trkpt lat="47.2262" lon="-2.03209">
        <ele>10.95</ele>
        <time>2020-05-23T11:24:47Z</time>
      </trkpt>
      <trkpt lat="47.2263" lon="-2.03209">
        <ele>11.48</ele>
        <time>2020-05-23T11:24:49Z</time>
      </trkpt>
      <trkpt lat="47.22641" lon="-2.03209">
        <ele>11.99</ele>
        <time>2020-05-23T11:24:51Z</time>
      </trkpt>
      <trkpt lat="47.22653" lon="-2.03209">
        <ele>13.5</ele>
        <time>2020-05-23T11:24:54Z</time>
      </trkpt>
      <trkpt lat="47.22665" lon="-2.03208">
        <ele>14.15</ele>
        <time>2020-05-23T11:24:57Z</time>
      </trkpt>
      <trkpt lat="47.22675" lon="-2.03206">
        <ele>13.68</ele>
        <time>2020-05-23T11:24:59Z</time>
      </trkpt>
      <trkpt lat="47.22686" lon="-2.03204">
        <ele>13.3</ele>
        <time>2020-05-23T11:25:02Z</time>
      </trkpt>
      <trkpt lat="47.22695" lon="-2.03201">
        <ele>12.28</ele>
        <time>2020-05-23T11:25:04Z</time>
      </trkpt>
      <trkpt lat="47.22704" lon="-2.03198">
        <ele>11.87</ele>
        <time>2020-05-23T11:25:06Z</time>
      </trkpt>
      <trkpt lat="47.22714" lon="-2.03194">
        <ele>11.29</ele>
        <time>2020-05-23T11:25:08Z</time>
      </trkpt>
      <trkpt lat="47.22726" lon="-2.03189">
        <ele>10.79</ele>
        <time>2020-05-23T11:25:11Z</time>
      </trkpt>
      <trkpt lat="47.22736" lon="-2.03185">
        <ele>10.26</ele>
        <time>2020-05-23T11:25:13Z</time>
      </trkpt>
      <trkpt lat="47.22747" lon="-2.03181">
        <ele>10.11</ele>
        <time>2020-05-23T11:25:16Z</time>
      </trkpt>
      <trkpt lat="47.2276" lon="-2.03174">
        <ele>9.49</ele>
        <time>2020-05-23T11:25:19Z</time>
      </trkpt>
      <trkpt lat="47.22773" lon="-2.03167">
        <ele>11.27</ele>
        <time>2020-05-23T11:25:22Z</time>
      </trkpt>
      <trkpt lat="47.22782" lon="-2.03163">
        <ele>12.47</ele>
        <time>2020-05-23T11:25:24Z</time>
      </trkpt>
      <trkpt lat="47.2279" lon="-2.03158">
        <ele>12.61</ele>
        <time>2020-05-23T11:25:26Z</time>
      </trkpt>
      <trkpt lat="47.228" lon="-2.03154">
        <ele>12.63</ele>
        <time>2020-05-23T11:25:28Z</time>
      </trkpt>
      <trkpt lat="47.22812" lon="-2.03147">
        <ele>14.06</ele>
        <time>2020-05-23T11:25:31Z</time>
      </trkpt>
      <trkpt lat="47.22824" lon="-2.03141">
        <ele>14.33</ele>
        <time>2020-05-23T11:25:34Z</time>
      </trkpt>
      <trkpt lat="47.22834" lon="-2.03137">
        <ele>14.28</ele>
        <time>2020-05-23T11:25:36Z</time>
      </trkpt>
      <trkpt lat="47.22843" lon="-2.03135">
        <ele>14.13</ele>
        <time>2020-05-23T11:25:38Z</time>
      </trkpt>
      <trkpt lat="47.22854" lon="-2.03132">
        <ele>15.12</ele>
        <time>2020-05-23T11:25:40Z</time>
      </trkpt>
      <trkpt lat="47.22865" lon="-2.03131">
        <ele>15.75</ele>
        <time>2020-05-23T11:25:42Z</time>
      </trkpt>
      <trkpt lat="47.22874" lon="-2.03131">
        <ele>16.69</ele>
        <time>2020-05-23T11:25:44Z</time>
      </trkpt>
      <trkpt lat="47.22883" lon="-2.03131">
        <ele>17.72</ele>
        <time>2020-05-23T11:25:46Z</time>
      </trkpt>
      <trkpt lat="47.22894" lon="-2.03132">
        <ele>18.91</ele>
        <time>2020-05-23T11:25:48Z</time>
      </trkpt>
      <trkpt lat="47.22908" lon="-2.03133">
        <ele>20.39</ele>
        <time>2020-05-23T11:25:51Z</time>
      </trkpt>
      <trkpt lat="47.22918" lon="-2.03133">
        <ele>20.86</ele>
        <time>2020-05-23T11:25:53Z</time>
      </trkpt>
      <trkpt lat="47.22931" lon="-2.03133">
        <ele>22.22</ele>
        <time>2020-05-23T11:25:56Z</time>
      </trkpt>
      <trkpt lat="47.22941" lon="-2.03133">
        <ele>22.09</ele>
        <time>2020-05-23T11:25:58Z</time>
      </trkpt>
      <trkpt lat="47.22952" lon="-2.03133">
        <ele>21.52</ele>
        <time>2020-05-23T11:26:00Z</time>
      </trkpt>
      <trkpt lat="47.22963" lon="-2.03134">
        <ele>22.45</ele>
        <time>2020-05-23T11:26:02Z</time>
      </trkpt>
      <trkpt lat="47.22977" lon="-2.03135">
        <ele>24.12</ele>
        <time>2020-05-23T11:26:05Z</time>
      </trkpt>
      <trkpt lat="47.22989" lon="-2.03135">
        <ele>24.97</ele>
        <time>2020-05-23T11:26:07Z</time>
      </trkpt>
      <trkpt lat="47.23" lon="-2.03134">
        <ele>25.73</ele>
        <time>2020-05-23T11:26:09Z</time>
      </trkpt>
      <trkpt lat="47.23011" lon="-2.03133">
        <ele>25.81</ele>
        <time>2020-05-23T11:26:11Z</time>
      </trkpt>
      <trkpt lat="47.23022" lon="-2.03135">
        <ele>25.53</ele>
        <time>2020-05-23T11:26:13Z</time>
      </trkpt>
      <trkpt lat="47.23033" lon="-2.03135">
        <ele>24.69</ele>
        <time>2020-05-23T11:26:15Z</time>
      </trkpt>
      <trkpt lat="47.23045" lon="-2.03134">
        <ele>23.99</ele>
        <time>2020-05-23T11:26:17Z</time>
      </trkpt>
      <trkpt lat="47.23056" lon="-2.03134">
        <ele>24.16</ele>
        <time>2020-05-23T11:26:19Z</time>
      </trkpt>
      <trkpt lat="47.23067" lon="-2.03134">
        <ele>23.66</ele>
        <time>2020-05-23T11:26:21Z</time>
      </trkpt>
      <trkpt lat="47.23079" lon="-2.03133">
        <ele>24.01</ele>
        <time>2020-05-23T11:26:23Z</time>
      </trkpt>
      <trkpt lat="47.23089" lon="-2.03131">
        <ele>24.52</ele>
        <time>2020-05-23T11:26:25Z</time>
      </trkpt>
      <trkpt lat="47.23102" lon="-2.03128">
        <ele>24.61</ele>
        <time>2020-05-23T11:26:27Z</time>
      </trkpt>
      <trkpt lat="47.23112" lon="-2.03126">
        <ele>24.49</ele>
        <time>2020-05-23T11:26:29Z</time>
      </trkpt>
      <trkpt lat="47.23123" lon="-2.03124">
        <ele>24.33</ele>
        <time>2020-05-23T11:26:31Z</time>
      </trkpt>
      <trkpt lat="47.23134" lon="-2.0312">
        <ele>24.14</ele>
        <time>2020-05-23T11:26:33Z</time>
      </trkpt>
      <trkpt lat="47.23145" lon="-2.03118">
        <ele>22.64</ele>
        <time>2020-05-23T11:26:35Z</time>
      </trkpt>
      <trkpt lat="47.23158" lon="-2.03116">
        <ele>22.08</ele>
        <time>2020-05-23T11:26:37Z</time>
      </trkpt>
      <trkpt lat="47.23169" lon="-2.03113">
        <ele>22.03</ele>
        <time>2020-05-23T11:26:39Z</time>
      </trkpt>
      <trkpt lat="47.2318" lon="-2.03109">
        <ele>22.8</ele>
        <time>2020-05-23T11:26:41Z</time>
      </trkpt>
      <trkpt lat="47.23192" lon="-2.03104">
        <ele>22.67</ele>
        <time>2020-05-23T11:26:43Z</time>
      </trkpt>
      <trkpt lat="47.23204" lon="-2.03102">
        <ele>21.6</ele>
        <time>2020-05-23T11:26:45Z</time>
      </trkpt>
      <trkpt lat="47.23214" lon="-2.03099">
        <ele>21.18</ele>
        <time>2020-05-23T11:26:47Z</time>
      </trkpt>
      <trkpt lat="47.23228" lon="-2.03097">
        <ele>20.98</ele>
        <time>2020-05-23T11:26:49Z</time>
      </trkpt>
      <trkpt lat="47.23241" lon="-2.03093">
        <ele>20.9</ele>
        <time>2020-05-23T11:26:51Z</time>
      </trkpt>
      <trkpt lat="47.23254" lon="-2.0309">
        <ele>20.98</ele>
        <time>2020-05-23T11:26:53Z</time>
      </trkpt>
      <trkpt lat="47.23265" lon="-2.03087">
        <ele>21.24</ele>
        <time>2020-05-23T11:26:55Z</time>
      </trkpt>
      <trkpt lat="47.23277" lon="-2.03084">
        <ele>21.16</ele>
        <time>2020-05-23T11:26:57Z</time>
      </trkpt>
      <trkpt lat="47.23289" lon="-2.0308">
        <ele>21.55</ele>
        <time>2020-05-23T11:26:59Z</time>
      </trkpt>
      <trkpt lat="47.23302" lon="-2.03077">
        <ele>22.28</ele>
        <time>2020-05-23T11:27:01Z</time>
      </trkpt>
      <trkpt lat="47.23313" lon="-2.03075">
        <ele>23.91</ele>
        <time>2020-05-23T11:27:03Z</time>
      </trkpt>
      <trkpt lat="47.23325" lon="-2.03071">
        <ele>25.13</ele>
        <time>2020-05-23T11:27:05Z</time>
      </trkpt>
      <trkpt lat="47.23335" lon="-2.03068">
        <ele>26.84</ele>
        <time>2020-05-23T11:27:07Z</time>
      </trkpt>
      <trkpt lat="47.23347" lon="-2.03065">
        <ele>27.65</ele>
        <time>2020-05-23T11:27:09Z</time>
      </trkpt>
      <trkpt lat="47.2336" lon="-2.03062">
        <ele>28.25</ele>
        <time>2020-05-23T11:27:11Z</time>
      </trkpt>
      <trkpt lat="47.23373" lon="-2.03058">
        <ele>28.38</ele>
        <time>2020-05-23T11:27:13Z</time>
      </trkpt>
      <trkpt lat="47.23386" lon="-2.03055">
        <ele>28.7</ele>
        <time>2020-05-23T11:27:15Z</time>
      </trkpt>
      <trkpt lat="47.23397" lon="-2.03052">
        <ele>29.34</ele>
        <time>2020-05-23T11:27:17Z</time>
      </trkpt>
      <trkpt lat="47.23408" lon="-2.03049">
        <ele>30.09</ele>
        <time>2020-05-23T11:27:19Z</time>
      </trkpt>
      <trkpt lat="47.2342" lon="-2.03046">
        <ele>29.88</ele>
        <time>2020-05-23T11:27:21Z</time>
      </trkpt>
      <trkpt lat="47.23433" lon="-2.03043">
        <ele>29.45</ele>
        <time>2020-05-23T11:27:23Z</time>
      </trkpt>
      <trkpt lat="47.23444" lon="-2.03039">
        <ele>29.12</ele>
        <time>2020-05-23T11:27:25Z</time>
      </trkpt>
      <trkpt lat="47.23458" lon="-2.03036">
        <ele>29.26</ele>
        <time>2020-05-23T11:27:27Z</time>
      </trkpt>
      <trkpt lat="47.23471" lon="-2.03032">
        <ele>28.7</ele>
        <time>2020-05-23T11:27:29Z</time>
      </trkpt>
      <trkpt lat="47.23486" lon="-2.03027">
        <ele>26.74</ele>
        <time>2020-05-23T11:27:31Z</time>
      </trkpt>
      <trkpt lat="47.235" lon="-2.03023">
        <ele>25.61</ele>
        <time>2020-05-23T11:27:33Z</time>
      </trkpt>
      <trkpt lat="47.23513" lon="-2.03021">
        <ele>24.21</ele>
        <time>2020-05-23T11:27:35Z</time>
      </trkpt>
      <trkpt lat="47.23528" lon="-2.0302">
        <ele>23.48</ele>
        <time>2020-05-23T11:27:37Z</time>
      </trkpt>
      <trkpt lat="47.23543" lon="-2.0302">
        <ele>23.17</ele>
        <time>2020-05-23T11:27:39Z</time>
      </trkpt>
      <trkpt lat="47.23559" lon="-2.0302">
        <ele>23.5</ele>
        <time>2020-05-23T11:27:41Z</time>
      </trkpt>
      <trkpt lat="47.23571" lon="-2.03021">
        <ele>23.81</ele>
        <time>2020-05-23T11:27:43Z</time>
      </trkpt>
      <trkpt lat="47.23585" lon="-2.03023">
        <ele>23.89</ele>
        <time>2020-05-23T11:27:45Z</time>
      </trkpt>
      <trkpt lat="47.23599" lon="-2.03023">
        <ele>24.13</ele>
        <time>2020-05-23T11:27:47Z</time>
      </trkpt>
      <trkpt lat="47.23614" lon="-2.03023">
        <ele>24.17</ele>
        <time>2020-05-23T11:27:49Z</time>
      </trkpt>
      <trkpt lat="47.23628" lon="-2.03023">
        <ele>24.27</ele>
        <time>2020-05-23T11:27:51Z</time>
      </trkpt>
      <trkpt lat="47.23642" lon="-2.03024">
        <ele>24.49</ele>
        <time>2020-05-23T11:27:53Z</time>
      </trkpt>
      <trkpt lat="47.23656" lon="-2.03023">
        <ele>24.5</ele>
        <time>2020-05-23T11:27:55Z</time>
      </trkpt>
      <trkpt lat="47.2367" lon="-2.03022">
        <ele>24.36</ele>
        <time>2020-05-23T11:27:57Z</time>
      </trkpt>
      <trkpt lat="47.23683" lon="-2.03022">
        <ele>24.74</ele>
        <time>2020-05-23T11:27:59Z</time>
      </trkpt>
      <trkpt lat="47.23696" lon="-2.03022">
        <ele>25.85</ele>
        <time>2020-05-23T11:28:01Z</time>
      </trkpt>
      <trkpt lat="47.2371" lon="-2.03023">
        <ele>26.21</ele>
        <time>2020-05-23T11:28:03Z</time>
      </trkpt>
      <trkpt lat="47.23723" lon="-2.03022">
        <ele>26.95</ele>
        <time>2020-05-23T11:28:05Z</time>
      </trkpt>
      <trkpt lat="47.23739" lon="-2.03022">
        <ele>27.37</ele>
        <time>2020-05-23T11:28:07Z</time>
      </trkpt>
      <trkpt lat="47.23753" lon="-2.03022">
        <ele>27.69</ele>
        <time>2020-05-23T11:28:09Z</time>
      </trkpt>
      <trkpt lat="47.23769" lon="-2.03021">
        <ele>28.16</ele>
        <time>2020-05-23T11:28:11Z</time>
      </trkpt>
      <trkpt lat="47.23782" lon="-2.03018">
        <ele>28.67</ele>
        <time>2020-05-23T11:28:13Z</time>
      </trkpt>
      <trkpt lat="47.23797" lon="-2.03012">
        <ele>28.24</ele>
        <time>2020-05-23T11:28:15Z</time>
      </trkpt>
      <trkpt lat="47.23812" lon="-2.03006">
        <ele>27.29</ele>
        <time>2020-05-23T11:28:17Z</time>
      </trkpt>
      <trkpt lat="47.23825" lon="-2.02999">
        <ele>26</ele>
        <time>2020-05-23T11:28:19Z</time>
      </trkpt>
      <trkpt lat="47.2384" lon="-2.0299">
        <ele>24.72</ele>
        <time>2020-05-23T11:28:21Z</time>
      </trkpt>
      <trkpt lat="47.23855" lon="-2.0298">
        <ele>23.98</ele>
        <time>2020-05-23T11:28:23Z</time>
      </trkpt>
      <trkpt lat="47.23868" lon="-2.0297">
        <ele>23.45</ele>
        <time>2020-05-23T11:28:25Z</time>
      </trkpt>
      <trkpt lat="47.23881" lon="-2.0296">
        <ele>22.95</ele>
        <time>2020-05-23T11:28:27Z</time>
      </trkpt>
      <trkpt lat="47.23894" lon="-2.02949">
        <ele>22.38</ele>
        <time>2020-05-23T11:28:29Z</time>
      </trkpt>
      <trkpt lat="47.23908" lon="-2.02938">
        <ele>22.1</ele>
        <time>2020-05-23T11:28:31Z</time>
      </trkpt>
      <trkpt lat="47.23922" lon="-2.02926">
        <ele>21.53</ele>
        <time>2020-05-23T11:28:33Z</time>
      </trkpt>
      <trkpt lat="47.23935" lon="-2.02915">
        <ele>21.2</ele>
        <time>2020-05-23T11:28:35Z</time>
      </trkpt>
      <trkpt lat="47.2395" lon="-2.02904">
        <ele>21.13</ele>
        <time>2020-05-23T11:28:37Z</time>
      </trkpt>
      <trkpt lat="47.23962" lon="-2.02895">
        <ele>20.95</ele>
        <time>2020-05-23T11:28:39Z</time>
      </trkpt>
      <trkpt lat="47.23976" lon="-2.02885">
        <ele>20.96</ele>
        <time>2020-05-23T11:28:41Z</time>
      </trkpt>
      <trkpt lat="47.23989" lon="-2.02875">
        <ele>20.96</ele>
        <time>2020-05-23T11:28:43Z</time>
      </trkpt>
      <trkpt lat="47.24002" lon="-2.02866">
        <ele>20.66</ele>
        <time>2020-05-23T11:28:45Z</time>
      </trkpt>
      <trkpt lat="47.24015" lon="-2.02857">
        <ele>19.54</ele>
        <time>2020-05-23T11:28:47Z</time>
      </trkpt>
      <trkpt lat="47.2403" lon="-2.02847">
        <ele>18.93</ele>
        <time>2020-05-23T11:28:49Z</time>
      </trkpt>
      <trkpt lat="47.24042" lon="-2.02838">
        <ele>19.16</ele>
        <time>2020-05-23T11:28:51Z</time>
      </trkpt>
      <trkpt lat="47.24053" lon="-2.02828">
        <ele>19.35</ele>
        <time>2020-05-23T11:28:53Z</time>
      </trkpt>
      <trkpt lat="47.24064" lon="-2.0282">
        <ele>19.1</ele>
        <time>2020-05-23T11:28:55Z</time>
      </trkpt>
      <trkpt lat="47.24078" lon="-2.02811">
        <ele>18.35</ele>
        <time>2020-05-23T11:28:57Z</time>
      </trkpt>
      <trkpt lat="47.24092" lon="-2.02802">
        <ele>17.05</ele>
        <time>2020-05-23T11:28:59Z</time>
      </trkpt>
      <trkpt lat="47.24105" lon="-2.02794">
        <ele>15.75</ele>
        <time>2020-05-23T11:29:01Z</time>
      </trkpt>
      <trkpt lat="47.24119" lon="-2.02786">
        <ele>14.27</ele>
        <time>2020-05-23T11:29:03Z</time>
      </trkpt>
      <trkpt lat="47.24132" lon="-2.02779">
        <ele>13.5</ele>
        <time>2020-05-23T11:29:05Z</time>
      </trkpt>
      <trkpt lat="47.24143" lon="-2.02774">
        <ele>13.01</ele>
        <time>2020-05-23T11:29:07Z</time>
      </trkpt>
      <trkpt lat="47.24154" lon="-2.02769">
        <ele>12.5</ele>
        <time>2020-05-23T11:29:09Z</time>
      </trkpt>
      <trkpt lat="47.24166" lon="-2.02764">
        <ele>10.91</ele>
        <time>2020-05-23T11:29:11Z</time>
      </trkpt>
      <trkpt lat="47.24178" lon="-2.02761">
        <ele>9.65</ele>
        <time>2020-05-23T11:29:13Z</time>
      </trkpt>
      <trkpt lat="47.2419" lon="-2.02758">
        <ele>9.61</ele>
        <time>2020-05-23T11:29:14Z</time>
      </trkpt>
      <trkpt lat="47.24202" lon="-2.02757">
        <ele>9.81</ele>
        <time>2020-05-23T11:29:16Z</time>
      </trkpt>
      <trkpt lat="47.24211" lon="-2.02756">
        <ele>11.28</ele>
        <time>2020-05-23T11:29:18Z</time>
      </trkpt>
      <trkpt lat="47.24222" lon="-2.02757">
        <ele>13.09</ele>
        <time>2020-05-23T11:29:20Z</time>
      </trkpt>
      <trkpt lat="47.24233" lon="-2.02758">
        <ele>14.37</ele>
        <time>2020-05-23T11:29:22Z</time>
      </trkpt>
      <trkpt lat="47.24245" lon="-2.02758">
        <ele>15.66</ele>
        <time>2020-05-23T11:29:24Z</time>
      </trkpt>
      <trkpt lat="47.24256" lon="-2.02758">
        <ele>16.47</ele>
        <time>2020-05-23T11:29:26Z</time>
      </trkpt>
      <trkpt lat="47.24268" lon="-2.02757">
        <ele>17.05</ele>
        <time>2020-05-23T11:29:28Z</time>
      </trkpt>
      <trkpt lat="47.24279" lon="-2.02754">
        <ele>17.55</ele>
        <time>2020-05-23T11:29:30Z</time>
      </trkpt>
      <trkpt lat="47.24291" lon="-2.02751">
        <ele>17.41</ele>
        <time>2020-05-23T11:29:32Z</time>
      </trkpt>
      <trkpt lat="47.24301" lon="-2.02748">
        <ele>17.53</ele>
        <time>2020-05-23T11:29:34Z</time>
      </trkpt>
      <trkpt lat="47.24311" lon="-2.02745">
        <ele>19.23</ele>
        <time>2020-05-23T11:29:36Z</time>
      </trkpt>
      <trkpt lat="47.24324" lon="-2.02742">
        <ele>20.03</ele>
        <time>2020-05-23T11:29:38Z</time>
      </trkpt>
      <trkpt lat="47.24335" lon="-2.02739">
        <ele>20.54</ele>
        <time>2020-05-23T11:29:40Z</time>
      </trkpt>
      <trkpt lat="47.24346" lon="-2.02736">
        <ele>19.82</ele>
        <time>2020-05-23T11:29:42Z</time>
      </trkpt>
      <trkpt lat="47.24358" lon="-2.02732">
        <ele>19.37</ele>
        <time>2020-05-23T11:29:44Z</time>
      </trkpt>
      <trkpt lat="47.24369" lon="-2.02728">
        <ele>19.08</ele>
        <time>2020-05-23T11:29:46Z</time>
      </trkpt>
      <trkpt lat="47.24382" lon="-2.02724">
        <ele>18.78</ele>
        <time>2020-05-23T11:29:48Z</time>
      </trkpt>
      <trkpt lat="47.24393" lon="-2.02721">
        <ele>18.15</ele>
        <time>2020-05-23T11:29:50Z</time>
      </trkpt>
      <trkpt lat="47.24403" lon="-2.02719">
        <ele>17.26</ele>
        <time>2020-05-23T11:29:52Z</time>
      </trkpt>
      <trkpt lat="47.24412" lon="-2.02717">
        <ele>16.93</ele>
        <time>2020-05-23T11:29:54Z</time>
      </trkpt>
      <trkpt lat="47.24423" lon="-2.02714">
        <ele>16.91</ele>
        <time>2020-05-23T11:29:56Z</time>
      </trkpt>
      <trkpt lat="47.24432" lon="-2.02712">
        <ele>17.72</ele>
        <time>2020-05-23T11:29:58Z</time>
      </trkpt>
      <trkpt lat="47.24444" lon="-2.02709">
        <ele>18.51</ele>
        <time>2020-05-23T11:30:00Z</time>
      </trkpt>
      <trkpt lat="47.24456" lon="-2.02708">
        <ele>19</ele>
        <time>2020-05-23T11:30:02Z</time>
      </trkpt>
      <trkpt lat="47.24466" lon="-2.02706">
        <ele>20.1</ele>
        <time>2020-05-23T11:30:04Z</time>
      </trkpt>
      <trkpt lat="47.24475" lon="-2.02704">
        <ele>20.98</ele>
        <time>2020-05-23T11:30:06Z</time>
      </trkpt>
      <trkpt lat="47.24486" lon="-2.02702">
        <ele>21.53</ele>
        <time>2020-05-23T11:30:08Z</time>
      </trkpt>
      <trkpt lat="47.24496" lon="-2.027">
        <ele>22.64</ele>
        <time>2020-05-23T11:30:10Z</time>
      </trkpt>
      <trkpt lat="47.24509" lon="-2.02698">
        <ele>23.47</ele>
        <time>2020-05-23T11:30:12Z</time>
      </trkpt>
      <trkpt lat="47.24519" lon="-2.02695">
        <ele>24.91</ele>
        <time>2020-05-23T11:30:14Z</time>
      </trkpt>
      <trkpt lat="47.24528" lon="-2.02692">
        <ele>26.46</ele>
        <time>2020-05-23T11:30:16Z</time>
      </trkpt>
      <trkpt lat="47.2454" lon="-2.02688">
        <ele>27.38</ele>
        <time>2020-05-23T11:30:18Z</time>
      </trkpt>
      <trkpt lat="47.24551" lon="-2.02683">
        <ele>27.66</ele>
        <time>2020-05-23T11:30:20Z</time>
      </trkpt>
      <trkpt lat="47.24565" lon="-2.02678">
        <ele>28.08</ele>
        <time>2020-05-23T11:30:23Z</time>
      </trkpt>
      <trkpt lat="47.24575" lon="-2.02674">
        <ele>28.28</ele>
        <time>2020-05-23T11:30:25Z</time>
      </trkpt>
      <trkpt lat="47.24587" lon="-2.02668">
        <ele>28.87</ele>
        <time>2020-05-23T11:30:27Z</time>
      </trkpt>
      <trkpt lat="47.24598" lon="-2.02663">
        <ele>29.77</ele>
        <time>2020-05-23T11:30:29Z</time>
      </trkpt>
      <trkpt lat="47.24609" lon="-2.02658">
        <ele>28.85</ele>
        <time>2020-05-23T11:30:31Z</time>
      </trkpt>
      <trkpt lat="47.2462" lon="-2.02653">
        <ele>28.41</ele>
        <time>2020-05-23T11:30:33Z</time>
      </trkpt>
      <trkpt lat="47.24632" lon="-2.02647">
        <ele>28.82</ele>
        <time>2020-05-23T11:30:35Z</time>
      </trkpt>
      <trkpt lat="47.24643" lon="-2.02642">
        <ele>28.75</ele>
        <time>2020-05-23T11:30:37Z</time>
      </trkpt>
      <trkpt lat="47.24652" lon="-2.02638">
        <ele>28.05</ele>
        <time>2020-05-23T11:30:39Z</time>
      </trkpt>
      <trkpt lat="47.24664" lon="-2.02633">
        <ele>27.39</ele>
        <time>2020-05-23T11:30:41Z</time>
      </trkpt>
      <trkpt lat="47.24675" lon="-2.02628">
        <ele>27.14</ele>
        <time>2020-05-23T11:30:43Z</time>
      </trkpt>
      <trkpt lat="47.24686" lon="-2.02623">
        <ele>27.77</ele>
        <time>2020-05-23T11:30:45Z</time>
      </trkpt>
      <trkpt lat="47.24695" lon="-2.02618">
        <ele>28.8</ele>
        <time>2020-05-23T11:30:47Z</time>
      </trkpt>
      <trkpt lat="47.24706" lon="-2.02613">
        <ele>29.24</ele>
        <time>2020-05-23T11:30:49Z</time>
      </trkpt>
      <trkpt lat="47.24718" lon="-2.02606">
        <ele>28.81</ele>
        <time>2020-05-23T11:30:51Z</time>
      </trkpt>
      <trkpt lat="47.2473" lon="-2.026">
        <ele>27.49</ele>
        <time>2020-05-23T11:30:53Z</time>
      </trkpt>
      <trkpt lat="47.24742" lon="-2.02593">
        <ele>26.66</ele>
        <time>2020-05-23T11:30:55Z</time>
      </trkpt>
      <trkpt lat="47.24753" lon="-2.02584">
        <ele>26.32</ele>
        <time>2020-05-23T11:30:57Z</time>
      </trkpt>
      <trkpt lat="47.24765" lon="-2.02576">
        <ele>26.12</ele>
        <time>2020-05-23T11:30:59Z</time>
      </trkpt>
      <trkpt lat="47.24778" lon="-2.02569">
        <ele>25.21</ele>
        <time>2020-05-23T11:31:01Z</time>
      </trkpt>
      <trkpt lat="47.2479" lon="-2.0256">
        <ele>23.85</ele>
        <time>2020-05-23T11:31:03Z</time>
      </trkpt>
      <trkpt lat="47.24804" lon="-2.0255">
        <ele>22.08</ele>
        <time>2020-05-23T11:31:05Z</time>
      </trkpt>
      <trkpt lat="47.24818" lon="-2.02538">
        <ele>20.23</ele>
        <time>2020-05-23T11:31:07Z</time>
      </trkpt>
      <trkpt lat="47.24831" lon="-2.02528">
        <ele>19.55</ele>
        <time>2020-05-23T11:31:09Z</time>
      </trkpt>
      <trkpt lat="47.24846" lon="-2.02517">
        <ele>19.59</ele>
        <time>2020-05-23T11:31:11Z</time>
      </trkpt>
      <trkpt lat="47.24861" lon="-2.02505">
        <ele>19.62</ele>
        <time>2020-05-23T11:31:13Z</time>
      </trkpt>
      <trkpt lat="47.24869" lon="-2.02498">
        <ele>19.67</ele>
        <time>2020-05-23T11:31:14Z</time>
      </trkpt>
      <trkpt lat="47.24884" lon="-2.02485">
        <ele>20.03</ele>
        <time>2020-05-23T11:31:16Z</time>
      </trkpt>
      <trkpt lat="47.24893" lon="-2.02478">
        <ele>20.05</ele>
        <time>2020-05-23T11:31:17Z</time>
      </trkpt>
      <trkpt lat="47.249" lon="-2.02472">
        <ele>20.17</ele>
        <time>2020-05-23T11:31:18Z</time>
      </trkpt>
      <trkpt lat="47.24909" lon="-2.02464">
        <ele>20.2</ele>
        <time>2020-05-23T11:31:19Z</time>
      </trkpt>
      <trkpt lat="47.24917" lon="-2.02457">
        <ele>20.05</ele>
        <time>2020-05-23T11:31:20Z</time>
      </trkpt>
      <trkpt lat="47.2493" lon="-2.02442">
        <ele>20.03</ele>
        <time>2020-05-23T11:31:22Z</time>
      </trkpt>
      <trkpt lat="47.24938" lon="-2.02433">
        <ele>20.28</ele>
        <time>2020-05-23T11:31:23Z</time>
      </trkpt>
      <trkpt lat="47.24946" lon="-2.02424">
        <ele>20.45</ele>
        <time>2020-05-23T11:31:24Z</time>
      </trkpt>
      <trkpt lat="47.24959" lon="-2.02408">
        <ele>21.12</ele>
        <time>2020-05-23T11:31:26Z</time>
      </trkpt>
      <trkpt lat="47.24967" lon="-2.02398">
        <ele>20.94</ele>
        <time>2020-05-23T11:31:27Z</time>
      </trkpt>
      <trkpt lat="47.24974" lon="-2.02389">
        <ele>20.51</ele>
        <time>2020-05-23T11:31:28Z</time>
      </trkpt>
      <trkpt lat="47.24981" lon="-2.0238">
        <ele>19.89</ele>
        <time>2020-05-23T11:31:29Z</time>
      </trkpt>
      <trkpt lat="47.24995" lon="-2.02362">
        <ele>18.82</ele>
        <time>2020-05-23T11:31:31Z</time>
      </trkpt>
      <trkpt lat="47.25003" lon="-2.02352">
        <ele>17.65</ele>
        <time>2020-05-23T11:31:32Z</time>
      </trkpt>
      <trkpt lat="47.25011" lon="-2.02342">
        <ele>17.03</ele>
        <time>2020-05-23T11:31:33Z</time>
      </trkpt>
      <trkpt lat="47.2502" lon="-2.02331">
        <ele>16.38</ele>
        <time>2020-05-23T11:31:34Z</time>
      </trkpt>
      <trkpt lat="47.25027" lon="-2.02322">
        <ele>16</ele>
        <time>2020-05-23T11:31:35Z</time>
      </trkpt>
      <trkpt lat="47.25036" lon="-2.02312">
        <ele>15.5</ele>
        <time>2020-05-23T11:31:36Z</time>
      </trkpt>
      <trkpt lat="47.25043" lon="-2.02302">
        <ele>14.89</ele>
        <time>2020-05-23T11:31:37Z</time>
      </trkpt>
      <trkpt lat="47.2505" lon="-2.02292">
        <ele>14.22</ele>
        <time>2020-05-23T11:31:38Z</time>
      </trkpt>
      <trkpt lat="47.25058" lon="-2.02283">
        <ele>13.93</ele>
        <time>2020-05-23T11:31:39Z</time>
      </trkpt>
      <trkpt lat="47.25067" lon="-2.02273">
        <ele>13.66</ele>
        <time>2020-05-23T11:31:40Z</time>
      </trkpt>
      <trkpt lat="47.25075" lon="-2.02264">
        <ele>13.44</ele>
        <time>2020-05-23T11:31:41Z</time>
      </trkpt>
      <trkpt lat="47.25083" lon="-2.02254">
        <ele>13.17</ele>
        <time>2020-05-23T11:31:42Z</time>
      </trkpt>
      <trkpt lat="47.25091" lon="-2.02244">
        <ele>12.53</ele>
        <time>2020-05-23T11:31:43Z</time>
      </trkpt>
      <trkpt lat="47.25099" lon="-2.02234">
        <ele>12.02</ele>
        <time>2020-05-23T11:31:44Z</time>
      </trkpt>
      <trkpt lat="47.25107" lon="-2.02225">
        <ele>11.35</ele>
        <time>2020-05-23T11:31:45Z</time>
      </trkpt>
      <trkpt lat="47.25115" lon="-2.02216">
        <ele>10.73</ele>
        <time>2020-05-23T11:31:46Z</time>
      </trkpt>
      <trkpt lat="47.25123" lon="-2.02207">
        <ele>10.37</ele>
        <time>2020-05-23T11:31:47Z</time>
      </trkpt>
      <trkpt lat="47.25133" lon="-2.02196">
        <ele>9.92</ele>
        <time>2020-05-23T11:31:48Z</time>
      </trkpt>
      <trkpt lat="47.25141" lon="-2.02186">
        <ele>9.34</ele>
        <time>2020-05-23T11:31:49Z</time>
      </trkpt>
      <trkpt lat="47.25149" lon="-2.02177">
        <ele>8.74</ele>
        <time>2020-05-23T11:31:50Z</time>
      </trkpt>
      <trkpt lat="47.25157" lon="-2.02169">
        <ele>8.22</ele>
        <time>2020-05-23T11:31:51Z</time>
      </trkpt>
      <trkpt lat="47.25165" lon="-2.0216">
        <ele>7.75</ele>
        <time>2020-05-23T11:31:52Z</time>
      </trkpt>
      <trkpt lat="47.2518" lon="-2.02145">
        <ele>6.7</ele>
        <time>2020-05-23T11:31:54Z</time>
      </trkpt>
      <trkpt lat="47.25193" lon="-2.02132">
        <ele>6.98</ele>
        <time>2020-05-23T11:31:56Z</time>
      </trkpt>
      <trkpt lat="47.25206" lon="-2.02121">
        <ele>7.02</ele>
        <time>2020-05-23T11:31:58Z</time>
      </trkpt>
      <trkpt lat="47.25216" lon="-2.02111">
        <ele>7.48</ele>
        <time>2020-05-23T11:32:00Z</time>
      </trkpt>
      <trkpt lat="47.25226" lon="-2.02099">
        <ele>7.41</ele>
        <time>2020-05-23T11:32:02Z</time>
      </trkpt>
      <trkpt lat="47.25236" lon="-2.02086">
        <ele>7.1</ele>
        <time>2020-05-23T11:32:04Z</time>
      </trkpt>
      <trkpt lat="47.25247" lon="-2.02073">
        <ele>6.96</ele>
        <time>2020-05-23T11:32:06Z</time>
      </trkpt>
      <trkpt lat="47.25258" lon="-2.02062">
        <ele>7.36</ele>
        <time>2020-05-23T11:32:08Z</time>
      </trkpt>
      <trkpt lat="47.25267" lon="-2.02052">
        <ele>7.39</ele>
        <time>2020-05-23T11:32:10Z</time>
      </trkpt>
      <trkpt lat="47.25276" lon="-2.02042">
        <ele>7.09</ele>
        <time>2020-05-23T11:32:12Z</time>
      </trkpt>
      <trkpt lat="47.25286" lon="-2.02031">
        <ele>6.6</ele>
        <time>2020-05-23T11:32:14Z</time>
      </trkpt>
      <trkpt lat="47.25296" lon="-2.02019">
        <ele>6.29</ele>
        <time>2020-05-23T11:32:16Z</time>
      </trkpt>
      <trkpt lat="47.25305" lon="-2.02008">
        <ele>7.03</ele>
        <time>2020-05-23T11:32:18Z</time>
      </trkpt>
      <trkpt lat="47.25314" lon="-2.01997">
        <ele>7.71</ele>
        <time>2020-05-23T11:32:20Z</time>
      </trkpt>
      <trkpt lat="47.25323" lon="-2.01987">
        <ele>8.26</ele>
        <time>2020-05-23T11:32:22Z</time>
      </trkpt>
      <trkpt lat="47.25332" lon="-2.01977">
        <ele>8.37</ele>
        <time>2020-05-23T11:32:24Z</time>
      </trkpt>
      <trkpt lat="47.25342" lon="-2.01968">
        <ele>8.11</ele>
        <time>2020-05-23T11:32:26Z</time>
      </trkpt>
      <trkpt lat="47.25353" lon="-2.01956">
        <ele>8.27</ele>
        <time>2020-05-23T11:32:28Z</time>
      </trkpt>
      <trkpt lat="47.25363" lon="-2.01944">
        <ele>8.16</ele>
        <time>2020-05-23T11:32:30Z</time>
      </trkpt>
      <trkpt lat="47.25374" lon="-2.01931">
        <ele>7.92</ele>
        <time>2020-05-23T11:32:32Z</time>
      </trkpt>
      <trkpt lat="47.25384" lon="-2.01919">
        <ele>8.01</ele>
        <time>2020-05-23T11:32:34Z</time>
      </trkpt>
      <trkpt lat="47.25393" lon="-2.01906">
        <ele>7.4</ele>
        <time>2020-05-23T11:32:36Z</time>
      </trkpt>
      <trkpt lat="47.25401" lon="-2.0189">
        <ele>6.77</ele>
        <time>2020-05-23T11:32:38Z</time>
      </trkpt>
      <trkpt lat="47.2541" lon="-2.01876">
        <ele>7.34</ele>
        <time>2020-05-23T11:32:40Z</time>
      </trkpt>
      <trkpt lat="47.25418" lon="-2.0186">
        <ele>8.12</ele>
        <time>2020-05-23T11:32:42Z</time>
      </trkpt>
      <trkpt lat="47.25427" lon="-2.01844">
        <ele>8.67</ele>
        <time>2020-05-23T11:32:44Z</time>
      </trkpt>
      <trkpt lat="47.25435" lon="-2.01827">
        <ele>9.18</ele>
        <time>2020-05-23T11:32:46Z</time>
      </trkpt>
      <trkpt lat="47.25443" lon="-2.01809">
        <ele>9.39</ele>
        <time>2020-05-23T11:32:48Z</time>
      </trkpt>
      <trkpt lat="47.25451" lon="-2.0179">
        <ele>9.35</ele>
        <time>2020-05-23T11:32:50Z</time>
      </trkpt>
      <trkpt lat="47.25456" lon="-2.01769">
        <ele>9.02</ele>
        <time>2020-05-23T11:32:52Z</time>
      </trkpt>
      <trkpt lat="47.25459" lon="-2.0175">
        <ele>8.63</ele>
        <time>2020-05-23T11:32:54Z</time>
      </trkpt>
      <trkpt lat="47.25467" lon="-2.01731">
        <ele>7.99</ele>
        <time>2020-05-23T11:32:56Z</time>
      </trkpt>
      <trkpt lat="47.25478" lon="-2.01719">
        <ele>7.36</ele>
        <time>2020-05-23T11:32:58Z</time>
      </trkpt>
      <trkpt lat="47.25489" lon="-2.01704">
        <ele>7.49</ele>
        <time>2020-05-23T11:33:00Z</time>
      </trkpt>
      <trkpt lat="47.25497" lon="-2.01686">
        <ele>7.62</ele>
        <time>2020-05-23T11:33:02Z</time>
      </trkpt>
      <trkpt lat="47.25505" lon="-2.01668">
        <ele>7.2</ele>
        <time>2020-05-23T11:33:04Z</time>
      </trkpt>
      <trkpt lat="47.25513" lon="-2.01648">
        <ele>6.82</ele>
        <time>2020-05-23T11:33:06Z</time>
      </trkpt>
      <trkpt lat="47.2552" lon="-2.01631">
        <ele>6.89</ele>
        <time>2020-05-23T11:33:08Z</time>
      </trkpt>
      <trkpt lat="47.25527" lon="-2.01612">
        <ele>6.59</ele>
        <time>2020-05-23T11:33:10Z</time>
      </trkpt>
      <trkpt lat="47.25535" lon="-2.01591">
        <ele>6.5</ele>
        <time>2020-05-23T11:33:12Z</time>
      </trkpt>
      <trkpt lat="47.25542" lon="-2.01571">
        <ele>6.01</ele>
        <time>2020-05-23T11:33:14Z</time>
      </trkpt>
      <trkpt lat="47.25548" lon="-2.01553">
        <ele>5.74</ele>
        <time>2020-05-23T11:33:16Z</time>
      </trkpt>
      <trkpt lat="47.25555" lon="-2.01534">
        <ele>5.1</ele>
        <time>2020-05-23T11:33:18Z</time>
      </trkpt>
      <trkpt lat="47.25563" lon="-2.01512">
        <ele>4.12</ele>
        <time>2020-05-23T11:33:20Z</time>
      </trkpt>
      <trkpt lat="47.25571" lon="-2.01493">
        <ele>3.41</ele>
        <time>2020-05-23T11:33:22Z</time>
      </trkpt>
      <trkpt lat="47.25579" lon="-2.01473">
        <ele>3.04</ele>
        <time>2020-05-23T11:33:24Z</time>
      </trkpt>
      <trkpt lat="47.25587" lon="-2.01451">
        <ele>2.36</ele>
        <time>2020-05-23T11:33:26Z</time>
      </trkpt>
      <trkpt lat="47.25597" lon="-2.01431">
        <ele>1.52</ele>
        <time>2020-05-23T11:33:28Z</time>
      </trkpt>
      <trkpt lat="47.25606" lon="-2.01412">
        <ele>0.57</ele>
        <time>2020-05-23T11:33:30Z</time>
      </trkpt>
      <trkpt lat="47.25617" lon="-2.01397">
        <ele>-0.8</ele>
        <time>2020-05-23T11:33:32Z</time>
      </trkpt>
      <trkpt lat="47.2563" lon="-2.01382">
        <ele>-2.51</ele>
        <time>2020-05-23T11:33:34Z</time>
      </trkpt>
      <trkpt lat="47.25642" lon="-2.0137">
        <ele>-3.83</ele>
        <time>2020-05-23T11:33:36Z</time>
      </trkpt>
      <trkpt lat="47.25657" lon="-2.01365">
        <ele>-3.39</ele>
        <time>2020-05-23T11:33:38Z</time>
      </trkpt>
      <trkpt lat="47.2567" lon="-2.01354">
        <ele>-1.74</ele>
        <time>2020-05-23T11:33:40Z</time>
      </trkpt>
      <trkpt lat="47.25684" lon="-2.01344">
        <ele>-0.89</ele>
        <time>2020-05-23T11:33:42Z</time>
      </trkpt>
      <trkpt lat="47.25698" lon="-2.01335">
        <ele>-0.43</ele>
        <time>2020-05-23T11:33:44Z</time>
      </trkpt>
      <trkpt lat="47.2571" lon="-2.01326">
        <ele>-0.14</ele>
        <time>2020-05-23T11:33:46Z</time>
      </trkpt>
      <trkpt lat="47.25723" lon="-2.01317">
        <ele>-0.36</ele>
        <time>2020-05-23T11:33:48Z</time>
      </trkpt>
      <trkpt lat="47.25735" lon="-2.01309">
        <ele>-0.79</ele>
        <time>2020-05-23T11:33:50Z</time>
      </trkpt>
      <trkpt lat="47.25747" lon="-2.01301">
        <ele>-1.33</ele>
        <time>2020-05-23T11:33:52Z</time>
      </trkpt>
      <trkpt lat="47.25759" lon="-2.01293">
        <ele>-1.83</ele>
        <time>2020-05-23T11:33:54Z</time>
      </trkpt>
      <trkpt lat="47.2577" lon="-2.01284">
        <ele>-2.48</ele>
        <time>2020-05-23T11:33:56Z</time>
      </trkpt>
      <trkpt lat="47.2578" lon="-2.01277">
        <ele>-3.06</ele>
        <time>2020-05-23T11:33:58Z</time>
      </trkpt>
      <trkpt lat="47.25791" lon="-2.01269">
        <ele>-2.58</ele>
        <time>2020-05-23T11:34:00Z</time>
      </trkpt>
      <trkpt lat="47.25803" lon="-2.0126">
        <ele>-2.12</ele>
        <time>2020-05-23T11:34:02Z</time>
      </trkpt>
      <trkpt lat="47.25814" lon="-2.01251">
        <ele>-0.79</ele>
        <time>2020-05-23T11:34:04Z</time>
      </trkpt>
      <trkpt lat="47.25825" lon="-2.01243">
        <ele>-0.92</ele>
        <time>2020-05-23T11:34:06Z</time>
      </trkpt>
      <trkpt lat="47.25836" lon="-2.01236">
        <ele>-1.85</ele>
        <time>2020-05-23T11:34:08Z</time>
      </trkpt>
      <trkpt lat="47.25847" lon="-2.01228">
        <ele>-2.46</ele>
        <time>2020-05-23T11:34:10Z</time>
      </trkpt>
      <trkpt lat="47.25855" lon="-2.01221">
        <ele>-1.67</ele>
        <time>2020-05-23T11:34:12Z</time>
      </trkpt>
      <trkpt lat="47.25865" lon="-2.01214">
        <ele>-0.92</ele>
        <time>2020-05-23T11:34:14Z</time>
      </trkpt>
      <trkpt lat="47.25875" lon="-2.01207">
        <ele>-0.24</ele>
        <time>2020-05-23T11:34:16Z</time>
      </trkpt>
      <trkpt lat="47.25885" lon="-2.01199">
        <ele>-0.47</ele>
        <time>2020-05-23T11:34:18Z</time>
      </trkpt>
      <trkpt lat="47.25896" lon="-2.01191">
        <ele>-1.76</ele>
        <time>2020-05-23T11:34:20Z</time>
      </trkpt>
      <trkpt lat="47.25906" lon="-2.01185">
        <ele>-1.88</ele>
        <time>2020-05-23T11:34:22Z</time>
      </trkpt>
      <trkpt lat="47.25915" lon="-2.01178">
        <ele>-1.99</ele>
        <time>2020-05-23T11:34:24Z</time>
      </trkpt>
      <trkpt lat="47.25925" lon="-2.0117">
        <ele>-2.37</ele>
        <time>2020-05-23T11:34:26Z</time>
      </trkpt>
      <trkpt lat="47.25935" lon="-2.01161">
        <ele>-2.38</ele>
        <time>2020-05-23T11:34:28Z</time>
      </trkpt>
      <trkpt lat="47.25943" lon="-2.01151">
        <ele>-3.06</ele>
        <time>2020-05-23T11:34:30Z</time>
      </trkpt>
      <trkpt lat="47.25952" lon="-2.01141">
        <ele>-3.17</ele>
        <time>2020-05-23T11:34:32Z</time>
      </trkpt>
      <trkpt lat="47.2596" lon="-2.01128">
        <ele>-3.14</ele>
        <time>2020-05-23T11:34:34Z</time>
      </trkpt>
      <trkpt lat="47.25969" lon="-2.01115">
        <ele>-3.14</ele>
        <time>2020-05-23T11:34:36Z</time>
      </trkpt>
      <trkpt lat="47.25977" lon="-2.01102">
        <ele>-2.42</ele>
        <time>2020-05-23T11:34:38Z</time>
      </trkpt>
      <trkpt lat="47.25986" lon="-2.01087">
        <ele>-1.81</ele>
        <time>2020-05-23T11:34:40Z</time>
      </trkpt>
      <trkpt lat="47.25995" lon="-2.01072">
        <ele>-1.79</ele>
        <time>2020-05-23T11:34:42Z</time>
      </trkpt>
      <trkpt lat="47.26004" lon="-2.01056">
        <ele>-1.47</ele>
        <time>2020-05-23T11:34:44Z</time>
      </trkpt>
      <trkpt lat="47.26013" lon="-2.01041">
        <ele>-1.15</ele>
        <time>2020-05-23T11:34:46Z</time>
      </trkpt>
      <trkpt lat="47.26023" lon="-2.01025">
        <ele>-0.7</ele>
        <time>2020-05-23T11:34:48Z</time>
      </trkpt>
      <trkpt lat="47.26032" lon="-2.01011">
        <ele>-0.72</ele>
        <time>2020-05-23T11:34:50Z</time>
      </trkpt>
      <trkpt lat="47.26041" lon="-2.00999">
        <ele>-0.41</ele>
        <time>2020-05-23T11:34:52Z</time>
      </trkpt>
      <trkpt lat="47.2605" lon="-2.00985">
        <ele>-0.07</ele>
        <time>2020-05-23T11:34:54Z</time>
      </trkpt>
      <trkpt lat="47.26057" lon="-2.00973">
        <ele>-0.42</ele>
        <time>2020-05-23T11:34:56Z</time>
      </trkpt>
      <trkpt lat="47.26067" lon="-2.00959">
        <ele>-1.06</ele>
        <time>2020-05-23T11:34:58Z</time>
      </trkpt>
      <trkpt lat="47.26076" lon="-2.00946">
        <ele>-1.35</ele>
        <time>2020-05-23T11:35:00Z</time>
      </trkpt>
      <trkpt lat="47.26085" lon="-2.00933">
        <ele>-2.25</ele>
        <time>2020-05-23T11:35:02Z</time>
      </trkpt>
      <trkpt lat="47.26094" lon="-2.00919">
        <ele>-2.72</ele>
        <time>2020-05-23T11:35:04Z</time>
      </trkpt>
      <trkpt lat="47.26105" lon="-2.00903">
        <ele>-2.58</ele>
        <time>2020-05-23T11:35:06Z</time>
      </trkpt>
      <trkpt lat="47.26114" lon="-2.00889">
        <ele>-0.98</ele>
        <time>2020-05-23T11:35:08Z</time>
      </trkpt>
      <trkpt lat="47.26125" lon="-2.00876">
        <ele>0.68</ele>
        <time>2020-05-23T11:35:10Z</time>
      </trkpt>
      <trkpt lat="47.26136" lon="-2.00864">
        <ele>2.59</ele>
        <time>2020-05-23T11:35:12Z</time>
      </trkpt>
      <trkpt lat="47.26147" lon="-2.00854">
        <ele>4.24</ele>
        <time>2020-05-23T11:35:14Z</time>
      </trkpt>
      <trkpt lat="47.26159" lon="-2.00845">
        <ele>5.2</ele>
        <time>2020-05-23T11:35:16Z</time>
      </trkpt>
      <trkpt lat="47.26169" lon="-2.00839">
        <ele>4.95</ele>
        <time>2020-05-23T11:35:18Z</time>
      </trkpt>
      <trkpt lat="47.26181" lon="-2.0083">
        <ele>4.26</ele>
        <time>2020-05-23T11:35:20Z</time>
      </trkpt>
      <trkpt lat="47.26193" lon="-2.00822">
        <ele>3.53</ele>
        <time>2020-05-23T11:35:22Z</time>
      </trkpt>
      <trkpt lat="47.26204" lon="-2.00814">
        <ele>3.28</ele>
        <time>2020-05-23T11:35:24Z</time>
      </trkpt>
      <trkpt lat="47.26218" lon="-2.00805">
        <ele>2.83</ele>
        <time>2020-05-23T11:35:26Z</time>
      </trkpt>
      <trkpt lat="47.2623" lon="-2.00797">
        <ele>1.98</ele>
        <time>2020-05-23T11:35:28Z</time>
      </trkpt>
      <trkpt lat="47.26243" lon="-2.00788">
        <ele>0.93</ele>
        <time>2020-05-23T11:35:30Z</time>
      </trkpt>
      <trkpt lat="47.26256" lon="-2.00779">
        <ele>-0.61</ele>
        <time>2020-05-23T11:35:32Z</time>
      </trkpt>
      <trkpt lat="47.26268" lon="-2.0077">
        <ele>-1.63</ele>
        <time>2020-05-23T11:35:34Z</time>
      </trkpt>
      <trkpt lat="47.2628" lon="-2.0076">
        <ele>-1.83</ele>
        <time>2020-05-23T11:35:36Z</time>
      </trkpt>
      <trkpt lat="47.26294" lon="-2.00751">
        <ele>-2.35</ele>
        <time>2020-05-23T11:35:38Z</time>
      </trkpt>
      <trkpt lat="47.26308" lon="-2.00742">
        <ele>-2.8</ele>
        <time>2020-05-23T11:35:40Z</time>
      </trkpt>
      <trkpt lat="47.26322" lon="-2.00733">
        <ele>-3.61</ele>
        <time>2020-05-23T11:35:42Z</time>
      </trkpt>
      <trkpt lat="47.26337" lon="-2.00724">
        <ele>-4.76</ele>
        <time>2020-05-23T11:35:44Z</time>
      </trkpt>
      <trkpt lat="47.26351" lon="-2.00718">
        <ele>-5.62</ele>
        <time>2020-05-23T11:35:46Z</time>
      </trkpt>
      <trkpt lat="47.26366" lon="-2.00715">
        <ele>-5.84</ele>
        <time>2020-05-23T11:35:48Z</time>
      </trkpt>
      <trkpt lat="47.26381" lon="-2.00714">
        <ele>-4.76</ele>
        <time>2020-05-23T11:35:50Z</time>
      </trkpt>
      <trkpt lat="47.26396" lon="-2.00715">
        <ele>-3.24</ele>
        <time>2020-05-23T11:35:52Z</time>
      </trkpt>
      <trkpt lat="47.26412" lon="-2.00717">
        <ele>-2.38</ele>
        <time>2020-05-23T11:35:54Z</time>
      </trkpt>
      <trkpt lat="47.26423" lon="-2.0071">
        <ele>-1.44</ele>
        <time>2020-05-23T11:35:56Z</time>
      </trkpt>
      <trkpt lat="47.26427" lon="-2.00695">
        <ele>-2.06</ele>
        <time>2020-05-23T11:35:58Z</time>
      </trkpt>
      <trkpt lat="47.26429" lon="-2.00674">
        <ele>-2.52</ele>
        <time>2020-05-23T11:36:00Z</time>
      </trkpt>
      <trkpt lat="47.26431" lon="-2.00653">
        <ele>-3.58</ele>
        <time>2020-05-23T11:36:02Z</time>
      </trkpt>
      <trkpt lat="47.26433" lon="-2.0063">
        <ele>-4.85</ele>
        <time>2020-05-23T11:36:04Z</time>
      </trkpt>
      <trkpt lat="47.26435" lon="-2.00609">
        <ele>-5.28</ele>
        <time>2020-05-23T11:36:06Z</time>
      </trkpt>
      <trkpt lat="47.26436" lon="-2.0059">
        <ele>-5.64</ele>
        <time>2020-05-23T11:36:08Z</time>
      </trkpt>
      <trkpt lat="47.26438" lon="-2.00569">
        <ele>-4.63</ele>
        <time>2020-05-23T11:36:10Z</time>
      </trkpt>
      <trkpt lat="47.26441" lon="-2.00548">
        <ele>-4</ele>
        <time>2020-05-23T11:36:12Z</time>
      </trkpt>
      <trkpt lat="47.26443" lon="-2.00529">
        <ele>-3.93</ele>
        <time>2020-05-23T11:36:14Z</time>
      </trkpt>
      <trkpt lat="47.26446" lon="-2.00506">
        <ele>-3.41</ele>
        <time>2020-05-23T11:36:16Z</time>
      </trkpt>
      <trkpt lat="47.26447" lon="-2.00484">
        <ele>-2.62</ele>
        <time>2020-05-23T11:36:18Z</time>
      </trkpt>
      <trkpt lat="47.26447" lon="-2.0046">
        <ele>-1.56</ele>
        <time>2020-05-23T11:36:20Z</time>
      </trkpt>
      <trkpt lat="47.26447" lon="-2.00438">
        <ele>-0.41</ele>
        <time>2020-05-23T11:36:22Z</time>
      </trkpt>
      <trkpt lat="47.26446" lon="-2.00416">
        <ele>-0.01</ele>
        <time>2020-05-23T11:36:24Z</time>
      </trkpt>
      <trkpt lat="47.26445" lon="-2.00396">
        <ele>0.48</ele>
        <time>2020-05-23T11:36:26Z</time>
      </trkpt>
      <trkpt lat="47.26444" lon="-2.00376">
        <ele>2.36</ele>
        <time>2020-05-23T11:36:28Z</time>
      </trkpt>
      <trkpt lat="47.26443" lon="-2.00354">
        <ele>3.62</ele>
        <time>2020-05-23T11:36:30Z</time>
      </trkpt>
      <trkpt lat="47.26442" lon="-2.00334">
        <ele>3.47</ele>
        <time>2020-05-23T11:36:32Z</time>
      </trkpt>
      <trkpt lat="47.26442" lon="-2.00316">
        <ele>4.8</ele>
        <time>2020-05-23T11:36:34Z</time>
      </trkpt>
      <trkpt lat="47.26441" lon="-2.00297">
        <ele>6.37</ele>
        <time>2020-05-23T11:36:36Z</time>
      </trkpt>
      <trkpt lat="47.26441" lon="-2.00279">
        <ele>7.22</ele>
        <time>2020-05-23T11:36:38Z</time>
      </trkpt>
      <trkpt lat="47.2644" lon="-2.00261">
        <ele>7.89</ele>
        <time>2020-05-23T11:36:40Z</time>
      </trkpt>
      <trkpt lat="47.2644" lon="-2.00244">
        <ele>8.29</ele>
        <time>2020-05-23T11:36:42Z</time>
      </trkpt>
      <trkpt lat="47.2644" lon="-2.00226">
        <ele>9.99</ele>
        <time>2020-05-23T11:36:44Z</time>
      </trkpt>
      <trkpt lat="47.2644" lon="-2.00209">
        <ele>10.43</ele>
        <time>2020-05-23T11:36:46Z</time>
      </trkpt>
      <trkpt lat="47.26441" lon="-2.00192">
        <ele>10.45</ele>
        <time>2020-05-23T11:36:48Z</time>
      </trkpt>
      <trkpt lat="47.26442" lon="-2.00174">
        <ele>9.06</ele>
        <time>2020-05-23T11:36:50Z</time>
      </trkpt>
      <trkpt lat="47.26443" lon="-2.00159">
        <ele>8.51</ele>
        <time>2020-05-23T11:36:52Z</time>
      </trkpt>
      <trkpt lat="47.26444" lon="-2.00141">
        <ele>8.77</ele>
        <time>2020-05-23T11:36:54Z</time>
      </trkpt>
      <trkpt lat="47.26444" lon="-2.00121">
        <ele>9.06</ele>
        <time>2020-05-23T11:36:56Z</time>
      </trkpt>
      <trkpt lat="47.26444" lon="-2.00106">
        <ele>9.03</ele>
        <time>2020-05-23T11:36:58Z</time>
      </trkpt>
      <trkpt lat="47.26444" lon="-2.00088">
        <ele>8.92</ele>
        <time>2020-05-23T11:37:00Z</time>
      </trkpt>
      <trkpt lat="47.26444" lon="-2.0007">
        <ele>8.79</ele>
        <time>2020-05-23T11:37:02Z</time>
      </trkpt>
      <trkpt lat="47.26445" lon="-2.00053">
        <ele>9.4</ele>
        <time>2020-05-23T11:37:04Z</time>
      </trkpt>
      <trkpt lat="47.26445" lon="-2.00036">
        <ele>10.36</ele>
        <time>2020-05-23T11:37:06Z</time>
      </trkpt>
      <trkpt lat="47.26445" lon="-2.00017">
        <ele>11.22</ele>
        <time>2020-05-23T11:37:08Z</time>
      </trkpt>
      <trkpt lat="47.26446" lon="-1.99999">
        <ele>11.37</ele>
        <time>2020-05-23T11:37:10Z</time>
      </trkpt>
      <trkpt lat="47.26447" lon="-1.99981">
        <ele>12.07</ele>
        <time>2020-05-23T11:37:12Z</time>
      </trkpt>
      <trkpt lat="47.26447" lon="-1.99965">
        <ele>13.8</ele>
        <time>2020-05-23T11:37:14Z</time>
      </trkpt>
      <trkpt lat="47.26447" lon="-1.99947">
        <ele>14.9</ele>
        <time>2020-05-23T11:37:16Z</time>
      </trkpt>
      <trkpt lat="47.26447" lon="-1.9993">
        <ele>16.55</ele>
        <time>2020-05-23T11:37:18Z</time>
      </trkpt>
      <trkpt lat="47.26448" lon="-1.9991">
        <ele>17.05</ele>
        <time>2020-05-23T11:37:20Z</time>
      </trkpt>
      <trkpt lat="47.26448" lon="-1.99893">
        <ele>17.58</ele>
        <time>2020-05-23T11:37:22Z</time>
      </trkpt>
      <trkpt lat="47.26447" lon="-1.99875">
        <ele>18.03</ele>
        <time>2020-05-23T11:37:24Z</time>
      </trkpt>
      <trkpt lat="47.26448" lon="-1.99855">
        <ele>17.91</ele>
        <time>2020-05-23T11:37:26Z</time>
      </trkpt>
      <trkpt lat="47.26448" lon="-1.99836">
        <ele>17.76</ele>
        <time>2020-05-23T11:37:28Z</time>
      </trkpt>
      <trkpt lat="47.26448" lon="-1.99817">
        <ele>17.89</ele>
        <time>2020-05-23T11:37:30Z</time>
      </trkpt>
      <trkpt lat="47.26449" lon="-1.99798">
        <ele>17.97</ele>
        <time>2020-05-23T11:37:32Z</time>
      </trkpt>
      <trkpt lat="47.2645" lon="-1.99779">
        <ele>16.64</ele>
        <time>2020-05-23T11:37:34Z</time>
      </trkpt>
      <trkpt lat="47.26451" lon="-1.99762">
        <ele>15.76</ele>
        <time>2020-05-23T11:37:36Z</time>
      </trkpt>
      <trkpt lat="47.26451" lon="-1.99746">
        <ele>14.54</ele>
        <time>2020-05-23T11:37:38Z</time>
      </trkpt>
      <trkpt lat="47.26449" lon="-1.99727">
        <ele>14.03</ele>
        <time>2020-05-23T11:37:40Z</time>
      </trkpt>
      <trkpt lat="47.26447" lon="-1.99708">
        <ele>14.75</ele>
        <time>2020-05-23T11:37:42Z</time>
      </trkpt>
      <trkpt lat="47.26454" lon="-1.99692">
        <ele>15.43</ele>
        <time>2020-05-23T11:37:44Z</time>
      </trkpt>
      <trkpt lat="47.2646" lon="-1.99677">
        <ele>14.84</ele>
        <time>2020-05-23T11:37:46Z</time>
      </trkpt>
      <trkpt lat="47.26466" lon="-1.99659">
        <ele>13.93</ele>
        <time>2020-05-23T11:37:48Z</time>
      </trkpt>
      <trkpt lat="47.26472" lon="-1.99641">
        <ele>14.08</ele>
        <time>2020-05-23T11:37:50Z</time>
      </trkpt>
      <trkpt lat="47.26478" lon="-1.99621">
        <ele>14.6</ele>
        <time>2020-05-23T11:37:52Z</time>
      </trkpt>
      <trkpt lat="47.26484" lon="-1.99601">
        <ele>14.74</ele>
        <time>2020-05-23T11:37:54Z</time>
      </trkpt>
      <trkpt lat="47.26489" lon="-1.9958">
        <ele>15.02</ele>
        <time>2020-05-23T11:37:56Z</time>
      </trkpt>
      <trkpt lat="47.26493" lon="-1.99561">
        <ele>14.82</ele>
        <time>2020-05-23T11:37:58Z</time>
      </trkpt>
      <trkpt lat="47.26496" lon="-1.99542">
        <ele>14.47</ele>
        <time>2020-05-23T11:38:00Z</time>
      </trkpt>
      <trkpt lat="47.265" lon="-1.99521">
        <ele>14.92</ele>
        <time>2020-05-23T11:38:02Z</time>
      </trkpt>
      <trkpt lat="47.26504" lon="-1.99498">
        <ele>14.68</ele>
        <time>2020-05-23T11:38:04Z</time>
      </trkpt>
      <trkpt lat="47.26507" lon="-1.99477">
        <ele>13.84</ele>
        <time>2020-05-23T11:38:06Z</time>
      </trkpt>
      <trkpt lat="47.2651" lon="-1.99457">
        <ele>12.81</ele>
        <time>2020-05-23T11:38:08Z</time>
      </trkpt>
      <trkpt lat="47.26514" lon="-1.99436">
        <ele>12.92</ele>
        <time>2020-05-23T11:38:10Z</time>
      </trkpt>
      <trkpt lat="47.26517" lon="-1.9942">
        <ele>13.73</ele>
        <time>2020-05-23T11:38:12Z</time>
      </trkpt>
      <trkpt lat="47.26522" lon="-1.994">
        <ele>14.33</ele>
        <time>2020-05-23T11:38:14Z</time>
      </trkpt>
      <trkpt lat="47.26526" lon="-1.9938">
        <ele>14.94</ele>
        <time>2020-05-23T11:38:17Z</time>
      </trkpt>
      <trkpt lat="47.26531" lon="-1.99362">
        <ele>15.22</ele>
        <time>2020-05-23T11:38:19Z</time>
      </trkpt>
      <trkpt lat="47.26537" lon="-1.99345">
        <ele>15.58</ele>
        <time>2020-05-23T11:38:21Z</time>
      </trkpt>
      <trkpt lat="47.26544" lon="-1.99328">
        <ele>15.72</ele>
        <time>2020-05-23T11:38:23Z</time>
      </trkpt>
      <trkpt lat="47.26552" lon="-1.99308">
        <ele>14.97</ele>
        <time>2020-05-23T11:38:25Z</time>
      </trkpt>
      <trkpt lat="47.26558" lon="-1.9929">
        <ele>14.59</ele>
        <time>2020-05-23T11:38:27Z</time>
      </trkpt>
      <trkpt lat="47.26564" lon="-1.99271">
        <ele>14.04</ele>
        <time>2020-05-23T11:38:29Z</time>
      </trkpt>
      <trkpt lat="47.26567" lon="-1.99252">
        <ele>13.35</ele>
        <time>2020-05-23T11:38:31Z</time>
      </trkpt>
      <trkpt lat="47.2657" lon="-1.99233">
        <ele>12.87</ele>
        <time>2020-05-23T11:38:33Z</time>
      </trkpt>
      <trkpt lat="47.26571" lon="-1.99212">
        <ele>12.36</ele>
        <time>2020-05-23T11:38:35Z</time>
      </trkpt>
      <trkpt lat="47.26572" lon="-1.9919">
        <ele>12.02</ele>
        <time>2020-05-23T11:38:37Z</time>
      </trkpt>
      <trkpt lat="47.26572" lon="-1.99169">
        <ele>12.52</ele>
        <time>2020-05-23T11:38:39Z</time>
      </trkpt>
      <trkpt lat="47.26572" lon="-1.99147">
        <ele>12.32</ele>
        <time>2020-05-23T11:38:41Z</time>
      </trkpt>
      <trkpt lat="47.26571" lon="-1.99126">
        <ele>11.81</ele>
        <time>2020-05-23T11:38:43Z</time>
      </trkpt>
      <trkpt lat="47.2657" lon="-1.99105">
        <ele>11.93</ele>
        <time>2020-05-23T11:38:45Z</time>
      </trkpt>
      <trkpt lat="47.26571" lon="-1.99084">
        <ele>12.14</ele>
        <time>2020-05-23T11:38:47Z</time>
      </trkpt>
      <trkpt lat="47.26574" lon="-1.99061">
        <ele>11.91</ele>
        <time>2020-05-23T11:38:49Z</time>
      </trkpt>
      <trkpt lat="47.26579" lon="-1.99041">
        <ele>11.87</ele>
        <time>2020-05-23T11:38:51Z</time>
      </trkpt>
      <trkpt lat="47.26588" lon="-1.99024">
        <ele>11.92</ele>
        <time>2020-05-23T11:38:53Z</time>
      </trkpt>
      <trkpt lat="47.26596" lon="-1.99009">
        <ele>12.57</ele>
        <time>2020-05-23T11:38:55Z</time>
      </trkpt>
      <trkpt lat="47.26606" lon="-1.98995">
        <ele>12.53</ele>
        <time>2020-05-23T11:38:57Z</time>
      </trkpt>
      <trkpt lat="47.26616" lon="-1.98979">
        <ele>12.38</ele>
        <time>2020-05-23T11:38:59Z</time>
      </trkpt>
      <trkpt lat="47.26625" lon="-1.98965">
        <ele>11.99</ele>
        <time>2020-05-23T11:39:01Z</time>
      </trkpt>
      <trkpt lat="47.26631" lon="-1.98951">
        <ele>12.46</ele>
        <time>2020-05-23T11:39:03Z</time>
      </trkpt>
      <trkpt lat="47.26636" lon="-1.98933">
        <ele>14.73</ele>
        <time>2020-05-23T11:39:05Z</time>
      </trkpt>
      <trkpt lat="47.26638" lon="-1.98914">
        <ele>16.1</ele>
        <time>2020-05-23T11:39:07Z</time>
      </trkpt>
      <trkpt lat="47.26636" lon="-1.98894">
        <ele>16.6</ele>
        <time>2020-05-23T11:39:09Z</time>
      </trkpt>
      <trkpt lat="47.26635" lon="-1.98875">
        <ele>16.14</ele>
        <time>2020-05-23T11:39:11Z</time>
      </trkpt>
      <trkpt lat="47.26634" lon="-1.98855">
        <ele>16.11</ele>
        <time>2020-05-23T11:39:13Z</time>
      </trkpt>
      <trkpt lat="47.26633" lon="-1.98835">
        <ele>16.86</ele>
        <time>2020-05-23T11:39:15Z</time>
      </trkpt>
      <trkpt lat="47.26632" lon="-1.98815">
        <ele>16.4</ele>
        <time>2020-05-23T11:39:17Z</time>
      </trkpt>
      <trkpt lat="47.26632" lon="-1.98793">
        <ele>15.19</ele>
        <time>2020-05-23T11:39:19Z</time>
      </trkpt>
      <trkpt lat="47.26635" lon="-1.98775">
        <ele>14.99</ele>
        <time>2020-05-23T11:39:21Z</time>
      </trkpt>
      <trkpt lat="47.26641" lon="-1.98758">
        <ele>14.72</ele>
        <time>2020-05-23T11:39:23Z</time>
      </trkpt>
      <trkpt lat="47.2665" lon="-1.9874">
        <ele>14.82</ele>
        <time>2020-05-23T11:39:25Z</time>
      </trkpt>
      <trkpt lat="47.26658" lon="-1.98726">
        <ele>14.48</ele>
        <time>2020-05-23T11:39:27Z</time>
      </trkpt>
      <trkpt lat="47.26667" lon="-1.98712">
        <ele>13.6</ele>
        <time>2020-05-23T11:39:29Z</time>
      </trkpt>
      <trkpt lat="47.26676" lon="-1.98699">
        <ele>13.01</ele>
        <time>2020-05-23T11:39:31Z</time>
      </trkpt>
      <trkpt lat="47.26685" lon="-1.98686">
        <ele>13.04</ele>
        <time>2020-05-23T11:39:33Z</time>
      </trkpt>
      <trkpt lat="47.26695" lon="-1.98672">
        <ele>12.64</ele>
        <time>2020-05-23T11:39:35Z</time>
      </trkpt>
      <trkpt lat="47.26704" lon="-1.98658">
        <ele>12.2</ele>
        <time>2020-05-23T11:39:37Z</time>
      </trkpt>
      <trkpt lat="47.26714" lon="-1.98645">
        <ele>12.15</ele>
        <time>2020-05-23T11:39:39Z</time>
      </trkpt>
      <trkpt lat="47.26722" lon="-1.98632">
        <ele>12.56</ele>
        <time>2020-05-23T11:39:41Z</time>
      </trkpt>
      <trkpt lat="47.2673" lon="-1.9862">
        <ele>12.52</ele>
        <time>2020-05-23T11:39:43Z</time>
      </trkpt>
      <trkpt lat="47.26738" lon="-1.98609">
        <ele>11.65</ele>
        <time>2020-05-23T11:39:45Z</time>
      </trkpt>
      <trkpt lat="47.26746" lon="-1.98597">
        <ele>11.85</ele>
        <time>2020-05-23T11:39:48Z</time>
      </trkpt>
      <trkpt lat="47.26754" lon="-1.98584">
        <ele>11.5</ele>
        <time>2020-05-23T11:39:50Z</time>
      </trkpt>
      <trkpt lat="47.26764" lon="-1.98571">
        <ele>10.55</ele>
        <time>2020-05-23T11:39:52Z</time>
      </trkpt>
      <trkpt lat="47.26774" lon="-1.98556">
        <ele>9.14</ele>
        <time>2020-05-23T11:39:54Z</time>
      </trkpt>
      <trkpt lat="47.26784" lon="-1.98539">
        <ele>7.48</ele>
        <time>2020-05-23T11:39:56Z</time>
      </trkpt>
      <trkpt lat="47.26796" lon="-1.98521">
        <ele>5.64</ele>
        <time>2020-05-23T11:39:58Z</time>
      </trkpt>
      <trkpt lat="47.26806" lon="-1.98505">
        <ele>4.54</ele>
        <time>2020-05-23T11:40:00Z</time>
      </trkpt>
      <trkpt lat="47.26818" lon="-1.98488">
        <ele>4.12</ele>
        <time>2020-05-23T11:40:02Z</time>
      </trkpt>
      <trkpt lat="47.26829" lon="-1.98472">
        <ele>4.68</ele>
        <time>2020-05-23T11:40:04Z</time>
      </trkpt>
      <trkpt lat="47.26839" lon="-1.98456">
        <ele>4.4</ele>
        <time>2020-05-23T11:40:06Z</time>
      </trkpt>
      <trkpt lat="47.26849" lon="-1.9844">
        <ele>3.85</ele>
        <time>2020-05-23T11:40:08Z</time>
      </trkpt>
      <trkpt lat="47.26861" lon="-1.98425">
        <ele>3.22</ele>
        <time>2020-05-23T11:40:10Z</time>
      </trkpt>
      <trkpt lat="47.26872" lon="-1.98409">
        <ele>3.32</ele>
        <time>2020-05-23T11:40:12Z</time>
      </trkpt>
      <trkpt lat="47.26884" lon="-1.98394">
        <ele>3.12</ele>
        <time>2020-05-23T11:40:14Z</time>
      </trkpt>
      <trkpt lat="47.26896" lon="-1.98379">
        <ele>1.98</ele>
        <time>2020-05-23T11:40:16Z</time>
      </trkpt>
      <trkpt lat="47.26907" lon="-1.98364">
        <ele>0.44</ele>
        <time>2020-05-23T11:40:18Z</time>
      </trkpt>
      <trkpt lat="47.26918" lon="-1.9835">
        <ele>-0.66</ele>
        <time>2020-05-23T11:40:20Z</time>
      </trkpt>
      <trkpt lat="47.26929" lon="-1.98336">
        <ele>-1.25</ele>
        <time>2020-05-23T11:40:22Z</time>
      </trkpt>
      <trkpt lat="47.2694" lon="-1.98321">
        <ele>-1.67</ele>
        <time>2020-05-23T11:40:24Z</time>
      </trkpt>
      <trkpt lat="47.26951" lon="-1.98305">
        <ele>-1.33</ele>
        <time>2020-05-23T11:40:26Z</time>
      </trkpt>
      <trkpt lat="47.26962" lon="-1.98292">
        <ele>-0.28</ele>
        <time>2020-05-23T11:40:28Z</time>
      </trkpt>
      <trkpt lat="47.26974" lon="-1.98276">
        <ele>1</ele>
        <time>2020-05-23T11:40:30Z</time>
      </trkpt>
      <trkpt lat="47.26986" lon="-1.98259">
        <ele>2.48</ele>
        <time>2020-05-23T11:40:32Z</time>
      </trkpt>
      <trkpt lat="47.26998" lon="-1.98245">
        <ele>4.38</ele>
        <time>2020-05-23T11:40:34Z</time>
      </trkpt>
      <trkpt lat="47.2701" lon="-1.9823">
        <ele>6.41</ele>
        <time>2020-05-23T11:40:36Z</time>
      </trkpt>
      <trkpt lat="47.27023" lon="-1.98217">
        <ele>7.49</ele>
        <time>2020-05-23T11:40:38Z</time>
      </trkpt>
      <trkpt lat="47.27035" lon="-1.98205">
        <ele>7.77</ele>
        <time>2020-05-23T11:40:40Z</time>
      </trkpt>
      <trkpt lat="47.27048" lon="-1.98195">
        <ele>8.6</ele>
        <time>2020-05-23T11:40:42Z</time>
      </trkpt>
      <trkpt lat="47.27061" lon="-1.98185">
        <ele>8.28</ele>
        <time>2020-05-23T11:40:44Z</time>
      </trkpt>
      <trkpt lat="47.27074" lon="-1.98176">
        <ele>7.64</ele>
        <time>2020-05-23T11:40:46Z</time>
      </trkpt>
      <trkpt lat="47.27088" lon="-1.98168">
        <ele>6.41</ele>
        <time>2020-05-23T11:40:48Z</time>
      </trkpt>
      <trkpt lat="47.27102" lon="-1.98161">
        <ele>5.29</ele>
        <time>2020-05-23T11:40:50Z</time>
      </trkpt>
      <trkpt lat="47.27115" lon="-1.98155">
        <ele>4.08</ele>
        <time>2020-05-23T11:40:52Z</time>
      </trkpt>
      <trkpt lat="47.27129" lon="-1.98149">
        <ele>3.52</ele>
        <time>2020-05-23T11:40:54Z</time>
      </trkpt>
      <trkpt lat="47.27142" lon="-1.98144">
        <ele>3.35</ele>
        <time>2020-05-23T11:40:56Z</time>
      </trkpt>
      <trkpt lat="47.27154" lon="-1.9814">
        <ele>2.53</ele>
        <time>2020-05-23T11:40:58Z</time>
      </trkpt>
      <trkpt lat="47.27166" lon="-1.98138">
        <ele>2.22</ele>
        <time>2020-05-23T11:41:00Z</time>
      </trkpt>
      <trkpt lat="47.2718" lon="-1.98134">
        <ele>2.4</ele>
        <time>2020-05-23T11:41:02Z</time>
      </trkpt>
      <trkpt lat="47.27195" lon="-1.98132">
        <ele>3.08</ele>
        <time>2020-05-23T11:41:04Z</time>
      </trkpt>
      <trkpt lat="47.27209" lon="-1.98131">
        <ele>4.56</ele>
        <time>2020-05-23T11:41:06Z</time>
      </trkpt>
      <trkpt lat="47.27224" lon="-1.9813">
        <ele>6.11</ele>
        <time>2020-05-23T11:41:08Z</time>
      </trkpt>
      <trkpt lat="47.27238" lon="-1.9813">
        <ele>6.02</ele>
        <time>2020-05-23T11:41:10Z</time>
      </trkpt>
      <trkpt lat="47.27253" lon="-1.98132">
        <ele>5.98</ele>
        <time>2020-05-23T11:41:12Z</time>
      </trkpt>
      <trkpt lat="47.27268" lon="-1.98134">
        <ele>6.35</ele>
        <time>2020-05-23T11:41:14Z</time>
      </trkpt>
      <trkpt lat="47.27282" lon="-1.98137">
        <ele>6.42</ele>
        <time>2020-05-23T11:41:16Z</time>
      </trkpt>
      <trkpt lat="47.27297" lon="-1.98141">
        <ele>6.55</ele>
        <time>2020-05-23T11:41:18Z</time>
      </trkpt>
      <trkpt lat="47.2731" lon="-1.98147">
        <ele>5.36</ele>
        <time>2020-05-23T11:41:20Z</time>
      </trkpt>
      <trkpt lat="47.27324" lon="-1.98152">
        <ele>4.47</ele>
        <time>2020-05-23T11:41:22Z</time>
      </trkpt>
      <trkpt lat="47.27339" lon="-1.98159">
        <ele>3.99</ele>
        <time>2020-05-23T11:41:24Z</time>
      </trkpt>
      <trkpt lat="47.27354" lon="-1.98167">
        <ele>3.63</ele>
        <time>2020-05-23T11:41:26Z</time>
      </trkpt>
      <trkpt lat="47.2737" lon="-1.98173">
        <ele>3.41</ele>
        <time>2020-05-23T11:41:28Z</time>
      </trkpt>
      <trkpt lat="47.27385" lon="-1.98181">
        <ele>3.46</ele>
        <time>2020-05-23T11:41:30Z</time>
      </trkpt>
      <trkpt lat="47.27401" lon="-1.98187">
        <ele>2.79</ele>
        <time>2020-05-23T11:41:32Z</time>
      </trkpt>
      <trkpt lat="47.27418" lon="-1.98194">
        <ele>2.21</ele>
        <time>2020-05-23T11:41:34Z</time>
      </trkpt>
      <trkpt lat="47.27431" lon="-1.98199">
        <ele>1.25</ele>
        <time>2020-05-23T11:41:36Z</time>
      </trkpt>
      <trkpt lat="47.27444" lon="-1.98205">
        <ele>1.12</ele>
        <time>2020-05-23T11:41:38Z</time>
      </trkpt>
      <trkpt lat="47.2746" lon="-1.98211">
        <ele>1.2</ele>
        <time>2020-05-23T11:41:40Z</time>
      </trkpt>
      <trkpt lat="47.27476" lon="-1.98218">
        <ele>-0.2</ele>
        <time>2020-05-23T11:41:42Z</time>
      </trkpt>
      <trkpt lat="47.27489" lon="-1.98222">
        <ele>-1.93</ele>
        <time>2020-05-23T11:41:44Z</time>
      </trkpt>
      <trkpt lat="47.27502" lon="-1.98225">
        <ele>-4.4</ele>
        <time>2020-05-23T11:41:46Z</time>
      </trkpt>
      <trkpt lat="47.27518" lon="-1.98229">
        <ele>-5.73</ele>
        <time>2020-05-23T11:41:48Z</time>
      </trkpt>
      <trkpt lat="47.27528" lon="-1.98233">
        <ele>-6.63</ele>
        <time>2020-05-23T11:41:50Z</time>
      </trkpt>
      <trkpt lat="47.27515" lon="-1.98232">
        <ele>-6.91</ele>
        <time>2020-05-23T11:41:55Z</time>
      </trkpt>
      <trkpt lat="47.27505" lon="-1.9823">
        <ele>-7.75</ele>
        <time>2020-05-23T11:41:57Z</time>
      </trkpt>
      <trkpt lat="47.27491" lon="-1.98228">
        <ele>-6.11</ele>
        <time>2020-05-23T11:42:00Z</time>
      </trkpt>
      <trkpt lat="47.2748" lon="-1.98225">
        <ele>-4.75</ele>
        <time>2020-05-23T11:42:02Z</time>
      </trkpt>
      <trkpt lat="47.27468" lon="-1.98221">
        <ele>-4.12</ele>
        <time>2020-05-23T11:42:04Z</time>
      </trkpt>
      <trkpt lat="47.27457" lon="-1.98217">
        <ele>-4.11</ele>
        <time>2020-05-23T11:42:06Z</time>
      </trkpt>
      <trkpt lat="47.27445" lon="-1.98211">
        <ele>-3.17</ele>
        <time>2020-05-23T11:42:09Z</time>
      </trkpt>
      <trkpt lat="47.2744" lon="-1.98195">
        <ele>-3.05</ele>
        <time>2020-05-23T11:42:11Z</time>
      </trkpt>
      <trkpt lat="47.27441" lon="-1.98175">
        <ele>-3.08</ele>
        <time>2020-05-23T11:42:13Z</time>
      </trkpt>
      <trkpt lat="47.27443" lon="-1.98157">
        <ele>-2.95</ele>
        <time>2020-05-23T11:42:15Z</time>
      </trkpt>
      <trkpt lat="47.27444" lon="-1.98137">
        <ele>-1.73</ele>
        <time>2020-05-23T11:42:17Z</time>
      </trkpt>
      <trkpt lat="47.27445" lon="-1.9812">
        <ele>-0.56</ele>
        <time>2020-05-23T11:42:19Z</time>
      </trkpt>
      <trkpt lat="47.27446" lon="-1.981">
        <ele>-0.4</ele>
        <time>2020-05-23T11:42:21Z</time>
      </trkpt>
      <trkpt lat="47.27446" lon="-1.98083">
        <ele>-0.6</ele>
        <time>2020-05-23T11:42:23Z</time>
      </trkpt>
      <trkpt lat="47.27446" lon="-1.98063">
        <ele>-1.33</ele>
        <time>2020-05-23T11:42:25Z</time>
      </trkpt>
      <trkpt lat="47.27446" lon="-1.98046">
        <ele>-1.03</ele>
        <time>2020-05-23T11:42:27Z</time>
      </trkpt>
      <trkpt lat="47.27445" lon="-1.98028">
        <ele>-0.5</ele>
        <time>2020-05-23T11:42:29Z</time>
      </trkpt>
      <trkpt lat="47.27444" lon="-1.98011">
        <ele>-0.3</ele>
        <time>2020-05-23T11:42:31Z</time>
      </trkpt>
      <trkpt lat="47.27442" lon="-1.97992">
        <ele>0.23</ele>
        <time>2020-05-23T11:42:33Z</time>
      </trkpt>
      <trkpt lat="47.2744" lon="-1.97976">
        <ele>0.05</ele>
        <time>2020-05-23T11:42:35Z</time>
      </trkpt>
      <trkpt lat="47.27438" lon="-1.97957">
        <ele>-1.15</ele>
        <time>2020-05-23T11:42:37Z</time>
      </trkpt>
      <trkpt lat="47.27435" lon="-1.97939">
        <ele>-2.17</ele>
        <time>2020-05-23T11:42:39Z</time>
      </trkpt>
      <trkpt lat="47.27431" lon="-1.97922">
        <ele>-3.1</ele>
        <time>2020-05-23T11:42:41Z</time>
      </trkpt>
      <trkpt lat="47.27427" lon="-1.97902">
        <ele>-3.33</ele>
        <time>2020-05-23T11:42:43Z</time>
      </trkpt>
      <trkpt lat="47.27423" lon="-1.97885">
        <ele>-2.34</ele>
        <time>2020-05-23T11:42:45Z</time>
      </trkpt>
      <trkpt lat="47.27418" lon="-1.97866">
        <ele>-1.44</ele>
        <time>2020-05-23T11:42:47Z</time>
      </trkpt>
      <trkpt lat="47.27414" lon="-1.9785">
        <ele>-0.92</ele>
        <time>2020-05-23T11:42:49Z</time>
      </trkpt>
      <trkpt lat="47.27408" lon="-1.97832">
        <ele>-1.1</ele>
        <time>2020-05-23T11:42:51Z</time>
      </trkpt>
      <trkpt lat="47.27403" lon="-1.97814">
        <ele>-0.51</ele>
        <time>2020-05-23T11:42:53Z</time>
      </trkpt>
      <trkpt lat="47.27399" lon="-1.97797">
        <ele>0.38</ele>
        <time>2020-05-23T11:42:55Z</time>
      </trkpt>
      <trkpt lat="47.27391" lon="-1.97781">
        <ele>1.41</ele>
        <time>2020-05-23T11:42:57Z</time>
      </trkpt>
      <trkpt lat="47.2738" lon="-1.97772">
        <ele>2.04</ele>
        <time>2020-05-23T11:42:59Z</time>
      </trkpt>
      <trkpt lat="47.27367" lon="-1.97765">
        <ele>2.91</ele>
        <time>2020-05-23T11:43:01Z</time>
      </trkpt>
      <trkpt lat="47.27354" lon="-1.97759">
        <ele>3.25</ele>
        <time>2020-05-23T11:43:03Z</time>
      </trkpt>
      <trkpt lat="47.27342" lon="-1.97754">
        <ele>4.16</ele>
        <time>2020-05-23T11:43:05Z</time>
      </trkpt>
      <trkpt lat="47.2733" lon="-1.9775">
        <ele>5.43</ele>
        <time>2020-05-23T11:43:07Z</time>
      </trkpt>
      <trkpt lat="47.27321" lon="-1.97744">
        <ele>5.98</ele>
        <time>2020-05-23T11:43:09Z</time>
      </trkpt>
      <trkpt lat="47.27309" lon="-1.97733">
        <ele>5.6</ele>
        <time>2020-05-23T11:43:11Z</time>
      </trkpt>
      <trkpt lat="47.27302" lon="-1.97721">
        <ele>4.71</ele>
        <time>2020-05-23T11:43:13Z</time>
      </trkpt>
      <trkpt lat="47.27295" lon="-1.97708">
        <ele>4.18</ele>
        <time>2020-05-23T11:43:15Z</time>
      </trkpt>
      <trkpt lat="47.27291" lon="-1.97693">
        <ele>3.74</ele>
        <time>2020-05-23T11:43:17Z</time>
      </trkpt>
      <trkpt lat="47.2729" lon="-1.97676">
        <ele>3.78</ele>
        <time>2020-05-23T11:43:19Z</time>
      </trkpt>
      <trkpt lat="47.27289" lon="-1.97657">
        <ele>3.97</ele>
        <time>2020-05-23T11:43:21Z</time>
      </trkpt>
      <trkpt lat="47.27288" lon="-1.97635">
        <ele>4.29</ele>
        <time>2020-05-23T11:43:23Z</time>
      </trkpt>
      <trkpt lat="47.27286" lon="-1.97613">
        <ele>5.14</ele>
        <time>2020-05-23T11:43:25Z</time>
      </trkpt>
      <trkpt lat="47.27283" lon="-1.97592">
        <ele>5</ele>
        <time>2020-05-23T11:43:27Z</time>
      </trkpt>
      <trkpt lat="47.2728" lon="-1.97575">
        <ele>3.07</ele>
        <time>2020-05-23T11:43:29Z</time>
      </trkpt>
      <trkpt lat="47.27276" lon="-1.97552">
        <ele>0.37</ele>
        <time>2020-05-23T11:43:31Z</time>
      </trkpt>
      <trkpt lat="47.27273" lon="-1.97539">
        <ele>-0.38</ele>
        <time>2020-05-23T11:43:32Z</time>
      </trkpt>
      <trkpt lat="47.27269" lon="-1.97517">
        <ele>-0.91</ele>
        <time>2020-05-23T11:43:34Z</time>
      </trkpt>
      <trkpt lat="47.27263" lon="-1.97494">
        <ele>-0.76</ele>
        <time>2020-05-23T11:43:36Z</time>
      </trkpt>
      <trkpt lat="47.27257" lon="-1.97469">
        <ele>0.18</ele>
        <time>2020-05-23T11:43:38Z</time>
      </trkpt>
      <trkpt lat="47.27254" lon="-1.97457">
        <ele>0.21</ele>
        <time>2020-05-23T11:43:39Z</time>
      </trkpt>
      <trkpt lat="47.27248" lon="-1.97434">
        <ele>0.38</ele>
        <time>2020-05-23T11:43:41Z</time>
      </trkpt>
      <trkpt lat="47.27242" lon="-1.97409">
        <ele>-0.31</ele>
        <time>2020-05-23T11:43:43Z</time>
      </trkpt>
      <trkpt lat="47.27236" lon="-1.97388">
        <ele>-0.76</ele>
        <time>2020-05-23T11:43:45Z</time>
      </trkpt>
      <trkpt lat="47.27229" lon="-1.97369">
        <ele>-0.81</ele>
        <time>2020-05-23T11:43:47Z</time>
      </trkpt>
      <trkpt lat="47.2722" lon="-1.97351">
        <ele>-0.16</ele>
        <time>2020-05-23T11:43:49Z</time>
      </trkpt>
      <trkpt lat="47.27209" lon="-1.97334">
        <ele>0.54</ele>
        <time>2020-05-23T11:43:51Z</time>
      </trkpt>
      <trkpt lat="47.27199" lon="-1.97319">
        <ele>0.93</ele>
        <time>2020-05-23T11:43:53Z</time>
      </trkpt>
      <trkpt lat="47.2719" lon="-1.97305">
        <ele>1.41</ele>
        <time>2020-05-23T11:43:55Z</time>
      </trkpt>
      <trkpt lat="47.27181" lon="-1.97292">
        <ele>2.62</ele>
        <time>2020-05-23T11:43:57Z</time>
      </trkpt>
      <trkpt lat="47.27171" lon="-1.97278">
        <ele>4.36</ele>
        <time>2020-05-23T11:43:59Z</time>
      </trkpt>
      <trkpt lat="47.27162" lon="-1.97264">
        <ele>5.9</ele>
        <time>2020-05-23T11:44:01Z</time>
      </trkpt>
      <trkpt lat="47.27155" lon="-1.97253">
        <ele>6.31</ele>
        <time>2020-05-23T11:44:03Z</time>
      </trkpt>
      <trkpt lat="47.27147" lon="-1.9724">
        <ele>6.72</ele>
        <time>2020-05-23T11:44:05Z</time>
      </trkpt>
      <trkpt lat="47.27137" lon="-1.97227">
        <ele>6.04</ele>
        <time>2020-05-23T11:44:07Z</time>
      </trkpt>
      <trkpt lat="47.27127" lon="-1.97212">
        <ele>4.72</ele>
        <time>2020-05-23T11:44:09Z</time>
      </trkpt>
      <trkpt lat="47.27119" lon="-1.972">
        <ele>2.93</ele>
        <time>2020-05-23T11:44:11Z</time>
      </trkpt>
      <trkpt lat="47.27109" lon="-1.97185">
        <ele>1.39</ele>
        <time>2020-05-23T11:44:13Z</time>
      </trkpt>
      <trkpt lat="47.27101" lon="-1.97169">
        <ele>0.58</ele>
        <time>2020-05-23T11:44:15Z</time>
      </trkpt>
      <trkpt lat="47.27095" lon="-1.97152">
        <ele>0.43</ele>
        <time>2020-05-23T11:44:17Z</time>
      </trkpt>
      <trkpt lat="47.2709" lon="-1.97134">
        <ele>0.89</ele>
        <time>2020-05-23T11:44:19Z</time>
      </trkpt>
      <trkpt lat="47.27088" lon="-1.97117">
        <ele>0.52</ele>
        <time>2020-05-23T11:44:21Z</time>
      </trkpt>
      <trkpt lat="47.27085" lon="-1.97098">
        <ele>-0.41</ele>
        <time>2020-05-23T11:44:23Z</time>
      </trkpt>
      <trkpt lat="47.27083" lon="-1.97078">
        <ele>-1.03</ele>
        <time>2020-05-23T11:44:25Z</time>
      </trkpt>
      <trkpt lat="47.27083" lon="-1.9706">
        <ele>-0.56</ele>
        <time>2020-05-23T11:44:27Z</time>
      </trkpt>
      <trkpt lat="47.27082" lon="-1.97044">
        <ele>-0.37</ele>
        <time>2020-05-23T11:44:29Z</time>
      </trkpt>
      <trkpt lat="47.27082" lon="-1.97026">
        <ele>-0.27</ele>
        <time>2020-05-23T11:44:31Z</time>
      </trkpt>
      <trkpt lat="47.27081" lon="-1.97008">
        <ele>0.08</ele>
        <time>2020-05-23T11:44:33Z</time>
      </trkpt>
      <trkpt lat="47.27079" lon="-1.96989">
        <ele>1.36</ele>
        <time>2020-05-23T11:44:35Z</time>
      </trkpt>
      <trkpt lat="47.27077" lon="-1.96972">
        <ele>3.16</ele>
        <time>2020-05-23T11:44:37Z</time>
      </trkpt>
      <trkpt lat="47.27073" lon="-1.96955">
        <ele>4.61</ele>
        <time>2020-05-23T11:44:39Z</time>
      </trkpt>
      <trkpt lat="47.27066" lon="-1.96941">
        <ele>6.46</ele>
        <time>2020-05-23T11:44:41Z</time>
      </trkpt>
      <trkpt lat="47.27056" lon="-1.96924">
        <ele>6.35</ele>
        <time>2020-05-23T11:44:43Z</time>
      </trkpt>
      <trkpt lat="47.27045" lon="-1.96906">
        <ele>5.15</ele>
        <time>2020-05-23T11:44:45Z</time>
      </trkpt>
      <trkpt lat="47.27034" lon="-1.96886">
        <ele>3.63</ele>
        <time>2020-05-23T11:44:47Z</time>
      </trkpt>
      <trkpt lat="47.27022" lon="-1.96867">
        <ele>2.67</ele>
        <time>2020-05-23T11:44:49Z</time>
      </trkpt>
      <trkpt lat="47.27011" lon="-1.96848">
        <ele>1.97</ele>
        <time>2020-05-23T11:44:51Z</time>
      </trkpt>
      <trkpt lat="47.27005" lon="-1.96837">
        <ele>1.31</ele>
        <time>2020-05-23T11:44:52Z</time>
      </trkpt>
      <trkpt lat="47.26996" lon="-1.96819">
        <ele>0.54</ele>
        <time>2020-05-23T11:44:54Z</time>
      </trkpt>
      <trkpt lat="47.2699" lon="-1.96805">
        <ele>0.28</ele>
        <time>2020-05-23T11:44:56Z</time>
      </trkpt>
      <trkpt lat="47.26983" lon="-1.9679">
        <ele>0.85</ele>
        <time>2020-05-23T11:44:58Z</time>
      </trkpt>
      <trkpt lat="47.26977" lon="-1.96775">
        <ele>2.89</ele>
        <time>2020-05-23T11:45:00Z</time>
      </trkpt>
      <trkpt lat="47.2697" lon="-1.96756">
        <ele>5.01</ele>
        <time>2020-05-23T11:45:02Z</time>
      </trkpt>
      <trkpt lat="47.26963" lon="-1.96736">
        <ele>5.55</ele>
        <time>2020-05-23T11:45:04Z</time>
      </trkpt>
      <trkpt lat="47.26957" lon="-1.96718">
        <ele>5.8</ele>
        <time>2020-05-23T11:45:06Z</time>
      </trkpt>
      <trkpt lat="47.2695" lon="-1.96699">
        <ele>6.83</ele>
        <time>2020-05-23T11:45:08Z</time>
      </trkpt>
      <trkpt lat="47.26942" lon="-1.9668">
        <ele>6.61</ele>
        <time>2020-05-23T11:45:10Z</time>
      </trkpt>
      <trkpt lat="47.26935" lon="-1.96664">
        <ele>6.57</ele>
        <time>2020-05-23T11:45:12Z</time>
      </trkpt>
      <trkpt lat="47.26929" lon="-1.96649">
        <ele>5.93</ele>
        <time>2020-05-23T11:45:14Z</time>
      </trkpt>
      <trkpt lat="47.26922" lon="-1.96633">
        <ele>5.66</ele>
        <time>2020-05-23T11:45:16Z</time>
      </trkpt>
      <trkpt lat="47.26918" lon="-1.9662">
        <ele>6.61</ele>
        <time>2020-05-23T11:45:18Z</time>
      </trkpt>
      <trkpt lat="47.26911" lon="-1.96604">
        <ele>6.67</ele>
        <time>2020-05-23T11:45:20Z</time>
      </trkpt>
      <trkpt lat="47.26905" lon="-1.96587">
        <ele>7.67</ele>
        <time>2020-05-23T11:45:22Z</time>
      </trkpt>
      <trkpt lat="47.26897" lon="-1.96566">
        <ele>7.28</ele>
        <time>2020-05-23T11:45:24Z</time>
      </trkpt>
      <trkpt lat="47.26891" lon="-1.96549">
        <ele>6.84</ele>
        <time>2020-05-23T11:45:26Z</time>
      </trkpt>
      <trkpt lat="47.26885" lon="-1.96532">
        <ele>5.66</ele>
        <time>2020-05-23T11:45:28Z</time>
      </trkpt>
      <trkpt lat="47.26878" lon="-1.96515">
        <ele>4.29</ele>
        <time>2020-05-23T11:45:30Z</time>
      </trkpt>
      <trkpt lat="47.26871" lon="-1.96499">
        <ele>3.22</ele>
        <time>2020-05-23T11:45:32Z</time>
      </trkpt>
      <trkpt lat="47.26865" lon="-1.96481">
        <ele>3.2</ele>
        <time>2020-05-23T11:45:34Z</time>
      </trkpt>
      <trkpt lat="47.26859" lon="-1.96465">
        <ele>3.28</ele>
        <time>2020-05-23T11:45:36Z</time>
      </trkpt>
      <trkpt lat="47.26852" lon="-1.96446">
        <ele>3.42</ele>
        <time>2020-05-23T11:45:38Z</time>
      </trkpt>
      <trkpt lat="47.26845" lon="-1.96429">
        <ele>3.81</ele>
        <time>2020-05-23T11:45:40Z</time>
      </trkpt>
      <trkpt lat="47.26839" lon="-1.96412">
        <ele>3.44</ele>
        <time>2020-05-23T11:45:42Z</time>
      </trkpt>
      <trkpt lat="47.26834" lon="-1.96397">
        <ele>2.84</ele>
        <time>2020-05-23T11:45:44Z</time>
      </trkpt>
      <trkpt lat="47.26828" lon="-1.96379">
        <ele>2.27</ele>
        <time>2020-05-23T11:45:46Z</time>
      </trkpt>
      <trkpt lat="47.26821" lon="-1.96359">
        <ele>2.31</ele>
        <time>2020-05-23T11:45:48Z</time>
      </trkpt>
      <trkpt lat="47.26815" lon="-1.96341">
        <ele>1.69</ele>
        <time>2020-05-23T11:45:50Z</time>
      </trkpt>
      <trkpt lat="47.26808" lon="-1.96325">
        <ele>1.73</ele>
        <time>2020-05-23T11:45:52Z</time>
      </trkpt>
      <trkpt lat="47.26802" lon="-1.96306">
        <ele>2.05</ele>
        <time>2020-05-23T11:45:54Z</time>
      </trkpt>
      <trkpt lat="47.26796" lon="-1.96287">
        <ele>2.51</ele>
        <time>2020-05-23T11:45:56Z</time>
      </trkpt>
      <trkpt lat="47.2679" lon="-1.9627">
        <ele>3.13</ele>
        <time>2020-05-23T11:45:58Z</time>
      </trkpt>
      <trkpt lat="47.26785" lon="-1.9625">
        <ele>3.49</ele>
        <time>2020-05-23T11:46:00Z</time>
      </trkpt>
      <trkpt lat="47.2678" lon="-1.9623">
        <ele>4.15</ele>
        <time>2020-05-23T11:46:02Z</time>
      </trkpt>
      <trkpt lat="47.26775" lon="-1.96213">
        <ele>4.12</ele>
        <time>2020-05-23T11:46:04Z</time>
      </trkpt>
      <trkpt lat="47.26771" lon="-1.96196">
        <ele>2.89</ele>
        <time>2020-05-23T11:46:06Z</time>
      </trkpt>
      <trkpt lat="47.26766" lon="-1.9618">
        <ele>2.62</ele>
        <time>2020-05-23T11:46:08Z</time>
      </trkpt>
      <trkpt lat="47.26762" lon="-1.96163">
        <ele>2.52</ele>
        <time>2020-05-23T11:46:10Z</time>
      </trkpt>
      <trkpt lat="47.26757" lon="-1.96142">
        <ele>3.69</ele>
        <time>2020-05-23T11:46:12Z</time>
      </trkpt>
      <trkpt lat="47.26752" lon="-1.96124">
        <ele>4.48</ele>
        <time>2020-05-23T11:46:14Z</time>
      </trkpt>
      <trkpt lat="47.26746" lon="-1.96102">
        <ele>5.44</ele>
        <time>2020-05-23T11:46:16Z</time>
      </trkpt>
      <trkpt lat="47.26741" lon="-1.96081">
        <ele>6.92</ele>
        <time>2020-05-23T11:46:18Z</time>
      </trkpt>
      <trkpt lat="47.26735" lon="-1.96059">
        <ele>7.72</ele>
        <time>2020-05-23T11:46:20Z</time>
      </trkpt>
      <trkpt lat="47.2673" lon="-1.96039">
        <ele>8.1</ele>
        <time>2020-05-23T11:46:22Z</time>
      </trkpt>
      <trkpt lat="47.26725" lon="-1.96019">
        <ele>8</ele>
        <time>2020-05-23T11:46:24Z</time>
      </trkpt>
      <trkpt lat="47.2672" lon="-1.95997">
        <ele>8.53</ele>
        <time>2020-05-23T11:46:26Z</time>
      </trkpt>
      <trkpt lat="47.26715" lon="-1.95978">
        <ele>7.85</ele>
        <time>2020-05-23T11:46:28Z</time>
      </trkpt>
      <trkpt lat="47.26711" lon="-1.95962">
        <ele>7.47</ele>
        <time>2020-05-23T11:46:30Z</time>
      </trkpt>
      <trkpt lat="47.26705" lon="-1.95941">
        <ele>6.9</ele>
        <time>2020-05-23T11:46:32Z</time>
      </trkpt>
      <trkpt lat="47.26699" lon="-1.95921">
        <ele>6.76</ele>
        <time>2020-05-23T11:46:34Z</time>
      </trkpt>
      <trkpt lat="47.26693" lon="-1.95905">
        <ele>6.33</ele>
        <time>2020-05-23T11:46:36Z</time>
      </trkpt>
      <trkpt lat="47.26687" lon="-1.95888">
        <ele>5.06</ele>
        <time>2020-05-23T11:46:38Z</time>
      </trkpt>
      <trkpt lat="47.26681" lon="-1.95871">
        <ele>3.37</ele>
        <time>2020-05-23T11:46:40Z</time>
      </trkpt>
      <trkpt lat="47.26675" lon="-1.95854">
        <ele>3.58</ele>
        <time>2020-05-23T11:46:42Z</time>
      </trkpt>
      <trkpt lat="47.26669" lon="-1.95838">
        <ele>4.47</ele>
        <time>2020-05-23T11:46:44Z</time>
      </trkpt>
      <trkpt lat="47.26663" lon="-1.95821">
        <ele>5.67</ele>
        <time>2020-05-23T11:46:46Z</time>
      </trkpt>
      <trkpt lat="47.26656" lon="-1.95805">
        <ele>5.59</ele>
        <time>2020-05-23T11:46:48Z</time>
      </trkpt>
      <trkpt lat="47.2665" lon="-1.95789">
        <ele>5.07</ele>
        <time>2020-05-23T11:46:50Z</time>
      </trkpt>
      <trkpt lat="47.26644" lon="-1.95775">
        <ele>4.56</ele>
        <time>2020-05-23T11:46:52Z</time>
      </trkpt>
      <trkpt lat="47.26638" lon="-1.9576">
        <ele>3.58</ele>
        <time>2020-05-23T11:46:54Z</time>
      </trkpt>
      <trkpt lat="47.26631" lon="-1.95744">
        <ele>3.72</ele>
        <time>2020-05-23T11:46:56Z</time>
      </trkpt>
      <trkpt lat="47.26624" lon="-1.95724">
        <ele>3.9</ele>
        <time>2020-05-23T11:46:58Z</time>
      </trkpt>
      <trkpt lat="47.26618" lon="-1.95709">
        <ele>4.67</ele>
        <time>2020-05-23T11:47:00Z</time>
      </trkpt>
      <trkpt lat="47.26611" lon="-1.95692">
        <ele>6.04</ele>
        <time>2020-05-23T11:47:02Z</time>
      </trkpt>
      <trkpt lat="47.26604" lon="-1.95674">
        <ele>8.01</ele>
        <time>2020-05-23T11:47:04Z</time>
      </trkpt>
      <trkpt lat="47.26598" lon="-1.95657">
        <ele>9.87</ele>
        <time>2020-05-23T11:47:06Z</time>
      </trkpt>
      <trkpt lat="47.26593" lon="-1.95639">
        <ele>11.48</ele>
        <time>2020-05-23T11:47:08Z</time>
      </trkpt>
      <trkpt lat="47.26588" lon="-1.95617">
        <ele>12.15</ele>
        <time>2020-05-23T11:47:10Z</time>
      </trkpt>
      <trkpt lat="47.26583" lon="-1.95595">
        <ele>12.44</ele>
        <time>2020-05-23T11:47:12Z</time>
      </trkpt>
      <trkpt lat="47.26579" lon="-1.95572">
        <ele>12.09</ele>
        <time>2020-05-23T11:47:14Z</time>
      </trkpt>
      <trkpt lat="47.26574" lon="-1.95547">
        <ele>12.01</ele>
        <time>2020-05-23T11:47:16Z</time>
      </trkpt>
      <trkpt lat="47.2657" lon="-1.95525">
        <ele>11.13</ele>
        <time>2020-05-23T11:47:18Z</time>
      </trkpt>
      <trkpt lat="47.26567" lon="-1.95512">
        <ele>10.71</ele>
        <time>2020-05-23T11:47:19Z</time>
      </trkpt>
      <trkpt lat="47.26562" lon="-1.95488">
        <ele>9.61</ele>
        <time>2020-05-23T11:47:20Z</time>
      </trkpt>
      <trkpt lat="47.26557" lon="-1.95476">
        <ele>8.63</ele>
        <time>2020-05-23T11:47:21Z</time>
      </trkpt>
      <trkpt lat="47.26548" lon="-1.95454">
        <ele>6.82</ele>
        <time>2020-05-23T11:47:23Z</time>
      </trkpt>
      <trkpt lat="47.26542" lon="-1.95443">
        <ele>5.94</ele>
        <time>2020-05-23T11:47:24Z</time>
      </trkpt>
      <trkpt lat="47.26531" lon="-1.95423">
        <ele>5.18</ele>
        <time>2020-05-23T11:47:26Z</time>
      </trkpt>
      <trkpt lat="47.26525" lon="-1.95412">
        <ele>5.06</ele>
        <time>2020-05-23T11:47:27Z</time>
      </trkpt>
      <trkpt lat="47.26519" lon="-1.95403">
        <ele>4.84</ele>
        <time>2020-05-23T11:47:28Z</time>
      </trkpt>
      <trkpt lat="47.26507" lon="-1.95383">
        <ele>4.84</ele>
        <time>2020-05-23T11:47:30Z</time>
      </trkpt>
      <trkpt lat="47.26494" lon="-1.9536">
        <ele>4.97</ele>
        <time>2020-05-23T11:47:32Z</time>
      </trkpt>
      <trkpt lat="47.26491" lon="-1.95348">
        <ele>4.37</ele>
        <time>2020-05-23T11:47:33Z</time>
      </trkpt>
      <trkpt lat="47.26485" lon="-1.95325">
        <ele>2.71</ele>
        <time>2020-05-23T11:47:35Z</time>
      </trkpt>
      <trkpt lat="47.2648" lon="-1.95301">
        <ele>1.05</ele>
        <time>2020-05-23T11:47:37Z</time>
      </trkpt>
      <trkpt lat="47.26475" lon="-1.95276">
        <ele>-0.74</ele>
        <time>2020-05-23T11:47:39Z</time>
      </trkpt>
      <trkpt lat="47.26473" lon="-1.95263">
        <ele>-1.48</ele>
        <time>2020-05-23T11:47:40Z</time>
      </trkpt>
      <trkpt lat="47.26469" lon="-1.95239">
        <ele>-2.8</ele>
        <time>2020-05-23T11:47:42Z</time>
      </trkpt>
      <trkpt lat="47.26466" lon="-1.95218">
        <ele>-3.79</ele>
        <time>2020-05-23T11:47:44Z</time>
      </trkpt>
      <trkpt lat="47.26464" lon="-1.95194">
        <ele>-3.39</ele>
        <time>2020-05-23T11:47:46Z</time>
      </trkpt>
      <trkpt lat="47.26463" lon="-1.95174">
        <ele>-3.71</ele>
        <time>2020-05-23T11:47:48Z</time>
      </trkpt>
      <trkpt lat="47.26462" lon="-1.95149">
        <ele>-3.07</ele>
        <time>2020-05-23T11:47:50Z</time>
      </trkpt>
      <trkpt lat="47.26462" lon="-1.95126">
        <ele>-2.67</ele>
        <time>2020-05-23T11:47:52Z</time>
      </trkpt>
      <trkpt lat="47.26464" lon="-1.95103">
        <ele>-2.35</ele>
        <time>2020-05-23T11:47:54Z</time>
      </trkpt>
      <trkpt lat="47.26472" lon="-1.95095">
        <ele>-2.02</ele>
        <time>2020-05-23T11:47:55Z</time>
      </trkpt>
      <trkpt lat="47.26486" lon="-1.95087">
        <ele>-1.04</ele>
        <time>2020-05-23T11:47:57Z</time>
      </trkpt>
      <trkpt lat="47.26504" lon="-1.95089">
        <ele>-0.63</ele>
        <time>2020-05-23T11:47:59Z</time>
      </trkpt>
      <trkpt lat="47.26513" lon="-1.9509">
        <ele>-0.51</ele>
        <time>2020-05-23T11:48:00Z</time>
      </trkpt>
      <trkpt lat="47.26529" lon="-1.95091">
        <ele>-0.33</ele>
        <time>2020-05-23T11:48:02Z</time>
      </trkpt>
      <trkpt lat="47.26544" lon="-1.95091">
        <ele>-0.7</ele>
        <time>2020-05-23T11:48:04Z</time>
      </trkpt>
      <trkpt lat="47.2656" lon="-1.95091">
        <ele>-0.7</ele>
        <time>2020-05-23T11:48:06Z</time>
      </trkpt>
      <trkpt lat="47.26577" lon="-1.95091">
        <ele>-0.57</ele>
        <time>2020-05-23T11:48:08Z</time>
      </trkpt>
      <trkpt lat="47.26594" lon="-1.95087">
        <ele>0.05</ele>
        <time>2020-05-23T11:48:10Z</time>
      </trkpt>
      <trkpt lat="47.26611" lon="-1.95078">
        <ele>0.47</ele>
        <time>2020-05-23T11:48:12Z</time>
      </trkpt>
      <trkpt lat="47.26624" lon="-1.95067">
        <ele>1.04</ele>
        <time>2020-05-23T11:48:14Z</time>
      </trkpt>
      <trkpt lat="47.26636" lon="-1.95053">
        <ele>0.37</ele>
        <time>2020-05-23T11:48:16Z</time>
      </trkpt>
      <trkpt lat="47.26646" lon="-1.95038">
        <ele>3.9</ele>
        <time>2020-05-23T11:48:18Z</time>
      </trkpt>
      <trkpt lat="47.26656" lon="-1.95019">
        <ele>-1.17</ele>
        <time>2020-05-23T11:48:20Z</time>
      </trkpt>
      <trkpt lat="47.26665" lon="-1.95">
        <ele>-2.46</ele>
        <time>2020-05-23T11:48:22Z</time>
      </trkpt>
      <trkpt lat="47.26673" lon="-1.94979">
        <ele>-2.71</ele>
        <time>2020-05-23T11:48:24Z</time>
      </trkpt>
      <trkpt lat="47.2668" lon="-1.94959">
        <ele>-2.95</ele>
        <time>2020-05-23T11:48:26Z</time>
      </trkpt>
      <trkpt lat="47.26687" lon="-1.94938">
        <ele>-2.92</ele>
        <time>2020-05-23T11:48:28Z</time>
      </trkpt>
      <trkpt lat="47.26694" lon="-1.94917">
        <ele>-1.68</ele>
        <time>2020-05-23T11:48:30Z</time>
      </trkpt>
      <trkpt lat="47.26703" lon="-1.94898">
        <ele>-0.76</ele>
        <time>2020-05-23T11:48:32Z</time>
      </trkpt>
      <trkpt lat="47.26713" lon="-1.94883">
        <ele>-0.33</ele>
        <time>2020-05-23T11:48:34Z</time>
      </trkpt>
      <trkpt lat="47.26723" lon="-1.94866">
        <ele>-0.57</ele>
        <time>2020-05-23T11:48:36Z</time>
      </trkpt>
      <trkpt lat="47.26725" lon="-1.94848">
        <ele>-0.82</ele>
        <time>2020-05-23T11:48:38Z</time>
      </trkpt>
      <trkpt lat="47.26718" lon="-1.94832">
        <ele>-2.03</ele>
        <time>2020-05-23T11:48:40Z</time>
      </trkpt>
      <trkpt lat="47.26708" lon="-1.94814">
        <ele>-2.96</ele>
        <time>2020-05-23T11:48:42Z</time>
      </trkpt>
      <trkpt lat="47.267" lon="-1.94797">
        <ele>-3.19</ele>
        <time>2020-05-23T11:48:44Z</time>
      </trkpt>
      <trkpt lat="47.2669" lon="-1.9478">
        <ele>-3.71</ele>
        <time>2020-05-23T11:48:46Z</time>
      </trkpt>
      <trkpt lat="47.26682" lon="-1.94765">
        <ele>-4.33</ele>
        <time>2020-05-23T11:48:48Z</time>
      </trkpt>
      <trkpt lat="47.26674" lon="-1.94748">
        <ele>-4.22</ele>
        <time>2020-05-23T11:48:50Z</time>
      </trkpt>
      <trkpt lat="47.26666" lon="-1.94729">
        <ele>-3.4</ele>
        <time>2020-05-23T11:48:52Z</time>
      </trkpt>
      <trkpt lat="47.26658" lon="-1.94712">
        <ele>-2.8</ele>
        <time>2020-05-23T11:48:54Z</time>
      </trkpt>
      <trkpt lat="47.2665" lon="-1.94694">
        <ele>-2.15</ele>
        <time>2020-05-23T11:48:56Z</time>
      </trkpt>
      <trkpt lat="47.26641" lon="-1.94678">
        <ele>-1.34</ele>
        <time>2020-05-23T11:48:58Z</time>
      </trkpt>
      <trkpt lat="47.26633" lon="-1.94658">
        <ele>-1.15</ele>
        <time>2020-05-23T11:49:00Z</time>
      </trkpt>
      <trkpt lat="47.26627" lon="-1.94639">
        <ele>-0.53</ele>
        <time>2020-05-23T11:49:02Z</time>
      </trkpt>
      <trkpt lat="47.26624" lon="-1.94619">
        <ele>-0.74</ele>
        <time>2020-05-23T11:49:04Z</time>
      </trkpt>
      <trkpt lat="47.26622" lon="-1.946">
        <ele>-0.73</ele>
        <time>2020-05-23T11:49:06Z</time>
      </trkpt>
      <trkpt lat="47.26621" lon="-1.94579">
        <ele>-0.65</ele>
        <time>2020-05-23T11:49:08Z</time>
      </trkpt>
      <trkpt lat="47.26619" lon="-1.94555">
        <ele>-0.75</ele>
        <time>2020-05-23T11:49:10Z</time>
      </trkpt>
      <trkpt lat="47.26617" lon="-1.94532">
        <ele>-1.4</ele>
        <time>2020-05-23T11:49:12Z</time>
      </trkpt>
      <trkpt lat="47.26613" lon="-1.94509">
        <ele>-1.89</ele>
        <time>2020-05-23T11:49:14Z</time>
      </trkpt>
      <trkpt lat="47.26609" lon="-1.94485">
        <ele>-2.38</ele>
        <time>2020-05-23T11:49:16Z</time>
      </trkpt>
      <trkpt lat="47.26604" lon="-1.94463">
        <ele>-2.86</ele>
        <time>2020-05-23T11:49:18Z</time>
      </trkpt>
      <trkpt lat="47.26598" lon="-1.94439">
        <ele>-3.37</ele>
        <time>2020-05-23T11:49:20Z</time>
      </trkpt>
      <trkpt lat="47.26592" lon="-1.94416">
        <ele>-4.99</ele>
        <time>2020-05-23T11:49:22Z</time>
      </trkpt>
      <trkpt lat="47.26587" lon="-1.94396">
        <ele>-6.73</ele>
        <time>2020-05-23T11:49:24Z</time>
      </trkpt>
      <trkpt lat="47.26582" lon="-1.94376">
        <ele>-7.61</ele>
        <time>2020-05-23T11:49:26Z</time>
      </trkpt>
      <trkpt lat="47.26578" lon="-1.94355">
        <ele>-7.92</ele>
        <time>2020-05-23T11:49:28Z</time>
      </trkpt>
      <trkpt lat="47.26573" lon="-1.94335">
        <ele>-8.3</ele>
        <time>2020-05-23T11:49:30Z</time>
      </trkpt>
      <trkpt lat="47.2657" lon="-1.9431">
        <ele>-8.84</ele>
        <time>2020-05-23T11:49:32Z</time>
      </trkpt>
      <trkpt lat="47.26569" lon="-1.94289">
        <ele>-9.62</ele>
        <time>2020-05-23T11:49:34Z</time>
      </trkpt>
      <trkpt lat="47.26569" lon="-1.9427">
        <ele>-9.79</ele>
        <time>2020-05-23T11:49:36Z</time>
      </trkpt>
      <trkpt lat="47.26571" lon="-1.94247">
        <ele>-9.73</ele>
        <time>2020-05-23T11:49:38Z</time>
      </trkpt>
      <trkpt lat="47.26573" lon="-1.94226">
        <ele>-9.15</ele>
        <time>2020-05-23T11:49:40Z</time>
      </trkpt>
      <trkpt lat="47.26575" lon="-1.94205">
        <ele>-8.71</ele>
        <time>2020-05-23T11:49:42Z</time>
      </trkpt>
      <trkpt lat="47.26578" lon="-1.94182">
        <ele>-8.19</ele>
        <time>2020-05-23T11:49:44Z</time>
      </trkpt>
      <trkpt lat="47.2658" lon="-1.9416">
        <ele>-6.77</ele>
        <time>2020-05-23T11:49:46Z</time>
      </trkpt>
      <trkpt lat="47.2658" lon="-1.94138">
        <ele>-5.51</ele>
        <time>2020-05-23T11:49:48Z</time>
      </trkpt>
      <trkpt lat="47.26579" lon="-1.94115">
        <ele>-3.87</ele>
        <time>2020-05-23T11:49:50Z</time>
      </trkpt>
      <trkpt lat="47.26577" lon="-1.9409">
        <ele>-3.46</ele>
        <time>2020-05-23T11:49:52Z</time>
      </trkpt>
      <trkpt lat="47.26574" lon="-1.94067">
        <ele>-3.59</ele>
        <time>2020-05-23T11:49:54Z</time>
      </trkpt>
      <trkpt lat="47.2657" lon="-1.94042">
        <ele>-3.49</ele>
        <time>2020-05-23T11:49:56Z</time>
      </trkpt>
      <trkpt lat="47.26566" lon="-1.94017">
        <ele>-4.21</ele>
        <time>2020-05-23T11:49:58Z</time>
      </trkpt>
      <trkpt lat="47.26562" lon="-1.93995">
        <ele>-4.68</ele>
        <time>2020-05-23T11:50:00Z</time>
      </trkpt>
      <trkpt lat="47.26557" lon="-1.93973">
        <ele>-5.78</ele>
        <time>2020-05-23T11:50:02Z</time>
      </trkpt>
      <trkpt lat="47.26553" lon="-1.93952">
        <ele>-6.33</ele>
        <time>2020-05-23T11:50:04Z</time>
      </trkpt>
      <trkpt lat="47.26549" lon="-1.9393">
        <ele>-7.3</ele>
        <time>2020-05-23T11:50:06Z</time>
      </trkpt>
      <trkpt lat="47.26546" lon="-1.93906">
        <ele>-7.25</ele>
        <time>2020-05-23T11:50:08Z</time>
      </trkpt>
      <trkpt lat="47.26542" lon="-1.93884">
        <ele>-6.8</ele>
        <time>2020-05-23T11:50:10Z</time>
      </trkpt>
      <trkpt lat="47.26538" lon="-1.93863">
        <ele>-7.33</ele>
        <time>2020-05-23T11:50:12Z</time>
      </trkpt>
      <trkpt lat="47.26535" lon="-1.93844">
        <ele>-7.13</ele>
        <time>2020-05-23T11:50:14Z</time>
      </trkpt>
      <trkpt lat="47.26531" lon="-1.93825">
        <ele>-6.89</ele>
        <time>2020-05-23T11:50:16Z</time>
      </trkpt>
      <trkpt lat="47.26526" lon="-1.93803">
        <ele>-6.82</ele>
        <time>2020-05-23T11:50:18Z</time>
      </trkpt>
      <trkpt lat="47.26522" lon="-1.9378">
        <ele>-6.76</ele>
        <time>2020-05-23T11:50:20Z</time>
      </trkpt>
      <trkpt lat="47.26517" lon="-1.93758">
        <ele>-7.19</ele>
        <time>2020-05-23T11:50:22Z</time>
      </trkpt>
      <trkpt lat="47.26513" lon="-1.93738">
        <ele>-7.04</ele>
        <time>2020-05-23T11:50:24Z</time>
      </trkpt>
      <trkpt lat="47.26509" lon="-1.93716">
        <ele>-6.92</ele>
        <time>2020-05-23T11:50:26Z</time>
      </trkpt>
      <trkpt lat="47.26505" lon="-1.93694">
        <ele>-6.71</ele>
        <time>2020-05-23T11:50:28Z</time>
      </trkpt>
      <trkpt lat="47.26501" lon="-1.93672">
        <ele>-6.35</ele>
        <time>2020-05-23T11:50:30Z</time>
      </trkpt>
      <trkpt lat="47.26497" lon="-1.93651">
        <ele>-6.27</ele>
        <time>2020-05-23T11:50:32Z</time>
      </trkpt>
      <trkpt lat="47.26494" lon="-1.93633">
        <ele>-5.19</ele>
        <time>2020-05-23T11:50:34Z</time>
      </trkpt>
      <trkpt lat="47.2649" lon="-1.93613">
        <ele>-5.16</ele>
        <time>2020-05-23T11:50:36Z</time>
      </trkpt>
      <trkpt lat="47.26486" lon="-1.93593">
        <ele>-4.97</ele>
        <time>2020-05-23T11:50:38Z</time>
      </trkpt>
      <trkpt lat="47.26482" lon="-1.93571">
        <ele>-5.41</ele>
        <time>2020-05-23T11:50:40Z</time>
      </trkpt>
      <trkpt lat="47.26478" lon="-1.9355">
        <ele>-5.75</ele>
        <time>2020-05-23T11:50:42Z</time>
      </trkpt>
      <trkpt lat="47.26474" lon="-1.9353">
        <ele>-5.57</ele>
        <time>2020-05-23T11:50:44Z</time>
      </trkpt>
      <trkpt lat="47.26471" lon="-1.9351">
        <ele>-6.13</ele>
        <time>2020-05-23T11:50:46Z</time>
      </trkpt>
      <trkpt lat="47.26467" lon="-1.93491">
        <ele>-5.92</ele>
        <time>2020-05-23T11:50:48Z</time>
      </trkpt>
      <trkpt lat="47.26463" lon="-1.93469">
        <ele>-5.72</ele>
        <time>2020-05-23T11:50:50Z</time>
      </trkpt>
      <trkpt lat="47.26458" lon="-1.93445">
        <ele>-5.5</ele>
        <time>2020-05-23T11:50:52Z</time>
      </trkpt>
      <trkpt lat="47.26455" lon="-1.93423">
        <ele>-5.5</ele>
        <time>2020-05-23T11:50:54Z</time>
      </trkpt>
      <trkpt lat="47.26452" lon="-1.93403">
        <ele>-5.5</ele>
        <time>2020-05-23T11:50:56Z</time>
      </trkpt>
      <trkpt lat="47.26451" lon="-1.93381">
        <ele>-5.64</ele>
        <time>2020-05-23T11:50:58Z</time>
      </trkpt>
      <trkpt lat="47.26451" lon="-1.93361">
        <ele>-5.45</ele>
        <time>2020-05-23T11:51:00Z</time>
      </trkpt>
      <trkpt lat="47.26449" lon="-1.93339">
        <ele>-5.05</ele>
        <time>2020-05-23T11:51:02Z</time>
      </trkpt>
      <trkpt lat="47.26447" lon="-1.93319">
        <ele>-4.29</ele>
        <time>2020-05-23T11:51:04Z</time>
      </trkpt>
      <trkpt lat="47.26443" lon="-1.93299">
        <ele>-4.46</ele>
        <time>2020-05-23T11:51:06Z</time>
      </trkpt>
      <trkpt lat="47.26439" lon="-1.93279">
        <ele>-4.43</ele>
        <time>2020-05-23T11:51:08Z</time>
      </trkpt>
      <trkpt lat="47.26435" lon="-1.93258">
        <ele>-3.59</ele>
        <time>2020-05-23T11:51:10Z</time>
      </trkpt>
      <trkpt lat="47.26431" lon="-1.93236">
        <ele>-3.05</ele>
        <time>2020-05-23T11:51:12Z</time>
      </trkpt>
      <trkpt lat="47.26426" lon="-1.93214">
        <ele>-3.98</ele>
        <time>2020-05-23T11:51:14Z</time>
      </trkpt>
      <trkpt lat="47.26423" lon="-1.93193">
        <ele>-5.12</ele>
        <time>2020-05-23T11:51:16Z</time>
      </trkpt>
      <trkpt lat="47.2642" lon="-1.9317">
        <ele>-5.84</ele>
        <time>2020-05-23T11:51:18Z</time>
      </trkpt>
      <trkpt lat="47.26418" lon="-1.93157">
        <ele>-5.79</ele>
        <time>2020-05-23T11:51:19Z</time>
      </trkpt>
      <trkpt lat="47.26414" lon="-1.93134">
        <ele>-4.85</ele>
        <time>2020-05-23T11:51:21Z</time>
      </trkpt>
      <trkpt lat="47.2641" lon="-1.93115">
        <ele>-4.16</ele>
        <time>2020-05-23T11:51:23Z</time>
      </trkpt>
      <trkpt lat="47.26405" lon="-1.93094">
        <ele>-4.5</ele>
        <time>2020-05-23T11:51:25Z</time>
      </trkpt>
      <trkpt lat="47.26401" lon="-1.93073">
        <ele>-4.18</ele>
        <time>2020-05-23T11:51:27Z</time>
      </trkpt>
      <trkpt lat="47.26396" lon="-1.93053">
        <ele>-3.81</ele>
        <time>2020-05-23T11:51:29Z</time>
      </trkpt>
      <trkpt lat="47.2639" lon="-1.93032">
        <ele>-2.74</ele>
        <time>2020-05-23T11:51:31Z</time>
      </trkpt>
      <trkpt lat="47.26384" lon="-1.93012">
        <ele>-2.83</ele>
        <time>2020-05-23T11:51:33Z</time>
      </trkpt>
      <trkpt lat="47.26379" lon="-1.92996">
        <ele>-3.35</ele>
        <time>2020-05-23T11:51:35Z</time>
      </trkpt>
      <trkpt lat="47.26374" lon="-1.92974">
        <ele>-4.7</ele>
        <time>2020-05-23T11:51:37Z</time>
      </trkpt>
      <trkpt lat="47.2637" lon="-1.92953">
        <ele>-5.27</ele>
        <time>2020-05-23T11:51:39Z</time>
      </trkpt>
      <trkpt lat="47.26366" lon="-1.92931">
        <ele>-5.1</ele>
        <time>2020-05-23T11:51:41Z</time>
      </trkpt>
      <trkpt lat="47.26362" lon="-1.92908">
        <ele>-4.64</ele>
        <time>2020-05-23T11:51:43Z</time>
      </trkpt>
      <trkpt lat="47.26359" lon="-1.92888">
        <ele>-3.52</ele>
        <time>2020-05-23T11:51:45Z</time>
      </trkpt>
      <trkpt lat="47.26356" lon="-1.92867">
        <ele>-3.39</ele>
        <time>2020-05-23T11:51:47Z</time>
      </trkpt>
      <trkpt lat="47.26352" lon="-1.92848">
        <ele>-2.72</ele>
        <time>2020-05-23T11:51:49Z</time>
      </trkpt>
      <trkpt lat="47.26348" lon="-1.92827">
        <ele>-2.49</ele>
        <time>2020-05-23T11:51:51Z</time>
      </trkpt>
      <trkpt lat="47.26345" lon="-1.92807">
        <ele>-2.66</ele>
        <time>2020-05-23T11:51:53Z</time>
      </trkpt>
      <trkpt lat="47.26341" lon="-1.92785">
        <ele>-3.14</ele>
        <time>2020-05-23T11:51:55Z</time>
      </trkpt>
      <trkpt lat="47.26336" lon="-1.92766">
        <ele>-3.85</ele>
        <time>2020-05-23T11:51:57Z</time>
      </trkpt>
      <trkpt lat="47.26332" lon="-1.92747">
        <ele>-4.18</ele>
        <time>2020-05-23T11:51:59Z</time>
      </trkpt>
      <trkpt lat="47.26328" lon="-1.92725">
        <ele>-4.39</ele>
        <time>2020-05-23T11:52:01Z</time>
      </trkpt>
      <trkpt lat="47.26324" lon="-1.92702">
        <ele>-4.52</ele>
        <time>2020-05-23T11:52:03Z</time>
      </trkpt>
      <trkpt lat="47.2632" lon="-1.9268">
        <ele>-4.8</ele>
        <time>2020-05-23T11:52:05Z</time>
      </trkpt>
      <trkpt lat="47.26316" lon="-1.9266">
        <ele>-4.93</ele>
        <time>2020-05-23T11:52:07Z</time>
      </trkpt>
      <trkpt lat="47.26312" lon="-1.9264">
        <ele>-4.5</ele>
        <time>2020-05-23T11:52:09Z</time>
      </trkpt>
      <trkpt lat="47.26308" lon="-1.92622">
        <ele>-4.58</ele>
        <time>2020-05-23T11:52:11Z</time>
      </trkpt>
      <trkpt lat="47.26305" lon="-1.92604">
        <ele>-4.7</ele>
        <time>2020-05-23T11:52:13Z</time>
      </trkpt>
      <trkpt lat="47.26301" lon="-1.92584">
        <ele>-4.78</ele>
        <time>2020-05-23T11:52:15Z</time>
      </trkpt>
      <trkpt lat="47.26297" lon="-1.92562">
        <ele>-4.12</ele>
        <time>2020-05-23T11:52:17Z</time>
      </trkpt>
      <trkpt lat="47.26292" lon="-1.92542">
        <ele>-4.17</ele>
        <time>2020-05-23T11:52:19Z</time>
      </trkpt>
      <trkpt lat="47.26287" lon="-1.92522">
        <ele>-4.88</ele>
        <time>2020-05-23T11:52:21Z</time>
      </trkpt>
      <trkpt lat="47.26282" lon="-1.92502">
        <ele>-5.32</ele>
        <time>2020-05-23T11:52:23Z</time>
      </trkpt>
      <trkpt lat="47.26276" lon="-1.92482">
        <ele>-5.28</ele>
        <time>2020-05-23T11:52:25Z</time>
      </trkpt>
      <trkpt lat="47.26271" lon="-1.92464">
        <ele>-5.63</ele>
        <time>2020-05-23T11:52:27Z</time>
      </trkpt>
      <trkpt lat="47.26265" lon="-1.92443">
        <ele>-6.83</ele>
        <time>2020-05-23T11:52:29Z</time>
      </trkpt>
      <trkpt lat="47.26259" lon="-1.92424">
        <ele>-7.64</ele>
        <time>2020-05-23T11:52:31Z</time>
      </trkpt>
      <trkpt lat="47.26253" lon="-1.92403">
        <ele>-8.37</ele>
        <time>2020-05-23T11:52:33Z</time>
      </trkpt>
      <trkpt lat="47.26247" lon="-1.92384">
        <ele>-9.07</ele>
        <time>2020-05-23T11:52:35Z</time>
      </trkpt>
      <trkpt lat="47.26242" lon="-1.92368">
        <ele>-9.08</ele>
        <time>2020-05-23T11:52:37Z</time>
      </trkpt>
      <trkpt lat="47.26237" lon="-1.92351">
        <ele>-8.78</ele>
        <time>2020-05-23T11:52:39Z</time>
      </trkpt>
      <trkpt lat="47.26232" lon="-1.92333">
        <ele>-6.82</ele>
        <time>2020-05-23T11:52:41Z</time>
      </trkpt>
      <trkpt lat="47.26226" lon="-1.92314">
        <ele>-4.48</ele>
        <time>2020-05-23T11:52:43Z</time>
      </trkpt>
      <trkpt lat="47.26219" lon="-1.92293">
        <ele>-4.08</ele>
        <time>2020-05-23T11:52:45Z</time>
      </trkpt>
      <trkpt lat="47.26212" lon="-1.92271">
        <ele>-4.39</ele>
        <time>2020-05-23T11:52:47Z</time>
      </trkpt>
      <trkpt lat="47.26204" lon="-1.92249">
        <ele>-4.2</ele>
        <time>2020-05-23T11:52:49Z</time>
      </trkpt>
      <trkpt lat="47.26198" lon="-1.9223">
        <ele>-3.3</ele>
        <time>2020-05-23T11:52:51Z</time>
      </trkpt>
      <trkpt lat="47.26191" lon="-1.92211">
        <ele>-2.94</ele>
        <time>2020-05-23T11:52:53Z</time>
      </trkpt>
      <trkpt lat="47.26184" lon="-1.92189">
        <ele>-2.53</ele>
        <time>2020-05-23T11:52:55Z</time>
      </trkpt>
      <trkpt lat="47.26178" lon="-1.92171">
        <ele>-3.13</ele>
        <time>2020-05-23T11:52:57Z</time>
      </trkpt>
      <trkpt lat="47.26172" lon="-1.92155">
        <ele>-3.92</ele>
        <time>2020-05-23T11:52:59Z</time>
      </trkpt>
      <trkpt lat="47.26167" lon="-1.92137">
        <ele>-4.21</ele>
        <time>2020-05-23T11:53:01Z</time>
      </trkpt>
      <trkpt lat="47.26161" lon="-1.92118">
        <ele>-3.77</ele>
        <time>2020-05-23T11:53:03Z</time>
      </trkpt>
      <trkpt lat="47.26155" lon="-1.92099">
        <ele>-3.17</ele>
        <time>2020-05-23T11:53:05Z</time>
      </trkpt>
      <trkpt lat="47.26148" lon="-1.92081">
        <ele>-2.54</ele>
        <time>2020-05-23T11:53:07Z</time>
      </trkpt>
      <trkpt lat="47.26142" lon="-1.92062">
        <ele>-1.68</ele>
        <time>2020-05-23T11:53:09Z</time>
      </trkpt>
      <trkpt lat="47.26135" lon="-1.92044">
        <ele>-0.95</ele>
        <time>2020-05-23T11:53:11Z</time>
      </trkpt>
      <trkpt lat="47.26128" lon="-1.92025">
        <ele>-0.83</ele>
        <time>2020-05-23T11:53:13Z</time>
      </trkpt>
      <trkpt lat="47.26121" lon="-1.92008">
        <ele>-0.52</ele>
        <time>2020-05-23T11:53:15Z</time>
      </trkpt>
      <trkpt lat="47.26112" lon="-1.91991">
        <ele>-0.1</ele>
        <time>2020-05-23T11:53:17Z</time>
      </trkpt>
      <trkpt lat="47.26108" lon="-1.91975">
        <ele>0.94</ele>
        <time>2020-05-23T11:53:19Z</time>
      </trkpt>
      <trkpt lat="47.26104" lon="-1.91953">
        <ele>2.42</ele>
        <time>2020-05-23T11:53:21Z</time>
      </trkpt>
      <trkpt lat="47.26099" lon="-1.91942">
        <ele>2.79</ele>
        <time>2020-05-23T11:53:22Z</time>
      </trkpt>
      <trkpt lat="47.2609" lon="-1.91924">
        <ele>3.32</ele>
        <time>2020-05-23T11:53:24Z</time>
      </trkpt>
      <trkpt lat="47.26079" lon="-1.91906">
        <ele>2.98</ele>
        <time>2020-05-23T11:53:26Z</time>
      </trkpt>
      <trkpt lat="47.2607" lon="-1.91891">
        <ele>2.22</ele>
        <time>2020-05-23T11:53:28Z</time>
      </trkpt>
      <trkpt lat="47.26063" lon="-1.91878">
        <ele>1.51</ele>
        <time>2020-05-23T11:53:30Z</time>
      </trkpt>
      <trkpt lat="47.26057" lon="-1.9186">
        <ele>0.74</ele>
        <time>2020-05-23T11:53:32Z</time>
      </trkpt>
      <trkpt lat="47.2605" lon="-1.91841">
        <ele>-0.61</ele>
        <time>2020-05-23T11:53:34Z</time>
      </trkpt>
      <trkpt lat="47.26043" lon="-1.91821">
        <ele>-2.07</ele>
        <time>2020-05-23T11:53:36Z</time>
      </trkpt>
      <trkpt lat="47.26034" lon="-1.91803">
        <ele>-3.07</ele>
        <time>2020-05-23T11:53:38Z</time>
      </trkpt>
      <trkpt lat="47.26026" lon="-1.91784">
        <ele>-3.08</ele>
        <time>2020-05-23T11:53:40Z</time>
      </trkpt>
      <trkpt lat="47.26017" lon="-1.91766">
        <ele>-2.48</ele>
        <time>2020-05-23T11:53:42Z</time>
      </trkpt>
      <trkpt lat="47.26009" lon="-1.91748">
        <ele>-1.71</ele>
        <time>2020-05-23T11:53:44Z</time>
      </trkpt>
      <trkpt lat="47.25999" lon="-1.91729">
        <ele>-1.03</ele>
        <time>2020-05-23T11:53:46Z</time>
      </trkpt>
      <trkpt lat="47.25989" lon="-1.91711">
        <ele>-1.03</ele>
        <time>2020-05-23T11:53:48Z</time>
      </trkpt>
      <trkpt lat="47.25979" lon="-1.91692">
        <ele>-1.6</ele>
        <time>2020-05-23T11:53:50Z</time>
      </trkpt>
      <trkpt lat="47.25969" lon="-1.91673">
        <ele>-2.38</ele>
        <time>2020-05-23T11:53:52Z</time>
      </trkpt>
      <trkpt lat="47.2596" lon="-1.91656">
        <ele>-2.62</ele>
        <time>2020-05-23T11:53:54Z</time>
      </trkpt>
      <trkpt lat="47.25952" lon="-1.9164">
        <ele>-2.43</ele>
        <time>2020-05-23T11:53:56Z</time>
      </trkpt>
      <trkpt lat="47.25943" lon="-1.91623">
        <ele>-2.82</ele>
        <time>2020-05-23T11:53:58Z</time>
      </trkpt>
      <trkpt lat="47.25934" lon="-1.91607">
        <ele>-2.79</ele>
        <time>2020-05-23T11:54:00Z</time>
      </trkpt>
      <trkpt lat="47.25926" lon="-1.9159">
        <ele>-2.17</ele>
        <time>2020-05-23T11:54:02Z</time>
      </trkpt>
      <trkpt lat="47.25917" lon="-1.91574">
        <ele>-1.78</ele>
        <time>2020-05-23T11:54:04Z</time>
      </trkpt>
      <trkpt lat="47.25908" lon="-1.91556">
        <ele>-1.98</ele>
        <time>2020-05-23T11:54:06Z</time>
      </trkpt>
      <trkpt lat="47.25899" lon="-1.91541">
        <ele>-2.03</ele>
        <time>2020-05-23T11:54:08Z</time>
      </trkpt>
      <trkpt lat="47.25889" lon="-1.91523">
        <ele>-2.56</ele>
        <time>2020-05-23T11:54:10Z</time>
      </trkpt>
      <trkpt lat="47.25879" lon="-1.91505">
        <ele>-3.26</ele>
        <time>2020-05-23T11:54:12Z</time>
      </trkpt>
      <trkpt lat="47.25871" lon="-1.91487">
        <ele>-3.42</ele>
        <time>2020-05-23T11:54:14Z</time>
      </trkpt>
      <trkpt lat="47.2586" lon="-1.9147">
        <ele>-2.6</ele>
        <time>2020-05-23T11:54:16Z</time>
      </trkpt>
      <trkpt lat="47.25849" lon="-1.91456">
        <ele>-1.5</ele>
        <time>2020-05-23T11:54:18Z</time>
      </trkpt>
      <trkpt lat="47.25839" lon="-1.91437">
        <ele>-1.16</ele>
        <time>2020-05-23T11:54:20Z</time>
      </trkpt>
      <trkpt lat="47.25834" lon="-1.91426">
        <ele>-1.29</ele>
        <time>2020-05-23T11:54:21Z</time>
      </trkpt>
      <trkpt lat="47.25824" lon="-1.91407">
        <ele>-1.63</ele>
        <time>2020-05-23T11:54:23Z</time>
      </trkpt>
      <trkpt lat="47.25814" lon="-1.91387">
        <ele>-1.7</ele>
        <time>2020-05-23T11:54:25Z</time>
      </trkpt>
      <trkpt lat="47.25803" lon="-1.91369">
        <ele>-1.97</ele>
        <time>2020-05-23T11:54:27Z</time>
      </trkpt>
      <trkpt lat="47.2579" lon="-1.9135">
        <ele>-2.71</ele>
        <time>2020-05-23T11:54:29Z</time>
      </trkpt>
      <trkpt lat="47.2578" lon="-1.91332">
        <ele>-3.13</ele>
        <time>2020-05-23T11:54:31Z</time>
      </trkpt>
      <trkpt lat="47.25775" lon="-1.9132">
        <ele>-3.72</ele>
        <time>2020-05-23T11:54:32Z</time>
      </trkpt>
      <trkpt lat="47.25765" lon="-1.913">
        <ele>-4.82</ele>
        <time>2020-05-23T11:54:34Z</time>
      </trkpt>
      <trkpt lat="47.25755" lon="-1.91282">
        <ele>-6.17</ele>
        <time>2020-05-23T11:54:36Z</time>
      </trkpt>
      <trkpt lat="47.25746" lon="-1.91266">
        <ele>-6.66</ele>
        <time>2020-05-23T11:54:38Z</time>
      </trkpt>
      <trkpt lat="47.2574" lon="-1.91255">
        <ele>-7.05</ele>
        <time>2020-05-23T11:54:39Z</time>
      </trkpt>
      <trkpt lat="47.25734" lon="-1.91245">
        <ele>-7.37</ele>
        <time>2020-05-23T11:54:40Z</time>
      </trkpt>
      <trkpt lat="47.25728" lon="-1.91234">
        <ele>-7.62</ele>
        <time>2020-05-23T11:54:41Z</time>
      </trkpt>
      <trkpt lat="47.25722" lon="-1.91224">
        <ele>-8.46</ele>
        <time>2020-05-23T11:54:42Z</time>
      </trkpt>
      <trkpt lat="47.25713" lon="-1.91206">
        <ele>-9.74</ele>
        <time>2020-05-23T11:54:44Z</time>
      </trkpt>
      <trkpt lat="47.25702" lon="-1.91187">
        <ele>-9.9</ele>
        <time>2020-05-23T11:54:46Z</time>
      </trkpt>
      <trkpt lat="47.25692" lon="-1.91167">
        <ele>-9.14</ele>
        <time>2020-05-23T11:54:48Z</time>
      </trkpt>
      <trkpt lat="47.25682" lon="-1.91149">
        <ele>-7.84</ele>
        <time>2020-05-23T11:54:50Z</time>
      </trkpt>
      <trkpt lat="47.25672" lon="-1.91129">
        <ele>-6.65</ele>
        <time>2020-05-23T11:54:52Z</time>
      </trkpt>
      <trkpt lat="47.25661" lon="-1.91111">
        <ele>-5.65</ele>
        <time>2020-05-23T11:54:54Z</time>
      </trkpt>
      <trkpt lat="47.25652" lon="-1.91092">
        <ele>-5.21</ele>
        <time>2020-05-23T11:54:56Z</time>
      </trkpt>
      <trkpt lat="47.25641" lon="-1.91074">
        <ele>-5.33</ele>
        <time>2020-05-23T11:54:58Z</time>
      </trkpt>
      <trkpt lat="47.25631" lon="-1.91056">
        <ele>-5.26</ele>
        <time>2020-05-23T11:55:00Z</time>
      </trkpt>
      <trkpt lat="47.25621" lon="-1.91039">
        <ele>-5.09</ele>
        <time>2020-05-23T11:55:02Z</time>
      </trkpt>
      <trkpt lat="47.25613" lon="-1.91022">
        <ele>-4.91</ele>
        <time>2020-05-23T11:55:04Z</time>
      </trkpt>
      <trkpt lat="47.25603" lon="-1.91005">
        <ele>-5.18</ele>
        <time>2020-05-23T11:55:06Z</time>
      </trkpt>
      <trkpt lat="47.25594" lon="-1.9099">
        <ele>-4.7</ele>
        <time>2020-05-23T11:55:08Z</time>
      </trkpt>
      <trkpt lat="47.25584" lon="-1.90973">
        <ele>-4.16</ele>
        <time>2020-05-23T11:55:10Z</time>
      </trkpt>
      <trkpt lat="47.25575" lon="-1.90955">
        <ele>-2.42</ele>
        <time>2020-05-23T11:55:12Z</time>
      </trkpt>
      <trkpt lat="47.25566" lon="-1.90939">
        <ele>-0.48</ele>
        <time>2020-05-23T11:55:14Z</time>
      </trkpt>
      <trkpt lat="47.25557" lon="-1.90922">
        <ele>1.28</ele>
        <time>2020-05-23T11:55:16Z</time>
      </trkpt>
      <trkpt lat="47.25548" lon="-1.90905">
        <ele>2.53</ele>
        <time>2020-05-23T11:55:18Z</time>
      </trkpt>
      <trkpt lat="47.25538" lon="-1.90886">
        <ele>2.61</ele>
        <time>2020-05-23T11:55:20Z</time>
      </trkpt>
      <trkpt lat="47.25528" lon="-1.90867">
        <ele>2.08</ele>
        <time>2020-05-23T11:55:22Z</time>
      </trkpt>
      <trkpt lat="47.2552" lon="-1.90851">
        <ele>1.85</ele>
        <time>2020-05-23T11:55:24Z</time>
      </trkpt>
      <trkpt lat="47.2551" lon="-1.90834">
        <ele>1.72</ele>
        <time>2020-05-23T11:55:26Z</time>
      </trkpt>
      <trkpt lat="47.255" lon="-1.90817">
        <ele>1.87</ele>
        <time>2020-05-23T11:55:28Z</time>
      </trkpt>
      <trkpt lat="47.25492" lon="-1.90802">
        <ele>1.38</ele>
        <time>2020-05-23T11:55:30Z</time>
      </trkpt>
      <trkpt lat="47.25483" lon="-1.90786">
        <ele>0.88</ele>
        <time>2020-05-23T11:55:32Z</time>
      </trkpt>
      <trkpt lat="47.25474" lon="-1.90768">
        <ele>0.66</ele>
        <time>2020-05-23T11:55:34Z</time>
      </trkpt>
      <trkpt lat="47.25464" lon="-1.90749">
        <ele>0.55</ele>
        <time>2020-05-23T11:55:36Z</time>
      </trkpt>
      <trkpt lat="47.25455" lon="-1.90732">
        <ele>0.37</ele>
        <time>2020-05-23T11:55:38Z</time>
      </trkpt>
      <trkpt lat="47.25446" lon="-1.90716">
        <ele>0.25</ele>
        <time>2020-05-23T11:55:40Z</time>
      </trkpt>
      <trkpt lat="47.25436" lon="-1.90698">
        <ele>-0.13</ele>
        <time>2020-05-23T11:55:42Z</time>
      </trkpt>
      <trkpt lat="47.25427" lon="-1.90682">
        <ele>0.75</ele>
        <time>2020-05-23T11:55:44Z</time>
      </trkpt>
      <trkpt lat="47.25418" lon="-1.90665">
        <ele>1.65</ele>
        <time>2020-05-23T11:55:46Z</time>
      </trkpt>
      <trkpt lat="47.25409" lon="-1.90649">
        <ele>1.93</ele>
        <time>2020-05-23T11:55:48Z</time>
      </trkpt>
      <trkpt lat="47.25401" lon="-1.90633">
        <ele>2.39</ele>
        <time>2020-05-23T11:55:50Z</time>
      </trkpt>
      <trkpt lat="47.2539" lon="-1.90615">
        <ele>2.26</ele>
        <time>2020-05-23T11:55:52Z</time>
      </trkpt>
      <trkpt lat="47.25381" lon="-1.90599">
        <ele>1.96</ele>
        <time>2020-05-23T11:55:54Z</time>
      </trkpt>
      <trkpt lat="47.25372" lon="-1.90582">
        <ele>1.6</ele>
        <time>2020-05-23T11:55:56Z</time>
      </trkpt>
      <trkpt lat="47.25363" lon="-1.90566">
        <ele>0.83</ele>
        <time>2020-05-23T11:55:58Z</time>
      </trkpt>
      <trkpt lat="47.25355" lon="-1.90551">
        <ele>1.26</ele>
        <time>2020-05-23T11:56:00Z</time>
      </trkpt>
      <trkpt lat="47.25345" lon="-1.90533">
        <ele>2.13</ele>
        <time>2020-05-23T11:56:02Z</time>
      </trkpt>
      <trkpt lat="47.25335" lon="-1.90517">
        <ele>2.7</ele>
        <time>2020-05-23T11:56:04Z</time>
      </trkpt>
      <trkpt lat="47.25326" lon="-1.905">
        <ele>2.89</ele>
        <time>2020-05-23T11:56:06Z</time>
      </trkpt>
      <trkpt lat="47.25317" lon="-1.90483">
        <ele>3.57</ele>
        <time>2020-05-23T11:56:08Z</time>
      </trkpt>
      <trkpt lat="47.25308" lon="-1.90465">
        <ele>3.21</ele>
        <time>2020-05-23T11:56:10Z</time>
      </trkpt>
      <trkpt lat="47.25298" lon="-1.90447">
        <ele>1.66</ele>
        <time>2020-05-23T11:56:12Z</time>
      </trkpt>
      <trkpt lat="47.25289" lon="-1.90431">
        <ele>0.47</ele>
        <time>2020-05-23T11:56:14Z</time>
      </trkpt>
      <trkpt lat="47.2528" lon="-1.90417">
        <ele>-0.18</ele>
        <time>2020-05-23T11:56:16Z</time>
      </trkpt>
      <trkpt lat="47.25271" lon="-1.90401">
        <ele>-0.54</ele>
        <time>2020-05-23T11:56:18Z</time>
      </trkpt>
      <trkpt lat="47.25262" lon="-1.90384">
        <ele>-0.71</ele>
        <time>2020-05-23T11:56:20Z</time>
      </trkpt>
      <trkpt lat="47.25253" lon="-1.90368">
        <ele>-1.31</ele>
        <time>2020-05-23T11:56:22Z</time>
      </trkpt>
      <trkpt lat="47.25244" lon="-1.90352">
        <ele>-2.08</ele>
        <time>2020-05-23T11:56:25Z</time>
      </trkpt>
      <trkpt lat="47.25235" lon="-1.90336">
        <ele>-2.51</ele>
        <time>2020-05-23T11:56:26Z</time>
      </trkpt>
      <trkpt lat="47.25225" lon="-1.90319">
        <ele>-2.45</ele>
        <time>2020-05-23T11:56:28Z</time>
      </trkpt>
      <trkpt lat="47.25216" lon="-1.90303">
        <ele>-2.45</ele>
        <time>2020-05-23T11:56:30Z</time>
      </trkpt>
      <trkpt lat="47.25208" lon="-1.90287">
        <ele>-2.4</ele>
        <time>2020-05-23T11:56:32Z</time>
      </trkpt>
      <trkpt lat="47.25199" lon="-1.90271">
        <ele>-2.13</ele>
        <time>2020-05-23T11:56:34Z</time>
      </trkpt>
      <trkpt lat="47.2519" lon="-1.90254">
        <ele>-1.64</ele>
        <time>2020-05-23T11:56:36Z</time>
      </trkpt>
      <trkpt lat="47.25181" lon="-1.90238">
        <ele>-1.3</ele>
        <time>2020-05-23T11:56:38Z</time>
      </trkpt>
      <trkpt lat="47.25172" lon="-1.90221">
        <ele>-0.93</ele>
        <time>2020-05-23T11:56:40Z</time>
      </trkpt>
      <trkpt lat="47.25163" lon="-1.90204">
        <ele>-0.98</ele>
        <time>2020-05-23T11:56:42Z</time>
      </trkpt>
      <trkpt lat="47.25154" lon="-1.90186">
        <ele>-0.14</ele>
        <time>2020-05-23T11:56:44Z</time>
      </trkpt>
      <trkpt lat="47.25144" lon="-1.90169">
        <ele>0.78</ele>
        <time>2020-05-23T11:56:47Z</time>
      </trkpt>
      <trkpt lat="47.25135" lon="-1.90151">
        <ele>2.56</ele>
        <time>2020-05-23T11:56:49Z</time>
      </trkpt>
      <trkpt lat="47.25125" lon="-1.90135">
        <ele>4.17</ele>
        <time>2020-05-23T11:56:51Z</time>
      </trkpt>
      <trkpt lat="47.25114" lon="-1.90119">
        <ele>5.83</ele>
        <time>2020-05-23T11:56:53Z</time>
      </trkpt>
      <trkpt lat="47.251" lon="-1.90107">
        <ele>6.05</ele>
        <time>2020-05-23T11:56:55Z</time>
      </trkpt>
      <trkpt lat="47.25086" lon="-1.90098">
        <ele>5.74</ele>
        <time>2020-05-23T11:56:57Z</time>
      </trkpt>
      <trkpt lat="47.25072" lon="-1.90094">
        <ele>5.33</ele>
        <time>2020-05-23T11:56:59Z</time>
      </trkpt>
      <trkpt lat="47.25059" lon="-1.90084">
        <ele>5.6</ele>
        <time>2020-05-23T11:57:01Z</time>
      </trkpt>
      <trkpt lat="47.25048" lon="-1.90074">
        <ele>6.44</ele>
        <time>2020-05-23T11:57:03Z</time>
      </trkpt>
      <trkpt lat="47.25038" lon="-1.90057">
        <ele>7.28</ele>
        <time>2020-05-23T11:57:05Z</time>
      </trkpt>
      <trkpt lat="47.25028" lon="-1.90039">
        <ele>7.22</ele>
        <time>2020-05-23T11:57:07Z</time>
      </trkpt>
      <trkpt lat="47.2502" lon="-1.90022">
        <ele>7.86</ele>
        <time>2020-05-23T11:57:09Z</time>
      </trkpt>
      <trkpt lat="47.25013" lon="-1.90005">
        <ele>9.04</ele>
        <time>2020-05-23T11:57:11Z</time>
      </trkpt>
      <trkpt lat="47.25004" lon="-1.89984">
        <ele>9.28</ele>
        <time>2020-05-23T11:57:13Z</time>
      </trkpt>
      <trkpt lat="47.24995" lon="-1.89965">
        <ele>10.4</ele>
        <time>2020-05-23T11:57:15Z</time>
      </trkpt>
      <trkpt lat="47.24987" lon="-1.89949">
        <ele>10.68</ele>
        <time>2020-05-23T11:57:17Z</time>
      </trkpt>
      <trkpt lat="47.24979" lon="-1.89931">
        <ele>9.66</ele>
        <time>2020-05-23T11:57:19Z</time>
      </trkpt>
      <trkpt lat="47.24972" lon="-1.89914">
        <ele>8.94</ele>
        <time>2020-05-23T11:57:21Z</time>
      </trkpt>
      <trkpt lat="47.24969" lon="-1.89893">
        <ele>8.88</ele>
        <time>2020-05-23T11:57:23Z</time>
      </trkpt>
      <trkpt lat="47.24967" lon="-1.89873">
        <ele>8</ele>
        <time>2020-05-23T11:57:25Z</time>
      </trkpt>
      <trkpt lat="47.24968" lon="-1.89849">
        <ele>6.95</ele>
        <time>2020-05-23T11:57:27Z</time>
      </trkpt>
      <trkpt lat="47.24969" lon="-1.8983">
        <ele>6.92</ele>
        <time>2020-05-23T11:57:29Z</time>
      </trkpt>
      <trkpt lat="47.24966" lon="-1.8981">
        <ele>5.73</ele>
        <time>2020-05-23T11:57:31Z</time>
      </trkpt>
      <trkpt lat="47.24959" lon="-1.8979">
        <ele>4.44</ele>
        <time>2020-05-23T11:57:33Z</time>
      </trkpt>
      <trkpt lat="47.24955" lon="-1.89778">
        <ele>3.87</ele>
        <time>2020-05-23T11:57:34Z</time>
      </trkpt>
      <trkpt lat="47.24947" lon="-1.89759">
        <ele>3.11</ele>
        <time>2020-05-23T11:57:36Z</time>
      </trkpt>
      <trkpt lat="47.24939" lon="-1.89741">
        <ele>3.35</ele>
        <time>2020-05-23T11:57:38Z</time>
      </trkpt>
      <trkpt lat="47.24931" lon="-1.89722">
        <ele>3.61</ele>
        <time>2020-05-23T11:57:40Z</time>
      </trkpt>
      <trkpt lat="47.24924" lon="-1.89702">
        <ele>5.05</ele>
        <time>2020-05-23T11:57:42Z</time>
      </trkpt>
      <trkpt lat="47.24917" lon="-1.89683">
        <ele>6.85</ele>
        <time>2020-05-23T11:57:44Z</time>
      </trkpt>
      <trkpt lat="47.24909" lon="-1.89665">
        <ele>7.57</ele>
        <time>2020-05-23T11:57:46Z</time>
      </trkpt>
      <trkpt lat="47.24903" lon="-1.8965">
        <ele>8.25</ele>
        <time>2020-05-23T11:57:48Z</time>
      </trkpt>
      <trkpt lat="47.24895" lon="-1.89632">
        <ele>9.13</ele>
        <time>2020-05-23T11:57:50Z</time>
      </trkpt>
      <trkpt lat="47.24888" lon="-1.89613">
        <ele>9.14</ele>
        <time>2020-05-23T11:57:52Z</time>
      </trkpt>
      <trkpt lat="47.24881" lon="-1.89596">
        <ele>8.95</ele>
        <time>2020-05-23T11:57:54Z</time>
      </trkpt>
      <trkpt lat="47.24873" lon="-1.89578">
        <ele>8.7</ele>
        <time>2020-05-23T11:57:56Z</time>
      </trkpt>
      <trkpt lat="47.24866" lon="-1.89558">
        <ele>9.02</ele>
        <time>2020-05-23T11:57:58Z</time>
      </trkpt>
      <trkpt lat="47.24857" lon="-1.89537">
        <ele>8.73</ele>
        <time>2020-05-23T11:58:00Z</time>
      </trkpt>
      <trkpt lat="47.2485" lon="-1.89517">
        <ele>9.2</ele>
        <time>2020-05-23T11:58:02Z</time>
      </trkpt>
      <trkpt lat="47.24842" lon="-1.89497">
        <ele>10.08</ele>
        <time>2020-05-23T11:58:04Z</time>
      </trkpt>
      <trkpt lat="47.24835" lon="-1.89478">
        <ele>10</ele>
        <time>2020-05-23T11:58:06Z</time>
      </trkpt>
      <trkpt lat="47.24827" lon="-1.89459">
        <ele>9.13</ele>
        <time>2020-05-23T11:58:08Z</time>
      </trkpt>
      <trkpt lat="47.24818" lon="-1.89439">
        <ele>8.99</ele>
        <time>2020-05-23T11:58:10Z</time>
      </trkpt>
      <trkpt lat="47.24811" lon="-1.89421">
        <ele>9.14</ele>
        <time>2020-05-23T11:58:12Z</time>
      </trkpt>
      <trkpt lat="47.24804" lon="-1.89403">
        <ele>9.46</ele>
        <time>2020-05-23T11:58:14Z</time>
      </trkpt>
      <trkpt lat="47.24796" lon="-1.89382">
        <ele>9.88</ele>
        <time>2020-05-23T11:58:16Z</time>
      </trkpt>
      <trkpt lat="47.24788" lon="-1.89362">
        <ele>10.16</ele>
        <time>2020-05-23T11:58:18Z</time>
      </trkpt>
      <trkpt lat="47.24783" lon="-1.8935">
        <ele>9.98</ele>
        <time>2020-05-23T11:58:19Z</time>
      </trkpt>
      <trkpt lat="47.24775" lon="-1.89332">
        <ele>9.83</ele>
        <time>2020-05-23T11:58:21Z</time>
      </trkpt>
      <trkpt lat="47.24767" lon="-1.89312">
        <ele>8.97</ele>
        <time>2020-05-23T11:58:23Z</time>
      </trkpt>
      <trkpt lat="47.24759" lon="-1.89291">
        <ele>8.42</ele>
        <time>2020-05-23T11:58:25Z</time>
      </trkpt>
      <trkpt lat="47.24751" lon="-1.89271">
        <ele>7.98</ele>
        <time>2020-05-23T11:58:27Z</time>
      </trkpt>
      <trkpt lat="47.24742" lon="-1.8925">
        <ele>8.18</ele>
        <time>2020-05-23T11:58:29Z</time>
      </trkpt>
      <trkpt lat="47.24735" lon="-1.89232">
        <ele>8.58</ele>
        <time>2020-05-23T11:58:31Z</time>
      </trkpt>
      <trkpt lat="47.24727" lon="-1.89213">
        <ele>8.39</ele>
        <time>2020-05-23T11:58:33Z</time>
      </trkpt>
      <trkpt lat="47.2472" lon="-1.89195">
        <ele>7.87</ele>
        <time>2020-05-23T11:58:35Z</time>
      </trkpt>
      <trkpt lat="47.24712" lon="-1.89175">
        <ele>7.62</ele>
        <time>2020-05-23T11:58:37Z</time>
      </trkpt>
      <trkpt lat="47.24704" lon="-1.89155">
        <ele>7.55</ele>
        <time>2020-05-23T11:58:39Z</time>
      </trkpt>
      <trkpt lat="47.24696" lon="-1.89132">
        <ele>7.75</ele>
        <time>2020-05-23T11:58:41Z</time>
      </trkpt>
      <trkpt lat="47.24688" lon="-1.89112">
        <ele>7.64</ele>
        <time>2020-05-23T11:58:43Z</time>
      </trkpt>
      <trkpt lat="47.2468" lon="-1.89093">
        <ele>7.49</ele>
        <time>2020-05-23T11:58:45Z</time>
      </trkpt>
      <trkpt lat="47.24672" lon="-1.89074">
        <ele>6.89</ele>
        <time>2020-05-23T11:58:47Z</time>
      </trkpt>
      <trkpt lat="47.24663" lon="-1.89054">
        <ele>6.12</ele>
        <time>2020-05-23T11:58:49Z</time>
      </trkpt>
      <trkpt lat="47.24655" lon="-1.89034">
        <ele>5.91</ele>
        <time>2020-05-23T11:58:51Z</time>
      </trkpt>
      <trkpt lat="47.24648" lon="-1.89013">
        <ele>5.77</ele>
        <time>2020-05-23T11:58:53Z</time>
      </trkpt>
      <trkpt lat="47.2464" lon="-1.88995">
        <ele>6.16</ele>
        <time>2020-05-23T11:58:55Z</time>
      </trkpt>
      <trkpt lat="47.24632" lon="-1.88974">
        <ele>6.01</ele>
        <time>2020-05-23T11:58:57Z</time>
      </trkpt>
      <trkpt lat="47.24623" lon="-1.88953">
        <ele>5.33</ele>
        <time>2020-05-23T11:58:59Z</time>
      </trkpt>
      <trkpt lat="47.24616" lon="-1.88935">
        <ele>5.05</ele>
        <time>2020-05-23T11:59:01Z</time>
      </trkpt>
      <trkpt lat="47.24609" lon="-1.88916">
        <ele>5.45</ele>
        <time>2020-05-23T11:59:03Z</time>
      </trkpt>
      <trkpt lat="47.246" lon="-1.88893">
        <ele>4.96</ele>
        <time>2020-05-23T11:59:05Z</time>
      </trkpt>
      <trkpt lat="47.24592" lon="-1.88872">
        <ele>4.62</ele>
        <time>2020-05-23T11:59:07Z</time>
      </trkpt>
      <trkpt lat="47.24584" lon="-1.8885">
        <ele>5.32</ele>
        <time>2020-05-23T11:59:09Z</time>
      </trkpt>
      <trkpt lat="47.24576" lon="-1.88831">
        <ele>6.24</ele>
        <time>2020-05-23T11:59:11Z</time>
      </trkpt>
      <trkpt lat="47.24569" lon="-1.88813">
        <ele>7.4</ele>
        <time>2020-05-23T11:59:13Z</time>
      </trkpt>
      <trkpt lat="47.24561" lon="-1.88794">
        <ele>7.2</ele>
        <time>2020-05-23T11:59:15Z</time>
      </trkpt>
      <trkpt lat="47.24553" lon="-1.88774">
        <ele>7.21</ele>
        <time>2020-05-23T11:59:17Z</time>
      </trkpt>
      <trkpt lat="47.24544" lon="-1.88753">
        <ele>7.31</ele>
        <time>2020-05-23T11:59:19Z</time>
      </trkpt>
      <trkpt lat="47.24536" lon="-1.88732">
        <ele>7.44</ele>
        <time>2020-05-23T11:59:21Z</time>
      </trkpt>
      <trkpt lat="47.24527" lon="-1.8871">
        <ele>7.19</ele>
        <time>2020-05-23T11:59:23Z</time>
      </trkpt>
      <trkpt lat="47.24519" lon="-1.88691">
        <ele>6.76</ele>
        <time>2020-05-23T11:59:25Z</time>
      </trkpt>
      <trkpt lat="47.24511" lon="-1.88674">
        <ele>6.05</ele>
        <time>2020-05-23T11:59:27Z</time>
      </trkpt>
      <trkpt lat="47.24503" lon="-1.88655">
        <ele>5.05</ele>
        <time>2020-05-23T11:59:29Z</time>
      </trkpt>
      <trkpt lat="47.24494" lon="-1.88635">
        <ele>3.99</ele>
        <time>2020-05-23T11:59:31Z</time>
      </trkpt>
      <trkpt lat="47.24486" lon="-1.88617">
        <ele>4.05</ele>
        <time>2020-05-23T11:59:33Z</time>
      </trkpt>
      <trkpt lat="47.24478" lon="-1.88598">
        <ele>4.46</ele>
        <time>2020-05-23T11:59:35Z</time>
      </trkpt>
      <trkpt lat="47.24471" lon="-1.88581">
        <ele>5.3</ele>
        <time>2020-05-23T11:59:37Z</time>
      </trkpt>
      <trkpt lat="47.24463" lon="-1.88562">
        <ele>5.62</ele>
        <time>2020-05-23T11:59:39Z</time>
      </trkpt>
      <trkpt lat="47.24455" lon="-1.88542">
        <ele>5.99</ele>
        <time>2020-05-23T11:59:41Z</time>
      </trkpt>
      <trkpt lat="47.24447" lon="-1.88523">
        <ele>6.73</ele>
        <time>2020-05-23T11:59:43Z</time>
      </trkpt>
      <trkpt lat="47.24438" lon="-1.88502">
        <ele>6.86</ele>
        <time>2020-05-23T11:59:45Z</time>
      </trkpt>
      <trkpt lat="47.24429" lon="-1.88483">
        <ele>6.63</ele>
        <time>2020-05-23T11:59:47Z</time>
      </trkpt>
      <trkpt lat="47.2442" lon="-1.88462">
        <ele>6</ele>
        <time>2020-05-23T11:59:49Z</time>
      </trkpt>
      <trkpt lat="47.24411" lon="-1.88443">
        <ele>5.56</ele>
        <time>2020-05-23T11:59:51Z</time>
      </trkpt>
      <trkpt lat="47.24402" lon="-1.88423">
        <ele>5.42</ele>
        <time>2020-05-23T11:59:53Z</time>
      </trkpt>
      <trkpt lat="47.24394" lon="-1.88405">
        <ele>5.84</ele>
        <time>2020-05-23T11:59:55Z</time>
      </trkpt>
      <trkpt lat="47.24385" lon="-1.88384">
        <ele>6.77</ele>
        <time>2020-05-23T11:59:57Z</time>
      </trkpt>
      <trkpt lat="47.24375" lon="-1.88363">
        <ele>7.33</ele>
        <time>2020-05-23T11:59:59Z</time>
      </trkpt>
      <trkpt lat="47.24366" lon="-1.88343">
        <ele>6.59</ele>
        <time>2020-05-23T12:00:01Z</time>
      </trkpt>
      <trkpt lat="47.24357" lon="-1.88324">
        <ele>6.48</ele>
        <time>2020-05-23T12:00:03Z</time>
      </trkpt>
      <trkpt lat="47.24348" lon="-1.88306">
        <ele>6.83</ele>
        <time>2020-05-23T12:00:05Z</time>
      </trkpt>
      <trkpt lat="47.24338" lon="-1.88284">
        <ele>7.32</ele>
        <time>2020-05-23T12:00:07Z</time>
      </trkpt>
      <trkpt lat="47.24329" lon="-1.88265">
        <ele>8.09</ele>
        <time>2020-05-23T12:00:09Z</time>
      </trkpt>
      <trkpt lat="47.24319" lon="-1.88245">
        <ele>8.28</ele>
        <time>2020-05-23T12:00:11Z</time>
      </trkpt>
      <trkpt lat="47.2431" lon="-1.88224">
        <ele>8.51</ele>
        <time>2020-05-23T12:00:13Z</time>
      </trkpt>
      <trkpt lat="47.24301" lon="-1.88206">
        <ele>8.33</ele>
        <time>2020-05-23T12:00:15Z</time>
      </trkpt>
      <trkpt lat="47.24293" lon="-1.88187">
        <ele>8.36</ele>
        <time>2020-05-23T12:00:17Z</time>
      </trkpt>
      <trkpt lat="47.24283" lon="-1.88169">
        <ele>8.25</ele>
        <time>2020-05-23T12:00:19Z</time>
      </trkpt>
      <trkpt lat="47.24274" lon="-1.88151">
        <ele>8.54</ele>
        <time>2020-05-23T12:00:21Z</time>
      </trkpt>
      <trkpt lat="47.24265" lon="-1.88135">
        <ele>8.68</ele>
        <time>2020-05-23T12:00:23Z</time>
      </trkpt>
      <trkpt lat="47.24256" lon="-1.88116">
        <ele>8.52</ele>
        <time>2020-05-23T12:00:25Z</time>
      </trkpt>
      <trkpt lat="47.24247" lon="-1.88099">
        <ele>7.97</ele>
        <time>2020-05-23T12:00:27Z</time>
      </trkpt>
      <trkpt lat="47.24238" lon="-1.88081">
        <ele>7.4</ele>
        <time>2020-05-23T12:00:29Z</time>
      </trkpt>
      <trkpt lat="47.24229" lon="-1.88063">
        <ele>6.67</ele>
        <time>2020-05-23T12:00:31Z</time>
      </trkpt>
      <trkpt lat="47.24219" lon="-1.88044">
        <ele>6.07</ele>
        <time>2020-05-23T12:00:33Z</time>
      </trkpt>
      <trkpt lat="47.2421" lon="-1.88026">
        <ele>6.07</ele>
        <time>2020-05-23T12:00:35Z</time>
      </trkpt>
      <trkpt lat="47.24201" lon="-1.88006">
        <ele>5.86</ele>
        <time>2020-05-23T12:00:37Z</time>
      </trkpt>
      <trkpt lat="47.24191" lon="-1.87985">
        <ele>5.8</ele>
        <time>2020-05-23T12:00:39Z</time>
      </trkpt>
      <trkpt lat="47.24182" lon="-1.87967">
        <ele>5.9</ele>
        <time>2020-05-23T12:00:41Z</time>
      </trkpt>
      <trkpt lat="47.24173" lon="-1.8795">
        <ele>5.84</ele>
        <time>2020-05-23T12:00:43Z</time>
      </trkpt>
      <trkpt lat="47.24165" lon="-1.87934">
        <ele>6.15</ele>
        <time>2020-05-23T12:00:45Z</time>
      </trkpt>
      <trkpt lat="47.24155" lon="-1.87916">
        <ele>6.27</ele>
        <time>2020-05-23T12:00:47Z</time>
      </trkpt>
      <trkpt lat="47.24146" lon="-1.87899">
        <ele>5.54</ele>
        <time>2020-05-23T12:00:49Z</time>
      </trkpt>
      <trkpt lat="47.24136" lon="-1.8788">
        <ele>4.6</ele>
        <time>2020-05-23T12:00:51Z</time>
      </trkpt>
      <trkpt lat="47.24126" lon="-1.87861">
        <ele>4.16</ele>
        <time>2020-05-23T12:00:53Z</time>
      </trkpt>
      <trkpt lat="47.24118" lon="-1.87843">
        <ele>4.36</ele>
        <time>2020-05-23T12:00:55Z</time>
      </trkpt>
      <trkpt lat="47.24109" lon="-1.87824">
        <ele>5.38</ele>
        <time>2020-05-23T12:00:57Z</time>
      </trkpt>
      <trkpt lat="47.241" lon="-1.87806">
        <ele>6.64</ele>
        <time>2020-05-23T12:00:59Z</time>
      </trkpt>
      <trkpt lat="47.24091" lon="-1.87789">
        <ele>7.46</ele>
        <time>2020-05-23T12:01:01Z</time>
      </trkpt>
      <trkpt lat="47.24083" lon="-1.87771">
        <ele>8.07</ele>
        <time>2020-05-23T12:01:03Z</time>
      </trkpt>
      <trkpt lat="47.24074" lon="-1.87752">
        <ele>7.85</ele>
        <time>2020-05-23T12:01:05Z</time>
      </trkpt>
      <trkpt lat="47.24065" lon="-1.87733">
        <ele>8.47</ele>
        <time>2020-05-23T12:01:07Z</time>
      </trkpt>
      <trkpt lat="47.24055" lon="-1.87714">
        <ele>8.22</ele>
        <time>2020-05-23T12:01:09Z</time>
      </trkpt>
      <trkpt lat="47.24046" lon="-1.87696">
        <ele>7.64</ele>
        <time>2020-05-23T12:01:11Z</time>
      </trkpt>
      <trkpt lat="47.24038" lon="-1.8768">
        <ele>7.57</ele>
        <time>2020-05-23T12:01:13Z</time>
      </trkpt>
      <trkpt lat="47.2403" lon="-1.87665">
        <ele>7.99</ele>
        <time>2020-05-23T12:01:15Z</time>
      </trkpt>
      <trkpt lat="47.24021" lon="-1.87646">
        <ele>8.11</ele>
        <time>2020-05-23T12:01:17Z</time>
      </trkpt>
      <trkpt lat="47.24012" lon="-1.87627">
        <ele>7.97</ele>
        <time>2020-05-23T12:01:19Z</time>
      </trkpt>
      <trkpt lat="47.24004" lon="-1.87611">
        <ele>8.17</ele>
        <time>2020-05-23T12:01:21Z</time>
      </trkpt>
      <trkpt lat="47.23995" lon="-1.87593">
        <ele>8.47</ele>
        <time>2020-05-23T12:01:23Z</time>
      </trkpt>
      <trkpt lat="47.23987" lon="-1.87576">
        <ele>8.45</ele>
        <time>2020-05-23T12:01:25Z</time>
      </trkpt>
      <trkpt lat="47.23979" lon="-1.8756">
        <ele>9.11</ele>
        <time>2020-05-23T12:01:27Z</time>
      </trkpt>
      <trkpt lat="47.23971" lon="-1.87544">
        <ele>9.92</ele>
        <time>2020-05-23T12:01:29Z</time>
      </trkpt>
      <trkpt lat="47.23963" lon="-1.87527">
        <ele>10.69</ele>
        <time>2020-05-23T12:01:31Z</time>
      </trkpt>
      <trkpt lat="47.23954" lon="-1.8751">
        <ele>11.56</ele>
        <time>2020-05-23T12:01:33Z</time>
      </trkpt>
      <trkpt lat="47.23946" lon="-1.87494">
        <ele>12.52</ele>
        <time>2020-05-23T12:01:35Z</time>
      </trkpt>
      <trkpt lat="47.23937" lon="-1.87476">
        <ele>12.14</ele>
        <time>2020-05-23T12:01:37Z</time>
      </trkpt>
      <trkpt lat="47.23928" lon="-1.8746">
        <ele>11.06</ele>
        <time>2020-05-23T12:01:39Z</time>
      </trkpt>
      <trkpt lat="47.23919" lon="-1.87442">
        <ele>10.58</ele>
        <time>2020-05-23T12:01:41Z</time>
      </trkpt>
      <trkpt lat="47.23911" lon="-1.87425">
        <ele>9.53</ele>
        <time>2020-05-23T12:01:43Z</time>
      </trkpt>
      <trkpt lat="47.23902" lon="-1.87409">
        <ele>8.71</ele>
        <time>2020-05-23T12:01:45Z</time>
      </trkpt>
      <trkpt lat="47.23895" lon="-1.87392">
        <ele>8.18</ele>
        <time>2020-05-23T12:01:47Z</time>
      </trkpt>
      <trkpt lat="47.23886" lon="-1.87374">
        <ele>7.86</ele>
        <time>2020-05-23T12:01:49Z</time>
      </trkpt>
      <trkpt lat="47.23877" lon="-1.87357">
        <ele>7.4</ele>
        <time>2020-05-23T12:01:51Z</time>
      </trkpt>
      <trkpt lat="47.2387" lon="-1.87342">
        <ele>7.03</ele>
        <time>2020-05-23T12:01:53Z</time>
      </trkpt>
      <trkpt lat="47.23862" lon="-1.87325">
        <ele>6.79</ele>
        <time>2020-05-23T12:01:55Z</time>
      </trkpt>
      <trkpt lat="47.23854" lon="-1.87309">
        <ele>6.81</ele>
        <time>2020-05-23T12:01:57Z</time>
      </trkpt>
      <trkpt lat="47.23846" lon="-1.87292">
        <ele>6.75</ele>
        <time>2020-05-23T12:01:59Z</time>
      </trkpt>
      <trkpt lat="47.23838" lon="-1.87275">
        <ele>7.44</ele>
        <time>2020-05-23T12:02:01Z</time>
      </trkpt>
      <trkpt lat="47.23831" lon="-1.87258">
        <ele>8.16</ele>
        <time>2020-05-23T12:02:03Z</time>
      </trkpt>
      <trkpt lat="47.23823" lon="-1.87241">
        <ele>8.55</ele>
        <time>2020-05-23T12:02:05Z</time>
      </trkpt>
      <trkpt lat="47.23816" lon="-1.87224">
        <ele>8.34</ele>
        <time>2020-05-23T12:02:07Z</time>
      </trkpt>
      <trkpt lat="47.23808" lon="-1.87205">
        <ele>7.25</ele>
        <time>2020-05-23T12:02:09Z</time>
      </trkpt>
      <trkpt lat="47.238" lon="-1.87184">
        <ele>7.18</ele>
        <time>2020-05-23T12:02:11Z</time>
      </trkpt>
      <trkpt lat="47.23792" lon="-1.87167">
        <ele>9.02</ele>
        <time>2020-05-23T12:02:13Z</time>
      </trkpt>
      <trkpt lat="47.23782" lon="-1.8715">
        <ele>10.19</ele>
        <time>2020-05-23T12:02:15Z</time>
      </trkpt>
      <trkpt lat="47.23771" lon="-1.87135">
        <ele>10.18</ele>
        <time>2020-05-23T12:02:17Z</time>
      </trkpt>
      <trkpt lat="47.2376" lon="-1.87117">
        <ele>10.22</ele>
        <time>2020-05-23T12:02:19Z</time>
      </trkpt>
      <trkpt lat="47.23751" lon="-1.871">
        <ele>10.07</ele>
        <time>2020-05-23T12:02:21Z</time>
      </trkpt>
      <trkpt lat="47.23741" lon="-1.87081">
        <ele>10.86</ele>
        <time>2020-05-23T12:02:23Z</time>
      </trkpt>
      <trkpt lat="47.23731" lon="-1.87062">
        <ele>10.79</ele>
        <time>2020-05-23T12:02:25Z</time>
      </trkpt>
      <trkpt lat="47.23721" lon="-1.87043">
        <ele>10.25</ele>
        <time>2020-05-23T12:02:27Z</time>
      </trkpt>
      <trkpt lat="47.23713" lon="-1.87025">
        <ele>10.48</ele>
        <time>2020-05-23T12:02:29Z</time>
      </trkpt>
      <trkpt lat="47.23704" lon="-1.87006">
        <ele>11.04</ele>
        <time>2020-05-23T12:02:31Z</time>
      </trkpt>
      <trkpt lat="47.23695" lon="-1.86989">
        <ele>11.54</ele>
        <time>2020-05-23T12:02:33Z</time>
      </trkpt>
      <trkpt lat="47.23687" lon="-1.86971">
        <ele>11.99</ele>
        <time>2020-05-23T12:02:35Z</time>
      </trkpt>
      <trkpt lat="47.23679" lon="-1.86955">
        <ele>12.04</ele>
        <time>2020-05-23T12:02:37Z</time>
      </trkpt>
      <trkpt lat="47.2367" lon="-1.86936">
        <ele>11.81</ele>
        <time>2020-05-23T12:02:39Z</time>
      </trkpt>
      <trkpt lat="47.23661" lon="-1.86918">
        <ele>11.73</ele>
        <time>2020-05-23T12:02:41Z</time>
      </trkpt>
      <trkpt lat="47.23651" lon="-1.86899">
        <ele>11.74</ele>
        <time>2020-05-23T12:02:43Z</time>
      </trkpt>
      <trkpt lat="47.23642" lon="-1.86882">
        <ele>12.14</ele>
        <time>2020-05-23T12:02:45Z</time>
      </trkpt>
      <trkpt lat="47.23634" lon="-1.86866">
        <ele>12.36</ele>
        <time>2020-05-23T12:02:47Z</time>
      </trkpt>
      <trkpt lat="47.23627" lon="-1.86851">
        <ele>12.68</ele>
        <time>2020-05-23T12:02:49Z</time>
      </trkpt>
      <trkpt lat="47.23617" lon="-1.86832">
        <ele>11.77</ele>
        <time>2020-05-23T12:02:51Z</time>
      </trkpt>
      <trkpt lat="47.23609" lon="-1.86814">
        <ele>11.06</ele>
        <time>2020-05-23T12:02:53Z</time>
      </trkpt>
      <trkpt lat="47.23601" lon="-1.86798">
        <ele>11.22</ele>
        <time>2020-05-23T12:02:55Z</time>
      </trkpt>
      <trkpt lat="47.23593" lon="-1.86783">
        <ele>10.75</ele>
        <time>2020-05-23T12:02:57Z</time>
      </trkpt>
      <trkpt lat="47.23586" lon="-1.86768">
        <ele>10.28</ele>
        <time>2020-05-23T12:02:59Z</time>
      </trkpt>
      <trkpt lat="47.23577" lon="-1.86752">
        <ele>10.29</ele>
        <time>2020-05-23T12:03:01Z</time>
      </trkpt>
      <trkpt lat="47.23569" lon="-1.86734">
        <ele>10.5</ele>
        <time>2020-05-23T12:03:03Z</time>
      </trkpt>
      <trkpt lat="47.23561" lon="-1.86717">
        <ele>10.76</ele>
        <time>2020-05-23T12:03:05Z</time>
      </trkpt>
      <trkpt lat="47.23553" lon="-1.867">
        <ele>10.85</ele>
        <time>2020-05-23T12:03:07Z</time>
      </trkpt>
      <trkpt lat="47.23545" lon="-1.86686">
        <ele>11.67</ele>
        <time>2020-05-23T12:03:09Z</time>
      </trkpt>
      <trkpt lat="47.23537" lon="-1.8667">
        <ele>12.5</ele>
        <time>2020-05-23T12:03:11Z</time>
      </trkpt>
      <trkpt lat="47.23527" lon="-1.86652">
        <ele>13.49</ele>
        <time>2020-05-23T12:03:13Z</time>
      </trkpt>
      <trkpt lat="47.23519" lon="-1.86634">
        <ele>14.01</ele>
        <time>2020-05-23T12:03:15Z</time>
      </trkpt>
      <trkpt lat="47.2351" lon="-1.86617">
        <ele>13.91</ele>
        <time>2020-05-23T12:03:17Z</time>
      </trkpt>
      <trkpt lat="47.23502" lon="-1.86599">
        <ele>13.91</ele>
        <time>2020-05-23T12:03:19Z</time>
      </trkpt>
      <trkpt lat="47.23495" lon="-1.86583">
        <ele>15.02</ele>
        <time>2020-05-23T12:03:21Z</time>
      </trkpt>
      <trkpt lat="47.23488" lon="-1.86569">
        <ele>15.45</ele>
        <time>2020-05-23T12:03:23Z</time>
      </trkpt>
      <trkpt lat="47.23478" lon="-1.8655">
        <ele>14.92</ele>
        <time>2020-05-23T12:03:25Z</time>
      </trkpt>
      <trkpt lat="47.23468" lon="-1.86532">
        <ele>13.28</ele>
        <time>2020-05-23T12:03:27Z</time>
      </trkpt>
      <trkpt lat="47.2346" lon="-1.86514">
        <ele>12.15</ele>
        <time>2020-05-23T12:03:29Z</time>
      </trkpt>
      <trkpt lat="47.23451" lon="-1.86499">
        <ele>11.88</ele>
        <time>2020-05-23T12:03:31Z</time>
      </trkpt>
      <trkpt lat="47.23443" lon="-1.86482">
        <ele>11.49</ele>
        <time>2020-05-23T12:03:33Z</time>
      </trkpt>
      <trkpt lat="47.23434" lon="-1.86466">
        <ele>10.88</ele>
        <time>2020-05-23T12:03:35Z</time>
      </trkpt>
      <trkpt lat="47.23424" lon="-1.86448">
        <ele>10</ele>
        <time>2020-05-23T12:03:37Z</time>
      </trkpt>
      <trkpt lat="47.23417" lon="-1.86432">
        <ele>9.34</ele>
        <time>2020-05-23T12:03:39Z</time>
      </trkpt>
      <trkpt lat="47.23409" lon="-1.86415">
        <ele>8.95</ele>
        <time>2020-05-23T12:03:41Z</time>
      </trkpt>
      <trkpt lat="47.23401" lon="-1.86398">
        <ele>9.27</ele>
        <time>2020-05-23T12:03:43Z</time>
      </trkpt>
      <trkpt lat="47.23393" lon="-1.8638">
        <ele>8.76</ele>
        <time>2020-05-23T12:03:45Z</time>
      </trkpt>
      <trkpt lat="47.23383" lon="-1.86362">
        <ele>8.3</ele>
        <time>2020-05-23T12:03:47Z</time>
      </trkpt>
      <trkpt lat="47.23374" lon="-1.86344">
        <ele>8.32</ele>
        <time>2020-05-23T12:03:49Z</time>
      </trkpt>
      <trkpt lat="47.23366" lon="-1.86329">
        <ele>8.1</ele>
        <time>2020-05-23T12:03:51Z</time>
      </trkpt>
      <trkpt lat="47.23357" lon="-1.86312">
        <ele>8.69</ele>
        <time>2020-05-23T12:03:53Z</time>
      </trkpt>
      <trkpt lat="47.2335" lon="-1.86296">
        <ele>8.87</ele>
        <time>2020-05-23T12:03:55Z</time>
      </trkpt>
      <trkpt lat="47.23341" lon="-1.86279">
        <ele>8.89</ele>
        <time>2020-05-23T12:03:57Z</time>
      </trkpt>
      <trkpt lat="47.23332" lon="-1.8626">
        <ele>8.54</ele>
        <time>2020-05-23T12:03:59Z</time>
      </trkpt>
      <trkpt lat="47.23323" lon="-1.86243">
        <ele>7.9</ele>
        <time>2020-05-23T12:04:01Z</time>
      </trkpt>
      <trkpt lat="47.23314" lon="-1.86227">
        <ele>7.85</ele>
        <time>2020-05-23T12:04:03Z</time>
      </trkpt>
      <trkpt lat="47.23305" lon="-1.86209">
        <ele>7.64</ele>
        <time>2020-05-23T12:04:05Z</time>
      </trkpt>
      <trkpt lat="47.23297" lon="-1.86193">
        <ele>7.45</ele>
        <time>2020-05-23T12:04:07Z</time>
      </trkpt>
      <trkpt lat="47.23288" lon="-1.86174">
        <ele>7.33</ele>
        <time>2020-05-23T12:04:09Z</time>
      </trkpt>
      <trkpt lat="47.2328" lon="-1.86158">
        <ele>6.79</ele>
        <time>2020-05-23T12:04:11Z</time>
      </trkpt>
      <trkpt lat="47.23273" lon="-1.86141">
        <ele>7.84</ele>
        <time>2020-05-23T12:04:13Z</time>
      </trkpt>
      <trkpt lat="47.23264" lon="-1.86123">
        <ele>8.86</ele>
        <time>2020-05-23T12:04:15Z</time>
      </trkpt>
      <trkpt lat="47.23255" lon="-1.86106">
        <ele>9.08</ele>
        <time>2020-05-23T12:04:17Z</time>
      </trkpt>
      <trkpt lat="47.23246" lon="-1.86087">
        <ele>8.67</ele>
        <time>2020-05-23T12:04:19Z</time>
      </trkpt>
      <trkpt lat="47.23238" lon="-1.86071">
        <ele>9.3</ele>
        <time>2020-05-23T12:04:21Z</time>
      </trkpt>
      <trkpt lat="47.23229" lon="-1.86054">
        <ele>9.56</ele>
        <time>2020-05-23T12:04:23Z</time>
      </trkpt>
      <trkpt lat="47.23221" lon="-1.86037">
        <ele>9.9</ele>
        <time>2020-05-23T12:04:25Z</time>
      </trkpt>
      <trkpt lat="47.23212" lon="-1.86019">
        <ele>10.28</ele>
        <time>2020-05-23T12:04:27Z</time>
      </trkpt>
      <trkpt lat="47.23204" lon="-1.86001">
        <ele>9.99</ele>
        <time>2020-05-23T12:04:29Z</time>
      </trkpt>
      <trkpt lat="47.23195" lon="-1.85985">
        <ele>9.83</ele>
        <time>2020-05-23T12:04:31Z</time>
      </trkpt>
      <trkpt lat="47.23187" lon="-1.85969">
        <ele>9.89</ele>
        <time>2020-05-23T12:04:33Z</time>
      </trkpt>
      <trkpt lat="47.23179" lon="-1.85953">
        <ele>10.22</ele>
        <time>2020-05-23T12:04:35Z</time>
      </trkpt>
      <trkpt lat="47.23171" lon="-1.85934">
        <ele>10.65</ele>
        <time>2020-05-23T12:04:37Z</time>
      </trkpt>
      <trkpt lat="47.23162" lon="-1.85917">
        <ele>11.07</ele>
        <time>2020-05-23T12:04:39Z</time>
      </trkpt>
      <trkpt lat="47.23154" lon="-1.85901">
        <ele>10.74</ele>
        <time>2020-05-23T12:04:41Z</time>
      </trkpt>
      <trkpt lat="47.23145" lon="-1.85885">
        <ele>10.19</ele>
        <time>2020-05-23T12:04:43Z</time>
      </trkpt>
      <trkpt lat="47.23136" lon="-1.85868">
        <ele>10.29</ele>
        <time>2020-05-23T12:04:45Z</time>
      </trkpt>
      <trkpt lat="47.23127" lon="-1.8585">
        <ele>9.89</ele>
        <time>2020-05-23T12:04:47Z</time>
      </trkpt>
      <trkpt lat="47.23119" lon="-1.85833">
        <ele>9.69</ele>
        <time>2020-05-23T12:04:49Z</time>
      </trkpt>
      <trkpt lat="47.23109" lon="-1.85814">
        <ele>9.02</ele>
        <time>2020-05-23T12:04:51Z</time>
      </trkpt>
      <trkpt lat="47.23101" lon="-1.85797">
        <ele>8.54</ele>
        <time>2020-05-23T12:04:53Z</time>
      </trkpt>
      <trkpt lat="47.23093" lon="-1.85781">
        <ele>8.49</ele>
        <time>2020-05-23T12:04:55Z</time>
      </trkpt>
      <trkpt lat="47.23085" lon="-1.85764">
        <ele>8.51</ele>
        <time>2020-05-23T12:04:57Z</time>
      </trkpt>
      <trkpt lat="47.23077" lon="-1.85747">
        <ele>8.38</ele>
        <time>2020-05-23T12:04:59Z</time>
      </trkpt>
      <trkpt lat="47.2307" lon="-1.85731">
        <ele>8.75</ele>
        <time>2020-05-23T12:05:01Z</time>
      </trkpt>
      <trkpt lat="47.23062" lon="-1.85713">
        <ele>9.42</ele>
        <time>2020-05-23T12:05:03Z</time>
      </trkpt>
      <trkpt lat="47.23054" lon="-1.85697">
        <ele>10.14</ele>
        <time>2020-05-23T12:05:05Z</time>
      </trkpt>
      <trkpt lat="47.23046" lon="-1.85682">
        <ele>10.41</ele>
        <time>2020-05-23T12:05:07Z</time>
      </trkpt>
      <trkpt lat="47.23038" lon="-1.85665">
        <ele>10.79</ele>
        <time>2020-05-23T12:05:09Z</time>
      </trkpt>
      <trkpt lat="47.23029" lon="-1.85649">
        <ele>10.24</ele>
        <time>2020-05-23T12:05:11Z</time>
      </trkpt>
      <trkpt lat="47.2302" lon="-1.85633">
        <ele>10.29</ele>
        <time>2020-05-23T12:05:13Z</time>
      </trkpt>
      <trkpt lat="47.23013" lon="-1.85618">
        <ele>11.39</ele>
        <time>2020-05-23T12:05:15Z</time>
      </trkpt>
      <trkpt lat="47.23004" lon="-1.856">
        <ele>11.93</ele>
        <time>2020-05-23T12:05:17Z</time>
      </trkpt>
      <trkpt lat="47.22996" lon="-1.85584">
        <ele>11.27</ele>
        <time>2020-05-23T12:05:19Z</time>
      </trkpt>
      <trkpt lat="47.22988" lon="-1.85568">
        <ele>11.44</ele>
        <time>2020-05-23T12:05:21Z</time>
      </trkpt>
      <trkpt lat="47.2298" lon="-1.85551">
        <ele>10.77</ele>
        <time>2020-05-23T12:05:23Z</time>
      </trkpt>
      <trkpt lat="47.22971" lon="-1.85535">
        <ele>10.21</ele>
        <time>2020-05-23T12:05:25Z</time>
      </trkpt>
      <trkpt lat="47.22962" lon="-1.85518">
        <ele>10.3</ele>
        <time>2020-05-23T12:05:27Z</time>
      </trkpt>
      <trkpt lat="47.22954" lon="-1.85502">
        <ele>9.96</ele>
        <time>2020-05-23T12:05:29Z</time>
      </trkpt>
      <trkpt lat="47.22946" lon="-1.85486">
        <ele>10.26</ele>
        <time>2020-05-23T12:05:31Z</time>
      </trkpt>
      <trkpt lat="47.22938" lon="-1.85467">
        <ele>10.1</ele>
        <time>2020-05-23T12:05:33Z</time>
      </trkpt>
      <trkpt lat="47.2293" lon="-1.8545">
        <ele>9.67</ele>
        <time>2020-05-23T12:05:35Z</time>
      </trkpt>
      <trkpt lat="47.22921" lon="-1.85434">
        <ele>10.35</ele>
        <time>2020-05-23T12:05:37Z</time>
      </trkpt>
      <trkpt lat="47.22913" lon="-1.85417">
        <ele>11.44</ele>
        <time>2020-05-23T12:05:39Z</time>
      </trkpt>
      <trkpt lat="47.22905" lon="-1.85403">
        <ele>11.68</ele>
        <time>2020-05-23T12:05:41Z</time>
      </trkpt>
      <trkpt lat="47.22897" lon="-1.85385">
        <ele>12.02</ele>
        <time>2020-05-23T12:05:43Z</time>
      </trkpt>
      <trkpt lat="47.22887" lon="-1.85367">
        <ele>11.88</ele>
        <time>2020-05-23T12:05:45Z</time>
      </trkpt>
      <trkpt lat="47.22879" lon="-1.8535">
        <ele>12.54</ele>
        <time>2020-05-23T12:05:46Z</time>
      </trkpt>
      <trkpt lat="47.22871" lon="-1.85333">
        <ele>11.35</ele>
        <time>2020-05-23T12:05:48Z</time>
      </trkpt>
      <trkpt lat="47.22862" lon="-1.85316">
        <ele>9.94</ele>
        <time>2020-05-23T12:05:50Z</time>
      </trkpt>
      <trkpt lat="47.22854" lon="-1.85299">
        <ele>9.44</ele>
        <time>2020-05-23T12:05:52Z</time>
      </trkpt>
      <trkpt lat="47.22846" lon="-1.85282">
        <ele>9.56</ele>
        <time>2020-05-23T12:05:54Z</time>
      </trkpt>
      <trkpt lat="47.22838" lon="-1.85265">
        <ele>10.63</ele>
        <time>2020-05-23T12:05:56Z</time>
      </trkpt>
      <trkpt lat="47.22829" lon="-1.85247">
        <ele>11.49</ele>
        <time>2020-05-23T12:05:58Z</time>
      </trkpt>
      <trkpt lat="47.22821" lon="-1.8523">
        <ele>11.15</ele>
        <time>2020-05-23T12:06:00Z</time>
      </trkpt>
      <trkpt lat="47.22812" lon="-1.85213">
        <ele>11.24</ele>
        <time>2020-05-23T12:06:02Z</time>
      </trkpt>
      <trkpt lat="47.22804" lon="-1.85197">
        <ele>11.76</ele>
        <time>2020-05-23T12:06:04Z</time>
      </trkpt>
      <trkpt lat="47.22796" lon="-1.85181">
        <ele>11.9</ele>
        <time>2020-05-23T12:06:06Z</time>
      </trkpt>
      <trkpt lat="47.22788" lon="-1.85164">
        <ele>11.76</ele>
        <time>2020-05-23T12:06:08Z</time>
      </trkpt>
      <trkpt lat="47.22779" lon="-1.85148">
        <ele>11.43</ele>
        <time>2020-05-23T12:06:10Z</time>
      </trkpt>
      <trkpt lat="47.22771" lon="-1.85132">
        <ele>10.82</ele>
        <time>2020-05-23T12:06:12Z</time>
      </trkpt>
      <trkpt lat="47.22763" lon="-1.85117">
        <ele>10.41</ele>
        <time>2020-05-23T12:06:14Z</time>
      </trkpt>
      <trkpt lat="47.22754" lon="-1.851">
        <ele>9.75</ele>
        <time>2020-05-23T12:06:16Z</time>
      </trkpt>
      <trkpt lat="47.22746" lon="-1.85083">
        <ele>8.83</ele>
        <time>2020-05-23T12:06:18Z</time>
      </trkpt>
      <trkpt lat="47.22738" lon="-1.85066">
        <ele>8.94</ele>
        <time>2020-05-23T12:06:20Z</time>
      </trkpt>
      <trkpt lat="47.2273" lon="-1.85049">
        <ele>9.52</ele>
        <time>2020-05-23T12:06:22Z</time>
      </trkpt>
      <trkpt lat="47.22721" lon="-1.85033">
        <ele>10.25</ele>
        <time>2020-05-23T12:06:24Z</time>
      </trkpt>
      <trkpt lat="47.22712" lon="-1.85016">
        <ele>9.87</ele>
        <time>2020-05-23T12:06:26Z</time>
      </trkpt>
      <trkpt lat="47.22704" lon="-1.85">
        <ele>10.27</ele>
        <time>2020-05-23T12:06:28Z</time>
      </trkpt>
      <trkpt lat="47.22697" lon="-1.84983">
        <ele>10.73</ele>
        <time>2020-05-23T12:06:30Z</time>
      </trkpt>
      <trkpt lat="47.22689" lon="-1.84967">
        <ele>11.37</ele>
        <time>2020-05-23T12:06:32Z</time>
      </trkpt>
      <trkpt lat="47.2268" lon="-1.84949">
        <ele>12.11</ele>
        <time>2020-05-23T12:06:34Z</time>
      </trkpt>
      <trkpt lat="47.22671" lon="-1.84931">
        <ele>12.73</ele>
        <time>2020-05-23T12:06:36Z</time>
      </trkpt>
      <trkpt lat="47.22663" lon="-1.84916">
        <ele>12.54</ele>
        <time>2020-05-23T12:06:38Z</time>
      </trkpt>
      <trkpt lat="47.22654" lon="-1.849">
        <ele>11.66</ele>
        <time>2020-05-23T12:06:40Z</time>
      </trkpt>
      <trkpt lat="47.22646" lon="-1.84884">
        <ele>10.5</ele>
        <time>2020-05-23T12:06:42Z</time>
      </trkpt>
      <trkpt lat="47.22638" lon="-1.84867">
        <ele>9.99</ele>
        <time>2020-05-23T12:06:44Z</time>
      </trkpt>
      <trkpt lat="47.22631" lon="-1.84851">
        <ele>9.54</ele>
        <time>2020-05-23T12:06:46Z</time>
      </trkpt>
      <trkpt lat="47.22622" lon="-1.84834">
        <ele>9.5</ele>
        <time>2020-05-23T12:06:48Z</time>
      </trkpt>
      <trkpt lat="47.22615" lon="-1.84818">
        <ele>9.65</ele>
        <time>2020-05-23T12:06:50Z</time>
      </trkpt>
      <trkpt lat="47.22607" lon="-1.84802">
        <ele>9.7</ele>
        <time>2020-05-23T12:06:52Z</time>
      </trkpt>
      <trkpt lat="47.22598" lon="-1.84785">
        <ele>9.92</ele>
        <time>2020-05-23T12:06:54Z</time>
      </trkpt>
      <trkpt lat="47.2259" lon="-1.84769">
        <ele>9.44</ele>
        <time>2020-05-23T12:06:56Z</time>
      </trkpt>
      <trkpt lat="47.22581" lon="-1.84753">
        <ele>8.98</ele>
        <time>2020-05-23T12:06:58Z</time>
      </trkpt>
      <trkpt lat="47.22573" lon="-1.84738">
        <ele>8.94</ele>
        <time>2020-05-23T12:07:00Z</time>
      </trkpt>
      <trkpt lat="47.22564" lon="-1.84722">
        <ele>9.8</ele>
        <time>2020-05-23T12:07:02Z</time>
      </trkpt>
      <trkpt lat="47.22555" lon="-1.84706">
        <ele>11.02</ele>
        <time>2020-05-23T12:07:04Z</time>
      </trkpt>
      <trkpt lat="47.22546" lon="-1.84689">
        <ele>11.84</ele>
        <time>2020-05-23T12:07:06Z</time>
      </trkpt>
      <trkpt lat="47.22537" lon="-1.84672">
        <ele>13.45</ele>
        <time>2020-05-23T12:07:08Z</time>
      </trkpt>
      <trkpt lat="47.22526" lon="-1.84655">
        <ele>14.58</ele>
        <time>2020-05-23T12:07:10Z</time>
      </trkpt>
      <trkpt lat="47.22514" lon="-1.84641">
        <ele>15.04</ele>
        <time>2020-05-23T12:07:12Z</time>
      </trkpt>
      <trkpt lat="47.225" lon="-1.84631">
        <ele>15.13</ele>
        <time>2020-05-23T12:07:14Z</time>
      </trkpt>
      <trkpt lat="47.22487" lon="-1.84623">
        <ele>15.04</ele>
        <time>2020-05-23T12:07:16Z</time>
      </trkpt>
      <trkpt lat="47.22475" lon="-1.84613">
        <ele>15.31</ele>
        <time>2020-05-23T12:07:18Z</time>
      </trkpt>
      <trkpt lat="47.22466" lon="-1.846">
        <ele>15.15</ele>
        <time>2020-05-23T12:07:20Z</time>
      </trkpt>
      <trkpt lat="47.22457" lon="-1.84583">
        <ele>14.75</ele>
        <time>2020-05-23T12:07:22Z</time>
      </trkpt>
      <trkpt lat="47.22449" lon="-1.84566">
        <ele>14.36</ele>
        <time>2020-05-23T12:07:24Z</time>
      </trkpt>
      <trkpt lat="47.22442" lon="-1.84551">
        <ele>13.97</ele>
        <time>2020-05-23T12:07:26Z</time>
      </trkpt>
      <trkpt lat="47.22433" lon="-1.84531">
        <ele>13.32</ele>
        <time>2020-05-23T12:07:28Z</time>
      </trkpt>
      <trkpt lat="47.22425" lon="-1.84512">
        <ele>13.03</ele>
        <time>2020-05-23T12:07:30Z</time>
      </trkpt>
      <trkpt lat="47.22416" lon="-1.84492">
        <ele>12.29</ele>
        <time>2020-05-23T12:07:32Z</time>
      </trkpt>
      <trkpt lat="47.22408" lon="-1.84477">
        <ele>11.68</ele>
        <time>2020-05-23T12:07:34Z</time>
      </trkpt>
      <trkpt lat="47.22402" lon="-1.84459">
        <ele>11.26</ele>
        <time>2020-05-23T12:07:36Z</time>
      </trkpt>
      <trkpt lat="47.22396" lon="-1.84438">
        <ele>10.61</ele>
        <time>2020-05-23T12:07:38Z</time>
      </trkpt>
      <trkpt lat="47.22393" lon="-1.84417">
        <ele>10.65</ele>
        <time>2020-05-23T12:07:40Z</time>
      </trkpt>
      <trkpt lat="47.22389" lon="-1.84395">
        <ele>9.96</ele>
        <time>2020-05-23T12:07:42Z</time>
      </trkpt>
      <trkpt lat="47.22385" lon="-1.84375">
        <ele>10.38</ele>
        <time>2020-05-23T12:07:44Z</time>
      </trkpt>
      <trkpt lat="47.2238" lon="-1.84355">
        <ele>10.49</ele>
        <time>2020-05-23T12:07:46Z</time>
      </trkpt>
      <trkpt lat="47.22373" lon="-1.84334">
        <ele>10.4</ele>
        <time>2020-05-23T12:07:48Z</time>
      </trkpt>
      <trkpt lat="47.22365" lon="-1.84317">
        <ele>9.29</ele>
        <time>2020-05-23T12:07:50Z</time>
      </trkpt>
      <trkpt lat="47.22357" lon="-1.84299">
        <ele>7.81</ele>
        <time>2020-05-23T12:07:52Z</time>
      </trkpt>
      <trkpt lat="47.22348" lon="-1.8428">
        <ele>7.03</ele>
        <time>2020-05-23T12:07:54Z</time>
      </trkpt>
      <trkpt lat="47.22339" lon="-1.84264">
        <ele>7.68</ele>
        <time>2020-05-23T12:07:56Z</time>
      </trkpt>
      <trkpt lat="47.22331" lon="-1.84248">
        <ele>8.66</ele>
        <time>2020-05-23T12:07:58Z</time>
      </trkpt>
      <trkpt lat="47.22322" lon="-1.84231">
        <ele>9.77</ele>
        <time>2020-05-23T12:08:00Z</time>
      </trkpt>
      <trkpt lat="47.22314" lon="-1.84214">
        <ele>11.35</ele>
        <time>2020-05-23T12:08:02Z</time>
      </trkpt>
      <trkpt lat="47.22306" lon="-1.84199">
        <ele>12.42</ele>
        <time>2020-05-23T12:08:04Z</time>
      </trkpt>
      <trkpt lat="47.22297" lon="-1.84182">
        <ele>12.95</ele>
        <time>2020-05-23T12:08:06Z</time>
      </trkpt>
      <trkpt lat="47.2229" lon="-1.84167">
        <ele>13.73</ele>
        <time>2020-05-23T12:08:08Z</time>
      </trkpt>
      <trkpt lat="47.22281" lon="-1.84151">
        <ele>14.94</ele>
        <time>2020-05-23T12:08:10Z</time>
      </trkpt>
      <trkpt lat="47.22273" lon="-1.84134">
        <ele>15.11</ele>
        <time>2020-05-23T12:08:12Z</time>
      </trkpt>
      <trkpt lat="47.22264" lon="-1.84116">
        <ele>14.85</ele>
        <time>2020-05-23T12:08:14Z</time>
      </trkpt>
      <trkpt lat="47.22256" lon="-1.84101">
        <ele>14.96</ele>
        <time>2020-05-23T12:08:16Z</time>
      </trkpt>
      <trkpt lat="47.22248" lon="-1.84086">
        <ele>14.64</ele>
        <time>2020-05-23T12:08:18Z</time>
      </trkpt>
      <trkpt lat="47.2224" lon="-1.84069">
        <ele>14.19</ele>
        <time>2020-05-23T12:08:20Z</time>
      </trkpt>
      <trkpt lat="47.22231" lon="-1.84052">
        <ele>13.51</ele>
        <time>2020-05-23T12:08:22Z</time>
      </trkpt>
      <trkpt lat="47.22223" lon="-1.84035">
        <ele>13.14</ele>
        <time>2020-05-23T12:08:24Z</time>
      </trkpt>
      <trkpt lat="47.22215" lon="-1.8402">
        <ele>14.05</ele>
        <time>2020-05-23T12:08:26Z</time>
      </trkpt>
      <trkpt lat="47.22207" lon="-1.84003">
        <ele>14.11</ele>
        <time>2020-05-23T12:08:28Z</time>
      </trkpt>
      <trkpt lat="47.22198" lon="-1.83986">
        <ele>13.54</ele>
        <time>2020-05-23T12:08:30Z</time>
      </trkpt>
      <trkpt lat="47.22191" lon="-1.83971">
        <ele>13.23</ele>
        <time>2020-05-23T12:08:32Z</time>
      </trkpt>
      <trkpt lat="47.22182" lon="-1.83956">
        <ele>13.58</ele>
        <time>2020-05-23T12:08:34Z</time>
      </trkpt>
      <trkpt lat="47.22173" lon="-1.8394">
        <ele>13.64</ele>
        <time>2020-05-23T12:08:36Z</time>
      </trkpt>
      <trkpt lat="47.22165" lon="-1.83922">
        <ele>13.32</ele>
        <time>2020-05-23T12:08:38Z</time>
      </trkpt>
      <trkpt lat="47.22157" lon="-1.83905">
        <ele>13.42</ele>
        <time>2020-05-23T12:08:40Z</time>
      </trkpt>
      <trkpt lat="47.22149" lon="-1.83887">
        <ele>13.12</ele>
        <time>2020-05-23T12:08:42Z</time>
      </trkpt>
      <trkpt lat="47.2214" lon="-1.83869">
        <ele>13.03</ele>
        <time>2020-05-23T12:08:44Z</time>
      </trkpt>
      <trkpt lat="47.22133" lon="-1.83854">
        <ele>12.45</ele>
        <time>2020-05-23T12:08:46Z</time>
      </trkpt>
      <trkpt lat="47.22126" lon="-1.83838">
        <ele>12.18</ele>
        <time>2020-05-23T12:08:48Z</time>
      </trkpt>
      <trkpt lat="47.22118" lon="-1.83821">
        <ele>12.36</ele>
        <time>2020-05-23T12:08:50Z</time>
      </trkpt>
      <trkpt lat="47.22109" lon="-1.83805">
        <ele>12.19</ele>
        <time>2020-05-23T12:08:52Z</time>
      </trkpt>
      <trkpt lat="47.221" lon="-1.83787">
        <ele>12.1</ele>
        <time>2020-05-23T12:08:54Z</time>
      </trkpt>
      <trkpt lat="47.22091" lon="-1.8377">
        <ele>11.8</ele>
        <time>2020-05-23T12:08:56Z</time>
      </trkpt>
      <trkpt lat="47.22083" lon="-1.83754">
        <ele>11.49</ele>
        <time>2020-05-23T12:08:58Z</time>
      </trkpt>
      <trkpt lat="47.22075" lon="-1.83737">
        <ele>11.99</ele>
        <time>2020-05-23T12:09:00Z</time>
      </trkpt>
      <trkpt lat="47.22065" lon="-1.8372">
        <ele>12.34</ele>
        <time>2020-05-23T12:09:02Z</time>
      </trkpt>
      <trkpt lat="47.22057" lon="-1.83704">
        <ele>11.1</ele>
        <time>2020-05-23T12:09:04Z</time>
      </trkpt>
      <trkpt lat="47.2205" lon="-1.83688">
        <ele>10.41</ele>
        <time>2020-05-23T12:09:06Z</time>
      </trkpt>
      <trkpt lat="47.22043" lon="-1.83672">
        <ele>10.03</ele>
        <time>2020-05-23T12:09:08Z</time>
      </trkpt>
      <trkpt lat="47.22035" lon="-1.83658">
        <ele>10.04</ele>
        <time>2020-05-23T12:09:10Z</time>
      </trkpt>
      <trkpt lat="47.22026" lon="-1.8364">
        <ele>10.21</ele>
        <time>2020-05-23T12:09:12Z</time>
      </trkpt>
      <trkpt lat="47.22018" lon="-1.83622">
        <ele>9.96</ele>
        <time>2020-05-23T12:09:14Z</time>
      </trkpt>
      <trkpt lat="47.22009" lon="-1.83604">
        <ele>9.13</ele>
        <time>2020-05-23T12:09:16Z</time>
      </trkpt>
      <trkpt lat="47.22002" lon="-1.83589">
        <ele>8.82</ele>
        <time>2020-05-23T12:09:18Z</time>
      </trkpt>
      <trkpt lat="47.21993" lon="-1.83572">
        <ele>8.28</ele>
        <time>2020-05-23T12:09:20Z</time>
      </trkpt>
      <trkpt lat="47.21987" lon="-1.83556">
        <ele>8.88</ele>
        <time>2020-05-23T12:09:22Z</time>
      </trkpt>
      <trkpt lat="47.21979" lon="-1.83538">
        <ele>9.38</ele>
        <time>2020-05-23T12:09:24Z</time>
      </trkpt>
      <trkpt lat="47.2197" lon="-1.83521">
        <ele>9.79</ele>
        <time>2020-05-23T12:09:26Z</time>
      </trkpt>
      <trkpt lat="47.21962" lon="-1.83506">
        <ele>10.45</ele>
        <time>2020-05-23T12:09:28Z</time>
      </trkpt>
      <trkpt lat="47.21954" lon="-1.83492">
        <ele>11.24</ele>
        <time>2020-05-23T12:09:30Z</time>
      </trkpt>
      <trkpt lat="47.21944" lon="-1.83474">
        <ele>12.16</ele>
        <time>2020-05-23T12:09:32Z</time>
      </trkpt>
      <trkpt lat="47.21935" lon="-1.83456">
        <ele>12.19</ele>
        <time>2020-05-23T12:09:34Z</time>
      </trkpt>
      <trkpt lat="47.21927" lon="-1.8344">
        <ele>11.97</ele>
        <time>2020-05-23T12:09:36Z</time>
      </trkpt>
      <trkpt lat="47.2192" lon="-1.83425">
        <ele>12.66</ele>
        <time>2020-05-23T12:09:38Z</time>
      </trkpt>
      <trkpt lat="47.2191" lon="-1.83408">
        <ele>12.92</ele>
        <time>2020-05-23T12:09:40Z</time>
      </trkpt>
      <trkpt lat="47.21902" lon="-1.83392">
        <ele>12.99</ele>
        <time>2020-05-23T12:09:42Z</time>
      </trkpt>
      <trkpt lat="47.21893" lon="-1.83374">
        <ele>12.4</ele>
        <time>2020-05-23T12:09:44Z</time>
      </trkpt>
      <trkpt lat="47.21885" lon="-1.83356">
        <ele>11.98</ele>
        <time>2020-05-23T12:09:46Z</time>
      </trkpt>
      <trkpt lat="47.21877" lon="-1.83339">
        <ele>12.47</ele>
        <time>2020-05-23T12:09:48Z</time>
      </trkpt>
      <trkpt lat="47.21868" lon="-1.83321">
        <ele>12.54</ele>
        <time>2020-05-23T12:09:50Z</time>
      </trkpt>
      <trkpt lat="47.21858" lon="-1.83303">
        <ele>12.59</ele>
        <time>2020-05-23T12:09:52Z</time>
      </trkpt>
      <trkpt lat="47.21849" lon="-1.83285">
        <ele>12.56</ele>
        <time>2020-05-23T12:09:54Z</time>
      </trkpt>
      <trkpt lat="47.21842" lon="-1.8327">
        <ele>12.48</ele>
        <time>2020-05-23T12:09:56Z</time>
      </trkpt>
      <trkpt lat="47.21833" lon="-1.83252">
        <ele>12.43</ele>
        <time>2020-05-23T12:09:58Z</time>
      </trkpt>
      <trkpt lat="47.21824" lon="-1.83235">
        <ele>11.54</ele>
        <time>2020-05-23T12:10:00Z</time>
      </trkpt>
      <trkpt lat="47.21816" lon="-1.83219">
        <ele>11.01</ele>
        <time>2020-05-23T12:10:02Z</time>
      </trkpt>
      <trkpt lat="47.21807" lon="-1.83202">
        <ele>11.21</ele>
        <time>2020-05-23T12:10:04Z</time>
      </trkpt>
      <trkpt lat="47.21797" lon="-1.83183">
        <ele>11.62</ele>
        <time>2020-05-23T12:10:06Z</time>
      </trkpt>
      <trkpt lat="47.21789" lon="-1.83166">
        <ele>11.35</ele>
        <time>2020-05-23T12:10:08Z</time>
      </trkpt>
      <trkpt lat="47.2178" lon="-1.83149">
        <ele>10.82</ele>
        <time>2020-05-23T12:10:10Z</time>
      </trkpt>
      <trkpt lat="47.21773" lon="-1.83131">
        <ele>9.98</ele>
        <time>2020-05-23T12:10:12Z</time>
      </trkpt>
      <trkpt lat="47.21765" lon="-1.83115">
        <ele>9.49</ele>
        <time>2020-05-23T12:10:14Z</time>
      </trkpt>
      <trkpt lat="47.21757" lon="-1.83098">
        <ele>10.07</ele>
        <time>2020-05-23T12:10:16Z</time>
      </trkpt>
      <trkpt lat="47.21749" lon="-1.83081">
        <ele>11.16</ele>
        <time>2020-05-23T12:10:18Z</time>
      </trkpt>
      <trkpt lat="47.21741" lon="-1.83065">
        <ele>12.22</ele>
        <time>2020-05-23T12:10:20Z</time>
      </trkpt>
      <trkpt lat="47.21734" lon="-1.83051">
        <ele>13.25</ele>
        <time>2020-05-23T12:10:22Z</time>
      </trkpt>
      <trkpt lat="47.21726" lon="-1.83036">
        <ele>14.31</ele>
        <time>2020-05-23T12:10:24Z</time>
      </trkpt>
      <trkpt lat="47.21718" lon="-1.8302">
        <ele>15.69</ele>
        <time>2020-05-23T12:10:26Z</time>
      </trkpt>
      <trkpt lat="47.21709" lon="-1.83002">
        <ele>16.85</ele>
        <time>2020-05-23T12:10:28Z</time>
      </trkpt>
      <trkpt lat="47.217" lon="-1.82984">
        <ele>17.9</ele>
        <time>2020-05-23T12:10:30Z</time>
      </trkpt>
      <trkpt lat="47.21691" lon="-1.82968">
        <ele>16.79</ele>
        <time>2020-05-23T12:10:32Z</time>
      </trkpt>
      <trkpt lat="47.21683" lon="-1.82953">
        <ele>16.24</ele>
        <time>2020-05-23T12:10:34Z</time>
      </trkpt>
      <trkpt lat="47.21674" lon="-1.82936">
        <ele>14.98</ele>
        <time>2020-05-23T12:10:36Z</time>
      </trkpt>
      <trkpt lat="47.21666" lon="-1.82921">
        <ele>13.94</ele>
        <time>2020-05-23T12:10:38Z</time>
      </trkpt>
      <trkpt lat="47.21657" lon="-1.82905">
        <ele>13.42</ele>
        <time>2020-05-23T12:10:40Z</time>
      </trkpt>
      <trkpt lat="47.21649" lon="-1.82891">
        <ele>12.81</ele>
        <time>2020-05-23T12:10:42Z</time>
      </trkpt>
      <trkpt lat="47.21641" lon="-1.82874">
        <ele>12.18</ele>
        <time>2020-05-23T12:10:44Z</time>
      </trkpt>
      <trkpt lat="47.21633" lon="-1.82858">
        <ele>11.75</ele>
        <time>2020-05-23T12:10:46Z</time>
      </trkpt>
      <trkpt lat="47.21625" lon="-1.82843">
        <ele>11.49</ele>
        <time>2020-05-23T12:10:48Z</time>
      </trkpt>
      <trkpt lat="47.21616" lon="-1.82826">
        <ele>10.73</ele>
        <time>2020-05-23T12:10:50Z</time>
      </trkpt>
      <trkpt lat="47.21607" lon="-1.82811">
        <ele>10.78</ele>
        <time>2020-05-23T12:10:52Z</time>
      </trkpt>
      <trkpt lat="47.21598" lon="-1.82795">
        <ele>11.2</ele>
        <time>2020-05-23T12:10:54Z</time>
      </trkpt>
      <trkpt lat="47.21587" lon="-1.82779">
        <ele>11.41</ele>
        <time>2020-05-23T12:10:56Z</time>
      </trkpt>
      <trkpt lat="47.21577" lon="-1.82763">
        <ele>11.09</ele>
        <time>2020-05-23T12:10:58Z</time>
      </trkpt>
      <trkpt lat="47.21569" lon="-1.82749">
        <ele>10.96</ele>
        <time>2020-05-23T12:11:00Z</time>
      </trkpt>
      <trkpt lat="47.2156" lon="-1.82736">
        <ele>10.52</ele>
        <time>2020-05-23T12:11:02Z</time>
      </trkpt>
      <trkpt lat="47.21551" lon="-1.8272">
        <ele>10.33</ele>
        <time>2020-05-23T12:11:04Z</time>
      </trkpt>
      <trkpt lat="47.21541" lon="-1.82704">
        <ele>10.22</ele>
        <time>2020-05-23T12:11:06Z</time>
      </trkpt>
      <trkpt lat="47.21532" lon="-1.8269">
        <ele>9.35</ele>
        <time>2020-05-23T12:11:08Z</time>
      </trkpt>
      <trkpt lat="47.21523" lon="-1.82675">
        <ele>8.96</ele>
        <time>2020-05-23T12:11:10Z</time>
      </trkpt>
      <trkpt lat="47.21513" lon="-1.82659">
        <ele>9.18</ele>
        <time>2020-05-23T12:11:12Z</time>
      </trkpt>
      <trkpt lat="47.21503" lon="-1.82643">
        <ele>8.43</ele>
        <time>2020-05-23T12:11:14Z</time>
      </trkpt>
      <trkpt lat="47.21495" lon="-1.8263">
        <ele>8.98</ele>
        <time>2020-05-23T12:11:16Z</time>
      </trkpt>
      <trkpt lat="47.21486" lon="-1.82615">
        <ele>10.28</ele>
        <time>2020-05-23T12:11:18Z</time>
      </trkpt>
      <trkpt lat="47.21477" lon="-1.82599">
        <ele>11.1</ele>
        <time>2020-05-23T12:11:20Z</time>
      </trkpt>
      <trkpt lat="47.21468" lon="-1.82584">
        <ele>11.72</ele>
        <time>2020-05-23T12:11:22Z</time>
      </trkpt>
      <trkpt lat="47.21459" lon="-1.8257">
        <ele>11.52</ele>
        <time>2020-05-23T12:11:24Z</time>
      </trkpt>
      <trkpt lat="47.2145" lon="-1.82555">
        <ele>11.7</ele>
        <time>2020-05-23T12:11:26Z</time>
      </trkpt>
      <trkpt lat="47.21442" lon="-1.82542">
        <ele>12.06</ele>
        <time>2020-05-23T12:11:28Z</time>
      </trkpt>
      <trkpt lat="47.21433" lon="-1.82527">
        <ele>12.81</ele>
        <time>2020-05-23T12:11:30Z</time>
      </trkpt>
      <trkpt lat="47.21423" lon="-1.82511">
        <ele>13.64</ele>
        <time>2020-05-23T12:11:32Z</time>
      </trkpt>
      <trkpt lat="47.21415" lon="-1.82496">
        <ele>13.99</ele>
        <time>2020-05-23T12:11:34Z</time>
      </trkpt>
      <trkpt lat="47.21406" lon="-1.82479">
        <ele>14.38</ele>
        <time>2020-05-23T12:11:36Z</time>
      </trkpt>
      <trkpt lat="47.21398" lon="-1.82463">
        <ele>13.78</ele>
        <time>2020-05-23T12:11:38Z</time>
      </trkpt>
      <trkpt lat="47.2139" lon="-1.82447">
        <ele>12.87</ele>
        <time>2020-05-23T12:11:40Z</time>
      </trkpt>
      <trkpt lat="47.21383" lon="-1.82435">
        <ele>12.8</ele>
        <time>2020-05-23T12:11:42Z</time>
      </trkpt>
      <trkpt lat="47.21388" lon="-1.82419">
        <ele>13.69</ele>
        <time>2020-05-23T12:11:45Z</time>
      </trkpt>
      <trkpt lat="47.21395" lon="-1.82408">
        <ele>13.43</ele>
        <time>2020-05-23T12:11:47Z</time>
      </trkpt>
      <trkpt lat="47.21404" lon="-1.82397">
        <ele>13.55</ele>
        <time>2020-05-23T12:11:49Z</time>
      </trkpt>
      <trkpt lat="47.21414" lon="-1.82384">
        <ele>13.2</ele>
        <time>2020-05-23T12:11:51Z</time>
      </trkpt>
      <trkpt lat="47.21424" lon="-1.82373">
        <ele>13.12</ele>
        <time>2020-05-23T12:11:53Z</time>
      </trkpt>
      <trkpt lat="47.21435" lon="-1.82362">
        <ele>13</ele>
        <time>2020-05-23T12:11:55Z</time>
      </trkpt>
      <trkpt lat="47.21445" lon="-1.82349">
        <ele>13.4</ele>
        <time>2020-05-23T12:11:57Z</time>
      </trkpt>
      <trkpt lat="47.21442" lon="-1.82331">
        <ele>13.76</ele>
        <time>2020-05-23T12:12:00Z</time>
      </trkpt>
      <trkpt lat="47.21436" lon="-1.82319">
        <ele>13.92</ele>
        <time>2020-05-23T12:12:02Z</time>
      </trkpt>
      <trkpt lat="47.21428" lon="-1.82304">
        <ele>14.92</ele>
        <time>2020-05-23T12:12:04Z</time>
      </trkpt>
      <trkpt lat="47.2142" lon="-1.82288">
        <ele>15.99</ele>
        <time>2020-05-23T12:12:06Z</time>
      </trkpt>
      <trkpt lat="47.21408" lon="-1.82279">
        <ele>17.26</ele>
        <time>2020-05-23T12:12:08Z</time>
      </trkpt>
      <trkpt lat="47.21391" lon="-1.82272">
        <ele>16.71</ele>
        <time>2020-05-23T12:12:10Z</time>
      </trkpt>
      <trkpt lat="47.21375" lon="-1.82261">
        <ele>15.06</ele>
        <time>2020-05-23T12:12:12Z</time>
      </trkpt>
      <trkpt lat="47.21363" lon="-1.82248">
        <ele>13.32</ele>
        <time>2020-05-23T12:12:14Z</time>
      </trkpt>
      <trkpt lat="47.21353" lon="-1.82233">
        <ele>12.07</ele>
        <time>2020-05-23T12:12:16Z</time>
      </trkpt>
      <trkpt lat="47.21343" lon="-1.82216">
        <ele>11.88</ele>
        <time>2020-05-23T12:12:18Z</time>
      </trkpt>
      <trkpt lat="47.21332" lon="-1.82197">
        <ele>11.46</ele>
        <time>2020-05-23T12:12:20Z</time>
      </trkpt>
      <trkpt lat="47.21322" lon="-1.82181">
        <ele>10.9</ele>
        <time>2020-05-23T12:12:22Z</time>
      </trkpt>
      <trkpt lat="47.21313" lon="-1.82166">
        <ele>11.51</ele>
        <time>2020-05-23T12:12:24Z</time>
      </trkpt>
      <trkpt lat="47.21304" lon="-1.82151">
        <ele>12.7</ele>
        <time>2020-05-23T12:12:26Z</time>
      </trkpt>
      <trkpt lat="47.21294" lon="-1.82134">
        <ele>12.95</ele>
        <time>2020-05-23T12:12:28Z</time>
      </trkpt>
      <trkpt lat="47.21283" lon="-1.82116">
        <ele>12.78</ele>
        <time>2020-05-23T12:12:30Z</time>
      </trkpt>
      <trkpt lat="47.21273" lon="-1.82099">
        <ele>13.23</ele>
        <time>2020-05-23T12:12:32Z</time>
      </trkpt>
      <trkpt lat="47.21264" lon="-1.82084">
        <ele>13.72</ele>
        <time>2020-05-23T12:12:34Z</time>
      </trkpt>
      <trkpt lat="47.21255" lon="-1.82069">
        <ele>13.76</ele>
        <time>2020-05-23T12:12:36Z</time>
      </trkpt>
      <trkpt lat="47.21246" lon="-1.82053">
        <ele>14.24</ele>
        <time>2020-05-23T12:12:38Z</time>
      </trkpt>
      <trkpt lat="47.21236" lon="-1.82037">
        <ele>14.78</ele>
        <time>2020-05-23T12:12:40Z</time>
      </trkpt>
      <trkpt lat="47.21228" lon="-1.82021">
        <ele>15.89</ele>
        <time>2020-05-23T12:12:42Z</time>
      </trkpt>
      <trkpt lat="47.21217" lon="-1.82005">
        <ele>15.24</ele>
        <time>2020-05-23T12:12:44Z</time>
      </trkpt>
      <trkpt lat="47.21207" lon="-1.81991">
        <ele>15.68</ele>
        <time>2020-05-23T12:12:46Z</time>
      </trkpt>
      <trkpt lat="47.21197" lon="-1.81976">
        <ele>15.35</ele>
        <time>2020-05-23T12:12:48Z</time>
      </trkpt>
      <trkpt lat="47.21189" lon="-1.81962">
        <ele>14.73</ele>
        <time>2020-05-23T12:12:50Z</time>
      </trkpt>
      <trkpt lat="47.2118" lon="-1.81948">
        <ele>14.27</ele>
        <time>2020-05-23T12:12:52Z</time>
      </trkpt>
      <trkpt lat="47.21171" lon="-1.81933">
        <ele>14.07</ele>
        <time>2020-05-23T12:12:54Z</time>
      </trkpt>
      <trkpt lat="47.21162" lon="-1.81918">
        <ele>14.16</ele>
        <time>2020-05-23T12:12:56Z</time>
      </trkpt>
      <trkpt lat="47.21153" lon="-1.81902">
        <ele>14.74</ele>
        <time>2020-05-23T12:12:58Z</time>
      </trkpt>
      <trkpt lat="47.21144" lon="-1.81886">
        <ele>15.03</ele>
        <time>2020-05-23T12:13:00Z</time>
      </trkpt>
      <trkpt lat="47.21133" lon="-1.81868">
        <ele>13.5</ele>
        <time>2020-05-23T12:13:02Z</time>
      </trkpt>
      <trkpt lat="47.21124" lon="-1.8185">
        <ele>12.16</ele>
        <time>2020-05-23T12:13:04Z</time>
      </trkpt>
      <trkpt lat="47.21115" lon="-1.81834">
        <ele>11.07</ele>
        <time>2020-05-23T12:13:06Z</time>
      </trkpt>
      <trkpt lat="47.21107" lon="-1.81818">
        <ele>11.2</ele>
        <time>2020-05-23T12:13:08Z</time>
      </trkpt>
      <trkpt lat="47.21097" lon="-1.81802">
        <ele>11.65</ele>
        <time>2020-05-23T12:13:10Z</time>
      </trkpt>
      <trkpt lat="47.21089" lon="-1.81786">
        <ele>10.95</ele>
        <time>2020-05-23T12:13:12Z</time>
      </trkpt>
      <trkpt lat="47.2108" lon="-1.81769">
        <ele>10.62</ele>
        <time>2020-05-23T12:13:14Z</time>
      </trkpt>
      <trkpt lat="47.21072" lon="-1.81753">
        <ele>10.01</ele>
        <time>2020-05-23T12:13:16Z</time>
      </trkpt>
      <trkpt lat="47.21065" lon="-1.81741">
        <ele>10.44</ele>
        <time>2020-05-23T12:13:18Z</time>
      </trkpt>
      <trkpt lat="47.21056" lon="-1.81721">
        <ele>11.21</ele>
        <time>2020-05-23T12:13:20Z</time>
      </trkpt>
      <trkpt lat="47.2105" lon="-1.8171">
        <ele>11.1</ele>
        <time>2020-05-23T12:13:21Z</time>
      </trkpt>
      <trkpt lat="47.21042" lon="-1.81693">
        <ele>10.51</ele>
        <time>2020-05-23T12:13:23Z</time>
      </trkpt>
      <trkpt lat="47.21034" lon="-1.81677">
        <ele>9.93</ele>
        <time>2020-05-23T12:13:25Z</time>
      </trkpt>
      <trkpt lat="47.21025" lon="-1.8166">
        <ele>10.23</ele>
        <time>2020-05-23T12:13:27Z</time>
      </trkpt>
      <trkpt lat="47.21016" lon="-1.81644">
        <ele>10.04</ele>
        <time>2020-05-23T12:13:29Z</time>
      </trkpt>
      <trkpt lat="47.21009" lon="-1.81628">
        <ele>9.79</ele>
        <time>2020-05-23T12:13:31Z</time>
      </trkpt>
      <trkpt lat="47.21001" lon="-1.81608">
        <ele>10.44</ele>
        <time>2020-05-23T12:13:33Z</time>
      </trkpt>
      <trkpt lat="47.20993" lon="-1.81586">
        <ele>10.8</ele>
        <time>2020-05-23T12:13:35Z</time>
      </trkpt>
      <trkpt lat="47.20985" lon="-1.81567">
        <ele>10.65</ele>
        <time>2020-05-23T12:13:37Z</time>
      </trkpt>
      <trkpt lat="47.20978" lon="-1.8155">
        <ele>10.01</ele>
        <time>2020-05-23T12:13:39Z</time>
      </trkpt>
      <trkpt lat="47.20971" lon="-1.81532">
        <ele>10.16</ele>
        <time>2020-05-23T12:13:41Z</time>
      </trkpt>
      <trkpt lat="47.20964" lon="-1.81515">
        <ele>10.95</ele>
        <time>2020-05-23T12:13:43Z</time>
      </trkpt>
      <trkpt lat="47.20957" lon="-1.81495">
        <ele>10.97</ele>
        <time>2020-05-23T12:13:45Z</time>
      </trkpt>
      <trkpt lat="47.2095" lon="-1.81478">
        <ele>11.02</ele>
        <time>2020-05-23T12:13:47Z</time>
      </trkpt>
      <trkpt lat="47.20942" lon="-1.81461">
        <ele>11.16</ele>
        <time>2020-05-23T12:13:49Z</time>
      </trkpt>
      <trkpt lat="47.20934" lon="-1.81443">
        <ele>9.83</ele>
        <time>2020-05-23T12:13:51Z</time>
      </trkpt>
      <trkpt lat="47.20928" lon="-1.81425">
        <ele>8.4</ele>
        <time>2020-05-23T12:13:53Z</time>
      </trkpt>
      <trkpt lat="47.20922" lon="-1.81405">
        <ele>8.12</ele>
        <time>2020-05-23T12:13:55Z</time>
      </trkpt>
      <trkpt lat="47.20915" lon="-1.81385">
        <ele>7.78</ele>
        <time>2020-05-23T12:13:57Z</time>
      </trkpt>
      <trkpt lat="47.2091" lon="-1.81367">
        <ele>8.11</ele>
        <time>2020-05-23T12:13:59Z</time>
      </trkpt>
      <trkpt lat="47.20904" lon="-1.81351">
        <ele>8.47</ele>
        <time>2020-05-23T12:14:01Z</time>
      </trkpt>
      <trkpt lat="47.20898" lon="-1.81335">
        <ele>9.3</ele>
        <time>2020-05-23T12:14:03Z</time>
      </trkpt>
      <trkpt lat="47.20892" lon="-1.81318">
        <ele>9.82</ele>
        <time>2020-05-23T12:14:05Z</time>
      </trkpt>
      <trkpt lat="47.20885" lon="-1.813">
        <ele>10.1</ele>
        <time>2020-05-23T12:14:07Z</time>
      </trkpt>
      <trkpt lat="47.20879" lon="-1.81281">
        <ele>8.89</ele>
        <time>2020-05-23T12:14:09Z</time>
      </trkpt>
      <trkpt lat="47.20873" lon="-1.81263">
        <ele>6.96</ele>
        <time>2020-05-23T12:14:11Z</time>
      </trkpt>
      <trkpt lat="47.20867" lon="-1.81244">
        <ele>5.86</ele>
        <time>2020-05-23T12:14:13Z</time>
      </trkpt>
      <trkpt lat="47.20861" lon="-1.81224">
        <ele>4.58</ele>
        <time>2020-05-23T12:14:15Z</time>
      </trkpt>
      <trkpt lat="47.20856" lon="-1.81204">
        <ele>3.32</ele>
        <time>2020-05-23T12:14:17Z</time>
      </trkpt>
      <trkpt lat="47.20851" lon="-1.81186">
        <ele>3.75</ele>
        <time>2020-05-23T12:14:19Z</time>
      </trkpt>
      <trkpt lat="47.20846" lon="-1.81168">
        <ele>3.96</ele>
        <time>2020-05-23T12:14:21Z</time>
      </trkpt>
      <trkpt lat="47.20842" lon="-1.81151">
        <ele>4.01</ele>
        <time>2020-05-23T12:14:23Z</time>
      </trkpt>
      <trkpt lat="47.20838" lon="-1.81132">
        <ele>4.15</ele>
        <time>2020-05-23T12:14:25Z</time>
      </trkpt>
      <trkpt lat="47.20833" lon="-1.81113">
        <ele>3.41</ele>
        <time>2020-05-23T12:14:27Z</time>
      </trkpt>
      <trkpt lat="47.20828" lon="-1.81094">
        <ele>3.79</ele>
        <time>2020-05-23T12:14:29Z</time>
      </trkpt>
      <trkpt lat="47.20824" lon="-1.81072">
        <ele>4.09</ele>
        <time>2020-05-23T12:14:31Z</time>
      </trkpt>
      <trkpt lat="47.2082" lon="-1.81053">
        <ele>5.52</ele>
        <time>2020-05-23T12:14:33Z</time>
      </trkpt>
      <trkpt lat="47.20816" lon="-1.81033">
        <ele>6.87</ele>
        <time>2020-05-23T12:14:35Z</time>
      </trkpt>
      <trkpt lat="47.20812" lon="-1.81015">
        <ele>7.83</ele>
        <time>2020-05-23T12:14:37Z</time>
      </trkpt>
      <trkpt lat="47.20807" lon="-1.80993">
        <ele>8.66</ele>
        <time>2020-05-23T12:14:39Z</time>
      </trkpt>
      <trkpt lat="47.20803" lon="-1.80975">
        <ele>9.33</ele>
        <time>2020-05-23T12:14:41Z</time>
      </trkpt>
      <trkpt lat="47.20799" lon="-1.80954">
        <ele>9.37</ele>
        <time>2020-05-23T12:14:44Z</time>
      </trkpt>
      <trkpt lat="47.20795" lon="-1.80936">
        <ele>9.16</ele>
        <time>2020-05-23T12:14:46Z</time>
      </trkpt>
      <trkpt lat="47.20791" lon="-1.80918">
        <ele>8.73</ele>
        <time>2020-05-23T12:14:48Z</time>
      </trkpt>
      <trkpt lat="47.20787" lon="-1.80897">
        <ele>8.44</ele>
        <time>2020-05-23T12:14:50Z</time>
      </trkpt>
      <trkpt lat="47.20782" lon="-1.80876">
        <ele>8.33</ele>
        <time>2020-05-23T12:14:52Z</time>
      </trkpt>
      <trkpt lat="47.20779" lon="-1.80855">
        <ele>8.62</ele>
        <time>2020-05-23T12:14:54Z</time>
      </trkpt>
      <trkpt lat="47.20775" lon="-1.80834">
        <ele>8.26</ele>
        <time>2020-05-23T12:14:56Z</time>
      </trkpt>
      <trkpt lat="47.20773" lon="-1.80815">
        <ele>7</ele>
        <time>2020-05-23T12:14:58Z</time>
      </trkpt>
      <trkpt lat="47.20769" lon="-1.80795">
        <ele>5.23</ele>
        <time>2020-05-23T12:15:00Z</time>
      </trkpt>
      <trkpt lat="47.20766" lon="-1.80778">
        <ele>4.4</ele>
        <time>2020-05-23T12:15:02Z</time>
      </trkpt>
      <trkpt lat="47.20763" lon="-1.80759">
        <ele>4.18</ele>
        <time>2020-05-23T12:15:04Z</time>
      </trkpt>
      <trkpt lat="47.20759" lon="-1.80736">
        <ele>3.96</ele>
        <time>2020-05-23T12:15:06Z</time>
      </trkpt>
      <trkpt lat="47.20756" lon="-1.80713">
        <ele>3.2</ele>
        <time>2020-05-23T12:15:08Z</time>
      </trkpt>
      <trkpt lat="47.20753" lon="-1.80692">
        <ele>2.61</ele>
        <time>2020-05-23T12:15:10Z</time>
      </trkpt>
      <trkpt lat="47.2075" lon="-1.80672">
        <ele>1.96</ele>
        <time>2020-05-23T12:15:12Z</time>
      </trkpt>
      <trkpt lat="47.20748" lon="-1.80652">
        <ele>2.31</ele>
        <time>2020-05-23T12:15:14Z</time>
      </trkpt>
      <trkpt lat="47.20745" lon="-1.80631">
        <ele>3.17</ele>
        <time>2020-05-23T12:15:16Z</time>
      </trkpt>
      <trkpt lat="47.20743" lon="-1.8061">
        <ele>4.53</ele>
        <time>2020-05-23T12:15:18Z</time>
      </trkpt>
      <trkpt lat="47.20742" lon="-1.80589">
        <ele>5.03</ele>
        <time>2020-05-23T12:15:20Z</time>
      </trkpt>
      <trkpt lat="47.2074" lon="-1.80569">
        <ele>5.06</ele>
        <time>2020-05-23T12:15:22Z</time>
      </trkpt>
      <trkpt lat="47.20738" lon="-1.80549">
        <ele>5.3</ele>
        <time>2020-05-23T12:15:24Z</time>
      </trkpt>
      <trkpt lat="47.20736" lon="-1.80529">
        <ele>5.83</ele>
        <time>2020-05-23T12:15:26Z</time>
      </trkpt>
      <trkpt lat="47.20734" lon="-1.80511">
        <ele>6.65</ele>
        <time>2020-05-23T12:15:28Z</time>
      </trkpt>
      <trkpt lat="47.20732" lon="-1.80489">
        <ele>6.64</ele>
        <time>2020-05-23T12:15:30Z</time>
      </trkpt>
      <trkpt lat="47.2073" lon="-1.80465">
        <ele>5.55</ele>
        <time>2020-05-23T12:15:32Z</time>
      </trkpt>
      <trkpt lat="47.20728" lon="-1.80443">
        <ele>5.62</ele>
        <time>2020-05-23T12:15:34Z</time>
      </trkpt>
      <trkpt lat="47.20727" lon="-1.80424">
        <ele>5.75</ele>
        <time>2020-05-23T12:15:36Z</time>
      </trkpt>
      <trkpt lat="47.20725" lon="-1.80403">
        <ele>5.98</ele>
        <time>2020-05-23T12:15:38Z</time>
      </trkpt>
      <trkpt lat="47.20723" lon="-1.80382">
        <ele>4.44</ele>
        <time>2020-05-23T12:15:40Z</time>
      </trkpt>
      <trkpt lat="47.20722" lon="-1.80361">
        <ele>3.4</ele>
        <time>2020-05-23T12:15:42Z</time>
      </trkpt>
      <trkpt lat="47.20721" lon="-1.80341">
        <ele>3.67</ele>
        <time>2020-05-23T12:15:44Z</time>
      </trkpt>
      <trkpt lat="47.20719" lon="-1.80319">
        <ele>3.65</ele>
        <time>2020-05-23T12:15:46Z</time>
      </trkpt>
      <trkpt lat="47.20717" lon="-1.80297">
        <ele>2.5</ele>
        <time>2020-05-23T12:15:48Z</time>
      </trkpt>
      <trkpt lat="47.20716" lon="-1.80278">
        <ele>2.41</ele>
        <time>2020-05-23T12:15:50Z</time>
      </trkpt>
      <trkpt lat="47.20713" lon="-1.80256">
        <ele>1.53</ele>
        <time>2020-05-23T12:15:52Z</time>
      </trkpt>
      <trkpt lat="47.20712" lon="-1.80234">
        <ele>2.08</ele>
        <time>2020-05-23T12:15:54Z</time>
      </trkpt>
      <trkpt lat="47.20711" lon="-1.80214">
        <ele>3.29</ele>
        <time>2020-05-23T12:15:56Z</time>
      </trkpt>
      <trkpt lat="47.2071" lon="-1.80192">
        <ele>5.09</ele>
        <time>2020-05-23T12:15:58Z</time>
      </trkpt>
      <trkpt lat="47.2071" lon="-1.80173">
        <ele>6.25</ele>
        <time>2020-05-23T12:16:00Z</time>
      </trkpt>
      <trkpt lat="47.2071" lon="-1.80152">
        <ele>7.41</ele>
        <time>2020-05-23T12:16:02Z</time>
      </trkpt>
      <trkpt lat="47.20709" lon="-1.80135">
        <ele>8.65</ele>
        <time>2020-05-23T12:16:04Z</time>
      </trkpt>
      <trkpt lat="47.20707" lon="-1.80115">
        <ele>10.22</ele>
        <time>2020-05-23T12:16:06Z</time>
      </trkpt>
      <trkpt lat="47.20706" lon="-1.80093">
        <ele>10.69</ele>
        <time>2020-05-23T12:16:08Z</time>
      </trkpt>
      <trkpt lat="47.20705" lon="-1.80072">
        <ele>10.52</ele>
        <time>2020-05-23T12:16:10Z</time>
      </trkpt>
      <trkpt lat="47.20703" lon="-1.80052">
        <ele>9.45</ele>
        <time>2020-05-23T12:16:12Z</time>
      </trkpt>
      <trkpt lat="47.20701" lon="-1.80032">
        <ele>8.48</ele>
        <time>2020-05-23T12:16:14Z</time>
      </trkpt>
      <trkpt lat="47.207" lon="-1.80009">
        <ele>7.92</ele>
        <time>2020-05-23T12:16:16Z</time>
      </trkpt>
      <trkpt lat="47.20698" lon="-1.7999">
        <ele>7.72</ele>
        <time>2020-05-23T12:16:18Z</time>
      </trkpt>
      <trkpt lat="47.20698" lon="-1.79972">
        <ele>8.2</ele>
        <time>2020-05-23T12:16:20Z</time>
      </trkpt>
      <trkpt lat="47.20697" lon="-1.7995">
        <ele>9.21</ele>
        <time>2020-05-23T12:16:22Z</time>
      </trkpt>
      <trkpt lat="47.20696" lon="-1.79926">
        <ele>10.6</ele>
        <time>2020-05-23T12:16:24Z</time>
      </trkpt>
      <trkpt lat="47.20695" lon="-1.79906">
        <ele>10.29</ele>
        <time>2020-05-23T12:16:26Z</time>
      </trkpt>
      <trkpt lat="47.20694" lon="-1.79885">
        <ele>10.28</ele>
        <time>2020-05-23T12:16:28Z</time>
      </trkpt>
      <trkpt lat="47.20693" lon="-1.79865">
        <ele>11.43</ele>
        <time>2020-05-23T12:16:30Z</time>
      </trkpt>
      <trkpt lat="47.20692" lon="-1.79845">
        <ele>11.88</ele>
        <time>2020-05-23T12:16:32Z</time>
      </trkpt>
      <trkpt lat="47.2069" lon="-1.79823">
        <ele>11.12</ele>
        <time>2020-05-23T12:16:34Z</time>
      </trkpt>
      <trkpt lat="47.2069" lon="-1.79802">
        <ele>10.08</ele>
        <time>2020-05-23T12:16:36Z</time>
      </trkpt>
      <trkpt lat="47.20688" lon="-1.79782">
        <ele>9.99</ele>
        <time>2020-05-23T12:16:38Z</time>
      </trkpt>
      <trkpt lat="47.20687" lon="-1.79762">
        <ele>10.38</ele>
        <time>2020-05-23T12:16:40Z</time>
      </trkpt>
      <trkpt lat="47.20686" lon="-1.79742">
        <ele>9.79</ele>
        <time>2020-05-23T12:16:42Z</time>
      </trkpt>
      <trkpt lat="47.20685" lon="-1.79719">
        <ele>9.33</ele>
        <time>2020-05-23T12:16:44Z</time>
      </trkpt>
      <trkpt lat="47.20684" lon="-1.79698">
        <ele>8.75</ele>
        <time>2020-05-23T12:16:46Z</time>
      </trkpt>
      <trkpt lat="47.20682" lon="-1.79676">
        <ele>8.53</ele>
        <time>2020-05-23T12:16:48Z</time>
      </trkpt>
      <trkpt lat="47.20682" lon="-1.79654">
        <ele>8.72</ele>
        <time>2020-05-23T12:16:50Z</time>
      </trkpt>
      <trkpt lat="47.20681" lon="-1.79634">
        <ele>9.25</ele>
        <time>2020-05-23T12:16:52Z</time>
      </trkpt>
      <trkpt lat="47.2068" lon="-1.79614">
        <ele>8.79</ele>
        <time>2020-05-23T12:16:54Z</time>
      </trkpt>
      <trkpt lat="47.2068" lon="-1.79593">
        <ele>8.46</ele>
        <time>2020-05-23T12:16:56Z</time>
      </trkpt>
      <trkpt lat="47.20679" lon="-1.7957">
        <ele>8.48</ele>
        <time>2020-05-23T12:16:58Z</time>
      </trkpt>
      <trkpt lat="47.2068" lon="-1.7955">
        <ele>8.83</ele>
        <time>2020-05-23T12:17:00Z</time>
      </trkpt>
      <trkpt lat="47.2068" lon="-1.79528">
        <ele>9.62</ele>
        <time>2020-05-23T12:17:02Z</time>
      </trkpt>
      <trkpt lat="47.20681" lon="-1.79505">
        <ele>9.31</ele>
        <time>2020-05-23T12:17:04Z</time>
      </trkpt>
      <trkpt lat="47.20681" lon="-1.79484">
        <ele>9.2</ele>
        <time>2020-05-23T12:17:06Z</time>
      </trkpt>
      <trkpt lat="47.20681" lon="-1.79463">
        <ele>8.89</ele>
        <time>2020-05-23T12:17:08Z</time>
      </trkpt>
      <trkpt lat="47.20682" lon="-1.79438">
        <ele>8.11</ele>
        <time>2020-05-23T12:17:10Z</time>
      </trkpt>
      <trkpt lat="47.20685" lon="-1.79417">
        <ele>8</ele>
        <time>2020-05-23T12:17:12Z</time>
      </trkpt>
      <trkpt lat="47.20693" lon="-1.79397">
        <ele>7.6</ele>
        <time>2020-05-23T12:17:14Z</time>
      </trkpt>
      <trkpt lat="47.207" lon="-1.79378">
        <ele>7.81</ele>
        <time>2020-05-23T12:17:16Z</time>
      </trkpt>
      <trkpt lat="47.20706" lon="-1.79359">
        <ele>8.27</ele>
        <time>2020-05-23T12:17:18Z</time>
      </trkpt>
      <trkpt lat="47.2071" lon="-1.79343">
        <ele>8.86</ele>
        <time>2020-05-23T12:17:20Z</time>
      </trkpt>
      <trkpt lat="47.20711" lon="-1.79321">
        <ele>9.37</ele>
        <time>2020-05-23T12:17:22Z</time>
      </trkpt>
      <trkpt lat="47.20711" lon="-1.79299">
        <ele>9.37</ele>
        <time>2020-05-23T12:17:24Z</time>
      </trkpt>
      <trkpt lat="47.2071" lon="-1.79277">
        <ele>9.12</ele>
        <time>2020-05-23T12:17:26Z</time>
      </trkpt>
      <trkpt lat="47.20708" lon="-1.79258">
        <ele>10.14</ele>
        <time>2020-05-23T12:17:28Z</time>
      </trkpt>
      <trkpt lat="47.20705" lon="-1.79236">
        <ele>9.71</ele>
        <time>2020-05-23T12:17:30Z</time>
      </trkpt>
      <trkpt lat="47.20702" lon="-1.79216">
        <ele>8.92</ele>
        <time>2020-05-23T12:17:32Z</time>
      </trkpt>
      <trkpt lat="47.20701" lon="-1.79192">
        <ele>8.54</ele>
        <time>2020-05-23T12:17:34Z</time>
      </trkpt>
      <trkpt lat="47.20701" lon="-1.7917">
        <ele>8.71</ele>
        <time>2020-05-23T12:17:36Z</time>
      </trkpt>
      <trkpt lat="47.20704" lon="-1.79149">
        <ele>9.57</ele>
        <time>2020-05-23T12:17:38Z</time>
      </trkpt>
      <trkpt lat="47.20707" lon="-1.79126">
        <ele>9.2</ele>
        <time>2020-05-23T12:17:40Z</time>
      </trkpt>
      <trkpt lat="47.2071" lon="-1.79102">
        <ele>8.79</ele>
        <time>2020-05-23T12:17:42Z</time>
      </trkpt>
      <trkpt lat="47.20713" lon="-1.79081">
        <ele>8.37</ele>
        <time>2020-05-23T12:17:44Z</time>
      </trkpt>
      <trkpt lat="47.20717" lon="-1.79057">
        <ele>7.35</ele>
        <time>2020-05-23T12:17:46Z</time>
      </trkpt>
      <trkpt lat="47.20723" lon="-1.79039">
        <ele>6.9</ele>
        <time>2020-05-23T12:17:48Z</time>
      </trkpt>
      <trkpt lat="47.20732" lon="-1.7902">
        <ele>6.73</ele>
        <time>2020-05-23T12:17:50Z</time>
      </trkpt>
      <trkpt lat="47.20743" lon="-1.79001">
        <ele>7.26</ele>
        <time>2020-05-23T12:17:52Z</time>
      </trkpt>
      <trkpt lat="47.20753" lon="-1.78985">
        <ele>7.83</ele>
        <time>2020-05-23T12:17:54Z</time>
      </trkpt>
      <trkpt lat="47.20763" lon="-1.78969">
        <ele>9.11</ele>
        <time>2020-05-23T12:17:56Z</time>
      </trkpt>
      <trkpt lat="47.20773" lon="-1.78952">
        <ele>10.38</ele>
        <time>2020-05-23T12:17:58Z</time>
      </trkpt>
      <trkpt lat="47.2078" lon="-1.78938">
        <ele>10.49</ele>
        <time>2020-05-23T12:18:00Z</time>
      </trkpt>
      <trkpt lat="47.20786" lon="-1.78917">
        <ele>10.04</ele>
        <time>2020-05-23T12:18:02Z</time>
      </trkpt>
      <trkpt lat="47.20791" lon="-1.78897">
        <ele>9.73</ele>
        <time>2020-05-23T12:18:04Z</time>
      </trkpt>
      <trkpt lat="47.20795" lon="-1.78878">
        <ele>9.44</ele>
        <time>2020-05-23T12:18:06Z</time>
      </trkpt>
      <trkpt lat="47.208" lon="-1.78857">
        <ele>8.41</ele>
        <time>2020-05-23T12:18:08Z</time>
      </trkpt>
      <trkpt lat="47.20804" lon="-1.78837">
        <ele>8.83</ele>
        <time>2020-05-23T12:18:10Z</time>
      </trkpt>
      <trkpt lat="47.20808" lon="-1.78816">
        <ele>9.73</ele>
        <time>2020-05-23T12:18:12Z</time>
      </trkpt>
      <trkpt lat="47.20812" lon="-1.78797">
        <ele>9.52</ele>
        <time>2020-05-23T12:18:14Z</time>
      </trkpt>
      <trkpt lat="47.20816" lon="-1.78777">
        <ele>8.89</ele>
        <time>2020-05-23T12:18:16Z</time>
      </trkpt>
      <trkpt lat="47.20819" lon="-1.78759">
        <ele>8.79</ele>
        <time>2020-05-23T12:18:18Z</time>
      </trkpt>
      <trkpt lat="47.20823" lon="-1.7874">
        <ele>8.89</ele>
        <time>2020-05-23T12:18:20Z</time>
      </trkpt>
      <trkpt lat="47.20827" lon="-1.78719">
        <ele>8.26</ele>
        <time>2020-05-23T12:18:22Z</time>
      </trkpt>
      <trkpt lat="47.2083" lon="-1.78698">
        <ele>7.24</ele>
        <time>2020-05-23T12:18:24Z</time>
      </trkpt>
      <trkpt lat="47.2083" lon="-1.78679">
        <ele>8.02</ele>
        <time>2020-05-23T12:18:26Z</time>
      </trkpt>
      <trkpt lat="47.20829" lon="-1.78659">
        <ele>8.26</ele>
        <time>2020-05-23T12:18:28Z</time>
      </trkpt>
      <trkpt lat="47.20827" lon="-1.7864">
        <ele>7.86</ele>
        <time>2020-05-23T12:18:30Z</time>
      </trkpt>
      <trkpt lat="47.20821" lon="-1.78621">
        <ele>7.29</ele>
        <time>2020-05-23T12:18:32Z</time>
      </trkpt>
      <trkpt lat="47.20811" lon="-1.78609">
        <ele>7.65</ele>
        <time>2020-05-23T12:18:34Z</time>
      </trkpt>
      <trkpt lat="47.20799" lon="-1.78597">
        <ele>8.44</ele>
        <time>2020-05-23T12:18:36Z</time>
      </trkpt>
      <trkpt lat="47.20788" lon="-1.78587">
        <ele>10.03</ele>
        <time>2020-05-23T12:18:38Z</time>
      </trkpt>
      <trkpt lat="47.20774" lon="-1.78577">
        <ele>11.28</ele>
        <time>2020-05-23T12:18:40Z</time>
      </trkpt>
      <trkpt lat="47.20762" lon="-1.7857">
        <ele>11.76</ele>
        <time>2020-05-23T12:18:42Z</time>
      </trkpt>
      <trkpt lat="47.2075" lon="-1.78565">
        <ele>12.16</ele>
        <time>2020-05-23T12:18:44Z</time>
      </trkpt>
      <trkpt lat="47.20736" lon="-1.78561">
        <ele>12.21</ele>
        <time>2020-05-23T12:18:46Z</time>
      </trkpt>
      <trkpt lat="47.20723" lon="-1.78557">
        <ele>11.79</ele>
        <time>2020-05-23T12:18:48Z</time>
      </trkpt>
      <trkpt lat="47.20711" lon="-1.78555">
        <ele>10.97</ele>
        <time>2020-05-23T12:18:50Z</time>
      </trkpt>
      <trkpt lat="47.20698" lon="-1.78554">
        <ele>11.13</ele>
        <time>2020-05-23T12:18:52Z</time>
      </trkpt>
      <trkpt lat="47.20686" lon="-1.78553">
        <ele>12.19</ele>
        <time>2020-05-23T12:18:54Z</time>
      </trkpt>
      <trkpt lat="47.20673" lon="-1.78552">
        <ele>12.67</ele>
        <time>2020-05-23T12:18:56Z</time>
      </trkpt>
      <trkpt lat="47.20659" lon="-1.7855">
        <ele>13.12</ele>
        <time>2020-05-23T12:18:58Z</time>
      </trkpt>
      <trkpt lat="47.2065" lon="-1.78546">
        <ele>13.65</ele>
        <time>2020-05-23T12:19:00Z</time>
      </trkpt>
      <trkpt lat="47.20637" lon="-1.78538">
        <ele>13.18</ele>
        <time>2020-05-23T12:19:02Z</time>
      </trkpt>
      <trkpt lat="47.20626" lon="-1.78522">
        <ele>11.34</ele>
        <time>2020-05-23T12:19:04Z</time>
      </trkpt>
      <trkpt lat="47.20623" lon="-1.785">
        <ele>10.41</ele>
        <time>2020-05-23T12:19:06Z</time>
      </trkpt>
      <trkpt lat="47.20626" lon="-1.78479">
        <ele>9.69</ele>
        <time>2020-05-23T12:19:08Z</time>
      </trkpt>
      <trkpt lat="47.20626" lon="-1.78465">
        <ele>9.09</ele>
        <time>2020-05-23T12:19:09Z</time>
      </trkpt>
      <trkpt lat="47.20626" lon="-1.7844">
        <ele>8.04</ele>
        <time>2020-05-23T12:19:11Z</time>
      </trkpt>
      <trkpt lat="47.20626" lon="-1.78417">
        <ele>8.96</ele>
        <time>2020-05-23T12:19:13Z</time>
      </trkpt>
      <trkpt lat="47.20624" lon="-1.78396">
        <ele>9.8</ele>
        <time>2020-05-23T12:19:15Z</time>
      </trkpt>
      <trkpt lat="47.20623" lon="-1.78376">
        <ele>9.11</ele>
        <time>2020-05-23T12:19:17Z</time>
      </trkpt>
      <trkpt lat="47.20621" lon="-1.78356">
        <ele>8.1</ele>
        <time>2020-05-23T12:19:19Z</time>
      </trkpt>
      <trkpt lat="47.20618" lon="-1.78336">
        <ele>7.53</ele>
        <time>2020-05-23T12:19:21Z</time>
      </trkpt>
      <trkpt lat="47.20615" lon="-1.78316">
        <ele>8.56</ele>
        <time>2020-05-23T12:19:23Z</time>
      </trkpt>
      <trkpt lat="47.20612" lon="-1.78296">
        <ele>10.16</ele>
        <time>2020-05-23T12:19:25Z</time>
      </trkpt>
      <trkpt lat="47.20609" lon="-1.78278">
        <ele>11.14</ele>
        <time>2020-05-23T12:19:27Z</time>
      </trkpt>
      <trkpt lat="47.20606" lon="-1.78258">
        <ele>9.61</ele>
        <time>2020-05-23T12:19:29Z</time>
      </trkpt>
      <trkpt lat="47.20603" lon="-1.78239">
        <ele>7.02</ele>
        <time>2020-05-23T12:19:31Z</time>
      </trkpt>
      <trkpt lat="47.20599" lon="-1.78218">
        <ele>5.63</ele>
        <time>2020-05-23T12:19:33Z</time>
      </trkpt>
      <trkpt lat="47.20595" lon="-1.78194">
        <ele>5.53</ele>
        <time>2020-05-23T12:19:35Z</time>
      </trkpt>
      <trkpt lat="47.20592" lon="-1.78173">
        <ele>5.5</ele>
        <time>2020-05-23T12:19:37Z</time>
      </trkpt>
      <trkpt lat="47.20589" lon="-1.78155">
        <ele>5.91</ele>
        <time>2020-05-23T12:19:39Z</time>
      </trkpt>
      <trkpt lat="47.20587" lon="-1.78135">
        <ele>6.69</ele>
        <time>2020-05-23T12:19:41Z</time>
      </trkpt>
      <trkpt lat="47.20586" lon="-1.78115">
        <ele>7.63</ele>
        <time>2020-05-23T12:19:43Z</time>
      </trkpt>
      <trkpt lat="47.20585" lon="-1.78095">
        <ele>9.05</ele>
        <time>2020-05-23T12:19:45Z</time>
      </trkpt>
      <trkpt lat="47.20585" lon="-1.78074">
        <ele>9.14</ele>
        <time>2020-05-23T12:19:47Z</time>
      </trkpt>
      <trkpt lat="47.20586" lon="-1.78058">
        <ele>9.16</ele>
        <time>2020-05-23T12:19:49Z</time>
      </trkpt>
      <trkpt lat="47.20586" lon="-1.78044">
        <ele>9.14</ele>
        <time>2020-05-23T12:19:51Z</time>
      </trkpt>
      <trkpt lat="47.20585" lon="-1.78026">
        <ele>10.39</ele>
        <time>2020-05-23T12:19:53Z</time>
      </trkpt>
      <trkpt lat="47.20585" lon="-1.78006">
        <ele>11.88</ele>
        <time>2020-05-23T12:19:55Z</time>
      </trkpt>
      <trkpt lat="47.20584" lon="-1.7799">
        <ele>13.22</ele>
        <time>2020-05-23T12:19:57Z</time>
      </trkpt>
      <trkpt lat="47.20583" lon="-1.77973">
        <ele>14.1</ele>
        <time>2020-05-23T12:19:59Z</time>
      </trkpt>
      <trkpt lat="47.20581" lon="-1.77956">
        <ele>14.57</ele>
        <time>2020-05-23T12:20:01Z</time>
      </trkpt>
      <trkpt lat="47.2058" lon="-1.77939">
        <ele>14.63</ele>
        <time>2020-05-23T12:20:03Z</time>
      </trkpt>
      <trkpt lat="47.20581" lon="-1.77922">
        <ele>14.51</ele>
        <time>2020-05-23T12:20:05Z</time>
      </trkpt>
      <trkpt lat="47.20582" lon="-1.77901">
        <ele>13.74</ele>
        <time>2020-05-23T12:20:07Z</time>
      </trkpt>
      <trkpt lat="47.20584" lon="-1.77879">
        <ele>14.03</ele>
        <time>2020-05-23T12:20:09Z</time>
      </trkpt>
      <trkpt lat="47.20586" lon="-1.7786">
        <ele>14.25</ele>
        <time>2020-05-23T12:20:11Z</time>
      </trkpt>
      <trkpt lat="47.20589" lon="-1.77842">
        <ele>14.19</ele>
        <time>2020-05-23T12:20:13Z</time>
      </trkpt>
      <trkpt lat="47.20592" lon="-1.77823">
        <ele>15</ele>
        <time>2020-05-23T12:20:15Z</time>
      </trkpt>
      <trkpt lat="47.20596" lon="-1.77806">
        <ele>16.01</ele>
        <time>2020-05-23T12:20:17Z</time>
      </trkpt>
      <trkpt lat="47.20597" lon="-1.77786">
        <ele>16.7</ele>
        <time>2020-05-23T12:20:19Z</time>
      </trkpt>
      <trkpt lat="47.20598" lon="-1.77766">
        <ele>15.84</ele>
        <time>2020-05-23T12:20:21Z</time>
      </trkpt>
      <trkpt lat="47.20599" lon="-1.77746">
        <ele>14.9</ele>
        <time>2020-05-23T12:20:23Z</time>
      </trkpt>
      <trkpt lat="47.206" lon="-1.77727">
        <ele>12.84</ele>
        <time>2020-05-23T12:20:25Z</time>
      </trkpt>
      <trkpt lat="47.20599" lon="-1.77707">
        <ele>10.12</ele>
        <time>2020-05-23T12:20:28Z</time>
      </trkpt>
      <trkpt lat="47.20601" lon="-1.77687">
        <ele>9.32</ele>
        <time>2020-05-23T12:20:30Z</time>
      </trkpt>
      <trkpt lat="47.20605" lon="-1.77662">
        <ele>9.79</ele>
        <time>2020-05-23T12:20:32Z</time>
      </trkpt>
      <trkpt lat="47.20609" lon="-1.77639">
        <ele>10.27</ele>
        <time>2020-05-23T12:20:34Z</time>
      </trkpt>
      <trkpt lat="47.20613" lon="-1.77617">
        <ele>11.35</ele>
        <time>2020-05-23T12:20:36Z</time>
      </trkpt>
      <trkpt lat="47.20615" lon="-1.77601">
        <ele>11.59</ele>
        <time>2020-05-23T12:20:37Z</time>
      </trkpt>
      <trkpt lat="47.20614" lon="-1.77587">
        <ele>11.42</ele>
        <time>2020-05-23T12:20:38Z</time>
      </trkpt>
      <trkpt lat="47.20613" lon="-1.77573">
        <ele>11.39</ele>
        <time>2020-05-23T12:20:39Z</time>
      </trkpt>
      <trkpt lat="47.20613" lon="-1.77559">
        <ele>11.95</ele>
        <time>2020-05-23T12:20:40Z</time>
      </trkpt>
      <trkpt lat="47.2061" lon="-1.77537">
        <ele>12.58</ele>
        <time>2020-05-23T12:20:42Z</time>
      </trkpt>
      <trkpt lat="47.20606" lon="-1.77512">
        <ele>12.7</ele>
        <time>2020-05-23T12:20:44Z</time>
      </trkpt>
      <trkpt lat="47.20602" lon="-1.7749">
        <ele>12.76</ele>
        <time>2020-05-23T12:20:46Z</time>
      </trkpt>
      <trkpt lat="47.20597" lon="-1.77469">
        <ele>13.54</ele>
        <time>2020-05-23T12:20:48Z</time>
      </trkpt>
      <trkpt lat="47.20592" lon="-1.77451">
        <ele>13.78</ele>
        <time>2020-05-23T12:20:50Z</time>
      </trkpt>
      <trkpt lat="47.20588" lon="-1.77434">
        <ele>14.22</ele>
        <time>2020-05-23T12:20:52Z</time>
      </trkpt>
      <trkpt lat="47.20587" lon="-1.77413">
        <ele>14.68</ele>
        <time>2020-05-23T12:20:54Z</time>
      </trkpt>
      <trkpt lat="47.20581" lon="-1.77392">
        <ele>15.06</ele>
        <time>2020-05-23T12:20:56Z</time>
      </trkpt>
      <trkpt lat="47.20576" lon="-1.77371">
        <ele>13.32</ele>
        <time>2020-05-23T12:20:58Z</time>
      </trkpt>
      <trkpt lat="47.20571" lon="-1.77351">
        <ele>11.73</ele>
        <time>2020-05-23T12:21:00Z</time>
      </trkpt>
      <trkpt lat="47.20568" lon="-1.77329">
        <ele>10.43</ele>
        <time>2020-05-23T12:21:02Z</time>
      </trkpt>
      <trkpt lat="47.20567" lon="-1.77308">
        <ele>9.82</ele>
        <time>2020-05-23T12:21:04Z</time>
      </trkpt>
      <trkpt lat="47.2057" lon="-1.77285">
        <ele>10.37</ele>
        <time>2020-05-23T12:21:06Z</time>
      </trkpt>
      <trkpt lat="47.20569" lon="-1.77265">
        <ele>11.08</ele>
        <time>2020-05-23T12:21:08Z</time>
      </trkpt>
      <trkpt lat="47.20569" lon="-1.77244">
        <ele>11.71</ele>
        <time>2020-05-23T12:21:10Z</time>
      </trkpt>
      <trkpt lat="47.2057" lon="-1.77221">
        <ele>10.58</ele>
        <time>2020-05-23T12:21:12Z</time>
      </trkpt>
      <trkpt lat="47.2057" lon="-1.77199">
        <ele>9.67</ele>
        <time>2020-05-23T12:21:14Z</time>
      </trkpt>
      <trkpt lat="47.20569" lon="-1.77179">
        <ele>10.65</ele>
        <time>2020-05-23T12:21:16Z</time>
      </trkpt>
      <trkpt lat="47.20567" lon="-1.77158">
        <ele>11.02</ele>
        <time>2020-05-23T12:21:18Z</time>
      </trkpt>
      <trkpt lat="47.20565" lon="-1.77137">
        <ele>10.76</ele>
        <time>2020-05-23T12:21:20Z</time>
      </trkpt>
      <trkpt lat="47.20563" lon="-1.77118">
        <ele>11.14</ele>
        <time>2020-05-23T12:21:22Z</time>
      </trkpt>
      <trkpt lat="47.20561" lon="-1.77099">
        <ele>10.77</ele>
        <time>2020-05-23T12:21:24Z</time>
      </trkpt>
      <trkpt lat="47.20558" lon="-1.77075">
        <ele>9.95</ele>
        <time>2020-05-23T12:21:26Z</time>
      </trkpt>
      <trkpt lat="47.20555" lon="-1.7705">
        <ele>9.28</ele>
        <time>2020-05-23T12:21:28Z</time>
      </trkpt>
      <trkpt lat="47.20553" lon="-1.77027">
        <ele>9.63</ele>
        <time>2020-05-23T12:21:30Z</time>
      </trkpt>
      <trkpt lat="47.20552" lon="-1.77005">
        <ele>10.31</ele>
        <time>2020-05-23T12:21:32Z</time>
      </trkpt>
      <trkpt lat="47.20551" lon="-1.76983">
        <ele>10.53</ele>
        <time>2020-05-23T12:21:34Z</time>
      </trkpt>
      <trkpt lat="47.2055" lon="-1.76962">
        <ele>9.94</ele>
        <time>2020-05-23T12:21:36Z</time>
      </trkpt>
      <trkpt lat="47.20549" lon="-1.76941">
        <ele>10.51</ele>
        <time>2020-05-23T12:21:38Z</time>
      </trkpt>
      <trkpt lat="47.20546" lon="-1.76917">
        <ele>10.84</ele>
        <time>2020-05-23T12:21:40Z</time>
      </trkpt>
      <trkpt lat="47.20543" lon="-1.76893">
        <ele>10.08</ele>
        <time>2020-05-23T12:21:42Z</time>
      </trkpt>
      <trkpt lat="47.20538" lon="-1.76872">
        <ele>9.03</ele>
        <time>2020-05-23T12:21:44Z</time>
      </trkpt>
      <trkpt lat="47.20533" lon="-1.76855">
        <ele>8.1</ele>
        <time>2020-05-23T12:21:46Z</time>
      </trkpt>
      <trkpt lat="47.20529" lon="-1.7684">
        <ele>7.81</ele>
        <time>2020-05-23T12:21:48Z</time>
      </trkpt>
      <trkpt lat="47.20524" lon="-1.76825">
        <ele>8.16</ele>
        <time>2020-05-23T12:21:50Z</time>
      </trkpt>
      <trkpt lat="47.20519" lon="-1.76805">
        <ele>7.62</ele>
        <time>2020-05-23T12:21:52Z</time>
      </trkpt>
      <trkpt lat="47.20514" lon="-1.76784">
        <ele>7.13</ele>
        <time>2020-05-23T12:21:54Z</time>
      </trkpt>
      <trkpt lat="47.20508" lon="-1.76762">
        <ele>7.37</ele>
        <time>2020-05-23T12:21:56Z</time>
      </trkpt>
      <trkpt lat="47.20503" lon="-1.76744">
        <ele>7.82</ele>
        <time>2020-05-23T12:21:58Z</time>
      </trkpt>
      <trkpt lat="47.20502" lon="-1.76723">
        <ele>8.34</ele>
        <time>2020-05-23T12:22:00Z</time>
      </trkpt>
      <trkpt lat="47.205" lon="-1.76697">
        <ele>8.96</ele>
        <time>2020-05-23T12:22:02Z</time>
      </trkpt>
      <trkpt lat="47.20496" lon="-1.76674">
        <ele>9.42</ele>
        <time>2020-05-23T12:22:04Z</time>
      </trkpt>
      <trkpt lat="47.20494" lon="-1.76661">
        <ele>9.39</ele>
        <time>2020-05-23T12:22:05Z</time>
      </trkpt>
      <trkpt lat="47.20489" lon="-1.76638">
        <ele>9.03</ele>
        <time>2020-05-23T12:22:07Z</time>
      </trkpt>
      <trkpt lat="47.20484" lon="-1.76614">
        <ele>8.67</ele>
        <time>2020-05-23T12:22:09Z</time>
      </trkpt>
      <trkpt lat="47.2048" lon="-1.76591">
        <ele>9.31</ele>
        <time>2020-05-23T12:22:11Z</time>
      </trkpt>
      <trkpt lat="47.20475" lon="-1.76569">
        <ele>9.64</ele>
        <time>2020-05-23T12:22:13Z</time>
      </trkpt>
      <trkpt lat="47.2047" lon="-1.76549">
        <ele>10.06</ele>
        <time>2020-05-23T12:22:15Z</time>
      </trkpt>
      <trkpt lat="47.20466" lon="-1.76532">
        <ele>9.99</ele>
        <time>2020-05-23T12:22:17Z</time>
      </trkpt>
      <trkpt lat="47.20464" lon="-1.7651">
        <ele>9.6</ele>
        <time>2020-05-23T12:22:19Z</time>
      </trkpt>
      <trkpt lat="47.20463" lon="-1.76486">
        <ele>10.34</ele>
        <time>2020-05-23T12:22:21Z</time>
      </trkpt>
      <trkpt lat="47.20464" lon="-1.76464">
        <ele>10.58</ele>
        <time>2020-05-23T12:22:23Z</time>
      </trkpt>
      <trkpt lat="47.20462" lon="-1.76441">
        <ele>11.1</ele>
        <time>2020-05-23T12:22:25Z</time>
      </trkpt>
      <trkpt lat="47.20457" lon="-1.76415">
        <ele>11.76</ele>
        <time>2020-05-23T12:22:27Z</time>
      </trkpt>
      <trkpt lat="47.20451" lon="-1.7639">
        <ele>12.57</ele>
        <time>2020-05-23T12:22:29Z</time>
      </trkpt>
      <trkpt lat="47.20448" lon="-1.76367">
        <ele>12.29</ele>
        <time>2020-05-23T12:22:31Z</time>
      </trkpt>
      <trkpt lat="47.20443" lon="-1.76342">
        <ele>13.06</ele>
        <time>2020-05-23T12:22:33Z</time>
      </trkpt>
      <trkpt lat="47.2044" lon="-1.76319">
        <ele>13.83</ele>
        <time>2020-05-23T12:22:35Z</time>
      </trkpt>
      <trkpt lat="47.20437" lon="-1.76295">
        <ele>13.96</ele>
        <time>2020-05-23T12:22:37Z</time>
      </trkpt>
      <trkpt lat="47.20435" lon="-1.76275">
        <ele>13.57</ele>
        <time>2020-05-23T12:22:39Z</time>
      </trkpt>
      <trkpt lat="47.20434" lon="-1.76257">
        <ele>12.9</ele>
        <time>2020-05-23T12:22:41Z</time>
      </trkpt>
      <trkpt lat="47.2043" lon="-1.76238">
        <ele>12.36</ele>
        <time>2020-05-23T12:22:43Z</time>
      </trkpt>
      <trkpt lat="47.20425" lon="-1.76215">
        <ele>12.44</ele>
        <time>2020-05-23T12:22:45Z</time>
      </trkpt>
      <trkpt lat="47.20421" lon="-1.76192">
        <ele>12.41</ele>
        <time>2020-05-23T12:22:47Z</time>
      </trkpt>
      <trkpt lat="47.20417" lon="-1.76171">
        <ele>13.02</ele>
        <time>2020-05-23T12:22:49Z</time>
      </trkpt>
      <trkpt lat="47.20413" lon="-1.76151">
        <ele>13.42</ele>
        <time>2020-05-23T12:22:51Z</time>
      </trkpt>
      <trkpt lat="47.2041" lon="-1.76131">
        <ele>13.74</ele>
        <time>2020-05-23T12:22:53Z</time>
      </trkpt>
      <trkpt lat="47.20408" lon="-1.76111">
        <ele>13.76</ele>
        <time>2020-05-23T12:22:55Z</time>
      </trkpt>
      <trkpt lat="47.20407" lon="-1.76091">
        <ele>14.2</ele>
        <time>2020-05-23T12:22:57Z</time>
      </trkpt>
      <trkpt lat="47.20405" lon="-1.76067">
        <ele>14.65</ele>
        <time>2020-05-23T12:22:59Z</time>
      </trkpt>
      <trkpt lat="47.20402" lon="-1.76046">
        <ele>14.98</ele>
        <time>2020-05-23T12:23:01Z</time>
      </trkpt>
      <trkpt lat="47.20399" lon="-1.76027">
        <ele>15.34</ele>
        <time>2020-05-23T12:23:03Z</time>
      </trkpt>
      <trkpt lat="47.20397" lon="-1.76004">
        <ele>15.34</ele>
        <time>2020-05-23T12:23:05Z</time>
      </trkpt>
      <trkpt lat="47.20396" lon="-1.75991">
        <ele>14.89</ele>
        <time>2020-05-23T12:23:06Z</time>
      </trkpt>
      <trkpt lat="47.20394" lon="-1.75977">
        <ele>14.59</ele>
        <time>2020-05-23T12:23:07Z</time>
      </trkpt>
      <trkpt lat="47.20393" lon="-1.75964">
        <ele>14.34</ele>
        <time>2020-05-23T12:23:08Z</time>
      </trkpt>
      <trkpt lat="47.20389" lon="-1.75939">
        <ele>13.78</ele>
        <time>2020-05-23T12:23:10Z</time>
      </trkpt>
      <trkpt lat="47.20385" lon="-1.75915">
        <ele>13.22</ele>
        <time>2020-05-23T12:23:12Z</time>
      </trkpt>
      <trkpt lat="47.20383" lon="-1.75901">
        <ele>13</ele>
        <time>2020-05-23T12:23:13Z</time>
      </trkpt>
      <trkpt lat="47.20377" lon="-1.75877">
        <ele>12.58</ele>
        <time>2020-05-23T12:23:15Z</time>
      </trkpt>
      <trkpt lat="47.20372" lon="-1.75854">
        <ele>11.73</ele>
        <time>2020-05-23T12:23:17Z</time>
      </trkpt>
      <trkpt lat="47.20366" lon="-1.75831">
        <ele>11.35</ele>
        <time>2020-05-23T12:23:19Z</time>
      </trkpt>
      <trkpt lat="47.20361" lon="-1.75809">
        <ele>10.86</ele>
        <time>2020-05-23T12:23:21Z</time>
      </trkpt>
      <trkpt lat="47.20355" lon="-1.75787">
        <ele>11</ele>
        <time>2020-05-23T12:23:23Z</time>
      </trkpt>
      <trkpt lat="47.20349" lon="-1.75764">
        <ele>11.13</ele>
        <time>2020-05-23T12:23:25Z</time>
      </trkpt>
      <trkpt lat="47.20343" lon="-1.75743">
        <ele>10.67</ele>
        <time>2020-05-23T12:23:27Z</time>
      </trkpt>
      <trkpt lat="47.20341" lon="-1.7573">
        <ele>10.84</ele>
        <time>2020-05-23T12:23:28Z</time>
      </trkpt>
      <trkpt lat="47.20338" lon="-1.75707">
        <ele>12.32</ele>
        <time>2020-05-23T12:23:30Z</time>
      </trkpt>
      <trkpt lat="47.20335" lon="-1.75683">
        <ele>12.87</ele>
        <time>2020-05-23T12:23:32Z</time>
      </trkpt>
      <trkpt lat="47.20332" lon="-1.7566">
        <ele>12.27</ele>
        <time>2020-05-23T12:23:34Z</time>
      </trkpt>
      <trkpt lat="47.20327" lon="-1.75638">
        <ele>11.76</ele>
        <time>2020-05-23T12:23:36Z</time>
      </trkpt>
      <trkpt lat="47.20322" lon="-1.75618">
        <ele>11.21</ele>
        <time>2020-05-23T12:23:38Z</time>
      </trkpt>
      <trkpt lat="47.20317" lon="-1.756">
        <ele>10.01</ele>
        <time>2020-05-23T12:23:40Z</time>
      </trkpt>
      <trkpt lat="47.20313" lon="-1.75581">
        <ele>9.44</ele>
        <time>2020-05-23T12:23:42Z</time>
      </trkpt>
      <trkpt lat="47.20305" lon="-1.75562">
        <ele>9.43</ele>
        <time>2020-05-23T12:23:44Z</time>
      </trkpt>
      <trkpt lat="47.20297" lon="-1.75538">
        <ele>9.46</ele>
        <time>2020-05-23T12:23:46Z</time>
      </trkpt>
      <trkpt lat="47.20293" lon="-1.75525">
        <ele>9.21</ele>
        <time>2020-05-23T12:23:47Z</time>
      </trkpt>
      <trkpt lat="47.2029" lon="-1.75513">
        <ele>9.12</ele>
        <time>2020-05-23T12:23:48Z</time>
      </trkpt>
      <trkpt lat="47.20283" lon="-1.7549">
        <ele>8.83</ele>
        <time>2020-05-23T12:23:49Z</time>
      </trkpt>
      <trkpt lat="47.2028" lon="-1.75477">
        <ele>8.63</ele>
        <time>2020-05-23T12:23:50Z</time>
      </trkpt>
      <trkpt lat="47.20276" lon="-1.75464">
        <ele>8.34</ele>
        <time>2020-05-23T12:23:51Z</time>
      </trkpt>
      <trkpt lat="47.20272" lon="-1.7545">
        <ele>8.06</ele>
        <time>2020-05-23T12:23:52Z</time>
      </trkpt>
      <trkpt lat="47.20269" lon="-1.75438">
        <ele>7.66</ele>
        <time>2020-05-23T12:23:53Z</time>
      </trkpt>
      <trkpt lat="47.20266" lon="-1.75425">
        <ele>7.03</ele>
        <time>2020-05-23T12:23:54Z</time>
      </trkpt>
      <trkpt lat="47.2026" lon="-1.75401">
        <ele>5.98</ele>
        <time>2020-05-23T12:23:56Z</time>
      </trkpt>
      <trkpt lat="47.20253" lon="-1.75378">
        <ele>5.44</ele>
        <time>2020-05-23T12:23:58Z</time>
      </trkpt>
      <trkpt lat="47.20247" lon="-1.75357">
        <ele>4.55</ele>
        <time>2020-05-23T12:24:00Z</time>
      </trkpt>
      <trkpt lat="47.20241" lon="-1.75335">
        <ele>3.49</ele>
        <time>2020-05-23T12:24:02Z</time>
      </trkpt>
      <trkpt lat="47.20234" lon="-1.75312">
        <ele>2.14</ele>
        <time>2020-05-23T12:24:04Z</time>
      </trkpt>
      <trkpt lat="47.20229" lon="-1.75289">
        <ele>2.09</ele>
        <time>2020-05-23T12:24:06Z</time>
      </trkpt>
      <trkpt lat="47.20224" lon="-1.75266">
        <ele>3.21</ele>
        <time>2020-05-23T12:24:08Z</time>
      </trkpt>
      <trkpt lat="47.20219" lon="-1.75244">
        <ele>4.3</ele>
        <time>2020-05-23T12:24:10Z</time>
      </trkpt>
      <trkpt lat="47.20213" lon="-1.75221">
        <ele>4.67</ele>
        <time>2020-05-23T12:24:12Z</time>
      </trkpt>
      <trkpt lat="47.20207" lon="-1.75202">
        <ele>5.15</ele>
        <time>2020-05-23T12:24:14Z</time>
      </trkpt>
      <trkpt lat="47.20201" lon="-1.75181">
        <ele>5.24</ele>
        <time>2020-05-23T12:24:16Z</time>
      </trkpt>
      <trkpt lat="47.20195" lon="-1.75161">
        <ele>5.45</ele>
        <time>2020-05-23T12:24:18Z</time>
      </trkpt>
      <trkpt lat="47.20188" lon="-1.7514">
        <ele>5.66</ele>
        <time>2020-05-23T12:24:20Z</time>
      </trkpt>
      <trkpt lat="47.20182" lon="-1.75118">
        <ele>5.87</ele>
        <time>2020-05-23T12:24:22Z</time>
      </trkpt>
      <trkpt lat="47.20178" lon="-1.75098">
        <ele>6.81</ele>
        <time>2020-05-23T12:24:24Z</time>
      </trkpt>
      <trkpt lat="47.20173" lon="-1.75076">
        <ele>6.34</ele>
        <time>2020-05-23T12:24:26Z</time>
      </trkpt>
      <trkpt lat="47.20168" lon="-1.75052">
        <ele>5.91</ele>
        <time>2020-05-23T12:24:28Z</time>
      </trkpt>
      <trkpt lat="47.20164" lon="-1.75031">
        <ele>5.81</ele>
        <time>2020-05-23T12:24:30Z</time>
      </trkpt>
      <trkpt lat="47.20161" lon="-1.75011">
        <ele>7.22</ele>
        <time>2020-05-23T12:24:32Z</time>
      </trkpt>
      <trkpt lat="47.20157" lon="-1.74989">
        <ele>9.34</ele>
        <time>2020-05-23T12:24:34Z</time>
      </trkpt>
      <trkpt lat="47.20154" lon="-1.74968">
        <ele>10.28</ele>
        <time>2020-05-23T12:24:36Z</time>
      </trkpt>
      <trkpt lat="47.2015" lon="-1.74948">
        <ele>11.22</ele>
        <time>2020-05-23T12:24:38Z</time>
      </trkpt>
      <trkpt lat="47.20147" lon="-1.74927">
        <ele>12.15</ele>
        <time>2020-05-23T12:24:40Z</time>
      </trkpt>
      <trkpt lat="47.20143" lon="-1.7491">
        <ele>12.16</ele>
        <time>2020-05-23T12:24:42Z</time>
      </trkpt>
      <trkpt lat="47.20138" lon="-1.74893">
        <ele>12.21</ele>
        <time>2020-05-23T12:24:44Z</time>
      </trkpt>
      <trkpt lat="47.20135" lon="-1.74873">
        <ele>11.21</ele>
        <time>2020-05-23T12:24:46Z</time>
      </trkpt>
      <trkpt lat="47.20136" lon="-1.74852">
        <ele>10.78</ele>
        <time>2020-05-23T12:24:48Z</time>
      </trkpt>
      <trkpt lat="47.20134" lon="-1.74829">
        <ele>9.95</ele>
        <time>2020-05-23T12:24:50Z</time>
      </trkpt>
      <trkpt lat="47.20132" lon="-1.7481">
        <ele>9.35</ele>
        <time>2020-05-23T12:24:52Z</time>
      </trkpt>
      <trkpt lat="47.20128" lon="-1.7479">
        <ele>9.06</ele>
        <time>2020-05-23T12:24:54Z</time>
      </trkpt>
      <trkpt lat="47.20125" lon="-1.74769">
        <ele>8.4</ele>
        <time>2020-05-23T12:24:56Z</time>
      </trkpt>
      <trkpt lat="47.20121" lon="-1.74746">
        <ele>7.93</ele>
        <time>2020-05-23T12:24:58Z</time>
      </trkpt>
      <trkpt lat="47.20116" lon="-1.74724">
        <ele>6.92</ele>
        <time>2020-05-23T12:25:00Z</time>
      </trkpt>
      <trkpt lat="47.20111" lon="-1.74703">
        <ele>7.42</ele>
        <time>2020-05-23T12:25:02Z</time>
      </trkpt>
      <trkpt lat="47.20105" lon="-1.74681">
        <ele>7.86</ele>
        <time>2020-05-23T12:25:04Z</time>
      </trkpt>
      <trkpt lat="47.20101" lon="-1.7466">
        <ele>8.23</ele>
        <time>2020-05-23T12:25:06Z</time>
      </trkpt>
      <trkpt lat="47.20096" lon="-1.74636">
        <ele>8.45</ele>
        <time>2020-05-23T12:25:08Z</time>
      </trkpt>
      <trkpt lat="47.20092" lon="-1.74614">
        <ele>7.82</ele>
        <time>2020-05-23T12:25:10Z</time>
      </trkpt>
      <trkpt lat="47.20088" lon="-1.74591">
        <ele>7.53</ele>
        <time>2020-05-23T12:25:12Z</time>
      </trkpt>
      <trkpt lat="47.20084" lon="-1.74569">
        <ele>7.1</ele>
        <time>2020-05-23T12:25:14Z</time>
      </trkpt>
      <trkpt lat="47.2008" lon="-1.74551">
        <ele>6.91</ele>
        <time>2020-05-23T12:25:16Z</time>
      </trkpt>
      <trkpt lat="47.20076" lon="-1.74531">
        <ele>5.8</ele>
        <time>2020-05-23T12:25:18Z</time>
      </trkpt>
      <trkpt lat="47.20071" lon="-1.74507">
        <ele>5.69</ele>
        <time>2020-05-23T12:25:20Z</time>
      </trkpt>
      <trkpt lat="47.20068" lon="-1.74486">
        <ele>5.57</ele>
        <time>2020-05-23T12:25:22Z</time>
      </trkpt>
      <trkpt lat="47.20064" lon="-1.74467">
        <ele>5.49</ele>
        <time>2020-05-23T12:25:24Z</time>
      </trkpt>
      <trkpt lat="47.2006" lon="-1.74446">
        <ele>6.4</ele>
        <time>2020-05-23T12:25:26Z</time>
      </trkpt>
      <trkpt lat="47.20056" lon="-1.74424">
        <ele>7.3</ele>
        <time>2020-05-23T12:25:28Z</time>
      </trkpt>
      <trkpt lat="47.20052" lon="-1.74403">
        <ele>7.53</ele>
        <time>2020-05-23T12:25:30Z</time>
      </trkpt>
      <trkpt lat="47.20048" lon="-1.7438">
        <ele>8.45</ele>
        <time>2020-05-23T12:25:32Z</time>
      </trkpt>
      <trkpt lat="47.20044" lon="-1.74357">
        <ele>8.6</ele>
        <time>2020-05-23T12:25:34Z</time>
      </trkpt>
      <trkpt lat="47.2004" lon="-1.74338">
        <ele>8.75</ele>
        <time>2020-05-23T12:25:36Z</time>
      </trkpt>
      <trkpt lat="47.20035" lon="-1.74319">
        <ele>8.92</ele>
        <time>2020-05-23T12:25:38Z</time>
      </trkpt>
      <trkpt lat="47.20029" lon="-1.74301">
        <ele>10.05</ele>
        <time>2020-05-23T12:25:40Z</time>
      </trkpt>
      <trkpt lat="47.20019" lon="-1.74285">
        <ele>11.88</ele>
        <time>2020-05-23T12:25:42Z</time>
      </trkpt>
      <trkpt lat="47.20009" lon="-1.74269">
        <ele>13.07</ele>
        <time>2020-05-23T12:25:44Z</time>
      </trkpt>
      <trkpt lat="47.2" lon="-1.74256">
        <ele>13.94</ele>
        <time>2020-05-23T12:25:46Z</time>
      </trkpt>
      <trkpt lat="47.19993" lon="-1.74244">
        <ele>14.29</ele>
        <time>2020-05-23T12:25:48Z</time>
      </trkpt>
      <trkpt lat="47.19989" lon="-1.74231">
        <ele>14.06</ele>
        <time>2020-05-23T12:25:50Z</time>
      </trkpt>
      <trkpt lat="47.19985" lon="-1.74211">
        <ele>11.46</ele>
        <time>2020-05-23T12:25:53Z</time>
      </trkpt>
      <trkpt lat="47.19983" lon="-1.74196">
        <ele>10.14</ele>
        <time>2020-05-23T12:25:55Z</time>
      </trkpt>
      <trkpt lat="47.19981" lon="-1.74182">
        <ele>8.5</ele>
        <time>2020-05-23T12:25:57Z</time>
      </trkpt>
      <trkpt lat="47.19979" lon="-1.74165">
        <ele>6.82</ele>
        <time>2020-05-23T12:25:59Z</time>
      </trkpt>
      <trkpt lat="47.19978" lon="-1.74148">
        <ele>6.31</ele>
        <time>2020-05-23T12:26:01Z</time>
      </trkpt>
      <trkpt lat="47.19976" lon="-1.74132">
        <ele>6.31</ele>
        <time>2020-05-23T12:26:03Z</time>
      </trkpt>
      <trkpt lat="47.19974" lon="-1.74115">
        <ele>7.94</ele>
        <time>2020-05-23T12:26:05Z</time>
      </trkpt>
      <trkpt lat="47.19972" lon="-1.741">
        <ele>10.68</ele>
        <time>2020-05-23T12:26:07Z</time>
      </trkpt>
      <trkpt lat="47.1997" lon="-1.74084">
        <ele>12.19</ele>
        <time>2020-05-23T12:26:09Z</time>
      </trkpt>
      <trkpt lat="47.19969" lon="-1.74067">
        <ele>13.55</ele>
        <time>2020-05-23T12:26:11Z</time>
      </trkpt>
      <trkpt lat="47.19967" lon="-1.74051">
        <ele>14.78</ele>
        <time>2020-05-23T12:26:13Z</time>
      </trkpt>
      <trkpt lat="47.19965" lon="-1.74036">
        <ele>16.47</ele>
        <time>2020-05-23T12:26:15Z</time>
      </trkpt>
      <trkpt lat="47.19962" lon="-1.74016">
        <ele>17.84</ele>
        <time>2020-05-23T12:26:18Z</time>
      </trkpt>
      <trkpt lat="47.19961" lon="-1.74002">
        <ele>18.17</ele>
        <time>2020-05-23T12:26:20Z</time>
      </trkpt>
      <trkpt lat="47.19958" lon="-1.73984">
        <ele>18.12</ele>
        <time>2020-05-23T12:26:23Z</time>
      </trkpt>
      <trkpt lat="47.19961" lon="-1.73969">
        <ele>17.16</ele>
        <time>2020-05-23T12:26:26Z</time>
      </trkpt>
      <trkpt lat="47.1997" lon="-1.73963">
        <ele>17.34</ele>
        <time>2020-05-23T12:26:28Z</time>
      </trkpt>
      <trkpt lat="47.1998" lon="-1.73954">
        <ele>18.03</ele>
        <time>2020-05-23T12:26:30Z</time>
      </trkpt>
      <trkpt lat="47.1999" lon="-1.73943">
        <ele>18.51</ele>
        <time>2020-05-23T12:26:32Z</time>
      </trkpt>
      <trkpt lat="47.2" lon="-1.73925">
        <ele>18.04</ele>
        <time>2020-05-23T12:26:34Z</time>
      </trkpt>
      <trkpt lat="47.20007" lon="-1.73907">
        <ele>18.17</ele>
        <time>2020-05-23T12:26:36Z</time>
      </trkpt>
      <trkpt lat="47.20009" lon="-1.73888">
        <ele>18.47</ele>
        <time>2020-05-23T12:26:38Z</time>
      </trkpt>
      <trkpt lat="47.20013" lon="-1.7387">
        <ele>18.23</ele>
        <time>2020-05-23T12:26:40Z</time>
      </trkpt>
      <trkpt lat="47.20017" lon="-1.73855">
        <ele>17.31</ele>
        <time>2020-05-23T12:26:42Z</time>
      </trkpt>
      <trkpt lat="47.20023" lon="-1.73838">
        <ele>15.75</ele>
        <time>2020-05-23T12:26:45Z</time>
      </trkpt>
      <trkpt lat="47.20028" lon="-1.73825">
        <ele>15.14</ele>
        <time>2020-05-23T12:26:47Z</time>
      </trkpt>
      <trkpt lat="47.20034" lon="-1.73808">
        <ele>14.36</ele>
        <time>2020-05-23T12:26:49Z</time>
      </trkpt>
      <trkpt lat="47.20039" lon="-1.73788">
        <ele>15.04</ele>
        <time>2020-05-23T12:26:51Z</time>
      </trkpt>
      <trkpt lat="47.20041" lon="-1.73769">
        <ele>15.35</ele>
        <time>2020-05-23T12:26:53Z</time>
      </trkpt>
      <trkpt lat="47.20042" lon="-1.73747">
        <ele>15.56</ele>
        <time>2020-05-23T12:26:55Z</time>
      </trkpt>
      <trkpt lat="47.20044" lon="-1.73727">
        <ele>15.12</ele>
        <time>2020-05-23T12:26:57Z</time>
      </trkpt>
      <trkpt lat="47.20045" lon="-1.73707">
        <ele>14.98</ele>
        <time>2020-05-23T12:26:59Z</time>
      </trkpt>
      <trkpt lat="47.20047" lon="-1.73687">
        <ele>14.61</ele>
        <time>2020-05-23T12:27:01Z</time>
      </trkpt>
      <trkpt lat="47.20048" lon="-1.73667">
        <ele>13.11</ele>
        <time>2020-05-23T12:27:03Z</time>
      </trkpt>
      <trkpt lat="47.2005" lon="-1.73647">
        <ele>12.82</ele>
        <time>2020-05-23T12:27:05Z</time>
      </trkpt>
      <trkpt lat="47.2005" lon="-1.7363">
        <ele>12.55</ele>
        <time>2020-05-23T12:27:07Z</time>
      </trkpt>
      <trkpt lat="47.20048" lon="-1.73613">
        <ele>12.07</ele>
        <time>2020-05-23T12:27:09Z</time>
      </trkpt>
      <trkpt lat="47.20046" lon="-1.73593">
        <ele>10.88</ele>
        <time>2020-05-23T12:27:11Z</time>
      </trkpt>
      <trkpt lat="47.20045" lon="-1.73575">
        <ele>9.33</ele>
        <time>2020-05-23T12:27:13Z</time>
      </trkpt>
      <trkpt lat="47.20056" lon="-1.7356">
        <ele>8.54</ele>
        <time>2020-05-23T12:27:16Z</time>
      </trkpt>
      <trkpt lat="47.20067" lon="-1.73552">
        <ele>8.37</ele>
        <time>2020-05-23T12:27:18Z</time>
      </trkpt>
      <trkpt lat="47.20076" lon="-1.73539">
        <ele>7.88</ele>
        <time>2020-05-23T12:27:20Z</time>
      </trkpt>
      <trkpt lat="47.20079" lon="-1.73519">
        <ele>8.07</ele>
        <time>2020-05-23T12:27:22Z</time>
      </trkpt>
      <trkpt lat="47.20081" lon="-1.73495">
        <ele>9.52</ele>
        <time>2020-05-23T12:27:24Z</time>
      </trkpt>
      <trkpt lat="47.20077" lon="-1.73473">
        <ele>10.45</ele>
        <time>2020-05-23T12:27:26Z</time>
      </trkpt>
      <trkpt lat="47.20072" lon="-1.73451">
        <ele>11.05</ele>
        <time>2020-05-23T12:27:28Z</time>
      </trkpt>
      <trkpt lat="47.20073" lon="-1.73433">
        <ele>10.3</ele>
        <time>2020-05-23T12:27:30Z</time>
      </trkpt>
      <trkpt lat="47.20073" lon="-1.73415">
        <ele>9.1</ele>
        <time>2020-05-23T12:27:32Z</time>
      </trkpt>
      <trkpt lat="47.20071" lon="-1.73393">
        <ele>8</ele>
        <time>2020-05-23T12:27:34Z</time>
      </trkpt>
      <trkpt lat="47.20068" lon="-1.73372">
        <ele>6.06</ele>
        <time>2020-05-23T12:27:36Z</time>
      </trkpt>
      <trkpt lat="47.20067" lon="-1.73357">
        <ele>4.45</ele>
        <time>2020-05-23T12:27:38Z</time>
      </trkpt>
      <trkpt lat="47.20067" lon="-1.73337">
        <ele>4.58</ele>
        <time>2020-05-23T12:27:40Z</time>
      </trkpt>
      <trkpt lat="47.20067" lon="-1.73318">
        <ele>4.46</ele>
        <time>2020-05-23T12:27:42Z</time>
      </trkpt>
      <trkpt lat="47.20063" lon="-1.73297">
        <ele>4.04</ele>
        <time>2020-05-23T12:27:44Z</time>
      </trkpt>
      <trkpt lat="47.20062" lon="-1.73279">
        <ele>2.91</ele>
        <time>2020-05-23T12:27:46Z</time>
      </trkpt>
      <trkpt lat="47.20062" lon="-1.7326">
        <ele>1.74</ele>
        <time>2020-05-23T12:27:48Z</time>
      </trkpt>
      <trkpt lat="47.20063" lon="-1.73239">
        <ele>0.67</ele>
        <time>2020-05-23T12:27:50Z</time>
      </trkpt>
      <trkpt lat="47.20064" lon="-1.73217">
        <ele>1.15</ele>
        <time>2020-05-23T12:27:52Z</time>
      </trkpt>
      <trkpt lat="47.20063" lon="-1.73194">
        <ele>2.73</ele>
        <time>2020-05-23T12:27:54Z</time>
      </trkpt>
      <trkpt lat="47.20061" lon="-1.73175">
        <ele>4.93</ele>
        <time>2020-05-23T12:27:56Z</time>
      </trkpt>
      <trkpt lat="47.20058" lon="-1.73157">
        <ele>7.52</ele>
        <time>2020-05-23T12:27:58Z</time>
      </trkpt>
      <trkpt lat="47.20056" lon="-1.73136">
        <ele>8.27</ele>
        <time>2020-05-23T12:28:00Z</time>
      </trkpt>
      <trkpt lat="47.20053" lon="-1.73115">
        <ele>8.04</ele>
        <time>2020-05-23T12:28:02Z</time>
      </trkpt>
      <trkpt lat="47.2005" lon="-1.73091">
        <ele>8.61</ele>
        <time>2020-05-23T12:28:04Z</time>
      </trkpt>
      <trkpt lat="47.20049" lon="-1.73068">
        <ele>9.57</ele>
        <time>2020-05-23T12:28:06Z</time>
      </trkpt>
      <trkpt lat="47.20048" lon="-1.73048">
        <ele>9.52</ele>
        <time>2020-05-23T12:28:08Z</time>
      </trkpt>
      <trkpt lat="47.20047" lon="-1.7303">
        <ele>8.64</ele>
        <time>2020-05-23T12:28:10Z</time>
      </trkpt>
      <trkpt lat="47.20045" lon="-1.73009">
        <ele>6.5</ele>
        <time>2020-05-23T12:28:12Z</time>
      </trkpt>
      <trkpt lat="47.20042" lon="-1.7299">
        <ele>4.81</ele>
        <time>2020-05-23T12:28:14Z</time>
      </trkpt>
      <trkpt lat="47.20034" lon="-1.72975">
        <ele>3.75</ele>
        <time>2020-05-23T12:28:16Z</time>
      </trkpt>
      <trkpt lat="47.20024" lon="-1.72964">
        <ele>4.96</ele>
        <time>2020-05-23T12:28:18Z</time>
      </trkpt>
      <trkpt lat="47.20019" lon="-1.7295">
        <ele>6.62</ele>
        <time>2020-05-23T12:28:20Z</time>
      </trkpt>
      <trkpt lat="47.20018" lon="-1.72932">
        <ele>7.98</ele>
        <time>2020-05-23T12:28:22Z</time>
      </trkpt>
      <trkpt lat="47.20019" lon="-1.7291">
        <ele>8.72</ele>
        <time>2020-05-23T12:28:24Z</time>
      </trkpt>
      <trkpt lat="47.20016" lon="-1.72891">
        <ele>8.16</ele>
        <time>2020-05-23T12:28:26Z</time>
      </trkpt>
      <trkpt lat="47.20012" lon="-1.7287">
        <ele>8.04</ele>
        <time>2020-05-23T12:28:28Z</time>
      </trkpt>
      <trkpt lat="47.20008" lon="-1.72852">
        <ele>8.97</ele>
        <time>2020-05-23T12:28:30Z</time>
      </trkpt>
      <trkpt lat="47.20003" lon="-1.72832">
        <ele>10</ele>
        <time>2020-05-23T12:28:32Z</time>
      </trkpt>
      <trkpt lat="47.19997" lon="-1.72816">
        <ele>11.35</ele>
        <time>2020-05-23T12:28:34Z</time>
      </trkpt>
      <trkpt lat="47.1999" lon="-1.72802">
        <ele>11.85</ele>
        <time>2020-05-23T12:28:36Z</time>
      </trkpt>
      <trkpt lat="47.19984" lon="-1.72787">
        <ele>11.19</ele>
        <time>2020-05-23T12:28:38Z</time>
      </trkpt>
      <trkpt lat="47.19979" lon="-1.72772">
        <ele>10.51</ele>
        <time>2020-05-23T12:28:40Z</time>
      </trkpt>
      <trkpt lat="47.19975" lon="-1.72756">
        <ele>8.75</ele>
        <time>2020-05-23T12:28:42Z</time>
      </trkpt>
      <trkpt lat="47.19971" lon="-1.72738">
        <ele>6.34</ele>
        <time>2020-05-23T12:28:44Z</time>
      </trkpt>
      <trkpt lat="47.19967" lon="-1.72715">
        <ele>5.24</ele>
        <time>2020-05-23T12:28:46Z</time>
      </trkpt>
      <trkpt lat="47.19964" lon="-1.72696">
        <ele>4.51</ele>
        <time>2020-05-23T12:28:48Z</time>
      </trkpt>
      <trkpt lat="47.19963" lon="-1.72679">
        <ele>3.74</ele>
        <time>2020-05-23T12:28:50Z</time>
      </trkpt>
      <trkpt lat="47.19958" lon="-1.7266">
        <ele>2.39</ele>
        <time>2020-05-23T12:28:52Z</time>
      </trkpt>
      <trkpt lat="47.19954" lon="-1.72645">
        <ele>0.82</ele>
        <time>2020-05-23T12:28:54Z</time>
      </trkpt>
      <trkpt lat="47.19951" lon="-1.72632">
        <ele>-0.68</ele>
        <time>2020-05-23T12:28:56Z</time>
      </trkpt>
      <trkpt lat="47.19947" lon="-1.72616">
        <ele>-1.33</ele>
        <time>2020-05-23T12:28:58Z</time>
      </trkpt>
      <trkpt lat="47.19942" lon="-1.726">
        <ele>-1.35</ele>
        <time>2020-05-23T12:29:00Z</time>
      </trkpt>
      <trkpt lat="47.19935" lon="-1.72581">
        <ele>-1.7</ele>
        <time>2020-05-23T12:29:02Z</time>
      </trkpt>
      <trkpt lat="47.19928" lon="-1.72565">
        <ele>-2.41</ele>
        <time>2020-05-23T12:29:04Z</time>
      </trkpt>
      <trkpt lat="47.19922" lon="-1.7255">
        <ele>-2.59</ele>
        <time>2020-05-23T12:29:06Z</time>
      </trkpt>
      <trkpt lat="47.19914" lon="-1.72534">
        <ele>-2.24</ele>
        <time>2020-05-23T12:29:08Z</time>
      </trkpt>
      <trkpt lat="47.19907" lon="-1.72517">
        <ele>-1.13</ele>
        <time>2020-05-23T12:29:10Z</time>
      </trkpt>
      <trkpt lat="47.19901" lon="-1.72502">
        <ele>0.52</ele>
        <time>2020-05-23T12:29:12Z</time>
      </trkpt>
      <trkpt lat="47.19895" lon="-1.72492">
        <ele>2.55</ele>
        <time>2020-05-23T12:29:14Z</time>
      </trkpt>
      <trkpt lat="47.19888" lon="-1.72481">
        <ele>4.73</ele>
        <time>2020-05-23T12:29:16Z</time>
      </trkpt>
      <trkpt lat="47.19884" lon="-1.72469">
        <ele>7.2</ele>
        <time>2020-05-23T12:29:18Z</time>
      </trkpt>
      <trkpt lat="47.19895" lon="-1.72462">
        <ele>7.77</ele>
        <time>2020-05-23T12:29:20Z</time>
      </trkpt>
      <trkpt lat="47.19909" lon="-1.72459">
        <ele>7.81</ele>
        <time>2020-05-23T12:29:22Z</time>
      </trkpt>
      <trkpt lat="47.19924" lon="-1.72457">
        <ele>8.02</ele>
        <time>2020-05-23T12:29:24Z</time>
      </trkpt>
      <trkpt lat="47.19941" lon="-1.72455">
        <ele>7.82</ele>
        <time>2020-05-23T12:29:26Z</time>
      </trkpt>
      <trkpt lat="47.19953" lon="-1.72452">
        <ele>8.59</ele>
        <time>2020-05-23T12:29:28Z</time>
      </trkpt>
      <trkpt lat="47.19964" lon="-1.72444">
        <ele>9.31</ele>
        <time>2020-05-23T12:29:30Z</time>
      </trkpt>
      <trkpt lat="47.19972" lon="-1.72428">
        <ele>8.73</ele>
        <time>2020-05-23T12:29:32Z</time>
      </trkpt>
      <trkpt lat="47.19976" lon="-1.7241">
        <ele>6.99</ele>
        <time>2020-05-23T12:29:34Z</time>
      </trkpt>
      <trkpt lat="47.19976" lon="-1.7239">
        <ele>4.9</ele>
        <time>2020-05-23T12:29:36Z</time>
      </trkpt>
      <trkpt lat="47.19972" lon="-1.72373">
        <ele>3.27</ele>
        <time>2020-05-23T12:29:38Z</time>
      </trkpt>
      <trkpt lat="47.19964" lon="-1.72365">
        <ele>4.33</ele>
        <time>2020-05-23T12:29:40Z</time>
      </trkpt>
      <trkpt lat="47.19952" lon="-1.7236">
        <ele>5.68</ele>
        <time>2020-05-23T12:29:42Z</time>
      </trkpt>
      <trkpt lat="47.19943" lon="-1.72342">
        <ele>6.4</ele>
        <time>2020-05-23T12:29:44Z</time>
      </trkpt>
      <trkpt lat="47.19937" lon="-1.72322">
        <ele>6.56</ele>
        <time>2020-05-23T12:29:46Z</time>
      </trkpt>
      <trkpt lat="47.19933" lon="-1.72301">
        <ele>6.11</ele>
        <time>2020-05-23T12:29:48Z</time>
      </trkpt>
      <trkpt lat="47.19934" lon="-1.72282">
        <ele>4.96</ele>
        <time>2020-05-23T12:29:50Z</time>
      </trkpt>
      <trkpt lat="47.19933" lon="-1.72268">
        <ele>3.62</ele>
        <time>2020-05-23T12:29:52Z</time>
      </trkpt>
      <trkpt lat="47.19927" lon="-1.72257">
        <ele>1.97</ele>
        <time>2020-05-23T12:29:54Z</time>
      </trkpt>
      <trkpt lat="47.19918" lon="-1.72249">
        <ele>1.45</ele>
        <time>2020-05-23T12:29:56Z</time>
      </trkpt>
      <trkpt lat="47.19911" lon="-1.72237">
        <ele>2.36</ele>
        <time>2020-05-23T12:29:58Z</time>
      </trkpt>
      <trkpt lat="47.19903" lon="-1.72227">
        <ele>2.77</ele>
        <time>2020-05-23T12:30:01Z</time>
      </trkpt>
      <trkpt lat="47.19901" lon="-1.72241">
        <ele>4.23</ele>
        <time>2020-05-23T12:30:05Z</time>
      </trkpt>
      <trkpt lat="47.19894" lon="-1.7225">
        <ele>7.07</ele>
        <time>2020-05-23T12:30:07Z</time>
      </trkpt>
      <trkpt lat="47.19882" lon="-1.72255">
        <ele>9.09</ele>
        <time>2020-05-23T12:30:09Z</time>
      </trkpt>
      <trkpt lat="47.19867" lon="-1.7226">
        <ele>8.42</ele>
        <time>2020-05-23T12:30:11Z</time>
      </trkpt>
      <trkpt lat="47.19852" lon="-1.72263">
        <ele>7.66</ele>
        <time>2020-05-23T12:30:13Z</time>
      </trkpt>
      <trkpt lat="47.19842" lon="-1.72264">
        <ele>7.1</ele>
        <time>2020-05-23T12:30:15Z</time>
      </trkpt>
      <trkpt lat="47.19831" lon="-1.72264">
        <ele>8.48</ele>
        <time>2020-05-23T12:30:17Z</time>
      </trkpt>
      <trkpt lat="47.19819" lon="-1.72265">
        <ele>10.89</ele>
        <time>2020-05-23T12:30:19Z</time>
      </trkpt>
      <trkpt lat="47.19808" lon="-1.72267">
        <ele>12.72</ele>
        <time>2020-05-23T12:30:21Z</time>
      </trkpt>
      <trkpt lat="47.19798" lon="-1.7227">
        <ele>12.75</ele>
        <time>2020-05-23T12:30:23Z</time>
      </trkpt>
      <trkpt lat="47.19787" lon="-1.72274">
        <ele>12.85</ele>
        <time>2020-05-23T12:30:25Z</time>
      </trkpt>
      <trkpt lat="47.19777" lon="-1.72275">
        <ele>13.03</ele>
        <time>2020-05-23T12:30:27Z</time>
      </trkpt>
      <trkpt lat="47.19767" lon="-1.72274">
        <ele>12.91</ele>
        <time>2020-05-23T12:30:29Z</time>
      </trkpt>
      <trkpt lat="47.19755" lon="-1.72271">
        <ele>11.6</ele>
        <time>2020-05-23T12:30:31Z</time>
      </trkpt>
      <trkpt lat="47.19743" lon="-1.72267">
        <ele>9.18</ele>
        <time>2020-05-23T12:30:33Z</time>
      </trkpt>
      <trkpt lat="47.19728" lon="-1.72264">
        <ele>8.8</ele>
        <time>2020-05-23T12:30:35Z</time>
      </trkpt>
      <trkpt lat="47.19719" lon="-1.72254">
        <ele>10.71</ele>
        <time>2020-05-23T12:30:37Z</time>
      </trkpt>
      <trkpt lat="47.19717" lon="-1.72236">
        <ele>12.19</ele>
        <time>2020-05-23T12:30:39Z</time>
      </trkpt>
      <trkpt lat="47.19715" lon="-1.72213">
        <ele>12.3</ele>
        <time>2020-05-23T12:30:41Z</time>
      </trkpt>
      <trkpt lat="47.19714" lon="-1.72185">
        <ele>12.8</ele>
        <time>2020-05-23T12:30:43Z</time>
      </trkpt>
      <trkpt lat="47.19712" lon="-1.7216">
        <ele>13.36</ele>
        <time>2020-05-23T12:30:45Z</time>
      </trkpt>
      <trkpt lat="47.19712" lon="-1.72139">
        <ele>14.32</ele>
        <time>2020-05-23T12:30:47Z</time>
      </trkpt>
      <trkpt lat="47.19712" lon="-1.72119">
        <ele>14.51</ele>
        <time>2020-05-23T12:30:49Z</time>
      </trkpt>
      <trkpt lat="47.19713" lon="-1.72096">
        <ele>13.89</ele>
        <time>2020-05-23T12:30:51Z</time>
      </trkpt>
      <trkpt lat="47.19714" lon="-1.72075">
        <ele>12.23</ele>
        <time>2020-05-23T12:30:53Z</time>
      </trkpt>
      <trkpt lat="47.19715" lon="-1.72054">
        <ele>10.49</ele>
        <time>2020-05-23T12:30:55Z</time>
      </trkpt>
      <trkpt lat="47.19716" lon="-1.72034">
        <ele>9.71</ele>
        <time>2020-05-23T12:30:57Z</time>
      </trkpt>
      <trkpt lat="47.19716" lon="-1.72013">
        <ele>8.87</ele>
        <time>2020-05-23T12:30:59Z</time>
      </trkpt>
      <trkpt lat="47.19717" lon="-1.71995">
        <ele>8.74</ele>
        <time>2020-05-23T12:31:01Z</time>
      </trkpt>
      <trkpt lat="47.19714" lon="-1.7198">
        <ele>7.99</ele>
        <time>2020-05-23T12:31:03Z</time>
      </trkpt>
      <trkpt lat="47.19707" lon="-1.71972">
        <ele>7.6</ele>
        <time>2020-05-23T12:31:05Z</time>
      </trkpt>
      <trkpt lat="47.19695" lon="-1.71963">
        <ele>8.33</ele>
        <time>2020-05-23T12:31:07Z</time>
      </trkpt>
      <trkpt lat="47.19684" lon="-1.71954">
        <ele>9.52</ele>
        <time>2020-05-23T12:31:09Z</time>
      </trkpt>
      <trkpt lat="47.19673" lon="-1.71946">
        <ele>10.28</ele>
        <time>2020-05-23T12:31:11Z</time>
      </trkpt>
      <trkpt lat="47.19663" lon="-1.71938">
        <ele>10.38</ele>
        <time>2020-05-23T12:31:13Z</time>
      </trkpt>
      <trkpt lat="47.19654" lon="-1.71933">
        <ele>9.7</ele>
        <time>2020-05-23T12:31:15Z</time>
      </trkpt>
      <trkpt lat="47.19647" lon="-1.71946">
        <ele>9.63</ele>
        <time>2020-05-23T12:31:17Z</time>
      </trkpt>
      <trkpt lat="47.19646" lon="-1.71962">
        <ele>8.71</ele>
        <time>2020-05-23T12:31:19Z</time>
      </trkpt>
      <trkpt lat="47.19638" lon="-1.71973">
        <ele>7.36</ele>
        <time>2020-05-23T12:31:21Z</time>
      </trkpt>
      <trkpt lat="47.19628" lon="-1.71983">
        <ele>7.08</ele>
        <time>2020-05-23T12:31:23Z</time>
      </trkpt>
      <trkpt lat="47.19618" lon="-1.71988">
        <ele>7.72</ele>
        <time>2020-05-23T12:31:25Z</time>
      </trkpt>
      <trkpt lat="47.1961" lon="-1.71975">
        <ele>7.77</ele>
        <time>2020-05-23T12:31:28Z</time>
      </trkpt>
      <trkpt lat="47.19607" lon="-1.71958">
        <ele>7.52</ele>
        <time>2020-05-23T12:31:30Z</time>
      </trkpt>
      <trkpt lat="47.19605" lon="-1.71938">
        <ele>7.85</ele>
        <time>2020-05-23T12:31:32Z</time>
      </trkpt>
      <trkpt lat="47.19602" lon="-1.71918">
        <ele>8.06</ele>
        <time>2020-05-23T12:31:34Z</time>
      </trkpt>
      <trkpt lat="47.19599" lon="-1.71898">
        <ele>8.78</ele>
        <time>2020-05-23T12:31:36Z</time>
      </trkpt>
      <trkpt lat="47.19596" lon="-1.71879">
        <ele>9.12</ele>
        <time>2020-05-23T12:31:38Z</time>
      </trkpt>
      <trkpt lat="47.19592" lon="-1.7186">
        <ele>9.67</ele>
        <time>2020-05-23T12:31:40Z</time>
      </trkpt>
      <trkpt lat="47.19588" lon="-1.71841">
        <ele>10.16</ele>
        <time>2020-05-23T12:31:42Z</time>
      </trkpt>
      <trkpt lat="47.19584" lon="-1.71823">
        <ele>10.42</ele>
        <time>2020-05-23T12:31:44Z</time>
      </trkpt>
      <trkpt lat="47.19582" lon="-1.71804">
        <ele>12</ele>
        <time>2020-05-23T12:31:46Z</time>
      </trkpt>
      <trkpt lat="47.19579" lon="-1.71786">
        <ele>13.71</ele>
        <time>2020-05-23T12:31:48Z</time>
      </trkpt>
      <trkpt lat="47.19576" lon="-1.71766">
        <ele>14.21</ele>
        <time>2020-05-23T12:31:50Z</time>
      </trkpt>
      <trkpt lat="47.19573" lon="-1.71749">
        <ele>14.16</ele>
        <time>2020-05-23T12:31:52Z</time>
      </trkpt>
      <trkpt lat="47.19571" lon="-1.71732">
        <ele>13.75</ele>
        <time>2020-05-23T12:31:54Z</time>
      </trkpt>
      <trkpt lat="47.19568" lon="-1.71714">
        <ele>13.83</ele>
        <time>2020-05-23T12:31:56Z</time>
      </trkpt>
      <trkpt lat="47.19565" lon="-1.71695">
        <ele>14</ele>
        <time>2020-05-23T12:31:58Z</time>
      </trkpt>
      <trkpt lat="47.19562" lon="-1.71678">
        <ele>14.13</ele>
        <time>2020-05-23T12:32:00Z</time>
      </trkpt>
      <trkpt lat="47.19559" lon="-1.7166">
        <ele>14.44</ele>
        <time>2020-05-23T12:32:02Z</time>
      </trkpt>
      <trkpt lat="47.19555" lon="-1.71643">
        <ele>14.95</ele>
        <time>2020-05-23T12:32:04Z</time>
      </trkpt>
      <trkpt lat="47.19551" lon="-1.71626">
        <ele>15.31</ele>
        <time>2020-05-23T12:32:06Z</time>
      </trkpt>
      <trkpt lat="47.19548" lon="-1.71609">
        <ele>15.1</ele>
        <time>2020-05-23T12:32:08Z</time>
      </trkpt>
      <trkpt lat="47.19545" lon="-1.71591">
        <ele>15.02</ele>
        <time>2020-05-23T12:32:10Z</time>
      </trkpt>
      <trkpt lat="47.1954" lon="-1.71574">
        <ele>15.25</ele>
        <time>2020-05-23T12:32:12Z</time>
      </trkpt>
      <trkpt lat="47.19536" lon="-1.71558">
        <ele>15.54</ele>
        <time>2020-05-23T12:32:14Z</time>
      </trkpt>
      <trkpt lat="47.19531" lon="-1.71539">
        <ele>15.68</ele>
        <time>2020-05-23T12:32:16Z</time>
      </trkpt>
      <trkpt lat="47.19526" lon="-1.71519">
        <ele>15.75</ele>
        <time>2020-05-23T12:32:18Z</time>
      </trkpt>
      <trkpt lat="47.19522" lon="-1.71501">
        <ele>16.48</ele>
        <time>2020-05-23T12:32:20Z</time>
      </trkpt>
      <trkpt lat="47.19518" lon="-1.71485">
        <ele>17.27</ele>
        <time>2020-05-23T12:32:22Z</time>
      </trkpt>
      <trkpt lat="47.19513" lon="-1.71471">
        <ele>17.71</ele>
        <time>2020-05-23T12:32:24Z</time>
      </trkpt>
      <trkpt lat="47.1951" lon="-1.71457">
        <ele>17.63</ele>
        <time>2020-05-23T12:32:26Z</time>
      </trkpt>
      <trkpt lat="47.19508" lon="-1.71439">
        <ele>17.74</ele>
        <time>2020-05-23T12:32:29Z</time>
      </trkpt>
      <trkpt lat="47.1952" lon="-1.71426">
        <ele>18.16</ele>
        <time>2020-05-23T12:32:32Z</time>
      </trkpt>
      <trkpt lat="47.19535" lon="-1.71419">
        <ele>19.85</ele>
        <time>2020-05-23T12:32:34Z</time>
      </trkpt>
      <trkpt lat="47.19549" lon="-1.71414">
        <ele>21.9</ele>
        <time>2020-05-23T12:32:36Z</time>
      </trkpt>
      <trkpt lat="47.19559" lon="-1.71412">
        <ele>23.47</ele>
        <time>2020-05-23T12:32:38Z</time>
      </trkpt>
      <trkpt lat="47.19571" lon="-1.71409">
        <ele>24.43</ele>
        <time>2020-05-23T12:32:41Z</time>
      </trkpt>
      <trkpt lat="47.19581" lon="-1.71403">
        <ele>24.88</ele>
        <time>2020-05-23T12:32:43Z</time>
      </trkpt>
      <trkpt lat="47.19592" lon="-1.71397">
        <ele>24.51</ele>
        <time>2020-05-23T12:32:45Z</time>
      </trkpt>
      <trkpt lat="47.196" lon="-1.71386">
        <ele>23.75</ele>
        <time>2020-05-23T12:32:47Z</time>
      </trkpt>
      <trkpt lat="47.19595" lon="-1.71371">
        <ele>24.6</ele>
        <time>2020-05-23T12:32:49Z</time>
      </trkpt>
      <trkpt lat="47.19585" lon="-1.71358">
        <ele>25.7</ele>
        <time>2020-05-23T12:32:51Z</time>
      </trkpt>
      <trkpt lat="47.19574" lon="-1.71346">
        <ele>26.24</ele>
        <time>2020-05-23T12:32:53Z</time>
      </trkpt>
      <trkpt lat="47.19563" lon="-1.71334">
        <ele>26.71</ele>
        <time>2020-05-23T12:32:55Z</time>
      </trkpt>
      <trkpt lat="47.19551" lon="-1.7132">
        <ele>27.4</ele>
        <time>2020-05-23T12:32:58Z</time>
      </trkpt>
      <trkpt lat="47.19541" lon="-1.71307">
        <ele>27.17</ele>
        <time>2020-05-23T12:33:00Z</time>
      </trkpt>
      <trkpt lat="47.19532" lon="-1.71293">
        <ele>25.89</ele>
        <time>2020-05-23T12:33:02Z</time>
      </trkpt>
      <trkpt lat="47.19523" lon="-1.71279">
        <ele>24.18</ele>
        <time>2020-05-23T12:33:04Z</time>
      </trkpt>
      <trkpt lat="47.19515" lon="-1.71264">
        <ele>22.5</ele>
        <time>2020-05-23T12:33:06Z</time>
      </trkpt>
      <trkpt lat="47.19507" lon="-1.71247">
        <ele>21.11</ele>
        <time>2020-05-23T12:33:08Z</time>
      </trkpt>
      <trkpt lat="47.19502" lon="-1.71232">
        <ele>19.78</ele>
        <time>2020-05-23T12:33:10Z</time>
      </trkpt>
      <trkpt lat="47.19496" lon="-1.71216">
        <ele>20.19</ele>
        <time>2020-05-23T12:33:12Z</time>
      </trkpt>
      <trkpt lat="47.19491" lon="-1.712">
        <ele>21.1</ele>
        <time>2020-05-23T12:33:14Z</time>
      </trkpt>
      <trkpt lat="47.19485" lon="-1.71183">
        <ele>21.82</ele>
        <time>2020-05-23T12:33:16Z</time>
      </trkpt>
      <trkpt lat="47.19481" lon="-1.71164">
        <ele>22.78</ele>
        <time>2020-05-23T12:33:18Z</time>
      </trkpt>
      <trkpt lat="47.19481" lon="-1.71146">
        <ele>23.98</ele>
        <time>2020-05-23T12:33:20Z</time>
      </trkpt>
      <trkpt lat="47.19482" lon="-1.71127">
        <ele>25.1</ele>
        <time>2020-05-23T12:33:22Z</time>
      </trkpt>
      <trkpt lat="47.19484" lon="-1.7111">
        <ele>25.42</ele>
        <time>2020-05-23T12:33:24Z</time>
      </trkpt>
      <trkpt lat="47.19486" lon="-1.71094">
        <ele>25.71</ele>
        <time>2020-05-23T12:33:26Z</time>
      </trkpt>
      <trkpt lat="47.19491" lon="-1.71078">
        <ele>27.66</ele>
        <time>2020-05-23T12:33:28Z</time>
      </trkpt>
      <trkpt lat="47.19499" lon="-1.71066">
        <ele>28.73</ele>
        <time>2020-05-23T12:33:30Z</time>
      </trkpt>
      <trkpt lat="47.19512" lon="-1.71056">
        <ele>30.14</ele>
        <time>2020-05-23T12:33:33Z</time>
      </trkpt>
      <trkpt lat="47.19523" lon="-1.7105">
        <ele>31.4</ele>
        <time>2020-05-23T12:33:35Z</time>
      </trkpt>
      <trkpt lat="47.19534" lon="-1.71044">
        <ele>31.86</ele>
        <time>2020-05-23T12:33:37Z</time>
      </trkpt>
      <trkpt lat="47.19547" lon="-1.71039">
        <ele>30.78</ele>
        <time>2020-05-23T12:33:39Z</time>
      </trkpt>
      <trkpt lat="47.1956" lon="-1.71034">
        <ele>29.36</ele>
        <time>2020-05-23T12:33:41Z</time>
      </trkpt>
      <trkpt lat="47.19571" lon="-1.71029">
        <ele>28.44</ele>
        <time>2020-05-23T12:33:43Z</time>
      </trkpt>
      <trkpt lat="47.19584" lon="-1.71024">
        <ele>25.7</ele>
        <time>2020-05-23T12:33:46Z</time>
      </trkpt>
      <trkpt lat="47.19595" lon="-1.71019">
        <ele>24.35</ele>
        <time>2020-05-23T12:33:48Z</time>
      </trkpt>
      <trkpt lat="47.19607" lon="-1.71012">
        <ele>23.51</ele>
        <time>2020-05-23T12:33:50Z</time>
      </trkpt>
      <trkpt lat="47.19618" lon="-1.71005">
        <ele>23.17</ele>
        <time>2020-05-23T12:33:52Z</time>
      </trkpt>
      <trkpt lat="47.19626" lon="-1.71001">
        <ele>24.52</ele>
        <time>2020-05-23T12:33:54Z</time>
      </trkpt>
      <trkpt lat="47.19636" lon="-1.70994">
        <ele>26.3</ele>
        <time>2020-05-23T12:33:56Z</time>
      </trkpt>
      <trkpt lat="47.19645" lon="-1.70988">
        <ele>26.46</ele>
        <time>2020-05-23T12:33:58Z</time>
      </trkpt>
      <trkpt lat="47.19655" lon="-1.70983">
        <ele>25.59</ele>
        <time>2020-05-23T12:34:00Z</time>
      </trkpt>
      <trkpt lat="47.19665" lon="-1.70976">
        <ele>24.55</ele>
        <time>2020-05-23T12:34:02Z</time>
      </trkpt>
      <trkpt lat="47.19674" lon="-1.70967">
        <ele>24.9</ele>
        <time>2020-05-23T12:34:04Z</time>
      </trkpt>
      <trkpt lat="47.19684" lon="-1.7096">
        <ele>25.41</ele>
        <time>2020-05-23T12:34:06Z</time>
      </trkpt>
      <trkpt lat="47.19697" lon="-1.70957">
        <ele>25.79</ele>
        <time>2020-05-23T12:34:08Z</time>
      </trkpt>
      <trkpt lat="47.19711" lon="-1.70955">
        <ele>25.21</ele>
        <time>2020-05-23T12:34:10Z</time>
      </trkpt>
      <trkpt lat="47.19724" lon="-1.70948">
        <ele>24.51</ele>
        <time>2020-05-23T12:34:12Z</time>
      </trkpt>
      <trkpt lat="47.19738" lon="-1.70938">
        <ele>23.28</ele>
        <time>2020-05-23T12:34:14Z</time>
      </trkpt>
      <trkpt lat="47.19752" lon="-1.70925">
        <ele>21.8</ele>
        <time>2020-05-23T12:34:16Z</time>
      </trkpt>
      <trkpt lat="47.19764" lon="-1.70912">
        <ele>21.34</ele>
        <time>2020-05-23T12:34:18Z</time>
      </trkpt>
      <trkpt lat="47.19771" lon="-1.70894">
        <ele>20.34</ele>
        <time>2020-05-23T12:34:20Z</time>
      </trkpt>
      <trkpt lat="47.19775" lon="-1.70874">
        <ele>20.34</ele>
        <time>2020-05-23T12:34:22Z</time>
      </trkpt>
      <trkpt lat="47.19774" lon="-1.70861">
        <ele>20.57</ele>
        <time>2020-05-23T12:34:23Z</time>
      </trkpt>
      <trkpt lat="47.19773" lon="-1.70844">
        <ele>20.17</ele>
        <time>2020-05-23T12:34:24Z</time>
      </trkpt>
      <trkpt lat="47.19772" lon="-1.70828">
        <ele>19.54</ele>
        <time>2020-05-23T12:34:25Z</time>
      </trkpt>
      <trkpt lat="47.19771" lon="-1.70815">
        <ele>18.72</ele>
        <time>2020-05-23T12:34:26Z</time>
      </trkpt>
      <trkpt lat="47.1977" lon="-1.70799">
        <ele>17.89</ele>
        <time>2020-05-23T12:34:27Z</time>
      </trkpt>
      <trkpt lat="47.19768" lon="-1.70784">
        <ele>17.37</ele>
        <time>2020-05-23T12:34:28Z</time>
      </trkpt>
      <trkpt lat="47.19767" lon="-1.70768">
        <ele>17.09</ele>
        <time>2020-05-23T12:34:29Z</time>
      </trkpt>
      <trkpt lat="47.19766" lon="-1.70754">
        <ele>16.35</ele>
        <time>2020-05-23T12:34:30Z</time>
      </trkpt>
      <trkpt lat="47.19765" lon="-1.70741">
        <ele>15.71</ele>
        <time>2020-05-23T12:34:31Z</time>
      </trkpt>
      <trkpt lat="47.1976" lon="-1.70715">
        <ele>14.71</ele>
        <time>2020-05-23T12:34:33Z</time>
      </trkpt>
      <trkpt lat="47.19755" lon="-1.70694">
        <ele>13.76</ele>
        <time>2020-05-23T12:34:35Z</time>
      </trkpt>
      <trkpt lat="47.19749" lon="-1.70671">
        <ele>12.02</ele>
        <time>2020-05-23T12:34:37Z</time>
      </trkpt>
      <trkpt lat="47.19743" lon="-1.70647">
        <ele>9.12</ele>
        <time>2020-05-23T12:34:39Z</time>
      </trkpt>
      <trkpt lat="47.19739" lon="-1.70628">
        <ele>5.76</ele>
        <time>2020-05-23T12:34:41Z</time>
      </trkpt>
      <trkpt lat="47.19734" lon="-1.70605">
        <ele>2.96</ele>
        <time>2020-05-23T12:34:43Z</time>
      </trkpt>
      <trkpt lat="47.1973" lon="-1.7058">
        <ele>1.69</ele>
        <time>2020-05-23T12:34:45Z</time>
      </trkpt>
      <trkpt lat="47.19726" lon="-1.70556">
        <ele>1.64</ele>
        <time>2020-05-23T12:34:47Z</time>
      </trkpt>
      <trkpt lat="47.1972" lon="-1.70536">
        <ele>2.17</ele>
        <time>2020-05-23T12:34:49Z</time>
      </trkpt>
      <trkpt lat="47.19715" lon="-1.70519">
        <ele>1.91</ele>
        <time>2020-05-23T12:34:51Z</time>
      </trkpt>
      <trkpt lat="47.19709" lon="-1.705">
        <ele>1.8</ele>
        <time>2020-05-23T12:34:53Z</time>
      </trkpt>
      <trkpt lat="47.1971" lon="-1.70484">
        <ele>2.36</ele>
        <time>2020-05-23T12:34:55Z</time>
      </trkpt>
      <trkpt lat="47.1971" lon="-1.70464">
        <ele>1.61</ele>
        <time>2020-05-23T12:34:57Z</time>
      </trkpt>
      <trkpt lat="47.19709" lon="-1.7044">
        <ele>-1.17</ele>
        <time>2020-05-23T12:34:59Z</time>
      </trkpt>
      <trkpt lat="47.19705" lon="-1.70418">
        <ele>-3.25</ele>
        <time>2020-05-23T12:35:01Z</time>
      </trkpt>
      <trkpt lat="47.19701" lon="-1.70393">
        <ele>-4.54</ele>
        <time>2020-05-23T12:35:03Z</time>
      </trkpt>
      <trkpt lat="47.19696" lon="-1.70376">
        <ele>-5.5</ele>
        <time>2020-05-23T12:35:05Z</time>
      </trkpt>
      <trkpt lat="47.19691" lon="-1.7036">
        <ele>-6.16</ele>
        <time>2020-05-23T12:35:07Z</time>
      </trkpt>
      <trkpt lat="47.19686" lon="-1.70339">
        <ele>-6.26</ele>
        <time>2020-05-23T12:35:09Z</time>
      </trkpt>
      <trkpt lat="47.19681" lon="-1.70318">
        <ele>-6.76</ele>
        <time>2020-05-23T12:35:11Z</time>
      </trkpt>
      <trkpt lat="47.19678" lon="-1.70299">
        <ele>-7.51</ele>
        <time>2020-05-23T12:35:13Z</time>
      </trkpt>
      <trkpt lat="47.19675" lon="-1.7028">
        <ele>-8.15</ele>
        <time>2020-05-23T12:35:15Z</time>
      </trkpt>
      <trkpt lat="47.19677" lon="-1.70261">
        <ele>-9.11</ele>
        <time>2020-05-23T12:35:17Z</time>
      </trkpt>
      <trkpt lat="47.19678" lon="-1.70243">
        <ele>-8.84</ele>
        <time>2020-05-23T12:35:19Z</time>
      </trkpt>
      <trkpt lat="47.19674" lon="-1.70227">
        <ele>-9.47</ele>
        <time>2020-05-23T12:35:21Z</time>
      </trkpt>
      <trkpt lat="47.1967" lon="-1.70209">
        <ele>-11.13</ele>
        <time>2020-05-23T12:35:23Z</time>
      </trkpt>
      <trkpt lat="47.19671" lon="-1.70188">
        <ele>-11.85</ele>
        <time>2020-05-23T12:35:25Z</time>
      </trkpt>
      <trkpt lat="47.19674" lon="-1.7017">
        <ele>-12.16</ele>
        <time>2020-05-23T12:35:27Z</time>
      </trkpt>
      <trkpt lat="47.19677" lon="-1.70154">
        <ele>-12.56</ele>
        <time>2020-05-23T12:35:29Z</time>
      </trkpt>
      <trkpt lat="47.1968" lon="-1.70134">
        <ele>-13.24</ele>
        <time>2020-05-23T12:35:31Z</time>
      </trkpt>
      <trkpt lat="47.19682" lon="-1.70113">
        <ele>-14.83</ele>
        <time>2020-05-23T12:35:33Z</time>
      </trkpt>
      <trkpt lat="47.19683" lon="-1.70096">
        <ele>-16.45</ele>
        <time>2020-05-23T12:35:35Z</time>
      </trkpt>
      <trkpt lat="47.19688" lon="-1.70078">
        <ele>-17.15</ele>
        <time>2020-05-23T12:35:37Z</time>
      </trkpt>
      <trkpt lat="47.19688" lon="-1.70056">
        <ele>-16.86</ele>
        <time>2020-05-23T12:35:39Z</time>
      </trkpt>
      <trkpt lat="47.19688" lon="-1.70033">
        <ele>-16.33</ele>
        <time>2020-05-23T12:35:41Z</time>
      </trkpt>
      <trkpt lat="47.19688" lon="-1.70016">
        <ele>-16.41</ele>
        <time>2020-05-23T12:35:43Z</time>
      </trkpt>
      <trkpt lat="47.19688" lon="-1.69998">
        <ele>-15.65</ele>
        <time>2020-05-23T12:35:45Z</time>
      </trkpt>
      <trkpt lat="47.19688" lon="-1.69977">
        <ele>-15.17</ele>
        <time>2020-05-23T12:35:47Z</time>
      </trkpt>
      <trkpt lat="47.19685" lon="-1.69954">
        <ele>-13.71</ele>
        <time>2020-05-23T12:35:49Z</time>
      </trkpt>
      <trkpt lat="47.19681" lon="-1.69933">
        <ele>-11.89</ele>
        <time>2020-05-23T12:35:51Z</time>
      </trkpt>
      <trkpt lat="47.19676" lon="-1.69912">
        <ele>-9.61</ele>
        <time>2020-05-23T12:35:53Z</time>
      </trkpt>
      <trkpt lat="47.19674" lon="-1.69893">
        <ele>-8.21</ele>
        <time>2020-05-23T12:35:55Z</time>
      </trkpt>
      <trkpt lat="47.19677" lon="-1.69875">
        <ele>-6.77</ele>
        <time>2020-05-23T12:35:57Z</time>
      </trkpt>
      <trkpt lat="47.19682" lon="-1.69857">
        <ele>-5.63</ele>
        <time>2020-05-23T12:35:59Z</time>
      </trkpt>
      <trkpt lat="47.19683" lon="-1.69835">
        <ele>-2.9</ele>
        <time>2020-05-23T12:36:01Z</time>
      </trkpt>
      <trkpt lat="47.19677" lon="-1.69818">
        <ele>0.29</ele>
        <time>2020-05-23T12:36:03Z</time>
      </trkpt>
      <trkpt lat="47.19668" lon="-1.69807">
        <ele>3.32</ele>
        <time>2020-05-23T12:36:05Z</time>
      </trkpt>
      <trkpt lat="47.19659" lon="-1.69799">
        <ele>5.32</ele>
        <time>2020-05-23T12:36:07Z</time>
      </trkpt>
      <trkpt lat="47.19649" lon="-1.6979">
        <ele>7.72</ele>
        <time>2020-05-23T12:36:09Z</time>
      </trkpt>
      <trkpt lat="47.19642" lon="-1.6978">
        <ele>8.98</ele>
        <time>2020-05-23T12:36:11Z</time>
      </trkpt>
      <trkpt lat="47.19637" lon="-1.69764">
        <ele>10.22</ele>
        <time>2020-05-23T12:36:13Z</time>
      </trkpt>
      <trkpt lat="47.19632" lon="-1.69745">
        <ele>11.01</ele>
        <time>2020-05-23T12:36:15Z</time>
      </trkpt>
      <trkpt lat="47.19627" lon="-1.69725">
        <ele>11.28</ele>
        <time>2020-05-23T12:36:17Z</time>
      </trkpt>
      <trkpt lat="47.1962" lon="-1.69707">
        <ele>10.82</ele>
        <time>2020-05-23T12:36:19Z</time>
      </trkpt>
      <trkpt lat="47.19612" lon="-1.69695">
        <ele>9.38</ele>
        <time>2020-05-23T12:36:21Z</time>
      </trkpt>
      <trkpt lat="47.19605" lon="-1.6968">
        <ele>9.08</ele>
        <time>2020-05-23T12:36:23Z</time>
      </trkpt>
      <trkpt lat="47.19598" lon="-1.69666">
        <ele>8.61</ele>
        <time>2020-05-23T12:36:25Z</time>
      </trkpt>
      <trkpt lat="47.19592" lon="-1.69651">
        <ele>7.79</ele>
        <time>2020-05-23T12:36:27Z</time>
      </trkpt>
      <trkpt lat="47.19585" lon="-1.69636">
        <ele>6.88</ele>
        <time>2020-05-23T12:36:29Z</time>
      </trkpt>
      <trkpt lat="47.19578" lon="-1.69622">
        <ele>6.54</ele>
        <time>2020-05-23T12:36:31Z</time>
      </trkpt>
      <trkpt lat="47.1957" lon="-1.69607">
        <ele>7.27</ele>
        <time>2020-05-23T12:36:33Z</time>
      </trkpt>
      <trkpt lat="47.19564" lon="-1.69591">
        <ele>8.42</ele>
        <time>2020-05-23T12:36:35Z</time>
      </trkpt>
      <trkpt lat="47.19557" lon="-1.69574">
        <ele>9.74</ele>
        <time>2020-05-23T12:36:37Z</time>
      </trkpt>
      <trkpt lat="47.1955" lon="-1.69555">
        <ele>8.91</ele>
        <time>2020-05-23T12:36:39Z</time>
      </trkpt>
      <trkpt lat="47.19542" lon="-1.69538">
        <ele>7.99</ele>
        <time>2020-05-23T12:36:41Z</time>
      </trkpt>
      <trkpt lat="47.19535" lon="-1.69521">
        <ele>7.55</ele>
        <time>2020-05-23T12:36:43Z</time>
      </trkpt>
      <trkpt lat="47.19528" lon="-1.69503">
        <ele>7.73</ele>
        <time>2020-05-23T12:36:45Z</time>
      </trkpt>
      <trkpt lat="47.19521" lon="-1.69486">
        <ele>7.52</ele>
        <time>2020-05-23T12:36:47Z</time>
      </trkpt>
      <trkpt lat="47.19514" lon="-1.69469">
        <ele>6.86</ele>
        <time>2020-05-23T12:36:49Z</time>
      </trkpt>
      <trkpt lat="47.19508" lon="-1.69453">
        <ele>6.52</ele>
        <time>2020-05-23T12:36:51Z</time>
      </trkpt>
      <trkpt lat="47.19502" lon="-1.6944">
        <ele>5.35</ele>
        <time>2020-05-23T12:36:53Z</time>
      </trkpt>
      <trkpt lat="47.19494" lon="-1.69426">
        <ele>4.15</ele>
        <time>2020-05-23T12:36:55Z</time>
      </trkpt>
      <trkpt lat="47.19486" lon="-1.69413">
        <ele>5.11</ele>
        <time>2020-05-23T12:36:57Z</time>
      </trkpt>
      <trkpt lat="47.19475" lon="-1.69403">
        <ele>6.47</ele>
        <time>2020-05-23T12:36:59Z</time>
      </trkpt>
      <trkpt lat="47.19464" lon="-1.69396">
        <ele>6.85</ele>
        <time>2020-05-23T12:37:01Z</time>
      </trkpt>
      <trkpt lat="47.19451" lon="-1.69391">
        <ele>7.92</ele>
        <time>2020-05-23T12:37:03Z</time>
      </trkpt>
      <trkpt lat="47.19439" lon="-1.69386">
        <ele>7.61</ele>
        <time>2020-05-23T12:37:05Z</time>
      </trkpt>
      <trkpt lat="47.19429" lon="-1.69384">
        <ele>7.85</ele>
        <time>2020-05-23T12:37:07Z</time>
      </trkpt>
      <trkpt lat="47.19419" lon="-1.69389">
        <ele>8.82</ele>
        <time>2020-05-23T12:37:09Z</time>
      </trkpt>
      <trkpt lat="47.19409" lon="-1.694">
        <ele>8.93</ele>
        <time>2020-05-23T12:37:11Z</time>
      </trkpt>
      <trkpt lat="47.19399" lon="-1.69412">
        <ele>9.61</ele>
        <time>2020-05-23T12:37:13Z</time>
      </trkpt>
      <trkpt lat="47.19388" lon="-1.69423">
        <ele>10.64</ele>
        <time>2020-05-23T12:37:15Z</time>
      </trkpt>
      <trkpt lat="47.19377" lon="-1.69431">
        <ele>11.25</ele>
        <time>2020-05-23T12:37:17Z</time>
      </trkpt>
      <trkpt lat="47.19364" lon="-1.69436">
        <ele>11.21</ele>
        <time>2020-05-23T12:37:19Z</time>
      </trkpt>
      <trkpt lat="47.19353" lon="-1.6944">
        <ele>11.36</ele>
        <time>2020-05-23T12:37:21Z</time>
      </trkpt>
      <trkpt lat="47.1934" lon="-1.69442">
        <ele>12.05</ele>
        <time>2020-05-23T12:37:23Z</time>
      </trkpt>
      <trkpt lat="47.19328" lon="-1.69444">
        <ele>12.17</ele>
        <time>2020-05-23T12:37:25Z</time>
      </trkpt>
      <trkpt lat="47.19318" lon="-1.69447">
        <ele>12.6</ele>
        <time>2020-05-23T12:37:27Z</time>
      </trkpt>
      <trkpt lat="47.19306" lon="-1.69452">
        <ele>11.94</ele>
        <time>2020-05-23T12:37:29Z</time>
      </trkpt>
      <trkpt lat="47.19297" lon="-1.6946">
        <ele>10.87</ele>
        <time>2020-05-23T12:37:31Z</time>
      </trkpt>
      <trkpt lat="47.19289" lon="-1.69467">
        <ele>10.89</ele>
        <time>2020-05-23T12:37:33Z</time>
      </trkpt>
      <trkpt lat="47.19287" lon="-1.69453">
        <ele>10.87</ele>
        <time>2020-05-23T12:37:37Z</time>
      </trkpt>
      <trkpt lat="47.19295" lon="-1.69446">
        <ele>10.09</ele>
        <time>2020-05-23T12:37:39Z</time>
      </trkpt>
      <trkpt lat="47.19305" lon="-1.69435">
        <ele>9.46</ele>
        <time>2020-05-23T12:37:41Z</time>
      </trkpt>
      <trkpt lat="47.19316" lon="-1.69427">
        <ele>8.99</ele>
        <time>2020-05-23T12:37:43Z</time>
      </trkpt>
      <trkpt lat="47.19326" lon="-1.6942">
        <ele>7.64</ele>
        <time>2020-05-23T12:37:45Z</time>
      </trkpt>
      <trkpt lat="47.19335" lon="-1.69415">
        <ele>6.42</ele>
        <time>2020-05-23T12:37:47Z</time>
      </trkpt>
      <trkpt lat="47.19347" lon="-1.69409">
        <ele>5.54</ele>
        <time>2020-05-23T12:37:50Z</time>
      </trkpt>
      <trkpt lat="47.19357" lon="-1.69405">
        <ele>6.27</ele>
        <time>2020-05-23T12:37:53Z</time>
      </trkpt>
      <trkpt lat="47.19367" lon="-1.69399">
        <ele>7.51</ele>
        <time>2020-05-23T12:37:56Z</time>
      </trkpt>
      <trkpt lat="47.19376" lon="-1.69394">
        <ele>8.47</ele>
        <time>2020-05-23T12:37:58Z</time>
      </trkpt>
      <trkpt lat="47.19386" lon="-1.69387">
        <ele>10.72</ele>
        <time>2020-05-23T12:38:01Z</time>
      </trkpt>
      <trkpt lat="47.19395" lon="-1.69371">
        <ele>12.23</ele>
        <time>2020-05-23T12:38:04Z</time>
      </trkpt>
      <trkpt lat="47.194" lon="-1.69359">
        <ele>13.73</ele>
        <time>2020-05-23T12:38:07Z</time>
      </trkpt>
      <trkpt lat="47.19405" lon="-1.6934">
        <ele>15.87</ele>
        <time>2020-05-23T12:38:10Z</time>
      </trkpt>
      <trkpt lat="47.19409" lon="-1.69327">
        <ele>16.28</ele>
        <time>2020-05-23T12:38:12Z</time>
      </trkpt>
      <trkpt lat="47.19415" lon="-1.69313">
        <ele>16.58</ele>
        <time>2020-05-23T12:38:15Z</time>
      </trkpt>
      <trkpt lat="47.19419" lon="-1.69295">
        <ele>17.64</ele>
        <time>2020-05-23T12:38:18Z</time>
      </trkpt>
      <trkpt lat="47.19415" lon="-1.69278">
        <ele>18.69</ele>
        <time>2020-05-23T12:38:21Z</time>
      </trkpt>
      <trkpt lat="47.1941" lon="-1.69261">
        <ele>19.86</ele>
        <time>2020-05-23T12:38:24Z</time>
      </trkpt>
      <trkpt lat="47.19407" lon="-1.69248">
        <ele>20.33</ele>
        <time>2020-05-23T12:38:26Z</time>
      </trkpt>
      <trkpt lat="47.19403" lon="-1.69234">
        <ele>21.71</ele>
        <time>2020-05-23T12:38:28Z</time>
      </trkpt>
      <trkpt lat="47.19399" lon="-1.69219">
        <ele>25.15</ele>
        <time>2020-05-23T12:38:30Z</time>
      </trkpt>
      <trkpt lat="47.19395" lon="-1.69206">
        <ele>28.15</ele>
        <time>2020-05-23T12:38:32Z</time>
      </trkpt>
      <trkpt lat="47.19391" lon="-1.69192">
        <ele>29.33</ele>
        <time>2020-05-23T12:38:34Z</time>
      </trkpt>
      <trkpt lat="47.19385" lon="-1.69174">
        <ele>28.09</ele>
        <time>2020-05-23T12:38:37Z</time>
      </trkpt>
      <trkpt lat="47.1938" lon="-1.6916">
        <ele>27.13</ele>
        <time>2020-05-23T12:38:39Z</time>
      </trkpt>
      <trkpt lat="47.19376" lon="-1.69147">
        <ele>26.68</ele>
        <time>2020-05-23T12:38:41Z</time>
      </trkpt>
      <trkpt lat="47.19371" lon="-1.69131">
        <ele>27.46</ele>
        <time>2020-05-23T12:38:44Z</time>
      </trkpt>
      <trkpt lat="47.19367" lon="-1.69114">
        <ele>27.57</ele>
        <time>2020-05-23T12:38:47Z</time>
      </trkpt>
      <trkpt lat="47.19362" lon="-1.69096">
        <ele>28.09</ele>
        <time>2020-05-23T12:38:50Z</time>
      </trkpt>
      <trkpt lat="47.19357" lon="-1.69078">
        <ele>28.47</ele>
        <time>2020-05-23T12:38:53Z</time>
      </trkpt>
      <trkpt lat="47.19353" lon="-1.69063">
        <ele>30.19</ele>
        <time>2020-05-23T12:38:56Z</time>
      </trkpt>
      <trkpt lat="47.19349" lon="-1.69049">
        <ele>30.73</ele>
        <time>2020-05-23T12:38:58Z</time>
      </trkpt>
      <trkpt lat="47.19345" lon="-1.69032">
        <ele>30.32</ele>
        <time>2020-05-23T12:39:01Z</time>
      </trkpt>
      <trkpt lat="47.19339" lon="-1.69022">
        <ele>30.21</ele>
        <time>2020-05-23T12:39:03Z</time>
      </trkpt>
      <trkpt lat="47.19333" lon="-1.69013">
        <ele>30.84</ele>
        <time>2020-05-23T12:39:05Z</time>
      </trkpt>
      <trkpt lat="47.19326" lon="-1.69003">
        <ele>31.99</ele>
        <time>2020-05-23T12:39:07Z</time>
      </trkpt>
      <trkpt lat="47.19318" lon="-1.68989">
        <ele>32.17</ele>
        <time>2020-05-23T12:39:10Z</time>
      </trkpt>
      <trkpt lat="47.1931" lon="-1.68974">
        <ele>32.72</ele>
        <time>2020-05-23T12:39:13Z</time>
      </trkpt>
      <trkpt lat="47.19302" lon="-1.68959">
        <ele>32.59</ele>
        <time>2020-05-23T12:39:16Z</time>
      </trkpt>
      <trkpt lat="47.19292" lon="-1.68943">
        <ele>32.44</ele>
        <time>2020-05-23T12:39:19Z</time>
      </trkpt>
      <trkpt lat="47.19287" lon="-1.68932">
        <ele>33.23</ele>
        <time>2020-05-23T12:39:21Z</time>
      </trkpt>
      <trkpt lat="47.19281" lon="-1.68921">
        <ele>34.48</ele>
        <time>2020-05-23T12:39:23Z</time>
      </trkpt>
      <trkpt lat="47.19274" lon="-1.68907">
        <ele>34.83</ele>
        <time>2020-05-23T12:39:25Z</time>
      </trkpt>
      <trkpt lat="47.19267" lon="-1.68893">
        <ele>33.39</ele>
        <time>2020-05-23T12:39:27Z</time>
      </trkpt>
      <trkpt lat="47.1926" lon="-1.6888">
        <ele>32.66</ele>
        <time>2020-05-23T12:39:29Z</time>
      </trkpt>
      <trkpt lat="47.19254" lon="-1.68868">
        <ele>32.25</ele>
        <time>2020-05-23T12:39:31Z</time>
      </trkpt>
      <trkpt lat="47.19248" lon="-1.68856">
        <ele>33.24</ele>
        <time>2020-05-23T12:39:33Z</time>
      </trkpt>
      <trkpt lat="47.19242" lon="-1.68843">
        <ele>33.62</ele>
        <time>2020-05-23T12:39:35Z</time>
      </trkpt>
      <trkpt lat="47.1924" lon="-1.68826">
        <ele>34.34</ele>
        <time>2020-05-23T12:39:39Z</time>
      </trkpt>
      <trkpt lat="47.19241" lon="-1.68812">
        <ele>34.5</ele>
        <time>2020-05-23T12:39:41Z</time>
      </trkpt>
      <trkpt lat="47.19241" lon="-1.68794">
        <ele>34.71</ele>
        <time>2020-05-23T12:39:43Z</time>
      </trkpt>
      <trkpt lat="47.19238" lon="-1.68775">
        <ele>34.83</ele>
        <time>2020-05-23T12:39:45Z</time>
      </trkpt>
      <trkpt lat="47.19234" lon="-1.68753">
        <ele>34.5</ele>
        <time>2020-05-23T12:39:47Z</time>
      </trkpt>
      <trkpt lat="47.1923" lon="-1.68733">
        <ele>33.13</ele>
        <time>2020-05-23T12:39:49Z</time>
      </trkpt>
      <trkpt lat="47.19217" lon="-1.68722">
        <ele>32.22</ele>
        <time>2020-05-23T12:39:51Z</time>
      </trkpt>
      <trkpt lat="47.19207" lon="-1.68716">
        <ele>32.38</ele>
        <time>2020-05-23T12:39:53Z</time>
      </trkpt>
      <trkpt lat="47.19199" lon="-1.68707">
        <ele>32.25</ele>
        <time>2020-05-23T12:39:55Z</time>
      </trkpt>
      <trkpt lat="47.19191" lon="-1.687">
        <ele>31.39</ele>
        <time>2020-05-23T12:39:57Z</time>
      </trkpt>
      <trkpt lat="47.19182" lon="-1.68692">
        <ele>30.48</ele>
        <time>2020-05-23T12:39:59Z</time>
      </trkpt>
      <trkpt lat="47.19169" lon="-1.68693">
        <ele>29.18</ele>
        <time>2020-05-23T12:40:02Z</time>
      </trkpt>
      <trkpt lat="47.19158" lon="-1.68689">
        <ele>32</ele>
        <time>2020-05-23T12:40:05Z</time>
      </trkpt>
      <trkpt lat="47.19156" lon="-1.68676">
        <ele>34.55</ele>
        <time>2020-05-23T12:40:07Z</time>
      </trkpt>
      <trkpt lat="47.19164" lon="-1.68662">
        <ele>37.37</ele>
        <time>2020-05-23T12:40:10Z</time>
      </trkpt>
      <trkpt lat="47.19173" lon="-1.68652">
        <ele>37.69</ele>
        <time>2020-05-23T12:40:12Z</time>
      </trkpt>
      <trkpt lat="47.19171" lon="-1.68637">
        <ele>37.48</ele>
        <time>2020-05-23T12:40:14Z</time>
      </trkpt>
      <trkpt lat="47.19167" lon="-1.68624">
        <ele>36.33</ele>
        <time>2020-05-23T12:40:16Z</time>
      </trkpt>
      <trkpt lat="47.19162" lon="-1.68608">
        <ele>34.91</ele>
        <time>2020-05-23T12:40:18Z</time>
      </trkpt>
      <trkpt lat="47.19157" lon="-1.68592">
        <ele>33.42</ele>
        <time>2020-05-23T12:40:20Z</time>
      </trkpt>
      <trkpt lat="47.19152" lon="-1.68576">
        <ele>31.87</ele>
        <time>2020-05-23T12:40:22Z</time>
      </trkpt>
      <trkpt lat="47.19147" lon="-1.6856">
        <ele>30</ele>
        <time>2020-05-23T12:40:24Z</time>
      </trkpt>
      <trkpt lat="47.19143" lon="-1.68545">
        <ele>28.5</ele>
        <time>2020-05-23T12:40:26Z</time>
      </trkpt>
      <trkpt lat="47.19138" lon="-1.68533">
        <ele>28.96</ele>
        <time>2020-05-23T12:40:28Z</time>
      </trkpt>
      <trkpt lat="47.19132" lon="-1.68519">
        <ele>28.88</ele>
        <time>2020-05-23T12:40:30Z</time>
      </trkpt>
      <trkpt lat="47.19126" lon="-1.68506">
        <ele>29.07</ele>
        <time>2020-05-23T12:40:32Z</time>
      </trkpt>
      <trkpt lat="47.19121" lon="-1.68493">
        <ele>28.62</ele>
        <time>2020-05-23T12:40:34Z</time>
      </trkpt>
      <trkpt lat="47.19114" lon="-1.6848">
        <ele>27.96</ele>
        <time>2020-05-23T12:40:36Z</time>
      </trkpt>
      <trkpt lat="47.19108" lon="-1.68468">
        <ele>27.14</ele>
        <time>2020-05-23T12:40:38Z</time>
      </trkpt>
      <trkpt lat="47.19102" lon="-1.68455">
        <ele>27.05</ele>
        <time>2020-05-23T12:40:40Z</time>
      </trkpt>
      <trkpt lat="47.19098" lon="-1.6844">
        <ele>27.04</ele>
        <time>2020-05-23T12:40:42Z</time>
      </trkpt>
      <trkpt lat="47.19094" lon="-1.68423">
        <ele>27.34</ele>
        <time>2020-05-23T12:40:44Z</time>
      </trkpt>
      <trkpt lat="47.19096" lon="-1.68404">
        <ele>28.33</ele>
        <time>2020-05-23T12:40:46Z</time>
      </trkpt>
      <trkpt lat="47.19098" lon="-1.68388">
        <ele>28.97</ele>
        <time>2020-05-23T12:40:48Z</time>
      </trkpt>
      <trkpt lat="47.191" lon="-1.68367">
        <ele>29.7</ele>
        <time>2020-05-23T12:40:50Z</time>
      </trkpt>
      <trkpt lat="47.19101" lon="-1.68349">
        <ele>31.09</ele>
        <time>2020-05-23T12:40:52Z</time>
      </trkpt>
      <trkpt lat="47.191" lon="-1.68331">
        <ele>31.26</ele>
        <time>2020-05-23T12:40:54Z</time>
      </trkpt>
      <trkpt lat="47.19099" lon="-1.68309">
        <ele>31.47</ele>
        <time>2020-05-23T12:40:56Z</time>
      </trkpt>
      <trkpt lat="47.19099" lon="-1.68293">
        <ele>32.29</ele>
        <time>2020-05-23T12:40:58Z</time>
      </trkpt>
      <trkpt lat="47.19093" lon="-1.68275">
        <ele>33.12</ele>
        <time>2020-05-23T12:41:00Z</time>
      </trkpt>
      <trkpt lat="47.19086" lon="-1.68256">
        <ele>33.3</ele>
        <time>2020-05-23T12:41:02Z</time>
      </trkpt>
      <trkpt lat="47.1908" lon="-1.68238">
        <ele>32.76</ele>
        <time>2020-05-23T12:41:04Z</time>
      </trkpt>
      <trkpt lat="47.19074" lon="-1.6822">
        <ele>32.51</ele>
        <time>2020-05-23T12:41:06Z</time>
      </trkpt>
      <trkpt lat="47.1907" lon="-1.68203">
        <ele>31.63</ele>
        <time>2020-05-23T12:41:08Z</time>
      </trkpt>
      <trkpt lat="47.19065" lon="-1.68186">
        <ele>31.21</ele>
        <time>2020-05-23T12:41:10Z</time>
      </trkpt>
      <trkpt lat="47.1906" lon="-1.68167">
        <ele>30.98</ele>
        <time>2020-05-23T12:41:12Z</time>
      </trkpt>
      <trkpt lat="47.19053" lon="-1.6815">
        <ele>30.62</ele>
        <time>2020-05-23T12:41:14Z</time>
      </trkpt>
      <trkpt lat="47.19045" lon="-1.68133">
        <ele>30.7</ele>
        <time>2020-05-23T12:41:16Z</time>
      </trkpt>
      <trkpt lat="47.19036" lon="-1.68118">
        <ele>29.99</ele>
        <time>2020-05-23T12:41:18Z</time>
      </trkpt>
      <trkpt lat="47.19025" lon="-1.68103">
        <ele>28.74</ele>
        <time>2020-05-23T12:41:20Z</time>
      </trkpt>
      <trkpt lat="47.19015" lon="-1.68089">
        <ele>27.62</ele>
        <time>2020-05-23T12:41:22Z</time>
      </trkpt>
      <trkpt lat="47.19004" lon="-1.68074">
        <ele>28.1</ele>
        <time>2020-05-23T12:41:24Z</time>
      </trkpt>
      <trkpt lat="47.18994" lon="-1.68059">
        <ele>28.85</ele>
        <time>2020-05-23T12:41:26Z</time>
      </trkpt>
      <trkpt lat="47.18984" lon="-1.68043">
        <ele>29.85</ele>
        <time>2020-05-23T12:41:28Z</time>
      </trkpt>
      <trkpt lat="47.18975" lon="-1.68026">
        <ele>30.73</ele>
        <time>2020-05-23T12:41:30Z</time>
      </trkpt>
      <trkpt lat="47.18965" lon="-1.68011">
        <ele>31.57</ele>
        <time>2020-05-23T12:41:32Z</time>
      </trkpt>
      <trkpt lat="47.18957" lon="-1.67997">
        <ele>32.26</ele>
        <time>2020-05-23T12:41:34Z</time>
      </trkpt>
      <trkpt lat="47.1895" lon="-1.67983">
        <ele>33.3</ele>
        <time>2020-05-23T12:41:36Z</time>
      </trkpt>
      <trkpt lat="47.18942" lon="-1.67966">
        <ele>34.78</ele>
        <time>2020-05-23T12:41:38Z</time>
      </trkpt>
      <trkpt lat="47.18935" lon="-1.67948">
        <ele>35.13</ele>
        <time>2020-05-23T12:41:40Z</time>
      </trkpt>
      <trkpt lat="47.18928" lon="-1.67931">
        <ele>34.64</ele>
        <time>2020-05-23T12:41:42Z</time>
      </trkpt>
      <trkpt lat="47.1892" lon="-1.67913">
        <ele>33.36</ele>
        <time>2020-05-23T12:41:44Z</time>
      </trkpt>
      <trkpt lat="47.18909" lon="-1.67903">
        <ele>32.58</ele>
        <time>2020-05-23T12:41:46Z</time>
      </trkpt>
      <trkpt lat="47.18894" lon="-1.67897">
        <ele>33.16</ele>
        <time>2020-05-23T12:41:48Z</time>
      </trkpt>
      <trkpt lat="47.1888" lon="-1.67892">
        <ele>33.83</ele>
        <time>2020-05-23T12:41:50Z</time>
      </trkpt>
      <trkpt lat="47.18867" lon="-1.67882">
        <ele>34.73</ele>
        <time>2020-05-23T12:41:52Z</time>
      </trkpt>
      <trkpt lat="47.18858" lon="-1.67868">
        <ele>35.41</ele>
        <time>2020-05-23T12:41:54Z</time>
      </trkpt>
      <trkpt lat="47.18852" lon="-1.67853">
        <ele>36.38</ele>
        <time>2020-05-23T12:41:56Z</time>
      </trkpt>
      <trkpt lat="47.18845" lon="-1.67834">
        <ele>37.23</ele>
        <time>2020-05-23T12:41:58Z</time>
      </trkpt>
      <trkpt lat="47.18839" lon="-1.67816">
        <ele>37.52</ele>
        <time>2020-05-23T12:42:00Z</time>
      </trkpt>
      <trkpt lat="47.18831" lon="-1.67796">
        <ele>37.67</ele>
        <time>2020-05-23T12:42:02Z</time>
      </trkpt>
      <trkpt lat="47.18823" lon="-1.67777">
        <ele>37.79</ele>
        <time>2020-05-23T12:42:04Z</time>
      </trkpt>
      <trkpt lat="47.18816" lon="-1.67763">
        <ele>37.95</ele>
        <time>2020-05-23T12:42:06Z</time>
      </trkpt>
      <trkpt lat="47.1881" lon="-1.67749">
        <ele>38.02</ele>
        <time>2020-05-23T12:42:07Z</time>
      </trkpt>
      <trkpt lat="47.18804" lon="-1.67737">
        <ele>38.15</ele>
        <time>2020-05-23T12:42:09Z</time>
      </trkpt>
      <trkpt lat="47.18798" lon="-1.67722">
        <ele>37.63</ele>
        <time>2020-05-23T12:42:11Z</time>
      </trkpt>
      <trkpt lat="47.18794" lon="-1.67708">
        <ele>37.38</ele>
        <time>2020-05-23T12:42:13Z</time>
      </trkpt>
      <trkpt lat="47.18787" lon="-1.67692">
        <ele>37.94</ele>
        <time>2020-05-23T12:42:15Z</time>
      </trkpt>
      <trkpt lat="47.18777" lon="-1.67676">
        <ele>39.47</ele>
        <time>2020-05-23T12:42:17Z</time>
      </trkpt>
      <trkpt lat="47.18766" lon="-1.6766">
        <ele>40.96</ele>
        <time>2020-05-23T12:42:19Z</time>
      </trkpt>
      <trkpt lat="47.18757" lon="-1.67643">
        <ele>42.68</ele>
        <time>2020-05-23T12:42:21Z</time>
      </trkpt>
      <trkpt lat="47.1875" lon="-1.67627">
        <ele>44.28</ele>
        <time>2020-05-23T12:42:23Z</time>
      </trkpt>
      <trkpt lat="47.18743" lon="-1.67613">
        <ele>44.75</ele>
        <time>2020-05-23T12:42:25Z</time>
      </trkpt>
      <trkpt lat="47.18731" lon="-1.67615">
        <ele>45.39</ele>
        <time>2020-05-23T12:42:27Z</time>
      </trkpt>
      <trkpt lat="47.18718" lon="-1.6762">
        <ele>45.04</ele>
        <time>2020-05-23T12:42:29Z</time>
      </trkpt>
      <trkpt lat="47.18704" lon="-1.67624">
        <ele>44.82</ele>
        <time>2020-05-23T12:42:31Z</time>
      </trkpt>
      <trkpt lat="47.18691" lon="-1.67618">
        <ele>44.66</ele>
        <time>2020-05-23T12:42:33Z</time>
      </trkpt>
      <trkpt lat="47.1868" lon="-1.67609">
        <ele>44.87</ele>
        <time>2020-05-23T12:42:35Z</time>
      </trkpt>
      <trkpt lat="47.1867" lon="-1.67596">
        <ele>42.94</ele>
        <time>2020-05-23T12:42:37Z</time>
      </trkpt>
      <trkpt lat="47.1866" lon="-1.67581">
        <ele>41.93</ele>
        <time>2020-05-23T12:42:39Z</time>
      </trkpt>
      <trkpt lat="47.18651" lon="-1.67567">
        <ele>41.36</ele>
        <time>2020-05-23T12:42:41Z</time>
      </trkpt>
      <trkpt lat="47.18641" lon="-1.67553">
        <ele>41.91</ele>
        <time>2020-05-23T12:42:43Z</time>
      </trkpt>
      <trkpt lat="47.18632" lon="-1.67539">
        <ele>43.85</ele>
        <time>2020-05-23T12:42:45Z</time>
      </trkpt>
      <trkpt lat="47.18622" lon="-1.67524">
        <ele>44.76</ele>
        <time>2020-05-23T12:42:47Z</time>
      </trkpt>
      <trkpt lat="47.18613" lon="-1.67508">
        <ele>44.78</ele>
        <time>2020-05-23T12:42:49Z</time>
      </trkpt>
      <trkpt lat="47.18606" lon="-1.67489">
        <ele>44.11</ele>
        <time>2020-05-23T12:42:51Z</time>
      </trkpt>
      <trkpt lat="47.186" lon="-1.67473">
        <ele>43.69</ele>
        <time>2020-05-23T12:42:53Z</time>
      </trkpt>
      <trkpt lat="47.18595" lon="-1.67456">
        <ele>43.56</ele>
        <time>2020-05-23T12:42:55Z</time>
      </trkpt>
      <trkpt lat="47.1859" lon="-1.67441">
        <ele>43.62</ele>
        <time>2020-05-23T12:42:57Z</time>
      </trkpt>
      <trkpt lat="47.1858" lon="-1.67435">
        <ele>43.44</ele>
        <time>2020-05-23T12:42:59Z</time>
      </trkpt>
      <trkpt lat="47.18568" lon="-1.6744">
        <ele>41.43</ele>
        <time>2020-05-23T12:43:01Z</time>
      </trkpt>
      <trkpt lat="47.18555" lon="-1.67447">
        <ele>39.06</ele>
        <time>2020-05-23T12:43:03Z</time>
      </trkpt>
      <trkpt lat="47.18547" lon="-1.67453">
        <ele>38.77</ele>
        <time>2020-05-23T12:43:05Z</time>
      </trkpt>
      <trkpt lat="47.18536" lon="-1.6745">
        <ele>38.72</ele>
        <time>2020-05-23T12:43:11Z</time>
      </trkpt>
      <trkpt lat="47.18527" lon="-1.67439">
        <ele>38.7</ele>
        <time>2020-05-23T12:43:13Z</time>
      </trkpt>
      <trkpt lat="47.18515" lon="-1.67434">
        <ele>39.12</ele>
        <time>2020-05-23T12:43:15Z</time>
      </trkpt>
      <trkpt lat="47.18502" lon="-1.67438">
        <ele>39.55</ele>
        <time>2020-05-23T12:43:17Z</time>
      </trkpt>
      <trkpt lat="47.18491" lon="-1.67444">
        <ele>40.47</ele>
        <time>2020-05-23T12:43:19Z</time>
      </trkpt>
      <trkpt lat="47.18479" lon="-1.6745">
        <ele>41.19</ele>
        <time>2020-05-23T12:43:21Z</time>
      </trkpt>
      <trkpt lat="47.18469" lon="-1.67457">
        <ele>41.05</ele>
        <time>2020-05-23T12:43:23Z</time>
      </trkpt>
      <trkpt lat="47.18458" lon="-1.67464">
        <ele>39.57</ele>
        <time>2020-05-23T12:43:25Z</time>
      </trkpt>
      <trkpt lat="47.18447" lon="-1.67471">
        <ele>38.14</ele>
        <time>2020-05-23T12:43:27Z</time>
      </trkpt>
      <trkpt lat="47.18433" lon="-1.67481">
        <ele>37.36</ele>
        <time>2020-05-23T12:43:29Z</time>
      </trkpt>
      <trkpt lat="47.1842" lon="-1.67489">
        <ele>37.84</ele>
        <time>2020-05-23T12:43:31Z</time>
      </trkpt>
      <trkpt lat="47.18408" lon="-1.67496">
        <ele>38.63</ele>
        <time>2020-05-23T12:43:33Z</time>
      </trkpt>
      <trkpt lat="47.18394" lon="-1.67505">
        <ele>38.87</ele>
        <time>2020-05-23T12:43:35Z</time>
      </trkpt>
      <trkpt lat="47.18381" lon="-1.67513">
        <ele>38.92</ele>
        <time>2020-05-23T12:43:37Z</time>
      </trkpt>
      <trkpt lat="47.18367" lon="-1.67521">
        <ele>38.43</ele>
        <time>2020-05-23T12:43:39Z</time>
      </trkpt>
      <trkpt lat="47.18354" lon="-1.6753">
        <ele>37.67</ele>
        <time>2020-05-23T12:43:41Z</time>
      </trkpt>
      <trkpt lat="47.1834" lon="-1.67538">
        <ele>36.77</ele>
        <time>2020-05-23T12:43:43Z</time>
      </trkpt>
      <trkpt lat="47.18328" lon="-1.67545">
        <ele>36.09</ele>
        <time>2020-05-23T12:43:45Z</time>
      </trkpt>
      <trkpt lat="47.18315" lon="-1.67553">
        <ele>34.68</ele>
        <time>2020-05-23T12:43:47Z</time>
      </trkpt>
      <trkpt lat="47.18303" lon="-1.67559">
        <ele>34.15</ele>
        <time>2020-05-23T12:43:49Z</time>
      </trkpt>
      <trkpt lat="47.18292" lon="-1.67564">
        <ele>33.62</ele>
        <time>2020-05-23T12:43:51Z</time>
      </trkpt>
      <trkpt lat="47.18278" lon="-1.67572">
        <ele>33.1</ele>
        <time>2020-05-23T12:43:53Z</time>
      </trkpt>
      <trkpt lat="47.18266" lon="-1.6758">
        <ele>34.16</ele>
        <time>2020-05-23T12:43:55Z</time>
      </trkpt>
      <trkpt lat="47.18253" lon="-1.67588">
        <ele>35.69</ele>
        <time>2020-05-23T12:43:57Z</time>
      </trkpt>
      <trkpt lat="47.18239" lon="-1.67597">
        <ele>35.79</ele>
        <time>2020-05-23T12:43:59Z</time>
      </trkpt>
      <trkpt lat="47.18227" lon="-1.67604">
        <ele>35.88</ele>
        <time>2020-05-23T12:44:01Z</time>
      </trkpt>
      <trkpt lat="47.18214" lon="-1.67612">
        <ele>36.28</ele>
        <time>2020-05-23T12:44:03Z</time>
      </trkpt>
      <trkpt lat="47.18202" lon="-1.6762">
        <ele>36.83</ele>
        <time>2020-05-23T12:44:05Z</time>
      </trkpt>
      <trkpt lat="47.1819" lon="-1.67628">
        <ele>37.05</ele>
        <time>2020-05-23T12:44:07Z</time>
      </trkpt>
      <trkpt lat="47.18177" lon="-1.67637">
        <ele>37.31</ele>
        <time>2020-05-23T12:44:09Z</time>
      </trkpt>
      <trkpt lat="47.18165" lon="-1.67645">
        <ele>37.57</ele>
        <time>2020-05-23T12:44:11Z</time>
      </trkpt>
      <trkpt lat="47.18152" lon="-1.67653">
        <ele>37.67</ele>
        <time>2020-05-23T12:44:13Z</time>
      </trkpt>
      <trkpt lat="47.1814" lon="-1.67661">
        <ele>37.65</ele>
        <time>2020-05-23T12:44:15Z</time>
      </trkpt>
      <trkpt lat="47.1813" lon="-1.67667">
        <ele>37.67</ele>
        <time>2020-05-23T12:44:17Z</time>
      </trkpt>
      <trkpt lat="47.18117" lon="-1.67674">
        <ele>38.2</ele>
        <time>2020-05-23T12:44:19Z</time>
      </trkpt>
      <trkpt lat="47.18105" lon="-1.67681">
        <ele>37.49</ele>
        <time>2020-05-23T12:44:21Z</time>
      </trkpt>
      <trkpt lat="47.18094" lon="-1.67688">
        <ele>37.2</ele>
        <time>2020-05-23T12:44:23Z</time>
      </trkpt>
      <trkpt lat="47.18082" lon="-1.67696">
        <ele>37.04</ele>
        <time>2020-05-23T12:44:25Z</time>
      </trkpt>
      <trkpt lat="47.18068" lon="-1.67704">
        <ele>37.15</ele>
        <time>2020-05-23T12:44:27Z</time>
      </trkpt>
      <trkpt lat="47.18056" lon="-1.67711">
        <ele>37.49</ele>
        <time>2020-05-23T12:44:29Z</time>
      </trkpt>
      <trkpt lat="47.18044" lon="-1.6772">
        <ele>37.71</ele>
        <time>2020-05-23T12:44:31Z</time>
      </trkpt>
      <trkpt lat="47.18033" lon="-1.67728">
        <ele>37.97</ele>
        <time>2020-05-23T12:44:33Z</time>
      </trkpt>
      <trkpt lat="47.18023" lon="-1.67736">
        <ele>37.91</ele>
        <time>2020-05-23T12:44:35Z</time>
      </trkpt>
      <trkpt lat="47.18013" lon="-1.67746">
        <ele>37.78</ele>
        <time>2020-05-23T12:44:37Z</time>
      </trkpt>
      <trkpt lat="47.18003" lon="-1.67755">
        <ele>37.66</ele>
        <time>2020-05-23T12:44:39Z</time>
      </trkpt>
      <trkpt lat="47.17995" lon="-1.67739">
        <ele>37.2</ele>
        <time>2020-05-23T12:44:42Z</time>
      </trkpt>
      <trkpt lat="47.17991" lon="-1.67721">
        <ele>36.63</ele>
        <time>2020-05-23T12:44:44Z</time>
      </trkpt>
      <trkpt lat="47.17986" lon="-1.67704">
        <ele>36.4</ele>
        <time>2020-05-23T12:44:46Z</time>
      </trkpt>
      <trkpt lat="47.17981" lon="-1.67686">
        <ele>36.07</ele>
        <time>2020-05-23T12:44:48Z</time>
      </trkpt>
      <trkpt lat="47.17976" lon="-1.6767">
        <ele>35.51</ele>
        <time>2020-05-23T12:44:50Z</time>
      </trkpt>
      <trkpt lat="47.17971" lon="-1.67654">
        <ele>34.55</ele>
        <time>2020-05-23T12:44:52Z</time>
      </trkpt>
      <trkpt lat="47.17966" lon="-1.67635">
        <ele>33.85</ele>
        <time>2020-05-23T12:44:54Z</time>
      </trkpt>
      <trkpt lat="47.17961" lon="-1.67616">
        <ele>33.16</ele>
        <time>2020-05-23T12:44:56Z</time>
      </trkpt>
      <trkpt lat="47.17955" lon="-1.67599">
        <ele>31.86</ele>
        <time>2020-05-23T12:44:58Z</time>
      </trkpt>
      <trkpt lat="47.17949" lon="-1.67581">
        <ele>30.71</ele>
        <time>2020-05-23T12:45:00Z</time>
      </trkpt>
      <trkpt lat="47.17942" lon="-1.67561">
        <ele>29.67</ele>
        <time>2020-05-23T12:45:02Z</time>
      </trkpt>
      <trkpt lat="47.17936" lon="-1.67543">
        <ele>29.2</ele>
        <time>2020-05-23T12:45:04Z</time>
      </trkpt>
      <trkpt lat="47.17931" lon="-1.67527">
        <ele>28.74</ele>
        <time>2020-05-23T12:45:06Z</time>
      </trkpt>
      <trkpt lat="47.17925" lon="-1.67509">
        <ele>28.17</ele>
        <time>2020-05-23T12:45:08Z</time>
      </trkpt>
      <trkpt lat="47.17919" lon="-1.67492">
        <ele>27</ele>
        <time>2020-05-23T12:45:10Z</time>
      </trkpt>
      <trkpt lat="47.17914" lon="-1.67475">
        <ele>26.16</ele>
        <time>2020-05-23T12:45:12Z</time>
      </trkpt>
      <trkpt lat="47.17908" lon="-1.67456">
        <ele>25.49</ele>
        <time>2020-05-23T12:45:14Z</time>
      </trkpt>
      <trkpt lat="47.17902" lon="-1.67439">
        <ele>25.17</ele>
        <time>2020-05-23T12:45:16Z</time>
      </trkpt>
      <trkpt lat="47.17898" lon="-1.67424">
        <ele>24.97</ele>
        <time>2020-05-23T12:45:18Z</time>
      </trkpt>
      <trkpt lat="47.17893" lon="-1.67412">
        <ele>24.45</ele>
        <time>2020-05-23T12:45:20Z</time>
      </trkpt>
      <trkpt lat="47.17885" lon="-1.67404">
        <ele>25.02</ele>
        <time>2020-05-23T12:45:24Z</time>
      </trkpt>
      <trkpt lat="47.1788" lon="-1.67387">
        <ele>25.9</ele>
        <time>2020-05-23T12:45:27Z</time>
      </trkpt>
      <trkpt lat="47.17876" lon="-1.67372">
        <ele>27.34</ele>
        <time>2020-05-23T12:45:30Z</time>
      </trkpt>
      <trkpt lat="47.17869" lon="-1.67357">
        <ele>28.91</ele>
        <time>2020-05-23T12:45:32Z</time>
      </trkpt>
      <trkpt lat="47.17861" lon="-1.67342">
        <ele>30.49</ele>
        <time>2020-05-23T12:45:34Z</time>
      </trkpt>
      <trkpt lat="47.17854" lon="-1.67327">
        <ele>31.3</ele>
        <time>2020-05-23T12:45:36Z</time>
      </trkpt>
      <trkpt lat="47.17848" lon="-1.67313">
        <ele>33.29</ele>
        <time>2020-05-23T12:45:38Z</time>
      </trkpt>
      <trkpt lat="47.1784" lon="-1.67297">
        <ele>35.76</ele>
        <time>2020-05-23T12:45:40Z</time>
      </trkpt>
      <trkpt lat="47.17832" lon="-1.67281">
        <ele>37.36</ele>
        <time>2020-05-23T12:45:42Z</time>
      </trkpt>
      <trkpt lat="47.17825" lon="-1.67264">
        <ele>39.17</ele>
        <time>2020-05-23T12:45:44Z</time>
      </trkpt>
      <trkpt lat="47.17816" lon="-1.67248">
        <ele>39.69</ele>
        <time>2020-05-23T12:45:46Z</time>
      </trkpt>
      <trkpt lat="47.17808" lon="-1.67231">
        <ele>40.5</ele>
        <time>2020-05-23T12:45:48Z</time>
      </trkpt>
      <trkpt lat="47.17799" lon="-1.67214">
        <ele>40.55</ele>
        <time>2020-05-23T12:45:50Z</time>
      </trkpt>
      <trkpt lat="47.17791" lon="-1.67198">
        <ele>40.57</ele>
        <time>2020-05-23T12:45:52Z</time>
      </trkpt>
      <trkpt lat="47.17783" lon="-1.67183">
        <ele>40.21</ele>
        <time>2020-05-23T12:45:54Z</time>
      </trkpt>
      <trkpt lat="47.17774" lon="-1.67167">
        <ele>40.25</ele>
        <time>2020-05-23T12:45:56Z</time>
      </trkpt>
      <trkpt lat="47.17766" lon="-1.67152">
        <ele>40.03</ele>
        <time>2020-05-23T12:45:58Z</time>
      </trkpt>
      <trkpt lat="47.17759" lon="-1.67138">
        <ele>39.98</ele>
        <time>2020-05-23T12:46:00Z</time>
      </trkpt>
      <trkpt lat="47.1775" lon="-1.67123">
        <ele>39.62</ele>
        <time>2020-05-23T12:46:02Z</time>
      </trkpt>
      <trkpt lat="47.17742" lon="-1.6711">
        <ele>39.35</ele>
        <time>2020-05-23T12:46:04Z</time>
      </trkpt>
      <trkpt lat="47.17733" lon="-1.67095">
        <ele>39.15</ele>
        <time>2020-05-23T12:46:06Z</time>
      </trkpt>
      <trkpt lat="47.17724" lon="-1.67079">
        <ele>38.19</ele>
        <time>2020-05-23T12:46:08Z</time>
      </trkpt>
      <trkpt lat="47.17716" lon="-1.67063">
        <ele>37.88</ele>
        <time>2020-05-23T12:46:10Z</time>
      </trkpt>
      <trkpt lat="47.17709" lon="-1.67048">
        <ele>37.84</ele>
        <time>2020-05-23T12:46:12Z</time>
      </trkpt>
      <trkpt lat="47.17702" lon="-1.67033">
        <ele>37.8</ele>
        <time>2020-05-23T12:46:14Z</time>
      </trkpt>
      <trkpt lat="47.17695" lon="-1.6702">
        <ele>37.97</ele>
        <time>2020-05-23T12:46:16Z</time>
      </trkpt>
      <trkpt lat="47.17687" lon="-1.67004">
        <ele>38.75</ele>
        <time>2020-05-23T12:46:18Z</time>
      </trkpt>
      <trkpt lat="47.1768" lon="-1.66989">
        <ele>40.13</ele>
        <time>2020-05-23T12:46:20Z</time>
      </trkpt>
      <trkpt lat="47.17672" lon="-1.66973">
        <ele>41.08</ele>
        <time>2020-05-23T12:46:22Z</time>
      </trkpt>
      <trkpt lat="47.17664" lon="-1.66958">
        <ele>41.48</ele>
        <time>2020-05-23T12:46:24Z</time>
      </trkpt>
      <trkpt lat="47.17655" lon="-1.66943">
        <ele>41.17</ele>
        <time>2020-05-23T12:46:26Z</time>
      </trkpt>
      <trkpt lat="47.17646" lon="-1.66928">
        <ele>40.84</ele>
        <time>2020-05-23T12:46:28Z</time>
      </trkpt>
      <trkpt lat="47.17638" lon="-1.66913">
        <ele>40.45</ele>
        <time>2020-05-23T12:46:30Z</time>
      </trkpt>
      <trkpt lat="47.1763" lon="-1.66899">
        <ele>39.91</ele>
        <time>2020-05-23T12:46:32Z</time>
      </trkpt>
      <trkpt lat="47.17623" lon="-1.66884">
        <ele>40.01</ele>
        <time>2020-05-23T12:46:34Z</time>
      </trkpt>
      <trkpt lat="47.17614" lon="-1.66868">
        <ele>40.31</ele>
        <time>2020-05-23T12:46:36Z</time>
      </trkpt>
      <trkpt lat="47.17605" lon="-1.66853">
        <ele>39.27</ele>
        <time>2020-05-23T12:46:38Z</time>
      </trkpt>
      <trkpt lat="47.17596" lon="-1.66838">
        <ele>38.64</ele>
        <time>2020-05-23T12:46:40Z</time>
      </trkpt>
      <trkpt lat="47.17588" lon="-1.66823">
        <ele>38.61</ele>
        <time>2020-05-23T12:46:42Z</time>
      </trkpt>
      <trkpt lat="47.17579" lon="-1.66807">
        <ele>38.52</ele>
        <time>2020-05-23T12:46:44Z</time>
      </trkpt>
      <trkpt lat="47.17571" lon="-1.66792">
        <ele>38.92</ele>
        <time>2020-05-23T12:46:46Z</time>
      </trkpt>
      <trkpt lat="47.17564" lon="-1.6678">
        <ele>39.53</ele>
        <time>2020-05-23T12:46:48Z</time>
      </trkpt>
      <trkpt lat="47.17555" lon="-1.66764">
        <ele>40.14</ele>
        <time>2020-05-23T12:46:50Z</time>
      </trkpt>
      <trkpt lat="47.17547" lon="-1.66748">
        <ele>41.36</ele>
        <time>2020-05-23T12:46:52Z</time>
      </trkpt>
      <trkpt lat="47.1754" lon="-1.66731">
        <ele>42.4</ele>
        <time>2020-05-23T12:46:54Z</time>
      </trkpt>
      <trkpt lat="47.17532" lon="-1.66715">
        <ele>42.32</ele>
        <time>2020-05-23T12:46:56Z</time>
      </trkpt>
      <trkpt lat="47.17524" lon="-1.66701">
        <ele>41.3</ele>
        <time>2020-05-23T12:46:58Z</time>
      </trkpt>
      <trkpt lat="47.17516" lon="-1.66687">
        <ele>40.39</ele>
        <time>2020-05-23T12:47:00Z</time>
      </trkpt>
      <trkpt lat="47.17507" lon="-1.66673">
        <ele>39.46</ele>
        <time>2020-05-23T12:47:02Z</time>
      </trkpt>
      <trkpt lat="47.175" lon="-1.66659">
        <ele>38.96</ele>
        <time>2020-05-23T12:47:04Z</time>
      </trkpt>
      <trkpt lat="47.17494" lon="-1.66646">
        <ele>39</ele>
        <time>2020-05-23T12:47:06Z</time>
      </trkpt>
      <trkpt lat="47.17486" lon="-1.6663">
        <ele>38.74</ele>
        <time>2020-05-23T12:47:08Z</time>
      </trkpt>
      <trkpt lat="47.17477" lon="-1.66614">
        <ele>38.93</ele>
        <time>2020-05-23T12:47:10Z</time>
      </trkpt>
      <trkpt lat="47.17469" lon="-1.66598">
        <ele>39.03</ele>
        <time>2020-05-23T12:47:12Z</time>
      </trkpt>
      <trkpt lat="47.17461" lon="-1.66584">
        <ele>39.04</ele>
        <time>2020-05-23T12:47:14Z</time>
      </trkpt>
      <trkpt lat="47.17455" lon="-1.66572">
        <ele>38.78</ele>
        <time>2020-05-23T12:47:16Z</time>
      </trkpt>
      <trkpt lat="47.17447" lon="-1.6656">
        <ele>38.71</ele>
        <time>2020-05-23T12:47:18Z</time>
      </trkpt>
      <trkpt lat="47.1744" lon="-1.66545">
        <ele>38.5</ele>
        <time>2020-05-23T12:47:20Z</time>
      </trkpt>
      <trkpt lat="47.17432" lon="-1.66531">
        <ele>39.12</ele>
        <time>2020-05-23T12:47:22Z</time>
      </trkpt>
      <trkpt lat="47.17424" lon="-1.66514">
        <ele>39.23</ele>
        <time>2020-05-23T12:47:24Z</time>
      </trkpt>
      <trkpt lat="47.17417" lon="-1.66498">
        <ele>39.25</ele>
        <time>2020-05-23T12:47:26Z</time>
      </trkpt>
      <trkpt lat="47.17409" lon="-1.66483">
        <ele>39.27</ele>
        <time>2020-05-23T12:47:28Z</time>
      </trkpt>
      <trkpt lat="47.174" lon="-1.66468">
        <ele>40.46</ele>
        <time>2020-05-23T12:47:30Z</time>
      </trkpt>
      <trkpt lat="47.17392" lon="-1.66453">
        <ele>40.23</ele>
        <time>2020-05-23T12:47:32Z</time>
      </trkpt>
      <trkpt lat="47.17384" lon="-1.66441">
        <ele>40.23</ele>
        <time>2020-05-23T12:47:34Z</time>
      </trkpt>
      <trkpt lat="47.17374" lon="-1.66426">
        <ele>40.21</ele>
        <time>2020-05-23T12:47:36Z</time>
      </trkpt>
      <trkpt lat="47.17366" lon="-1.66413">
        <ele>39.04</ele>
        <time>2020-05-23T12:47:38Z</time>
      </trkpt>
      <trkpt lat="47.17358" lon="-1.66398">
        <ele>38.32</ele>
        <time>2020-05-23T12:47:40Z</time>
      </trkpt>
      <trkpt lat="47.17349" lon="-1.66384">
        <ele>38.25</ele>
        <time>2020-05-23T12:47:42Z</time>
      </trkpt>
      <trkpt lat="47.1734" lon="-1.66367">
        <ele>38.44</ele>
        <time>2020-05-23T12:47:44Z</time>
      </trkpt>
      <trkpt lat="47.17332" lon="-1.66351">
        <ele>38</ele>
        <time>2020-05-23T12:47:46Z</time>
      </trkpt>
      <trkpt lat="47.17324" lon="-1.66336">
        <ele>37.01</ele>
        <time>2020-05-23T12:47:48Z</time>
      </trkpt>
      <trkpt lat="47.17317" lon="-1.66322">
        <ele>36.76</ele>
        <time>2020-05-23T12:47:50Z</time>
      </trkpt>
      <trkpt lat="47.1731" lon="-1.66306">
        <ele>37.12</ele>
        <time>2020-05-23T12:47:52Z</time>
      </trkpt>
      <trkpt lat="47.17302" lon="-1.66291">
        <ele>37.16</ele>
        <time>2020-05-23T12:47:54Z</time>
      </trkpt>
      <trkpt lat="47.17294" lon="-1.66278">
        <ele>36.96</ele>
        <time>2020-05-23T12:47:56Z</time>
      </trkpt>
      <trkpt lat="47.17286" lon="-1.66265">
        <ele>35.94</ele>
        <time>2020-05-23T12:47:58Z</time>
      </trkpt>
      <trkpt lat="47.17278" lon="-1.6625">
        <ele>34.91</ele>
        <time>2020-05-23T12:48:00Z</time>
      </trkpt>
      <trkpt lat="47.1727" lon="-1.66236">
        <ele>35.26</ele>
        <time>2020-05-23T12:48:02Z</time>
      </trkpt>
      <trkpt lat="47.17262" lon="-1.66221">
        <ele>35.65</ele>
        <time>2020-05-23T12:48:04Z</time>
      </trkpt>
      <trkpt lat="47.17254" lon="-1.66203">
        <ele>34.69</ele>
        <time>2020-05-23T12:48:06Z</time>
      </trkpt>
      <trkpt lat="47.17247" lon="-1.66188">
        <ele>35.78</ele>
        <time>2020-05-23T12:48:08Z</time>
      </trkpt>
      <trkpt lat="47.1724" lon="-1.66174">
        <ele>36.63</ele>
        <time>2020-05-23T12:48:10Z</time>
      </trkpt>
      <trkpt lat="47.17233" lon="-1.66156">
        <ele>36.33</ele>
        <time>2020-05-23T12:48:12Z</time>
      </trkpt>
      <trkpt lat="47.17229" lon="-1.66139">
        <ele>35.82</ele>
        <time>2020-05-23T12:48:14Z</time>
      </trkpt>
      <trkpt lat="47.17225" lon="-1.66122">
        <ele>34.41</ele>
        <time>2020-05-23T12:48:16Z</time>
      </trkpt>
      <trkpt lat="47.17219" lon="-1.66104">
        <ele>33.17</ele>
        <time>2020-05-23T12:48:18Z</time>
      </trkpt>
      <trkpt lat="47.17214" lon="-1.66086">
        <ele>31.88</ele>
        <time>2020-05-23T12:48:20Z</time>
      </trkpt>
      <trkpt lat="47.17208" lon="-1.66067">
        <ele>31.39</ele>
        <time>2020-05-23T12:48:22Z</time>
      </trkpt>
      <trkpt lat="47.17204" lon="-1.66047">
        <ele>31.97</ele>
        <time>2020-05-23T12:48:24Z</time>
      </trkpt>
      <trkpt lat="47.17201" lon="-1.66027">
        <ele>32.92</ele>
        <time>2020-05-23T12:48:26Z</time>
      </trkpt>
      <trkpt lat="47.17197" lon="-1.66008">
        <ele>34.11</ele>
        <time>2020-05-23T12:48:28Z</time>
      </trkpt>
      <trkpt lat="47.17193" lon="-1.65988">
        <ele>34.92</ele>
        <time>2020-05-23T12:48:30Z</time>
      </trkpt>
      <trkpt lat="47.1719" lon="-1.6597">
        <ele>35.59</ele>
        <time>2020-05-23T12:48:32Z</time>
      </trkpt>
      <trkpt lat="47.17187" lon="-1.65952">
        <ele>35.63</ele>
        <time>2020-05-23T12:48:34Z</time>
      </trkpt>
      <trkpt lat="47.17184" lon="-1.65933">
        <ele>35.65</ele>
        <time>2020-05-23T12:48:36Z</time>
      </trkpt>
      <trkpt lat="47.1718" lon="-1.65912">
        <ele>35.56</ele>
        <time>2020-05-23T12:48:38Z</time>
      </trkpt>
      <trkpt lat="47.17176" lon="-1.65891">
        <ele>35.98</ele>
        <time>2020-05-23T12:48:40Z</time>
      </trkpt>
      <trkpt lat="47.17173" lon="-1.65872">
        <ele>36.3</ele>
        <time>2020-05-23T12:48:42Z</time>
      </trkpt>
      <trkpt lat="47.1717" lon="-1.65853">
        <ele>35.51</ele>
        <time>2020-05-23T12:48:44Z</time>
      </trkpt>
      <trkpt lat="47.17167" lon="-1.65834">
        <ele>34.96</ele>
        <time>2020-05-23T12:48:46Z</time>
      </trkpt>
      <trkpt lat="47.17163" lon="-1.65813">
        <ele>34.78</ele>
        <time>2020-05-23T12:48:48Z</time>
      </trkpt>
      <trkpt lat="47.1716" lon="-1.65794">
        <ele>34.89</ele>
        <time>2020-05-23T12:48:50Z</time>
      </trkpt>
      <trkpt lat="47.17158" lon="-1.65773">
        <ele>34.93</ele>
        <time>2020-05-23T12:48:52Z</time>
      </trkpt>
      <trkpt lat="47.17156" lon="-1.65754">
        <ele>35.5</ele>
        <time>2020-05-23T12:48:54Z</time>
      </trkpt>
      <trkpt lat="47.17154" lon="-1.65735">
        <ele>35.82</ele>
        <time>2020-05-23T12:48:56Z</time>
      </trkpt>
      <trkpt lat="47.17152" lon="-1.65716">
        <ele>35.75</ele>
        <time>2020-05-23T12:48:58Z</time>
      </trkpt>
      <trkpt lat="47.1715" lon="-1.65694">
        <ele>34.65</ele>
        <time>2020-05-23T12:49:00Z</time>
      </trkpt>
      <trkpt lat="47.1715" lon="-1.65674">
        <ele>34.1</ele>
        <time>2020-05-23T12:49:02Z</time>
      </trkpt>
      <trkpt lat="47.17149" lon="-1.65654">
        <ele>34.61</ele>
        <time>2020-05-23T12:49:04Z</time>
      </trkpt>
      <trkpt lat="47.17149" lon="-1.65633">
        <ele>35.26</ele>
        <time>2020-05-23T12:49:06Z</time>
      </trkpt>
      <trkpt lat="47.17149" lon="-1.65613">
        <ele>36.19</ele>
        <time>2020-05-23T12:49:08Z</time>
      </trkpt>
      <trkpt lat="47.1715" lon="-1.65591">
        <ele>36.82</ele>
        <time>2020-05-23T12:49:10Z</time>
      </trkpt>
      <trkpt lat="47.17151" lon="-1.6557">
        <ele>36.99</ele>
        <time>2020-05-23T12:49:12Z</time>
      </trkpt>
      <trkpt lat="47.17152" lon="-1.65551">
        <ele>37.07</ele>
        <time>2020-05-23T12:49:14Z</time>
      </trkpt>
      <trkpt lat="47.17154" lon="-1.65531">
        <ele>36.63</ele>
        <time>2020-05-23T12:49:16Z</time>
      </trkpt>
      <trkpt lat="47.17156" lon="-1.65512">
        <ele>36.8</ele>
        <time>2020-05-23T12:49:18Z</time>
      </trkpt>
      <trkpt lat="47.17158" lon="-1.6549">
        <ele>37.14</ele>
        <time>2020-05-23T12:49:20Z</time>
      </trkpt>
      <trkpt lat="47.1716" lon="-1.65469">
        <ele>36.48</ele>
        <time>2020-05-23T12:49:22Z</time>
      </trkpt>
      <trkpt lat="47.17163" lon="-1.65447">
        <ele>36.04</ele>
        <time>2020-05-23T12:49:24Z</time>
      </trkpt>
      <trkpt lat="47.17166" lon="-1.65426">
        <ele>35.53</ele>
        <time>2020-05-23T12:49:26Z</time>
      </trkpt>
      <trkpt lat="47.17168" lon="-1.65407">
        <ele>35.63</ele>
        <time>2020-05-23T12:49:28Z</time>
      </trkpt>
      <trkpt lat="47.17171" lon="-1.65388">
        <ele>36.02</ele>
        <time>2020-05-23T12:49:30Z</time>
      </trkpt>
      <trkpt lat="47.17174" lon="-1.65367">
        <ele>36.1</ele>
        <time>2020-05-23T12:49:32Z</time>
      </trkpt>
      <trkpt lat="47.17176" lon="-1.65348">
        <ele>35.65</ele>
        <time>2020-05-23T12:49:34Z</time>
      </trkpt>
      <trkpt lat="47.17174" lon="-1.65327">
        <ele>35.62</ele>
        <time>2020-05-23T12:49:36Z</time>
      </trkpt>
      <trkpt lat="47.17168" lon="-1.6531">
        <ele>35.61</ele>
        <time>2020-05-23T12:49:38Z</time>
      </trkpt>
      <trkpt lat="47.17159" lon="-1.65297">
        <ele>35.26</ele>
        <time>2020-05-23T12:49:40Z</time>
      </trkpt>
      <trkpt lat="47.1715" lon="-1.65285">
        <ele>35.57</ele>
        <time>2020-05-23T12:49:42Z</time>
      </trkpt>
      <trkpt lat="47.17142" lon="-1.65273">
        <ele>35.83</ele>
        <time>2020-05-23T12:49:44Z</time>
      </trkpt>
      <trkpt lat="47.17133" lon="-1.65262">
        <ele>36.47</ele>
        <time>2020-05-23T12:49:46Z</time>
      </trkpt>
      <trkpt lat="47.17126" lon="-1.65245">
        <ele>36.2</ele>
        <time>2020-05-23T12:49:48Z</time>
      </trkpt>
      <trkpt lat="47.1712" lon="-1.65226">
        <ele>34.99</ele>
        <time>2020-05-23T12:49:50Z</time>
      </trkpt>
      <trkpt lat="47.17112" lon="-1.65207">
        <ele>34.28</ele>
        <time>2020-05-23T12:49:52Z</time>
      </trkpt>
      <trkpt lat="47.17109" lon="-1.65185">
        <ele>34.78</ele>
        <time>2020-05-23T12:49:54Z</time>
      </trkpt>
      <trkpt lat="47.1711" lon="-1.65162">
        <ele>35.77</ele>
        <time>2020-05-23T12:49:56Z</time>
      </trkpt>
      <trkpt lat="47.17109" lon="-1.65141">
        <ele>36.1</ele>
        <time>2020-05-23T12:49:58Z</time>
      </trkpt>
      <trkpt lat="47.17108" lon="-1.65118">
        <ele>34.86</ele>
        <time>2020-05-23T12:50:00Z</time>
      </trkpt>
      <trkpt lat="47.17107" lon="-1.65096">
        <ele>33.82</ele>
        <time>2020-05-23T12:50:02Z</time>
      </trkpt>
      <trkpt lat="47.17105" lon="-1.65076">
        <ele>33.48</ele>
        <time>2020-05-23T12:50:04Z</time>
      </trkpt>
      <trkpt lat="47.17104" lon="-1.65052">
        <ele>34.52</ele>
        <time>2020-05-23T12:50:06Z</time>
      </trkpt>
      <trkpt lat="47.17103" lon="-1.65028">
        <ele>35.15</ele>
        <time>2020-05-23T12:50:08Z</time>
      </trkpt>
      <trkpt lat="47.17101" lon="-1.65003">
        <ele>35.72</ele>
        <time>2020-05-23T12:50:10Z</time>
      </trkpt>
      <trkpt lat="47.171" lon="-1.64984">
        <ele>35.53</ele>
        <time>2020-05-23T12:50:12Z</time>
      </trkpt>
      <trkpt lat="47.17098" lon="-1.64963">
        <ele>34.89</ele>
        <time>2020-05-23T12:50:14Z</time>
      </trkpt>
      <trkpt lat="47.17096" lon="-1.64942">
        <ele>34.31</ele>
        <time>2020-05-23T12:50:16Z</time>
      </trkpt>
      <trkpt lat="47.17094" lon="-1.64919">
        <ele>33.14</ele>
        <time>2020-05-23T12:50:18Z</time>
      </trkpt>
      <trkpt lat="47.17092" lon="-1.64896">
        <ele>32.46</ele>
        <time>2020-05-23T12:50:20Z</time>
      </trkpt>
      <trkpt lat="47.1709" lon="-1.64875">
        <ele>31.95</ele>
        <time>2020-05-23T12:50:22Z</time>
      </trkpt>
      <trkpt lat="47.17088" lon="-1.6485">
        <ele>32.44</ele>
        <time>2020-05-23T12:50:24Z</time>
      </trkpt>
      <trkpt lat="47.17087" lon="-1.64828">
        <ele>32.23</ele>
        <time>2020-05-23T12:50:26Z</time>
      </trkpt>
      <trkpt lat="47.17085" lon="-1.64807">
        <ele>33.28</ele>
        <time>2020-05-23T12:50:28Z</time>
      </trkpt>
      <trkpt lat="47.17084" lon="-1.64784">
        <ele>34.2</ele>
        <time>2020-05-23T12:50:30Z</time>
      </trkpt>
      <trkpt lat="47.17083" lon="-1.64765">
        <ele>34.66</ele>
        <time>2020-05-23T12:50:32Z</time>
      </trkpt>
      <trkpt lat="47.17082" lon="-1.64746">
        <ele>34.67</ele>
        <time>2020-05-23T12:50:34Z</time>
      </trkpt>
      <trkpt lat="47.17081" lon="-1.64725">
        <ele>34.69</ele>
        <time>2020-05-23T12:50:36Z</time>
      </trkpt>
      <trkpt lat="47.17081" lon="-1.64703">
        <ele>34.74</ele>
        <time>2020-05-23T12:50:38Z</time>
      </trkpt>
      <trkpt lat="47.17081" lon="-1.64682">
        <ele>34.91</ele>
        <time>2020-05-23T12:50:40Z</time>
      </trkpt>
      <trkpt lat="47.17081" lon="-1.6466">
        <ele>34.42</ele>
        <time>2020-05-23T12:50:42Z</time>
      </trkpt>
      <trkpt lat="47.1708" lon="-1.6464">
        <ele>33.35</ele>
        <time>2020-05-23T12:50:44Z</time>
      </trkpt>
      <trkpt lat="47.1708" lon="-1.6462">
        <ele>33.39</ele>
        <time>2020-05-23T12:50:46Z</time>
      </trkpt>
      <trkpt lat="47.1708" lon="-1.64598">
        <ele>32.85</ele>
        <time>2020-05-23T12:50:48Z</time>
      </trkpt>
      <trkpt lat="47.1708" lon="-1.64578">
        <ele>31.64</ele>
        <time>2020-05-23T12:50:50Z</time>
      </trkpt>
      <trkpt lat="47.1708" lon="-1.64559">
        <ele>30.72</ele>
        <time>2020-05-23T12:50:52Z</time>
      </trkpt>
      <trkpt lat="47.1708" lon="-1.64539">
        <ele>30.68</ele>
        <time>2020-05-23T12:50:54Z</time>
      </trkpt>
      <trkpt lat="47.17081" lon="-1.64518">
        <ele>30.49</ele>
        <time>2020-05-23T12:50:56Z</time>
      </trkpt>
      <trkpt lat="47.17082" lon="-1.64499">
        <ele>30.63</ele>
        <time>2020-05-23T12:50:58Z</time>
      </trkpt>
      <trkpt lat="47.17083" lon="-1.64479">
        <ele>30.73</ele>
        <time>2020-05-23T12:51:00Z</time>
      </trkpt>
      <trkpt lat="47.17083" lon="-1.64459">
        <ele>31.01</ele>
        <time>2020-05-23T12:51:02Z</time>
      </trkpt>
      <trkpt lat="47.17085" lon="-1.64438">
        <ele>31.95</ele>
        <time>2020-05-23T12:51:04Z</time>
      </trkpt>
      <trkpt lat="47.17087" lon="-1.64414">
        <ele>33.18</ele>
        <time>2020-05-23T12:51:06Z</time>
      </trkpt>
      <trkpt lat="47.17088" lon="-1.64393">
        <ele>33.81</ele>
        <time>2020-05-23T12:51:08Z</time>
      </trkpt>
      <trkpt lat="47.1709" lon="-1.64372">
        <ele>33.75</ele>
        <time>2020-05-23T12:51:10Z</time>
      </trkpt>
      <trkpt lat="47.17091" lon="-1.64354">
        <ele>33.3</ele>
        <time>2020-05-23T12:51:12Z</time>
      </trkpt>
      <trkpt lat="47.17092" lon="-1.64336">
        <ele>33.97</ele>
        <time>2020-05-23T12:51:14Z</time>
      </trkpt>
      <trkpt lat="47.17094" lon="-1.64315">
        <ele>34.03</ele>
        <time>2020-05-23T12:51:16Z</time>
      </trkpt>
      <trkpt lat="47.17096" lon="-1.64291">
        <ele>34.57</ele>
        <time>2020-05-23T12:51:18Z</time>
      </trkpt>
      <trkpt lat="47.17099" lon="-1.6427">
        <ele>35.17</ele>
        <time>2020-05-23T12:51:20Z</time>
      </trkpt>
      <trkpt lat="47.17101" lon="-1.6425">
        <ele>35.6</ele>
        <time>2020-05-23T12:51:22Z</time>
      </trkpt>
      <trkpt lat="47.17103" lon="-1.64227">
        <ele>34.32</ele>
        <time>2020-05-23T12:51:24Z</time>
      </trkpt>
      <trkpt lat="47.17106" lon="-1.64209">
        <ele>33.04</ele>
        <time>2020-05-23T12:51:26Z</time>
      </trkpt>
      <trkpt lat="47.17109" lon="-1.64188">
        <ele>32.52</ele>
        <time>2020-05-23T12:51:28Z</time>
      </trkpt>
      <trkpt lat="47.17112" lon="-1.64167">
        <ele>31.74</ele>
        <time>2020-05-23T12:51:30Z</time>
      </trkpt>
      <trkpt lat="47.17114" lon="-1.64147">
        <ele>32.34</ele>
        <time>2020-05-23T12:51:32Z</time>
      </trkpt>
      <trkpt lat="47.17117" lon="-1.64124">
        <ele>32.63</ele>
        <time>2020-05-23T12:51:34Z</time>
      </trkpt>
      <trkpt lat="47.1712" lon="-1.64101">
        <ele>33.03</ele>
        <time>2020-05-23T12:51:37Z</time>
      </trkpt>
      <trkpt lat="47.17122" lon="-1.64081">
        <ele>33.27</ele>
        <time>2020-05-23T12:51:39Z</time>
      </trkpt>
      <trkpt lat="47.17124" lon="-1.64061">
        <ele>33.58</ele>
        <time>2020-05-23T12:51:41Z</time>
      </trkpt>
      <trkpt lat="47.17126" lon="-1.64039">
        <ele>33.27</ele>
        <time>2020-05-23T12:51:43Z</time>
      </trkpt>
      <trkpt lat="47.17128" lon="-1.64018">
        <ele>32.63</ele>
        <time>2020-05-23T12:51:45Z</time>
      </trkpt>
      <trkpt lat="47.1713" lon="-1.63997">
        <ele>31.76</ele>
        <time>2020-05-23T12:51:47Z</time>
      </trkpt>
      <trkpt lat="47.17132" lon="-1.63978">
        <ele>31.76</ele>
        <time>2020-05-23T12:51:49Z</time>
      </trkpt>
      <trkpt lat="47.17126" lon="-1.63956">
        <ele>32.86</ele>
        <time>2020-05-23T12:51:51Z</time>
      </trkpt>
      <trkpt lat="47.17118" lon="-1.63938">
        <ele>33.9</ele>
        <time>2020-05-23T12:51:53Z</time>
      </trkpt>
      <trkpt lat="47.1711" lon="-1.63919">
        <ele>33.33</ele>
        <time>2020-05-23T12:51:55Z</time>
      </trkpt>
      <trkpt lat="47.17103" lon="-1.63898">
        <ele>32.36</ele>
        <time>2020-05-23T12:51:57Z</time>
      </trkpt>
      <trkpt lat="47.17095" lon="-1.6388">
        <ele>31.98</ele>
        <time>2020-05-23T12:51:59Z</time>
      </trkpt>
      <trkpt lat="47.17088" lon="-1.63862">
        <ele>32.71</ele>
        <time>2020-05-23T12:52:01Z</time>
      </trkpt>
      <trkpt lat="47.17081" lon="-1.63843">
        <ele>33.89</ele>
        <time>2020-05-23T12:52:03Z</time>
      </trkpt>
      <trkpt lat="47.17076" lon="-1.63826">
        <ele>33.94</ele>
        <time>2020-05-23T12:52:05Z</time>
      </trkpt>
      <trkpt lat="47.1707" lon="-1.63807">
        <ele>33.47</ele>
        <time>2020-05-23T12:52:07Z</time>
      </trkpt>
      <trkpt lat="47.17064" lon="-1.63789">
        <ele>32.4</ele>
        <time>2020-05-23T12:52:09Z</time>
      </trkpt>
      <trkpt lat="47.17056" lon="-1.63772">
        <ele>31.23</ele>
        <time>2020-05-23T12:52:11Z</time>
      </trkpt>
      <trkpt lat="47.17045" lon="-1.6376">
        <ele>31.49</ele>
        <time>2020-05-23T12:52:13Z</time>
      </trkpt>
      <trkpt lat="47.17032" lon="-1.63753">
        <ele>31.35</ele>
        <time>2020-05-23T12:52:15Z</time>
      </trkpt>
      <trkpt lat="47.17019" lon="-1.63747">
        <ele>32.22</ele>
        <time>2020-05-23T12:52:17Z</time>
      </trkpt>
      <trkpt lat="47.17005" lon="-1.63742">
        <ele>32.61</ele>
        <time>2020-05-23T12:52:19Z</time>
      </trkpt>
      <trkpt lat="47.1699" lon="-1.63737">
        <ele>32.92</ele>
        <time>2020-05-23T12:52:21Z</time>
      </trkpt>
      <trkpt lat="47.16975" lon="-1.63732">
        <ele>33.68</ele>
        <time>2020-05-23T12:52:23Z</time>
      </trkpt>
      <trkpt lat="47.16961" lon="-1.63726">
        <ele>34.2</ele>
        <time>2020-05-23T12:52:25Z</time>
      </trkpt>
      <trkpt lat="47.16947" lon="-1.63721">
        <ele>34.79</ele>
        <time>2020-05-23T12:52:27Z</time>
      </trkpt>
      <trkpt lat="47.16932" lon="-1.63716">
        <ele>34.96</ele>
        <time>2020-05-23T12:52:29Z</time>
      </trkpt>
      <trkpt lat="47.16918" lon="-1.63712">
        <ele>34.82</ele>
        <time>2020-05-23T12:52:31Z</time>
      </trkpt>
      <trkpt lat="47.16905" lon="-1.63708">
        <ele>34.69</ele>
        <time>2020-05-23T12:52:33Z</time>
      </trkpt>
      <trkpt lat="47.1689" lon="-1.63703">
        <ele>34.19</ele>
        <time>2020-05-23T12:52:35Z</time>
      </trkpt>
      <trkpt lat="47.16875" lon="-1.63698">
        <ele>33.26</ele>
        <time>2020-05-23T12:52:37Z</time>
      </trkpt>
      <trkpt lat="47.16861" lon="-1.63694">
        <ele>32.89</ele>
        <time>2020-05-23T12:52:39Z</time>
      </trkpt>
      <trkpt lat="47.16847" lon="-1.63688">
        <ele>32.36</ele>
        <time>2020-05-23T12:52:41Z</time>
      </trkpt>
      <trkpt lat="47.16833" lon="-1.63684">
        <ele>31.74</ele>
        <time>2020-05-23T12:52:43Z</time>
      </trkpt>
      <trkpt lat="47.16818" lon="-1.63678">
        <ele>30.69</ele>
        <time>2020-05-23T12:52:45Z</time>
      </trkpt>
      <trkpt lat="47.16805" lon="-1.63673">
        <ele>30.5</ele>
        <time>2020-05-23T12:52:47Z</time>
      </trkpt>
      <trkpt lat="47.16792" lon="-1.63669">
        <ele>30.02</ele>
        <time>2020-05-23T12:52:49Z</time>
      </trkpt>
      <trkpt lat="47.16778" lon="-1.63664">
        <ele>29.41</ele>
        <time>2020-05-23T12:52:51Z</time>
      </trkpt>
      <trkpt lat="47.16765" lon="-1.6366">
        <ele>28.59</ele>
        <time>2020-05-23T12:52:53Z</time>
      </trkpt>
      <trkpt lat="47.16752" lon="-1.63655">
        <ele>27.59</ele>
        <time>2020-05-23T12:52:55Z</time>
      </trkpt>
      <trkpt lat="47.16741" lon="-1.63651">
        <ele>26.73</ele>
        <time>2020-05-23T12:52:57Z</time>
      </trkpt>
      <trkpt lat="47.16732" lon="-1.63645">
        <ele>26.02</ele>
        <time>2020-05-23T12:52:59Z</time>
      </trkpt>
      <trkpt lat="47.16735" lon="-1.63627">
        <ele>26.5</ele>
        <time>2020-05-23T12:53:01Z</time>
      </trkpt>
      <trkpt lat="47.16742" lon="-1.63617">
        <ele>26.93</ele>
        <time>2020-05-23T12:53:02Z</time>
      </trkpt>
      <trkpt lat="47.16755" lon="-1.63597">
        <ele>28.16</ele>
        <time>2020-05-23T12:53:04Z</time>
      </trkpt>
      <trkpt lat="47.16767" lon="-1.63578">
        <ele>28.77</ele>
        <time>2020-05-23T12:53:06Z</time>
      </trkpt>
      <trkpt lat="47.16774" lon="-1.63568">
        <ele>29.07</ele>
        <time>2020-05-23T12:53:07Z</time>
      </trkpt>
      <trkpt lat="47.1678" lon="-1.63558">
        <ele>29.24</ele>
        <time>2020-05-23T12:53:08Z</time>
      </trkpt>
      <trkpt lat="47.1679" lon="-1.63542">
        <ele>30.4</ele>
        <time>2020-05-23T12:53:10Z</time>
      </trkpt>
      <trkpt lat="47.16801" lon="-1.63527">
        <ele>31.17</ele>
        <time>2020-05-23T12:53:12Z</time>
      </trkpt>
      <trkpt lat="47.16811" lon="-1.63511">
        <ele>31.01</ele>
        <time>2020-05-23T12:53:14Z</time>
      </trkpt>
      <trkpt lat="47.1682" lon="-1.63497">
        <ele>30.92</ele>
        <time>2020-05-23T12:53:16Z</time>
      </trkpt>
      <trkpt lat="47.16829" lon="-1.63482">
        <ele>31.17</ele>
        <time>2020-05-23T12:53:18Z</time>
      </trkpt>
      <trkpt lat="47.16841" lon="-1.63464">
        <ele>30.81</ele>
        <time>2020-05-23T12:53:20Z</time>
      </trkpt>
      <trkpt lat="47.16852" lon="-1.63446">
        <ele>30.13</ele>
        <time>2020-05-23T12:53:22Z</time>
      </trkpt>
      <trkpt lat="47.16862" lon="-1.63429">
        <ele>29.13</ele>
        <time>2020-05-23T12:53:24Z</time>
      </trkpt>
      <trkpt lat="47.16871" lon="-1.63411">
        <ele>27.29</ele>
        <time>2020-05-23T12:53:26Z</time>
      </trkpt>
      <trkpt lat="47.1688" lon="-1.63395">
        <ele>26.99</ele>
        <time>2020-05-23T12:53:28Z</time>
      </trkpt>
      <trkpt lat="47.16888" lon="-1.6338">
        <ele>27.08</ele>
        <time>2020-05-23T12:53:30Z</time>
      </trkpt>
      <trkpt lat="47.16898" lon="-1.63363">
        <ele>28.19</ele>
        <time>2020-05-23T12:53:32Z</time>
      </trkpt>
      <trkpt lat="47.16909" lon="-1.63347">
        <ele>29.72</ele>
        <time>2020-05-23T12:53:34Z</time>
      </trkpt>
      <trkpt lat="47.1692" lon="-1.63331">
        <ele>30.42</ele>
        <time>2020-05-23T12:53:36Z</time>
      </trkpt>
      <trkpt lat="47.1693" lon="-1.63318">
        <ele>31.68</ele>
        <time>2020-05-23T12:53:38Z</time>
      </trkpt>
      <trkpt lat="47.16942" lon="-1.63302">
        <ele>31.85</ele>
        <time>2020-05-23T12:53:40Z</time>
      </trkpt>
      <trkpt lat="47.16953" lon="-1.63287">
        <ele>31.89</ele>
        <time>2020-05-23T12:53:42Z</time>
      </trkpt>
      <trkpt lat="47.16962" lon="-1.63274">
        <ele>31.44</ele>
        <time>2020-05-23T12:53:44Z</time>
      </trkpt>
      <trkpt lat="47.16971" lon="-1.63258">
        <ele>31.16</ele>
        <time>2020-05-23T12:53:46Z</time>
      </trkpt>
      <trkpt lat="47.16963" lon="-1.63246">
        <ele>30.93</ele>
        <time>2020-05-23T12:53:48Z</time>
      </trkpt>
      <trkpt lat="47.16951" lon="-1.63234">
        <ele>30.43</ele>
        <time>2020-05-23T12:53:50Z</time>
      </trkpt>
      <trkpt lat="47.16939" lon="-1.63219">
        <ele>30.25</ele>
        <time>2020-05-23T12:53:52Z</time>
      </trkpt>
      <trkpt lat="47.16928" lon="-1.63204">
        <ele>30.41</ele>
        <time>2020-05-23T12:53:54Z</time>
      </trkpt>
      <trkpt lat="47.16917" lon="-1.63188">
        <ele>31.3</ele>
        <time>2020-05-23T12:53:56Z</time>
      </trkpt>
      <trkpt lat="47.16907" lon="-1.63169">
        <ele>32.09</ele>
        <time>2020-05-23T12:53:58Z</time>
      </trkpt>
      <trkpt lat="47.16898" lon="-1.63149">
        <ele>31.94</ele>
        <time>2020-05-23T12:54:00Z</time>
      </trkpt>
      <trkpt lat="47.16891" lon="-1.6313">
        <ele>31.41</ele>
        <time>2020-05-23T12:54:02Z</time>
      </trkpt>
      <trkpt lat="47.16885" lon="-1.63111">
        <ele>30.2</ele>
        <time>2020-05-23T12:54:04Z</time>
      </trkpt>
      <trkpt lat="47.1688" lon="-1.63091">
        <ele>28.4</ele>
        <time>2020-05-23T12:54:06Z</time>
      </trkpt>
      <trkpt lat="47.16877" lon="-1.6307">
        <ele>27.19</ele>
        <time>2020-05-23T12:54:08Z</time>
      </trkpt>
      <trkpt lat="47.16876" lon="-1.63046">
        <ele>26.45</ele>
        <time>2020-05-23T12:54:10Z</time>
      </trkpt>
      <trkpt lat="47.16877" lon="-1.63022">
        <ele>26.16</ele>
        <time>2020-05-23T12:54:12Z</time>
      </trkpt>
      <trkpt lat="47.16879" lon="-1.62997">
        <ele>27.02</ele>
        <time>2020-05-23T12:54:14Z</time>
      </trkpt>
      <trkpt lat="47.16883" lon="-1.62975">
        <ele>28.29</ele>
        <time>2020-05-23T12:54:16Z</time>
      </trkpt>
      <trkpt lat="47.16885" lon="-1.62955">
        <ele>28.93</ele>
        <time>2020-05-23T12:54:18Z</time>
      </trkpt>
      <trkpt lat="47.16885" lon="-1.62934">
        <ele>29.53</ele>
        <time>2020-05-23T12:54:20Z</time>
      </trkpt>
      <trkpt lat="47.16882" lon="-1.62915">
        <ele>29.31</ele>
        <time>2020-05-23T12:54:22Z</time>
      </trkpt>
      <trkpt lat="47.16877" lon="-1.62896">
        <ele>28.88</ele>
        <time>2020-05-23T12:54:24Z</time>
      </trkpt>
      <trkpt lat="47.16867" lon="-1.6288">
        <ele>29.15</ele>
        <time>2020-05-23T12:54:26Z</time>
      </trkpt>
      <trkpt lat="47.16855" lon="-1.62866">
        <ele>29.61</ele>
        <time>2020-05-23T12:54:28Z</time>
      </trkpt>
      <trkpt lat="47.16842" lon="-1.62851">
        <ele>28.97</ele>
        <time>2020-05-23T12:54:30Z</time>
      </trkpt>
      <trkpt lat="47.16829" lon="-1.62838">
        <ele>28.24</ele>
        <time>2020-05-23T12:54:32Z</time>
      </trkpt>
      <trkpt lat="47.16816" lon="-1.62826">
        <ele>28.36</ele>
        <time>2020-05-23T12:54:34Z</time>
      </trkpt>
      <trkpt lat="47.16803" lon="-1.62814">
        <ele>27.12</ele>
        <time>2020-05-23T12:54:36Z</time>
      </trkpt>
      <trkpt lat="47.16789" lon="-1.62804">
        <ele>26.25</ele>
        <time>2020-05-23T12:54:38Z</time>
      </trkpt>
      <trkpt lat="47.16776" lon="-1.62793">
        <ele>25.64</ele>
        <time>2020-05-23T12:54:40Z</time>
      </trkpt>
      <trkpt lat="47.16762" lon="-1.62781">
        <ele>24.91</ele>
        <time>2020-05-23T12:54:42Z</time>
      </trkpt>
      <trkpt lat="47.1675" lon="-1.6277">
        <ele>24.36</ele>
        <time>2020-05-23T12:54:44Z</time>
      </trkpt>
      <trkpt lat="47.16739" lon="-1.6276">
        <ele>24.88</ele>
        <time>2020-05-23T12:54:46Z</time>
      </trkpt>
      <trkpt lat="47.16728" lon="-1.62747">
        <ele>24.72</ele>
        <time>2020-05-23T12:54:48Z</time>
      </trkpt>
      <trkpt lat="47.16719" lon="-1.62732">
        <ele>24.64</ele>
        <time>2020-05-23T12:54:50Z</time>
      </trkpt>
      <trkpt lat="47.16712" lon="-1.62717">
        <ele>24.59</ele>
        <time>2020-05-23T12:54:52Z</time>
      </trkpt>
      <trkpt lat="47.1671" lon="-1.627">
        <ele>23.92</ele>
        <time>2020-05-23T12:54:54Z</time>
      </trkpt>
      <trkpt lat="47.16722" lon="-1.62688">
        <ele>24.3</ele>
        <time>2020-05-23T12:54:56Z</time>
      </trkpt>
      <trkpt lat="47.16734" lon="-1.62679">
        <ele>25.16</ele>
        <time>2020-05-23T12:54:58Z</time>
      </trkpt>
      <trkpt lat="47.16746" lon="-1.62671">
        <ele>26.92</ele>
        <time>2020-05-23T12:55:00Z</time>
      </trkpt>
      <trkpt lat="47.16757" lon="-1.62666">
        <ele>26.86</ele>
        <time>2020-05-23T12:55:02Z</time>
      </trkpt>
      <trkpt lat="47.16766" lon="-1.62673">
        <ele>25.85</ele>
        <time>2020-05-23T12:55:04Z</time>
      </trkpt>
      <trkpt lat="47.16779" lon="-1.62673">
        <ele>25.81</ele>
        <time>2020-05-23T12:55:07Z</time>
      </trkpt>
      <trkpt lat="47.1678" lon="-1.62659">
        <ele>25.57</ele>
        <time>2020-05-23T12:55:11Z</time>
      </trkpt>
    </trkseg>
  </trk>
</gpx>